<?xml version="1.0" encoding="UTF-8" standalone="no" ?>
<gpx xmlns="http://www.topografix.com/GPX/1/1" xmlns:xsi="http://www.w3.org/2001/XMLSchema-instance" xsi:schemaLocation="http://www.topografix.com/GPX/1/1 http://www.topografix.com/GPX/1/1/gpx.xsd" version="1.1" creator="VisuGPX - https://www.visugpx.com">
  <metadata>
    <name>Graye-et-Charnay Cyclisme sur route</name>
  </metadata>
  <trk>
    <name><![CDATA[Graye-et-Charnay Cyclisme sur route_1]]></name>
    <trkseg>
      <trkpt lat="46.46468" lon="5.45238">
        <ele>370</ele>
        <time>2022-06-06T10:44:59Z</time>
      </trkpt>
      <trkpt lat="46.46468" lon="5.45238">
        <ele>370</ele>
        <time>2022-06-06T10:45:00Z</time>
      </trkpt>
      <trkpt lat="46.4646" lon="5.45228">
        <ele>369.8</ele>
        <time>2022-06-06T10:45:30Z</time>
      </trkpt>
      <trkpt lat="46.46454" lon="5.45225">
        <ele>369.8</ele>
        <time>2022-06-06T10:45:32Z</time>
      </trkpt>
      <trkpt lat="46.46434" lon="5.45218">
        <ele>370</ele>
        <time>2022-06-06T10:45:37Z</time>
      </trkpt>
      <trkpt lat="46.46425" lon="5.45215">
        <ele>370</ele>
        <time>2022-06-06T10:45:39Z</time>
      </trkpt>
      <trkpt lat="46.46409" lon="5.45211">
        <ele>370.4</ele>
        <time>2022-06-06T10:45:42Z</time>
      </trkpt>
      <trkpt lat="46.46404" lon="5.4521">
        <ele>370.4</ele>
        <time>2022-06-06T10:45:43Z</time>
      </trkpt>
      <trkpt lat="46.46394" lon="5.4521">
        <ele>370.6</ele>
        <time>2022-06-06T10:45:45Z</time>
      </trkpt>
      <trkpt lat="46.46389" lon="5.45213">
        <ele>370.6</ele>
        <time>2022-06-06T10:45:46Z</time>
      </trkpt>
      <trkpt lat="46.46356" lon="5.4523">
        <ele>370.8</ele>
        <time>2022-06-06T10:45:53Z</time>
      </trkpt>
      <trkpt lat="46.46315" lon="5.45258">
        <ele>370.6</ele>
        <time>2022-06-06T10:46:02Z</time>
      </trkpt>
      <trkpt lat="46.46282" lon="5.45284">
        <ele>371</ele>
        <time>2022-06-06T10:46:09Z</time>
      </trkpt>
      <trkpt lat="46.46246" lon="5.45313">
        <ele>371.4</ele>
        <time>2022-06-06T10:46:17Z</time>
      </trkpt>
      <trkpt lat="46.46231" lon="5.45324">
        <ele>371.4</ele>
        <time>2022-06-06T10:46:20Z</time>
      </trkpt>
      <trkpt lat="46.46189" lon="5.45354">
        <ele>371.2</ele>
        <time>2022-06-06T10:46:28Z</time>
      </trkpt>
      <trkpt lat="46.46147" lon="5.45385">
        <ele>370.6</ele>
        <time>2022-06-06T10:46:35Z</time>
      </trkpt>
      <trkpt lat="46.4611" lon="5.45409">
        <ele>371.2</ele>
        <time>2022-06-06T10:46:42Z</time>
      </trkpt>
      <trkpt lat="46.4606" lon="5.45442">
        <ele>372.2</ele>
        <time>2022-06-06T10:46:52Z</time>
      </trkpt>
      <trkpt lat="46.4605" lon="5.45448">
        <ele>372.4</ele>
        <time>2022-06-06T10:46:54Z</time>
      </trkpt>
      <trkpt lat="46.46006" lon="5.45473">
        <ele>373.2</ele>
        <time>2022-06-06T10:47:02Z</time>
      </trkpt>
      <trkpt lat="46.45974" lon="5.45491">
        <ele>373.4</ele>
        <time>2022-06-06T10:47:08Z</time>
      </trkpt>
      <trkpt lat="46.45964" lon="5.45497">
        <ele>373.6</ele>
        <time>2022-06-06T10:47:10Z</time>
      </trkpt>
      <trkpt lat="46.45934" lon="5.45515">
        <ele>374.6</ele>
        <time>2022-06-06T10:47:16Z</time>
      </trkpt>
      <trkpt lat="46.45914" lon="5.45526">
        <ele>375.2</ele>
        <time>2022-06-06T10:47:20Z</time>
      </trkpt>
      <trkpt lat="46.45895" lon="5.45537">
        <ele>375.6</ele>
        <time>2022-06-06T10:47:24Z</time>
      </trkpt>
      <trkpt lat="46.45877" lon="5.45547">
        <ele>376</ele>
        <time>2022-06-06T10:47:28Z</time>
      </trkpt>
      <trkpt lat="46.45854" lon="5.4556">
        <ele>377</ele>
        <time>2022-06-06T10:47:33Z</time>
      </trkpt>
      <trkpt lat="46.45826" lon="5.45578">
        <ele>377.6</ele>
        <time>2022-06-06T10:47:39Z</time>
      </trkpt>
      <trkpt lat="46.45817" lon="5.45583">
        <ele>378</ele>
        <time>2022-06-06T10:47:41Z</time>
      </trkpt>
      <trkpt lat="46.45777" lon="5.45605">
        <ele>379</ele>
        <time>2022-06-06T10:47:49Z</time>
      </trkpt>
      <trkpt lat="46.45734" lon="5.45628">
        <ele>379.6</ele>
        <time>2022-06-06T10:47:57Z</time>
      </trkpt>
      <trkpt lat="46.45682" lon="5.45658">
        <ele>379.4</ele>
        <time>2022-06-06T10:48:06Z</time>
      </trkpt>
      <trkpt lat="46.45629" lon="5.45688">
        <ele>378.8</ele>
        <time>2022-06-06T10:48:14Z</time>
      </trkpt>
      <trkpt lat="46.45622" lon="5.45691">
        <ele>378.4</ele>
        <time>2022-06-06T10:48:15Z</time>
      </trkpt>
      <trkpt lat="46.45607" lon="5.45696">
        <ele>378</ele>
        <time>2022-06-06T10:48:17Z</time>
      </trkpt>
      <trkpt lat="46.4559" lon="5.45699">
        <ele>377.8</ele>
        <time>2022-06-06T10:48:19Z</time>
      </trkpt>
      <trkpt lat="46.45581" lon="5.45699">
        <ele>377.6</ele>
        <time>2022-06-06T10:48:20Z</time>
      </trkpt>
      <trkpt lat="46.45563" lon="5.45695">
        <ele>376.6</ele>
        <time>2022-06-06T10:48:22Z</time>
      </trkpt>
      <trkpt lat="46.45545" lon="5.45687">
        <ele>376</ele>
        <time>2022-06-06T10:48:24Z</time>
      </trkpt>
      <trkpt lat="46.45526" lon="5.45677">
        <ele>375.4</ele>
        <time>2022-06-06T10:48:26Z</time>
      </trkpt>
      <trkpt lat="46.45497" lon="5.4566">
        <ele>374</ele>
        <time>2022-06-06T10:48:29Z</time>
      </trkpt>
      <trkpt lat="46.45487" lon="5.45654">
        <ele>373.6</ele>
        <time>2022-06-06T10:48:30Z</time>
      </trkpt>
      <trkpt lat="46.45477" lon="5.45648">
        <ele>372.4</ele>
        <time>2022-06-06T10:48:31Z</time>
      </trkpt>
      <trkpt lat="46.45458" lon="5.45633">
        <ele>371</ele>
        <time>2022-06-06T10:48:33Z</time>
      </trkpt>
      <trkpt lat="46.4544" lon="5.45618">
        <ele>369.6</ele>
        <time>2022-06-06T10:48:35Z</time>
      </trkpt>
      <trkpt lat="46.45413" lon="5.45597">
        <ele>368.6</ele>
        <time>2022-06-06T10:48:38Z</time>
      </trkpt>
      <trkpt lat="46.45405" lon="5.45593">
        <ele>368.4</ele>
        <time>2022-06-06T10:48:39Z</time>
      </trkpt>
      <trkpt lat="46.45398" lon="5.45591">
        <ele>368.2</ele>
        <time>2022-06-06T10:48:40Z</time>
      </trkpt>
      <trkpt lat="46.45391" lon="5.4559">
        <ele>368.2</ele>
        <time>2022-06-06T10:48:41Z</time>
      </trkpt>
      <trkpt lat="46.45377" lon="5.45593">
        <ele>367.8</ele>
        <time>2022-06-06T10:48:43Z</time>
      </trkpt>
      <trkpt lat="46.45353" lon="5.45614">
        <ele>367.6</ele>
        <time>2022-06-06T10:48:47Z</time>
      </trkpt>
      <trkpt lat="46.45347" lon="5.45622">
        <ele>367.6</ele>
        <time>2022-06-06T10:48:48Z</time>
      </trkpt>
      <trkpt lat="46.45343" lon="5.45631">
        <ele>367.6</ele>
        <time>2022-06-06T10:48:49Z</time>
      </trkpt>
      <trkpt lat="46.4534" lon="5.45641">
        <ele>367.6</ele>
        <time>2022-06-06T10:48:50Z</time>
      </trkpt>
      <trkpt lat="46.45338" lon="5.45651">
        <ele>367.4</ele>
        <time>2022-06-06T10:48:51Z</time>
      </trkpt>
      <trkpt lat="46.45326" lon="5.45735">
        <ele>366.6</ele>
        <time>2022-06-06T10:48:59Z</time>
      </trkpt>
      <trkpt lat="46.45315" lon="5.45807">
        <ele>366.6</ele>
        <time>2022-06-06T10:49:06Z</time>
      </trkpt>
      <trkpt lat="46.45313" lon="5.45816">
        <ele>366.6</ele>
        <time>2022-06-06T10:49:07Z</time>
      </trkpt>
      <trkpt lat="46.45293" lon="5.45879">
        <ele>367</ele>
        <time>2022-06-06T10:49:14Z</time>
      </trkpt>
      <trkpt lat="46.45281" lon="5.45927">
        <ele>367.6</ele>
        <time>2022-06-06T10:49:20Z</time>
      </trkpt>
      <trkpt lat="46.45274" lon="5.45964">
        <ele>368.8</ele>
        <time>2022-06-06T10:49:25Z</time>
      </trkpt>
      <trkpt lat="46.45272" lon="5.4597">
        <ele>369.2</ele>
        <time>2022-06-06T10:49:26Z</time>
      </trkpt>
      <trkpt lat="46.45266" lon="5.45988">
        <ele>370</ele>
        <time>2022-06-06T10:49:29Z</time>
      </trkpt>
      <trkpt lat="46.45263" lon="5.45995">
        <ele>370.2</ele>
        <time>2022-06-06T10:49:30Z</time>
      </trkpt>
      <trkpt lat="46.45256" lon="5.46009">
        <ele>371.4</ele>
        <time>2022-06-06T10:49:33Z</time>
      </trkpt>
      <trkpt lat="46.45252" lon="5.46018">
        <ele>372</ele>
        <time>2022-06-06T10:49:35Z</time>
      </trkpt>
      <trkpt lat="46.45247" lon="5.46026">
        <ele>372.6</ele>
        <time>2022-06-06T10:49:37Z</time>
      </trkpt>
      <trkpt lat="46.45242" lon="5.46032">
        <ele>373.4</ele>
        <time>2022-06-06T10:49:39Z</time>
      </trkpt>
      <trkpt lat="46.45238" lon="5.46033">
        <ele>373.6</ele>
        <time>2022-06-06T10:49:40Z</time>
      </trkpt>
      <trkpt lat="46.45234" lon="5.46032">
        <ele>373.8</ele>
        <time>2022-06-06T10:49:41Z</time>
      </trkpt>
      <trkpt lat="46.45228" lon="5.46029">
        <ele>374</ele>
        <time>2022-06-06T10:49:42Z</time>
      </trkpt>
      <trkpt lat="46.45222" lon="5.46025">
        <ele>374</ele>
        <time>2022-06-06T10:49:43Z</time>
      </trkpt>
      <trkpt lat="46.45211" lon="5.46014">
        <ele>374</ele>
        <time>2022-06-06T10:49:45Z</time>
      </trkpt>
      <trkpt lat="46.45192" lon="5.45998">
        <ele>373.6</ele>
        <time>2022-06-06T10:49:48Z</time>
      </trkpt>
      <trkpt lat="46.45178" lon="5.45989">
        <ele>372.8</ele>
        <time>2022-06-06T10:49:50Z</time>
      </trkpt>
      <trkpt lat="46.4515" lon="5.45971">
        <ele>371.6</ele>
        <time>2022-06-06T10:49:54Z</time>
      </trkpt>
      <trkpt lat="46.45136" lon="5.4596">
        <ele>371.4</ele>
        <time>2022-06-06T10:49:56Z</time>
      </trkpt>
      <trkpt lat="46.45108" lon="5.4594">
        <ele>370.6</ele>
        <time>2022-06-06T10:50:00Z</time>
      </trkpt>
      <trkpt lat="46.451" lon="5.45937">
        <ele>370.4</ele>
        <time>2022-06-06T10:50:01Z</time>
      </trkpt>
      <trkpt lat="46.45065" lon="5.45921">
        <ele>369.6</ele>
        <time>2022-06-06T10:50:06Z</time>
      </trkpt>
      <trkpt lat="46.45051" lon="5.45913">
        <ele>369.2</ele>
        <time>2022-06-06T10:50:08Z</time>
      </trkpt>
      <trkpt lat="46.45" lon="5.4588">
        <ele>369.2</ele>
        <time>2022-06-06T10:50:16Z</time>
      </trkpt>
      <trkpt lat="46.44993" lon="5.45877">
        <ele>369.2</ele>
        <time>2022-06-06T10:50:17Z</time>
      </trkpt>
      <trkpt lat="46.44937" lon="5.45845">
        <ele>370.8</ele>
        <time>2022-06-06T10:50:26Z</time>
      </trkpt>
      <trkpt lat="46.44907" lon="5.45827">
        <ele>372</ele>
        <time>2022-06-06T10:50:31Z</time>
      </trkpt>
      <trkpt lat="46.44877" lon="5.45808">
        <ele>372.8</ele>
        <time>2022-06-06T10:50:36Z</time>
      </trkpt>
      <trkpt lat="46.44871" lon="5.45804">
        <ele>372.8</ele>
        <time>2022-06-06T10:50:37Z</time>
      </trkpt>
      <trkpt lat="46.4482" lon="5.45776">
        <ele>373.2</ele>
        <time>2022-06-06T10:50:45Z</time>
      </trkpt>
      <trkpt lat="46.44767" lon="5.45746">
        <ele>372.8</ele>
        <time>2022-06-06T10:50:53Z</time>
      </trkpt>
      <trkpt lat="46.44753" lon="5.45739">
        <ele>372.6</ele>
        <time>2022-06-06T10:50:55Z</time>
      </trkpt>
      <trkpt lat="46.44696" lon="5.45712">
        <ele>372</ele>
        <time>2022-06-06T10:51:03Z</time>
      </trkpt>
      <trkpt lat="46.44682" lon="5.45706">
        <ele>372.2</ele>
        <time>2022-06-06T10:51:05Z</time>
      </trkpt>
      <trkpt lat="46.44622" lon="5.45686">
        <ele>371.8</ele>
        <time>2022-06-06T10:51:13Z</time>
      </trkpt>
      <trkpt lat="46.44615" lon="5.45683">
        <ele>372</ele>
        <time>2022-06-06T10:51:14Z</time>
      </trkpt>
      <trkpt lat="46.44557" lon="5.45664">
        <ele>371.6</ele>
        <time>2022-06-06T10:51:22Z</time>
      </trkpt>
      <trkpt lat="46.4455" lon="5.45662">
        <ele>371.6</ele>
        <time>2022-06-06T10:51:23Z</time>
      </trkpt>
      <trkpt lat="46.44496" lon="5.45648">
        <ele>372</ele>
        <time>2022-06-06T10:51:31Z</time>
      </trkpt>
      <trkpt lat="46.44435" lon="5.4564">
        <ele>372</ele>
        <time>2022-06-06T10:51:40Z</time>
      </trkpt>
      <trkpt lat="46.44396" lon="5.45636">
        <ele>371.2</ele>
        <time>2022-06-06T10:51:45Z</time>
      </trkpt>
      <trkpt lat="46.44378" lon="5.45634">
        <ele>370.6</ele>
        <time>2022-06-06T10:51:47Z</time>
      </trkpt>
      <trkpt lat="46.44344" lon="5.4563">
        <ele>369.2</ele>
        <time>2022-06-06T10:51:51Z</time>
      </trkpt>
      <trkpt lat="46.44336" lon="5.45629">
        <ele>369</ele>
        <time>2022-06-06T10:51:52Z</time>
      </trkpt>
      <trkpt lat="46.44293" lon="5.45625">
        <ele>368.2</ele>
        <time>2022-06-06T10:51:57Z</time>
      </trkpt>
      <trkpt lat="46.44268" lon="5.45624">
        <ele>367.6</ele>
        <time>2022-06-06T10:52:00Z</time>
      </trkpt>
      <trkpt lat="46.44226" lon="5.45628">
        <ele>367</ele>
        <time>2022-06-06T10:52:05Z</time>
      </trkpt>
      <trkpt lat="46.44209" lon="5.45631">
        <ele>366.8</ele>
        <time>2022-06-06T10:52:07Z</time>
      </trkpt>
      <trkpt lat="46.4415" lon="5.45642">
        <ele>366</ele>
        <time>2022-06-06T10:52:14Z</time>
      </trkpt>
      <trkpt lat="46.44134" lon="5.45645">
        <ele>365.8</ele>
        <time>2022-06-06T10:52:16Z</time>
      </trkpt>
      <trkpt lat="46.4408" lon="5.45656">
        <ele>364.8</ele>
        <time>2022-06-06T10:52:23Z</time>
      </trkpt>
      <trkpt lat="46.44072" lon="5.45657">
        <ele>364.8</ele>
        <time>2022-06-06T10:52:24Z</time>
      </trkpt>
      <trkpt lat="46.44017" lon="5.45667">
        <ele>364.6</ele>
        <time>2022-06-06T10:52:31Z</time>
      </trkpt>
      <trkpt lat="46.43994" lon="5.45672">
        <ele>364.4</ele>
        <time>2022-06-06T10:52:34Z</time>
      </trkpt>
      <trkpt lat="46.4394" lon="5.45682">
        <ele>364.2</ele>
        <time>2022-06-06T10:52:41Z</time>
      </trkpt>
      <trkpt lat="46.43917" lon="5.45686">
        <ele>364.2</ele>
        <time>2022-06-06T10:52:44Z</time>
      </trkpt>
      <trkpt lat="46.43858" lon="5.45696">
        <ele>364.4</ele>
        <time>2022-06-06T10:52:52Z</time>
      </trkpt>
      <trkpt lat="46.43844" lon="5.45696">
        <ele>364.8</ele>
        <time>2022-06-06T10:52:54Z</time>
      </trkpt>
      <trkpt lat="46.43798" lon="5.45696">
        <ele>364.6</ele>
        <time>2022-06-06T10:53:00Z</time>
      </trkpt>
      <trkpt lat="46.43759" lon="5.45696">
        <ele>363.8</ele>
        <time>2022-06-06T10:53:05Z</time>
      </trkpt>
      <trkpt lat="46.43727" lon="5.45694">
        <ele>363.4</ele>
        <time>2022-06-06T10:53:09Z</time>
      </trkpt>
      <trkpt lat="46.4367" lon="5.45693">
        <ele>363.2</ele>
        <time>2022-06-06T10:53:16Z</time>
      </trkpt>
      <trkpt lat="46.43638" lon="5.45693">
        <ele>363</ele>
        <time>2022-06-06T10:53:20Z</time>
      </trkpt>
      <trkpt lat="46.43585" lon="5.45692">
        <ele>362.8</ele>
        <time>2022-06-06T10:53:27Z</time>
      </trkpt>
      <trkpt lat="46.43552" lon="5.45691">
        <ele>362.6</ele>
        <time>2022-06-06T10:53:31Z</time>
      </trkpt>
      <trkpt lat="46.43492" lon="5.45689">
        <ele>362.4</ele>
        <time>2022-06-06T10:53:39Z</time>
      </trkpt>
      <trkpt lat="46.43485" lon="5.45689">
        <ele>362.4</ele>
        <time>2022-06-06T10:53:40Z</time>
      </trkpt>
      <trkpt lat="46.43424" lon="5.45688">
        <ele>362.4</ele>
        <time>2022-06-06T10:53:48Z</time>
      </trkpt>
      <trkpt lat="46.43417" lon="5.45688">
        <ele>362.4</ele>
        <time>2022-06-06T10:53:49Z</time>
      </trkpt>
      <trkpt lat="46.43363" lon="5.45686">
        <ele>362.4</ele>
        <time>2022-06-06T10:53:56Z</time>
      </trkpt>
      <trkpt lat="46.43332" lon="5.45686">
        <ele>362.6</ele>
        <time>2022-06-06T10:54:00Z</time>
      </trkpt>
      <trkpt lat="46.43277" lon="5.45684">
        <ele>362.4</ele>
        <time>2022-06-06T10:54:07Z</time>
      </trkpt>
      <trkpt lat="46.43246" lon="5.45683">
        <ele>362.4</ele>
        <time>2022-06-06T10:54:11Z</time>
      </trkpt>
      <trkpt lat="46.43191" lon="5.45682">
        <ele>362.4</ele>
        <time>2022-06-06T10:54:18Z</time>
      </trkpt>
      <trkpt lat="46.43161" lon="5.45682">
        <ele>362.6</ele>
        <time>2022-06-06T10:54:22Z</time>
      </trkpt>
      <trkpt lat="46.43105" lon="5.45681">
        <ele>363</ele>
        <time>2022-06-06T10:54:30Z</time>
      </trkpt>
      <trkpt lat="46.43092" lon="5.4568">
        <ele>363.4</ele>
        <time>2022-06-06T10:54:32Z</time>
      </trkpt>
      <trkpt lat="46.43079" lon="5.45679">
        <ele>364</ele>
        <time>2022-06-06T10:54:34Z</time>
      </trkpt>
      <trkpt lat="46.43074" lon="5.45679">
        <ele>364.2</ele>
        <time>2022-06-06T10:54:35Z</time>
      </trkpt>
      <trkpt lat="46.43066" lon="5.45679">
        <ele>364.4</ele>
        <time>2022-06-06T10:54:36Z</time>
      </trkpt>
      <trkpt lat="46.4304" lon="5.45678">
        <ele>365</ele>
        <time>2022-06-06T10:54:40Z</time>
      </trkpt>
      <trkpt lat="46.43026" lon="5.45678">
        <ele>365.6</ele>
        <time>2022-06-06T10:54:42Z</time>
      </trkpt>
      <trkpt lat="46.43001" lon="5.45678">
        <ele>366.2</ele>
        <time>2022-06-06T10:54:46Z</time>
      </trkpt>
      <trkpt lat="46.42982" lon="5.45677">
        <ele>366.8</ele>
        <time>2022-06-06T10:54:49Z</time>
      </trkpt>
      <trkpt lat="46.4297" lon="5.45677">
        <ele>367.2</ele>
        <time>2022-06-06T10:54:51Z</time>
      </trkpt>
      <trkpt lat="46.42926" lon="5.45676">
        <ele>367.8</ele>
        <time>2022-06-06T10:54:58Z</time>
      </trkpt>
      <trkpt lat="46.42914" lon="5.45676">
        <ele>368.4</ele>
        <time>2022-06-06T10:55:00Z</time>
      </trkpt>
      <trkpt lat="46.42879" lon="5.45676">
        <ele>369.4</ele>
        <time>2022-06-06T10:55:06Z</time>
      </trkpt>
      <trkpt lat="46.42868" lon="5.45675">
        <ele>369.6</ele>
        <time>2022-06-06T10:55:08Z</time>
      </trkpt>
      <trkpt lat="46.42862" lon="5.45675">
        <ele>369.8</ele>
        <time>2022-06-06T10:55:09Z</time>
      </trkpt>
      <trkpt lat="46.42827" lon="5.45673">
        <ele>370.8</ele>
        <time>2022-06-06T10:55:15Z</time>
      </trkpt>
      <trkpt lat="46.42814" lon="5.45672">
        <ele>371.2</ele>
        <time>2022-06-06T10:55:17Z</time>
      </trkpt>
      <trkpt lat="46.42789" lon="5.4567">
        <ele>371.6</ele>
        <time>2022-06-06T10:55:21Z</time>
      </trkpt>
      <trkpt lat="46.42769" lon="5.45667">
        <ele>372</ele>
        <time>2022-06-06T10:55:24Z</time>
      </trkpt>
      <trkpt lat="46.42716" lon="5.45655">
        <ele>372.6</ele>
        <time>2022-06-06T10:55:32Z</time>
      </trkpt>
      <trkpt lat="46.42709" lon="5.45652">
        <ele>372.4</ele>
        <time>2022-06-06T10:55:33Z</time>
      </trkpt>
      <trkpt lat="46.42658" lon="5.45637">
        <ele>372</ele>
        <time>2022-06-06T10:55:40Z</time>
      </trkpt>
      <trkpt lat="46.42651" lon="5.45634">
        <ele>372</ele>
        <time>2022-06-06T10:55:41Z</time>
      </trkpt>
      <trkpt lat="46.42595" lon="5.45616">
        <ele>371.4</ele>
        <time>2022-06-06T10:55:48Z</time>
      </trkpt>
      <trkpt lat="46.42586" lon="5.45613">
        <ele>371.4</ele>
        <time>2022-06-06T10:55:49Z</time>
      </trkpt>
      <trkpt lat="46.4253" lon="5.45596">
        <ele>370.6</ele>
        <time>2022-06-06T10:55:56Z</time>
      </trkpt>
      <trkpt lat="46.42523" lon="5.45593">
        <ele>370.6</ele>
        <time>2022-06-06T10:55:57Z</time>
      </trkpt>
      <trkpt lat="46.42499" lon="5.45586">
        <ele>370.4</ele>
        <time>2022-06-06T10:56:00Z</time>
      </trkpt>
      <trkpt lat="46.42442" lon="5.45568">
        <ele>371.2</ele>
        <time>2022-06-06T10:56:08Z</time>
      </trkpt>
      <trkpt lat="46.42435" lon="5.45566">
        <ele>371.2</ele>
        <time>2022-06-06T10:56:09Z</time>
      </trkpt>
      <trkpt lat="46.42403" lon="5.45556">
        <ele>371.4</ele>
        <time>2022-06-06T10:56:14Z</time>
      </trkpt>
      <trkpt lat="46.42397" lon="5.45553">
        <ele>371.6</ele>
        <time>2022-06-06T10:56:15Z</time>
      </trkpt>
      <trkpt lat="46.42372" lon="5.45546">
        <ele>372.6</ele>
        <time>2022-06-06T10:56:19Z</time>
      </trkpt>
      <trkpt lat="46.42366" lon="5.45544">
        <ele>372.8</ele>
        <time>2022-06-06T10:56:20Z</time>
      </trkpt>
      <trkpt lat="46.42355" lon="5.45541">
        <ele>373.2</ele>
        <time>2022-06-06T10:56:22Z</time>
      </trkpt>
      <trkpt lat="46.42337" lon="5.45536">
        <ele>373.8</ele>
        <time>2022-06-06T10:56:25Z</time>
      </trkpt>
      <trkpt lat="46.42299" lon="5.45526">
        <ele>375</ele>
        <time>2022-06-06T10:56:31Z</time>
      </trkpt>
      <trkpt lat="46.42293" lon="5.45524">
        <ele>375.2</ele>
        <time>2022-06-06T10:56:32Z</time>
      </trkpt>
      <trkpt lat="46.42257" lon="5.45512">
        <ele>375.8</ele>
        <time>2022-06-06T10:56:37Z</time>
      </trkpt>
      <trkpt lat="46.42243" lon="5.45507">
        <ele>376</ele>
        <time>2022-06-06T10:56:39Z</time>
      </trkpt>
      <trkpt lat="46.42194" lon="5.45489">
        <ele>375.6</ele>
        <time>2022-06-06T10:56:46Z</time>
      </trkpt>
      <trkpt lat="46.4214" lon="5.45469">
        <ele>375.8</ele>
        <time>2022-06-06T10:56:54Z</time>
      </trkpt>
      <trkpt lat="46.42126" lon="5.45464">
        <ele>375.8</ele>
        <time>2022-06-06T10:56:56Z</time>
      </trkpt>
      <trkpt lat="46.42072" lon="5.45443">
        <ele>376.4</ele>
        <time>2022-06-06T10:57:04Z</time>
      </trkpt>
      <trkpt lat="46.42065" lon="5.4544">
        <ele>376.4</ele>
        <time>2022-06-06T10:57:05Z</time>
      </trkpt>
      <trkpt lat="46.42007" lon="5.45415">
        <ele>376.8</ele>
        <time>2022-06-06T10:57:14Z</time>
      </trkpt>
      <trkpt lat="46.41956" lon="5.45394">
        <ele>376.2</ele>
        <time>2022-06-06T10:57:21Z</time>
      </trkpt>
      <trkpt lat="46.4191" lon="5.45378">
        <ele>375</ele>
        <time>2022-06-06T10:57:27Z</time>
      </trkpt>
      <trkpt lat="46.41894" lon="5.45374">
        <ele>374.8</ele>
        <time>2022-06-06T10:57:29Z</time>
      </trkpt>
      <trkpt lat="46.41857" lon="5.45365">
        <ele>374</ele>
        <time>2022-06-06T10:57:34Z</time>
      </trkpt>
      <trkpt lat="46.41836" lon="5.4536">
        <ele>373.6</ele>
        <time>2022-06-06T10:57:37Z</time>
      </trkpt>
      <trkpt lat="46.4178" lon="5.45347">
        <ele>373.8</ele>
        <time>2022-06-06T10:57:45Z</time>
      </trkpt>
      <trkpt lat="46.41773" lon="5.45346">
        <ele>373.8</ele>
        <time>2022-06-06T10:57:46Z</time>
      </trkpt>
      <trkpt lat="46.41713" lon="5.45332">
        <ele>373.4</ele>
        <time>2022-06-06T10:57:55Z</time>
      </trkpt>
      <trkpt lat="46.41655" lon="5.45317">
        <ele>373.2</ele>
        <time>2022-06-06T10:58:03Z</time>
      </trkpt>
      <trkpt lat="46.41647" lon="5.45315">
        <ele>373</ele>
        <time>2022-06-06T10:58:04Z</time>
      </trkpt>
      <trkpt lat="46.41624" lon="5.45309">
        <ele>372.8</ele>
        <time>2022-06-06T10:58:07Z</time>
      </trkpt>
      <trkpt lat="46.41584" lon="5.453">
        <ele>371.6</ele>
        <time>2022-06-06T10:58:12Z</time>
      </trkpt>
      <trkpt lat="46.41576" lon="5.45298">
        <ele>371.6</ele>
        <time>2022-06-06T10:58:13Z</time>
      </trkpt>
      <trkpt lat="46.41521" lon="5.45285">
        <ele>370.6</ele>
        <time>2022-06-06T10:58:20Z</time>
      </trkpt>
      <trkpt lat="46.41513" lon="5.45283">
        <ele>370.4</ele>
        <time>2022-06-06T10:58:21Z</time>
      </trkpt>
      <trkpt lat="46.4149" lon="5.45277">
        <ele>370</ele>
        <time>2022-06-06T10:58:24Z</time>
      </trkpt>
      <trkpt lat="46.41437" lon="5.45264">
        <ele>369.4</ele>
        <time>2022-06-06T10:58:31Z</time>
      </trkpt>
      <trkpt lat="46.4143" lon="5.45263">
        <ele>369.4</ele>
        <time>2022-06-06T10:58:32Z</time>
      </trkpt>
      <trkpt lat="46.41372" lon="5.45249">
        <ele>369.4</ele>
        <time>2022-06-06T10:58:40Z</time>
      </trkpt>
      <trkpt lat="46.41313" lon="5.45236">
        <ele>369</ele>
        <time>2022-06-06T10:58:48Z</time>
      </trkpt>
      <trkpt lat="46.41292" lon="5.45231">
        <ele>368.8</ele>
        <time>2022-06-06T10:58:51Z</time>
      </trkpt>
      <trkpt lat="46.41236" lon="5.45218">
        <ele>368.8</ele>
        <time>2022-06-06T10:58:59Z</time>
      </trkpt>
      <trkpt lat="46.41208" lon="5.45212">
        <ele>368.8</ele>
        <time>2022-06-06T10:59:03Z</time>
      </trkpt>
      <trkpt lat="46.4115" lon="5.45202">
        <ele>368.8</ele>
        <time>2022-06-06T10:59:11Z</time>
      </trkpt>
      <trkpt lat="46.41142" lon="5.45201">
        <ele>368.8</ele>
        <time>2022-06-06T10:59:12Z</time>
      </trkpt>
      <trkpt lat="46.41082" lon="5.45188">
        <ele>368.6</ele>
        <time>2022-06-06T10:59:20Z</time>
      </trkpt>
      <trkpt lat="46.41051" lon="5.4518">
        <ele>368.2</ele>
        <time>2022-06-06T10:59:24Z</time>
      </trkpt>
      <trkpt lat="46.41017" lon="5.45168">
        <ele>367.4</ele>
        <time>2022-06-06T10:59:28Z</time>
      </trkpt>
      <trkpt lat="46.41009" lon="5.45164">
        <ele>367.2</ele>
        <time>2022-06-06T10:59:29Z</time>
      </trkpt>
      <trkpt lat="46.4097" lon="5.45144">
        <ele>366</ele>
        <time>2022-06-06T10:59:34Z</time>
      </trkpt>
      <trkpt lat="46.40962" lon="5.45139">
        <ele>365.8</ele>
        <time>2022-06-06T10:59:35Z</time>
      </trkpt>
      <trkpt lat="46.40911" lon="5.451">
        <ele>365.2</ele>
        <time>2022-06-06T10:59:42Z</time>
      </trkpt>
      <trkpt lat="46.40904" lon="5.45094">
        <ele>364.8</ele>
        <time>2022-06-06T10:59:43Z</time>
      </trkpt>
      <trkpt lat="46.40867" lon="5.45063">
        <ele>363.6</ele>
        <time>2022-06-06T10:59:48Z</time>
      </trkpt>
      <trkpt lat="46.40852" lon="5.45051">
        <ele>362.8</ele>
        <time>2022-06-06T10:59:50Z</time>
      </trkpt>
      <trkpt lat="46.40844" lon="5.45046">
        <ele>362.6</ele>
        <time>2022-06-06T10:59:51Z</time>
      </trkpt>
      <trkpt lat="46.40836" lon="5.45041">
        <ele>362.2</ele>
        <time>2022-06-06T10:59:52Z</time>
      </trkpt>
      <trkpt lat="46.40804" lon="5.45023">
        <ele>361</ele>
        <time>2022-06-06T10:59:56Z</time>
      </trkpt>
      <trkpt lat="46.40796" lon="5.4502">
        <ele>360.8</ele>
        <time>2022-06-06T10:59:57Z</time>
      </trkpt>
      <trkpt lat="46.40764" lon="5.45007">
        <ele>360</ele>
        <time>2022-06-06T11:00:01Z</time>
      </trkpt>
      <trkpt lat="46.40724" lon="5.44995">
        <ele>360</ele>
        <time>2022-06-06T11:00:06Z</time>
      </trkpt>
      <trkpt lat="46.40676" lon="5.44992">
        <ele>359.8</ele>
        <time>2022-06-06T11:00:12Z</time>
      </trkpt>
      <trkpt lat="46.40631" lon="5.45008">
        <ele>359.2</ele>
        <time>2022-06-06T11:00:18Z</time>
      </trkpt>
      <trkpt lat="46.40588" lon="5.4503">
        <ele>359</ele>
        <time>2022-06-06T11:00:24Z</time>
      </trkpt>
      <trkpt lat="46.40568" lon="5.45041">
        <ele>358.8</ele>
        <time>2022-06-06T11:00:27Z</time>
      </trkpt>
      <trkpt lat="46.40515" lon="5.45069">
        <ele>359</ele>
        <time>2022-06-06T11:00:35Z</time>
      </trkpt>
      <trkpt lat="46.40502" lon="5.45076">
        <ele>359</ele>
        <time>2022-06-06T11:00:37Z</time>
      </trkpt>
      <trkpt lat="46.40448" lon="5.45103">
        <ele>359</ele>
        <time>2022-06-06T11:00:45Z</time>
      </trkpt>
      <trkpt lat="46.40434" lon="5.45111">
        <ele>358.8</ele>
        <time>2022-06-06T11:00:47Z</time>
      </trkpt>
      <trkpt lat="46.40382" lon="5.45138">
        <ele>358</ele>
        <time>2022-06-06T11:00:54Z</time>
      </trkpt>
      <trkpt lat="46.40374" lon="5.45142">
        <ele>357.8</ele>
        <time>2022-06-06T11:00:55Z</time>
      </trkpt>
      <trkpt lat="46.40322" lon="5.45169">
        <ele>357</ele>
        <time>2022-06-06T11:01:02Z</time>
      </trkpt>
      <trkpt lat="46.40315" lon="5.45173">
        <ele>356.8</ele>
        <time>2022-06-06T11:01:03Z</time>
      </trkpt>
      <trkpt lat="46.4026" lon="5.45202">
        <ele>355.8</ele>
        <time>2022-06-06T11:01:11Z</time>
      </trkpt>
      <trkpt lat="46.40253" lon="5.45205">
        <ele>355.8</ele>
        <time>2022-06-06T11:01:12Z</time>
      </trkpt>
      <trkpt lat="46.40204" lon="5.45228">
        <ele>356</ele>
        <time>2022-06-06T11:01:19Z</time>
      </trkpt>
      <trkpt lat="46.40196" lon="5.45231">
        <ele>355.8</ele>
        <time>2022-06-06T11:01:20Z</time>
      </trkpt>
      <trkpt lat="46.40188" lon="5.45232">
        <ele>355.6</ele>
        <time>2022-06-06T11:01:21Z</time>
      </trkpt>
      <trkpt lat="46.40174" lon="5.45231">
        <ele>355.4</ele>
        <time>2022-06-06T11:01:23Z</time>
      </trkpt>
      <trkpt lat="46.40155" lon="5.45232">
        <ele>355.2</ele>
        <time>2022-06-06T11:01:26Z</time>
      </trkpt>
      <trkpt lat="46.40129" lon="5.45247">
        <ele>355</ele>
        <time>2022-06-06T11:01:30Z</time>
      </trkpt>
      <trkpt lat="46.40123" lon="5.4525">
        <ele>355</ele>
        <time>2022-06-06T11:01:31Z</time>
      </trkpt>
      <trkpt lat="46.40109" lon="5.45253">
        <ele>355</ele>
        <time>2022-06-06T11:01:33Z</time>
      </trkpt>
      <trkpt lat="46.40088" lon="5.45258">
        <ele>355.2</ele>
        <time>2022-06-06T11:01:36Z</time>
      </trkpt>
      <trkpt lat="46.40038" lon="5.45266">
        <ele>354.8</ele>
        <time>2022-06-06T11:01:43Z</time>
      </trkpt>
      <trkpt lat="46.40024" lon="5.45268">
        <ele>354.8</ele>
        <time>2022-06-06T11:01:45Z</time>
      </trkpt>
      <trkpt lat="46.39998" lon="5.4527">
        <ele>355</ele>
        <time>2022-06-06T11:01:49Z</time>
      </trkpt>
      <trkpt lat="46.39971" lon="5.45273">
        <ele>355.2</ele>
        <time>2022-06-06T11:01:53Z</time>
      </trkpt>
      <trkpt lat="46.39944" lon="5.45275">
        <ele>355.2</ele>
        <time>2022-06-06T11:01:57Z</time>
      </trkpt>
      <trkpt lat="46.39891" lon="5.45285">
        <ele>355</ele>
        <time>2022-06-06T11:02:05Z</time>
      </trkpt>
      <trkpt lat="46.39851" lon="5.45288">
        <ele>355</ele>
        <time>2022-06-06T11:02:11Z</time>
      </trkpt>
      <trkpt lat="46.39814" lon="5.45289">
        <ele>355.8</ele>
        <time>2022-06-06T11:02:17Z</time>
      </trkpt>
      <trkpt lat="46.39808" lon="5.45288">
        <ele>355.8</ele>
        <time>2022-06-06T11:02:18Z</time>
      </trkpt>
      <trkpt lat="46.39781" lon="5.45283">
        <ele>356.8</ele>
        <time>2022-06-06T11:02:23Z</time>
      </trkpt>
      <trkpt lat="46.39776" lon="5.45282">
        <ele>357</ele>
        <time>2022-06-06T11:02:24Z</time>
      </trkpt>
      <trkpt lat="46.39761" lon="5.45275">
        <ele>357.8</ele>
        <time>2022-06-06T11:02:27Z</time>
      </trkpt>
      <trkpt lat="46.39752" lon="5.45271">
        <ele>358</ele>
        <time>2022-06-06T11:02:29Z</time>
      </trkpt>
      <trkpt lat="46.39743" lon="5.45267">
        <ele>358.4</ele>
        <time>2022-06-06T11:02:31Z</time>
      </trkpt>
      <trkpt lat="46.39726" lon="5.45258">
        <ele>359.2</ele>
        <time>2022-06-06T11:02:35Z</time>
      </trkpt>
      <trkpt lat="46.39715" lon="5.45252">
        <ele>359.6</ele>
        <time>2022-06-06T11:02:38Z</time>
      </trkpt>
      <trkpt lat="46.39711" lon="5.45251">
        <ele>360.2</ele>
        <time>2022-06-06T11:02:39Z</time>
      </trkpt>
      <trkpt lat="46.39692" lon="5.45241">
        <ele>361.4</ele>
        <time>2022-06-06T11:02:44Z</time>
      </trkpt>
      <trkpt lat="46.39688" lon="5.45239">
        <ele>361.4</ele>
        <time>2022-06-06T11:02:45Z</time>
      </trkpt>
      <trkpt lat="46.39677" lon="5.45233">
        <ele>362.4</ele>
        <time>2022-06-06T11:02:48Z</time>
      </trkpt>
      <trkpt lat="46.39646" lon="5.45218">
        <ele>363.4</ele>
        <time>2022-06-06T11:02:56Z</time>
      </trkpt>
      <trkpt lat="46.3963" lon="5.4521">
        <ele>364.6</ele>
        <time>2022-06-06T11:03:00Z</time>
      </trkpt>
      <trkpt lat="46.39611" lon="5.45201">
        <ele>365.6</ele>
        <time>2022-06-06T11:03:05Z</time>
      </trkpt>
      <trkpt lat="46.39604" lon="5.45198">
        <ele>365.8</ele>
        <time>2022-06-06T11:03:07Z</time>
      </trkpt>
      <trkpt lat="46.39596" lon="5.45195">
        <ele>366.2</ele>
        <time>2022-06-06T11:03:09Z</time>
      </trkpt>
      <trkpt lat="46.3958" lon="5.45191">
        <ele>366.8</ele>
        <time>2022-06-06T11:03:13Z</time>
      </trkpt>
      <trkpt lat="46.39576" lon="5.4519">
        <ele>367</ele>
        <time>2022-06-06T11:03:14Z</time>
      </trkpt>
      <trkpt lat="46.39568" lon="5.45188">
        <ele>367.2</ele>
        <time>2022-06-06T11:03:16Z</time>
      </trkpt>
      <trkpt lat="46.39555" lon="5.45188">
        <ele>368</ele>
        <time>2022-06-06T11:03:19Z</time>
      </trkpt>
      <trkpt lat="46.39551" lon="5.45189">
        <ele>368</ele>
        <time>2022-06-06T11:03:20Z</time>
      </trkpt>
      <trkpt lat="46.39543" lon="5.4519">
        <ele>368.4</ele>
        <time>2022-06-06T11:03:22Z</time>
      </trkpt>
      <trkpt lat="46.39526" lon="5.45195">
        <ele>369</ele>
        <time>2022-06-06T11:03:26Z</time>
      </trkpt>
      <trkpt lat="46.39502" lon="5.45206">
        <ele>369.8</ele>
        <time>2022-06-06T11:03:32Z</time>
      </trkpt>
      <trkpt lat="46.39494" lon="5.45211">
        <ele>370.2</ele>
        <time>2022-06-06T11:03:34Z</time>
      </trkpt>
      <trkpt lat="46.39475" lon="5.45219">
        <ele>371.4</ele>
        <time>2022-06-06T11:03:39Z</time>
      </trkpt>
      <trkpt lat="46.39467" lon="5.45222">
        <ele>371.8</ele>
        <time>2022-06-06T11:03:41Z</time>
      </trkpt>
      <trkpt lat="46.39455" lon="5.45228">
        <ele>372.6</ele>
        <time>2022-06-06T11:03:44Z</time>
      </trkpt>
      <trkpt lat="46.39441" lon="5.45235">
        <ele>373.6</ele>
        <time>2022-06-06T11:03:48Z</time>
      </trkpt>
      <trkpt lat="46.3943" lon="5.45241">
        <ele>374.4</ele>
        <time>2022-06-06T11:03:51Z</time>
      </trkpt>
      <trkpt lat="46.39426" lon="5.45242">
        <ele>374.8</ele>
        <time>2022-06-06T11:03:52Z</time>
      </trkpt>
      <trkpt lat="46.39404" lon="5.45252">
        <ele>376.2</ele>
        <time>2022-06-06T11:03:58Z</time>
      </trkpt>
      <trkpt lat="46.394" lon="5.45253">
        <ele>376.4</ele>
        <time>2022-06-06T11:03:59Z</time>
      </trkpt>
      <trkpt lat="46.39389" lon="5.45259">
        <ele>377.2</ele>
        <time>2022-06-06T11:04:02Z</time>
      </trkpt>
      <trkpt lat="46.3937" lon="5.45266">
        <ele>378.2</ele>
        <time>2022-06-06T11:04:07Z</time>
      </trkpt>
      <trkpt lat="46.39366" lon="5.45267">
        <ele>378.4</ele>
        <time>2022-06-06T11:04:08Z</time>
      </trkpt>
      <trkpt lat="46.39352" lon="5.45275">
        <ele>379.6</ele>
        <time>2022-06-06T11:04:12Z</time>
      </trkpt>
      <trkpt lat="46.39337" lon="5.45282">
        <ele>380.6</ele>
        <time>2022-06-06T11:04:16Z</time>
      </trkpt>
      <trkpt lat="46.39333" lon="5.45283">
        <ele>380.8</ele>
        <time>2022-06-06T11:04:17Z</time>
      </trkpt>
      <trkpt lat="46.3933" lon="5.45284">
        <ele>381</ele>
        <time>2022-06-06T11:04:18Z</time>
      </trkpt>
      <trkpt lat="46.39315" lon="5.45287">
        <ele>381.8</ele>
        <time>2022-06-06T11:04:22Z</time>
      </trkpt>
      <trkpt lat="46.39304" lon="5.45289">
        <ele>382</ele>
        <time>2022-06-06T11:04:25Z</time>
      </trkpt>
      <trkpt lat="46.39296" lon="5.45291">
        <ele>383</ele>
        <time>2022-06-06T11:04:27Z</time>
      </trkpt>
      <trkpt lat="46.39276" lon="5.45291">
        <ele>383.4</ele>
        <time>2022-06-06T11:04:31Z</time>
      </trkpt>
      <trkpt lat="46.39242" lon="5.45284">
        <ele>383.4</ele>
        <time>2022-06-06T11:04:37Z</time>
      </trkpt>
      <trkpt lat="46.39193" lon="5.45275">
        <ele>382</ele>
        <time>2022-06-06T11:04:44Z</time>
      </trkpt>
      <trkpt lat="46.39185" lon="5.45273">
        <ele>381.6</ele>
        <time>2022-06-06T11:04:45Z</time>
      </trkpt>
      <trkpt lat="46.39161" lon="5.45268">
        <ele>380.2</ele>
        <time>2022-06-06T11:04:48Z</time>
      </trkpt>
      <trkpt lat="46.39144" lon="5.45265">
        <ele>379.8</ele>
        <time>2022-06-06T11:04:50Z</time>
      </trkpt>
      <trkpt lat="46.39127" lon="5.45261">
        <ele>378.8</ele>
        <time>2022-06-06T11:04:52Z</time>
      </trkpt>
      <trkpt lat="46.39101" lon="5.45253">
        <ele>377.8</ele>
        <time>2022-06-06T11:04:55Z</time>
      </trkpt>
      <trkpt lat="46.39084" lon="5.45246">
        <ele>376.8</ele>
        <time>2022-06-06T11:04:57Z</time>
      </trkpt>
      <trkpt lat="46.39075" lon="5.45243">
        <ele>376.6</ele>
        <time>2022-06-06T11:04:58Z</time>
      </trkpt>
      <trkpt lat="46.39048" lon="5.45232">
        <ele>375.4</ele>
        <time>2022-06-06T11:05:01Z</time>
      </trkpt>
      <trkpt lat="46.3902" lon="5.45221">
        <ele>373.6</ele>
        <time>2022-06-06T11:05:04Z</time>
      </trkpt>
      <trkpt lat="46.39011" lon="5.45218">
        <ele>373.2</ele>
        <time>2022-06-06T11:05:05Z</time>
      </trkpt>
      <trkpt lat="46.39001" lon="5.45214">
        <ele>372.6</ele>
        <time>2022-06-06T11:05:06Z</time>
      </trkpt>
      <trkpt lat="46.38952" lon="5.45194">
        <ele>371.2</ele>
        <time>2022-06-06T11:05:11Z</time>
      </trkpt>
      <trkpt lat="46.38942" lon="5.45189">
        <ele>370.8</ele>
        <time>2022-06-06T11:05:12Z</time>
      </trkpt>
      <trkpt lat="46.38933" lon="5.45185">
        <ele>370.2</ele>
        <time>2022-06-06T11:05:13Z</time>
      </trkpt>
      <trkpt lat="46.38896" lon="5.45161">
        <ele>368</ele>
        <time>2022-06-06T11:05:17Z</time>
      </trkpt>
      <trkpt lat="46.38888" lon="5.45154">
        <ele>366.8</ele>
        <time>2022-06-06T11:05:18Z</time>
      </trkpt>
      <trkpt lat="46.38871" lon="5.45139">
        <ele>365.8</ele>
        <time>2022-06-06T11:05:20Z</time>
      </trkpt>
      <trkpt lat="46.38855" lon="5.45121">
        <ele>364.8</ele>
        <time>2022-06-06T11:05:22Z</time>
      </trkpt>
      <trkpt lat="46.38847" lon="5.45112">
        <ele>364.6</ele>
        <time>2022-06-06T11:05:23Z</time>
      </trkpt>
      <trkpt lat="46.38831" lon="5.45093">
        <ele>363.6</ele>
        <time>2022-06-06T11:05:25Z</time>
      </trkpt>
      <trkpt lat="46.38816" lon="5.45073">
        <ele>362.6</ele>
        <time>2022-06-06T11:05:27Z</time>
      </trkpt>
      <trkpt lat="46.38792" lon="5.45041">
        <ele>361.6</ele>
        <time>2022-06-06T11:05:30Z</time>
      </trkpt>
      <trkpt lat="46.38785" lon="5.45031">
        <ele>361</ele>
        <time>2022-06-06T11:05:31Z</time>
      </trkpt>
      <trkpt lat="46.38777" lon="5.45021">
        <ele>360.2</ele>
        <time>2022-06-06T11:05:32Z</time>
      </trkpt>
      <trkpt lat="46.38747" lon="5.44983">
        <ele>359.2</ele>
        <time>2022-06-06T11:05:36Z</time>
      </trkpt>
      <trkpt lat="46.38713" lon="5.44938">
        <ele>358.8</ele>
        <time>2022-06-06T11:05:41Z</time>
      </trkpt>
      <trkpt lat="46.38669" lon="5.44881">
        <ele>358.6</ele>
        <time>2022-06-06T11:05:48Z</time>
      </trkpt>
      <trkpt lat="46.38663" lon="5.44873">
        <ele>358.6</ele>
        <time>2022-06-06T11:05:49Z</time>
      </trkpt>
      <trkpt lat="46.38621" lon="5.44818">
        <ele>359</ele>
        <time>2022-06-06T11:05:56Z</time>
      </trkpt>
      <trkpt lat="46.38615" lon="5.4481">
        <ele>358.8</ele>
        <time>2022-06-06T11:05:57Z</time>
      </trkpt>
      <trkpt lat="46.38585" lon="5.44771">
        <ele>358.2</ele>
        <time>2022-06-06T11:06:02Z</time>
      </trkpt>
      <trkpt lat="46.38568" lon="5.44747">
        <ele>357.6</ele>
        <time>2022-06-06T11:06:05Z</time>
      </trkpt>
      <trkpt lat="46.38552" lon="5.44726">
        <ele>357.2</ele>
        <time>2022-06-06T11:06:08Z</time>
      </trkpt>
      <trkpt lat="46.38525" lon="5.44692">
        <ele>357.4</ele>
        <time>2022-06-06T11:06:13Z</time>
      </trkpt>
      <trkpt lat="46.38478" lon="5.44646">
        <ele>357.2</ele>
        <time>2022-06-06T11:06:21Z</time>
      </trkpt>
      <trkpt lat="46.38436" lon="5.44609">
        <ele>356.4</ele>
        <time>2022-06-06T11:06:27Z</time>
      </trkpt>
      <trkpt lat="46.38415" lon="5.44589">
        <ele>355.8</ele>
        <time>2022-06-06T11:06:30Z</time>
      </trkpt>
      <trkpt lat="46.38379" lon="5.44555">
        <ele>354.6</ele>
        <time>2022-06-06T11:06:35Z</time>
      </trkpt>
      <trkpt lat="46.38372" lon="5.44548">
        <ele>354.6</ele>
        <time>2022-06-06T11:06:36Z</time>
      </trkpt>
      <trkpt lat="46.38324" lon="5.44502">
        <ele>354.2</ele>
        <time>2022-06-06T11:06:43Z</time>
      </trkpt>
      <trkpt lat="46.3829" lon="5.44471">
        <ele>354</ele>
        <time>2022-06-06T11:06:48Z</time>
      </trkpt>
      <trkpt lat="46.38257" lon="5.4444">
        <ele>353.8</ele>
        <time>2022-06-06T11:06:53Z</time>
      </trkpt>
      <trkpt lat="46.38237" lon="5.44421">
        <ele>353.6</ele>
        <time>2022-06-06T11:06:56Z</time>
      </trkpt>
      <trkpt lat="46.3821" lon="5.44397">
        <ele>353.6</ele>
        <time>2022-06-06T11:07:00Z</time>
      </trkpt>
      <trkpt lat="46.38162" lon="5.44354">
        <ele>353.2</ele>
        <time>2022-06-06T11:07:07Z</time>
      </trkpt>
      <trkpt lat="46.38142" lon="5.44335">
        <ele>352.6</ele>
        <time>2022-06-06T11:07:10Z</time>
      </trkpt>
      <trkpt lat="46.38135" lon="5.44329">
        <ele>352.6</ele>
        <time>2022-06-06T11:07:11Z</time>
      </trkpt>
      <trkpt lat="46.38087" lon="5.44286">
        <ele>351.6</ele>
        <time>2022-06-06T11:07:18Z</time>
      </trkpt>
      <trkpt lat="46.3808" lon="5.4428">
        <ele>351.4</ele>
        <time>2022-06-06T11:07:19Z</time>
      </trkpt>
      <trkpt lat="46.38036" lon="5.4424">
        <ele>351</ele>
        <time>2022-06-06T11:07:26Z</time>
      </trkpt>
      <trkpt lat="46.37988" lon="5.44195">
        <ele>351.4</ele>
        <time>2022-06-06T11:07:34Z</time>
      </trkpt>
      <trkpt lat="46.37975" lon="5.44185">
        <ele>351.4</ele>
        <time>2022-06-06T11:07:36Z</time>
      </trkpt>
      <trkpt lat="46.37939" lon="5.44152">
        <ele>352.2</ele>
        <time>2022-06-06T11:07:42Z</time>
      </trkpt>
      <trkpt lat="46.37926" lon="5.44141">
        <ele>352.2</ele>
        <time>2022-06-06T11:07:44Z</time>
      </trkpt>
      <trkpt lat="46.37876" lon="5.44098">
        <ele>352.2</ele>
        <time>2022-06-06T11:07:52Z</time>
      </trkpt>
      <trkpt lat="46.37851" lon="5.44078">
        <ele>351.8</ele>
        <time>2022-06-06T11:07:56Z</time>
      </trkpt>
      <trkpt lat="46.37802" lon="5.4404">
        <ele>351.8</ele>
        <time>2022-06-06T11:08:04Z</time>
      </trkpt>
      <trkpt lat="46.37789" lon="5.44031">
        <ele>352</ele>
        <time>2022-06-06T11:08:06Z</time>
      </trkpt>
      <trkpt lat="46.37737" lon="5.43998">
        <ele>352</ele>
        <time>2022-06-06T11:08:14Z</time>
      </trkpt>
      <trkpt lat="46.37684" lon="5.43968">
        <ele>352.2</ele>
        <time>2022-06-06T11:08:22Z</time>
      </trkpt>
      <trkpt lat="46.37633" lon="5.4394">
        <ele>352.6</ele>
        <time>2022-06-06T11:08:30Z</time>
      </trkpt>
      <trkpt lat="46.3762" lon="5.43933">
        <ele>352.8</ele>
        <time>2022-06-06T11:08:32Z</time>
      </trkpt>
      <trkpt lat="46.37578" lon="5.43911">
        <ele>353.6</ele>
        <time>2022-06-06T11:08:39Z</time>
      </trkpt>
      <trkpt lat="46.37566" lon="5.43906">
        <ele>353.8</ele>
        <time>2022-06-06T11:08:41Z</time>
      </trkpt>
      <trkpt lat="46.37513" lon="5.43884">
        <ele>354.6</ele>
        <time>2022-06-06T11:08:50Z</time>
      </trkpt>
      <trkpt lat="46.37507" lon="5.43881">
        <ele>354.6</ele>
        <time>2022-06-06T11:08:51Z</time>
      </trkpt>
      <trkpt lat="46.37503" lon="5.43878">
        <ele>354.8</ele>
        <time>2022-06-06T11:08:52Z</time>
      </trkpt>
      <trkpt lat="46.37464" lon="5.43855">
        <ele>356</ele>
        <time>2022-06-06T11:08:59Z</time>
      </trkpt>
      <trkpt lat="46.37439" lon="5.43835">
        <ele>357</ele>
        <time>2022-06-06T11:09:04Z</time>
      </trkpt>
      <trkpt lat="46.3742" lon="5.43818">
        <ele>357.6</ele>
        <time>2022-06-06T11:09:08Z</time>
      </trkpt>
      <trkpt lat="46.37398" lon="5.43798">
        <ele>358.4</ele>
        <time>2022-06-06T11:09:13Z</time>
      </trkpt>
      <trkpt lat="46.37386" lon="5.43787">
        <ele>358.8</ele>
        <time>2022-06-06T11:09:16Z</time>
      </trkpt>
      <trkpt lat="46.37373" lon="5.43777">
        <ele>359.4</ele>
        <time>2022-06-06T11:09:19Z</time>
      </trkpt>
      <trkpt lat="46.37357" lon="5.43766">
        <ele>360.4</ele>
        <time>2022-06-06T11:09:23Z</time>
      </trkpt>
      <trkpt lat="46.37353" lon="5.43763">
        <ele>360.8</ele>
        <time>2022-06-06T11:09:24Z</time>
      </trkpt>
      <trkpt lat="46.37345" lon="5.43758">
        <ele>361.4</ele>
        <time>2022-06-06T11:09:26Z</time>
      </trkpt>
      <trkpt lat="46.37327" lon="5.43746">
        <ele>362.6</ele>
        <time>2022-06-06T11:09:30Z</time>
      </trkpt>
      <trkpt lat="46.37323" lon="5.43742">
        <ele>362.6</ele>
        <time>2022-06-06T11:09:31Z</time>
      </trkpt>
      <trkpt lat="46.37284" lon="5.43711">
        <ele>363.4</ele>
        <time>2022-06-06T11:09:39Z</time>
      </trkpt>
      <trkpt lat="46.37278" lon="5.43707">
        <ele>363.6</ele>
        <time>2022-06-06T11:09:40Z</time>
      </trkpt>
      <trkpt lat="46.37249" lon="5.43687">
        <ele>363.6</ele>
        <time>2022-06-06T11:09:45Z</time>
      </trkpt>
      <trkpt lat="46.37195" lon="5.4366">
        <ele>363.2</ele>
        <time>2022-06-06T11:09:53Z</time>
      </trkpt>
      <trkpt lat="46.37152" lon="5.43641">
        <ele>362.6</ele>
        <time>2022-06-06T11:09:59Z</time>
      </trkpt>
      <trkpt lat="46.37128" lon="5.4363">
        <ele>361.6</ele>
        <time>2022-06-06T11:10:02Z</time>
      </trkpt>
      <trkpt lat="46.37121" lon="5.43627">
        <ele>361.2</ele>
        <time>2022-06-06T11:10:03Z</time>
      </trkpt>
      <trkpt lat="46.37062" lon="5.43601">
        <ele>360.2</ele>
        <time>2022-06-06T11:10:11Z</time>
      </trkpt>
      <trkpt lat="46.37055" lon="5.43597">
        <ele>360.2</ele>
        <time>2022-06-06T11:10:12Z</time>
      </trkpt>
      <trkpt lat="46.37017" lon="5.43581">
        <ele>359.2</ele>
        <time>2022-06-06T11:10:17Z</time>
      </trkpt>
      <trkpt lat="46.37" lon="5.43577">
        <ele>358.6</ele>
        <time>2022-06-06T11:10:19Z</time>
      </trkpt>
      <trkpt lat="46.36974" lon="5.43572">
        <ele>358</ele>
        <time>2022-06-06T11:10:22Z</time>
      </trkpt>
      <trkpt lat="46.36947" lon="5.4357">
        <ele>357</ele>
        <time>2022-06-06T11:10:25Z</time>
      </trkpt>
      <trkpt lat="46.36899" lon="5.43567">
        <ele>355.8</ele>
        <time>2022-06-06T11:10:30Z</time>
      </trkpt>
      <trkpt lat="46.3687" lon="5.43566">
        <ele>355.4</ele>
        <time>2022-06-06T11:10:33Z</time>
      </trkpt>
      <trkpt lat="46.36861" lon="5.43565">
        <ele>354.6</ele>
        <time>2022-06-06T11:10:34Z</time>
      </trkpt>
      <trkpt lat="46.36832" lon="5.43564">
        <ele>353.6</ele>
        <time>2022-06-06T11:10:37Z</time>
      </trkpt>
      <trkpt lat="46.36803" lon="5.43563">
        <ele>353</ele>
        <time>2022-06-06T11:10:40Z</time>
      </trkpt>
      <trkpt lat="46.36747" lon="5.43568">
        <ele>352.6</ele>
        <time>2022-06-06T11:10:46Z</time>
      </trkpt>
      <trkpt lat="46.36728" lon="5.4357">
        <ele>352.4</ele>
        <time>2022-06-06T11:10:48Z</time>
      </trkpt>
      <trkpt lat="46.36669" lon="5.43578">
        <ele>351.4</ele>
        <time>2022-06-06T11:10:54Z</time>
      </trkpt>
      <trkpt lat="46.36649" lon="5.43581">
        <ele>350.8</ele>
        <time>2022-06-06T11:10:56Z</time>
      </trkpt>
      <trkpt lat="46.36621" lon="5.43585">
        <ele>350.2</ele>
        <time>2022-06-06T11:10:59Z</time>
      </trkpt>
      <trkpt lat="46.36566" lon="5.43593">
        <ele>349.2</ele>
        <time>2022-06-06T11:11:05Z</time>
      </trkpt>
      <trkpt lat="46.36532" lon="5.43598">
        <ele>349.2</ele>
        <time>2022-06-06T11:11:09Z</time>
      </trkpt>
      <trkpt lat="46.3649" lon="5.43604">
        <ele>349</ele>
        <time>2022-06-06T11:11:14Z</time>
      </trkpt>
      <trkpt lat="46.36434" lon="5.43609">
        <ele>349.4</ele>
        <time>2022-06-06T11:11:21Z</time>
      </trkpt>
      <trkpt lat="46.36426" lon="5.43609">
        <ele>349.4</ele>
        <time>2022-06-06T11:11:22Z</time>
      </trkpt>
      <trkpt lat="46.36366" lon="5.43603">
        <ele>349.6</ele>
        <time>2022-06-06T11:11:30Z</time>
      </trkpt>
      <trkpt lat="46.36359" lon="5.43602">
        <ele>349.6</ele>
        <time>2022-06-06T11:11:31Z</time>
      </trkpt>
      <trkpt lat="46.36304" lon="5.43591">
        <ele>350</ele>
        <time>2022-06-06T11:11:39Z</time>
      </trkpt>
      <trkpt lat="46.36297" lon="5.43589">
        <ele>350.4</ele>
        <time>2022-06-06T11:11:40Z</time>
      </trkpt>
      <trkpt lat="46.36268" lon="5.43581">
        <ele>351.4</ele>
        <time>2022-06-06T11:11:45Z</time>
      </trkpt>
      <trkpt lat="46.36257" lon="5.43579">
        <ele>352</ele>
        <time>2022-06-06T11:11:47Z</time>
      </trkpt>
      <trkpt lat="46.36246" lon="5.43576">
        <ele>352.4</ele>
        <time>2022-06-06T11:11:49Z</time>
      </trkpt>
      <trkpt lat="46.36219" lon="5.43572">
        <ele>353.6</ele>
        <time>2022-06-06T11:11:54Z</time>
      </trkpt>
      <trkpt lat="46.36214" lon="5.43572">
        <ele>353.6</ele>
        <time>2022-06-06T11:11:55Z</time>
      </trkpt>
      <trkpt lat="46.36187" lon="5.43573">
        <ele>354.8</ele>
        <time>2022-06-06T11:12:00Z</time>
      </trkpt>
      <trkpt lat="46.36183" lon="5.43573">
        <ele>355.2</ele>
        <time>2022-06-06T11:12:01Z</time>
      </trkpt>
      <trkpt lat="46.36142" lon="5.43569">
        <ele>355.8</ele>
        <time>2022-06-06T11:12:08Z</time>
      </trkpt>
      <trkpt lat="46.36083" lon="5.43565">
        <ele>356.6</ele>
        <time>2022-06-06T11:12:18Z</time>
      </trkpt>
      <trkpt lat="46.36077" lon="5.43564">
        <ele>356.6</ele>
        <time>2022-06-06T11:12:19Z</time>
      </trkpt>
      <trkpt lat="46.36067" lon="5.43563">
        <ele>356.8</ele>
        <time>2022-06-06T11:12:21Z</time>
      </trkpt>
      <trkpt lat="46.36034" lon="5.43561">
        <ele>357.6</ele>
        <time>2022-06-06T11:12:27Z</time>
      </trkpt>
      <trkpt lat="46.36024" lon="5.4356">
        <ele>358</ele>
        <time>2022-06-06T11:12:29Z</time>
      </trkpt>
      <trkpt lat="46.35998" lon="5.43559">
        <ele>358.6</ele>
        <time>2022-06-06T11:12:34Z</time>
      </trkpt>
      <trkpt lat="46.35971" lon="5.43562">
        <ele>359</ele>
        <time>2022-06-06T11:12:39Z</time>
      </trkpt>
      <trkpt lat="46.35959" lon="5.43563">
        <ele>359.2</ele>
        <time>2022-06-06T11:12:41Z</time>
      </trkpt>
      <trkpt lat="46.35942" lon="5.43564">
        <ele>360</ele>
        <time>2022-06-06T11:12:44Z</time>
      </trkpt>
      <trkpt lat="46.35907" lon="5.4357">
        <ele>361.4</ele>
        <time>2022-06-06T11:12:50Z</time>
      </trkpt>
      <trkpt lat="46.35901" lon="5.43571">
        <ele>361.4</ele>
        <time>2022-06-06T11:12:51Z</time>
      </trkpt>
      <trkpt lat="46.35854" lon="5.43581">
        <ele>362.2</ele>
        <time>2022-06-06T11:12:59Z</time>
      </trkpt>
      <trkpt lat="46.358" lon="5.43593">
        <ele>362.2</ele>
        <time>2022-06-06T11:13:08Z</time>
      </trkpt>
      <trkpt lat="46.35782" lon="5.43597">
        <ele>362.4</ele>
        <time>2022-06-06T11:13:11Z</time>
      </trkpt>
      <trkpt lat="46.35748" lon="5.43605">
        <ele>363.2</ele>
        <time>2022-06-06T11:13:17Z</time>
      </trkpt>
      <trkpt lat="46.35732" lon="5.43609">
        <ele>363.6</ele>
        <time>2022-06-06T11:13:20Z</time>
      </trkpt>
      <trkpt lat="46.35698" lon="5.43614">
        <ele>364.4</ele>
        <time>2022-06-06T11:13:26Z</time>
      </trkpt>
      <trkpt lat="46.35675" lon="5.43618">
        <ele>364.6</ele>
        <time>2022-06-06T11:13:30Z</time>
      </trkpt>
      <trkpt lat="46.35627" lon="5.43624">
        <ele>365.2</ele>
        <time>2022-06-06T11:13:38Z</time>
      </trkpt>
      <trkpt lat="46.35566" lon="5.43631">
        <ele>364.6</ele>
        <time>2022-06-06T11:13:47Z</time>
      </trkpt>
      <trkpt lat="46.35559" lon="5.43632">
        <ele>364.4</ele>
        <time>2022-06-06T11:13:48Z</time>
      </trkpt>
      <trkpt lat="46.35513" lon="5.43638">
        <ele>363.8</ele>
        <time>2022-06-06T11:13:54Z</time>
      </trkpt>
      <trkpt lat="46.35504" lon="5.43639">
        <ele>363.4</ele>
        <time>2022-06-06T11:13:55Z</time>
      </trkpt>
      <trkpt lat="46.35472" lon="5.43643">
        <ele>362.2</ele>
        <time>2022-06-06T11:13:59Z</time>
      </trkpt>
      <trkpt lat="46.35463" lon="5.43644">
        <ele>361.8</ele>
        <time>2022-06-06T11:14:00Z</time>
      </trkpt>
      <trkpt lat="46.35444" lon="5.43646">
        <ele>360.8</ele>
        <time>2022-06-06T11:14:02Z</time>
      </trkpt>
      <trkpt lat="46.35415" lon="5.4365">
        <ele>359.6</ele>
        <time>2022-06-06T11:14:05Z</time>
      </trkpt>
      <trkpt lat="46.35393" lon="5.43653">
        <ele>358.4</ele>
        <time>2022-06-06T11:14:07Z</time>
      </trkpt>
      <trkpt lat="46.35364" lon="5.43657">
        <ele>357.2</ele>
        <time>2022-06-06T11:14:10Z</time>
      </trkpt>
      <trkpt lat="46.3534" lon="5.4366">
        <ele>356.6</ele>
        <time>2022-06-06T11:14:12Z</time>
      </trkpt>
      <trkpt lat="46.35331" lon="5.43662">
        <ele>356</ele>
        <time>2022-06-06T11:14:13Z</time>
      </trkpt>
      <trkpt lat="46.35295" lon="5.43666">
        <ele>354.4</ele>
        <time>2022-06-06T11:14:16Z</time>
      </trkpt>
      <trkpt lat="46.35275" lon="5.43671">
        <ele>353.4</ele>
        <time>2022-06-06T11:14:18Z</time>
      </trkpt>
      <trkpt lat="46.35239" lon="5.43685">
        <ele>351.8</ele>
        <time>2022-06-06T11:14:21Z</time>
      </trkpt>
      <trkpt lat="46.35228" lon="5.43691">
        <ele>351.4</ele>
        <time>2022-06-06T11:14:22Z</time>
      </trkpt>
      <trkpt lat="46.35217" lon="5.43698">
        <ele>350.8</ele>
        <time>2022-06-06T11:14:23Z</time>
      </trkpt>
      <trkpt lat="46.35197" lon="5.43714">
        <ele>349.2</ele>
        <time>2022-06-06T11:14:25Z</time>
      </trkpt>
      <trkpt lat="46.35177" lon="5.43734">
        <ele>348.6</ele>
        <time>2022-06-06T11:14:27Z</time>
      </trkpt>
      <trkpt lat="46.35168" lon="5.43745">
        <ele>348.2</ele>
        <time>2022-06-06T11:14:28Z</time>
      </trkpt>
      <trkpt lat="46.35141" lon="5.43782">
        <ele>347.2</ele>
        <time>2022-06-06T11:14:31Z</time>
      </trkpt>
      <trkpt lat="46.35131" lon="5.43793">
        <ele>346.4</ele>
        <time>2022-06-06T11:14:32Z</time>
      </trkpt>
      <trkpt lat="46.35121" lon="5.43804">
        <ele>346</ele>
        <time>2022-06-06T11:14:33Z</time>
      </trkpt>
      <trkpt lat="46.35113" lon="5.43812">
        <ele>345</ele>
        <time>2022-06-06T11:14:34Z</time>
      </trkpt>
      <trkpt lat="46.351" lon="5.43822">
        <ele>344.4</ele>
        <time>2022-06-06T11:14:35Z</time>
      </trkpt>
      <trkpt lat="46.35091" lon="5.43827">
        <ele>343.6</ele>
        <time>2022-06-06T11:14:36Z</time>
      </trkpt>
      <trkpt lat="46.35078" lon="5.43833">
        <ele>342.6</ele>
        <time>2022-06-06T11:14:37Z</time>
      </trkpt>
      <trkpt lat="46.35066" lon="5.43835">
        <ele>342</ele>
        <time>2022-06-06T11:14:38Z</time>
      </trkpt>
      <trkpt lat="46.35055" lon="5.43837">
        <ele>340.8</ele>
        <time>2022-06-06T11:14:39Z</time>
      </trkpt>
      <trkpt lat="46.35004" lon="5.43834">
        <ele>339.6</ele>
        <time>2022-06-06T11:14:44Z</time>
      </trkpt>
      <trkpt lat="46.34947" lon="5.4383">
        <ele>339.6</ele>
        <time>2022-06-06T11:14:50Z</time>
      </trkpt>
      <trkpt lat="46.3489" lon="5.43818">
        <ele>339.4</ele>
        <time>2022-06-06T11:14:56Z</time>
      </trkpt>
      <trkpt lat="46.34851" lon="5.438">
        <ele>339.4</ele>
        <time>2022-06-06T11:15:01Z</time>
      </trkpt>
      <trkpt lat="46.34811" lon="5.43773">
        <ele>341</ele>
        <time>2022-06-06T11:15:07Z</time>
      </trkpt>
      <trkpt lat="46.34803" lon="5.43768">
        <ele>341.2</ele>
        <time>2022-06-06T11:15:08Z</time>
      </trkpt>
      <trkpt lat="46.34776" lon="5.43754">
        <ele>342</ele>
        <time>2022-06-06T11:15:12Z</time>
      </trkpt>
      <trkpt lat="46.34731" lon="5.43734">
        <ele>342.2</ele>
        <time>2022-06-06T11:15:18Z</time>
      </trkpt>
      <trkpt lat="46.34678" lon="5.43723">
        <ele>342.2</ele>
        <time>2022-06-06T11:15:25Z</time>
      </trkpt>
      <trkpt lat="46.34632" lon="5.4373">
        <ele>342</ele>
        <time>2022-06-06T11:15:31Z</time>
      </trkpt>
      <trkpt lat="46.34572" lon="5.43753">
        <ele>341.6</ele>
        <time>2022-06-06T11:15:39Z</time>
      </trkpt>
      <trkpt lat="46.34564" lon="5.43755">
        <ele>341.6</ele>
        <time>2022-06-06T11:15:40Z</time>
      </trkpt>
      <trkpt lat="46.3451" lon="5.43778">
        <ele>341.2</ele>
        <time>2022-06-06T11:15:47Z</time>
      </trkpt>
      <trkpt lat="46.34494" lon="5.43785">
        <ele>341.4</ele>
        <time>2022-06-06T11:15:49Z</time>
      </trkpt>
      <trkpt lat="46.34439" lon="5.43814">
        <ele>341.6</ele>
        <time>2022-06-06T11:15:56Z</time>
      </trkpt>
      <trkpt lat="46.34432" lon="5.4382">
        <ele>341.6</ele>
        <time>2022-06-06T11:15:57Z</time>
      </trkpt>
      <trkpt lat="46.34375" lon="5.43854">
        <ele>341.2</ele>
        <time>2022-06-06T11:16:04Z</time>
      </trkpt>
      <trkpt lat="46.34366" lon="5.43858">
        <ele>340.8</ele>
        <time>2022-06-06T11:16:05Z</time>
      </trkpt>
      <trkpt lat="46.3435" lon="5.43866">
        <ele>340.2</ele>
        <time>2022-06-06T11:16:07Z</time>
      </trkpt>
      <trkpt lat="46.34308" lon="5.43884">
        <ele>339.8</ele>
        <time>2022-06-06T11:16:12Z</time>
      </trkpt>
      <trkpt lat="46.34283" lon="5.43892">
        <ele>339.6</ele>
        <time>2022-06-06T11:16:15Z</time>
      </trkpt>
      <trkpt lat="46.34226" lon="5.43904">
        <ele>339.2</ele>
        <time>2022-06-06T11:16:22Z</time>
      </trkpt>
      <trkpt lat="46.3422" lon="5.43905">
        <ele>339.2</ele>
        <time>2022-06-06T11:16:23Z</time>
      </trkpt>
      <trkpt lat="46.34162" lon="5.43911">
        <ele>339.2</ele>
        <time>2022-06-06T11:16:30Z</time>
      </trkpt>
      <trkpt lat="46.34123" lon="5.43916">
        <ele>339</ele>
        <time>2022-06-06T11:16:35Z</time>
      </trkpt>
      <trkpt lat="46.34067" lon="5.43922">
        <ele>339</ele>
        <time>2022-06-06T11:16:42Z</time>
      </trkpt>
      <trkpt lat="46.34044" lon="5.43924">
        <ele>339</ele>
        <time>2022-06-06T11:16:45Z</time>
      </trkpt>
      <trkpt lat="46.34006" lon="5.43928">
        <ele>338.8</ele>
        <time>2022-06-06T11:16:50Z</time>
      </trkpt>
      <trkpt lat="46.33972" lon="5.4393">
        <ele>338.6</ele>
        <time>2022-06-06T11:16:54Z</time>
      </trkpt>
      <trkpt lat="46.33931" lon="5.43921">
        <ele>338</ele>
        <time>2022-06-06T11:16:59Z</time>
      </trkpt>
      <trkpt lat="46.33924" lon="5.43917">
        <ele>337.8</ele>
        <time>2022-06-06T11:17:00Z</time>
      </trkpt>
      <trkpt lat="46.33909" lon="5.43907">
        <ele>337.6</ele>
        <time>2022-06-06T11:17:02Z</time>
      </trkpt>
      <trkpt lat="46.33902" lon="5.43901">
        <ele>337.4</ele>
        <time>2022-06-06T11:17:03Z</time>
      </trkpt>
      <trkpt lat="46.33857" lon="5.43856">
        <ele>337.4</ele>
        <time>2022-06-06T11:17:10Z</time>
      </trkpt>
      <trkpt lat="46.3382" lon="5.43818">
        <ele>337.6</ele>
        <time>2022-06-06T11:17:16Z</time>
      </trkpt>
      <trkpt lat="46.33801" lon="5.43799">
        <ele>337.6</ele>
        <time>2022-06-06T11:17:19Z</time>
      </trkpt>
      <trkpt lat="46.33751" lon="5.4375">
        <ele>337.4</ele>
        <time>2022-06-06T11:17:27Z</time>
      </trkpt>
      <trkpt lat="46.3374" lon="5.43739">
        <ele>337.6</ele>
        <time>2022-06-06T11:17:29Z</time>
      </trkpt>
      <trkpt lat="46.337" lon="5.43711">
        <ele>337.8</ele>
        <time>2022-06-06T11:17:35Z</time>
      </trkpt>
      <trkpt lat="46.33649" lon="5.43686">
        <ele>338</ele>
        <time>2022-06-06T11:17:42Z</time>
      </trkpt>
      <trkpt lat="46.33613" lon="5.43677">
        <ele>338</ele>
        <time>2022-06-06T11:17:47Z</time>
      </trkpt>
      <trkpt lat="46.33573" lon="5.43676">
        <ele>338.2</ele>
        <time>2022-06-06T11:17:53Z</time>
      </trkpt>
      <trkpt lat="46.33539" lon="5.43678">
        <ele>338.6</ele>
        <time>2022-06-06T11:17:59Z</time>
      </trkpt>
      <trkpt lat="46.33523" lon="5.43679">
        <ele>339</ele>
        <time>2022-06-06T11:18:02Z</time>
      </trkpt>
      <trkpt lat="46.33507" lon="5.4368">
        <ele>339.8</ele>
        <time>2022-06-06T11:18:05Z</time>
      </trkpt>
      <trkpt lat="46.33501" lon="5.43681">
        <ele>340.4</ele>
        <time>2022-06-06T11:18:06Z</time>
      </trkpt>
      <trkpt lat="46.3348" lon="5.43684">
        <ele>341.4</ele>
        <time>2022-06-06T11:18:10Z</time>
      </trkpt>
      <trkpt lat="46.33455" lon="5.43689">
        <ele>342.2</ele>
        <time>2022-06-06T11:18:15Z</time>
      </trkpt>
      <trkpt lat="46.3344" lon="5.43693">
        <ele>342.6</ele>
        <time>2022-06-06T11:18:18Z</time>
      </trkpt>
      <trkpt lat="46.33422" lon="5.43697">
        <ele>343.8</ele>
        <time>2022-06-06T11:18:22Z</time>
      </trkpt>
      <trkpt lat="46.33408" lon="5.43701">
        <ele>344.8</ele>
        <time>2022-06-06T11:18:25Z</time>
      </trkpt>
      <trkpt lat="46.33398" lon="5.43703">
        <ele>345.2</ele>
        <time>2022-06-06T11:18:27Z</time>
      </trkpt>
      <trkpt lat="46.33383" lon="5.43707">
        <ele>345.8</ele>
        <time>2022-06-06T11:18:30Z</time>
      </trkpt>
      <trkpt lat="46.33349" lon="5.43713">
        <ele>347</ele>
        <time>2022-06-06T11:18:37Z</time>
      </trkpt>
      <trkpt lat="46.3333" lon="5.43716">
        <ele>347.6</ele>
        <time>2022-06-06T11:18:41Z</time>
      </trkpt>
      <trkpt lat="46.33316" lon="5.43717">
        <ele>348.2</ele>
        <time>2022-06-06T11:18:44Z</time>
      </trkpt>
      <trkpt lat="46.33303" lon="5.43717">
        <ele>348.8</ele>
        <time>2022-06-06T11:18:47Z</time>
      </trkpt>
      <trkpt lat="46.33294" lon="5.43717">
        <ele>349.2</ele>
        <time>2022-06-06T11:18:49Z</time>
      </trkpt>
      <trkpt lat="46.33279" lon="5.43717">
        <ele>349.6</ele>
        <time>2022-06-06T11:18:52Z</time>
      </trkpt>
      <trkpt lat="46.33274" lon="5.43718">
        <ele>350</ele>
        <time>2022-06-06T11:18:53Z</time>
      </trkpt>
      <trkpt lat="46.33258" lon="5.43721">
        <ele>350.2</ele>
        <time>2022-06-06T11:18:56Z</time>
      </trkpt>
      <trkpt lat="46.33234" lon="5.43724">
        <ele>350.8</ele>
        <time>2022-06-06T11:19:01Z</time>
      </trkpt>
      <trkpt lat="46.33206" lon="5.43726">
        <ele>351.6</ele>
        <time>2022-06-06T11:19:07Z</time>
      </trkpt>
      <trkpt lat="46.33192" lon="5.43727">
        <ele>352.6</ele>
        <time>2022-06-06T11:19:10Z</time>
      </trkpt>
      <trkpt lat="46.33188" lon="5.43726">
        <ele>353</ele>
        <time>2022-06-06T11:19:11Z</time>
      </trkpt>
      <trkpt lat="46.33183" lon="5.43726">
        <ele>353.2</ele>
        <time>2022-06-06T11:19:12Z</time>
      </trkpt>
      <trkpt lat="46.33174" lon="5.43725">
        <ele>353.4</ele>
        <time>2022-06-06T11:19:14Z</time>
      </trkpt>
      <trkpt lat="46.33165" lon="5.43724">
        <ele>353.6</ele>
        <time>2022-06-06T11:19:16Z</time>
      </trkpt>
      <trkpt lat="46.33156" lon="5.43723">
        <ele>353.8</ele>
        <time>2022-06-06T11:19:18Z</time>
      </trkpt>
      <trkpt lat="46.33151" lon="5.43724">
        <ele>354</ele>
        <time>2022-06-06T11:19:19Z</time>
      </trkpt>
      <trkpt lat="46.33146" lon="5.43724">
        <ele>354.2</ele>
        <time>2022-06-06T11:19:20Z</time>
      </trkpt>
      <trkpt lat="46.33132" lon="5.43724">
        <ele>354.6</ele>
        <time>2022-06-06T11:19:23Z</time>
      </trkpt>
      <trkpt lat="46.33122" lon="5.43723">
        <ele>355</ele>
        <time>2022-06-06T11:19:25Z</time>
      </trkpt>
      <trkpt lat="46.33116" lon="5.43723">
        <ele>355.2</ele>
        <time>2022-06-06T11:19:26Z</time>
      </trkpt>
      <trkpt lat="46.33111" lon="5.43724">
        <ele>355.4</ele>
        <time>2022-06-06T11:19:27Z</time>
      </trkpt>
      <trkpt lat="46.33106" lon="5.43724">
        <ele>355.6</ele>
        <time>2022-06-06T11:19:28Z</time>
      </trkpt>
      <trkpt lat="46.33074" lon="5.43728">
        <ele>356.2</ele>
        <time>2022-06-06T11:19:34Z</time>
      </trkpt>
      <trkpt lat="46.33069" lon="5.43729">
        <ele>356.4</ele>
        <time>2022-06-06T11:19:35Z</time>
      </trkpt>
      <trkpt lat="46.33064" lon="5.4373">
        <ele>356.6</ele>
        <time>2022-06-06T11:19:36Z</time>
      </trkpt>
      <trkpt lat="46.33048" lon="5.43732">
        <ele>356.8</ele>
        <time>2022-06-06T11:19:39Z</time>
      </trkpt>
      <trkpt lat="46.33032" lon="5.43734">
        <ele>357</ele>
        <time>2022-06-06T11:19:42Z</time>
      </trkpt>
      <trkpt lat="46.33021" lon="5.43737">
        <ele>357.2</ele>
        <time>2022-06-06T11:19:44Z</time>
      </trkpt>
      <trkpt lat="46.32999" lon="5.43739">
        <ele>357.6</ele>
        <time>2022-06-06T11:19:48Z</time>
      </trkpt>
      <trkpt lat="46.32952" lon="5.43747">
        <ele>358.2</ele>
        <time>2022-06-06T11:19:57Z</time>
      </trkpt>
      <trkpt lat="46.32947" lon="5.43748">
        <ele>358.4</ele>
        <time>2022-06-06T11:19:58Z</time>
      </trkpt>
      <trkpt lat="46.329" lon="5.43761">
        <ele>359</ele>
        <time>2022-06-06T11:20:06Z</time>
      </trkpt>
      <trkpt lat="46.32851" lon="5.43773">
        <ele>359</ele>
        <time>2022-06-06T11:20:13Z</time>
      </trkpt>
      <trkpt lat="46.32799" lon="5.43787">
        <ele>358.4</ele>
        <time>2022-06-06T11:20:20Z</time>
      </trkpt>
      <trkpt lat="46.32744" lon="5.438">
        <ele>357.6</ele>
        <time>2022-06-06T11:20:27Z</time>
      </trkpt>
      <trkpt lat="46.32737" lon="5.43802">
        <ele>357.6</ele>
        <time>2022-06-06T11:20:28Z</time>
      </trkpt>
      <trkpt lat="46.32676" lon="5.43816">
        <ele>357.4</ele>
        <time>2022-06-06T11:20:36Z</time>
      </trkpt>
      <trkpt lat="46.32661" lon="5.4382">
        <ele>357.6</ele>
        <time>2022-06-06T11:20:38Z</time>
      </trkpt>
      <trkpt lat="46.32607" lon="5.43841">
        <ele>358.6</ele>
        <time>2022-06-06T11:20:46Z</time>
      </trkpt>
      <trkpt lat="46.32557" lon="5.43871">
        <ele>359.4</ele>
        <time>2022-06-06T11:20:54Z</time>
      </trkpt>
      <trkpt lat="46.32503" lon="5.43915">
        <ele>358.8</ele>
        <time>2022-06-06T11:21:02Z</time>
      </trkpt>
      <trkpt lat="46.32496" lon="5.43921">
        <ele>358.6</ele>
        <time>2022-06-06T11:21:03Z</time>
      </trkpt>
      <trkpt lat="46.32459" lon="5.43954">
        <ele>357.4</ele>
        <time>2022-06-06T11:21:08Z</time>
      </trkpt>
      <trkpt lat="46.32436" lon="5.43975">
        <ele>356.6</ele>
        <time>2022-06-06T11:21:11Z</time>
      </trkpt>
      <trkpt lat="46.3242" lon="5.4399">
        <ele>356.2</ele>
        <time>2022-06-06T11:21:13Z</time>
      </trkpt>
      <trkpt lat="46.32395" lon="5.44013">
        <ele>355</ele>
        <time>2022-06-06T11:21:16Z</time>
      </trkpt>
      <trkpt lat="46.32387" lon="5.44021">
        <ele>354.2</ele>
        <time>2022-06-06T11:21:17Z</time>
      </trkpt>
      <trkpt lat="46.32378" lon="5.44029">
        <ele>353.8</ele>
        <time>2022-06-06T11:21:18Z</time>
      </trkpt>
      <trkpt lat="46.32343" lon="5.4406">
        <ele>352</ele>
        <time>2022-06-06T11:21:22Z</time>
      </trkpt>
      <trkpt lat="46.32326" lon="5.44076">
        <ele>350.8</ele>
        <time>2022-06-06T11:21:24Z</time>
      </trkpt>
      <trkpt lat="46.32317" lon="5.44084">
        <ele>350.2</ele>
        <time>2022-06-06T11:21:25Z</time>
      </trkpt>
      <trkpt lat="46.323" lon="5.441">
        <ele>349.4</ele>
        <time>2022-06-06T11:21:27Z</time>
      </trkpt>
      <trkpt lat="46.32265" lon="5.44131">
        <ele>347.8</ele>
        <time>2022-06-06T11:21:31Z</time>
      </trkpt>
      <trkpt lat="46.32248" lon="5.44147">
        <ele>346.8</ele>
        <time>2022-06-06T11:21:33Z</time>
      </trkpt>
      <trkpt lat="46.32213" lon="5.44178">
        <ele>345.6</ele>
        <time>2022-06-06T11:21:37Z</time>
      </trkpt>
      <trkpt lat="46.32179" lon="5.44209">
        <ele>344.6</ele>
        <time>2022-06-06T11:21:41Z</time>
      </trkpt>
      <trkpt lat="46.32136" lon="5.44245">
        <ele>343.4</ele>
        <time>2022-06-06T11:21:46Z</time>
      </trkpt>
      <trkpt lat="46.3209" lon="5.44269">
        <ele>342.2</ele>
        <time>2022-06-06T11:21:51Z</time>
      </trkpt>
      <trkpt lat="46.32081" lon="5.44273">
        <ele>342</ele>
        <time>2022-06-06T11:21:52Z</time>
      </trkpt>
      <trkpt lat="46.32029" lon="5.44297">
        <ele>341.2</ele>
        <time>2022-06-06T11:21:58Z</time>
      </trkpt>
      <trkpt lat="46.32003" lon="5.44308">
        <ele>340.8</ele>
        <time>2022-06-06T11:22:01Z</time>
      </trkpt>
      <trkpt lat="46.31951" lon="5.44332">
        <ele>340.8</ele>
        <time>2022-06-06T11:22:07Z</time>
      </trkpt>
      <trkpt lat="46.31933" lon="5.44339">
        <ele>340.8</ele>
        <time>2022-06-06T11:22:09Z</time>
      </trkpt>
      <trkpt lat="46.31878" lon="5.44363">
        <ele>340.2</ele>
        <time>2022-06-06T11:22:15Z</time>
      </trkpt>
      <trkpt lat="46.31869" lon="5.44367">
        <ele>340</ele>
        <time>2022-06-06T11:22:16Z</time>
      </trkpt>
      <trkpt lat="46.31859" lon="5.44371">
        <ele>340</ele>
        <time>2022-06-06T11:22:17Z</time>
      </trkpt>
      <trkpt lat="46.31832" lon="5.44382">
        <ele>339</ele>
        <time>2022-06-06T11:22:20Z</time>
      </trkpt>
      <trkpt lat="46.31804" lon="5.44393">
        <ele>337.8</ele>
        <time>2022-06-06T11:22:23Z</time>
      </trkpt>
      <trkpt lat="46.31777" lon="5.44405">
        <ele>337.6</ele>
        <time>2022-06-06T11:22:26Z</time>
      </trkpt>
      <trkpt lat="46.31732" lon="5.44423">
        <ele>336.8</ele>
        <time>2022-06-06T11:22:31Z</time>
      </trkpt>
      <trkpt lat="46.31714" lon="5.44426">
        <ele>336.6</ele>
        <time>2022-06-06T11:22:33Z</time>
      </trkpt>
      <trkpt lat="46.31669" lon="5.44426">
        <ele>335.8</ele>
        <time>2022-06-06T11:22:38Z</time>
      </trkpt>
      <trkpt lat="46.31652" lon="5.44425">
        <ele>335.6</ele>
        <time>2022-06-06T11:22:40Z</time>
      </trkpt>
      <trkpt lat="46.31601" lon="5.44419">
        <ele>335.6</ele>
        <time>2022-06-06T11:22:46Z</time>
      </trkpt>
      <trkpt lat="46.31544" lon="5.4441">
        <ele>335.8</ele>
        <time>2022-06-06T11:22:53Z</time>
      </trkpt>
      <trkpt lat="46.31536" lon="5.44408">
        <ele>336</ele>
        <time>2022-06-06T11:22:54Z</time>
      </trkpt>
      <trkpt lat="46.31481" lon="5.44387">
        <ele>336</ele>
        <time>2022-06-06T11:23:01Z</time>
      </trkpt>
      <trkpt lat="46.31458" lon="5.44378">
        <ele>336.2</ele>
        <time>2022-06-06T11:23:04Z</time>
      </trkpt>
      <trkpt lat="46.31413" lon="5.4436">
        <ele>336.4</ele>
        <time>2022-06-06T11:23:10Z</time>
      </trkpt>
      <trkpt lat="46.31356" lon="5.44336">
        <ele>336.6</ele>
        <time>2022-06-06T11:23:18Z</time>
      </trkpt>
      <trkpt lat="46.31349" lon="5.44333">
        <ele>336.6</ele>
        <time>2022-06-06T11:23:19Z</time>
      </trkpt>
      <trkpt lat="46.31336" lon="5.44326">
        <ele>336.8</ele>
        <time>2022-06-06T11:23:21Z</time>
      </trkpt>
      <trkpt lat="46.31308" lon="5.44313">
        <ele>336.8</ele>
        <time>2022-06-06T11:23:25Z</time>
      </trkpt>
      <trkpt lat="46.31258" lon="5.44293">
        <ele>336.8</ele>
        <time>2022-06-06T11:23:32Z</time>
      </trkpt>
      <trkpt lat="46.3121" lon="5.44276">
        <ele>337</ele>
        <time>2022-06-06T11:23:38Z</time>
      </trkpt>
      <trkpt lat="46.31165" lon="5.44246">
        <ele>336.6</ele>
        <time>2022-06-06T11:23:44Z</time>
      </trkpt>
      <trkpt lat="46.31117" lon="5.44203">
        <ele>336</ele>
        <time>2022-06-06T11:23:51Z</time>
      </trkpt>
      <trkpt lat="46.3111" lon="5.44198">
        <ele>336</ele>
        <time>2022-06-06T11:23:52Z</time>
      </trkpt>
      <trkpt lat="46.31061" lon="5.44155">
        <ele>336.2</ele>
        <time>2022-06-06T11:23:59Z</time>
      </trkpt>
      <trkpt lat="46.31047" lon="5.44143">
        <ele>336.2</ele>
        <time>2022-06-06T11:24:01Z</time>
      </trkpt>
      <trkpt lat="46.31032" lon="5.4413">
        <ele>335.6</ele>
        <time>2022-06-06T11:24:03Z</time>
      </trkpt>
      <trkpt lat="46.30994" lon="5.44101">
        <ele>334.6</ele>
        <time>2022-06-06T11:24:08Z</time>
      </trkpt>
      <trkpt lat="46.30961" lon="5.44078">
        <ele>333.6</ele>
        <time>2022-06-06T11:24:12Z</time>
      </trkpt>
      <trkpt lat="46.30952" lon="5.44072">
        <ele>333.4</ele>
        <time>2022-06-06T11:24:13Z</time>
      </trkpt>
      <trkpt lat="46.30943" lon="5.44066">
        <ele>333.2</ele>
        <time>2022-06-06T11:24:14Z</time>
      </trkpt>
      <trkpt lat="46.30917" lon="5.44049">
        <ele>332.4</ele>
        <time>2022-06-06T11:24:17Z</time>
      </trkpt>
      <trkpt lat="46.3089" lon="5.44035">
        <ele>332</ele>
        <time>2022-06-06T11:24:20Z</time>
      </trkpt>
      <trkpt lat="46.30837" lon="5.44018">
        <ele>331.4</ele>
        <time>2022-06-06T11:24:26Z</time>
      </trkpt>
      <trkpt lat="46.30797" lon="5.44015">
        <ele>331.8</ele>
        <time>2022-06-06T11:24:31Z</time>
      </trkpt>
      <trkpt lat="46.30763" lon="5.44021">
        <ele>332.2</ele>
        <time>2022-06-06T11:24:36Z</time>
      </trkpt>
      <trkpt lat="46.30735" lon="5.4403">
        <ele>333.2</ele>
        <time>2022-06-06T11:24:41Z</time>
      </trkpt>
      <trkpt lat="46.30712" lon="5.44036">
        <ele>334.6</ele>
        <time>2022-06-06T11:24:45Z</time>
      </trkpt>
      <trkpt lat="46.30706" lon="5.44038">
        <ele>334.6</ele>
        <time>2022-06-06T11:24:46Z</time>
      </trkpt>
      <trkpt lat="46.30687" lon="5.44042">
        <ele>335.2</ele>
        <time>2022-06-06T11:24:49Z</time>
      </trkpt>
      <trkpt lat="46.30681" lon="5.44043">
        <ele>335.2</ele>
        <time>2022-06-06T11:24:50Z</time>
      </trkpt>
      <trkpt lat="46.30668" lon="5.44043">
        <ele>335.6</ele>
        <time>2022-06-06T11:24:52Z</time>
      </trkpt>
      <trkpt lat="46.30656" lon="5.44042">
        <ele>336.2</ele>
        <time>2022-06-06T11:24:54Z</time>
      </trkpt>
      <trkpt lat="46.30629" lon="5.44039">
        <ele>336.8</ele>
        <time>2022-06-06T11:24:58Z</time>
      </trkpt>
      <trkpt lat="46.30609" lon="5.44036">
        <ele>336.6</ele>
        <time>2022-06-06T11:25:01Z</time>
      </trkpt>
      <trkpt lat="46.30564" lon="5.44033">
        <ele>336</ele>
        <time>2022-06-06T11:25:07Z</time>
      </trkpt>
      <trkpt lat="46.30533" lon="5.44029">
        <ele>335.6</ele>
        <time>2022-06-06T11:25:11Z</time>
      </trkpt>
      <trkpt lat="46.30509" lon="5.44024">
        <ele>334.8</ele>
        <time>2022-06-06T11:25:14Z</time>
      </trkpt>
      <trkpt lat="46.30501" lon="5.44022">
        <ele>334.2</ele>
        <time>2022-06-06T11:25:15Z</time>
      </trkpt>
      <trkpt lat="46.3046" lon="5.4401">
        <ele>333.2</ele>
        <time>2022-06-06T11:25:20Z</time>
      </trkpt>
      <trkpt lat="46.30434" lon="5.44004">
        <ele>332.6</ele>
        <time>2022-06-06T11:25:23Z</time>
      </trkpt>
      <trkpt lat="46.30402" lon="5.43994">
        <ele>332</ele>
        <time>2022-06-06T11:25:27Z</time>
      </trkpt>
      <trkpt lat="46.3038" lon="5.43984">
        <ele>331.8</ele>
        <time>2022-06-06T11:25:30Z</time>
      </trkpt>
      <trkpt lat="46.3033" lon="5.43959">
        <ele>331.2</ele>
        <time>2022-06-06T11:25:37Z</time>
      </trkpt>
      <trkpt lat="46.30289" lon="5.43939">
        <ele>331</ele>
        <time>2022-06-06T11:25:43Z</time>
      </trkpt>
      <trkpt lat="46.30275" lon="5.43932">
        <ele>331</ele>
        <time>2022-06-06T11:25:45Z</time>
      </trkpt>
      <trkpt lat="46.30263" lon="5.43926">
        <ele>331.2</ele>
        <time>2022-06-06T11:25:47Z</time>
      </trkpt>
      <trkpt lat="46.3021" lon="5.43899">
        <ele>332</ele>
        <time>2022-06-06T11:25:55Z</time>
      </trkpt>
      <trkpt lat="46.30198" lon="5.43893">
        <ele>332.2</ele>
        <time>2022-06-06T11:25:57Z</time>
      </trkpt>
      <trkpt lat="46.30147" lon="5.43866">
        <ele>332.6</ele>
        <time>2022-06-06T11:26:05Z</time>
      </trkpt>
      <trkpt lat="46.3014" lon="5.43862">
        <ele>332.6</ele>
        <time>2022-06-06T11:26:06Z</time>
      </trkpt>
      <trkpt lat="46.30091" lon="5.43836">
        <ele>332.4</ele>
        <time>2022-06-06T11:26:13Z</time>
      </trkpt>
      <trkpt lat="46.30033" lon="5.43808">
        <ele>331.8</ele>
        <time>2022-06-06T11:26:21Z</time>
      </trkpt>
      <trkpt lat="46.30019" lon="5.43801">
        <ele>331.6</ele>
        <time>2022-06-06T11:26:23Z</time>
      </trkpt>
      <trkpt lat="46.29963" lon="5.43775">
        <ele>332</ele>
        <time>2022-06-06T11:26:31Z</time>
      </trkpt>
      <trkpt lat="46.29907" lon="5.43751">
        <ele>331.4</ele>
        <time>2022-06-06T11:26:39Z</time>
      </trkpt>
      <trkpt lat="46.29885" lon="5.43742">
        <ele>331.2</ele>
        <time>2022-06-06T11:26:42Z</time>
      </trkpt>
      <trkpt lat="46.29878" lon="5.43739">
        <ele>331.2</ele>
        <time>2022-06-06T11:26:43Z</time>
      </trkpt>
      <trkpt lat="46.2983" lon="5.43717">
        <ele>330.8</ele>
        <time>2022-06-06T11:26:50Z</time>
      </trkpt>
      <trkpt lat="46.29773" lon="5.43691">
        <ele>330.8</ele>
        <time>2022-06-06T11:26:58Z</time>
      </trkpt>
      <trkpt lat="46.2976" lon="5.43684">
        <ele>330.4</ele>
        <time>2022-06-06T11:27:00Z</time>
      </trkpt>
      <trkpt lat="46.29705" lon="5.43654">
        <ele>330.2</ele>
        <time>2022-06-06T11:27:08Z</time>
      </trkpt>
      <trkpt lat="46.29692" lon="5.43646">
        <ele>330.2</ele>
        <time>2022-06-06T11:27:10Z</time>
      </trkpt>
      <trkpt lat="46.29671" lon="5.43635">
        <ele>330.4</ele>
        <time>2022-06-06T11:27:13Z</time>
      </trkpt>
      <trkpt lat="46.29636" lon="5.43617">
        <ele>330.2</ele>
        <time>2022-06-06T11:27:18Z</time>
      </trkpt>
      <trkpt lat="46.29601" lon="5.43598">
        <ele>330.2</ele>
        <time>2022-06-06T11:27:23Z</time>
      </trkpt>
      <trkpt lat="46.29571" lon="5.43584">
        <ele>329.8</ele>
        <time>2022-06-06T11:27:27Z</time>
      </trkpt>
      <trkpt lat="46.2952" lon="5.43557">
        <ele>329.6</ele>
        <time>2022-06-06T11:27:34Z</time>
      </trkpt>
      <trkpt lat="46.29513" lon="5.43553">
        <ele>329.4</ele>
        <time>2022-06-06T11:27:35Z</time>
      </trkpt>
      <trkpt lat="46.2947" lon="5.4353">
        <ele>329</ele>
        <time>2022-06-06T11:27:41Z</time>
      </trkpt>
      <trkpt lat="46.29435" lon="5.43509">
        <ele>329</ele>
        <time>2022-06-06T11:27:46Z</time>
      </trkpt>
      <trkpt lat="46.29383" lon="5.43476">
        <ele>328.6</ele>
        <time>2022-06-06T11:27:53Z</time>
      </trkpt>
      <trkpt lat="46.29376" lon="5.43471">
        <ele>328.6</ele>
        <time>2022-06-06T11:27:54Z</time>
      </trkpt>
      <trkpt lat="46.29361" lon="5.43461">
        <ele>328.2</ele>
        <time>2022-06-06T11:27:56Z</time>
      </trkpt>
      <trkpt lat="46.29314" lon="5.43434">
        <ele>327</ele>
        <time>2022-06-06T11:28:02Z</time>
      </trkpt>
      <trkpt lat="46.29306" lon="5.4343">
        <ele>327</ele>
        <time>2022-06-06T11:28:03Z</time>
      </trkpt>
      <trkpt lat="46.29251" lon="5.43409">
        <ele>326</ele>
        <time>2022-06-06T11:28:10Z</time>
      </trkpt>
      <trkpt lat="46.29236" lon="5.43404">
        <ele>325.8</ele>
        <time>2022-06-06T11:28:12Z</time>
      </trkpt>
      <trkpt lat="46.29207" lon="5.43391">
        <ele>325.8</ele>
        <time>2022-06-06T11:28:16Z</time>
      </trkpt>
      <trkpt lat="46.29178" lon="5.43375">
        <ele>326</ele>
        <time>2022-06-06T11:28:20Z</time>
      </trkpt>
      <trkpt lat="46.29124" lon="5.43336">
        <ele>326.4</ele>
        <time>2022-06-06T11:28:28Z</time>
      </trkpt>
      <trkpt lat="46.29111" lon="5.43325">
        <ele>326.2</ele>
        <time>2022-06-06T11:28:30Z</time>
      </trkpt>
      <trkpt lat="46.29059" lon="5.43278">
        <ele>325.8</ele>
        <time>2022-06-06T11:28:38Z</time>
      </trkpt>
      <trkpt lat="46.29046" lon="5.43265">
        <ele>325.6</ele>
        <time>2022-06-06T11:28:40Z</time>
      </trkpt>
      <trkpt lat="46.28994" lon="5.43219">
        <ele>325.6</ele>
        <time>2022-06-06T11:28:48Z</time>
      </trkpt>
      <trkpt lat="46.28946" lon="5.43191">
        <ele>325.8</ele>
        <time>2022-06-06T11:28:55Z</time>
      </trkpt>
      <trkpt lat="46.28939" lon="5.43187">
        <ele>325.8</ele>
        <time>2022-06-06T11:28:56Z</time>
      </trkpt>
      <trkpt lat="46.28888" lon="5.43167">
        <ele>326.4</ele>
        <time>2022-06-06T11:29:03Z</time>
      </trkpt>
      <trkpt lat="46.28831" lon="5.43143">
        <ele>326.6</ele>
        <time>2022-06-06T11:29:11Z</time>
      </trkpt>
      <trkpt lat="46.28774" lon="5.43123">
        <ele>326</ele>
        <time>2022-06-06T11:29:19Z</time>
      </trkpt>
      <trkpt lat="46.28766" lon="5.43121">
        <ele>326</ele>
        <time>2022-06-06T11:29:20Z</time>
      </trkpt>
      <trkpt lat="46.28708" lon="5.43112">
        <ele>325.8</ele>
        <time>2022-06-06T11:29:28Z</time>
      </trkpt>
      <trkpt lat="46.28693" lon="5.4311">
        <ele>325.6</ele>
        <time>2022-06-06T11:29:30Z</time>
      </trkpt>
      <trkpt lat="46.28632" lon="5.43105">
        <ele>325.4</ele>
        <time>2022-06-06T11:29:38Z</time>
      </trkpt>
      <trkpt lat="46.28609" lon="5.43103">
        <ele>325.6</ele>
        <time>2022-06-06T11:29:41Z</time>
      </trkpt>
      <trkpt lat="46.28554" lon="5.43102">
        <ele>325.2</ele>
        <time>2022-06-06T11:29:48Z</time>
      </trkpt>
      <trkpt lat="46.28539" lon="5.43102">
        <ele>325</ele>
        <time>2022-06-06T11:29:50Z</time>
      </trkpt>
      <trkpt lat="46.28478" lon="5.43107">
        <ele>324.2</ele>
        <time>2022-06-06T11:29:58Z</time>
      </trkpt>
      <trkpt lat="46.28462" lon="5.43108">
        <ele>324</ele>
        <time>2022-06-06T11:30:00Z</time>
      </trkpt>
      <trkpt lat="46.28455" lon="5.43109">
        <ele>323.8</ele>
        <time>2022-06-06T11:30:01Z</time>
      </trkpt>
      <trkpt lat="46.28394" lon="5.43117">
        <ele>323.6</ele>
        <time>2022-06-06T11:30:09Z</time>
      </trkpt>
      <trkpt lat="46.28379" lon="5.4312">
        <ele>323.4</ele>
        <time>2022-06-06T11:30:11Z</time>
      </trkpt>
      <trkpt lat="46.28356" lon="5.43123">
        <ele>323.2</ele>
        <time>2022-06-06T11:30:14Z</time>
      </trkpt>
      <trkpt lat="46.28302" lon="5.43125">
        <ele>322.4</ele>
        <time>2022-06-06T11:30:21Z</time>
      </trkpt>
      <trkpt lat="46.28265" lon="5.4312">
        <ele>322.2</ele>
        <time>2022-06-06T11:30:26Z</time>
      </trkpt>
      <trkpt lat="46.28228" lon="5.43113">
        <ele>322</ele>
        <time>2022-06-06T11:30:31Z</time>
      </trkpt>
      <trkpt lat="46.28173" lon="5.43102">
        <ele>321.6</ele>
        <time>2022-06-06T11:30:39Z</time>
      </trkpt>
      <trkpt lat="46.28158" lon="5.43099">
        <ele>321.6</ele>
        <time>2022-06-06T11:30:41Z</time>
      </trkpt>
      <trkpt lat="46.28097" lon="5.43088">
        <ele>321.6</ele>
        <time>2022-06-06T11:30:50Z</time>
      </trkpt>
      <trkpt lat="46.28091" lon="5.43086">
        <ele>321.6</ele>
        <time>2022-06-06T11:30:51Z</time>
      </trkpt>
      <trkpt lat="46.28031" lon="5.43074">
        <ele>321.2</ele>
        <time>2022-06-06T11:31:00Z</time>
      </trkpt>
      <trkpt lat="46.27977" lon="5.43062">
        <ele>321.6</ele>
        <time>2022-06-06T11:31:08Z</time>
      </trkpt>
      <trkpt lat="46.27942" lon="5.43054">
        <ele>321.6</ele>
        <time>2022-06-06T11:31:13Z</time>
      </trkpt>
      <trkpt lat="46.27885" lon="5.43042">
        <ele>321.2</ele>
        <time>2022-06-06T11:31:21Z</time>
      </trkpt>
      <trkpt lat="46.2787" lon="5.43041">
        <ele>321</ele>
        <time>2022-06-06T11:31:23Z</time>
      </trkpt>
      <trkpt lat="46.27814" lon="5.43042">
        <ele>320.8</ele>
        <time>2022-06-06T11:31:31Z</time>
      </trkpt>
      <trkpt lat="46.27776" lon="5.43034">
        <ele>321.6</ele>
        <time>2022-06-06T11:31:37Z</time>
      </trkpt>
      <trkpt lat="46.2774" lon="5.43018">
        <ele>322.2</ele>
        <time>2022-06-06T11:31:43Z</time>
      </trkpt>
      <trkpt lat="46.27734" lon="5.43016">
        <ele>322.2</ele>
        <time>2022-06-06T11:31:44Z</time>
      </trkpt>
      <trkpt lat="46.27688" lon="5.42998">
        <ele>322.8</ele>
        <time>2022-06-06T11:31:51Z</time>
      </trkpt>
      <trkpt lat="46.27675" lon="5.42993">
        <ele>323.2</ele>
        <time>2022-06-06T11:31:53Z</time>
      </trkpt>
      <trkpt lat="46.27622" lon="5.42976">
        <ele>323.4</ele>
        <time>2022-06-06T11:32:01Z</time>
      </trkpt>
      <trkpt lat="46.27602" lon="5.42969">
        <ele>323</ele>
        <time>2022-06-06T11:32:04Z</time>
      </trkpt>
      <trkpt lat="46.27544" lon="5.42949">
        <ele>322.6</ele>
        <time>2022-06-06T11:32:13Z</time>
      </trkpt>
      <trkpt lat="46.27485" lon="5.4293">
        <ele>322.8</ele>
        <time>2022-06-06T11:32:22Z</time>
      </trkpt>
      <trkpt lat="46.27472" lon="5.42926">
        <ele>322.8</ele>
        <time>2022-06-06T11:32:24Z</time>
      </trkpt>
      <trkpt lat="46.27445" lon="5.42917">
        <ele>322.2</ele>
        <time>2022-06-06T11:32:28Z</time>
      </trkpt>
      <trkpt lat="46.27405" lon="5.42904">
        <ele>321.8</ele>
        <time>2022-06-06T11:32:34Z</time>
      </trkpt>
      <trkpt lat="46.27351" lon="5.42885">
        <ele>322</ele>
        <time>2022-06-06T11:32:42Z</time>
      </trkpt>
      <trkpt lat="46.27338" lon="5.4288">
        <ele>322.2</ele>
        <time>2022-06-06T11:32:44Z</time>
      </trkpt>
      <trkpt lat="46.27303" lon="5.42862">
        <ele>322.2</ele>
        <time>2022-06-06T11:32:50Z</time>
      </trkpt>
      <trkpt lat="46.27259" lon="5.42834">
        <ele>323.4</ele>
        <time>2022-06-06T11:32:58Z</time>
      </trkpt>
      <trkpt lat="46.2723" lon="5.42814">
        <ele>324.6</ele>
        <time>2022-06-06T11:33:03Z</time>
      </trkpt>
      <trkpt lat="46.27207" lon="5.428">
        <ele>325</ele>
        <time>2022-06-06T11:33:07Z</time>
      </trkpt>
      <trkpt lat="46.27178" lon="5.42785">
        <ele>325.4</ele>
        <time>2022-06-06T11:33:12Z</time>
      </trkpt>
      <trkpt lat="46.27166" lon="5.42778">
        <ele>325.8</ele>
        <time>2022-06-06T11:33:14Z</time>
      </trkpt>
      <trkpt lat="46.2712" lon="5.42764">
        <ele>326.2</ele>
        <time>2022-06-06T11:33:21Z</time>
      </trkpt>
      <trkpt lat="46.27074" lon="5.42761">
        <ele>325.6</ele>
        <time>2022-06-06T11:33:27Z</time>
      </trkpt>
      <trkpt lat="46.27031" lon="5.42755">
        <ele>324.6</ele>
        <time>2022-06-06T11:33:32Z</time>
      </trkpt>
      <trkpt lat="46.27013" lon="5.42751">
        <ele>323.8</ele>
        <time>2022-06-06T11:33:34Z</time>
      </trkpt>
      <trkpt lat="46.27004" lon="5.4275">
        <ele>323.4</ele>
        <time>2022-06-06T11:33:35Z</time>
      </trkpt>
      <trkpt lat="46.26953" lon="5.42737">
        <ele>322.4</ele>
        <time>2022-06-06T11:33:41Z</time>
      </trkpt>
      <trkpt lat="46.26945" lon="5.42735">
        <ele>322.2</ele>
        <time>2022-06-06T11:33:42Z</time>
      </trkpt>
      <trkpt lat="46.26897" lon="5.42715">
        <ele>322</ele>
        <time>2022-06-06T11:33:48Z</time>
      </trkpt>
      <trkpt lat="46.26873" lon="5.42705">
        <ele>321.8</ele>
        <time>2022-06-06T11:33:51Z</time>
      </trkpt>
      <trkpt lat="46.2684" lon="5.42693">
        <ele>321.4</ele>
        <time>2022-06-06T11:33:55Z</time>
      </trkpt>
      <trkpt lat="46.26831" lon="5.4269">
        <ele>321.4</ele>
        <time>2022-06-06T11:33:56Z</time>
      </trkpt>
      <trkpt lat="46.26783" lon="5.42676">
        <ele>320.4</ele>
        <time>2022-06-06T11:34:02Z</time>
      </trkpt>
      <trkpt lat="46.26775" lon="5.42673">
        <ele>320.2</ele>
        <time>2022-06-06T11:34:03Z</time>
      </trkpt>
      <trkpt lat="46.26719" lon="5.42658">
        <ele>319.4</ele>
        <time>2022-06-06T11:34:10Z</time>
      </trkpt>
      <trkpt lat="46.26712" lon="5.42656">
        <ele>319.4</ele>
        <time>2022-06-06T11:34:11Z</time>
      </trkpt>
      <trkpt lat="46.26652" lon="5.42639">
        <ele>320</ele>
        <time>2022-06-06T11:34:19Z</time>
      </trkpt>
      <trkpt lat="46.26595" lon="5.42625">
        <ele>319.8</ele>
        <time>2022-06-06T11:34:26Z</time>
      </trkpt>
      <trkpt lat="46.26587" lon="5.42623">
        <ele>319.8</ele>
        <time>2022-06-06T11:34:27Z</time>
      </trkpt>
      <trkpt lat="46.26532" lon="5.42615">
        <ele>319.8</ele>
        <time>2022-06-06T11:34:34Z</time>
      </trkpt>
      <trkpt lat="46.26525" lon="5.42614">
        <ele>319.8</ele>
        <time>2022-06-06T11:34:35Z</time>
      </trkpt>
      <trkpt lat="46.26479" lon="5.42602">
        <ele>320</ele>
        <time>2022-06-06T11:34:41Z</time>
      </trkpt>
      <trkpt lat="46.26431" lon="5.42593">
        <ele>319</ele>
        <time>2022-06-06T11:34:47Z</time>
      </trkpt>
      <trkpt lat="46.26422" lon="5.42591">
        <ele>319</ele>
        <time>2022-06-06T11:34:48Z</time>
      </trkpt>
      <trkpt lat="46.26373" lon="5.42585">
        <ele>318.6</ele>
        <time>2022-06-06T11:34:54Z</time>
      </trkpt>
      <trkpt lat="46.26365" lon="5.42583">
        <ele>318.6</ele>
        <time>2022-06-06T11:34:55Z</time>
      </trkpt>
      <trkpt lat="46.2635" lon="5.42578">
        <ele>318.4</ele>
        <time>2022-06-06T11:34:57Z</time>
      </trkpt>
      <trkpt lat="46.26342" lon="5.42577">
        <ele>318.4</ele>
        <time>2022-06-06T11:34:58Z</time>
      </trkpt>
      <trkpt lat="46.26302" lon="5.42572">
        <ele>318</ele>
        <time>2022-06-06T11:35:03Z</time>
      </trkpt>
      <trkpt lat="46.26286" lon="5.4257">
        <ele>317.8</ele>
        <time>2022-06-06T11:35:05Z</time>
      </trkpt>
      <trkpt lat="46.26232" lon="5.42564">
        <ele>317.8</ele>
        <time>2022-06-06T11:35:12Z</time>
      </trkpt>
      <trkpt lat="46.26224" lon="5.42563">
        <ele>317.8</ele>
        <time>2022-06-06T11:35:13Z</time>
      </trkpt>
      <trkpt lat="46.2617" lon="5.42554">
        <ele>317.8</ele>
        <time>2022-06-06T11:35:20Z</time>
      </trkpt>
      <trkpt lat="46.26162" lon="5.42554">
        <ele>317.8</ele>
        <time>2022-06-06T11:35:21Z</time>
      </trkpt>
      <trkpt lat="46.26153" lon="5.42553">
        <ele>317.8</ele>
        <time>2022-06-06T11:35:22Z</time>
      </trkpt>
      <trkpt lat="46.2612" lon="5.42548">
        <ele>317.2</ele>
        <time>2022-06-06T11:35:26Z</time>
      </trkpt>
      <trkpt lat="46.26079" lon="5.42542">
        <ele>317</ele>
        <time>2022-06-06T11:35:31Z</time>
      </trkpt>
      <trkpt lat="46.26055" lon="5.42538">
        <ele>317</ele>
        <time>2022-06-06T11:35:34Z</time>
      </trkpt>
      <trkpt lat="46.25999" lon="5.42529">
        <ele>317.2</ele>
        <time>2022-06-06T11:35:41Z</time>
      </trkpt>
      <trkpt lat="46.25968" lon="5.42524">
        <ele>317.2</ele>
        <time>2022-06-06T11:35:45Z</time>
      </trkpt>
      <trkpt lat="46.25909" lon="5.42515">
        <ele>317</ele>
        <time>2022-06-06T11:35:53Z</time>
      </trkpt>
      <trkpt lat="46.25887" lon="5.42512">
        <ele>317</ele>
        <time>2022-06-06T11:35:56Z</time>
      </trkpt>
      <trkpt lat="46.2583" lon="5.42503">
        <ele>317.2</ele>
        <time>2022-06-06T11:36:03Z</time>
      </trkpt>
      <trkpt lat="46.25798" lon="5.42498">
        <ele>317.2</ele>
        <time>2022-06-06T11:36:07Z</time>
      </trkpt>
      <trkpt lat="46.25743" lon="5.42489">
        <ele>316.2</ele>
        <time>2022-06-06T11:36:14Z</time>
      </trkpt>
      <trkpt lat="46.25711" lon="5.42483">
        <ele>316.2</ele>
        <time>2022-06-06T11:36:18Z</time>
      </trkpt>
      <trkpt lat="46.25657" lon="5.42475">
        <ele>316.4</ele>
        <time>2022-06-06T11:36:25Z</time>
      </trkpt>
      <trkpt lat="46.25641" lon="5.42473">
        <ele>316.2</ele>
        <time>2022-06-06T11:36:27Z</time>
      </trkpt>
      <trkpt lat="46.25635" lon="5.42472">
        <ele>316.2</ele>
        <time>2022-06-06T11:36:28Z</time>
      </trkpt>
      <trkpt lat="46.25579" lon="5.42463">
        <ele>316</ele>
        <time>2022-06-06T11:36:35Z</time>
      </trkpt>
      <trkpt lat="46.25526" lon="5.42455">
        <ele>315.8</ele>
        <time>2022-06-06T11:36:42Z</time>
      </trkpt>
      <trkpt lat="46.25468" lon="5.42445">
        <ele>315.8</ele>
        <time>2022-06-06T11:36:50Z</time>
      </trkpt>
      <trkpt lat="46.25445" lon="5.42442">
        <ele>315.8</ele>
        <time>2022-06-06T11:36:53Z</time>
      </trkpt>
      <trkpt lat="46.25384" lon="5.42432">
        <ele>316</ele>
        <time>2022-06-06T11:37:01Z</time>
      </trkpt>
      <trkpt lat="46.25371" lon="5.4243">
        <ele>316.2</ele>
        <time>2022-06-06T11:37:03Z</time>
      </trkpt>
      <trkpt lat="46.25315" lon="5.42421">
        <ele>316.2</ele>
        <time>2022-06-06T11:37:10Z</time>
      </trkpt>
      <trkpt lat="46.253" lon="5.42419">
        <ele>316.2</ele>
        <time>2022-06-06T11:37:12Z</time>
      </trkpt>
      <trkpt lat="46.25239" lon="5.42409">
        <ele>316.2</ele>
        <time>2022-06-06T11:37:20Z</time>
      </trkpt>
      <trkpt lat="46.25232" lon="5.42407">
        <ele>316.4</ele>
        <time>2022-06-06T11:37:21Z</time>
      </trkpt>
      <trkpt lat="46.25173" lon="5.42398">
        <ele>316.4</ele>
        <time>2022-06-06T11:37:29Z</time>
      </trkpt>
      <trkpt lat="46.25149" lon="5.42395">
        <ele>316.2</ele>
        <time>2022-06-06T11:37:32Z</time>
      </trkpt>
      <trkpt lat="46.25089" lon="5.42387">
        <ele>316.2</ele>
        <time>2022-06-06T11:37:40Z</time>
      </trkpt>
      <trkpt lat="46.25072" lon="5.42385">
        <ele>316.2</ele>
        <time>2022-06-06T11:37:42Z</time>
      </trkpt>
      <trkpt lat="46.25041" lon="5.42382">
        <ele>316.2</ele>
        <time>2022-06-06T11:37:46Z</time>
      </trkpt>
      <trkpt lat="46.2501" lon="5.42378">
        <ele>316</ele>
        <time>2022-06-06T11:37:50Z</time>
      </trkpt>
      <trkpt lat="46.24951" lon="5.42371">
        <ele>315.6</ele>
        <time>2022-06-06T11:37:58Z</time>
      </trkpt>
      <trkpt lat="46.24937" lon="5.42369">
        <ele>315.8</ele>
        <time>2022-06-06T11:38:00Z</time>
      </trkpt>
      <trkpt lat="46.24879" lon="5.42362">
        <ele>316</ele>
        <time>2022-06-06T11:38:08Z</time>
      </trkpt>
      <trkpt lat="46.24856" lon="5.42359">
        <ele>315.8</ele>
        <time>2022-06-06T11:38:11Z</time>
      </trkpt>
      <trkpt lat="46.24826" lon="5.42357">
        <ele>315.8</ele>
        <time>2022-06-06T11:38:15Z</time>
      </trkpt>
      <trkpt lat="46.24812" lon="5.42354">
        <ele>315.6</ele>
        <time>2022-06-06T11:38:17Z</time>
      </trkpt>
      <trkpt lat="46.24753" lon="5.42347">
        <ele>315.4</ele>
        <time>2022-06-06T11:38:25Z</time>
      </trkpt>
      <trkpt lat="46.24702" lon="5.4234">
        <ele>315.4</ele>
        <time>2022-06-06T11:38:32Z</time>
      </trkpt>
      <trkpt lat="46.24674" lon="5.42336">
        <ele>315.6</ele>
        <time>2022-06-06T11:38:36Z</time>
      </trkpt>
      <trkpt lat="46.24664" lon="5.42331">
        <ele>315.8</ele>
        <time>2022-06-06T11:38:38Z</time>
      </trkpt>
      <trkpt lat="46.24657" lon="5.42327">
        <ele>315.8</ele>
        <time>2022-06-06T11:38:39Z</time>
      </trkpt>
      <trkpt lat="46.24654" lon="5.42323">
        <ele>316.2</ele>
        <time>2022-06-06T11:38:40Z</time>
      </trkpt>
      <trkpt lat="46.24647" lon="5.42318">
        <ele>316.4</ele>
        <time>2022-06-06T11:38:42Z</time>
      </trkpt>
      <trkpt lat="46.24631" lon="5.42321">
        <ele>316.4</ele>
        <time>2022-06-06T11:38:45Z</time>
      </trkpt>
      <trkpt lat="46.24625" lon="5.42321">
        <ele>316.4</ele>
        <time>2022-06-06T11:38:46Z</time>
      </trkpt>
      <trkpt lat="46.24595" lon="5.42314">
        <ele>316.8</ele>
        <time>2022-06-06T11:38:50Z</time>
      </trkpt>
      <trkpt lat="46.24542" lon="5.42298">
        <ele>316.2</ele>
        <time>2022-06-06T11:38:57Z</time>
      </trkpt>
      <trkpt lat="46.24535" lon="5.42296">
        <ele>316.2</ele>
        <time>2022-06-06T11:38:58Z</time>
      </trkpt>
      <trkpt lat="46.24509" lon="5.4229">
        <ele>316.2</ele>
        <time>2022-06-06T11:39:02Z</time>
      </trkpt>
      <trkpt lat="46.24494" lon="5.42288">
        <ele>316.6</ele>
        <time>2022-06-06T11:39:04Z</time>
      </trkpt>
      <trkpt lat="46.24445" lon="5.42285">
        <ele>317</ele>
        <time>2022-06-06T11:39:11Z</time>
      </trkpt>
      <trkpt lat="46.24425" lon="5.42285">
        <ele>317</ele>
        <time>2022-06-06T11:39:14Z</time>
      </trkpt>
      <trkpt lat="46.24411" lon="5.42285">
        <ele>317</ele>
        <time>2022-06-06T11:39:16Z</time>
      </trkpt>
      <trkpt lat="46.24378" lon="5.42286">
        <ele>317.2</ele>
        <time>2022-06-06T11:39:21Z</time>
      </trkpt>
      <trkpt lat="46.24365" lon="5.42287">
        <ele>317.4</ele>
        <time>2022-06-06T11:39:23Z</time>
      </trkpt>
      <trkpt lat="46.24359" lon="5.42287">
        <ele>317.6</ele>
        <time>2022-06-06T11:39:24Z</time>
      </trkpt>
      <trkpt lat="46.24313" lon="5.4229">
        <ele>318.2</ele>
        <time>2022-06-06T11:39:31Z</time>
      </trkpt>
      <trkpt lat="46.24293" lon="5.42291">
        <ele>318.2</ele>
        <time>2022-06-06T11:39:34Z</time>
      </trkpt>
      <trkpt lat="46.24279" lon="5.42293">
        <ele>318.2</ele>
        <time>2022-06-06T11:39:36Z</time>
      </trkpt>
      <trkpt lat="46.24224" lon="5.42297">
        <ele>317.4</ele>
        <time>2022-06-06T11:39:43Z</time>
      </trkpt>
      <trkpt lat="46.24165" lon="5.42294">
        <ele>316.8</ele>
        <time>2022-06-06T11:39:51Z</time>
      </trkpt>
      <trkpt lat="46.24126" lon="5.42301">
        <ele>316.6</ele>
        <time>2022-06-06T11:39:56Z</time>
      </trkpt>
      <trkpt lat="46.24079" lon="5.42318">
        <ele>316</ele>
        <time>2022-06-06T11:40:02Z</time>
      </trkpt>
      <trkpt lat="46.24045" lon="5.42323">
        <ele>314.8</ele>
        <time>2022-06-06T11:40:06Z</time>
      </trkpt>
      <trkpt lat="46.24028" lon="5.42323">
        <ele>314.4</ele>
        <time>2022-06-06T11:40:08Z</time>
      </trkpt>
      <trkpt lat="46.24003" lon="5.42322">
        <ele>313.6</ele>
        <time>2022-06-06T11:40:11Z</time>
      </trkpt>
      <trkpt lat="46.23978" lon="5.42321">
        <ele>313.2</ele>
        <time>2022-06-06T11:40:14Z</time>
      </trkpt>
      <trkpt lat="46.23945" lon="5.42323">
        <ele>312.4</ele>
        <time>2022-06-06T11:40:18Z</time>
      </trkpt>
      <trkpt lat="46.23914" lon="5.42327">
        <ele>312.2</ele>
        <time>2022-06-06T11:40:22Z</time>
      </trkpt>
      <trkpt lat="46.23861" lon="5.42345">
        <ele>312</ele>
        <time>2022-06-06T11:40:29Z</time>
      </trkpt>
      <trkpt lat="46.23853" lon="5.42347">
        <ele>312</ele>
        <time>2022-06-06T11:40:30Z</time>
      </trkpt>
      <trkpt lat="46.23824" lon="5.42349">
        <ele>312</ele>
        <time>2022-06-06T11:40:34Z</time>
      </trkpt>
      <trkpt lat="46.23779" lon="5.42348">
        <ele>312</ele>
        <time>2022-06-06T11:40:40Z</time>
      </trkpt>
      <trkpt lat="46.23725" lon="5.42338">
        <ele>312.6</ele>
        <time>2022-06-06T11:40:48Z</time>
      </trkpt>
      <trkpt lat="46.23719" lon="5.42335">
        <ele>312.6</ele>
        <time>2022-06-06T11:40:49Z</time>
      </trkpt>
      <trkpt lat="46.23681" lon="5.4232">
        <ele>313.2</ele>
        <time>2022-06-06T11:40:55Z</time>
      </trkpt>
      <trkpt lat="46.23657" lon="5.42309">
        <ele>313.4</ele>
        <time>2022-06-06T11:40:59Z</time>
      </trkpt>
      <trkpt lat="46.2361" lon="5.42289">
        <ele>313.6</ele>
        <time>2022-06-06T11:41:07Z</time>
      </trkpt>
      <trkpt lat="46.23569" lon="5.4227">
        <ele>314.4</ele>
        <time>2022-06-06T11:41:14Z</time>
      </trkpt>
      <trkpt lat="46.23556" lon="5.42265">
        <ele>314.4</ele>
        <time>2022-06-06T11:41:16Z</time>
      </trkpt>
      <trkpt lat="46.23518" lon="5.42254">
        <ele>314.4</ele>
        <time>2022-06-06T11:41:22Z</time>
      </trkpt>
      <trkpt lat="46.23473" lon="5.42233">
        <ele>314</ele>
        <time>2022-06-06T11:41:29Z</time>
      </trkpt>
      <trkpt lat="46.23432" lon="5.42202">
        <ele>314</ele>
        <time>2022-06-06T11:41:36Z</time>
      </trkpt>
      <trkpt lat="46.23391" lon="5.42167">
        <ele>315</ele>
        <time>2022-06-06T11:41:44Z</time>
      </trkpt>
      <trkpt lat="46.23382" lon="5.42158">
        <ele>315.2</ele>
        <time>2022-06-06T11:41:46Z</time>
      </trkpt>
      <trkpt lat="46.23373" lon="5.4215">
        <ele>315.4</ele>
        <time>2022-06-06T11:41:48Z</time>
      </trkpt>
      <trkpt lat="46.23367" lon="5.42145">
        <ele>315.8</ele>
        <time>2022-06-06T11:41:49Z</time>
      </trkpt>
      <trkpt lat="46.23348" lon="5.42126">
        <ele>316</ele>
        <time>2022-06-06T11:41:53Z</time>
      </trkpt>
      <trkpt lat="46.2334" lon="5.42118">
        <ele>316</ele>
        <time>2022-06-06T11:41:55Z</time>
      </trkpt>
      <trkpt lat="46.2332" lon="5.42095">
        <ele>316.8</ele>
        <time>2022-06-06T11:42:00Z</time>
      </trkpt>
      <trkpt lat="46.23302" lon="5.42073">
        <ele>317</ele>
        <time>2022-06-06T11:42:04Z</time>
      </trkpt>
      <trkpt lat="46.23267" lon="5.42036">
        <ele>317.4</ele>
        <time>2022-06-06T11:42:11Z</time>
      </trkpt>
      <trkpt lat="46.23224" lon="5.42005">
        <ele>317</ele>
        <time>2022-06-06T11:42:18Z</time>
      </trkpt>
      <trkpt lat="46.23169" lon="5.41974">
        <ele>316.2</ele>
        <time>2022-06-06T11:42:26Z</time>
      </trkpt>
      <trkpt lat="46.23127" lon="5.4195">
        <ele>315.6</ele>
        <time>2022-06-06T11:42:32Z</time>
      </trkpt>
      <trkpt lat="46.23099" lon="5.41932">
        <ele>315.4</ele>
        <time>2022-06-06T11:42:36Z</time>
      </trkpt>
      <trkpt lat="46.2305" lon="5.419">
        <ele>315</ele>
        <time>2022-06-06T11:42:43Z</time>
      </trkpt>
      <trkpt lat="46.23029" lon="5.41886">
        <ele>314.6</ele>
        <time>2022-06-06T11:42:46Z</time>
      </trkpt>
      <trkpt lat="46.23003" lon="5.41866">
        <ele>314.6</ele>
        <time>2022-06-06T11:42:50Z</time>
      </trkpt>
      <trkpt lat="46.2295" lon="5.41823">
        <ele>314.8</ele>
        <time>2022-06-06T11:42:58Z</time>
      </trkpt>
      <trkpt lat="46.22904" lon="5.41785">
        <ele>314.6</ele>
        <time>2022-06-06T11:43:05Z</time>
      </trkpt>
      <trkpt lat="46.2286" lon="5.41764">
        <ele>314.2</ele>
        <time>2022-06-06T11:43:11Z</time>
      </trkpt>
      <trkpt lat="46.22815" lon="5.41754">
        <ele>313.8</ele>
        <time>2022-06-06T11:43:17Z</time>
      </trkpt>
      <trkpt lat="46.22758" lon="5.41744">
        <ele>313.8</ele>
        <time>2022-06-06T11:43:25Z</time>
      </trkpt>
      <trkpt lat="46.22709" lon="5.41742">
        <ele>313.8</ele>
        <time>2022-06-06T11:43:32Z</time>
      </trkpt>
      <trkpt lat="46.22702" lon="5.41742">
        <ele>313.6</ele>
        <time>2022-06-06T11:43:33Z</time>
      </trkpt>
      <trkpt lat="46.22671" lon="5.4174">
        <ele>313.4</ele>
        <time>2022-06-06T11:43:37Z</time>
      </trkpt>
      <trkpt lat="46.22613" lon="5.41731">
        <ele>312.6</ele>
        <time>2022-06-06T11:43:45Z</time>
      </trkpt>
      <trkpt lat="46.22605" lon="5.4173">
        <ele>312.4</ele>
        <time>2022-06-06T11:43:46Z</time>
      </trkpt>
      <trkpt lat="46.22581" lon="5.41726">
        <ele>312</ele>
        <time>2022-06-06T11:43:49Z</time>
      </trkpt>
      <trkpt lat="46.22573" lon="5.41723">
        <ele>311.6</ele>
        <time>2022-06-06T11:43:50Z</time>
      </trkpt>
      <trkpt lat="46.22566" lon="5.41718">
        <ele>311.4</ele>
        <time>2022-06-06T11:43:51Z</time>
      </trkpt>
      <trkpt lat="46.22561" lon="5.4171">
        <ele>311.2</ele>
        <time>2022-06-06T11:43:52Z</time>
      </trkpt>
      <trkpt lat="46.22551" lon="5.41692">
        <ele>310</ele>
        <time>2022-06-06T11:43:54Z</time>
      </trkpt>
      <trkpt lat="46.2254" lon="5.41675">
        <ele>309.4</ele>
        <time>2022-06-06T11:43:56Z</time>
      </trkpt>
      <trkpt lat="46.22512" lon="5.41643">
        <ele>309.2</ele>
        <time>2022-06-06T11:44:01Z</time>
      </trkpt>
      <trkpt lat="46.22503" lon="5.41637">
        <ele>309.4</ele>
        <time>2022-06-06T11:44:03Z</time>
      </trkpt>
      <trkpt lat="46.22497" lon="5.41634">
        <ele>309.4</ele>
        <time>2022-06-06T11:44:04Z</time>
      </trkpt>
      <trkpt lat="46.22491" lon="5.41632">
        <ele>309.4</ele>
        <time>2022-06-06T11:44:05Z</time>
      </trkpt>
      <trkpt lat="46.2245" lon="5.41619">
        <ele>309.8</ele>
        <time>2022-06-06T11:44:11Z</time>
      </trkpt>
      <trkpt lat="46.22411" lon="5.41607">
        <ele>309.8</ele>
        <time>2022-06-06T11:44:17Z</time>
      </trkpt>
      <trkpt lat="46.22363" lon="5.41589">
        <ele>309.4</ele>
        <time>2022-06-06T11:44:24Z</time>
      </trkpt>
      <trkpt lat="46.22356" lon="5.41585">
        <ele>309.2</ele>
        <time>2022-06-06T11:44:25Z</time>
      </trkpt>
      <trkpt lat="46.22337" lon="5.41571">
        <ele>309.2</ele>
        <time>2022-06-06T11:44:28Z</time>
      </trkpt>
      <trkpt lat="46.22331" lon="5.41565">
        <ele>309</ele>
        <time>2022-06-06T11:44:29Z</time>
      </trkpt>
      <trkpt lat="46.22319" lon="5.41554">
        <ele>309</ele>
        <time>2022-06-06T11:44:31Z</time>
      </trkpt>
      <trkpt lat="46.22275" lon="5.41517">
        <ele>308.6</ele>
        <time>2022-06-06T11:44:38Z</time>
      </trkpt>
      <trkpt lat="46.22226" lon="5.41479">
        <ele>308.8</ele>
        <time>2022-06-06T11:44:46Z</time>
      </trkpt>
      <trkpt lat="46.22187" lon="5.41447">
        <ele>310.2</ele>
        <time>2022-06-06T11:44:53Z</time>
      </trkpt>
      <trkpt lat="46.22156" lon="5.41422">
        <ele>311</ele>
        <time>2022-06-06T11:44:59Z</time>
      </trkpt>
      <trkpt lat="46.22152" lon="5.41418">
        <ele>311.4</ele>
        <time>2022-06-06T11:45:00Z</time>
      </trkpt>
      <trkpt lat="46.22103" lon="5.41379">
        <ele>312.4</ele>
        <time>2022-06-06T11:45:09Z</time>
      </trkpt>
      <trkpt lat="46.22077" lon="5.41366">
        <ele>313.6</ele>
        <time>2022-06-06T11:45:14Z</time>
      </trkpt>
      <trkpt lat="46.22072" lon="5.41364">
        <ele>313.8</ele>
        <time>2022-06-06T11:45:15Z</time>
      </trkpt>
      <trkpt lat="46.22066" lon="5.41363">
        <ele>314</ele>
        <time>2022-06-06T11:45:16Z</time>
      </trkpt>
      <trkpt lat="46.22036" lon="5.41362">
        <ele>314.6</ele>
        <time>2022-06-06T11:45:21Z</time>
      </trkpt>
      <trkpt lat="46.21991" lon="5.41362">
        <ele>314.2</ele>
        <time>2022-06-06T11:45:27Z</time>
      </trkpt>
      <trkpt lat="46.21952" lon="5.41355">
        <ele>312.4</ele>
        <time>2022-06-06T11:45:32Z</time>
      </trkpt>
      <trkpt lat="46.21934" lon="5.41349">
        <ele>311.6</ele>
        <time>2022-06-06T11:45:34Z</time>
      </trkpt>
      <trkpt lat="46.21926" lon="5.41347">
        <ele>311.2</ele>
        <time>2022-06-06T11:45:35Z</time>
      </trkpt>
      <trkpt lat="46.21871" lon="5.41324">
        <ele>310.2</ele>
        <time>2022-06-06T11:45:42Z</time>
      </trkpt>
      <trkpt lat="46.21834" lon="5.41304">
        <ele>310</ele>
        <time>2022-06-06T11:45:47Z</time>
      </trkpt>
      <trkpt lat="46.21806" lon="5.41289">
        <ele>310.4</ele>
        <time>2022-06-06T11:45:51Z</time>
      </trkpt>
      <trkpt lat="46.21752" lon="5.41258">
        <ele>311.2</ele>
        <time>2022-06-06T11:45:59Z</time>
      </trkpt>
      <trkpt lat="46.21747" lon="5.41255">
        <ele>311.2</ele>
        <time>2022-06-06T11:46:00Z</time>
      </trkpt>
      <trkpt lat="46.21741" lon="5.41252">
        <ele>311.4</ele>
        <time>2022-06-06T11:46:01Z</time>
      </trkpt>
      <trkpt lat="46.21705" lon="5.41234">
        <ele>312.4</ele>
        <time>2022-06-06T11:46:07Z</time>
      </trkpt>
      <trkpt lat="46.21699" lon="5.41231">
        <ele>312.6</ele>
        <time>2022-06-06T11:46:08Z</time>
      </trkpt>
      <trkpt lat="46.21677" lon="5.4122">
        <ele>313.6</ele>
        <time>2022-06-06T11:46:12Z</time>
      </trkpt>
      <trkpt lat="46.21671" lon="5.41217">
        <ele>313.8</ele>
        <time>2022-06-06T11:46:13Z</time>
      </trkpt>
      <trkpt lat="46.2166" lon="5.41212">
        <ele>314.4</ele>
        <time>2022-06-06T11:46:15Z</time>
      </trkpt>
      <trkpt lat="46.21647" lon="5.41206">
        <ele>314.6</ele>
        <time>2022-06-06T11:46:17Z</time>
      </trkpt>
      <trkpt lat="46.21628" lon="5.41195">
        <ele>314.8</ele>
        <time>2022-06-06T11:46:20Z</time>
      </trkpt>
      <trkpt lat="46.21589" lon="5.4117">
        <ele>314.8</ele>
        <time>2022-06-06T11:46:26Z</time>
      </trkpt>
      <trkpt lat="46.2154" lon="5.41137">
        <ele>313.6</ele>
        <time>2022-06-06T11:46:33Z</time>
      </trkpt>
      <trkpt lat="46.21519" lon="5.41121">
        <ele>313.2</ele>
        <time>2022-06-06T11:46:36Z</time>
      </trkpt>
      <trkpt lat="46.21478" lon="5.41086">
        <ele>312.2</ele>
        <time>2022-06-06T11:46:42Z</time>
      </trkpt>
      <trkpt lat="46.21457" lon="5.41068">
        <ele>311.8</ele>
        <time>2022-06-06T11:46:45Z</time>
      </trkpt>
      <trkpt lat="46.21427" lon="5.41046">
        <ele>311.2</ele>
        <time>2022-06-06T11:46:49Z</time>
      </trkpt>
      <trkpt lat="46.21411" lon="5.41039">
        <ele>310.8</ele>
        <time>2022-06-06T11:46:51Z</time>
      </trkpt>
      <trkpt lat="46.21384" lon="5.41031">
        <ele>309.8</ele>
        <time>2022-06-06T11:46:54Z</time>
      </trkpt>
      <trkpt lat="46.21362" lon="5.41026">
        <ele>309</ele>
        <time>2022-06-06T11:46:56Z</time>
      </trkpt>
      <trkpt lat="46.21343" lon="5.41023">
        <ele>308.4</ele>
        <time>2022-06-06T11:46:58Z</time>
      </trkpt>
      <trkpt lat="46.21325" lon="5.4102">
        <ele>307</ele>
        <time>2022-06-06T11:47:00Z</time>
      </trkpt>
      <trkpt lat="46.21297" lon="5.41016">
        <ele>306</ele>
        <time>2022-06-06T11:47:03Z</time>
      </trkpt>
      <trkpt lat="46.21269" lon="5.41012">
        <ele>306.2</ele>
        <time>2022-06-06T11:47:07Z</time>
      </trkpt>
      <trkpt lat="46.21245" lon="5.41007">
        <ele>308.2</ele>
        <time>2022-06-06T11:47:11Z</time>
      </trkpt>
      <trkpt lat="46.21234" lon="5.41005">
        <ele>309.6</ele>
        <time>2022-06-06T11:47:13Z</time>
      </trkpt>
      <trkpt lat="46.21213" lon="5.41">
        <ele>310.6</ele>
        <time>2022-06-06T11:47:17Z</time>
      </trkpt>
      <trkpt lat="46.21207" lon="5.40999">
        <ele>310.8</ele>
        <time>2022-06-06T11:47:18Z</time>
      </trkpt>
      <trkpt lat="46.21202" lon="5.40998">
        <ele>311.4</ele>
        <time>2022-06-06T11:47:19Z</time>
      </trkpt>
      <trkpt lat="46.21191" lon="5.40995">
        <ele>312</ele>
        <time>2022-06-06T11:47:21Z</time>
      </trkpt>
      <trkpt lat="46.21166" lon="5.40991">
        <ele>312.4</ele>
        <time>2022-06-06T11:47:25Z</time>
      </trkpt>
      <trkpt lat="46.21131" lon="5.40984">
        <ele>312.4</ele>
        <time>2022-06-06T11:47:30Z</time>
      </trkpt>
      <trkpt lat="46.21094" lon="5.40972">
        <ele>312.2</ele>
        <time>2022-06-06T11:47:35Z</time>
      </trkpt>
      <trkpt lat="46.21073" lon="5.40963">
        <ele>312</ele>
        <time>2022-06-06T11:47:38Z</time>
      </trkpt>
      <trkpt lat="46.21031" lon="5.40942">
        <ele>311.4</ele>
        <time>2022-06-06T11:47:44Z</time>
      </trkpt>
      <trkpt lat="46.20997" lon="5.4092">
        <ele>310.8</ele>
        <time>2022-06-06T11:47:49Z</time>
      </trkpt>
      <trkpt lat="46.20984" lon="5.40911">
        <ele>310.6</ele>
        <time>2022-06-06T11:47:51Z</time>
      </trkpt>
      <trkpt lat="46.2094" lon="5.40876">
        <ele>310.4</ele>
        <time>2022-06-06T11:47:58Z</time>
      </trkpt>
      <trkpt lat="46.20888" lon="5.4083">
        <ele>310</ele>
        <time>2022-06-06T11:48:06Z</time>
      </trkpt>
      <trkpt lat="46.20881" lon="5.40824">
        <ele>310</ele>
        <time>2022-06-06T11:48:07Z</time>
      </trkpt>
      <trkpt lat="46.20854" lon="5.40799">
        <ele>309.4</ele>
        <time>2022-06-06T11:48:11Z</time>
      </trkpt>
      <trkpt lat="46.20828" lon="5.40775">
        <ele>309</ele>
        <time>2022-06-06T11:48:15Z</time>
      </trkpt>
      <trkpt lat="46.20799" lon="5.40739">
        <ele>308.4</ele>
        <time>2022-06-06T11:48:20Z</time>
      </trkpt>
      <trkpt lat="46.20795" lon="5.40732">
        <ele>308.4</ele>
        <time>2022-06-06T11:48:21Z</time>
      </trkpt>
      <trkpt lat="46.20773" lon="5.40686">
        <ele>308.2</ele>
        <time>2022-06-06T11:48:26Z</time>
      </trkpt>
      <trkpt lat="46.20768" lon="5.40666">
        <ele>308.2</ele>
        <time>2022-06-06T11:48:28Z</time>
      </trkpt>
      <trkpt lat="46.20763" lon="5.40638">
        <ele>308.2</ele>
        <time>2022-06-06T11:48:31Z</time>
      </trkpt>
      <trkpt lat="46.20752" lon="5.40554">
        <ele>308</ele>
        <time>2022-06-06T11:48:39Z</time>
      </trkpt>
      <trkpt lat="46.20741" lon="5.40483">
        <ele>307.4</ele>
        <time>2022-06-06T11:48:46Z</time>
      </trkpt>
      <trkpt lat="46.20739" lon="5.40473">
        <ele>307.4</ele>
        <time>2022-06-06T11:48:47Z</time>
      </trkpt>
      <trkpt lat="46.20717" lon="5.40396">
        <ele>307.6</ele>
        <time>2022-06-06T11:48:55Z</time>
      </trkpt>
      <trkpt lat="46.20707" lon="5.40344">
        <ele>307.8</ele>
        <time>2022-06-06T11:49:00Z</time>
      </trkpt>
      <trkpt lat="46.20692" lon="5.40268">
        <ele>306.6</ele>
        <time>2022-06-06T11:49:07Z</time>
      </trkpt>
      <trkpt lat="46.20689" lon="5.40258">
        <ele>306.4</ele>
        <time>2022-06-06T11:49:08Z</time>
      </trkpt>
      <trkpt lat="46.20686" lon="5.40248">
        <ele>306.4</ele>
        <time>2022-06-06T11:49:09Z</time>
      </trkpt>
      <trkpt lat="46.20675" lon="5.40223">
        <ele>306.4</ele>
        <time>2022-06-06T11:49:12Z</time>
      </trkpt>
      <trkpt lat="46.20644" lon="5.40172">
        <ele>307.2</ele>
        <time>2022-06-06T11:49:18Z</time>
      </trkpt>
      <trkpt lat="46.20609" lon="5.4013">
        <ele>306.6</ele>
        <time>2022-06-06T11:49:24Z</time>
      </trkpt>
      <trkpt lat="46.20596" lon="5.40118">
        <ele>306.4</ele>
        <time>2022-06-06T11:49:26Z</time>
      </trkpt>
      <trkpt lat="46.20552" lon="5.40084">
        <ele>306</ele>
        <time>2022-06-06T11:49:32Z</time>
      </trkpt>
      <trkpt lat="46.20504" lon="5.4005">
        <ele>305.2</ele>
        <time>2022-06-06T11:49:39Z</time>
      </trkpt>
      <trkpt lat="46.20497" lon="5.40045">
        <ele>305.2</ele>
        <time>2022-06-06T11:49:40Z</time>
      </trkpt>
      <trkpt lat="46.20444" lon="5.40018">
        <ele>304.4</ele>
        <time>2022-06-06T11:49:47Z</time>
      </trkpt>
      <trkpt lat="46.2041" lon="5.40004">
        <ele>304</ele>
        <time>2022-06-06T11:49:51Z</time>
      </trkpt>
      <trkpt lat="46.20395" lon="5.39998">
        <ele>303.6</ele>
        <time>2022-06-06T11:49:53Z</time>
      </trkpt>
      <trkpt lat="46.20367" lon="5.39987">
        <ele>303.2</ele>
        <time>2022-06-06T11:49:56Z</time>
      </trkpt>
      <trkpt lat="46.20341" lon="5.39976">
        <ele>303</ele>
        <time>2022-06-06T11:49:59Z</time>
      </trkpt>
      <trkpt lat="46.20306" lon="5.39962">
        <ele>302.2</ele>
        <time>2022-06-06T11:50:03Z</time>
      </trkpt>
      <trkpt lat="46.20288" lon="5.39956">
        <ele>302</ele>
        <time>2022-06-06T11:50:05Z</time>
      </trkpt>
      <trkpt lat="46.20236" lon="5.39935">
        <ele>300.8</ele>
        <time>2022-06-06T11:50:11Z</time>
      </trkpt>
      <trkpt lat="46.20227" lon="5.39932">
        <ele>300.6</ele>
        <time>2022-06-06T11:50:12Z</time>
      </trkpt>
      <trkpt lat="46.20186" lon="5.39916">
        <ele>299.8</ele>
        <time>2022-06-06T11:50:17Z</time>
      </trkpt>
      <trkpt lat="46.20162" lon="5.39907">
        <ele>299.6</ele>
        <time>2022-06-06T11:50:20Z</time>
      </trkpt>
      <trkpt lat="46.20108" lon="5.39885">
        <ele>299.8</ele>
        <time>2022-06-06T11:50:27Z</time>
      </trkpt>
      <trkpt lat="46.20102" lon="5.39883">
        <ele>300</ele>
        <time>2022-06-06T11:50:28Z</time>
      </trkpt>
      <trkpt lat="46.20051" lon="5.39861">
        <ele>301</ele>
        <time>2022-06-06T11:50:35Z</time>
      </trkpt>
      <trkpt lat="46.20002" lon="5.39843">
        <ele>301.2</ele>
        <time>2022-06-06T11:50:41Z</time>
      </trkpt>
      <trkpt lat="46.19978" lon="5.39833">
        <ele>301</ele>
        <time>2022-06-06T11:50:44Z</time>
      </trkpt>
      <trkpt lat="46.19921" lon="5.39811">
        <ele>300.6</ele>
        <time>2022-06-06T11:50:51Z</time>
      </trkpt>
      <trkpt lat="46.19912" lon="5.39808">
        <ele>300.4</ele>
        <time>2022-06-06T11:50:52Z</time>
      </trkpt>
      <trkpt lat="46.19856" lon="5.39791">
        <ele>300.2</ele>
        <time>2022-06-06T11:50:59Z</time>
      </trkpt>
      <trkpt lat="46.1984" lon="5.39789">
        <ele>300.2</ele>
        <time>2022-06-06T11:51:01Z</time>
      </trkpt>
      <trkpt lat="46.19784" lon="5.39786">
        <ele>300.4</ele>
        <time>2022-06-06T11:51:08Z</time>
      </trkpt>
      <trkpt lat="46.19776" lon="5.39786">
        <ele>300.4</ele>
        <time>2022-06-06T11:51:09Z</time>
      </trkpt>
      <trkpt lat="46.19721" lon="5.39788">
        <ele>300.4</ele>
        <time>2022-06-06T11:51:16Z</time>
      </trkpt>
      <trkpt lat="46.19712" lon="5.39789">
        <ele>300.4</ele>
        <time>2022-06-06T11:51:17Z</time>
      </trkpt>
      <trkpt lat="46.1969" lon="5.39793">
        <ele>300.2</ele>
        <time>2022-06-06T11:51:20Z</time>
      </trkpt>
      <trkpt lat="46.19637" lon="5.39803">
        <ele>300.4</ele>
        <time>2022-06-06T11:51:27Z</time>
      </trkpt>
      <trkpt lat="46.19619" lon="5.39806">
        <ele>300.6</ele>
        <time>2022-06-06T11:51:30Z</time>
      </trkpt>
      <trkpt lat="46.19608" lon="5.39807">
        <ele>301.2</ele>
        <time>2022-06-06T11:51:32Z</time>
      </trkpt>
      <trkpt lat="46.19602" lon="5.39808">
        <ele>301.4</ele>
        <time>2022-06-06T11:51:33Z</time>
      </trkpt>
      <trkpt lat="46.19579" lon="5.39814">
        <ele>302.4</ele>
        <time>2022-06-06T11:51:37Z</time>
      </trkpt>
      <trkpt lat="46.19574" lon="5.39816">
        <ele>303</ele>
        <time>2022-06-06T11:51:38Z</time>
      </trkpt>
      <trkpt lat="46.19556" lon="5.39824">
        <ele>303.6</ele>
        <time>2022-06-06T11:51:41Z</time>
      </trkpt>
      <trkpt lat="46.1953" lon="5.39839">
        <ele>304</ele>
        <time>2022-06-06T11:51:45Z</time>
      </trkpt>
      <trkpt lat="46.19489" lon="5.39862">
        <ele>304.2</ele>
        <time>2022-06-06T11:51:52Z</time>
      </trkpt>
      <trkpt lat="46.19485" lon="5.39863">
        <ele>304.2</ele>
        <time>2022-06-06T11:51:53Z</time>
      </trkpt>
      <trkpt lat="46.19474" lon="5.39866">
        <ele>304.2</ele>
        <time>2022-06-06T11:51:55Z</time>
      </trkpt>
      <trkpt lat="46.19468" lon="5.39867">
        <ele>304.2</ele>
        <time>2022-06-06T11:51:56Z</time>
      </trkpt>
      <trkpt lat="46.1946" lon="5.39869">
        <ele>304</ele>
        <time>2022-06-06T11:51:57Z</time>
      </trkpt>
      <trkpt lat="46.19441" lon="5.39874">
        <ele>304</ele>
        <time>2022-06-06T11:52:00Z</time>
      </trkpt>
      <trkpt lat="46.1942" lon="5.39876">
        <ele>304</ele>
        <time>2022-06-06T11:52:03Z</time>
      </trkpt>
      <trkpt lat="46.19408" lon="5.39873">
        <ele>304</ele>
        <time>2022-06-06T11:52:05Z</time>
      </trkpt>
      <trkpt lat="46.19375" lon="5.39855">
        <ele>304.2</ele>
        <time>2022-06-06T11:52:10Z</time>
      </trkpt>
      <trkpt lat="46.19369" lon="5.39851">
        <ele>304</ele>
        <time>2022-06-06T11:52:11Z</time>
      </trkpt>
      <trkpt lat="46.19318" lon="5.39817">
        <ele>303.4</ele>
        <time>2022-06-06T11:52:19Z</time>
      </trkpt>
      <trkpt lat="46.19306" lon="5.39808">
        <ele>303.4</ele>
        <time>2022-06-06T11:52:21Z</time>
      </trkpt>
      <trkpt lat="46.1927" lon="5.39775">
        <ele>303.4</ele>
        <time>2022-06-06T11:52:27Z</time>
      </trkpt>
      <trkpt lat="46.19264" lon="5.3977">
        <ele>303.4</ele>
        <time>2022-06-06T11:52:28Z</time>
      </trkpt>
      <trkpt lat="46.19252" lon="5.39761">
        <ele>303.4</ele>
        <time>2022-06-06T11:52:30Z</time>
      </trkpt>
      <trkpt lat="46.19233" lon="5.39754">
        <ele>303.4</ele>
        <time>2022-06-06T11:52:33Z</time>
      </trkpt>
      <trkpt lat="46.19192" lon="5.39745">
        <ele>303.6</ele>
        <time>2022-06-06T11:52:39Z</time>
      </trkpt>
      <trkpt lat="46.19141" lon="5.39736">
        <ele>303.4</ele>
        <time>2022-06-06T11:52:46Z</time>
      </trkpt>
      <trkpt lat="46.19087" lon="5.39728">
        <ele>303.4</ele>
        <time>2022-06-06T11:52:53Z</time>
      </trkpt>
      <trkpt lat="46.19027" lon="5.39722">
        <ele>303.6</ele>
        <time>2022-06-06T11:53:01Z</time>
      </trkpt>
      <trkpt lat="46.1902" lon="5.39722">
        <ele>303.6</ele>
        <time>2022-06-06T11:53:02Z</time>
      </trkpt>
      <trkpt lat="46.18961" lon="5.39717">
        <ele>303.2</ele>
        <time>2022-06-06T11:53:10Z</time>
      </trkpt>
      <trkpt lat="46.18903" lon="5.39714">
        <ele>303.2</ele>
        <time>2022-06-06T11:53:18Z</time>
      </trkpt>
      <trkpt lat="46.18896" lon="5.39714">
        <ele>303.2</ele>
        <time>2022-06-06T11:53:19Z</time>
      </trkpt>
      <trkpt lat="46.18835" lon="5.39713">
        <ele>303.4</ele>
        <time>2022-06-06T11:53:27Z</time>
      </trkpt>
      <trkpt lat="46.18813" lon="5.39713">
        <ele>303.4</ele>
        <time>2022-06-06T11:53:30Z</time>
      </trkpt>
      <trkpt lat="46.18805" lon="5.39712">
        <ele>303.2</ele>
        <time>2022-06-06T11:53:31Z</time>
      </trkpt>
      <trkpt lat="46.1879" lon="5.39712">
        <ele>303.4</ele>
        <time>2022-06-06T11:53:33Z</time>
      </trkpt>
      <trkpt lat="46.18749" lon="5.39712">
        <ele>303.2</ele>
        <time>2022-06-06T11:53:38Z</time>
      </trkpt>
      <trkpt lat="46.18735" lon="5.39709">
        <ele>303</ele>
        <time>2022-06-06T11:53:40Z</time>
      </trkpt>
      <trkpt lat="46.18718" lon="5.39703">
        <ele>302.8</ele>
        <time>2022-06-06T11:53:42Z</time>
      </trkpt>
      <trkpt lat="46.18689" lon="5.39688">
        <ele>302.6</ele>
        <time>2022-06-06T11:53:46Z</time>
      </trkpt>
      <trkpt lat="46.18632" lon="5.39661">
        <ele>302.4</ele>
        <time>2022-06-06T11:53:54Z</time>
      </trkpt>
      <trkpt lat="46.18588" lon="5.39645">
        <ele>302.4</ele>
        <time>2022-06-06T11:54:00Z</time>
      </trkpt>
      <trkpt lat="46.18533" lon="5.39634">
        <ele>302.6</ele>
        <time>2022-06-06T11:54:07Z</time>
      </trkpt>
      <trkpt lat="46.18477" lon="5.39637">
        <ele>302</ele>
        <time>2022-06-06T11:54:14Z</time>
      </trkpt>
      <trkpt lat="46.18469" lon="5.39638">
        <ele>301.8</ele>
        <time>2022-06-06T11:54:15Z</time>
      </trkpt>
      <trkpt lat="46.18414" lon="5.39648">
        <ele>301.2</ele>
        <time>2022-06-06T11:54:22Z</time>
      </trkpt>
      <trkpt lat="46.18366" lon="5.39657">
        <ele>300.8</ele>
        <time>2022-06-06T11:54:28Z</time>
      </trkpt>
      <trkpt lat="46.18359" lon="5.39658">
        <ele>300.8</ele>
        <time>2022-06-06T11:54:29Z</time>
      </trkpt>
      <trkpt lat="46.18299" lon="5.39653">
        <ele>301</ele>
        <time>2022-06-06T11:54:37Z</time>
      </trkpt>
      <trkpt lat="46.1824" lon="5.39641">
        <ele>301</ele>
        <time>2022-06-06T11:54:45Z</time>
      </trkpt>
      <trkpt lat="46.18232" lon="5.3964">
        <ele>301</ele>
        <time>2022-06-06T11:54:46Z</time>
      </trkpt>
      <trkpt lat="46.18173" lon="5.3963">
        <ele>301.4</ele>
        <time>2022-06-06T11:54:54Z</time>
      </trkpt>
      <trkpt lat="46.18113" lon="5.3962">
        <ele>301.8</ele>
        <time>2022-06-06T11:55:02Z</time>
      </trkpt>
      <trkpt lat="46.18101" lon="5.39617">
        <ele>301.4</ele>
        <time>2022-06-06T11:55:04Z</time>
      </trkpt>
      <trkpt lat="46.18043" lon="5.39609">
        <ele>301.2</ele>
        <time>2022-06-06T11:55:12Z</time>
      </trkpt>
      <trkpt lat="46.17986" lon="5.39607">
        <ele>301.6</ele>
        <time>2022-06-06T11:55:20Z</time>
      </trkpt>
      <trkpt lat="46.17964" lon="5.39606">
        <ele>301.4</ele>
        <time>2022-06-06T11:55:23Z</time>
      </trkpt>
      <trkpt lat="46.17905" lon="5.39608">
        <ele>301.4</ele>
        <time>2022-06-06T11:55:31Z</time>
      </trkpt>
      <trkpt lat="46.17892" lon="5.3961">
        <ele>301.4</ele>
        <time>2022-06-06T11:55:33Z</time>
      </trkpt>
      <trkpt lat="46.17831" lon="5.39617">
        <ele>301.4</ele>
        <time>2022-06-06T11:55:41Z</time>
      </trkpt>
      <trkpt lat="46.17825" lon="5.39618">
        <ele>301.4</ele>
        <time>2022-06-06T11:55:42Z</time>
      </trkpt>
      <trkpt lat="46.17788" lon="5.39616">
        <ele>301.2</ele>
        <time>2022-06-06T11:55:47Z</time>
      </trkpt>
      <trkpt lat="46.17766" lon="5.39613">
        <ele>301.2</ele>
        <time>2022-06-06T11:55:50Z</time>
      </trkpt>
      <trkpt lat="46.17707" lon="5.39606">
        <ele>301.2</ele>
        <time>2022-06-06T11:55:58Z</time>
      </trkpt>
      <trkpt lat="46.17651" lon="5.39598">
        <ele>301.6</ele>
        <time>2022-06-06T11:56:06Z</time>
      </trkpt>
      <trkpt lat="46.17644" lon="5.39597">
        <ele>301.6</ele>
        <time>2022-06-06T11:56:07Z</time>
      </trkpt>
      <trkpt lat="46.17587" lon="5.39594">
        <ele>301.6</ele>
        <time>2022-06-06T11:56:15Z</time>
      </trkpt>
      <trkpt lat="46.17572" lon="5.39594">
        <ele>301.4</ele>
        <time>2022-06-06T11:56:17Z</time>
      </trkpt>
      <trkpt lat="46.17515" lon="5.39594">
        <ele>301</ele>
        <time>2022-06-06T11:56:25Z</time>
      </trkpt>
      <trkpt lat="46.17508" lon="5.39594">
        <ele>301</ele>
        <time>2022-06-06T11:56:26Z</time>
      </trkpt>
      <trkpt lat="46.17452" lon="5.39592">
        <ele>301</ele>
        <time>2022-06-06T11:56:34Z</time>
      </trkpt>
      <trkpt lat="46.17432" lon="5.39591">
        <ele>301.2</ele>
        <time>2022-06-06T11:56:37Z</time>
      </trkpt>
      <trkpt lat="46.17372" lon="5.39587">
        <ele>301.8</ele>
        <time>2022-06-06T11:56:46Z</time>
      </trkpt>
      <trkpt lat="46.17314" lon="5.39583">
        <ele>302</ele>
        <time>2022-06-06T11:56:54Z</time>
      </trkpt>
      <trkpt lat="46.17307" lon="5.39582">
        <ele>302.2</ele>
        <time>2022-06-06T11:56:55Z</time>
      </trkpt>
      <trkpt lat="46.17264" lon="5.39579">
        <ele>302.4</ele>
        <time>2022-06-06T11:57:01Z</time>
      </trkpt>
      <trkpt lat="46.17257" lon="5.39578">
        <ele>302.6</ele>
        <time>2022-06-06T11:57:02Z</time>
      </trkpt>
      <trkpt lat="46.17208" lon="5.39573">
        <ele>302.8</ele>
        <time>2022-06-06T11:57:09Z</time>
      </trkpt>
      <trkpt lat="46.17151" lon="5.39569">
        <ele>303.2</ele>
        <time>2022-06-06T11:57:17Z</time>
      </trkpt>
      <trkpt lat="46.17096" lon="5.39564">
        <ele>303</ele>
        <time>2022-06-06T11:57:25Z</time>
      </trkpt>
      <trkpt lat="46.17083" lon="5.39563">
        <ele>303</ele>
        <time>2022-06-06T11:57:27Z</time>
      </trkpt>
      <trkpt lat="46.1707" lon="5.39562">
        <ele>303</ele>
        <time>2022-06-06T11:57:29Z</time>
      </trkpt>
      <trkpt lat="46.17027" lon="5.39558">
        <ele>303.2</ele>
        <time>2022-06-06T11:57:36Z</time>
      </trkpt>
      <trkpt lat="46.17008" lon="5.39555">
        <ele>303.6</ele>
        <time>2022-06-06T11:57:39Z</time>
      </trkpt>
      <trkpt lat="46.16994" lon="5.39554">
        <ele>303.8</ele>
        <time>2022-06-06T11:57:41Z</time>
      </trkpt>
      <trkpt lat="46.16989" lon="5.39554">
        <ele>303.8</ele>
        <time>2022-06-06T11:57:42Z</time>
      </trkpt>
      <trkpt lat="46.16947" lon="5.39549">
        <ele>304.6</ele>
        <time>2022-06-06T11:57:48Z</time>
      </trkpt>
      <trkpt lat="46.16934" lon="5.39547">
        <ele>304.8</ele>
        <time>2022-06-06T11:57:50Z</time>
      </trkpt>
      <trkpt lat="46.16895" lon="5.39541">
        <ele>305.4</ele>
        <time>2022-06-06T11:57:56Z</time>
      </trkpt>
      <trkpt lat="46.16873" lon="5.39538">
        <ele>306</ele>
        <time>2022-06-06T11:57:59Z</time>
      </trkpt>
      <trkpt lat="46.16815" lon="5.3953">
        <ele>306</ele>
        <time>2022-06-06T11:58:08Z</time>
      </trkpt>
      <trkpt lat="46.16756" lon="5.39521">
        <ele>306.2</ele>
        <time>2022-06-06T11:58:17Z</time>
      </trkpt>
      <trkpt lat="46.1675" lon="5.3952">
        <ele>306.2</ele>
        <time>2022-06-06T11:58:18Z</time>
      </trkpt>
      <trkpt lat="46.16712" lon="5.39514">
        <ele>306.4</ele>
        <time>2022-06-06T11:58:24Z</time>
      </trkpt>
      <trkpt lat="46.16657" lon="5.39508">
        <ele>306.4</ele>
        <time>2022-06-06T11:58:32Z</time>
      </trkpt>
      <trkpt lat="46.16636" lon="5.39509">
        <ele>306.8</ele>
        <time>2022-06-06T11:58:35Z</time>
      </trkpt>
      <trkpt lat="46.16616" lon="5.39511">
        <ele>307</ele>
        <time>2022-06-06T11:58:38Z</time>
      </trkpt>
      <trkpt lat="46.16595" lon="5.3951">
        <ele>307.6</ele>
        <time>2022-06-06T11:58:41Z</time>
      </trkpt>
      <trkpt lat="46.16544" lon="5.39504">
        <ele>307.4</ele>
        <time>2022-06-06T11:58:48Z</time>
      </trkpt>
      <trkpt lat="46.16485" lon="5.39482">
        <ele>307.4</ele>
        <time>2022-06-06T11:58:56Z</time>
      </trkpt>
      <trkpt lat="46.16478" lon="5.39479">
        <ele>307.4</ele>
        <time>2022-06-06T11:58:57Z</time>
      </trkpt>
      <trkpt lat="46.16421" lon="5.39449">
        <ele>306.6</ele>
        <time>2022-06-06T11:59:05Z</time>
      </trkpt>
      <trkpt lat="46.16407" lon="5.39442">
        <ele>306.6</ele>
        <time>2022-06-06T11:59:07Z</time>
      </trkpt>
      <trkpt lat="46.16365" lon="5.39421">
        <ele>306.6</ele>
        <time>2022-06-06T11:59:13Z</time>
      </trkpt>
      <trkpt lat="46.16331" lon="5.39407">
        <ele>306.6</ele>
        <time>2022-06-06T11:59:18Z</time>
      </trkpt>
      <trkpt lat="46.16275" lon="5.39392">
        <ele>306.4</ele>
        <time>2022-06-06T11:59:26Z</time>
      </trkpt>
      <trkpt lat="46.16227" lon="5.39388">
        <ele>306.2</ele>
        <time>2022-06-06T11:59:32Z</time>
      </trkpt>
      <trkpt lat="46.1622" lon="5.39388">
        <ele>306.2</ele>
        <time>2022-06-06T11:59:33Z</time>
      </trkpt>
      <trkpt lat="46.1617" lon="5.39388">
        <ele>305.8</ele>
        <time>2022-06-06T11:59:40Z</time>
      </trkpt>
      <trkpt lat="46.16139" lon="5.39388">
        <ele>305.2</ele>
        <time>2022-06-06T11:59:44Z</time>
      </trkpt>
      <trkpt lat="46.16118" lon="5.39386">
        <ele>304.4</ele>
        <time>2022-06-06T11:59:47Z</time>
      </trkpt>
      <trkpt lat="46.16102" lon="5.39385">
        <ele>303.8</ele>
        <time>2022-06-06T11:59:49Z</time>
      </trkpt>
      <trkpt lat="46.16094" lon="5.39385">
        <ele>303.6</ele>
        <time>2022-06-06T11:59:50Z</time>
      </trkpt>
      <trkpt lat="46.16081" lon="5.39388">
        <ele>303.2</ele>
        <time>2022-06-06T11:59:52Z</time>
      </trkpt>
      <trkpt lat="46.16076" lon="5.39389">
        <ele>303</ele>
        <time>2022-06-06T11:59:53Z</time>
      </trkpt>
      <trkpt lat="46.16066" lon="5.3939">
        <ele>302.6</ele>
        <time>2022-06-06T11:59:55Z</time>
      </trkpt>
      <trkpt lat="46.16061" lon="5.39392">
        <ele>302.6</ele>
        <time>2022-06-06T11:59:56Z</time>
      </trkpt>
      <trkpt lat="46.16056" lon="5.39397">
        <ele>302.4</ele>
        <time>2022-06-06T11:59:57Z</time>
      </trkpt>
      <trkpt lat="46.1604" lon="5.39414">
        <ele>302</ele>
        <time>2022-06-06T12:00:00Z</time>
      </trkpt>
      <trkpt lat="46.16033" lon="5.39418">
        <ele>301.6</ele>
        <time>2022-06-06T12:00:01Z</time>
      </trkpt>
      <trkpt lat="46.16026" lon="5.39421">
        <ele>301.6</ele>
        <time>2022-06-06T12:00:02Z</time>
      </trkpt>
      <trkpt lat="46.16018" lon="5.39422">
        <ele>301.4</ele>
        <time>2022-06-06T12:00:03Z</time>
      </trkpt>
      <trkpt lat="46.15977" lon="5.39432">
        <ele>300.2</ele>
        <time>2022-06-06T12:00:08Z</time>
      </trkpt>
      <trkpt lat="46.15962" lon="5.39436">
        <ele>300</ele>
        <time>2022-06-06T12:00:10Z</time>
      </trkpt>
      <trkpt lat="46.15906" lon="5.39449">
        <ele>300</ele>
        <time>2022-06-06T12:00:17Z</time>
      </trkpt>
      <trkpt lat="46.15892" lon="5.39452">
        <ele>300</ele>
        <time>2022-06-06T12:00:19Z</time>
      </trkpt>
      <trkpt lat="46.15836" lon="5.39464">
        <ele>300.4</ele>
        <time>2022-06-06T12:00:27Z</time>
      </trkpt>
      <trkpt lat="46.15821" lon="5.39466">
        <ele>300.8</ele>
        <time>2022-06-06T12:00:29Z</time>
      </trkpt>
      <trkpt lat="46.1578" lon="5.39462">
        <ele>301.4</ele>
        <time>2022-06-06T12:00:35Z</time>
      </trkpt>
      <trkpt lat="46.15773" lon="5.39461">
        <ele>301.6</ele>
        <time>2022-06-06T12:00:36Z</time>
      </trkpt>
      <trkpt lat="46.15717" lon="5.39444">
        <ele>302</ele>
        <time>2022-06-06T12:00:44Z</time>
      </trkpt>
      <trkpt lat="46.15666" lon="5.39427">
        <ele>302</ele>
        <time>2022-06-06T12:00:51Z</time>
      </trkpt>
      <trkpt lat="46.15628" lon="5.39415">
        <ele>301.6</ele>
        <time>2022-06-06T12:00:56Z</time>
      </trkpt>
      <trkpt lat="46.15599" lon="5.39406">
        <ele>301.2</ele>
        <time>2022-06-06T12:01:00Z</time>
      </trkpt>
      <trkpt lat="46.15543" lon="5.39387">
        <ele>301.2</ele>
        <time>2022-06-06T12:01:07Z</time>
      </trkpt>
      <trkpt lat="46.15535" lon="5.39384">
        <ele>301.2</ele>
        <time>2022-06-06T12:01:08Z</time>
      </trkpt>
      <trkpt lat="46.15478" lon="5.39365">
        <ele>301.8</ele>
        <time>2022-06-06T12:01:16Z</time>
      </trkpt>
      <trkpt lat="46.15439" lon="5.3935">
        <ele>302.6</ele>
        <time>2022-06-06T12:01:22Z</time>
      </trkpt>
      <trkpt lat="46.15426" lon="5.39345">
        <ele>302.8</ele>
        <time>2022-06-06T12:01:24Z</time>
      </trkpt>
      <trkpt lat="46.15387" lon="5.39334">
        <ele>303.6</ele>
        <time>2022-06-06T12:01:30Z</time>
      </trkpt>
      <trkpt lat="46.15381" lon="5.39333">
        <ele>304</ele>
        <time>2022-06-06T12:01:31Z</time>
      </trkpt>
      <trkpt lat="46.15348" lon="5.39325">
        <ele>305</ele>
        <time>2022-06-06T12:01:36Z</time>
      </trkpt>
      <trkpt lat="46.15322" lon="5.39324">
        <ele>305.2</ele>
        <time>2022-06-06T12:01:40Z</time>
      </trkpt>
      <trkpt lat="46.15273" lon="5.39335">
        <ele>305.8</ele>
        <time>2022-06-06T12:01:47Z</time>
      </trkpt>
      <trkpt lat="46.15211" lon="5.39351">
        <ele>304.6</ele>
        <time>2022-06-06T12:01:54Z</time>
      </trkpt>
      <trkpt lat="46.15194" lon="5.39355">
        <ele>304</ele>
        <time>2022-06-06T12:01:56Z</time>
      </trkpt>
      <trkpt lat="46.15176" lon="5.39359">
        <ele>302.4</ele>
        <time>2022-06-06T12:01:58Z</time>
      </trkpt>
      <trkpt lat="46.1515" lon="5.39366">
        <ele>301.2</ele>
        <time>2022-06-06T12:02:01Z</time>
      </trkpt>
      <trkpt lat="46.15092" lon="5.39381">
        <ele>300.6</ele>
        <time>2022-06-06T12:02:08Z</time>
      </trkpt>
      <trkpt lat="46.15068" lon="5.39387">
        <ele>300.6</ele>
        <time>2022-06-06T12:02:11Z</time>
      </trkpt>
      <trkpt lat="46.15026" lon="5.39397">
        <ele>300.8</ele>
        <time>2022-06-06T12:02:16Z</time>
      </trkpt>
      <trkpt lat="46.14975" lon="5.39407">
        <ele>300.2</ele>
        <time>2022-06-06T12:02:22Z</time>
      </trkpt>
      <trkpt lat="46.1495" lon="5.39411">
        <ele>299.8</ele>
        <time>2022-06-06T12:02:25Z</time>
      </trkpt>
      <trkpt lat="46.14893" lon="5.39421">
        <ele>299.2</ele>
        <time>2022-06-06T12:02:32Z</time>
      </trkpt>
      <trkpt lat="46.14833" lon="5.39435">
        <ele>299.8</ele>
        <time>2022-06-06T12:02:40Z</time>
      </trkpt>
      <trkpt lat="46.14777" lon="5.39456">
        <ele>300.8</ele>
        <time>2022-06-06T12:02:48Z</time>
      </trkpt>
      <trkpt lat="46.14722" lon="5.39481">
        <ele>301.2</ele>
        <time>2022-06-06T12:02:56Z</time>
      </trkpt>
      <trkpt lat="46.14715" lon="5.39484">
        <ele>301.4</ele>
        <time>2022-06-06T12:02:57Z</time>
      </trkpt>
      <trkpt lat="46.14677" lon="5.39488">
        <ele>301.8</ele>
        <time>2022-06-06T12:03:02Z</time>
      </trkpt>
      <trkpt lat="46.14647" lon="5.39477">
        <ele>301.8</ele>
        <time>2022-06-06T12:03:06Z</time>
      </trkpt>
      <trkpt lat="46.14602" lon="5.39452">
        <ele>301.2</ele>
        <time>2022-06-06T12:03:12Z</time>
      </trkpt>
      <trkpt lat="46.14551" lon="5.39442">
        <ele>300.8</ele>
        <time>2022-06-06T12:03:18Z</time>
      </trkpt>
      <trkpt lat="46.14494" lon="5.39432">
        <ele>300.8</ele>
        <time>2022-06-06T12:03:25Z</time>
      </trkpt>
      <trkpt lat="46.14435" lon="5.39418">
        <ele>301</ele>
        <time>2022-06-06T12:03:32Z</time>
      </trkpt>
      <trkpt lat="46.1438" lon="5.39404">
        <ele>301</ele>
        <time>2022-06-06T12:03:39Z</time>
      </trkpt>
      <trkpt lat="46.14355" lon="5.39397">
        <ele>300.8</ele>
        <time>2022-06-06T12:03:42Z</time>
      </trkpt>
      <trkpt lat="46.14329" lon="5.39388">
        <ele>300.4</ele>
        <time>2022-06-06T12:03:45Z</time>
      </trkpt>
      <trkpt lat="46.14285" lon="5.39373">
        <ele>299.2</ele>
        <time>2022-06-06T12:03:50Z</time>
      </trkpt>
      <trkpt lat="46.14274" lon="5.39369">
        <ele>299</ele>
        <time>2022-06-06T12:03:51Z</time>
      </trkpt>
      <trkpt lat="46.14215" lon="5.39342">
        <ele>298.4</ele>
        <time>2022-06-06T12:03:58Z</time>
      </trkpt>
      <trkpt lat="46.14207" lon="5.39338">
        <ele>298.2</ele>
        <time>2022-06-06T12:03:59Z</time>
      </trkpt>
      <trkpt lat="46.14155" lon="5.39302">
        <ele>298.2</ele>
        <time>2022-06-06T12:04:06Z</time>
      </trkpt>
      <trkpt lat="46.14112" lon="5.39269">
        <ele>298.6</ele>
        <time>2022-06-06T12:04:12Z</time>
      </trkpt>
      <trkpt lat="46.14085" lon="5.39246">
        <ele>298.8</ele>
        <time>2022-06-06T12:04:16Z</time>
      </trkpt>
      <trkpt lat="46.14033" lon="5.39199">
        <ele>298.8</ele>
        <time>2022-06-06T12:04:24Z</time>
      </trkpt>
      <trkpt lat="46.13984" lon="5.39146">
        <ele>299</ele>
        <time>2022-06-06T12:04:32Z</time>
      </trkpt>
      <trkpt lat="46.13935" lon="5.39092">
        <ele>298.4</ele>
        <time>2022-06-06T12:04:40Z</time>
      </trkpt>
      <trkpt lat="46.1393" lon="5.39087">
        <ele>298.2</ele>
        <time>2022-06-06T12:04:41Z</time>
      </trkpt>
      <trkpt lat="46.1388" lon="5.39049">
        <ele>297.8</ele>
        <time>2022-06-06T12:04:48Z</time>
      </trkpt>
      <trkpt lat="46.13822" lon="5.39022">
        <ele>297.8</ele>
        <time>2022-06-06T12:04:56Z</time>
      </trkpt>
      <trkpt lat="46.13789" lon="5.39015">
        <ele>298.2</ele>
        <time>2022-06-06T12:05:01Z</time>
      </trkpt>
      <trkpt lat="46.13783" lon="5.39015">
        <ele>298.4</ele>
        <time>2022-06-06T12:05:02Z</time>
      </trkpt>
      <trkpt lat="46.13761" lon="5.39021">
        <ele>299.4</ele>
        <time>2022-06-06T12:05:06Z</time>
      </trkpt>
      <trkpt lat="46.13756" lon="5.39023">
        <ele>299.6</ele>
        <time>2022-06-06T12:05:07Z</time>
      </trkpt>
      <trkpt lat="46.13742" lon="5.39031">
        <ele>300.4</ele>
        <time>2022-06-06T12:05:10Z</time>
      </trkpt>
      <trkpt lat="46.13733" lon="5.39036">
        <ele>300.8</ele>
        <time>2022-06-06T12:05:12Z</time>
      </trkpt>
      <trkpt lat="46.13728" lon="5.39041">
        <ele>301.2</ele>
        <time>2022-06-06T12:05:13Z</time>
      </trkpt>
      <trkpt lat="46.13725" lon="5.39043">
        <ele>301.6</ele>
        <time>2022-06-06T12:05:14Z</time>
      </trkpt>
      <trkpt lat="46.13705" lon="5.39064">
        <ele>302.6</ele>
        <time>2022-06-06T12:05:19Z</time>
      </trkpt>
      <trkpt lat="46.13699" lon="5.39071">
        <ele>303</ele>
        <time>2022-06-06T12:05:20Z</time>
      </trkpt>
      <trkpt lat="46.1369" lon="5.3908">
        <ele>303.4</ele>
        <time>2022-06-06T12:05:22Z</time>
      </trkpt>
      <trkpt lat="46.13681" lon="5.39089">
        <ele>303.6</ele>
        <time>2022-06-06T12:05:24Z</time>
      </trkpt>
      <trkpt lat="46.1367" lon="5.39121">
        <ele>303.8</ele>
        <time>2022-06-06T12:05:28Z</time>
      </trkpt>
      <trkpt lat="46.13665" lon="5.39137">
        <ele>303.8</ele>
        <time>2022-06-06T12:05:30Z</time>
      </trkpt>
      <trkpt lat="46.13663" lon="5.39154">
        <ele>303.8</ele>
        <time>2022-06-06T12:05:32Z</time>
      </trkpt>
      <trkpt lat="46.13662" lon="5.3917">
        <ele>304</ele>
        <time>2022-06-06T12:05:34Z</time>
      </trkpt>
      <trkpt lat="46.13663" lon="5.39193">
        <ele>304.4</ele>
        <time>2022-06-06T12:05:37Z</time>
      </trkpt>
      <trkpt lat="46.13664" lon="5.3923">
        <ele>305.2</ele>
        <time>2022-06-06T12:05:42Z</time>
      </trkpt>
      <trkpt lat="46.13663" lon="5.39237">
        <ele>305.2</ele>
        <time>2022-06-06T12:05:43Z</time>
      </trkpt>
      <trkpt lat="46.13657" lon="5.39259">
        <ele>306</ele>
        <time>2022-06-06T12:05:46Z</time>
      </trkpt>
      <trkpt lat="46.13655" lon="5.39266">
        <ele>306.2</ele>
        <time>2022-06-06T12:05:47Z</time>
      </trkpt>
      <trkpt lat="46.1365" lon="5.39278">
        <ele>306.6</ele>
        <time>2022-06-06T12:05:49Z</time>
      </trkpt>
      <trkpt lat="46.13647" lon="5.39284">
        <ele>306.8</ele>
        <time>2022-06-06T12:05:50Z</time>
      </trkpt>
      <trkpt lat="46.1364" lon="5.39293">
        <ele>307</ele>
        <time>2022-06-06T12:05:52Z</time>
      </trkpt>
      <trkpt lat="46.13631" lon="5.39303">
        <ele>307.6</ele>
        <time>2022-06-06T12:05:54Z</time>
      </trkpt>
      <trkpt lat="46.13623" lon="5.39311">
        <ele>308.2</ele>
        <time>2022-06-06T12:05:56Z</time>
      </trkpt>
      <trkpt lat="46.13604" lon="5.39326">
        <ele>309.2</ele>
        <time>2022-06-06T12:06:01Z</time>
      </trkpt>
      <trkpt lat="46.13588" lon="5.39338">
        <ele>310</ele>
        <time>2022-06-06T12:06:05Z</time>
      </trkpt>
      <trkpt lat="46.13576" lon="5.39348">
        <ele>310.2</ele>
        <time>2022-06-06T12:06:08Z</time>
      </trkpt>
      <trkpt lat="46.13554" lon="5.39363">
        <ele>310.6</ele>
        <time>2022-06-06T12:06:13Z</time>
      </trkpt>
      <trkpt lat="46.13541" lon="5.39369">
        <ele>311.4</ele>
        <time>2022-06-06T12:06:16Z</time>
      </trkpt>
      <trkpt lat="46.13519" lon="5.39375">
        <ele>312.2</ele>
        <time>2022-06-06T12:06:21Z</time>
      </trkpt>
      <trkpt lat="46.13509" lon="5.39376">
        <ele>312.6</ele>
        <time>2022-06-06T12:06:23Z</time>
      </trkpt>
      <trkpt lat="46.13489" lon="5.39377">
        <ele>313.4</ele>
        <time>2022-06-06T12:06:27Z</time>
      </trkpt>
      <trkpt lat="46.1348" lon="5.39378">
        <ele>313.6</ele>
        <time>2022-06-06T12:06:29Z</time>
      </trkpt>
      <trkpt lat="46.13444" lon="5.3938">
        <ele>314.6</ele>
        <time>2022-06-06T12:06:36Z</time>
      </trkpt>
      <trkpt lat="46.13434" lon="5.39382">
        <ele>314.8</ele>
        <time>2022-06-06T12:06:38Z</time>
      </trkpt>
      <trkpt lat="46.13424" lon="5.39385">
        <ele>315</ele>
        <time>2022-06-06T12:06:40Z</time>
      </trkpt>
      <trkpt lat="46.13414" lon="5.3939">
        <ele>315</ele>
        <time>2022-06-06T12:06:42Z</time>
      </trkpt>
      <trkpt lat="46.13395" lon="5.39404">
        <ele>315.4</ele>
        <time>2022-06-06T12:06:47Z</time>
      </trkpt>
      <trkpt lat="46.13391" lon="5.39408">
        <ele>315.6</ele>
        <time>2022-06-06T12:06:48Z</time>
      </trkpt>
      <trkpt lat="46.13389" lon="5.39411">
        <ele>315.8</ele>
        <time>2022-06-06T12:06:49Z</time>
      </trkpt>
      <trkpt lat="46.13379" lon="5.39422">
        <ele>316.8</ele>
        <time>2022-06-06T12:06:52Z</time>
      </trkpt>
      <trkpt lat="46.13371" lon="5.39433">
        <ele>317.4</ele>
        <time>2022-06-06T12:06:55Z</time>
      </trkpt>
      <trkpt lat="46.13366" lon="5.39442">
        <ele>318.2</ele>
        <time>2022-06-06T12:06:57Z</time>
      </trkpt>
      <trkpt lat="46.13359" lon="5.39455">
        <ele>319.2</ele>
        <time>2022-06-06T12:07:00Z</time>
      </trkpt>
      <trkpt lat="46.13356" lon="5.39463">
        <ele>320</ele>
        <time>2022-06-06T12:07:02Z</time>
      </trkpt>
      <trkpt lat="46.13354" lon="5.39467">
        <ele>320.2</ele>
        <time>2022-06-06T12:07:03Z</time>
      </trkpt>
      <trkpt lat="46.13345" lon="5.3949">
        <ele>321.6</ele>
        <time>2022-06-06T12:07:08Z</time>
      </trkpt>
      <trkpt lat="46.13339" lon="5.39505">
        <ele>322.4</ele>
        <time>2022-06-06T12:07:11Z</time>
      </trkpt>
      <trkpt lat="46.13338" lon="5.39509">
        <ele>322.6</ele>
        <time>2022-06-06T12:07:12Z</time>
      </trkpt>
      <trkpt lat="46.1333" lon="5.39533">
        <ele>323.8</ele>
        <time>2022-06-06T12:07:16Z</time>
      </trkpt>
      <trkpt lat="46.13329" lon="5.39538">
        <ele>324</ele>
        <time>2022-06-06T12:07:17Z</time>
      </trkpt>
      <trkpt lat="46.13328" lon="5.39544">
        <ele>324</ele>
        <time>2022-06-06T12:07:18Z</time>
      </trkpt>
      <trkpt lat="46.13327" lon="5.39577">
        <ele>324.8</ele>
        <time>2022-06-06T12:07:23Z</time>
      </trkpt>
      <trkpt lat="46.13327" lon="5.39588">
        <ele>325</ele>
        <time>2022-06-06T12:07:25Z</time>
      </trkpt>
      <trkpt lat="46.13328" lon="5.39606">
        <ele>326</ele>
        <time>2022-06-06T12:07:29Z</time>
      </trkpt>
      <trkpt lat="46.13329" lon="5.39619">
        <ele>327.2</ele>
        <time>2022-06-06T12:07:32Z</time>
      </trkpt>
      <trkpt lat="46.1333" lon="5.39634">
        <ele>328.6</ele>
        <time>2022-06-06T12:07:36Z</time>
      </trkpt>
      <trkpt lat="46.13329" lon="5.39647">
        <ele>329.6</ele>
        <time>2022-06-06T12:07:39Z</time>
      </trkpt>
      <trkpt lat="46.13326" lon="5.39663">
        <ele>330.8</ele>
        <time>2022-06-06T12:07:43Z</time>
      </trkpt>
      <trkpt lat="46.13323" lon="5.39669">
        <ele>331.2</ele>
        <time>2022-06-06T12:07:45Z</time>
      </trkpt>
      <trkpt lat="46.13319" lon="5.39674">
        <ele>331.8</ele>
        <time>2022-06-06T12:07:47Z</time>
      </trkpt>
      <trkpt lat="46.1331" lon="5.39682">
        <ele>333.2</ele>
        <time>2022-06-06T12:07:51Z</time>
      </trkpt>
      <trkpt lat="46.133" lon="5.39686">
        <ele>334.2</ele>
        <time>2022-06-06T12:07:55Z</time>
      </trkpt>
      <trkpt lat="46.13295" lon="5.39688">
        <ele>335.4</ele>
        <time>2022-06-06T12:07:57Z</time>
      </trkpt>
      <trkpt lat="46.13287" lon="5.39689">
        <ele>336.6</ele>
        <time>2022-06-06T12:08:00Z</time>
      </trkpt>
      <trkpt lat="46.13284" lon="5.3969">
        <ele>336.8</ele>
        <time>2022-06-06T12:08:01Z</time>
      </trkpt>
      <trkpt lat="46.13281" lon="5.3969">
        <ele>337</ele>
        <time>2022-06-06T12:08:02Z</time>
      </trkpt>
      <trkpt lat="46.1327" lon="5.39694">
        <ele>337.8</ele>
        <time>2022-06-06T12:08:06Z</time>
      </trkpt>
      <trkpt lat="46.13262" lon="5.39696">
        <ele>338.8</ele>
        <time>2022-06-06T12:08:09Z</time>
      </trkpt>
      <trkpt lat="46.1326" lon="5.39698">
        <ele>338.8</ele>
        <time>2022-06-06T12:08:10Z</time>
      </trkpt>
      <trkpt lat="46.1325" lon="5.39705">
        <ele>340</ele>
        <time>2022-06-06T12:08:14Z</time>
      </trkpt>
      <trkpt lat="46.13243" lon="5.39714">
        <ele>340.6</ele>
        <time>2022-06-06T12:08:17Z</time>
      </trkpt>
      <trkpt lat="46.13238" lon="5.3972">
        <ele>341.2</ele>
        <time>2022-06-06T12:08:19Z</time>
      </trkpt>
      <trkpt lat="46.13222" lon="5.3974">
        <ele>342.6</ele>
        <time>2022-06-06T12:08:26Z</time>
      </trkpt>
      <trkpt lat="46.13202" lon="5.39757">
        <ele>343.4</ele>
        <time>2022-06-06T12:08:32Z</time>
      </trkpt>
      <trkpt lat="46.13192" lon="5.39763">
        <ele>343.4</ele>
        <time>2022-06-06T12:08:34Z</time>
      </trkpt>
      <trkpt lat="46.13174" lon="5.3977">
        <ele>343</ele>
        <time>2022-06-06T12:08:37Z</time>
      </trkpt>
      <trkpt lat="46.13149" lon="5.39784">
        <ele>342.4</ele>
        <time>2022-06-06T12:08:41Z</time>
      </trkpt>
      <trkpt lat="46.13144" lon="5.39789">
        <ele>342.4</ele>
        <time>2022-06-06T12:08:42Z</time>
      </trkpt>
      <trkpt lat="46.13134" lon="5.39799">
        <ele>341.8</ele>
        <time>2022-06-06T12:08:44Z</time>
      </trkpt>
      <trkpt lat="46.13123" lon="5.39804">
        <ele>341.8</ele>
        <time>2022-06-06T12:08:46Z</time>
      </trkpt>
      <trkpt lat="46.13113" lon="5.39805">
        <ele>342.2</ele>
        <time>2022-06-06T12:08:48Z</time>
      </trkpt>
      <trkpt lat="46.13103" lon="5.3981">
        <ele>342.4</ele>
        <time>2022-06-06T12:08:50Z</time>
      </trkpt>
      <trkpt lat="46.13093" lon="5.39817">
        <ele>342.8</ele>
        <time>2022-06-06T12:08:52Z</time>
      </trkpt>
      <trkpt lat="46.13079" lon="5.39833">
        <ele>343.2</ele>
        <time>2022-06-06T12:08:55Z</time>
      </trkpt>
      <trkpt lat="46.13054" lon="5.39862">
        <ele>343.4</ele>
        <time>2022-06-06T12:09:00Z</time>
      </trkpt>
      <trkpt lat="46.13046" lon="5.39868">
        <ele>343.2</ele>
        <time>2022-06-06T12:09:01Z</time>
      </trkpt>
      <trkpt lat="46.13023" lon="5.39878">
        <ele>343</ele>
        <time>2022-06-06T12:09:04Z</time>
      </trkpt>
      <trkpt lat="46.13005" lon="5.39879">
        <ele>342.6</ele>
        <time>2022-06-06T12:09:06Z</time>
      </trkpt>
      <trkpt lat="46.12995" lon="5.39876">
        <ele>342.2</ele>
        <time>2022-06-06T12:09:07Z</time>
      </trkpt>
      <trkpt lat="46.12988" lon="5.39873">
        <ele>341.4</ele>
        <time>2022-06-06T12:09:08Z</time>
      </trkpt>
      <trkpt lat="46.12966" lon="5.39866">
        <ele>340</ele>
        <time>2022-06-06T12:09:10Z</time>
      </trkpt>
      <trkpt lat="46.12948" lon="5.3986">
        <ele>339</ele>
        <time>2022-06-06T12:09:12Z</time>
      </trkpt>
      <trkpt lat="46.12936" lon="5.39856">
        <ele>338.4</ele>
        <time>2022-06-06T12:09:13Z</time>
      </trkpt>
      <trkpt lat="46.12917" lon="5.3985">
        <ele>337.6</ele>
        <time>2022-06-06T12:09:15Z</time>
      </trkpt>
      <trkpt lat="46.129" lon="5.39845">
        <ele>336.4</ele>
        <time>2022-06-06T12:09:17Z</time>
      </trkpt>
      <trkpt lat="46.12871" lon="5.39841">
        <ele>335</ele>
        <time>2022-06-06T12:09:20Z</time>
      </trkpt>
      <trkpt lat="46.1283" lon="5.39845">
        <ele>333.6</ele>
        <time>2022-06-06T12:09:24Z</time>
      </trkpt>
      <trkpt lat="46.12822" lon="5.39847">
        <ele>333.4</ele>
        <time>2022-06-06T12:09:25Z</time>
      </trkpt>
      <trkpt lat="46.12814" lon="5.3985">
        <ele>333.4</ele>
        <time>2022-06-06T12:09:26Z</time>
      </trkpt>
      <trkpt lat="46.12788" lon="5.39865">
        <ele>333</ele>
        <time>2022-06-06T12:09:29Z</time>
      </trkpt>
      <trkpt lat="46.12734" lon="5.39905">
        <ele>333</ele>
        <time>2022-06-06T12:09:36Z</time>
      </trkpt>
      <trkpt lat="46.12702" lon="5.39927">
        <ele>334.2</ele>
        <time>2022-06-06T12:09:41Z</time>
      </trkpt>
      <trkpt lat="46.1268" lon="5.39941">
        <ele>334.4</ele>
        <time>2022-06-06T12:09:45Z</time>
      </trkpt>
      <trkpt lat="46.12674" lon="5.39943">
        <ele>334.4</ele>
        <time>2022-06-06T12:09:46Z</time>
      </trkpt>
      <trkpt lat="46.12668" lon="5.39944">
        <ele>334.4</ele>
        <time>2022-06-06T12:09:47Z</time>
      </trkpt>
      <trkpt lat="46.12647" lon="5.39942">
        <ele>334.6</ele>
        <time>2022-06-06T12:09:50Z</time>
      </trkpt>
      <trkpt lat="46.12593" lon="5.39933">
        <ele>335</ele>
        <time>2022-06-06T12:09:58Z</time>
      </trkpt>
      <trkpt lat="46.12556" lon="5.39924">
        <ele>335.4</ele>
        <time>2022-06-06T12:10:04Z</time>
      </trkpt>
      <trkpt lat="46.12527" lon="5.39915">
        <ele>335.8</ele>
        <time>2022-06-06T12:10:09Z</time>
      </trkpt>
      <trkpt lat="46.12512" lon="5.39908">
        <ele>336.6</ele>
        <time>2022-06-06T12:10:12Z</time>
      </trkpt>
      <trkpt lat="46.12507" lon="5.39906">
        <ele>336.8</ele>
        <time>2022-06-06T12:10:13Z</time>
      </trkpt>
      <trkpt lat="46.12473" lon="5.39893">
        <ele>337.8</ele>
        <time>2022-06-06T12:10:19Z</time>
      </trkpt>
      <trkpt lat="46.12468" lon="5.39892">
        <ele>338</ele>
        <time>2022-06-06T12:10:20Z</time>
      </trkpt>
      <trkpt lat="46.1245" lon="5.39889">
        <ele>338.6</ele>
        <time>2022-06-06T12:10:23Z</time>
      </trkpt>
      <trkpt lat="46.12439" lon="5.39888">
        <ele>338.8</ele>
        <time>2022-06-06T12:10:25Z</time>
      </trkpt>
      <trkpt lat="46.12433" lon="5.39888">
        <ele>339</ele>
        <time>2022-06-06T12:10:26Z</time>
      </trkpt>
      <trkpt lat="46.12417" lon="5.39887">
        <ele>340</ele>
        <time>2022-06-06T12:10:29Z</time>
      </trkpt>
      <trkpt lat="46.12406" lon="5.39885">
        <ele>340.2</ele>
        <time>2022-06-06T12:10:31Z</time>
      </trkpt>
      <trkpt lat="46.12401" lon="5.39884">
        <ele>340.2</ele>
        <time>2022-06-06T12:10:32Z</time>
      </trkpt>
      <trkpt lat="46.12395" lon="5.39884">
        <ele>340.2</ele>
        <time>2022-06-06T12:10:33Z</time>
      </trkpt>
      <trkpt lat="46.12369" lon="5.3988">
        <ele>340.4</ele>
        <time>2022-06-06T12:10:37Z</time>
      </trkpt>
      <trkpt lat="46.12333" lon="5.39883">
        <ele>340.2</ele>
        <time>2022-06-06T12:10:42Z</time>
      </trkpt>
      <trkpt lat="46.12299" lon="5.39889">
        <ele>338.6</ele>
        <time>2022-06-06T12:10:46Z</time>
      </trkpt>
      <trkpt lat="46.12281" lon="5.39889">
        <ele>337.8</ele>
        <time>2022-06-06T12:10:48Z</time>
      </trkpt>
      <trkpt lat="46.12262" lon="5.39884">
        <ele>337</ele>
        <time>2022-06-06T12:10:50Z</time>
      </trkpt>
      <trkpt lat="46.12244" lon="5.39876">
        <ele>335.8</ele>
        <time>2022-06-06T12:10:52Z</time>
      </trkpt>
      <trkpt lat="46.12218" lon="5.39863">
        <ele>334.4</ele>
        <time>2022-06-06T12:10:55Z</time>
      </trkpt>
      <trkpt lat="46.12184" lon="5.39844">
        <ele>333.4</ele>
        <time>2022-06-06T12:10:59Z</time>
      </trkpt>
      <trkpt lat="46.12175" lon="5.39841">
        <ele>333.2</ele>
        <time>2022-06-06T12:11:00Z</time>
      </trkpt>
      <trkpt lat="46.1215" lon="5.39838">
        <ele>333.2</ele>
        <time>2022-06-06T12:11:03Z</time>
      </trkpt>
      <trkpt lat="46.12118" lon="5.3984">
        <ele>333.2</ele>
        <time>2022-06-06T12:11:07Z</time>
      </trkpt>
      <trkpt lat="46.1211" lon="5.39841">
        <ele>333.2</ele>
        <time>2022-06-06T12:11:08Z</time>
      </trkpt>
      <trkpt lat="46.1208" lon="5.39843">
        <ele>333.8</ele>
        <time>2022-06-06T12:11:12Z</time>
      </trkpt>
      <trkpt lat="46.12073" lon="5.39845">
        <ele>334</ele>
        <time>2022-06-06T12:11:13Z</time>
      </trkpt>
      <trkpt lat="46.12054" lon="5.3985">
        <ele>334.4</ele>
        <time>2022-06-06T12:11:16Z</time>
      </trkpt>
      <trkpt lat="46.12043" lon="5.39854">
        <ele>335</ele>
        <time>2022-06-06T12:11:18Z</time>
      </trkpt>
      <trkpt lat="46.12038" lon="5.39856">
        <ele>335.2</ele>
        <time>2022-06-06T12:11:19Z</time>
      </trkpt>
      <trkpt lat="46.12026" lon="5.39861">
        <ele>336.2</ele>
        <time>2022-06-06T12:11:21Z</time>
      </trkpt>
      <trkpt lat="46.12016" lon="5.39865">
        <ele>336.8</ele>
        <time>2022-06-06T12:11:23Z</time>
      </trkpt>
      <trkpt lat="46.12005" lon="5.39868">
        <ele>337.2</ele>
        <time>2022-06-06T12:11:25Z</time>
      </trkpt>
      <trkpt lat="46.11981" lon="5.39873">
        <ele>337.8</ele>
        <time>2022-06-06T12:11:29Z</time>
      </trkpt>
      <trkpt lat="46.11966" lon="5.39875">
        <ele>338</ele>
        <time>2022-06-06T12:11:31Z</time>
      </trkpt>
      <trkpt lat="46.11942" lon="5.3988">
        <ele>338.4</ele>
        <time>2022-06-06T12:11:35Z</time>
      </trkpt>
      <trkpt lat="46.11916" lon="5.39889">
        <ele>339</ele>
        <time>2022-06-06T12:11:39Z</time>
      </trkpt>
      <trkpt lat="46.11905" lon="5.39894">
        <ele>339</ele>
        <time>2022-06-06T12:11:41Z</time>
      </trkpt>
      <trkpt lat="46.11898" lon="5.39896">
        <ele>339.2</ele>
        <time>2022-06-06T12:11:42Z</time>
      </trkpt>
      <trkpt lat="46.11891" lon="5.39898">
        <ele>339.2</ele>
        <time>2022-06-06T12:11:43Z</time>
      </trkpt>
      <trkpt lat="46.11872" lon="5.39907">
        <ele>339.4</ele>
        <time>2022-06-06T12:11:46Z</time>
      </trkpt>
      <trkpt lat="46.1186" lon="5.39912">
        <ele>339.6</ele>
        <time>2022-06-06T12:11:48Z</time>
      </trkpt>
      <trkpt lat="46.11855" lon="5.39915">
        <ele>339.8</ele>
        <time>2022-06-06T12:11:49Z</time>
      </trkpt>
      <trkpt lat="46.1184" lon="5.3993">
        <ele>340.2</ele>
        <time>2022-06-06T12:11:52Z</time>
      </trkpt>
      <trkpt lat="46.11818" lon="5.39959">
        <ele>341</ele>
        <time>2022-06-06T12:11:58Z</time>
      </trkpt>
      <trkpt lat="46.11815" lon="5.39962">
        <ele>341.2</ele>
        <time>2022-06-06T12:11:59Z</time>
      </trkpt>
      <trkpt lat="46.11801" lon="5.39978">
        <ele>342.6</ele>
        <time>2022-06-06T12:12:03Z</time>
      </trkpt>
      <trkpt lat="46.11793" lon="5.39984">
        <ele>343.2</ele>
        <time>2022-06-06T12:12:05Z</time>
      </trkpt>
      <trkpt lat="46.11789" lon="5.39987">
        <ele>343.8</ele>
        <time>2022-06-06T12:12:06Z</time>
      </trkpt>
      <trkpt lat="46.11775" lon="5.39993">
        <ele>344.8</ele>
        <time>2022-06-06T12:12:10Z</time>
      </trkpt>
      <trkpt lat="46.1177" lon="5.39995">
        <ele>345</ele>
        <time>2022-06-06T12:12:11Z</time>
      </trkpt>
      <trkpt lat="46.11767" lon="5.39996">
        <ele>345.4</ele>
        <time>2022-06-06T12:12:12Z</time>
      </trkpt>
      <trkpt lat="46.11756" lon="5.4">
        <ele>346</ele>
        <time>2022-06-06T12:12:15Z</time>
      </trkpt>
      <trkpt lat="46.11742" lon="5.40005">
        <ele>346.6</ele>
        <time>2022-06-06T12:12:19Z</time>
      </trkpt>
      <trkpt lat="46.11735" lon="5.40006">
        <ele>347.2</ele>
        <time>2022-06-06T12:12:21Z</time>
      </trkpt>
      <trkpt lat="46.11727" lon="5.40009">
        <ele>348.2</ele>
        <time>2022-06-06T12:12:24Z</time>
      </trkpt>
      <trkpt lat="46.11724" lon="5.4001">
        <ele>348.6</ele>
        <time>2022-06-06T12:12:25Z</time>
      </trkpt>
      <trkpt lat="46.11717" lon="5.40011">
        <ele>349.4</ele>
        <time>2022-06-06T12:12:27Z</time>
      </trkpt>
      <trkpt lat="46.11706" lon="5.40014">
        <ele>350.2</ele>
        <time>2022-06-06T12:12:30Z</time>
      </trkpt>
      <trkpt lat="46.11698" lon="5.40017">
        <ele>350.4</ele>
        <time>2022-06-06T12:12:32Z</time>
      </trkpt>
      <trkpt lat="46.11685" lon="5.40021">
        <ele>351.2</ele>
        <time>2022-06-06T12:12:35Z</time>
      </trkpt>
      <trkpt lat="46.1168" lon="5.40023">
        <ele>351.4</ele>
        <time>2022-06-06T12:12:36Z</time>
      </trkpt>
      <trkpt lat="46.11668" lon="5.40026">
        <ele>352.6</ele>
        <time>2022-06-06T12:12:39Z</time>
      </trkpt>
      <trkpt lat="46.11664" lon="5.40027">
        <ele>353</ele>
        <time>2022-06-06T12:12:40Z</time>
      </trkpt>
      <trkpt lat="46.11644" lon="5.4003">
        <ele>353.8</ele>
        <time>2022-06-06T12:12:45Z</time>
      </trkpt>
      <trkpt lat="46.1164" lon="5.40031">
        <ele>353.8</ele>
        <time>2022-06-06T12:12:46Z</time>
      </trkpt>
      <trkpt lat="46.11626" lon="5.40035">
        <ele>355</ele>
        <time>2022-06-06T12:12:50Z</time>
      </trkpt>
      <trkpt lat="46.11611" lon="5.40038">
        <ele>355.8</ele>
        <time>2022-06-06T12:12:54Z</time>
      </trkpt>
      <trkpt lat="46.11608" lon="5.40039">
        <ele>356</ele>
        <time>2022-06-06T12:12:55Z</time>
      </trkpt>
      <trkpt lat="46.11588" lon="5.40043">
        <ele>357</ele>
        <time>2022-06-06T12:13:01Z</time>
      </trkpt>
      <trkpt lat="46.1158" lon="5.40044">
        <ele>357.6</ele>
        <time>2022-06-06T12:13:03Z</time>
      </trkpt>
      <trkpt lat="46.11571" lon="5.40045">
        <ele>358</ele>
        <time>2022-06-06T12:13:06Z</time>
      </trkpt>
      <trkpt lat="46.11553" lon="5.40048">
        <ele>359.2</ele>
        <time>2022-06-06T12:13:11Z</time>
      </trkpt>
      <trkpt lat="46.11536" lon="5.40048">
        <ele>360.2</ele>
        <time>2022-06-06T12:13:16Z</time>
      </trkpt>
      <trkpt lat="46.11529" lon="5.40048">
        <ele>360.6</ele>
        <time>2022-06-06T12:13:18Z</time>
      </trkpt>
      <trkpt lat="46.11514" lon="5.40049">
        <ele>361.8</ele>
        <time>2022-06-06T12:13:22Z</time>
      </trkpt>
      <trkpt lat="46.11504" lon="5.4005">
        <ele>362.8</ele>
        <time>2022-06-06T12:13:25Z</time>
      </trkpt>
      <trkpt lat="46.11501" lon="5.4005">
        <ele>362.8</ele>
        <time>2022-06-06T12:13:26Z</time>
      </trkpt>
      <trkpt lat="46.1149" lon="5.40051">
        <ele>364.2</ele>
        <time>2022-06-06T12:13:29Z</time>
      </trkpt>
      <trkpt lat="46.11477" lon="5.40054">
        <ele>365</ele>
        <time>2022-06-06T12:13:33Z</time>
      </trkpt>
      <trkpt lat="46.11473" lon="5.40055">
        <ele>365.4</ele>
        <time>2022-06-06T12:13:34Z</time>
      </trkpt>
      <trkpt lat="46.11453" lon="5.40058">
        <ele>366.6</ele>
        <time>2022-06-06T12:13:40Z</time>
      </trkpt>
      <trkpt lat="46.1144" lon="5.40063">
        <ele>367.8</ele>
        <time>2022-06-06T12:13:44Z</time>
      </trkpt>
      <trkpt lat="46.11431" lon="5.40066">
        <ele>368.4</ele>
        <time>2022-06-06T12:13:47Z</time>
      </trkpt>
      <trkpt lat="46.11424" lon="5.40068">
        <ele>368.8</ele>
        <time>2022-06-06T12:13:49Z</time>
      </trkpt>
      <trkpt lat="46.11411" lon="5.40074">
        <ele>370</ele>
        <time>2022-06-06T12:13:53Z</time>
      </trkpt>
      <trkpt lat="46.11394" lon="5.40083">
        <ele>370.8</ele>
        <time>2022-06-06T12:13:58Z</time>
      </trkpt>
      <trkpt lat="46.11387" lon="5.40086">
        <ele>371.2</ele>
        <time>2022-06-06T12:14:00Z</time>
      </trkpt>
      <trkpt lat="46.11372" lon="5.40093">
        <ele>372.2</ele>
        <time>2022-06-06T12:14:05Z</time>
      </trkpt>
      <trkpt lat="46.11354" lon="5.40102">
        <ele>373.4</ele>
        <time>2022-06-06T12:14:10Z</time>
      </trkpt>
      <trkpt lat="46.11328" lon="5.40114">
        <ele>374.2</ele>
        <time>2022-06-06T12:14:17Z</time>
      </trkpt>
      <trkpt lat="46.11321" lon="5.40117">
        <ele>374.6</ele>
        <time>2022-06-06T12:14:19Z</time>
      </trkpt>
      <trkpt lat="46.11303" lon="5.40124">
        <ele>375</ele>
        <time>2022-06-06T12:14:24Z</time>
      </trkpt>
      <trkpt lat="46.11299" lon="5.40125">
        <ele>375.4</ele>
        <time>2022-06-06T12:14:25Z</time>
      </trkpt>
      <trkpt lat="46.11287" lon="5.4013">
        <ele>375.8</ele>
        <time>2022-06-06T12:14:28Z</time>
      </trkpt>
      <trkpt lat="46.11271" lon="5.40136">
        <ele>377</ele>
        <time>2022-06-06T12:14:32Z</time>
      </trkpt>
      <trkpt lat="46.11259" lon="5.4014">
        <ele>377.4</ele>
        <time>2022-06-06T12:14:35Z</time>
      </trkpt>
      <trkpt lat="46.11246" lon="5.40144">
        <ele>377.8</ele>
        <time>2022-06-06T12:14:38Z</time>
      </trkpt>
      <trkpt lat="46.11226" lon="5.40153">
        <ele>379</ele>
        <time>2022-06-06T12:14:43Z</time>
      </trkpt>
      <trkpt lat="46.11204" lon="5.40161">
        <ele>379.6</ele>
        <time>2022-06-06T12:14:48Z</time>
      </trkpt>
      <trkpt lat="46.112" lon="5.40163">
        <ele>380</ele>
        <time>2022-06-06T12:14:49Z</time>
      </trkpt>
      <trkpt lat="46.11187" lon="5.40168">
        <ele>381.2</ele>
        <time>2022-06-06T12:14:53Z</time>
      </trkpt>
      <trkpt lat="46.11182" lon="5.40171">
        <ele>381.6</ele>
        <time>2022-06-06T12:14:54Z</time>
      </trkpt>
      <trkpt lat="46.11174" lon="5.40173">
        <ele>382.2</ele>
        <time>2022-06-06T12:14:56Z</time>
      </trkpt>
      <trkpt lat="46.11162" lon="5.40177">
        <ele>382.8</ele>
        <time>2022-06-06T12:14:59Z</time>
      </trkpt>
      <trkpt lat="46.11155" lon="5.40179">
        <ele>383.4</ele>
        <time>2022-06-06T12:15:01Z</time>
      </trkpt>
      <trkpt lat="46.11143" lon="5.40184">
        <ele>384.6</ele>
        <time>2022-06-06T12:15:04Z</time>
      </trkpt>
      <trkpt lat="46.1113" lon="5.40191">
        <ele>385.6</ele>
        <time>2022-06-06T12:15:07Z</time>
      </trkpt>
      <trkpt lat="46.11108" lon="5.40207">
        <ele>386.8</ele>
        <time>2022-06-06T12:15:13Z</time>
      </trkpt>
      <trkpt lat="46.11098" lon="5.40217">
        <ele>387.8</ele>
        <time>2022-06-06T12:15:16Z</time>
      </trkpt>
      <trkpt lat="46.11092" lon="5.40224">
        <ele>388</ele>
        <time>2022-06-06T12:15:18Z</time>
      </trkpt>
      <trkpt lat="46.11075" lon="5.40247">
        <ele>388.8</ele>
        <time>2022-06-06T12:15:24Z</time>
      </trkpt>
      <trkpt lat="46.1107" lon="5.40256">
        <ele>389.2</ele>
        <time>2022-06-06T12:15:26Z</time>
      </trkpt>
      <trkpt lat="46.11061" lon="5.40276">
        <ele>389.6</ele>
        <time>2022-06-06T12:15:30Z</time>
      </trkpt>
      <trkpt lat="46.11058" lon="5.40289">
        <ele>389.6</ele>
        <time>2022-06-06T12:15:32Z</time>
      </trkpt>
      <trkpt lat="46.11058" lon="5.4031">
        <ele>389.8</ele>
        <time>2022-06-06T12:15:35Z</time>
      </trkpt>
      <trkpt lat="46.11059" lon="5.40327">
        <ele>389.8</ele>
        <time>2022-06-06T12:15:37Z</time>
      </trkpt>
      <trkpt lat="46.1106" lon="5.40337">
        <ele>389.8</ele>
        <time>2022-06-06T12:15:38Z</time>
      </trkpt>
      <trkpt lat="46.11057" lon="5.40356">
        <ele>389.4</ele>
        <time>2022-06-06T12:15:40Z</time>
      </trkpt>
      <trkpt lat="46.11054" lon="5.40366">
        <ele>389.4</ele>
        <time>2022-06-06T12:15:41Z</time>
      </trkpt>
      <trkpt lat="46.1105" lon="5.40374">
        <ele>388.8</ele>
        <time>2022-06-06T12:15:42Z</time>
      </trkpt>
      <trkpt lat="46.11039" lon="5.40389">
        <ele>388.2</ele>
        <time>2022-06-06T12:15:44Z</time>
      </trkpt>
      <trkpt lat="46.11032" lon="5.40395">
        <ele>387.8</ele>
        <time>2022-06-06T12:15:45Z</time>
      </trkpt>
      <trkpt lat="46.11001" lon="5.40417">
        <ele>386.4</ele>
        <time>2022-06-06T12:15:49Z</time>
      </trkpt>
      <trkpt lat="46.10966" lon="5.40437">
        <ele>385.2</ele>
        <time>2022-06-06T12:15:53Z</time>
      </trkpt>
      <trkpt lat="46.10948" lon="5.40446">
        <ele>384</ele>
        <time>2022-06-06T12:15:55Z</time>
      </trkpt>
      <trkpt lat="46.10939" lon="5.4045">
        <ele>383.6</ele>
        <time>2022-06-06T12:15:56Z</time>
      </trkpt>
      <trkpt lat="46.1093" lon="5.40452">
        <ele>383</ele>
        <time>2022-06-06T12:15:57Z</time>
      </trkpt>
      <trkpt lat="46.10909" lon="5.40456">
        <ele>382</ele>
        <time>2022-06-06T12:15:59Z</time>
      </trkpt>
      <trkpt lat="46.10898" lon="5.40457">
        <ele>381.6</ele>
        <time>2022-06-06T12:16:00Z</time>
      </trkpt>
      <trkpt lat="46.10874" lon="5.40456">
        <ele>381</ele>
        <time>2022-06-06T12:16:02Z</time>
      </trkpt>
      <trkpt lat="46.10853" lon="5.40454">
        <ele>379.4</ele>
        <time>2022-06-06T12:16:04Z</time>
      </trkpt>
      <trkpt lat="46.1083" lon="5.4046">
        <ele>378.2</ele>
        <time>2022-06-06T12:16:06Z</time>
      </trkpt>
      <trkpt lat="46.10807" lon="5.40469">
        <ele>376</ele>
        <time>2022-06-06T12:16:08Z</time>
      </trkpt>
      <trkpt lat="46.10784" lon="5.40476">
        <ele>374.6</ele>
        <time>2022-06-06T12:16:10Z</time>
      </trkpt>
      <trkpt lat="46.10772" lon="5.4048">
        <ele>373.4</ele>
        <time>2022-06-06T12:16:11Z</time>
      </trkpt>
      <trkpt lat="46.10761" lon="5.40486">
        <ele>372.8</ele>
        <time>2022-06-06T12:16:12Z</time>
      </trkpt>
      <trkpt lat="46.1075" lon="5.40493">
        <ele>372.2</ele>
        <time>2022-06-06T12:16:13Z</time>
      </trkpt>
      <trkpt lat="46.10731" lon="5.4051">
        <ele>370.6</ele>
        <time>2022-06-06T12:16:15Z</time>
      </trkpt>
      <trkpt lat="46.10719" lon="5.40539">
        <ele>369</ele>
        <time>2022-06-06T12:16:17Z</time>
      </trkpt>
      <trkpt lat="46.10714" lon="5.40557">
        <ele>367.6</ele>
        <time>2022-06-06T12:16:18Z</time>
      </trkpt>
      <trkpt lat="46.10708" lon="5.40573">
        <ele>367.2</ele>
        <time>2022-06-06T12:16:19Z</time>
      </trkpt>
      <trkpt lat="46.107" lon="5.40587">
        <ele>366.4</ele>
        <time>2022-06-06T12:16:20Z</time>
      </trkpt>
      <trkpt lat="46.10689" lon="5.40599">
        <ele>366.2</ele>
        <time>2022-06-06T12:16:21Z</time>
      </trkpt>
      <trkpt lat="46.1067" lon="5.40609">
        <ele>365.6</ele>
        <time>2022-06-06T12:16:23Z</time>
      </trkpt>
      <trkpt lat="46.10661" lon="5.40611">
        <ele>364</ele>
        <time>2022-06-06T12:16:24Z</time>
      </trkpt>
      <trkpt lat="46.10653" lon="5.40614">
        <ele>362.4</ele>
        <time>2022-06-06T12:16:25Z</time>
      </trkpt>
      <trkpt lat="46.10644" lon="5.40615">
        <ele>361.8</ele>
        <time>2022-06-06T12:16:26Z</time>
      </trkpt>
      <trkpt lat="46.10633" lon="5.40613">
        <ele>360.8</ele>
        <time>2022-06-06T12:16:27Z</time>
      </trkpt>
      <trkpt lat="46.10619" lon="5.40608">
        <ele>360.4</ele>
        <time>2022-06-06T12:16:28Z</time>
      </trkpt>
      <trkpt lat="46.10606" lon="5.40604">
        <ele>359.6</ele>
        <time>2022-06-06T12:16:29Z</time>
      </trkpt>
      <trkpt lat="46.10593" lon="5.406">
        <ele>359.2</ele>
        <time>2022-06-06T12:16:30Z</time>
      </trkpt>
      <trkpt lat="46.1058" lon="5.40596">
        <ele>358.8</ele>
        <time>2022-06-06T12:16:31Z</time>
      </trkpt>
      <trkpt lat="46.10567" lon="5.40592">
        <ele>358</ele>
        <time>2022-06-06T12:16:32Z</time>
      </trkpt>
      <trkpt lat="46.1054" lon="5.40583">
        <ele>356.8</ele>
        <time>2022-06-06T12:16:34Z</time>
      </trkpt>
      <trkpt lat="46.10518" lon="5.40575">
        <ele>355.4</ele>
        <time>2022-06-06T12:16:36Z</time>
      </trkpt>
      <trkpt lat="46.10494" lon="5.40568">
        <ele>354</ele>
        <time>2022-06-06T12:16:38Z</time>
      </trkpt>
      <trkpt lat="46.10479" lon="5.40565">
        <ele>352.6</ele>
        <time>2022-06-06T12:16:39Z</time>
      </trkpt>
      <trkpt lat="46.10457" lon="5.40562">
        <ele>351.4</ele>
        <time>2022-06-06T12:16:41Z</time>
      </trkpt>
      <trkpt lat="46.10422" lon="5.40556">
        <ele>350</ele>
        <time>2022-06-06T12:16:44Z</time>
      </trkpt>
      <trkpt lat="46.10398" lon="5.40549">
        <ele>349</ele>
        <time>2022-06-06T12:16:46Z</time>
      </trkpt>
      <trkpt lat="46.10384" lon="5.40545">
        <ele>348.6</ele>
        <time>2022-06-06T12:16:47Z</time>
      </trkpt>
      <trkpt lat="46.10362" lon="5.40539">
        <ele>347.4</ele>
        <time>2022-06-06T12:16:49Z</time>
      </trkpt>
      <trkpt lat="46.10339" lon="5.40533">
        <ele>345.8</ele>
        <time>2022-06-06T12:16:51Z</time>
      </trkpt>
      <trkpt lat="46.10315" lon="5.40529">
        <ele>344.6</ele>
        <time>2022-06-06T12:16:53Z</time>
      </trkpt>
      <trkpt lat="46.10303" lon="5.40527">
        <ele>344.4</ele>
        <time>2022-06-06T12:16:54Z</time>
      </trkpt>
      <trkpt lat="46.10291" lon="5.40525">
        <ele>343.6</ele>
        <time>2022-06-06T12:16:55Z</time>
      </trkpt>
      <trkpt lat="46.10267" lon="5.40522">
        <ele>342.2</ele>
        <time>2022-06-06T12:16:57Z</time>
      </trkpt>
      <trkpt lat="46.10244" lon="5.40516">
        <ele>340.6</ele>
        <time>2022-06-06T12:16:59Z</time>
      </trkpt>
      <trkpt lat="46.10233" lon="5.40512">
        <ele>339.8</ele>
        <time>2022-06-06T12:17:00Z</time>
      </trkpt>
      <trkpt lat="46.10211" lon="5.40503">
        <ele>338.4</ele>
        <time>2022-06-06T12:17:02Z</time>
      </trkpt>
      <trkpt lat="46.10189" lon="5.40494">
        <ele>335.8</ele>
        <time>2022-06-06T12:17:04Z</time>
      </trkpt>
      <trkpt lat="46.10166" lon="5.40484">
        <ele>334</ele>
        <time>2022-06-06T12:17:06Z</time>
      </trkpt>
      <trkpt lat="46.10148" lon="5.40476">
        <ele>332.8</ele>
        <time>2022-06-06T12:17:08Z</time>
      </trkpt>
      <trkpt lat="46.10118" lon="5.40463">
        <ele>331.4</ele>
        <time>2022-06-06T12:17:11Z</time>
      </trkpt>
      <trkpt lat="46.10086" lon="5.40451">
        <ele>330.4</ele>
        <time>2022-06-06T12:17:14Z</time>
      </trkpt>
      <trkpt lat="46.10074" lon="5.40447">
        <ele>330</ele>
        <time>2022-06-06T12:17:15Z</time>
      </trkpt>
      <trkpt lat="46.10055" lon="5.40439">
        <ele>329.2</ele>
        <time>2022-06-06T12:17:17Z</time>
      </trkpt>
      <trkpt lat="46.10032" lon="5.4043">
        <ele>327.8</ele>
        <time>2022-06-06T12:17:19Z</time>
      </trkpt>
      <trkpt lat="46.10023" lon="5.40426">
        <ele>326.8</ele>
        <time>2022-06-06T12:17:20Z</time>
      </trkpt>
      <trkpt lat="46.10012" lon="5.40422">
        <ele>325.8</ele>
        <time>2022-06-06T12:17:21Z</time>
      </trkpt>
      <trkpt lat="46.09988" lon="5.40413">
        <ele>324.4</ele>
        <time>2022-06-06T12:17:23Z</time>
      </trkpt>
      <trkpt lat="46.09957" lon="5.40401">
        <ele>323.4</ele>
        <time>2022-06-06T12:17:26Z</time>
      </trkpt>
      <trkpt lat="46.09939" lon="5.40394">
        <ele>321.8</ele>
        <time>2022-06-06T12:17:28Z</time>
      </trkpt>
      <trkpt lat="46.09929" lon="5.40391">
        <ele>321.6</ele>
        <time>2022-06-06T12:17:29Z</time>
      </trkpt>
      <trkpt lat="46.09905" lon="5.40383">
        <ele>320.6</ele>
        <time>2022-06-06T12:17:31Z</time>
      </trkpt>
      <trkpt lat="46.09886" lon="5.40377">
        <ele>319.6</ele>
        <time>2022-06-06T12:17:33Z</time>
      </trkpt>
      <trkpt lat="46.09863" lon="5.4037">
        <ele>318</ele>
        <time>2022-06-06T12:17:35Z</time>
      </trkpt>
      <trkpt lat="46.09838" lon="5.40363">
        <ele>315.6</ele>
        <time>2022-06-06T12:17:37Z</time>
      </trkpt>
      <trkpt lat="46.09815" lon="5.40357">
        <ele>314.4</ele>
        <time>2022-06-06T12:17:39Z</time>
      </trkpt>
      <trkpt lat="46.09792" lon="5.40352">
        <ele>312.8</ele>
        <time>2022-06-06T12:17:41Z</time>
      </trkpt>
      <trkpt lat="46.0977" lon="5.40347">
        <ele>311.4</ele>
        <time>2022-06-06T12:17:43Z</time>
      </trkpt>
      <trkpt lat="46.09749" lon="5.40342">
        <ele>310.2</ele>
        <time>2022-06-06T12:17:45Z</time>
      </trkpt>
      <trkpt lat="46.09714" lon="5.40334">
        <ele>308.4</ele>
        <time>2022-06-06T12:17:48Z</time>
      </trkpt>
      <trkpt lat="46.09689" lon="5.40328">
        <ele>307</ele>
        <time>2022-06-06T12:17:50Z</time>
      </trkpt>
      <trkpt lat="46.09677" lon="5.40325">
        <ele>305.8</ele>
        <time>2022-06-06T12:17:51Z</time>
      </trkpt>
      <trkpt lat="46.09654" lon="5.40319">
        <ele>304.6</ele>
        <time>2022-06-06T12:17:53Z</time>
      </trkpt>
      <trkpt lat="46.09621" lon="5.40312">
        <ele>303</ele>
        <time>2022-06-06T12:17:56Z</time>
      </trkpt>
      <trkpt lat="46.09582" lon="5.40305">
        <ele>301.8</ele>
        <time>2022-06-06T12:17:59Z</time>
      </trkpt>
      <trkpt lat="46.09547" lon="5.40298">
        <ele>299.8</ele>
        <time>2022-06-06T12:18:02Z</time>
      </trkpt>
      <trkpt lat="46.09535" lon="5.40296">
        <ele>298.8</ele>
        <time>2022-06-06T12:18:03Z</time>
      </trkpt>
      <trkpt lat="46.09511" lon="5.40294">
        <ele>297</ele>
        <time>2022-06-06T12:18:05Z</time>
      </trkpt>
      <trkpt lat="46.09486" lon="5.40292">
        <ele>295.8</ele>
        <time>2022-06-06T12:18:07Z</time>
      </trkpt>
      <trkpt lat="46.09453" lon="5.4029">
        <ele>294.2</ele>
        <time>2022-06-06T12:18:10Z</time>
      </trkpt>
      <trkpt lat="46.09427" lon="5.4029">
        <ele>292.4</ele>
        <time>2022-06-06T12:18:12Z</time>
      </trkpt>
      <trkpt lat="46.09415" lon="5.4029">
        <ele>291.8</ele>
        <time>2022-06-06T12:18:13Z</time>
      </trkpt>
      <trkpt lat="46.09405" lon="5.40289">
        <ele>290.6</ele>
        <time>2022-06-06T12:18:14Z</time>
      </trkpt>
      <trkpt lat="46.09379" lon="5.40288">
        <ele>289.4</ele>
        <time>2022-06-06T12:18:16Z</time>
      </trkpt>
      <trkpt lat="46.09357" lon="5.40287">
        <ele>288</ele>
        <time>2022-06-06T12:18:18Z</time>
      </trkpt>
      <trkpt lat="46.0933" lon="5.40285">
        <ele>286.2</ele>
        <time>2022-06-06T12:18:20Z</time>
      </trkpt>
      <trkpt lat="46.09318" lon="5.40284">
        <ele>285.2</ele>
        <time>2022-06-06T12:18:21Z</time>
      </trkpt>
      <trkpt lat="46.09305" lon="5.40283">
        <ele>284</ele>
        <time>2022-06-06T12:18:22Z</time>
      </trkpt>
      <trkpt lat="46.09281" lon="5.4028">
        <ele>282</ele>
        <time>2022-06-06T12:18:24Z</time>
      </trkpt>
      <trkpt lat="46.0926" lon="5.40277">
        <ele>280.2</ele>
        <time>2022-06-06T12:18:26Z</time>
      </trkpt>
      <trkpt lat="46.09236" lon="5.40273">
        <ele>278.4</ele>
        <time>2022-06-06T12:18:28Z</time>
      </trkpt>
      <trkpt lat="46.09198" lon="5.40266">
        <ele>277.4</ele>
        <time>2022-06-06T12:18:31Z</time>
      </trkpt>
      <trkpt lat="46.09174" lon="5.40261">
        <ele>276</ele>
        <time>2022-06-06T12:18:33Z</time>
      </trkpt>
      <trkpt lat="46.09153" lon="5.40256">
        <ele>275.2</ele>
        <time>2022-06-06T12:18:35Z</time>
      </trkpt>
      <trkpt lat="46.09141" lon="5.40253">
        <ele>274</ele>
        <time>2022-06-06T12:18:36Z</time>
      </trkpt>
      <trkpt lat="46.09115" lon="5.40248">
        <ele>272.2</ele>
        <time>2022-06-06T12:18:38Z</time>
      </trkpt>
      <trkpt lat="46.0909" lon="5.40243">
        <ele>271</ele>
        <time>2022-06-06T12:18:40Z</time>
      </trkpt>
      <trkpt lat="46.09067" lon="5.40239">
        <ele>269.8</ele>
        <time>2022-06-06T12:18:42Z</time>
      </trkpt>
      <trkpt lat="46.09056" lon="5.40237">
        <ele>269.2</ele>
        <time>2022-06-06T12:18:43Z</time>
      </trkpt>
      <trkpt lat="46.09038" lon="5.40235">
        <ele>268.6</ele>
        <time>2022-06-06T12:18:45Z</time>
      </trkpt>
      <trkpt lat="46.09029" lon="5.40235">
        <ele>268.2</ele>
        <time>2022-06-06T12:18:46Z</time>
      </trkpt>
      <trkpt lat="46.09013" lon="5.40246">
        <ele>267.2</ele>
        <time>2022-06-06T12:18:48Z</time>
      </trkpt>
      <trkpt lat="46.09005" lon="5.40266">
        <ele>266</ele>
        <time>2022-06-06T12:18:50Z</time>
      </trkpt>
      <trkpt lat="46.09002" lon="5.40277">
        <ele>265.8</ele>
        <time>2022-06-06T12:18:51Z</time>
      </trkpt>
      <trkpt lat="46.08985" lon="5.40356">
        <ele>265.2</ele>
        <time>2022-06-06T12:18:58Z</time>
      </trkpt>
      <trkpt lat="46.08982" lon="5.40367">
        <ele>265.2</ele>
        <time>2022-06-06T12:18:59Z</time>
      </trkpt>
      <trkpt lat="46.08965" lon="5.40443">
        <ele>264.8</ele>
        <time>2022-06-06T12:19:06Z</time>
      </trkpt>
      <trkpt lat="46.08961" lon="5.40461">
        <ele>265.2</ele>
        <time>2022-06-06T12:19:08Z</time>
      </trkpt>
      <trkpt lat="46.08942" lon="5.40542">
        <ele>265.4</ele>
        <time>2022-06-06T12:19:16Z</time>
      </trkpt>
      <trkpt lat="46.08936" lon="5.4057">
        <ele>266.2</ele>
        <time>2022-06-06T12:19:19Z</time>
      </trkpt>
      <trkpt lat="46.08927" lon="5.40607">
        <ele>266.6</ele>
        <time>2022-06-06T12:19:23Z</time>
      </trkpt>
      <trkpt lat="46.08916" lon="5.40656">
        <ele>267.2</ele>
        <time>2022-06-06T12:19:29Z</time>
      </trkpt>
      <trkpt lat="46.08912" lon="5.40671">
        <ele>267.8</ele>
        <time>2022-06-06T12:19:31Z</time>
      </trkpt>
      <trkpt lat="46.08907" lon="5.40692">
        <ele>268.2</ele>
        <time>2022-06-06T12:19:34Z</time>
      </trkpt>
      <trkpt lat="46.08904" lon="5.40699">
        <ele>268.2</ele>
        <time>2022-06-06T12:19:35Z</time>
      </trkpt>
      <trkpt lat="46.089" lon="5.40705">
        <ele>268.6</ele>
        <time>2022-06-06T12:19:36Z</time>
      </trkpt>
      <trkpt lat="46.08896" lon="5.4071">
        <ele>268.8</ele>
        <time>2022-06-06T12:19:37Z</time>
      </trkpt>
      <trkpt lat="46.08886" lon="5.40716">
        <ele>269.4</ele>
        <time>2022-06-06T12:19:39Z</time>
      </trkpt>
      <trkpt lat="46.08877" lon="5.40717">
        <ele>270</ele>
        <time>2022-06-06T12:19:41Z</time>
      </trkpt>
      <trkpt lat="46.08872" lon="5.40717">
        <ele>270</ele>
        <time>2022-06-06T12:19:42Z</time>
      </trkpt>
      <trkpt lat="46.08843" lon="5.40712">
        <ele>270.4</ele>
        <time>2022-06-06T12:19:47Z</time>
      </trkpt>
      <trkpt lat="46.08786" lon="5.40705">
        <ele>270.4</ele>
        <time>2022-06-06T12:19:57Z</time>
      </trkpt>
      <trkpt lat="46.0878" lon="5.40704">
        <ele>270.6</ele>
        <time>2022-06-06T12:19:58Z</time>
      </trkpt>
      <trkpt lat="46.08765" lon="5.40702">
        <ele>271</ele>
        <time>2022-06-06T12:20:01Z</time>
      </trkpt>
      <trkpt lat="46.08737" lon="5.40697">
        <ele>271.4</ele>
        <time>2022-06-06T12:20:06Z</time>
      </trkpt>
      <trkpt lat="46.08723" lon="5.40691">
        <ele>271.4</ele>
        <time>2022-06-06T12:20:09Z</time>
      </trkpt>
      <trkpt lat="46.08712" lon="5.40686">
        <ele>271.4</ele>
        <time>2022-06-06T12:20:11Z</time>
      </trkpt>
      <trkpt lat="46.08702" lon="5.40683">
        <ele>271.4</ele>
        <time>2022-06-06T12:20:13Z</time>
      </trkpt>
      <trkpt lat="46.08687" lon="5.40677">
        <ele>271.4</ele>
        <time>2022-06-06T12:20:16Z</time>
      </trkpt>
      <trkpt lat="46.08664" lon="5.40667">
        <ele>271.4</ele>
        <time>2022-06-06T12:20:21Z</time>
      </trkpt>
      <trkpt lat="46.08655" lon="5.40646">
        <ele>271.4</ele>
        <time>2022-06-06T12:20:24Z</time>
      </trkpt>
      <trkpt lat="46.08643" lon="5.40634">
        <ele>271.2</ele>
        <time>2022-06-06T12:20:27Z</time>
      </trkpt>
      <trkpt lat="46.08629" lon="5.40634">
        <ele>270.8</ele>
        <time>2022-06-06T12:20:29Z</time>
      </trkpt>
      <trkpt lat="46.08622" lon="5.40634">
        <ele>270.2</ele>
        <time>2022-06-06T12:20:30Z</time>
      </trkpt>
      <trkpt lat="46.08614" lon="5.40634">
        <ele>270</ele>
        <time>2022-06-06T12:20:31Z</time>
      </trkpt>
      <trkpt lat="46.0859" lon="5.40633">
        <ele>268.6</ele>
        <time>2022-06-06T12:20:34Z</time>
      </trkpt>
      <trkpt lat="46.08573" lon="5.40631">
        <ele>268</ele>
        <time>2022-06-06T12:20:36Z</time>
      </trkpt>
      <trkpt lat="46.08547" lon="5.40631">
        <ele>267.6</ele>
        <time>2022-06-06T12:20:39Z</time>
      </trkpt>
      <trkpt lat="46.08539" lon="5.40631">
        <ele>267.4</ele>
        <time>2022-06-06T12:20:40Z</time>
      </trkpt>
      <trkpt lat="46.08522" lon="5.40633">
        <ele>266.6</ele>
        <time>2022-06-06T12:20:42Z</time>
      </trkpt>
      <trkpt lat="46.08513" lon="5.40633">
        <ele>266.4</ele>
        <time>2022-06-06T12:20:43Z</time>
      </trkpt>
      <trkpt lat="46.08504" lon="5.40635">
        <ele>266</ele>
        <time>2022-06-06T12:20:44Z</time>
      </trkpt>
      <trkpt lat="46.0849" lon="5.40647">
        <ele>265.4</ele>
        <time>2022-06-06T12:20:46Z</time>
      </trkpt>
      <trkpt lat="46.08483" lon="5.40668">
        <ele>265.2</ele>
        <time>2022-06-06T12:20:48Z</time>
      </trkpt>
      <trkpt lat="46.08481" lon="5.40683">
        <ele>265</ele>
        <time>2022-06-06T12:20:49Z</time>
      </trkpt>
      <trkpt lat="46.08477" lon="5.40704">
        <ele>264.6</ele>
        <time>2022-06-06T12:20:51Z</time>
      </trkpt>
      <trkpt lat="46.08467" lon="5.40713">
        <ele>264.2</ele>
        <time>2022-06-06T12:20:53Z</time>
      </trkpt>
      <trkpt lat="46.0846" lon="5.40712">
        <ele>264.2</ele>
        <time>2022-06-06T12:20:54Z</time>
      </trkpt>
      <trkpt lat="46.08453" lon="5.40711">
        <ele>264</ele>
        <time>2022-06-06T12:20:55Z</time>
      </trkpt>
      <trkpt lat="46.08437" lon="5.40707">
        <ele>264</ele>
        <time>2022-06-06T12:20:57Z</time>
      </trkpt>
      <trkpt lat="46.08392" lon="5.40697">
        <ele>264.2</ele>
        <time>2022-06-06T12:21:03Z</time>
      </trkpt>
      <trkpt lat="46.08349" lon="5.40689">
        <ele>265.4</ele>
        <time>2022-06-06T12:21:10Z</time>
      </trkpt>
      <trkpt lat="46.08339" lon="5.40687">
        <ele>265.8</ele>
        <time>2022-06-06T12:21:12Z</time>
      </trkpt>
      <trkpt lat="46.08323" lon="5.40685">
        <ele>266.4</ele>
        <time>2022-06-06T12:21:15Z</time>
      </trkpt>
      <trkpt lat="46.08313" lon="5.40683">
        <ele>267.2</ele>
        <time>2022-06-06T12:21:17Z</time>
      </trkpt>
      <trkpt lat="46.08293" lon="5.40681">
        <ele>268.4</ele>
        <time>2022-06-06T12:21:21Z</time>
      </trkpt>
      <trkpt lat="46.08285" lon="5.4068">
        <ele>268.8</ele>
        <time>2022-06-06T12:21:23Z</time>
      </trkpt>
      <trkpt lat="46.08276" lon="5.40676">
        <ele>269.6</ele>
        <time>2022-06-06T12:21:26Z</time>
      </trkpt>
      <trkpt lat="46.08274" lon="5.40675">
        <ele>270.6</ele>
        <time>2022-06-06T12:21:28Z</time>
      </trkpt>
      <trkpt lat="46.08274" lon="5.40675">
        <ele>271.2</ele>
        <time>2022-06-06T12:21:29Z</time>
      </trkpt>
      <trkpt lat="46.08269" lon="5.40677">
        <ele>272</ele>
        <time>2022-06-06T12:21:39Z</time>
      </trkpt>
      <trkpt lat="46.08266" lon="5.40685">
        <ele>272</ele>
        <time>2022-06-06T12:21:41Z</time>
      </trkpt>
      <trkpt lat="46.08262" lon="5.40713">
        <ele>272</ele>
        <time>2022-06-06T12:21:45Z</time>
      </trkpt>
      <trkpt lat="46.0826" lon="5.40721">
        <ele>272</ele>
        <time>2022-06-06T12:21:46Z</time>
      </trkpt>
      <trkpt lat="46.08252" lon="5.40754">
        <ele>272</ele>
        <time>2022-06-06T12:21:50Z</time>
      </trkpt>
      <trkpt lat="46.08235" lon="5.40826">
        <ele>272</ele>
        <time>2022-06-06T12:21:57Z</time>
      </trkpt>
      <trkpt lat="46.08216" lon="5.40906">
        <ele>271.4</ele>
        <time>2022-06-06T12:22:05Z</time>
      </trkpt>
      <trkpt lat="46.08197" lon="5.40984">
        <ele>271.8</ele>
        <time>2022-06-06T12:22:13Z</time>
      </trkpt>
      <trkpt lat="46.08179" lon="5.4106">
        <ele>272</ele>
        <time>2022-06-06T12:22:21Z</time>
      </trkpt>
      <trkpt lat="46.08169" lon="5.41101">
        <ele>272.2</ele>
        <time>2022-06-06T12:22:25Z</time>
      </trkpt>
      <trkpt lat="46.08152" lon="5.41178">
        <ele>272.8</ele>
        <time>2022-06-06T12:22:33Z</time>
      </trkpt>
      <trkpt lat="46.08145" lon="5.41206">
        <ele>273</ele>
        <time>2022-06-06T12:22:36Z</time>
      </trkpt>
      <trkpt lat="46.08132" lon="5.41262">
        <ele>273.4</ele>
        <time>2022-06-06T12:22:42Z</time>
      </trkpt>
      <trkpt lat="46.08126" lon="5.4129">
        <ele>273.8</ele>
        <time>2022-06-06T12:22:45Z</time>
      </trkpt>
      <trkpt lat="46.08114" lon="5.41343">
        <ele>274.4</ele>
        <time>2022-06-06T12:22:51Z</time>
      </trkpt>
      <trkpt lat="46.08105" lon="5.4138">
        <ele>274.6</ele>
        <time>2022-06-06T12:22:55Z</time>
      </trkpt>
      <trkpt lat="46.08088" lon="5.41454">
        <ele>275</ele>
        <time>2022-06-06T12:23:03Z</time>
      </trkpt>
      <trkpt lat="46.08083" lon="5.41479">
        <ele>275.6</ele>
        <time>2022-06-06T12:23:06Z</time>
      </trkpt>
      <trkpt lat="46.08066" lon="5.4155">
        <ele>276.6</ele>
        <time>2022-06-06T12:23:14Z</time>
      </trkpt>
      <trkpt lat="46.08048" lon="5.41632">
        <ele>277.4</ele>
        <time>2022-06-06T12:23:23Z</time>
      </trkpt>
      <trkpt lat="46.0804" lon="5.41667">
        <ele>277.8</ele>
        <time>2022-06-06T12:23:27Z</time>
      </trkpt>
      <trkpt lat="46.08025" lon="5.41734">
        <ele>278.6</ele>
        <time>2022-06-06T12:23:34Z</time>
      </trkpt>
      <trkpt lat="46.08015" lon="5.41779">
        <ele>279</ele>
        <time>2022-06-06T12:23:38Z</time>
      </trkpt>
      <trkpt lat="46.08004" lon="5.41826">
        <ele>279.4</ele>
        <time>2022-06-06T12:23:43Z</time>
      </trkpt>
      <trkpt lat="46.07987" lon="5.41901">
        <ele>280</ele>
        <time>2022-06-06T12:23:51Z</time>
      </trkpt>
      <trkpt lat="46.07983" lon="5.41921">
        <ele>280.2</ele>
        <time>2022-06-06T12:23:53Z</time>
      </trkpt>
      <trkpt lat="46.07971" lon="5.41973">
        <ele>281</ele>
        <time>2022-06-06T12:23:59Z</time>
      </trkpt>
      <trkpt lat="46.07965" lon="5.42001">
        <ele>281.2</ele>
        <time>2022-06-06T12:24:02Z</time>
      </trkpt>
      <trkpt lat="46.07948" lon="5.42076">
        <ele>282</ele>
        <time>2022-06-06T12:24:10Z</time>
      </trkpt>
      <trkpt lat="46.07936" lon="5.42126">
        <ele>282</ele>
        <time>2022-06-06T12:24:15Z</time>
      </trkpt>
      <trkpt lat="46.07918" lon="5.42209">
        <ele>281.8</ele>
        <time>2022-06-06T12:24:23Z</time>
      </trkpt>
      <trkpt lat="46.07916" lon="5.4222">
        <ele>282</ele>
        <time>2022-06-06T12:24:24Z</time>
      </trkpt>
      <trkpt lat="46.07909" lon="5.4225">
        <ele>282</ele>
        <time>2022-06-06T12:24:27Z</time>
      </trkpt>
      <trkpt lat="46.07891" lon="5.42332">
        <ele>282.4</ele>
        <time>2022-06-06T12:24:35Z</time>
      </trkpt>
      <trkpt lat="46.07891" lon="5.42332">
        <ele>282.4</ele>
        <time>2022-06-06T12:24:36Z</time>
      </trkpt>
      <trkpt lat="46.07876" lon="5.424">
        <ele>282.8</ele>
        <time>2022-06-06T12:24:42Z</time>
      </trkpt>
      <trkpt lat="46.07869" lon="5.42428">
        <ele>283.2</ele>
        <time>2022-06-06T12:24:45Z</time>
      </trkpt>
      <trkpt lat="46.07857" lon="5.42483">
        <ele>284</ele>
        <time>2022-06-06T12:24:51Z</time>
      </trkpt>
      <trkpt lat="46.07854" lon="5.42494">
        <ele>284.2</ele>
        <time>2022-06-06T12:24:52Z</time>
      </trkpt>
      <trkpt lat="46.07841" lon="5.42557">
        <ele>285</ele>
        <time>2022-06-06T12:24:59Z</time>
      </trkpt>
      <trkpt lat="46.07832" lon="5.42595">
        <ele>285.4</ele>
        <time>2022-06-06T12:25:03Z</time>
      </trkpt>
      <trkpt lat="46.0782" lon="5.42648">
        <ele>285.6</ele>
        <time>2022-06-06T12:25:09Z</time>
      </trkpt>
      <trkpt lat="46.07802" lon="5.42728">
        <ele>286.4</ele>
        <time>2022-06-06T12:25:18Z</time>
      </trkpt>
      <trkpt lat="46.078" lon="5.42735">
        <ele>286.4</ele>
        <time>2022-06-06T12:25:19Z</time>
      </trkpt>
      <trkpt lat="46.07783" lon="5.4281">
        <ele>287</ele>
        <time>2022-06-06T12:25:27Z</time>
      </trkpt>
      <trkpt lat="46.07781" lon="5.42819">
        <ele>287</ele>
        <time>2022-06-06T12:25:28Z</time>
      </trkpt>
      <trkpt lat="46.07765" lon="5.42888">
        <ele>287.2</ele>
        <time>2022-06-06T12:25:36Z</time>
      </trkpt>
      <trkpt lat="46.07757" lon="5.42924">
        <ele>287.6</ele>
        <time>2022-06-06T12:25:40Z</time>
      </trkpt>
      <trkpt lat="46.0775" lon="5.42949">
        <ele>288.2</ele>
        <time>2022-06-06T12:25:43Z</time>
      </trkpt>
      <trkpt lat="46.07749" lon="5.42958">
        <ele>288.2</ele>
        <time>2022-06-06T12:25:44Z</time>
      </trkpt>
      <trkpt lat="46.07747" lon="5.42965">
        <ele>288.4</ele>
        <time>2022-06-06T12:25:45Z</time>
      </trkpt>
      <trkpt lat="46.07742" lon="5.42983">
        <ele>288.6</ele>
        <time>2022-06-06T12:25:47Z</time>
      </trkpt>
      <trkpt lat="46.07728" lon="5.43045">
        <ele>289.2</ele>
        <time>2022-06-06T12:25:54Z</time>
      </trkpt>
      <trkpt lat="46.0771" lon="5.43127">
        <ele>289.6</ele>
        <time>2022-06-06T12:26:03Z</time>
      </trkpt>
      <trkpt lat="46.07705" lon="5.43146">
        <ele>289.6</ele>
        <time>2022-06-06T12:26:05Z</time>
      </trkpt>
      <trkpt lat="46.07696" lon="5.43184">
        <ele>289.6</ele>
        <time>2022-06-06T12:26:09Z</time>
      </trkpt>
      <trkpt lat="46.07687" lon="5.43223">
        <ele>290.2</ele>
        <time>2022-06-06T12:26:13Z</time>
      </trkpt>
      <trkpt lat="46.07668" lon="5.43308">
        <ele>290.6</ele>
        <time>2022-06-06T12:26:22Z</time>
      </trkpt>
      <trkpt lat="46.0766" lon="5.43347">
        <ele>290.8</ele>
        <time>2022-06-06T12:26:26Z</time>
      </trkpt>
      <trkpt lat="46.07641" lon="5.43429">
        <ele>291.4</ele>
        <time>2022-06-06T12:26:35Z</time>
      </trkpt>
      <trkpt lat="46.07639" lon="5.43438">
        <ele>291.6</ele>
        <time>2022-06-06T12:26:36Z</time>
      </trkpt>
      <trkpt lat="46.07629" lon="5.43483">
        <ele>292</ele>
        <time>2022-06-06T12:26:41Z</time>
      </trkpt>
      <trkpt lat="46.07612" lon="5.43556">
        <ele>292.6</ele>
        <time>2022-06-06T12:26:49Z</time>
      </trkpt>
      <trkpt lat="46.07602" lon="5.43601">
        <ele>293</ele>
        <time>2022-06-06T12:26:54Z</time>
      </trkpt>
      <trkpt lat="46.07592" lon="5.43646">
        <ele>293.4</ele>
        <time>2022-06-06T12:26:59Z</time>
      </trkpt>
      <trkpt lat="46.07574" lon="5.43724">
        <ele>294</ele>
        <time>2022-06-06T12:27:08Z</time>
      </trkpt>
      <trkpt lat="46.07572" lon="5.43733">
        <ele>294</ele>
        <time>2022-06-06T12:27:09Z</time>
      </trkpt>
      <trkpt lat="46.07554" lon="5.43813">
        <ele>294.6</ele>
        <time>2022-06-06T12:27:18Z</time>
      </trkpt>
      <trkpt lat="46.07546" lon="5.4385">
        <ele>294.8</ele>
        <time>2022-06-06T12:27:22Z</time>
      </trkpt>
      <trkpt lat="46.07535" lon="5.43895">
        <ele>295</ele>
        <time>2022-06-06T12:27:27Z</time>
      </trkpt>
      <trkpt lat="46.07525" lon="5.43938">
        <ele>295.4</ele>
        <time>2022-06-06T12:27:32Z</time>
      </trkpt>
      <trkpt lat="46.07519" lon="5.43964">
        <ele>295.8</ele>
        <time>2022-06-06T12:27:35Z</time>
      </trkpt>
      <trkpt lat="46.07515" lon="5.43981">
        <ele>296.2</ele>
        <time>2022-06-06T12:27:37Z</time>
      </trkpt>
      <trkpt lat="46.07504" lon="5.44034">
        <ele>297</ele>
        <time>2022-06-06T12:27:43Z</time>
      </trkpt>
      <trkpt lat="46.07498" lon="5.44061">
        <ele>297.2</ele>
        <time>2022-06-06T12:27:46Z</time>
      </trkpt>
      <trkpt lat="46.07488" lon="5.44105">
        <ele>297.4</ele>
        <time>2022-06-06T12:27:51Z</time>
      </trkpt>
      <trkpt lat="46.07476" lon="5.44159">
        <ele>297.8</ele>
        <time>2022-06-06T12:27:57Z</time>
      </trkpt>
      <trkpt lat="46.07474" lon="5.44168">
        <ele>298</ele>
        <time>2022-06-06T12:27:58Z</time>
      </trkpt>
      <trkpt lat="46.07472" lon="5.44177">
        <ele>298.2</ele>
        <time>2022-06-06T12:27:59Z</time>
      </trkpt>
      <trkpt lat="46.07463" lon="5.44221">
        <ele>298.6</ele>
        <time>2022-06-06T12:28:04Z</time>
      </trkpt>
      <trkpt lat="46.07452" lon="5.44264">
        <ele>299</ele>
        <time>2022-06-06T12:28:09Z</time>
      </trkpt>
      <trkpt lat="46.07444" lon="5.44299">
        <ele>299.8</ele>
        <time>2022-06-06T12:28:13Z</time>
      </trkpt>
      <trkpt lat="46.07439" lon="5.44325">
        <ele>300.2</ele>
        <time>2022-06-06T12:28:16Z</time>
      </trkpt>
      <trkpt lat="46.07427" lon="5.44374">
        <ele>300.6</ele>
        <time>2022-06-06T12:28:22Z</time>
      </trkpt>
      <trkpt lat="46.07413" lon="5.44431">
        <ele>301.2</ele>
        <time>2022-06-06T12:28:29Z</time>
      </trkpt>
      <trkpt lat="46.07409" lon="5.44448">
        <ele>301.4</ele>
        <time>2022-06-06T12:28:31Z</time>
      </trkpt>
      <trkpt lat="46.07404" lon="5.44474">
        <ele>301.4</ele>
        <time>2022-06-06T12:28:34Z</time>
      </trkpt>
      <trkpt lat="46.07399" lon="5.44509">
        <ele>302</ele>
        <time>2022-06-06T12:28:38Z</time>
      </trkpt>
      <trkpt lat="46.07397" lon="5.44527">
        <ele>302.2</ele>
        <time>2022-06-06T12:28:40Z</time>
      </trkpt>
      <trkpt lat="46.07393" lon="5.44584">
        <ele>302.4</ele>
        <time>2022-06-06T12:28:46Z</time>
      </trkpt>
      <trkpt lat="46.07389" lon="5.44652">
        <ele>302</ele>
        <time>2022-06-06T12:28:53Z</time>
      </trkpt>
      <trkpt lat="46.07384" lon="5.44708">
        <ele>302</ele>
        <time>2022-06-06T12:28:59Z</time>
      </trkpt>
      <trkpt lat="46.0738" lon="5.44758">
        <ele>302.8</ele>
        <time>2022-06-06T12:29:05Z</time>
      </trkpt>
      <trkpt lat="46.0738" lon="5.44784">
        <ele>303.4</ele>
        <time>2022-06-06T12:29:08Z</time>
      </trkpt>
      <trkpt lat="46.07378" lon="5.44811">
        <ele>303.8</ele>
        <time>2022-06-06T12:29:11Z</time>
      </trkpt>
      <trkpt lat="46.07377" lon="5.44847">
        <ele>304.6</ele>
        <time>2022-06-06T12:29:15Z</time>
      </trkpt>
      <trkpt lat="46.07377" lon="5.44864">
        <ele>304.8</ele>
        <time>2022-06-06T12:29:17Z</time>
      </trkpt>
      <trkpt lat="46.07379" lon="5.44892">
        <ele>305.2</ele>
        <time>2022-06-06T12:29:20Z</time>
      </trkpt>
      <trkpt lat="46.0738" lon="5.44915">
        <ele>305.6</ele>
        <time>2022-06-06T12:29:23Z</time>
      </trkpt>
      <trkpt lat="46.07382" lon="5.44942">
        <ele>305.8</ele>
        <time>2022-06-06T12:29:26Z</time>
      </trkpt>
      <trkpt lat="46.07387" lon="5.45006">
        <ele>306.6</ele>
        <time>2022-06-06T12:29:34Z</time>
      </trkpt>
      <trkpt lat="46.07389" lon="5.45023">
        <ele>307</ele>
        <time>2022-06-06T12:29:36Z</time>
      </trkpt>
      <trkpt lat="46.07397" lon="5.45076">
        <ele>307.6</ele>
        <time>2022-06-06T12:29:43Z</time>
      </trkpt>
      <trkpt lat="46.07392" lon="5.45089">
        <ele>307.8</ele>
        <time>2022-06-06T12:29:45Z</time>
      </trkpt>
      <trkpt lat="46.07388" lon="5.45093">
        <ele>307.8</ele>
        <time>2022-06-06T12:29:46Z</time>
      </trkpt>
      <trkpt lat="46.07384" lon="5.45095">
        <ele>307.8</ele>
        <time>2022-06-06T12:29:47Z</time>
      </trkpt>
      <trkpt lat="46.07368" lon="5.45102">
        <ele>308</ele>
        <time>2022-06-06T12:29:50Z</time>
      </trkpt>
      <trkpt lat="46.07356" lon="5.45107">
        <ele>308.2</ele>
        <time>2022-06-06T12:29:52Z</time>
      </trkpt>
      <trkpt lat="46.07341" lon="5.45119">
        <ele>308.6</ele>
        <time>2022-06-06T12:29:55Z</time>
      </trkpt>
      <trkpt lat="46.07328" lon="5.45135">
        <ele>308.8</ele>
        <time>2022-06-06T12:29:58Z</time>
      </trkpt>
      <trkpt lat="46.07303" lon="5.45161">
        <ele>309</ele>
        <time>2022-06-06T12:30:03Z</time>
      </trkpt>
      <trkpt lat="46.07286" lon="5.45173">
        <ele>309</ele>
        <time>2022-06-06T12:30:06Z</time>
      </trkpt>
      <trkpt lat="46.07269" lon="5.45182">
        <ele>309</ele>
        <time>2022-06-06T12:30:09Z</time>
      </trkpt>
      <trkpt lat="46.07258" lon="5.45186">
        <ele>309</ele>
        <time>2022-06-06T12:30:11Z</time>
      </trkpt>
      <trkpt lat="46.07235" lon="5.45191">
        <ele>308.8</ele>
        <time>2022-06-06T12:30:15Z</time>
      </trkpt>
      <trkpt lat="46.07196" lon="5.45209">
        <ele>308.8</ele>
        <time>2022-06-06T12:30:22Z</time>
      </trkpt>
      <trkpt lat="46.07159" lon="5.45227">
        <ele>309.2</ele>
        <time>2022-06-06T12:30:29Z</time>
      </trkpt>
      <trkpt lat="46.0712" lon="5.45246">
        <ele>310</ele>
        <time>2022-06-06T12:30:37Z</time>
      </trkpt>
      <trkpt lat="46.0708" lon="5.45266">
        <ele>311</ele>
        <time>2022-06-06T12:30:45Z</time>
      </trkpt>
      <trkpt lat="46.07066" lon="5.45274">
        <ele>311.6</ele>
        <time>2022-06-06T12:30:48Z</time>
      </trkpt>
      <trkpt lat="46.07056" lon="5.45278">
        <ele>311.8</ele>
        <time>2022-06-06T12:30:50Z</time>
      </trkpt>
      <trkpt lat="46.07046" lon="5.45281">
        <ele>312</ele>
        <time>2022-06-06T12:30:52Z</time>
      </trkpt>
      <trkpt lat="46.07037" lon="5.45284">
        <ele>312.4</ele>
        <time>2022-06-06T12:30:54Z</time>
      </trkpt>
      <trkpt lat="46.07032" lon="5.45285">
        <ele>312.4</ele>
        <time>2022-06-06T12:30:55Z</time>
      </trkpt>
      <trkpt lat="46.06995" lon="5.45285">
        <ele>313</ele>
        <time>2022-06-06T12:31:02Z</time>
      </trkpt>
      <trkpt lat="46.0699" lon="5.45285">
        <ele>313.2</ele>
        <time>2022-06-06T12:31:03Z</time>
      </trkpt>
      <trkpt lat="46.06985" lon="5.45284">
        <ele>313.2</ele>
        <time>2022-06-06T12:31:04Z</time>
      </trkpt>
      <trkpt lat="46.06961" lon="5.45279">
        <ele>314</ele>
        <time>2022-06-06T12:31:09Z</time>
      </trkpt>
      <trkpt lat="46.06955" lon="5.45279">
        <ele>314.2</ele>
        <time>2022-06-06T12:31:10Z</time>
      </trkpt>
      <trkpt lat="46.06929" lon="5.45285">
        <ele>314.4</ele>
        <time>2022-06-06T12:31:15Z</time>
      </trkpt>
      <trkpt lat="46.06874" lon="5.45303">
        <ele>314.6</ele>
        <time>2022-06-06T12:31:26Z</time>
      </trkpt>
      <trkpt lat="46.06854" lon="5.45311">
        <ele>315.4</ele>
        <time>2022-06-06T12:31:30Z</time>
      </trkpt>
      <trkpt lat="46.06829" lon="5.4532">
        <ele>316</ele>
        <time>2022-06-06T12:31:35Z</time>
      </trkpt>
      <trkpt lat="46.06799" lon="5.45331">
        <ele>316.4</ele>
        <time>2022-06-06T12:31:41Z</time>
      </trkpt>
      <trkpt lat="46.06777" lon="5.4534">
        <ele>317</ele>
        <time>2022-06-06T12:31:46Z</time>
      </trkpt>
      <trkpt lat="46.06767" lon="5.45343">
        <ele>317.2</ele>
        <time>2022-06-06T12:31:48Z</time>
      </trkpt>
      <trkpt lat="46.06762" lon="5.45345">
        <ele>317.4</ele>
        <time>2022-06-06T12:31:49Z</time>
      </trkpt>
      <trkpt lat="46.06757" lon="5.45347">
        <ele>317.6</ele>
        <time>2022-06-06T12:31:50Z</time>
      </trkpt>
      <trkpt lat="46.06742" lon="5.45354">
        <ele>318</ele>
        <time>2022-06-06T12:31:53Z</time>
      </trkpt>
      <trkpt lat="46.06732" lon="5.45359">
        <ele>318.2</ele>
        <time>2022-06-06T12:31:55Z</time>
      </trkpt>
      <trkpt lat="46.06706" lon="5.45365">
        <ele>319</ele>
        <time>2022-06-06T12:32:00Z</time>
      </trkpt>
      <trkpt lat="46.06681" lon="5.45372">
        <ele>319.2</ele>
        <time>2022-06-06T12:32:05Z</time>
      </trkpt>
      <trkpt lat="46.06666" lon="5.45376">
        <ele>319.6</ele>
        <time>2022-06-06T12:32:08Z</time>
      </trkpt>
      <trkpt lat="46.06612" lon="5.45389">
        <ele>320.8</ele>
        <time>2022-06-06T12:32:18Z</time>
      </trkpt>
      <trkpt lat="46.06555" lon="5.45404">
        <ele>321.6</ele>
        <time>2022-06-06T12:32:29Z</time>
      </trkpt>
      <trkpt lat="46.0654" lon="5.45409">
        <ele>321.8</ele>
        <time>2022-06-06T12:32:32Z</time>
      </trkpt>
      <trkpt lat="46.0652" lon="5.45416">
        <ele>322.6</ele>
        <time>2022-06-06T12:32:36Z</time>
      </trkpt>
      <trkpt lat="46.06506" lon="5.45425">
        <ele>323</ele>
        <time>2022-06-06T12:32:39Z</time>
      </trkpt>
      <trkpt lat="46.06497" lon="5.45434">
        <ele>323.4</ele>
        <time>2022-06-06T12:32:41Z</time>
      </trkpt>
      <trkpt lat="46.06472" lon="5.45472">
        <ele>323.8</ele>
        <time>2022-06-06T12:32:48Z</time>
      </trkpt>
      <trkpt lat="46.06463" lon="5.4549">
        <ele>324.2</ele>
        <time>2022-06-06T12:32:51Z</time>
      </trkpt>
      <trkpt lat="46.0646" lon="5.45496">
        <ele>324.2</ele>
        <time>2022-06-06T12:32:52Z</time>
      </trkpt>
      <trkpt lat="46.06455" lon="5.45509">
        <ele>324.6</ele>
        <time>2022-06-06T12:32:54Z</time>
      </trkpt>
      <trkpt lat="46.06446" lon="5.45541">
        <ele>325</ele>
        <time>2022-06-06T12:32:59Z</time>
      </trkpt>
      <trkpt lat="46.06443" lon="5.45546">
        <ele>325.4</ele>
        <time>2022-06-06T12:33:00Z</time>
      </trkpt>
      <trkpt lat="46.06436" lon="5.45554">
        <ele>325.8</ele>
        <time>2022-06-06T12:33:02Z</time>
      </trkpt>
      <trkpt lat="46.06423" lon="5.4556">
        <ele>326.6</ele>
        <time>2022-06-06T12:33:05Z</time>
      </trkpt>
      <trkpt lat="46.06414" lon="5.4556">
        <ele>327.2</ele>
        <time>2022-06-06T12:33:07Z</time>
      </trkpt>
      <trkpt lat="46.0641" lon="5.45561">
        <ele>327.2</ele>
        <time>2022-06-06T12:33:08Z</time>
      </trkpt>
      <trkpt lat="46.06405" lon="5.4556">
        <ele>327.4</ele>
        <time>2022-06-06T12:33:09Z</time>
      </trkpt>
      <trkpt lat="46.06397" lon="5.45557">
        <ele>327.8</ele>
        <time>2022-06-06T12:33:11Z</time>
      </trkpt>
      <trkpt lat="46.06388" lon="5.45554">
        <ele>328</ele>
        <time>2022-06-06T12:33:13Z</time>
      </trkpt>
      <trkpt lat="46.06384" lon="5.45553">
        <ele>328.4</ele>
        <time>2022-06-06T12:33:14Z</time>
      </trkpt>
      <trkpt lat="46.06375" lon="5.45552">
        <ele>329.4</ele>
        <time>2022-06-06T12:33:16Z</time>
      </trkpt>
      <trkpt lat="46.06362" lon="5.45554">
        <ele>329.8</ele>
        <time>2022-06-06T12:33:19Z</time>
      </trkpt>
      <trkpt lat="46.06358" lon="5.45555">
        <ele>330.4</ele>
        <time>2022-06-06T12:33:20Z</time>
      </trkpt>
      <trkpt lat="46.06354" lon="5.45557">
        <ele>331</ele>
        <time>2022-06-06T12:33:21Z</time>
      </trkpt>
      <trkpt lat="46.06346" lon="5.45559">
        <ele>331.4</ele>
        <time>2022-06-06T12:33:23Z</time>
      </trkpt>
      <trkpt lat="46.06335" lon="5.45564">
        <ele>332</ele>
        <time>2022-06-06T12:33:26Z</time>
      </trkpt>
      <trkpt lat="46.06331" lon="5.45566">
        <ele>332.4</ele>
        <time>2022-06-06T12:33:27Z</time>
      </trkpt>
      <trkpt lat="46.06315" lon="5.45575">
        <ele>333.6</ele>
        <time>2022-06-06T12:33:32Z</time>
      </trkpt>
      <trkpt lat="46.06299" lon="5.45583">
        <ele>334.4</ele>
        <time>2022-06-06T12:33:37Z</time>
      </trkpt>
      <trkpt lat="46.06295" lon="5.45584">
        <ele>334.6</ele>
        <time>2022-06-06T12:33:38Z</time>
      </trkpt>
      <trkpt lat="46.06278" lon="5.45598">
        <ele>335.6</ele>
        <time>2022-06-06T12:33:44Z</time>
      </trkpt>
      <trkpt lat="46.0626" lon="5.45608">
        <ele>336.8</ele>
        <time>2022-06-06T12:33:49Z</time>
      </trkpt>
      <trkpt lat="46.06254" lon="5.45612">
        <ele>337</ele>
        <time>2022-06-06T12:33:51Z</time>
      </trkpt>
      <trkpt lat="46.06239" lon="5.4562">
        <ele>337.8</ele>
        <time>2022-06-06T12:33:55Z</time>
      </trkpt>
      <trkpt lat="46.06229" lon="5.45625">
        <ele>338.4</ele>
        <time>2022-06-06T12:33:58Z</time>
      </trkpt>
      <trkpt lat="46.06223" lon="5.4563">
        <ele>338.8</ele>
        <time>2022-06-06T12:34:00Z</time>
      </trkpt>
      <trkpt lat="46.06211" lon="5.45643">
        <ele>339.4</ele>
        <time>2022-06-06T12:34:04Z</time>
      </trkpt>
      <trkpt lat="46.06204" lon="5.45649">
        <ele>339.8</ele>
        <time>2022-06-06T12:34:06Z</time>
      </trkpt>
      <trkpt lat="46.0618" lon="5.45667">
        <ele>340.8</ele>
        <time>2022-06-06T12:34:12Z</time>
      </trkpt>
      <trkpt lat="46.06176" lon="5.4567">
        <ele>340.8</ele>
        <time>2022-06-06T12:34:13Z</time>
      </trkpt>
      <trkpt lat="46.06168" lon="5.45675">
        <ele>341</ele>
        <time>2022-06-06T12:34:15Z</time>
      </trkpt>
      <trkpt lat="46.06161" lon="5.45681">
        <ele>341.4</ele>
        <time>2022-06-06T12:34:17Z</time>
      </trkpt>
      <trkpt lat="46.06157" lon="5.45685">
        <ele>341.4</ele>
        <time>2022-06-06T12:34:18Z</time>
      </trkpt>
      <trkpt lat="46.06154" lon="5.4569">
        <ele>341.6</ele>
        <time>2022-06-06T12:34:19Z</time>
      </trkpt>
      <trkpt lat="46.06144" lon="5.45704">
        <ele>341.8</ele>
        <time>2022-06-06T12:34:22Z</time>
      </trkpt>
      <trkpt lat="46.06142" lon="5.4571">
        <ele>342</ele>
        <time>2022-06-06T12:34:23Z</time>
      </trkpt>
      <trkpt lat="46.06138" lon="5.45723">
        <ele>342.2</ele>
        <time>2022-06-06T12:34:25Z</time>
      </trkpt>
      <trkpt lat="46.06131" lon="5.4575">
        <ele>342.8</ele>
        <time>2022-06-06T12:34:29Z</time>
      </trkpt>
      <trkpt lat="46.0613" lon="5.45757">
        <ele>343</ele>
        <time>2022-06-06T12:34:30Z</time>
      </trkpt>
      <trkpt lat="46.06125" lon="5.45775">
        <ele>343</ele>
        <time>2022-06-06T12:34:33Z</time>
      </trkpt>
      <trkpt lat="46.06126" lon="5.45788">
        <ele>343.6</ele>
        <time>2022-06-06T12:34:35Z</time>
      </trkpt>
      <trkpt lat="46.06127" lon="5.45795">
        <ele>343.8</ele>
        <time>2022-06-06T12:34:36Z</time>
      </trkpt>
      <trkpt lat="46.0613" lon="5.45816">
        <ele>344.4</ele>
        <time>2022-06-06T12:34:39Z</time>
      </trkpt>
      <trkpt lat="46.06131" lon="5.45827">
        <ele>344.8</ele>
        <time>2022-06-06T12:34:41Z</time>
      </trkpt>
      <trkpt lat="46.06135" lon="5.45842">
        <ele>346</ele>
        <time>2022-06-06T12:34:44Z</time>
      </trkpt>
      <trkpt lat="46.06137" lon="5.45849">
        <ele>346.8</ele>
        <time>2022-06-06T12:34:46Z</time>
      </trkpt>
      <trkpt lat="46.06137" lon="5.45854">
        <ele>347</ele>
        <time>2022-06-06T12:34:47Z</time>
      </trkpt>
      <trkpt lat="46.06139" lon="5.45872">
        <ele>347.8</ele>
        <time>2022-06-06T12:34:50Z</time>
      </trkpt>
      <trkpt lat="46.0614" lon="5.45882">
        <ele>348.4</ele>
        <time>2022-06-06T12:34:52Z</time>
      </trkpt>
      <trkpt lat="46.0614" lon="5.45892">
        <ele>349.6</ele>
        <time>2022-06-06T12:34:54Z</time>
      </trkpt>
      <trkpt lat="46.06135" lon="5.45902">
        <ele>350.2</ele>
        <time>2022-06-06T12:34:57Z</time>
      </trkpt>
      <trkpt lat="46.06133" lon="5.45906">
        <ele>350.6</ele>
        <time>2022-06-06T12:34:58Z</time>
      </trkpt>
      <trkpt lat="46.0613" lon="5.45916">
        <ele>351.4</ele>
        <time>2022-06-06T12:35:00Z</time>
      </trkpt>
      <trkpt lat="46.06128" lon="5.4592">
        <ele>351.8</ele>
        <time>2022-06-06T12:35:01Z</time>
      </trkpt>
      <trkpt lat="46.06118" lon="5.45935">
        <ele>353</ele>
        <time>2022-06-06T12:35:06Z</time>
      </trkpt>
      <trkpt lat="46.06116" lon="5.45938">
        <ele>353.2</ele>
        <time>2022-06-06T12:35:07Z</time>
      </trkpt>
      <trkpt lat="46.06111" lon="5.45947">
        <ele>354</ele>
        <time>2022-06-06T12:35:10Z</time>
      </trkpt>
      <trkpt lat="46.06105" lon="5.45955">
        <ele>355</ele>
        <time>2022-06-06T12:35:13Z</time>
      </trkpt>
      <trkpt lat="46.06102" lon="5.45961">
        <ele>355.2</ele>
        <time>2022-06-06T12:35:15Z</time>
      </trkpt>
      <trkpt lat="46.06096" lon="5.45969">
        <ele>356.2</ele>
        <time>2022-06-06T12:35:18Z</time>
      </trkpt>
      <trkpt lat="46.06094" lon="5.45971">
        <ele>356.8</ele>
        <time>2022-06-06T12:35:19Z</time>
      </trkpt>
      <trkpt lat="46.0609" lon="5.45981">
        <ele>357.4</ele>
        <time>2022-06-06T12:35:23Z</time>
      </trkpt>
      <trkpt lat="46.06086" lon="5.45989">
        <ele>357.8</ele>
        <time>2022-06-06T12:35:26Z</time>
      </trkpt>
      <trkpt lat="46.06084" lon="5.45992">
        <ele>358</ele>
        <time>2022-06-06T12:35:27Z</time>
      </trkpt>
      <trkpt lat="46.06073" lon="5.46011">
        <ele>358.8</ele>
        <time>2022-06-06T12:35:31Z</time>
      </trkpt>
      <trkpt lat="46.06071" lon="5.4602">
        <ele>359</ele>
        <time>2022-06-06T12:35:33Z</time>
      </trkpt>
      <trkpt lat="46.06071" lon="5.46036">
        <ele>359.8</ele>
        <time>2022-06-06T12:35:37Z</time>
      </trkpt>
      <trkpt lat="46.06072" lon="5.4604">
        <ele>360.2</ele>
        <time>2022-06-06T12:35:38Z</time>
      </trkpt>
      <trkpt lat="46.06073" lon="5.46044">
        <ele>360.4</ele>
        <time>2022-06-06T12:35:39Z</time>
      </trkpt>
      <trkpt lat="46.06075" lon="5.46046">
        <ele>361</ele>
        <time>2022-06-06T12:35:42Z</time>
      </trkpt>
      <trkpt lat="46.06077" lon="5.46048">
        <ele>361.4</ele>
        <time>2022-06-06T12:35:43Z</time>
      </trkpt>
      <trkpt lat="46.06089" lon="5.46051">
        <ele>362.2</ele>
        <time>2022-06-06T12:35:47Z</time>
      </trkpt>
      <trkpt lat="46.06092" lon="5.4605">
        <ele>362.6</ele>
        <time>2022-06-06T12:35:48Z</time>
      </trkpt>
      <trkpt lat="46.06108" lon="5.4605">
        <ele>363.6</ele>
        <time>2022-06-06T12:35:53Z</time>
      </trkpt>
      <trkpt lat="46.06111" lon="5.46051">
        <ele>363.6</ele>
        <time>2022-06-06T12:35:54Z</time>
      </trkpt>
      <trkpt lat="46.06123" lon="5.46054">
        <ele>364.8</ele>
        <time>2022-06-06T12:35:58Z</time>
      </trkpt>
      <trkpt lat="46.06126" lon="5.46055">
        <ele>365</ele>
        <time>2022-06-06T12:35:59Z</time>
      </trkpt>
      <trkpt lat="46.06137" lon="5.46064">
        <ele>365.8</ele>
        <time>2022-06-06T12:36:03Z</time>
      </trkpt>
      <trkpt lat="46.06142" lon="5.46069">
        <ele>366.4</ele>
        <time>2022-06-06T12:36:05Z</time>
      </trkpt>
      <trkpt lat="46.06147" lon="5.46074">
        <ele>366.8</ele>
        <time>2022-06-06T12:36:07Z</time>
      </trkpt>
      <trkpt lat="46.06154" lon="5.46082">
        <ele>368</ele>
        <time>2022-06-06T12:36:10Z</time>
      </trkpt>
      <trkpt lat="46.06159" lon="5.4609">
        <ele>368.6</ele>
        <time>2022-06-06T12:36:12Z</time>
      </trkpt>
      <trkpt lat="46.06164" lon="5.46096">
        <ele>369</ele>
        <time>2022-06-06T12:36:14Z</time>
      </trkpt>
      <trkpt lat="46.06175" lon="5.46109">
        <ele>369.6</ele>
        <time>2022-06-06T12:36:18Z</time>
      </trkpt>
      <trkpt lat="46.06179" lon="5.46115">
        <ele>370.2</ele>
        <time>2022-06-06T12:36:20Z</time>
      </trkpt>
      <trkpt lat="46.06185" lon="5.46128">
        <ele>371</ele>
        <time>2022-06-06T12:36:24Z</time>
      </trkpt>
      <trkpt lat="46.06186" lon="5.46131">
        <ele>371.4</ele>
        <time>2022-06-06T12:36:25Z</time>
      </trkpt>
      <trkpt lat="46.06193" lon="5.46149">
        <ele>372.4</ele>
        <time>2022-06-06T12:36:30Z</time>
      </trkpt>
      <trkpt lat="46.06195" lon="5.46164">
        <ele>373.2</ele>
        <time>2022-06-06T12:36:35Z</time>
      </trkpt>
      <trkpt lat="46.06197" lon="5.46169">
        <ele>373.6</ele>
        <time>2022-06-06T12:36:36Z</time>
      </trkpt>
      <trkpt lat="46.06201" lon="5.46186">
        <ele>374.6</ele>
        <time>2022-06-06T12:36:40Z</time>
      </trkpt>
      <trkpt lat="46.06201" lon="5.4619">
        <ele>375</ele>
        <time>2022-06-06T12:36:41Z</time>
      </trkpt>
      <trkpt lat="46.06204" lon="5.46208">
        <ele>376</ele>
        <time>2022-06-06T12:36:46Z</time>
      </trkpt>
      <trkpt lat="46.06205" lon="5.46211">
        <ele>376.2</ele>
        <time>2022-06-06T12:36:47Z</time>
      </trkpt>
      <trkpt lat="46.06209" lon="5.46224">
        <ele>377.4</ele>
        <time>2022-06-06T12:36:51Z</time>
      </trkpt>
      <trkpt lat="46.06217" lon="5.46235">
        <ele>377.8</ele>
        <time>2022-06-06T12:36:54Z</time>
      </trkpt>
      <trkpt lat="46.06225" lon="5.46247">
        <ele>378.4</ele>
        <time>2022-06-06T12:36:58Z</time>
      </trkpt>
      <trkpt lat="46.06239" lon="5.46266">
        <ele>379.2</ele>
        <time>2022-06-06T12:37:03Z</time>
      </trkpt>
      <trkpt lat="46.06241" lon="5.46268">
        <ele>379.4</ele>
        <time>2022-06-06T12:37:04Z</time>
      </trkpt>
      <trkpt lat="46.06254" lon="5.46278">
        <ele>380.6</ele>
        <time>2022-06-06T12:37:09Z</time>
      </trkpt>
      <trkpt lat="46.06259" lon="5.46299">
        <ele>381.8</ele>
        <time>2022-06-06T12:37:14Z</time>
      </trkpt>
      <trkpt lat="46.06258" lon="5.46304">
        <ele>381.8</ele>
        <time>2022-06-06T12:37:15Z</time>
      </trkpt>
      <trkpt lat="46.06259" lon="5.46317">
        <ele>383</ele>
        <time>2022-06-06T12:37:18Z</time>
      </trkpt>
      <trkpt lat="46.0626" lon="5.4633">
        <ele>383.6</ele>
        <time>2022-06-06T12:37:21Z</time>
      </trkpt>
      <trkpt lat="46.06259" lon="5.46338">
        <ele>384</ele>
        <time>2022-06-06T12:37:23Z</time>
      </trkpt>
      <trkpt lat="46.06258" lon="5.46355">
        <ele>385</ele>
        <time>2022-06-06T12:37:27Z</time>
      </trkpt>
      <trkpt lat="46.06257" lon="5.46362">
        <ele>385.4</ele>
        <time>2022-06-06T12:37:29Z</time>
      </trkpt>
      <trkpt lat="46.06255" lon="5.46373">
        <ele>386.6</ele>
        <time>2022-06-06T12:37:32Z</time>
      </trkpt>
      <trkpt lat="46.06254" lon="5.46376">
        <ele>387</ele>
        <time>2022-06-06T12:37:33Z</time>
      </trkpt>
      <trkpt lat="46.06251" lon="5.46392">
        <ele>387.8</ele>
        <time>2022-06-06T12:37:37Z</time>
      </trkpt>
      <trkpt lat="46.06249" lon="5.46398">
        <ele>388.2</ele>
        <time>2022-06-06T12:37:39Z</time>
      </trkpt>
      <trkpt lat="46.06245" lon="5.46412">
        <ele>388.8</ele>
        <time>2022-06-06T12:37:43Z</time>
      </trkpt>
      <trkpt lat="46.06239" lon="5.46422">
        <ele>389.8</ele>
        <time>2022-06-06T12:37:47Z</time>
      </trkpt>
      <trkpt lat="46.06227" lon="5.46437">
        <ele>391.2</ele>
        <time>2022-06-06T12:37:53Z</time>
      </trkpt>
      <trkpt lat="46.06225" lon="5.46439">
        <ele>391.4</ele>
        <time>2022-06-06T12:37:54Z</time>
      </trkpt>
      <trkpt lat="46.06209" lon="5.46454">
        <ele>392.4</ele>
        <time>2022-06-06T12:38:00Z</time>
      </trkpt>
      <trkpt lat="46.06206" lon="5.46456">
        <ele>392.4</ele>
        <time>2022-06-06T12:38:01Z</time>
      </trkpt>
      <trkpt lat="46.06192" lon="5.46471">
        <ele>393.4</ele>
        <time>2022-06-06T12:38:07Z</time>
      </trkpt>
      <trkpt lat="46.0619" lon="5.46474">
        <ele>393.6</ele>
        <time>2022-06-06T12:38:08Z</time>
      </trkpt>
      <trkpt lat="46.0618" lon="5.46486">
        <ele>394.4</ele>
        <time>2022-06-06T12:38:13Z</time>
      </trkpt>
      <trkpt lat="46.06172" lon="5.46495">
        <ele>395.6</ele>
        <time>2022-06-06T12:38:17Z</time>
      </trkpt>
      <trkpt lat="46.06159" lon="5.46505">
        <ele>396.8</ele>
        <time>2022-06-06T12:38:22Z</time>
      </trkpt>
      <trkpt lat="46.06144" lon="5.46516">
        <ele>397.8</ele>
        <time>2022-06-06T12:38:28Z</time>
      </trkpt>
      <trkpt lat="46.06131" lon="5.46526">
        <ele>399</ele>
        <time>2022-06-06T12:38:33Z</time>
      </trkpt>
      <trkpt lat="46.06121" lon="5.46535">
        <ele>399.8</ele>
        <time>2022-06-06T12:38:37Z</time>
      </trkpt>
      <trkpt lat="46.06116" lon="5.46539">
        <ele>400.2</ele>
        <time>2022-06-06T12:38:39Z</time>
      </trkpt>
      <trkpt lat="46.0611" lon="5.46546">
        <ele>401.2</ele>
        <time>2022-06-06T12:38:42Z</time>
      </trkpt>
      <trkpt lat="46.06102" lon="5.4656">
        <ele>402.2</ele>
        <time>2022-06-06T12:38:47Z</time>
      </trkpt>
      <trkpt lat="46.061" lon="5.46563">
        <ele>402.4</ele>
        <time>2022-06-06T12:38:48Z</time>
      </trkpt>
      <trkpt lat="46.06092" lon="5.4657">
        <ele>403.4</ele>
        <time>2022-06-06T12:38:51Z</time>
      </trkpt>
      <trkpt lat="46.06086" lon="5.46575">
        <ele>404.4</ele>
        <time>2022-06-06T12:38:54Z</time>
      </trkpt>
      <trkpt lat="46.06084" lon="5.46575">
        <ele>404.6</ele>
        <time>2022-06-06T12:38:55Z</time>
      </trkpt>
      <trkpt lat="46.06081" lon="5.46573">
        <ele>405.6</ele>
        <time>2022-06-06T12:38:58Z</time>
      </trkpt>
      <trkpt lat="46.0608" lon="5.4657">
        <ele>406</ele>
        <time>2022-06-06T12:38:59Z</time>
      </trkpt>
      <trkpt lat="46.06082" lon="5.46561">
        <ele>406.8</ele>
        <time>2022-06-06T12:39:02Z</time>
      </trkpt>
      <trkpt lat="46.06083" lon="5.46552">
        <ele>407.8</ele>
        <time>2022-06-06T12:39:05Z</time>
      </trkpt>
      <trkpt lat="46.06084" lon="5.46548">
        <ele>408.4</ele>
        <time>2022-06-06T12:39:07Z</time>
      </trkpt>
      <trkpt lat="46.06086" lon="5.46545">
        <ele>408.6</ele>
        <time>2022-06-06T12:39:08Z</time>
      </trkpt>
      <trkpt lat="46.06087" lon="5.46543">
        <ele>408.8</ele>
        <time>2022-06-06T12:39:09Z</time>
      </trkpt>
      <trkpt lat="46.0609" lon="5.46525">
        <ele>409.4</ele>
        <time>2022-06-06T12:39:14Z</time>
      </trkpt>
      <trkpt lat="46.06091" lon="5.46521">
        <ele>409.8</ele>
        <time>2022-06-06T12:39:15Z</time>
      </trkpt>
      <trkpt lat="46.06093" lon="5.46515">
        <ele>410.4</ele>
        <time>2022-06-06T12:39:17Z</time>
      </trkpt>
      <trkpt lat="46.06098" lon="5.46501">
        <ele>411.2</ele>
        <time>2022-06-06T12:39:20Z</time>
      </trkpt>
      <trkpt lat="46.06099" lon="5.46497">
        <ele>411.4</ele>
        <time>2022-06-06T12:39:21Z</time>
      </trkpt>
      <trkpt lat="46.061" lon="5.46492">
        <ele>412</ele>
        <time>2022-06-06T12:39:22Z</time>
      </trkpt>
      <trkpt lat="46.06104" lon="5.46483">
        <ele>412.4</ele>
        <time>2022-06-06T12:39:24Z</time>
      </trkpt>
      <trkpt lat="46.06106" lon="5.46479">
        <ele>412.4</ele>
        <time>2022-06-06T12:39:25Z</time>
      </trkpt>
      <trkpt lat="46.06119" lon="5.46445">
        <ele>413.4</ele>
        <time>2022-06-06T12:39:31Z</time>
      </trkpt>
      <trkpt lat="46.06121" lon="5.46441">
        <ele>413.4</ele>
        <time>2022-06-06T12:39:32Z</time>
      </trkpt>
      <trkpt lat="46.06128" lon="5.46424">
        <ele>414.4</ele>
        <time>2022-06-06T12:39:36Z</time>
      </trkpt>
      <trkpt lat="46.06131" lon="5.46417">
        <ele>414.8</ele>
        <time>2022-06-06T12:39:38Z</time>
      </trkpt>
      <trkpt lat="46.06136" lon="5.46406">
        <ele>415.6</ele>
        <time>2022-06-06T12:39:41Z</time>
      </trkpt>
      <trkpt lat="46.0614" lon="5.4639">
        <ele>416.4</ele>
        <time>2022-06-06T12:39:45Z</time>
      </trkpt>
      <trkpt lat="46.0614" lon="5.46379">
        <ele>416.8</ele>
        <time>2022-06-06T12:39:47Z</time>
      </trkpt>
      <trkpt lat="46.06141" lon="5.46359">
        <ele>417.4</ele>
        <time>2022-06-06T12:39:51Z</time>
      </trkpt>
      <trkpt lat="46.06141" lon="5.46355">
        <ele>417.8</ele>
        <time>2022-06-06T12:39:52Z</time>
      </trkpt>
      <trkpt lat="46.06141" lon="5.46343">
        <ele>418.4</ele>
        <time>2022-06-06T12:39:55Z</time>
      </trkpt>
      <trkpt lat="46.06141" lon="5.46335">
        <ele>419</ele>
        <time>2022-06-06T12:39:57Z</time>
      </trkpt>
      <trkpt lat="46.06139" lon="5.46319">
        <ele>420</ele>
        <time>2022-06-06T12:40:01Z</time>
      </trkpt>
      <trkpt lat="46.06138" lon="5.46316">
        <ele>420.2</ele>
        <time>2022-06-06T12:40:02Z</time>
      </trkpt>
      <trkpt lat="46.06138" lon="5.46312">
        <ele>420.2</ele>
        <time>2022-06-06T12:40:03Z</time>
      </trkpt>
      <trkpt lat="46.0613" lon="5.46299">
        <ele>421.2</ele>
        <time>2022-06-06T12:40:07Z</time>
      </trkpt>
      <trkpt lat="46.0612" lon="5.46288">
        <ele>422.2</ele>
        <time>2022-06-06T12:40:11Z</time>
      </trkpt>
      <trkpt lat="46.06112" lon="5.46279">
        <ele>422.8</ele>
        <time>2022-06-06T12:40:14Z</time>
      </trkpt>
      <trkpt lat="46.06106" lon="5.46276">
        <ele>423.4</ele>
        <time>2022-06-06T12:40:16Z</time>
      </trkpt>
      <trkpt lat="46.06093" lon="5.4627">
        <ele>424.4</ele>
        <time>2022-06-06T12:40:20Z</time>
      </trkpt>
      <trkpt lat="46.06088" lon="5.46269">
        <ele>424.6</ele>
        <time>2022-06-06T12:40:21Z</time>
      </trkpt>
      <trkpt lat="46.06072" lon="5.46261">
        <ele>425.2</ele>
        <time>2022-06-06T12:40:26Z</time>
      </trkpt>
      <trkpt lat="46.06067" lon="5.4626">
        <ele>425.6</ele>
        <time>2022-06-06T12:40:27Z</time>
      </trkpt>
      <trkpt lat="46.06064" lon="5.4626">
        <ele>425.8</ele>
        <time>2022-06-06T12:40:28Z</time>
      </trkpt>
      <trkpt lat="46.0605" lon="5.46257">
        <ele>426.8</ele>
        <time>2022-06-06T12:40:33Z</time>
      </trkpt>
      <trkpt lat="46.06047" lon="5.46255">
        <ele>427</ele>
        <time>2022-06-06T12:40:34Z</time>
      </trkpt>
      <trkpt lat="46.06035" lon="5.46251">
        <ele>428</ele>
        <time>2022-06-06T12:40:38Z</time>
      </trkpt>
      <trkpt lat="46.06027" lon="5.46251">
        <ele>428.4</ele>
        <time>2022-06-06T12:40:41Z</time>
      </trkpt>
      <trkpt lat="46.06021" lon="5.46249">
        <ele>429</ele>
        <time>2022-06-06T12:40:43Z</time>
      </trkpt>
      <trkpt lat="46.0601" lon="5.46248">
        <ele>429.8</ele>
        <time>2022-06-06T12:40:47Z</time>
      </trkpt>
      <trkpt lat="46.06007" lon="5.46247">
        <ele>430</ele>
        <time>2022-06-06T12:40:48Z</time>
      </trkpt>
      <trkpt lat="46.05997" lon="5.46249">
        <ele>431</ele>
        <time>2022-06-06T12:40:52Z</time>
      </trkpt>
      <trkpt lat="46.05995" lon="5.4625">
        <ele>431.2</ele>
        <time>2022-06-06T12:40:53Z</time>
      </trkpt>
      <trkpt lat="46.05979" lon="5.46259">
        <ele>432.4</ele>
        <time>2022-06-06T12:40:59Z</time>
      </trkpt>
      <trkpt lat="46.05966" lon="5.46266">
        <ele>433.6</ele>
        <time>2022-06-06T12:41:04Z</time>
      </trkpt>
      <trkpt lat="46.05957" lon="5.46269">
        <ele>434.2</ele>
        <time>2022-06-06T12:41:07Z</time>
      </trkpt>
      <trkpt lat="46.05948" lon="5.46271">
        <ele>434.8</ele>
        <time>2022-06-06T12:41:10Z</time>
      </trkpt>
      <trkpt lat="46.05936" lon="5.46269">
        <ele>435.6</ele>
        <time>2022-06-06T12:41:14Z</time>
      </trkpt>
      <trkpt lat="46.05932" lon="5.46268">
        <ele>435.8</ele>
        <time>2022-06-06T12:41:16Z</time>
      </trkpt>
      <trkpt lat="46.05924" lon="5.46259">
        <ele>437.2</ele>
        <time>2022-06-06T12:41:20Z</time>
      </trkpt>
      <trkpt lat="46.05921" lon="5.46254">
        <ele>438</ele>
        <time>2022-06-06T12:41:22Z</time>
      </trkpt>
      <trkpt lat="46.05919" lon="5.46249">
        <ele>438.2</ele>
        <time>2022-06-06T12:41:23Z</time>
      </trkpt>
      <trkpt lat="46.05916" lon="5.46245">
        <ele>438.4</ele>
        <time>2022-06-06T12:41:24Z</time>
      </trkpt>
      <trkpt lat="46.05903" lon="5.46235">
        <ele>439.2</ele>
        <time>2022-06-06T12:41:28Z</time>
      </trkpt>
      <trkpt lat="46.059" lon="5.46233">
        <ele>439.4</ele>
        <time>2022-06-06T12:41:29Z</time>
      </trkpt>
      <trkpt lat="46.05879" lon="5.46224">
        <ele>440.4</ele>
        <time>2022-06-06T12:41:35Z</time>
      </trkpt>
      <trkpt lat="46.05867" lon="5.46225">
        <ele>441.6</ele>
        <time>2022-06-06T12:41:40Z</time>
      </trkpt>
      <trkpt lat="46.05857" lon="5.46224">
        <ele>442.6</ele>
        <time>2022-06-06T12:41:44Z</time>
      </trkpt>
      <trkpt lat="46.05842" lon="5.46222">
        <ele>443.8</ele>
        <time>2022-06-06T12:41:49Z</time>
      </trkpt>
      <trkpt lat="46.05835" lon="5.46222">
        <ele>444</ele>
        <time>2022-06-06T12:41:51Z</time>
      </trkpt>
      <trkpt lat="46.05824" lon="5.46218">
        <ele>444.8</ele>
        <time>2022-06-06T12:41:55Z</time>
      </trkpt>
      <trkpt lat="46.05818" lon="5.46216">
        <ele>445.2</ele>
        <time>2022-06-06T12:41:57Z</time>
      </trkpt>
      <trkpt lat="46.05815" lon="5.46215">
        <ele>445.6</ele>
        <time>2022-06-06T12:41:58Z</time>
      </trkpt>
      <trkpt lat="46.05812" lon="5.46214">
        <ele>446</ele>
        <time>2022-06-06T12:41:59Z</time>
      </trkpt>
      <trkpt lat="46.05805" lon="5.46211">
        <ele>446.6</ele>
        <time>2022-06-06T12:42:01Z</time>
      </trkpt>
      <trkpt lat="46.05795" lon="5.4621">
        <ele>446.8</ele>
        <time>2022-06-06T12:42:05Z</time>
      </trkpt>
      <trkpt lat="46.05794" lon="5.4621">
        <ele>447</ele>
        <time>2022-06-06T12:42:06Z</time>
      </trkpt>
      <trkpt lat="46.05785" lon="5.4621">
        <ele>448</ele>
        <time>2022-06-06T12:42:09Z</time>
      </trkpt>
      <trkpt lat="46.05779" lon="5.46212">
        <ele>448.8</ele>
        <time>2022-06-06T12:42:12Z</time>
      </trkpt>
      <trkpt lat="46.05777" lon="5.46212">
        <ele>449</ele>
        <time>2022-06-06T12:42:13Z</time>
      </trkpt>
      <trkpt lat="46.05765" lon="5.46209">
        <ele>450.2</ele>
        <time>2022-06-06T12:42:18Z</time>
      </trkpt>
      <trkpt lat="46.05755" lon="5.46208">
        <ele>451</ele>
        <time>2022-06-06T12:42:21Z</time>
      </trkpt>
      <trkpt lat="46.05749" lon="5.46207">
        <ele>451.4</ele>
        <time>2022-06-06T12:42:23Z</time>
      </trkpt>
      <trkpt lat="46.05742" lon="5.46202">
        <ele>452.4</ele>
        <time>2022-06-06T12:42:26Z</time>
      </trkpt>
      <trkpt lat="46.0574" lon="5.462">
        <ele>452.6</ele>
        <time>2022-06-06T12:42:27Z</time>
      </trkpt>
      <trkpt lat="46.05737" lon="5.46193">
        <ele>453</ele>
        <time>2022-06-06T12:42:29Z</time>
      </trkpt>
      <trkpt lat="46.05735" lon="5.46185">
        <ele>453.4</ele>
        <time>2022-06-06T12:42:31Z</time>
      </trkpt>
      <trkpt lat="46.05733" lon="5.46181">
        <ele>453.8</ele>
        <time>2022-06-06T12:42:32Z</time>
      </trkpt>
      <trkpt lat="46.05729" lon="5.46163">
        <ele>454.8</ele>
        <time>2022-06-06T12:42:37Z</time>
      </trkpt>
      <trkpt lat="46.05729" lon="5.46162">
        <ele>455</ele>
        <time>2022-06-06T12:42:38Z</time>
      </trkpt>
      <trkpt lat="46.05728" lon="5.46148">
        <ele>455.8</ele>
        <time>2022-06-06T12:42:41Z</time>
      </trkpt>
      <trkpt lat="46.05726" lon="5.4613">
        <ele>456.8</ele>
        <time>2022-06-06T12:42:44Z</time>
      </trkpt>
      <trkpt lat="46.05727" lon="5.46125">
        <ele>457.2</ele>
        <time>2022-06-06T12:42:45Z</time>
      </trkpt>
      <trkpt lat="46.05728" lon="5.4612">
        <ele>457.8</ele>
        <time>2022-06-06T12:42:46Z</time>
      </trkpt>
      <trkpt lat="46.05729" lon="5.46115">
        <ele>458.2</ele>
        <time>2022-06-06T12:42:47Z</time>
      </trkpt>
      <trkpt lat="46.0573" lon="5.46107">
        <ele>458.4</ele>
        <time>2022-06-06T12:42:49Z</time>
      </trkpt>
      <trkpt lat="46.05731" lon="5.46103">
        <ele>458.4</ele>
        <time>2022-06-06T12:42:50Z</time>
      </trkpt>
      <trkpt lat="46.05738" lon="5.46091">
        <ele>459.2</ele>
        <time>2022-06-06T12:42:54Z</time>
      </trkpt>
      <trkpt lat="46.05745" lon="5.46083">
        <ele>459.6</ele>
        <time>2022-06-06T12:42:56Z</time>
      </trkpt>
      <trkpt lat="46.05753" lon="5.46074">
        <ele>460.2</ele>
        <time>2022-06-06T12:43:00Z</time>
      </trkpt>
      <trkpt lat="46.05756" lon="5.46073">
        <ele>460.6</ele>
        <time>2022-06-06T12:43:01Z</time>
      </trkpt>
      <trkpt lat="46.05762" lon="5.46069">
        <ele>461.4</ele>
        <time>2022-06-06T12:43:03Z</time>
      </trkpt>
      <trkpt lat="46.05773" lon="5.4606">
        <ele>462.6</ele>
        <time>2022-06-06T12:43:07Z</time>
      </trkpt>
      <trkpt lat="46.05776" lon="5.46056">
        <ele>462.8</ele>
        <time>2022-06-06T12:43:08Z</time>
      </trkpt>
      <trkpt lat="46.05789" lon="5.46043">
        <ele>463.4</ele>
        <time>2022-06-06T12:43:13Z</time>
      </trkpt>
      <trkpt lat="46.05791" lon="5.46041">
        <ele>463.6</ele>
        <time>2022-06-06T12:43:14Z</time>
      </trkpt>
      <trkpt lat="46.058" lon="5.46026">
        <ele>464.4</ele>
        <time>2022-06-06T12:43:18Z</time>
      </trkpt>
      <trkpt lat="46.05806" lon="5.46018">
        <ele>464.8</ele>
        <time>2022-06-06T12:43:20Z</time>
      </trkpt>
      <trkpt lat="46.05814" lon="5.46008">
        <ele>466.2</ele>
        <time>2022-06-06T12:43:24Z</time>
      </trkpt>
      <trkpt lat="46.05816" lon="5.46004">
        <ele>466.4</ele>
        <time>2022-06-06T12:43:25Z</time>
      </trkpt>
      <trkpt lat="46.05829" lon="5.45984">
        <ele>467.4</ele>
        <time>2022-06-06T12:43:31Z</time>
      </trkpt>
      <trkpt lat="46.05831" lon="5.45967">
        <ele>468.6</ele>
        <time>2022-06-06T12:43:35Z</time>
      </trkpt>
      <trkpt lat="46.05832" lon="5.45963">
        <ele>468.8</ele>
        <time>2022-06-06T12:43:36Z</time>
      </trkpt>
      <trkpt lat="46.05836" lon="5.45948">
        <ele>469.6</ele>
        <time>2022-06-06T12:43:40Z</time>
      </trkpt>
      <trkpt lat="46.05837" lon="5.45944">
        <ele>469.8</ele>
        <time>2022-06-06T12:43:41Z</time>
      </trkpt>
      <trkpt lat="46.05843" lon="5.45925">
        <ele>470.4</ele>
        <time>2022-06-06T12:43:46Z</time>
      </trkpt>
      <trkpt lat="46.05844" lon="5.45922">
        <ele>471.2</ele>
        <time>2022-06-06T12:43:47Z</time>
      </trkpt>
      <trkpt lat="46.05845" lon="5.45915">
        <ele>471.6</ele>
        <time>2022-06-06T12:43:49Z</time>
      </trkpt>
      <trkpt lat="46.05845" lon="5.45908">
        <ele>472</ele>
        <time>2022-06-06T12:43:51Z</time>
      </trkpt>
      <trkpt lat="46.05845" lon="5.45906">
        <ele>472</ele>
        <time>2022-06-06T12:43:52Z</time>
      </trkpt>
      <trkpt lat="46.0584" lon="5.45904">
        <ele>472.2</ele>
        <time>2022-06-06T12:43:54Z</time>
      </trkpt>
      <trkpt lat="46.0583" lon="5.45905">
        <ele>472.8</ele>
        <time>2022-06-06T12:43:57Z</time>
      </trkpt>
      <trkpt lat="46.05828" lon="5.45908">
        <ele>473</ele>
        <time>2022-06-06T12:43:58Z</time>
      </trkpt>
      <trkpt lat="46.05821" lon="5.45916">
        <ele>474.2</ele>
        <time>2022-06-06T12:44:01Z</time>
      </trkpt>
      <trkpt lat="46.05818" lon="5.45919">
        <ele>474.4</ele>
        <time>2022-06-06T12:44:02Z</time>
      </trkpt>
      <trkpt lat="46.05815" lon="5.45926">
        <ele>475.4</ele>
        <time>2022-06-06T12:44:04Z</time>
      </trkpt>
      <trkpt lat="46.05809" lon="5.45935">
        <ele>476</ele>
        <time>2022-06-06T12:44:07Z</time>
      </trkpt>
      <trkpt lat="46.05807" lon="5.45938">
        <ele>476.6</ele>
        <time>2022-06-06T12:44:08Z</time>
      </trkpt>
      <trkpt lat="46.05798" lon="5.45953">
        <ele>477.8</ele>
        <time>2022-06-06T12:44:13Z</time>
      </trkpt>
      <trkpt lat="46.05793" lon="5.45955">
        <ele>478.2</ele>
        <time>2022-06-06T12:44:16Z</time>
      </trkpt>
      <trkpt lat="46.05786" lon="5.45965">
        <ele>478.8</ele>
        <time>2022-06-06T12:44:19Z</time>
      </trkpt>
      <trkpt lat="46.05783" lon="5.45969">
        <ele>479.2</ele>
        <time>2022-06-06T12:44:20Z</time>
      </trkpt>
      <trkpt lat="46.05778" lon="5.45983">
        <ele>479.8</ele>
        <time>2022-06-06T12:44:23Z</time>
      </trkpt>
      <trkpt lat="46.05775" lon="5.45987">
        <ele>480.2</ele>
        <time>2022-06-06T12:44:24Z</time>
      </trkpt>
      <trkpt lat="46.05765" lon="5.45994">
        <ele>481.2</ele>
        <time>2022-06-06T12:44:27Z</time>
      </trkpt>
      <trkpt lat="46.05752" lon="5.46">
        <ele>482.2</ele>
        <time>2022-06-06T12:44:32Z</time>
      </trkpt>
      <trkpt lat="46.05745" lon="5.46003">
        <ele>482.2</ele>
        <time>2022-06-06T12:44:34Z</time>
      </trkpt>
      <trkpt lat="46.05727" lon="5.46008">
        <ele>483</ele>
        <time>2022-06-06T12:44:39Z</time>
      </trkpt>
      <trkpt lat="46.0572" lon="5.46009">
        <ele>483.2</ele>
        <time>2022-06-06T12:44:41Z</time>
      </trkpt>
      <trkpt lat="46.05708" lon="5.46011">
        <ele>484.2</ele>
        <time>2022-06-06T12:44:45Z</time>
      </trkpt>
      <trkpt lat="46.05706" lon="5.46012">
        <ele>484.6</ele>
        <time>2022-06-06T12:44:46Z</time>
      </trkpt>
      <trkpt lat="46.05694" lon="5.46014">
        <ele>485.4</ele>
        <time>2022-06-06T12:44:50Z</time>
      </trkpt>
      <trkpt lat="46.05687" lon="5.46017">
        <ele>486.4</ele>
        <time>2022-06-06T12:44:53Z</time>
      </trkpt>
      <trkpt lat="46.05682" lon="5.46019">
        <ele>487</ele>
        <time>2022-06-06T12:44:55Z</time>
      </trkpt>
      <trkpt lat="46.05676" lon="5.46021">
        <ele>487.4</ele>
        <time>2022-06-06T12:44:57Z</time>
      </trkpt>
      <trkpt lat="46.05668" lon="5.46026">
        <ele>488.4</ele>
        <time>2022-06-06T12:45:00Z</time>
      </trkpt>
      <trkpt lat="46.05661" lon="5.46035">
        <ele>488.8</ele>
        <time>2022-06-06T12:45:03Z</time>
      </trkpt>
      <trkpt lat="46.05657" lon="5.46049">
        <ele>489.4</ele>
        <time>2022-06-06T12:45:07Z</time>
      </trkpt>
      <trkpt lat="46.05655" lon="5.46057">
        <ele>489.6</ele>
        <time>2022-06-06T12:45:09Z</time>
      </trkpt>
      <trkpt lat="46.05651" lon="5.46072">
        <ele>490.8</ele>
        <time>2022-06-06T12:45:13Z</time>
      </trkpt>
      <trkpt lat="46.0565" lon="5.46076">
        <ele>491</ele>
        <time>2022-06-06T12:45:14Z</time>
      </trkpt>
      <trkpt lat="46.05646" lon="5.46091">
        <ele>491.8</ele>
        <time>2022-06-06T12:45:18Z</time>
      </trkpt>
      <trkpt lat="46.05645" lon="5.46094">
        <ele>492</ele>
        <time>2022-06-06T12:45:19Z</time>
      </trkpt>
      <trkpt lat="46.05644" lon="5.46097">
        <ele>492.2</ele>
        <time>2022-06-06T12:45:20Z</time>
      </trkpt>
      <trkpt lat="46.05643" lon="5.46104">
        <ele>492.4</ele>
        <time>2022-06-06T12:45:22Z</time>
      </trkpt>
      <trkpt lat="46.05641" lon="5.46108">
        <ele>493</ele>
        <time>2022-06-06T12:45:23Z</time>
      </trkpt>
      <trkpt lat="46.05631" lon="5.46128">
        <ele>494.2</ele>
        <time>2022-06-06T12:45:28Z</time>
      </trkpt>
      <trkpt lat="46.05625" lon="5.46158">
        <ele>495.4</ele>
        <time>2022-06-06T12:45:35Z</time>
      </trkpt>
      <trkpt lat="46.05628" lon="5.46178">
        <ele>496.8</ele>
        <time>2022-06-06T12:45:40Z</time>
      </trkpt>
      <trkpt lat="46.05627" lon="5.46187">
        <ele>497.2</ele>
        <time>2022-06-06T12:45:42Z</time>
      </trkpt>
      <trkpt lat="46.05624" lon="5.46213">
        <ele>497.8</ele>
        <time>2022-06-06T12:45:48Z</time>
      </trkpt>
      <trkpt lat="46.05623" lon="5.46217">
        <ele>497.8</ele>
        <time>2022-06-06T12:45:49Z</time>
      </trkpt>
      <trkpt lat="46.05616" lon="5.46228">
        <ele>498.8</ele>
        <time>2022-06-06T12:45:53Z</time>
      </trkpt>
      <trkpt lat="46.05613" lon="5.46229">
        <ele>499.2</ele>
        <time>2022-06-06T12:45:54Z</time>
      </trkpt>
      <trkpt lat="46.05603" lon="5.46235">
        <ele>500.2</ele>
        <time>2022-06-06T12:45:58Z</time>
      </trkpt>
      <trkpt lat="46.05599" lon="5.46237">
        <ele>500.8</ele>
        <time>2022-06-06T12:46:00Z</time>
      </trkpt>
      <trkpt lat="46.05592" lon="5.46239">
        <ele>501.2</ele>
        <time>2022-06-06T12:46:02Z</time>
      </trkpt>
      <trkpt lat="46.05575" lon="5.46242">
        <ele>502.2</ele>
        <time>2022-06-06T12:46:07Z</time>
      </trkpt>
      <trkpt lat="46.05572" lon="5.46244">
        <ele>502.4</ele>
        <time>2022-06-06T12:46:08Z</time>
      </trkpt>
      <trkpt lat="46.05561" lon="5.46254">
        <ele>502.6</ele>
        <time>2022-06-06T12:46:11Z</time>
      </trkpt>
      <trkpt lat="46.05557" lon="5.46259">
        <ele>502.6</ele>
        <time>2022-06-06T12:46:12Z</time>
      </trkpt>
      <trkpt lat="46.05534" lon="5.46287">
        <ele>502</ele>
        <time>2022-06-06T12:46:17Z</time>
      </trkpt>
      <trkpt lat="46.05502" lon="5.46316">
        <ele>500.8</ele>
        <time>2022-06-06T12:46:22Z</time>
      </trkpt>
      <trkpt lat="46.05489" lon="5.46328">
        <ele>499.6</ele>
        <time>2022-06-06T12:46:24Z</time>
      </trkpt>
      <trkpt lat="46.05453" lon="5.46352">
        <ele>498.8</ele>
        <time>2022-06-06T12:46:29Z</time>
      </trkpt>
      <trkpt lat="46.05437" lon="5.46361">
        <ele>498.2</ele>
        <time>2022-06-06T12:46:31Z</time>
      </trkpt>
      <trkpt lat="46.05412" lon="5.46374">
        <ele>496.8</ele>
        <time>2022-06-06T12:46:34Z</time>
      </trkpt>
      <trkpt lat="46.05386" lon="5.46389">
        <ele>495.4</ele>
        <time>2022-06-06T12:46:37Z</time>
      </trkpt>
      <trkpt lat="46.05369" lon="5.46399">
        <ele>494.4</ele>
        <time>2022-06-06T12:46:39Z</time>
      </trkpt>
      <trkpt lat="46.05343" lon="5.46414">
        <ele>493.2</ele>
        <time>2022-06-06T12:46:42Z</time>
      </trkpt>
      <trkpt lat="46.05326" lon="5.46421">
        <ele>492</ele>
        <time>2022-06-06T12:46:44Z</time>
      </trkpt>
      <trkpt lat="46.0531" lon="5.46428">
        <ele>491</ele>
        <time>2022-06-06T12:46:46Z</time>
      </trkpt>
      <trkpt lat="46.05294" lon="5.46432">
        <ele>490.6</ele>
        <time>2022-06-06T12:46:48Z</time>
      </trkpt>
      <trkpt lat="46.05286" lon="5.46433">
        <ele>490.4</ele>
        <time>2022-06-06T12:46:49Z</time>
      </trkpt>
      <trkpt lat="46.05278" lon="5.46433">
        <ele>490.2</ele>
        <time>2022-06-06T12:46:50Z</time>
      </trkpt>
      <trkpt lat="46.05264" lon="5.46428">
        <ele>490</ele>
        <time>2022-06-06T12:46:52Z</time>
      </trkpt>
      <trkpt lat="46.05245" lon="5.46416">
        <ele>490</ele>
        <time>2022-06-06T12:46:55Z</time>
      </trkpt>
      <trkpt lat="46.05233" lon="5.46406">
        <ele>490.2</ele>
        <time>2022-06-06T12:46:57Z</time>
      </trkpt>
      <trkpt lat="46.05205" lon="5.46382">
        <ele>491</ele>
        <time>2022-06-06T12:47:02Z</time>
      </trkpt>
      <trkpt lat="46.05198" lon="5.46378">
        <ele>491.6</ele>
        <time>2022-06-06T12:47:03Z</time>
      </trkpt>
      <trkpt lat="46.05191" lon="5.46374">
        <ele>491.6</ele>
        <time>2022-06-06T12:47:04Z</time>
      </trkpt>
      <trkpt lat="46.05178" lon="5.46369">
        <ele>492.2</ele>
        <time>2022-06-06T12:47:06Z</time>
      </trkpt>
      <trkpt lat="46.05172" lon="5.46364">
        <ele>492.4</ele>
        <time>2022-06-06T12:47:07Z</time>
      </trkpt>
      <trkpt lat="46.05167" lon="5.4636">
        <ele>492.8</ele>
        <time>2022-06-06T12:47:08Z</time>
      </trkpt>
      <trkpt lat="46.05154" lon="5.46354">
        <ele>493</ele>
        <time>2022-06-06T12:47:10Z</time>
      </trkpt>
      <trkpt lat="46.05109" lon="5.46341">
        <ele>492.6</ele>
        <time>2022-06-06T12:47:16Z</time>
      </trkpt>
      <trkpt lat="46.05065" lon="5.46326">
        <ele>492.6</ele>
        <time>2022-06-06T12:47:23Z</time>
      </trkpt>
      <trkpt lat="46.05021" lon="5.46314">
        <ele>492.8</ele>
        <time>2022-06-06T12:47:30Z</time>
      </trkpt>
      <trkpt lat="46.05015" lon="5.46313">
        <ele>492.6</ele>
        <time>2022-06-06T12:47:31Z</time>
      </trkpt>
      <trkpt lat="46.04982" lon="5.46311">
        <ele>492.2</ele>
        <time>2022-06-06T12:47:36Z</time>
      </trkpt>
      <trkpt lat="46.04925" lon="5.46315">
        <ele>491</ele>
        <time>2022-06-06T12:47:44Z</time>
      </trkpt>
      <trkpt lat="46.0491" lon="5.46319">
        <ele>490.4</ele>
        <time>2022-06-06T12:47:47Z</time>
      </trkpt>
      <trkpt lat="46.04902" lon="5.46319">
        <ele>490.4</ele>
        <time>2022-06-06T12:47:49Z</time>
      </trkpt>
      <trkpt lat="46.04898" lon="5.46318">
        <ele>490.4</ele>
        <time>2022-06-06T12:47:50Z</time>
      </trkpt>
      <trkpt lat="46.04893" lon="5.46316">
        <ele>490.4</ele>
        <time>2022-06-06T12:47:51Z</time>
      </trkpt>
      <trkpt lat="46.04879" lon="5.46318">
        <ele>491</ele>
        <time>2022-06-06T12:47:54Z</time>
      </trkpt>
      <trkpt lat="46.0486" lon="5.46319">
        <ele>492</ele>
        <time>2022-06-06T12:47:58Z</time>
      </trkpt>
      <trkpt lat="46.04848" lon="5.46321">
        <ele>492.6</ele>
        <time>2022-06-06T12:48:01Z</time>
      </trkpt>
      <trkpt lat="46.04839" lon="5.46322">
        <ele>493.4</ele>
        <time>2022-06-06T12:48:03Z</time>
      </trkpt>
      <trkpt lat="46.04835" lon="5.46322">
        <ele>494</ele>
        <time>2022-06-06T12:48:04Z</time>
      </trkpt>
      <trkpt lat="46.04826" lon="5.46323">
        <ele>494.8</ele>
        <time>2022-06-06T12:48:06Z</time>
      </trkpt>
      <trkpt lat="46.04809" lon="5.46325">
        <ele>495.8</ele>
        <time>2022-06-06T12:48:10Z</time>
      </trkpt>
      <trkpt lat="46.04804" lon="5.46325">
        <ele>496.2</ele>
        <time>2022-06-06T12:48:11Z</time>
      </trkpt>
      <trkpt lat="46.04797" lon="5.46326">
        <ele>496.8</ele>
        <time>2022-06-06T12:48:13Z</time>
      </trkpt>
      <trkpt lat="46.04777" lon="5.46327">
        <ele>498</ele>
        <time>2022-06-06T12:48:18Z</time>
      </trkpt>
      <trkpt lat="46.04769" lon="5.46328">
        <ele>498.6</ele>
        <time>2022-06-06T12:48:20Z</time>
      </trkpt>
      <trkpt lat="46.04758" lon="5.46328">
        <ele>499.4</ele>
        <time>2022-06-06T12:48:23Z</time>
      </trkpt>
      <trkpt lat="46.0474" lon="5.46329">
        <ele>500.4</ele>
        <time>2022-06-06T12:48:28Z</time>
      </trkpt>
      <trkpt lat="46.04732" lon="5.46329">
        <ele>501.4</ele>
        <time>2022-06-06T12:48:30Z</time>
      </trkpt>
      <trkpt lat="46.0471" lon="5.46335">
        <ele>502.4</ele>
        <time>2022-06-06T12:48:36Z</time>
      </trkpt>
      <trkpt lat="46.04702" lon="5.46338">
        <ele>502.8</ele>
        <time>2022-06-06T12:48:38Z</time>
      </trkpt>
      <trkpt lat="46.04683" lon="5.46347">
        <ele>503.6</ele>
        <time>2022-06-06T12:48:43Z</time>
      </trkpt>
      <trkpt lat="46.04676" lon="5.46352">
        <ele>504</ele>
        <time>2022-06-06T12:48:45Z</time>
      </trkpt>
      <trkpt lat="46.04666" lon="5.46361">
        <ele>504.6</ele>
        <time>2022-06-06T12:48:48Z</time>
      </trkpt>
      <trkpt lat="46.04657" lon="5.46372">
        <ele>505.2</ele>
        <time>2022-06-06T12:48:51Z</time>
      </trkpt>
      <trkpt lat="46.04645" lon="5.46387">
        <ele>505.8</ele>
        <time>2022-06-06T12:48:55Z</time>
      </trkpt>
      <trkpt lat="46.04638" lon="5.46398">
        <ele>506.8</ele>
        <time>2022-06-06T12:48:58Z</time>
      </trkpt>
      <trkpt lat="46.04636" lon="5.46401">
        <ele>507</ele>
        <time>2022-06-06T12:48:59Z</time>
      </trkpt>
      <trkpt lat="46.04634" lon="5.46406">
        <ele>507.2</ele>
        <time>2022-06-06T12:49:00Z</time>
      </trkpt>
      <trkpt lat="46.04628" lon="5.46419">
        <ele>507.8</ele>
        <time>2022-06-06T12:49:03Z</time>
      </trkpt>
      <trkpt lat="46.04626" lon="5.46424">
        <ele>508</ele>
        <time>2022-06-06T12:49:04Z</time>
      </trkpt>
      <trkpt lat="46.04617" lon="5.46446">
        <ele>509.2</ele>
        <time>2022-06-06T12:49:09Z</time>
      </trkpt>
      <trkpt lat="46.0461" lon="5.46465">
        <ele>510.4</ele>
        <time>2022-06-06T12:49:13Z</time>
      </trkpt>
      <trkpt lat="46.04608" lon="5.46469">
        <ele>510.8</ele>
        <time>2022-06-06T12:49:14Z</time>
      </trkpt>
      <trkpt lat="46.04602" lon="5.46485">
        <ele>511.4</ele>
        <time>2022-06-06T12:49:18Z</time>
      </trkpt>
      <trkpt lat="46.04596" lon="5.46501">
        <ele>512.2</ele>
        <time>2022-06-06T12:49:22Z</time>
      </trkpt>
      <trkpt lat="46.04595" lon="5.46504">
        <ele>512.6</ele>
        <time>2022-06-06T12:49:23Z</time>
      </trkpt>
      <trkpt lat="46.04591" lon="5.46513">
        <ele>513.2</ele>
        <time>2022-06-06T12:49:25Z</time>
      </trkpt>
      <trkpt lat="46.04589" lon="5.46517">
        <ele>513.6</ele>
        <time>2022-06-06T12:49:26Z</time>
      </trkpt>
      <trkpt lat="46.04582" lon="5.46533">
        <ele>514.8</ele>
        <time>2022-06-06T12:49:30Z</time>
      </trkpt>
      <trkpt lat="46.04579" lon="5.46537">
        <ele>514.8</ele>
        <time>2022-06-06T12:49:31Z</time>
      </trkpt>
      <trkpt lat="46.04563" lon="5.46545">
        <ele>515.6</ele>
        <time>2022-06-06T12:49:36Z</time>
      </trkpt>
      <trkpt lat="46.0456" lon="5.46544">
        <ele>516</ele>
        <time>2022-06-06T12:49:37Z</time>
      </trkpt>
      <trkpt lat="46.04552" lon="5.46535">
        <ele>516.8</ele>
        <time>2022-06-06T12:49:40Z</time>
      </trkpt>
      <trkpt lat="46.04549" lon="5.46527">
        <ele>517.2</ele>
        <time>2022-06-06T12:49:42Z</time>
      </trkpt>
      <trkpt lat="46.04544" lon="5.46509">
        <ele>518</ele>
        <time>2022-06-06T12:49:46Z</time>
      </trkpt>
      <trkpt lat="46.04541" lon="5.46497">
        <ele>519.4</ele>
        <time>2022-06-06T12:49:49Z</time>
      </trkpt>
      <trkpt lat="46.04536" lon="5.4648">
        <ele>520.4</ele>
        <time>2022-06-06T12:49:53Z</time>
      </trkpt>
      <trkpt lat="46.04528" lon="5.46459">
        <ele>521.6</ele>
        <time>2022-06-06T12:49:58Z</time>
      </trkpt>
      <trkpt lat="46.04524" lon="5.46452">
        <ele>522</ele>
        <time>2022-06-06T12:50:00Z</time>
      </trkpt>
      <trkpt lat="46.04512" lon="5.46437">
        <ele>522.6</ele>
        <time>2022-06-06T12:50:05Z</time>
      </trkpt>
      <trkpt lat="46.04509" lon="5.46434">
        <ele>522.8</ele>
        <time>2022-06-06T12:50:06Z</time>
      </trkpt>
      <trkpt lat="46.04498" lon="5.46424">
        <ele>523.6</ele>
        <time>2022-06-06T12:50:10Z</time>
      </trkpt>
      <trkpt lat="46.04489" lon="5.46421">
        <ele>524.4</ele>
        <time>2022-06-06T12:50:13Z</time>
      </trkpt>
      <trkpt lat="46.04486" lon="5.46419">
        <ele>524.6</ele>
        <time>2022-06-06T12:50:14Z</time>
      </trkpt>
      <trkpt lat="46.04474" lon="5.46416">
        <ele>525.6</ele>
        <time>2022-06-06T12:50:18Z</time>
      </trkpt>
      <trkpt lat="46.04471" lon="5.46415">
        <ele>525.8</ele>
        <time>2022-06-06T12:50:19Z</time>
      </trkpt>
      <trkpt lat="46.04468" lon="5.46415">
        <ele>525.8</ele>
        <time>2022-06-06T12:50:20Z</time>
      </trkpt>
      <trkpt lat="46.04461" lon="5.46416">
        <ele>526.6</ele>
        <time>2022-06-06T12:50:22Z</time>
      </trkpt>
      <trkpt lat="46.04458" lon="5.46416">
        <ele>527</ele>
        <time>2022-06-06T12:50:23Z</time>
      </trkpt>
      <trkpt lat="46.04447" lon="5.46414">
        <ele>527.6</ele>
        <time>2022-06-06T12:50:26Z</time>
      </trkpt>
      <trkpt lat="46.04438" lon="5.46413">
        <ele>527.8</ele>
        <time>2022-06-06T12:50:28Z</time>
      </trkpt>
      <trkpt lat="46.04427" lon="5.46412">
        <ele>528.6</ele>
        <time>2022-06-06T12:50:31Z</time>
      </trkpt>
      <trkpt lat="46.0442" lon="5.46411">
        <ele>529.4</ele>
        <time>2022-06-06T12:50:33Z</time>
      </trkpt>
      <trkpt lat="46.04404" lon="5.46411">
        <ele>530.4</ele>
        <time>2022-06-06T12:50:38Z</time>
      </trkpt>
      <trkpt lat="46.04391" lon="5.46412">
        <ele>530.8</ele>
        <time>2022-06-06T12:50:42Z</time>
      </trkpt>
      <trkpt lat="46.04382" lon="5.46412">
        <ele>532</ele>
        <time>2022-06-06T12:50:45Z</time>
      </trkpt>
      <trkpt lat="46.04373" lon="5.46411">
        <ele>532.4</ele>
        <time>2022-06-06T12:50:48Z</time>
      </trkpt>
      <trkpt lat="46.04366" lon="5.4641">
        <ele>533</ele>
        <time>2022-06-06T12:50:50Z</time>
      </trkpt>
      <trkpt lat="46.0435" lon="5.4641">
        <ele>534</ele>
        <time>2022-06-06T12:50:55Z</time>
      </trkpt>
      <trkpt lat="46.04347" lon="5.4641">
        <ele>534.4</ele>
        <time>2022-06-06T12:50:56Z</time>
      </trkpt>
      <trkpt lat="46.04338" lon="5.4641">
        <ele>535.2</ele>
        <time>2022-06-06T12:50:59Z</time>
      </trkpt>
      <trkpt lat="46.0432" lon="5.46415">
        <ele>536.2</ele>
        <time>2022-06-06T12:51:05Z</time>
      </trkpt>
      <trkpt lat="46.04316" lon="5.46415">
        <ele>536.6</ele>
        <time>2022-06-06T12:51:06Z</time>
      </trkpt>
      <trkpt lat="46.04308" lon="5.4642">
        <ele>537.6</ele>
        <time>2022-06-06T12:51:09Z</time>
      </trkpt>
      <trkpt lat="46.04305" lon="5.46421">
        <ele>538</ele>
        <time>2022-06-06T12:51:10Z</time>
      </trkpt>
      <trkpt lat="46.04299" lon="5.46426">
        <ele>538.4</ele>
        <time>2022-06-06T12:51:12Z</time>
      </trkpt>
      <trkpt lat="46.04296" lon="5.46428">
        <ele>538.6</ele>
        <time>2022-06-06T12:51:13Z</time>
      </trkpt>
      <trkpt lat="46.04274" lon="5.4645">
        <ele>539.8</ele>
        <time>2022-06-06T12:51:21Z</time>
      </trkpt>
      <trkpt lat="46.04272" lon="5.46454">
        <ele>540.2</ele>
        <time>2022-06-06T12:51:22Z</time>
      </trkpt>
      <trkpt lat="46.04265" lon="5.46464">
        <ele>541</ele>
        <time>2022-06-06T12:51:25Z</time>
      </trkpt>
      <trkpt lat="46.04259" lon="5.4648">
        <ele>541.6</ele>
        <time>2022-06-06T12:51:29Z</time>
      </trkpt>
      <trkpt lat="46.04257" lon="5.46494">
        <ele>542.2</ele>
        <time>2022-06-06T12:51:32Z</time>
      </trkpt>
      <trkpt lat="46.04256" lon="5.46511">
        <ele>542.8</ele>
        <time>2022-06-06T12:51:36Z</time>
      </trkpt>
      <trkpt lat="46.04257" lon="5.46526">
        <ele>543.4</ele>
        <time>2022-06-06T12:51:39Z</time>
      </trkpt>
      <trkpt lat="46.04261" lon="5.46538">
        <ele>544.2</ele>
        <time>2022-06-06T12:51:42Z</time>
      </trkpt>
      <trkpt lat="46.04261" lon="5.46543">
        <ele>544.6</ele>
        <time>2022-06-06T12:51:43Z</time>
      </trkpt>
      <trkpt lat="46.04266" lon="5.46561">
        <ele>545.6</ele>
        <time>2022-06-06T12:51:47Z</time>
      </trkpt>
      <trkpt lat="46.0427" lon="5.46574">
        <ele>546.2</ele>
        <time>2022-06-06T12:51:50Z</time>
      </trkpt>
      <trkpt lat="46.04272" lon="5.46582">
        <ele>546.8</ele>
        <time>2022-06-06T12:51:52Z</time>
      </trkpt>
      <trkpt lat="46.04276" lon="5.46605">
        <ele>548</ele>
        <time>2022-06-06T12:51:57Z</time>
      </trkpt>
      <trkpt lat="46.04281" lon="5.4663">
        <ele>549.2</ele>
        <time>2022-06-06T12:52:03Z</time>
      </trkpt>
      <trkpt lat="46.04281" lon="5.46635">
        <ele>549.6</ele>
        <time>2022-06-06T12:52:04Z</time>
      </trkpt>
      <trkpt lat="46.04284" lon="5.46649">
        <ele>550.2</ele>
        <time>2022-06-06T12:52:07Z</time>
      </trkpt>
      <trkpt lat="46.04287" lon="5.46674">
        <ele>551</ele>
        <time>2022-06-06T12:52:12Z</time>
      </trkpt>
      <trkpt lat="46.04288" lon="5.46683">
        <ele>551.6</ele>
        <time>2022-06-06T12:52:14Z</time>
      </trkpt>
      <trkpt lat="46.04291" lon="5.46701">
        <ele>552.8</ele>
        <time>2022-06-06T12:52:18Z</time>
      </trkpt>
      <trkpt lat="46.04294" lon="5.46714">
        <ele>553.8</ele>
        <time>2022-06-06T12:52:21Z</time>
      </trkpt>
      <trkpt lat="46.04298" lon="5.46731">
        <ele>554.8</ele>
        <time>2022-06-06T12:52:25Z</time>
      </trkpt>
      <trkpt lat="46.04301" lon="5.46739">
        <ele>555.2</ele>
        <time>2022-06-06T12:52:27Z</time>
      </trkpt>
      <trkpt lat="46.04306" lon="5.4675">
        <ele>556</ele>
        <time>2022-06-06T12:52:30Z</time>
      </trkpt>
      <trkpt lat="46.04315" lon="5.46764">
        <ele>557.2</ele>
        <time>2022-06-06T12:52:34Z</time>
      </trkpt>
      <trkpt lat="46.0433" lon="5.46775">
        <ele>558.4</ele>
        <time>2022-06-06T12:52:39Z</time>
      </trkpt>
      <trkpt lat="46.04333" lon="5.46776">
        <ele>558.8</ele>
        <time>2022-06-06T12:52:40Z</time>
      </trkpt>
      <trkpt lat="46.04342" lon="5.46776">
        <ele>559.6</ele>
        <time>2022-06-06T12:52:43Z</time>
      </trkpt>
      <trkpt lat="46.04362" lon="5.46775">
        <ele>560.8</ele>
        <time>2022-06-06T12:52:49Z</time>
      </trkpt>
      <trkpt lat="46.04372" lon="5.46776">
        <ele>561.2</ele>
        <time>2022-06-06T12:52:52Z</time>
      </trkpt>
      <trkpt lat="46.04381" lon="5.46779">
        <ele>562</ele>
        <time>2022-06-06T12:52:55Z</time>
      </trkpt>
      <trkpt lat="46.04383" lon="5.46781">
        <ele>562.4</ele>
        <time>2022-06-06T12:52:56Z</time>
      </trkpt>
      <trkpt lat="46.04394" lon="5.46788">
        <ele>563.2</ele>
        <time>2022-06-06T12:53:00Z</time>
      </trkpt>
      <trkpt lat="46.04401" lon="5.46791">
        <ele>563.6</ele>
        <time>2022-06-06T12:53:02Z</time>
      </trkpt>
      <trkpt lat="46.04407" lon="5.46795">
        <ele>564.2</ele>
        <time>2022-06-06T12:53:04Z</time>
      </trkpt>
      <trkpt lat="46.04415" lon="5.46801">
        <ele>565.2</ele>
        <time>2022-06-06T12:53:07Z</time>
      </trkpt>
      <trkpt lat="46.04418" lon="5.46803">
        <ele>565.6</ele>
        <time>2022-06-06T12:53:08Z</time>
      </trkpt>
      <trkpt lat="46.0443" lon="5.46814">
        <ele>566.4</ele>
        <time>2022-06-06T12:53:12Z</time>
      </trkpt>
      <trkpt lat="46.04441" lon="5.46826">
        <ele>567.6</ele>
        <time>2022-06-06T12:53:16Z</time>
      </trkpt>
      <trkpt lat="46.04457" lon="5.46842">
        <ele>568.6</ele>
        <time>2022-06-06T12:53:21Z</time>
      </trkpt>
      <trkpt lat="46.04465" lon="5.46853">
        <ele>569.4</ele>
        <time>2022-06-06T12:53:24Z</time>
      </trkpt>
      <trkpt lat="46.0447" lon="5.4686">
        <ele>569.8</ele>
        <time>2022-06-06T12:53:26Z</time>
      </trkpt>
      <trkpt lat="46.04479" lon="5.46878">
        <ele>571</ele>
        <time>2022-06-06T12:53:31Z</time>
      </trkpt>
      <trkpt lat="46.04485" lon="5.46894">
        <ele>572</ele>
        <time>2022-06-06T12:53:35Z</time>
      </trkpt>
      <trkpt lat="46.04488" lon="5.46902">
        <ele>572.4</ele>
        <time>2022-06-06T12:53:37Z</time>
      </trkpt>
      <trkpt lat="46.04491" lon="5.46915">
        <ele>573.4</ele>
        <time>2022-06-06T12:53:40Z</time>
      </trkpt>
      <trkpt lat="46.04496" lon="5.46933">
        <ele>574.4</ele>
        <time>2022-06-06T12:53:44Z</time>
      </trkpt>
      <trkpt lat="46.04504" lon="5.46971">
        <ele>575.6</ele>
        <time>2022-06-06T12:53:52Z</time>
      </trkpt>
      <trkpt lat="46.04508" lon="5.47">
        <ele>576.8</ele>
        <time>2022-06-06T12:53:58Z</time>
      </trkpt>
      <trkpt lat="46.0451" lon="5.47014">
        <ele>577.2</ele>
        <time>2022-06-06T12:54:01Z</time>
      </trkpt>
      <trkpt lat="46.04512" lon="5.47027">
        <ele>577.8</ele>
        <time>2022-06-06T12:54:04Z</time>
      </trkpt>
      <trkpt lat="46.04514" lon="5.47046">
        <ele>579</ele>
        <time>2022-06-06T12:54:08Z</time>
      </trkpt>
      <trkpt lat="46.04515" lon="5.47055">
        <ele>579.4</ele>
        <time>2022-06-06T12:54:10Z</time>
      </trkpt>
      <trkpt lat="46.04517" lon="5.47068">
        <ele>580</ele>
        <time>2022-06-06T12:54:13Z</time>
      </trkpt>
      <trkpt lat="46.04516" lon="5.47082">
        <ele>580.8</ele>
        <time>2022-06-06T12:54:16Z</time>
      </trkpt>
      <trkpt lat="46.04515" lon="5.4709">
        <ele>581.4</ele>
        <time>2022-06-06T12:54:18Z</time>
      </trkpt>
      <trkpt lat="46.04512" lon="5.47105">
        <ele>582.4</ele>
        <time>2022-06-06T12:54:22Z</time>
      </trkpt>
      <trkpt lat="46.04509" lon="5.47121">
        <ele>583.4</ele>
        <time>2022-06-06T12:54:26Z</time>
      </trkpt>
      <trkpt lat="46.04503" lon="5.47145">
        <ele>584.8</ele>
        <time>2022-06-06T12:54:32Z</time>
      </trkpt>
      <trkpt lat="46.045" lon="5.47162">
        <ele>586.2</ele>
        <time>2022-06-06T12:54:36Z</time>
      </trkpt>
      <trkpt lat="46.04494" lon="5.47193">
        <ele>587.2</ele>
        <time>2022-06-06T12:54:43Z</time>
      </trkpt>
      <trkpt lat="46.04492" lon="5.47201">
        <ele>587.6</ele>
        <time>2022-06-06T12:54:45Z</time>
      </trkpt>
      <trkpt lat="46.0449" lon="5.47213">
        <ele>588.4</ele>
        <time>2022-06-06T12:54:48Z</time>
      </trkpt>
      <trkpt lat="46.04485" lon="5.47234">
        <ele>589.4</ele>
        <time>2022-06-06T12:54:53Z</time>
      </trkpt>
      <trkpt lat="46.04483" lon="5.47247">
        <ele>590</ele>
        <time>2022-06-06T12:54:56Z</time>
      </trkpt>
      <trkpt lat="46.04482" lon="5.47251">
        <ele>590.4</ele>
        <time>2022-06-06T12:54:57Z</time>
      </trkpt>
      <trkpt lat="46.04477" lon="5.47275">
        <ele>591.4</ele>
        <time>2022-06-06T12:55:03Z</time>
      </trkpt>
      <trkpt lat="46.04472" lon="5.47296">
        <ele>592.4</ele>
        <time>2022-06-06T12:55:08Z</time>
      </trkpt>
      <trkpt lat="46.04472" lon="5.473">
        <ele>592.6</ele>
        <time>2022-06-06T12:55:09Z</time>
      </trkpt>
      <trkpt lat="46.04466" lon="5.47323">
        <ele>593.8</ele>
        <time>2022-06-06T12:55:14Z</time>
      </trkpt>
      <trkpt lat="46.04461" lon="5.47347">
        <ele>594.8</ele>
        <time>2022-06-06T12:55:19Z</time>
      </trkpt>
      <trkpt lat="46.04461" lon="5.47351">
        <ele>595</ele>
        <time>2022-06-06T12:55:20Z</time>
      </trkpt>
      <trkpt lat="46.04454" lon="5.47379">
        <ele>596</ele>
        <time>2022-06-06T12:55:26Z</time>
      </trkpt>
      <trkpt lat="46.04448" lon="5.47403">
        <ele>596.8</ele>
        <time>2022-06-06T12:55:31Z</time>
      </trkpt>
      <trkpt lat="46.04446" lon="5.47413">
        <ele>597.6</ele>
        <time>2022-06-06T12:55:33Z</time>
      </trkpt>
      <trkpt lat="46.04443" lon="5.47429">
        <ele>598.2</ele>
        <time>2022-06-06T12:55:36Z</time>
      </trkpt>
      <trkpt lat="46.04441" lon="5.47439">
        <ele>598.6</ele>
        <time>2022-06-06T12:55:38Z</time>
      </trkpt>
      <trkpt lat="46.0444" lon="5.47444">
        <ele>598.8</ele>
        <time>2022-06-06T12:55:39Z</time>
      </trkpt>
      <trkpt lat="46.04433" lon="5.47488">
        <ele>599.4</ele>
        <time>2022-06-06T12:55:46Z</time>
      </trkpt>
      <trkpt lat="46.04431" lon="5.475">
        <ele>599.6</ele>
        <time>2022-06-06T12:55:48Z</time>
      </trkpt>
      <trkpt lat="46.04431" lon="5.47506">
        <ele>599.6</ele>
        <time>2022-06-06T12:55:49Z</time>
      </trkpt>
      <trkpt lat="46.04431" lon="5.47512">
        <ele>599.8</ele>
        <time>2022-06-06T12:55:50Z</time>
      </trkpt>
      <trkpt lat="46.0443" lon="5.47524">
        <ele>600</ele>
        <time>2022-06-06T12:55:52Z</time>
      </trkpt>
      <trkpt lat="46.04428" lon="5.47557">
        <ele>600.6</ele>
        <time>2022-06-06T12:55:57Z</time>
      </trkpt>
      <trkpt lat="46.04429" lon="5.47573">
        <ele>601</ele>
        <time>2022-06-06T12:55:59Z</time>
      </trkpt>
      <trkpt lat="46.04429" lon="5.47579">
        <ele>601.2</ele>
        <time>2022-06-06T12:56:00Z</time>
      </trkpt>
      <trkpt lat="46.04438" lon="5.47612">
        <ele>601.6</ele>
        <time>2022-06-06T12:56:05Z</time>
      </trkpt>
      <trkpt lat="46.04441" lon="5.47618">
        <ele>601.8</ele>
        <time>2022-06-06T12:56:06Z</time>
      </trkpt>
      <trkpt lat="46.04458" lon="5.47642">
        <ele>602.2</ele>
        <time>2022-06-06T12:56:11Z</time>
      </trkpt>
      <trkpt lat="46.04461" lon="5.47646">
        <ele>602.4</ele>
        <time>2022-06-06T12:56:12Z</time>
      </trkpt>
      <trkpt lat="46.04469" lon="5.47652">
        <ele>602.8</ele>
        <time>2022-06-06T12:56:14Z</time>
      </trkpt>
      <trkpt lat="46.04481" lon="5.47663">
        <ele>603.8</ele>
        <time>2022-06-06T12:56:17Z</time>
      </trkpt>
      <trkpt lat="46.0449" lon="5.47677">
        <ele>604.8</ele>
        <time>2022-06-06T12:56:20Z</time>
      </trkpt>
      <trkpt lat="46.04497" lon="5.47693">
        <ele>605.2</ele>
        <time>2022-06-06T12:56:23Z</time>
      </trkpt>
      <trkpt lat="46.04505" lon="5.47714">
        <ele>606</ele>
        <time>2022-06-06T12:56:27Z</time>
      </trkpt>
      <trkpt lat="46.04513" lon="5.47735">
        <ele>607.2</ele>
        <time>2022-06-06T12:56:31Z</time>
      </trkpt>
      <trkpt lat="46.04524" lon="5.47754">
        <ele>608.4</ele>
        <time>2022-06-06T12:56:35Z</time>
      </trkpt>
      <trkpt lat="46.04532" lon="5.47765">
        <ele>609</ele>
        <time>2022-06-06T12:56:38Z</time>
      </trkpt>
      <trkpt lat="46.04539" lon="5.47772">
        <ele>609.6</ele>
        <time>2022-06-06T12:56:40Z</time>
      </trkpt>
      <trkpt lat="46.04553" lon="5.47783">
        <ele>610.8</ele>
        <time>2022-06-06T12:56:44Z</time>
      </trkpt>
      <trkpt lat="46.04559" lon="5.47787">
        <ele>611.2</ele>
        <time>2022-06-06T12:56:46Z</time>
      </trkpt>
      <trkpt lat="46.04566" lon="5.47791">
        <ele>611.8</ele>
        <time>2022-06-06T12:56:48Z</time>
      </trkpt>
      <trkpt lat="46.04586" lon="5.47805">
        <ele>612.8</ele>
        <time>2022-06-06T12:56:54Z</time>
      </trkpt>
      <trkpt lat="46.0459" lon="5.47807">
        <ele>612.8</ele>
        <time>2022-06-06T12:56:55Z</time>
      </trkpt>
      <trkpt lat="46.04606" lon="5.47818">
        <ele>614</ele>
        <time>2022-06-06T12:57:00Z</time>
      </trkpt>
      <trkpt lat="46.04618" lon="5.47829">
        <ele>614.8</ele>
        <time>2022-06-06T12:57:04Z</time>
      </trkpt>
      <trkpt lat="46.04621" lon="5.47831">
        <ele>615</ele>
        <time>2022-06-06T12:57:05Z</time>
      </trkpt>
      <trkpt lat="46.04632" lon="5.47843">
        <ele>616</ele>
        <time>2022-06-06T12:57:09Z</time>
      </trkpt>
      <trkpt lat="46.04647" lon="5.47856">
        <ele>617.2</ele>
        <time>2022-06-06T12:57:14Z</time>
      </trkpt>
      <trkpt lat="46.04653" lon="5.47862">
        <ele>617.8</ele>
        <time>2022-06-06T12:57:16Z</time>
      </trkpt>
      <trkpt lat="46.04663" lon="5.47871">
        <ele>618.2</ele>
        <time>2022-06-06T12:57:19Z</time>
      </trkpt>
      <trkpt lat="46.04677" lon="5.4788">
        <ele>619.2</ele>
        <time>2022-06-06T12:57:23Z</time>
      </trkpt>
      <trkpt lat="46.04687" lon="5.47888">
        <ele>619.8</ele>
        <time>2022-06-06T12:57:26Z</time>
      </trkpt>
      <trkpt lat="46.047" lon="5.47897">
        <ele>620.4</ele>
        <time>2022-06-06T12:57:30Z</time>
      </trkpt>
      <trkpt lat="46.04716" lon="5.47911">
        <ele>621.4</ele>
        <time>2022-06-06T12:57:35Z</time>
      </trkpt>
      <trkpt lat="46.04719" lon="5.47914">
        <ele>621.6</ele>
        <time>2022-06-06T12:57:36Z</time>
      </trkpt>
      <trkpt lat="46.04728" lon="5.47929">
        <ele>622.6</ele>
        <time>2022-06-06T12:57:40Z</time>
      </trkpt>
      <trkpt lat="46.04729" lon="5.47933">
        <ele>623</ele>
        <time>2022-06-06T12:57:41Z</time>
      </trkpt>
      <trkpt lat="46.04731" lon="5.47959">
        <ele>623.8</ele>
        <time>2022-06-06T12:57:46Z</time>
      </trkpt>
      <trkpt lat="46.04724" lon="5.47976">
        <ele>625</ele>
        <time>2022-06-06T12:57:50Z</time>
      </trkpt>
      <trkpt lat="46.04722" lon="5.4798">
        <ele>625.4</ele>
        <time>2022-06-06T12:57:51Z</time>
      </trkpt>
      <trkpt lat="46.04715" lon="5.4799">
        <ele>626</ele>
        <time>2022-06-06T12:57:54Z</time>
      </trkpt>
      <trkpt lat="46.04705" lon="5.48003">
        <ele>627.2</ele>
        <time>2022-06-06T12:57:58Z</time>
      </trkpt>
      <trkpt lat="46.047" lon="5.48011">
        <ele>627.6</ele>
        <time>2022-06-06T12:58:00Z</time>
      </trkpt>
      <trkpt lat="46.04695" lon="5.48018">
        <ele>628.2</ele>
        <time>2022-06-06T12:58:02Z</time>
      </trkpt>
      <trkpt lat="46.04682" lon="5.48039">
        <ele>629.2</ele>
        <time>2022-06-06T12:58:07Z</time>
      </trkpt>
      <trkpt lat="46.04668" lon="5.48059">
        <ele>630.4</ele>
        <time>2022-06-06T12:58:12Z</time>
      </trkpt>
      <trkpt lat="46.04665" lon="5.48063">
        <ele>630.6</ele>
        <time>2022-06-06T12:58:13Z</time>
      </trkpt>
      <trkpt lat="46.04644" lon="5.48078">
        <ele>631.6</ele>
        <time>2022-06-06T12:58:19Z</time>
      </trkpt>
      <trkpt lat="46.04627" lon="5.48085">
        <ele>632.8</ele>
        <time>2022-06-06T12:58:24Z</time>
      </trkpt>
      <trkpt lat="46.04624" lon="5.48086">
        <ele>632.8</ele>
        <time>2022-06-06T12:58:25Z</time>
      </trkpt>
      <trkpt lat="46.04606" lon="5.4809">
        <ele>634</ele>
        <time>2022-06-06T12:58:30Z</time>
      </trkpt>
      <trkpt lat="46.04595" lon="5.4809">
        <ele>634.8</ele>
        <time>2022-06-06T12:58:33Z</time>
      </trkpt>
      <trkpt lat="46.04591" lon="5.48091">
        <ele>634.8</ele>
        <time>2022-06-06T12:58:34Z</time>
      </trkpt>
      <trkpt lat="46.04587" lon="5.48092">
        <ele>635</ele>
        <time>2022-06-06T12:58:35Z</time>
      </trkpt>
      <trkpt lat="46.04576" lon="5.48092">
        <ele>635.6</ele>
        <time>2022-06-06T12:58:38Z</time>
      </trkpt>
      <trkpt lat="46.04562" lon="5.48092">
        <ele>636</ele>
        <time>2022-06-06T12:58:42Z</time>
      </trkpt>
      <trkpt lat="46.04547" lon="5.48092">
        <ele>636.8</ele>
        <time>2022-06-06T12:58:46Z</time>
      </trkpt>
      <trkpt lat="46.04544" lon="5.48091">
        <ele>637</ele>
        <time>2022-06-06T12:58:47Z</time>
      </trkpt>
      <trkpt lat="46.0453" lon="5.4809">
        <ele>638</ele>
        <time>2022-06-06T12:58:51Z</time>
      </trkpt>
      <trkpt lat="46.04508" lon="5.48086">
        <ele>639.2</ele>
        <time>2022-06-06T12:58:57Z</time>
      </trkpt>
      <trkpt lat="46.04493" lon="5.48081">
        <ele>640.2</ele>
        <time>2022-06-06T12:59:02Z</time>
      </trkpt>
      <trkpt lat="46.04483" lon="5.48075">
        <ele>640.8</ele>
        <time>2022-06-06T12:59:05Z</time>
      </trkpt>
      <trkpt lat="46.0448" lon="5.48073">
        <ele>641.2</ele>
        <time>2022-06-06T12:59:06Z</time>
      </trkpt>
      <trkpt lat="46.0446" lon="5.48063">
        <ele>642.2</ele>
        <time>2022-06-06T12:59:12Z</time>
      </trkpt>
      <trkpt lat="46.04456" lon="5.48061">
        <ele>642.6</ele>
        <time>2022-06-06T12:59:13Z</time>
      </trkpt>
      <trkpt lat="46.04438" lon="5.48057">
        <ele>643.4</ele>
        <time>2022-06-06T12:59:18Z</time>
      </trkpt>
      <trkpt lat="46.04431" lon="5.48056">
        <ele>644.2</ele>
        <time>2022-06-06T12:59:20Z</time>
      </trkpt>
      <trkpt lat="46.04423" lon="5.48055">
        <ele>644.6</ele>
        <time>2022-06-06T12:59:22Z</time>
      </trkpt>
      <trkpt lat="46.04399" lon="5.48056">
        <ele>645.8</ele>
        <time>2022-06-06T12:59:29Z</time>
      </trkpt>
      <trkpt lat="46.04395" lon="5.48056">
        <ele>645.8</ele>
        <time>2022-06-06T12:59:30Z</time>
      </trkpt>
      <trkpt lat="46.04379" lon="5.48058">
        <ele>646.8</ele>
        <time>2022-06-06T12:59:34Z</time>
      </trkpt>
      <trkpt lat="46.04358" lon="5.48061">
        <ele>647.8</ele>
        <time>2022-06-06T12:59:40Z</time>
      </trkpt>
      <trkpt lat="46.04354" lon="5.48061">
        <ele>647.8</ele>
        <time>2022-06-06T12:59:41Z</time>
      </trkpt>
      <trkpt lat="46.04338" lon="5.48062">
        <ele>649.2</ele>
        <time>2022-06-06T12:59:45Z</time>
      </trkpt>
      <trkpt lat="46.04327" lon="5.48063">
        <ele>650.2</ele>
        <time>2022-06-06T12:59:48Z</time>
      </trkpt>
      <trkpt lat="46.04319" lon="5.48063">
        <ele>650.6</ele>
        <time>2022-06-06T12:59:50Z</time>
      </trkpt>
      <trkpt lat="46.04312" lon="5.48062">
        <ele>651.2</ele>
        <time>2022-06-06T12:59:52Z</time>
      </trkpt>
      <trkpt lat="46.04298" lon="5.48062">
        <ele>651.8</ele>
        <time>2022-06-06T12:59:56Z</time>
      </trkpt>
      <trkpt lat="46.04287" lon="5.48062">
        <ele>652.4</ele>
        <time>2022-06-06T12:59:59Z</time>
      </trkpt>
      <trkpt lat="46.04277" lon="5.48059">
        <ele>653.4</ele>
        <time>2022-06-06T13:00:02Z</time>
      </trkpt>
      <trkpt lat="46.04262" lon="5.48056">
        <ele>654</ele>
        <time>2022-06-06T13:00:06Z</time>
      </trkpt>
      <trkpt lat="46.04251" lon="5.48053">
        <ele>655</ele>
        <time>2022-06-06T13:00:09Z</time>
      </trkpt>
      <trkpt lat="46.04237" lon="5.48052">
        <ele>656.2</ele>
        <time>2022-06-06T13:00:13Z</time>
      </trkpt>
      <trkpt lat="46.04223" lon="5.48044">
        <ele>657</ele>
        <time>2022-06-06T13:00:17Z</time>
      </trkpt>
      <trkpt lat="46.04213" lon="5.4804">
        <ele>657.8</ele>
        <time>2022-06-06T13:00:20Z</time>
      </trkpt>
      <trkpt lat="46.04202" lon="5.48037">
        <ele>658.4</ele>
        <time>2022-06-06T13:00:23Z</time>
      </trkpt>
      <trkpt lat="46.04191" lon="5.4803">
        <ele>659</ele>
        <time>2022-06-06T13:00:26Z</time>
      </trkpt>
      <trkpt lat="46.04183" lon="5.48029">
        <ele>659.4</ele>
        <time>2022-06-06T13:00:28Z</time>
      </trkpt>
      <trkpt lat="46.04169" lon="5.48026">
        <ele>660.2</ele>
        <time>2022-06-06T13:00:32Z</time>
      </trkpt>
      <trkpt lat="46.04159" lon="5.48023">
        <ele>660.8</ele>
        <time>2022-06-06T13:00:34Z</time>
      </trkpt>
      <trkpt lat="46.04141" lon="5.4802">
        <ele>661.6</ele>
        <time>2022-06-06T13:00:38Z</time>
      </trkpt>
      <trkpt lat="46.04137" lon="5.4802">
        <ele>661.6</ele>
        <time>2022-06-06T13:00:39Z</time>
      </trkpt>
      <trkpt lat="46.0412" lon="5.48021">
        <ele>663</ele>
        <time>2022-06-06T13:00:44Z</time>
      </trkpt>
      <trkpt lat="46.04116" lon="5.48021">
        <ele>663.2</ele>
        <time>2022-06-06T13:00:45Z</time>
      </trkpt>
      <trkpt lat="46.041" lon="5.48018">
        <ele>664</ele>
        <time>2022-06-06T13:00:49Z</time>
      </trkpt>
      <trkpt lat="46.04086" lon="5.48015">
        <ele>664.4</ele>
        <time>2022-06-06T13:00:52Z</time>
      </trkpt>
      <trkpt lat="46.04074" lon="5.48006">
        <ele>665.2</ele>
        <time>2022-06-06T13:00:55Z</time>
      </trkpt>
      <trkpt lat="46.04067" lon="5.47999">
        <ele>665.8</ele>
        <time>2022-06-06T13:00:58Z</time>
      </trkpt>
      <trkpt lat="46.04052" lon="5.47997">
        <ele>666.2</ele>
        <time>2022-06-06T13:01:01Z</time>
      </trkpt>
      <trkpt lat="46.04042" lon="5.4799">
        <ele>667.4</ele>
        <time>2022-06-06T13:01:04Z</time>
      </trkpt>
      <trkpt lat="46.04031" lon="5.47987">
        <ele>668.4</ele>
        <time>2022-06-06T13:01:08Z</time>
      </trkpt>
      <trkpt lat="46.04024" lon="5.47984">
        <ele>668.6</ele>
        <time>2022-06-06T13:01:10Z</time>
      </trkpt>
      <trkpt lat="46.04012" lon="5.4798">
        <ele>669.4</ele>
        <time>2022-06-06T13:01:13Z</time>
      </trkpt>
      <trkpt lat="46.04001" lon="5.47974">
        <ele>669.8</ele>
        <time>2022-06-06T13:01:16Z</time>
      </trkpt>
      <trkpt lat="46.0398" lon="5.47963">
        <ele>670.4</ele>
        <time>2022-06-06T13:01:22Z</time>
      </trkpt>
      <trkpt lat="46.03976" lon="5.47961">
        <ele>670.6</ele>
        <time>2022-06-06T13:01:23Z</time>
      </trkpt>
      <trkpt lat="46.03962" lon="5.47955">
        <ele>671.6</ele>
        <time>2022-06-06T13:01:27Z</time>
      </trkpt>
      <trkpt lat="46.03952" lon="5.47953">
        <ele>672</ele>
        <time>2022-06-06T13:01:30Z</time>
      </trkpt>
      <trkpt lat="46.03945" lon="5.47949">
        <ele>672.8</ele>
        <time>2022-06-06T13:01:32Z</time>
      </trkpt>
      <trkpt lat="46.03939" lon="5.47947">
        <ele>673.4</ele>
        <time>2022-06-06T13:01:34Z</time>
      </trkpt>
      <trkpt lat="46.03931" lon="5.47945">
        <ele>673.8</ele>
        <time>2022-06-06T13:01:36Z</time>
      </trkpt>
      <trkpt lat="46.03917" lon="5.47939">
        <ele>675.2</ele>
        <time>2022-06-06T13:01:40Z</time>
      </trkpt>
      <trkpt lat="46.03903" lon="5.47935">
        <ele>675.8</ele>
        <time>2022-06-06T13:01:44Z</time>
      </trkpt>
      <trkpt lat="46.03899" lon="5.47934">
        <ele>676</ele>
        <time>2022-06-06T13:01:45Z</time>
      </trkpt>
      <trkpt lat="46.03877" lon="5.47929">
        <ele>677</ele>
        <time>2022-06-06T13:01:51Z</time>
      </trkpt>
      <trkpt lat="46.03873" lon="5.47928">
        <ele>677.2</ele>
        <time>2022-06-06T13:01:52Z</time>
      </trkpt>
      <trkpt lat="46.03855" lon="5.47924">
        <ele>678</ele>
        <time>2022-06-06T13:01:57Z</time>
      </trkpt>
      <trkpt lat="46.03848" lon="5.47922">
        <ele>678.4</ele>
        <time>2022-06-06T13:01:59Z</time>
      </trkpt>
      <trkpt lat="46.03837" lon="5.47919">
        <ele>679</ele>
        <time>2022-06-06T13:02:02Z</time>
      </trkpt>
      <trkpt lat="46.03819" lon="5.47914">
        <ele>680</ele>
        <time>2022-06-06T13:02:07Z</time>
      </trkpt>
      <trkpt lat="46.03796" lon="5.47907">
        <ele>681.2</ele>
        <time>2022-06-06T13:02:14Z</time>
      </trkpt>
      <trkpt lat="46.03793" lon="5.47907">
        <ele>681.4</ele>
        <time>2022-06-06T13:02:15Z</time>
      </trkpt>
      <trkpt lat="46.03788" lon="5.47905">
        <ele>681.6</ele>
        <time>2022-06-06T13:02:16Z</time>
      </trkpt>
      <trkpt lat="46.03777" lon="5.47902">
        <ele>682.4</ele>
        <time>2022-06-06T13:02:19Z</time>
      </trkpt>
      <trkpt lat="46.03766" lon="5.47902">
        <ele>682.8</ele>
        <time>2022-06-06T13:02:22Z</time>
      </trkpt>
      <trkpt lat="46.03755" lon="5.479">
        <ele>683.4</ele>
        <time>2022-06-06T13:02:25Z</time>
      </trkpt>
      <trkpt lat="46.03747" lon="5.47899">
        <ele>683.8</ele>
        <time>2022-06-06T13:02:27Z</time>
      </trkpt>
      <trkpt lat="46.03739" lon="5.47897">
        <ele>684.2</ele>
        <time>2022-06-06T13:02:29Z</time>
      </trkpt>
      <trkpt lat="46.0372" lon="5.47896">
        <ele>685.2</ele>
        <time>2022-06-06T13:02:34Z</time>
      </trkpt>
      <trkpt lat="46.03715" lon="5.47895">
        <ele>685.6</ele>
        <time>2022-06-06T13:02:35Z</time>
      </trkpt>
      <trkpt lat="46.03693" lon="5.47888">
        <ele>686.4</ele>
        <time>2022-06-06T13:02:41Z</time>
      </trkpt>
      <trkpt lat="46.03677" lon="5.47885">
        <ele>686.8</ele>
        <time>2022-06-06T13:02:45Z</time>
      </trkpt>
      <trkpt lat="46.03671" lon="5.47882">
        <ele>687.4</ele>
        <time>2022-06-06T13:02:47Z</time>
      </trkpt>
      <trkpt lat="46.03664" lon="5.47877">
        <ele>687.8</ele>
        <time>2022-06-06T13:02:49Z</time>
      </trkpt>
      <trkpt lat="46.03649" lon="5.47868">
        <ele>688.4</ele>
        <time>2022-06-06T13:02:53Z</time>
      </trkpt>
      <trkpt lat="46.03645" lon="5.47866">
        <ele>688.6</ele>
        <time>2022-06-06T13:02:54Z</time>
      </trkpt>
      <trkpt lat="46.03632" lon="5.47859">
        <ele>689.4</ele>
        <time>2022-06-06T13:02:57Z</time>
      </trkpt>
      <trkpt lat="46.03622" lon="5.47853">
        <ele>689.8</ele>
        <time>2022-06-06T13:03:00Z</time>
      </trkpt>
      <trkpt lat="46.03618" lon="5.47851">
        <ele>690.2</ele>
        <time>2022-06-06T13:03:01Z</time>
      </trkpt>
      <trkpt lat="46.03613" lon="5.47849">
        <ele>690.4</ele>
        <time>2022-06-06T13:03:02Z</time>
      </trkpt>
      <trkpt lat="46.03593" lon="5.47834">
        <ele>691.6</ele>
        <time>2022-06-06T13:03:07Z</time>
      </trkpt>
      <trkpt lat="46.0356" lon="5.47808">
        <ele>692.4</ele>
        <time>2022-06-06T13:03:16Z</time>
      </trkpt>
      <trkpt lat="46.03543" lon="5.47791">
        <ele>693.4</ele>
        <time>2022-06-06T13:03:21Z</time>
      </trkpt>
      <trkpt lat="46.03534" lon="5.47786">
        <ele>694</ele>
        <time>2022-06-06T13:03:24Z</time>
      </trkpt>
      <trkpt lat="46.03531" lon="5.47784">
        <ele>694.2</ele>
        <time>2022-06-06T13:03:25Z</time>
      </trkpt>
      <trkpt lat="46.03524" lon="5.47789">
        <ele>694.6</ele>
        <time>2022-06-06T13:03:27Z</time>
      </trkpt>
      <trkpt lat="46.03518" lon="5.47804">
        <ele>695</ele>
        <time>2022-06-06T13:03:30Z</time>
      </trkpt>
      <trkpt lat="46.03518" lon="5.47819">
        <ele>695.8</ele>
        <time>2022-06-06T13:03:33Z</time>
      </trkpt>
      <trkpt lat="46.0352" lon="5.47825">
        <ele>696.2</ele>
        <time>2022-06-06T13:03:34Z</time>
      </trkpt>
      <trkpt lat="46.03522" lon="5.47829">
        <ele>696.6</ele>
        <time>2022-06-06T13:03:35Z</time>
      </trkpt>
      <trkpt lat="46.03525" lon="5.47833">
        <ele>696.8</ele>
        <time>2022-06-06T13:03:36Z</time>
      </trkpt>
      <trkpt lat="46.03529" lon="5.47836">
        <ele>697.2</ele>
        <time>2022-06-06T13:03:37Z</time>
      </trkpt>
      <trkpt lat="46.03544" lon="5.4785">
        <ele>698</ele>
        <time>2022-06-06T13:03:41Z</time>
      </trkpt>
      <trkpt lat="46.03547" lon="5.47853">
        <ele>698.2</ele>
        <time>2022-06-06T13:03:42Z</time>
      </trkpt>
      <trkpt lat="46.03551" lon="5.47856">
        <ele>698.2</ele>
        <time>2022-06-06T13:03:43Z</time>
      </trkpt>
      <trkpt lat="46.03564" lon="5.47868">
        <ele>698.8</ele>
        <time>2022-06-06T13:03:47Z</time>
      </trkpt>
      <trkpt lat="46.03567" lon="5.47871">
        <ele>699</ele>
        <time>2022-06-06T13:03:48Z</time>
      </trkpt>
      <trkpt lat="46.03573" lon="5.4788">
        <ele>699.8</ele>
        <time>2022-06-06T13:03:52Z</time>
      </trkpt>
      <trkpt lat="46.03576" lon="5.47883">
        <ele>700</ele>
        <time>2022-06-06T13:03:53Z</time>
      </trkpt>
      <trkpt lat="46.03596" lon="5.47897">
        <ele>701.2</ele>
        <time>2022-06-06T13:03:58Z</time>
      </trkpt>
      <trkpt lat="46.0361" lon="5.47905">
        <ele>701.6</ele>
        <time>2022-06-06T13:04:01Z</time>
      </trkpt>
      <trkpt lat="46.03613" lon="5.47907">
        <ele>701.8</ele>
        <time>2022-06-06T13:04:02Z</time>
      </trkpt>
      <trkpt lat="46.03621" lon="5.47913">
        <ele>702.2</ele>
        <time>2022-06-06T13:04:04Z</time>
      </trkpt>
      <trkpt lat="46.03626" lon="5.47915">
        <ele>702.8</ele>
        <time>2022-06-06T13:04:05Z</time>
      </trkpt>
      <trkpt lat="46.03632" lon="5.47918">
        <ele>703.4</ele>
        <time>2022-06-06T13:04:07Z</time>
      </trkpt>
      <trkpt lat="46.03652" lon="5.47931">
        <ele>704.2</ele>
        <time>2022-06-06T13:04:13Z</time>
      </trkpt>
      <trkpt lat="46.03656" lon="5.47933">
        <ele>704.2</ele>
        <time>2022-06-06T13:04:14Z</time>
      </trkpt>
      <trkpt lat="46.03674" lon="5.47939">
        <ele>704.8</ele>
        <time>2022-06-06T13:04:18Z</time>
      </trkpt>
      <trkpt lat="46.03684" lon="5.47946">
        <ele>705.4</ele>
        <time>2022-06-06T13:04:21Z</time>
      </trkpt>
      <trkpt lat="46.03688" lon="5.47952">
        <ele>705.8</ele>
        <time>2022-06-06T13:04:23Z</time>
      </trkpt>
      <trkpt lat="46.03701" lon="5.47957">
        <ele>706.4</ele>
        <time>2022-06-06T13:04:27Z</time>
      </trkpt>
      <trkpt lat="46.0371" lon="5.47958">
        <ele>707</ele>
        <time>2022-06-06T13:04:30Z</time>
      </trkpt>
      <trkpt lat="46.03712" lon="5.47958">
        <ele>707.2</ele>
        <time>2022-06-06T13:04:31Z</time>
      </trkpt>
      <trkpt lat="46.03716" lon="5.47959">
        <ele>707.2</ele>
        <time>2022-06-06T13:04:32Z</time>
      </trkpt>
      <trkpt lat="46.03718" lon="5.4796">
        <ele>707.4</ele>
        <time>2022-06-06T13:04:33Z</time>
      </trkpt>
      <trkpt lat="46.03727" lon="5.47963">
        <ele>707.8</ele>
        <time>2022-06-06T13:04:35Z</time>
      </trkpt>
      <trkpt lat="46.03737" lon="5.47964">
        <ele>708.4</ele>
        <time>2022-06-06T13:04:37Z</time>
      </trkpt>
      <trkpt lat="46.03745" lon="5.47968">
        <ele>708.8</ele>
        <time>2022-06-06T13:04:39Z</time>
      </trkpt>
      <trkpt lat="46.03754" lon="5.47972">
        <ele>709.6</ele>
        <time>2022-06-06T13:04:42Z</time>
      </trkpt>
      <trkpt lat="46.03767" lon="5.47975">
        <ele>710.6</ele>
        <time>2022-06-06T13:04:46Z</time>
      </trkpt>
      <trkpt lat="46.03774" lon="5.47978">
        <ele>711</ele>
        <time>2022-06-06T13:04:48Z</time>
      </trkpt>
      <trkpt lat="46.03795" lon="5.47988">
        <ele>711.8</ele>
        <time>2022-06-06T13:04:54Z</time>
      </trkpt>
      <trkpt lat="46.0381" lon="5.47996">
        <ele>712.4</ele>
        <time>2022-06-06T13:04:57Z</time>
      </trkpt>
      <trkpt lat="46.03813" lon="5.47999">
        <ele>712.8</ele>
        <time>2022-06-06T13:04:58Z</time>
      </trkpt>
      <trkpt lat="46.03838" lon="5.48007">
        <ele>713.6</ele>
        <time>2022-06-06T13:05:03Z</time>
      </trkpt>
      <trkpt lat="46.03847" lon="5.48011">
        <ele>713.8</ele>
        <time>2022-06-06T13:05:05Z</time>
      </trkpt>
      <trkpt lat="46.03861" lon="5.48018">
        <ele>714.8</ele>
        <time>2022-06-06T13:05:10Z</time>
      </trkpt>
      <trkpt lat="46.03875" lon="5.48025">
        <ele>715.8</ele>
        <time>2022-06-06T13:05:14Z</time>
      </trkpt>
      <trkpt lat="46.03877" lon="5.48026">
        <ele>716</ele>
        <time>2022-06-06T13:05:15Z</time>
      </trkpt>
      <trkpt lat="46.03898" lon="5.48038">
        <ele>717.2</ele>
        <time>2022-06-06T13:05:21Z</time>
      </trkpt>
      <trkpt lat="46.03924" lon="5.48054">
        <ele>718.2</ele>
        <time>2022-06-06T13:05:28Z</time>
      </trkpt>
      <trkpt lat="46.03938" lon="5.48065">
        <ele>719.2</ele>
        <time>2022-06-06T13:05:33Z</time>
      </trkpt>
      <trkpt lat="46.03952" lon="5.48076">
        <ele>720</ele>
        <time>2022-06-06T13:05:37Z</time>
      </trkpt>
      <trkpt lat="46.03956" lon="5.48079">
        <ele>720.2</ele>
        <time>2022-06-06T13:05:38Z</time>
      </trkpt>
      <trkpt lat="46.03976" lon="5.48093">
        <ele>721.4</ele>
        <time>2022-06-06T13:05:44Z</time>
      </trkpt>
      <trkpt lat="46.03993" lon="5.48105">
        <ele>722.6</ele>
        <time>2022-06-06T13:05:49Z</time>
      </trkpt>
      <trkpt lat="46.04014" lon="5.48125">
        <ele>723.6</ele>
        <time>2022-06-06T13:05:55Z</time>
      </trkpt>
      <trkpt lat="46.04019" lon="5.48134">
        <ele>724</ele>
        <time>2022-06-06T13:05:57Z</time>
      </trkpt>
      <trkpt lat="46.04033" lon="5.48167">
        <ele>724.6</ele>
        <time>2022-06-06T13:06:03Z</time>
      </trkpt>
      <trkpt lat="46.04034" lon="5.48173">
        <ele>724.8</ele>
        <time>2022-06-06T13:06:04Z</time>
      </trkpt>
      <trkpt lat="46.04039" lon="5.48203">
        <ele>725.4</ele>
        <time>2022-06-06T13:06:09Z</time>
      </trkpt>
      <trkpt lat="46.0404" lon="5.4821">
        <ele>725.6</ele>
        <time>2022-06-06T13:06:10Z</time>
      </trkpt>
      <trkpt lat="46.04041" lon="5.48248">
        <ele>726.2</ele>
        <time>2022-06-06T13:06:16Z</time>
      </trkpt>
      <trkpt lat="46.0404" lon="5.48262">
        <ele>726.6</ele>
        <time>2022-06-06T13:06:18Z</time>
      </trkpt>
      <trkpt lat="46.04038" lon="5.48268">
        <ele>726.8</ele>
        <time>2022-06-06T13:06:19Z</time>
      </trkpt>
      <trkpt lat="46.0403" lon="5.48297">
        <ele>727.2</ele>
        <time>2022-06-06T13:06:23Z</time>
      </trkpt>
      <trkpt lat="46.04023" lon="5.48319">
        <ele>727.6</ele>
        <time>2022-06-06T13:06:26Z</time>
      </trkpt>
      <trkpt lat="46.04012" lon="5.48339">
        <ele>727.8</ele>
        <time>2022-06-06T13:06:29Z</time>
      </trkpt>
      <trkpt lat="46.04007" lon="5.48345">
        <ele>727.8</ele>
        <time>2022-06-06T13:06:30Z</time>
      </trkpt>
      <trkpt lat="46.03987" lon="5.48363">
        <ele>727.8</ele>
        <time>2022-06-06T13:06:34Z</time>
      </trkpt>
      <trkpt lat="46.03958" lon="5.48385">
        <ele>728</ele>
        <time>2022-06-06T13:06:40Z</time>
      </trkpt>
      <trkpt lat="46.03941" lon="5.48392">
        <ele>728.8</ele>
        <time>2022-06-06T13:06:44Z</time>
      </trkpt>
      <trkpt lat="46.03937" lon="5.48392">
        <ele>729</ele>
        <time>2022-06-06T13:06:45Z</time>
      </trkpt>
      <trkpt lat="46.03921" lon="5.48391">
        <ele>730.2</ele>
        <time>2022-06-06T13:06:49Z</time>
      </trkpt>
      <trkpt lat="46.03917" lon="5.48391">
        <ele>730.6</ele>
        <time>2022-06-06T13:06:50Z</time>
      </trkpt>
      <trkpt lat="46.03909" lon="5.48391">
        <ele>731.2</ele>
        <time>2022-06-06T13:06:52Z</time>
      </trkpt>
      <trkpt lat="46.03897" lon="5.4839">
        <ele>732.4</ele>
        <time>2022-06-06T13:06:55Z</time>
      </trkpt>
      <trkpt lat="46.03889" lon="5.48393">
        <ele>733.6</ele>
        <time>2022-06-06T13:06:57Z</time>
      </trkpt>
      <trkpt lat="46.03876" lon="5.48401">
        <ele>734.6</ele>
        <time>2022-06-06T13:07:00Z</time>
      </trkpt>
      <trkpt lat="46.0386" lon="5.48415">
        <ele>735.6</ele>
        <time>2022-06-06T13:07:04Z</time>
      </trkpt>
      <trkpt lat="46.03853" lon="5.48421">
        <ele>736.2</ele>
        <time>2022-06-06T13:07:06Z</time>
      </trkpt>
      <trkpt lat="46.03846" lon="5.48434">
        <ele>737</ele>
        <time>2022-06-06T13:07:09Z</time>
      </trkpt>
      <trkpt lat="46.0384" lon="5.48453">
        <ele>738</ele>
        <time>2022-06-06T13:07:13Z</time>
      </trkpt>
      <trkpt lat="46.03839" lon="5.48478">
        <ele>739.2</ele>
        <time>2022-06-06T13:07:17Z</time>
      </trkpt>
      <trkpt lat="46.0384" lon="5.48483">
        <ele>739.6</ele>
        <time>2022-06-06T13:07:18Z</time>
      </trkpt>
      <trkpt lat="46.03839" lon="5.48492">
        <ele>740.4</ele>
        <time>2022-06-06T13:07:20Z</time>
      </trkpt>
      <trkpt lat="46.03842" lon="5.48504">
        <ele>741.2</ele>
        <time>2022-06-06T13:07:23Z</time>
      </trkpt>
      <trkpt lat="46.03842" lon="5.48514">
        <ele>741.6</ele>
        <time>2022-06-06T13:07:25Z</time>
      </trkpt>
      <trkpt lat="46.03846" lon="5.48536">
        <ele>742.2</ele>
        <time>2022-06-06T13:07:30Z</time>
      </trkpt>
      <trkpt lat="46.03848" lon="5.4854">
        <ele>742.4</ele>
        <time>2022-06-06T13:07:31Z</time>
      </trkpt>
      <trkpt lat="46.03858" lon="5.48565">
        <ele>743.4</ele>
        <time>2022-06-06T13:07:37Z</time>
      </trkpt>
      <trkpt lat="46.0386" lon="5.48569">
        <ele>743.6</ele>
        <time>2022-06-06T13:07:38Z</time>
      </trkpt>
      <trkpt lat="46.03864" lon="5.48578">
        <ele>743.8</ele>
        <time>2022-06-06T13:07:40Z</time>
      </trkpt>
      <trkpt lat="46.03867" lon="5.48588">
        <ele>744.8</ele>
        <time>2022-06-06T13:07:42Z</time>
      </trkpt>
      <trkpt lat="46.03875" lon="5.48624">
        <ele>745.8</ele>
        <time>2022-06-06T13:07:49Z</time>
      </trkpt>
      <trkpt lat="46.03876" lon="5.48629">
        <ele>746</ele>
        <time>2022-06-06T13:07:50Z</time>
      </trkpt>
      <trkpt lat="46.03882" lon="5.48672">
        <ele>746.8</ele>
        <time>2022-06-06T13:07:57Z</time>
      </trkpt>
      <trkpt lat="46.03882" lon="5.48678">
        <ele>746.8</ele>
        <time>2022-06-06T13:07:58Z</time>
      </trkpt>
      <trkpt lat="46.03885" lon="5.48721">
        <ele>746.6</ele>
        <time>2022-06-06T13:08:04Z</time>
      </trkpt>
      <trkpt lat="46.03883" lon="5.4877">
        <ele>745.4</ele>
        <time>2022-06-06T13:08:09Z</time>
      </trkpt>
      <trkpt lat="46.03877" lon="5.48816">
        <ele>744.2</ele>
        <time>2022-06-06T13:08:13Z</time>
      </trkpt>
      <trkpt lat="46.03875" lon="5.48828">
        <ele>743.6</ele>
        <time>2022-06-06T13:08:14Z</time>
      </trkpt>
      <trkpt lat="46.03872" lon="5.4884">
        <ele>743.2</ele>
        <time>2022-06-06T13:08:15Z</time>
      </trkpt>
      <trkpt lat="46.03865" lon="5.48862">
        <ele>741.6</ele>
        <time>2022-06-06T13:08:17Z</time>
      </trkpt>
      <trkpt lat="46.03856" lon="5.48884">
        <ele>740.6</ele>
        <time>2022-06-06T13:08:19Z</time>
      </trkpt>
      <trkpt lat="46.0385" lon="5.48896">
        <ele>740.4</ele>
        <time>2022-06-06T13:08:20Z</time>
      </trkpt>
      <trkpt lat="46.03832" lon="5.4893">
        <ele>739.6</ele>
        <time>2022-06-06T13:08:24Z</time>
      </trkpt>
      <trkpt lat="46.03805" lon="5.48967">
        <ele>740</ele>
        <time>2022-06-06T13:08:30Z</time>
      </trkpt>
      <trkpt lat="46.03791" lon="5.48982">
        <ele>741.4</ele>
        <time>2022-06-06T13:08:33Z</time>
      </trkpt>
      <trkpt lat="46.03777" lon="5.48997">
        <ele>742.6</ele>
        <time>2022-06-06T13:08:36Z</time>
      </trkpt>
      <trkpt lat="46.03767" lon="5.49007">
        <ele>743</ele>
        <time>2022-06-06T13:08:38Z</time>
      </trkpt>
      <trkpt lat="46.03759" lon="5.49017">
        <ele>743.4</ele>
        <time>2022-06-06T13:08:40Z</time>
      </trkpt>
      <trkpt lat="46.03745" lon="5.49032">
        <ele>743.6</ele>
        <time>2022-06-06T13:08:43Z</time>
      </trkpt>
      <trkpt lat="46.03731" lon="5.49047">
        <ele>744</ele>
        <time>2022-06-06T13:08:46Z</time>
      </trkpt>
      <trkpt lat="46.03717" lon="5.49063">
        <ele>744.8</ele>
        <time>2022-06-06T13:08:49Z</time>
      </trkpt>
      <trkpt lat="46.03692" lon="5.4909">
        <ele>745</ele>
        <time>2022-06-06T13:08:54Z</time>
      </trkpt>
      <trkpt lat="46.03658" lon="5.49128">
        <ele>745.4</ele>
        <time>2022-06-06T13:09:01Z</time>
      </trkpt>
      <trkpt lat="46.03638" lon="5.4915">
        <ele>745.8</ele>
        <time>2022-06-06T13:09:05Z</time>
      </trkpt>
      <trkpt lat="46.03619" lon="5.49171">
        <ele>746.2</ele>
        <time>2022-06-06T13:09:09Z</time>
      </trkpt>
      <trkpt lat="46.03581" lon="5.49211">
        <ele>746.6</ele>
        <time>2022-06-06T13:09:17Z</time>
      </trkpt>
      <trkpt lat="46.03577" lon="5.49216">
        <ele>746.8</ele>
        <time>2022-06-06T13:09:18Z</time>
      </trkpt>
      <trkpt lat="46.03546" lon="5.4925">
        <ele>747.6</ele>
        <time>2022-06-06T13:09:25Z</time>
      </trkpt>
      <trkpt lat="46.03542" lon="5.49254">
        <ele>747.6</ele>
        <time>2022-06-06T13:09:26Z</time>
      </trkpt>
      <trkpt lat="46.03538" lon="5.49259">
        <ele>748</ele>
        <time>2022-06-06T13:09:27Z</time>
      </trkpt>
      <trkpt lat="46.03526" lon="5.49274">
        <ele>748.6</ele>
        <time>2022-06-06T13:09:30Z</time>
      </trkpt>
      <trkpt lat="46.03521" lon="5.49278">
        <ele>749</ele>
        <time>2022-06-06T13:09:31Z</time>
      </trkpt>
      <trkpt lat="46.03509" lon="5.49291">
        <ele>750</ele>
        <time>2022-06-06T13:09:34Z</time>
      </trkpt>
      <trkpt lat="46.035" lon="5.493">
        <ele>750.8</ele>
        <time>2022-06-06T13:09:36Z</time>
      </trkpt>
      <trkpt lat="46.03491" lon="5.49308">
        <ele>751.4</ele>
        <time>2022-06-06T13:09:38Z</time>
      </trkpt>
      <trkpt lat="46.03466" lon="5.49331">
        <ele>752.6</ele>
        <time>2022-06-06T13:09:43Z</time>
      </trkpt>
      <trkpt lat="46.03449" lon="5.49345">
        <ele>753.2</ele>
        <time>2022-06-06T13:09:47Z</time>
      </trkpt>
      <trkpt lat="46.03435" lon="5.49354">
        <ele>753.8</ele>
        <time>2022-06-06T13:09:50Z</time>
      </trkpt>
      <trkpt lat="46.03417" lon="5.49367">
        <ele>754.8</ele>
        <time>2022-06-06T13:09:54Z</time>
      </trkpt>
      <trkpt lat="46.03412" lon="5.4937">
        <ele>755</ele>
        <time>2022-06-06T13:09:55Z</time>
      </trkpt>
      <trkpt lat="46.03385" lon="5.4939">
        <ele>755.8</ele>
        <time>2022-06-06T13:10:01Z</time>
      </trkpt>
      <trkpt lat="46.0338" lon="5.49394">
        <ele>756</ele>
        <time>2022-06-06T13:10:02Z</time>
      </trkpt>
      <trkpt lat="46.03355" lon="5.49415">
        <ele>757.2</ele>
        <time>2022-06-06T13:10:08Z</time>
      </trkpt>
      <trkpt lat="46.03343" lon="5.49427">
        <ele>757.6</ele>
        <time>2022-06-06T13:10:11Z</time>
      </trkpt>
      <trkpt lat="46.03327" lon="5.49444">
        <ele>758.4</ele>
        <time>2022-06-06T13:10:15Z</time>
      </trkpt>
      <trkpt lat="46.0331" lon="5.49468">
        <ele>759.6</ele>
        <time>2022-06-06T13:10:20Z</time>
      </trkpt>
      <trkpt lat="46.03303" lon="5.49478">
        <ele>759.8</ele>
        <time>2022-06-06T13:10:22Z</time>
      </trkpt>
      <trkpt lat="46.0328" lon="5.49514">
        <ele>760.6</ele>
        <time>2022-06-06T13:10:29Z</time>
      </trkpt>
      <trkpt lat="46.03274" lon="5.49523">
        <ele>761</ele>
        <time>2022-06-06T13:10:31Z</time>
      </trkpt>
      <trkpt lat="46.03271" lon="5.49528">
        <ele>761.6</ele>
        <time>2022-06-06T13:10:32Z</time>
      </trkpt>
      <trkpt lat="46.03255" lon="5.49555">
        <ele>762.8</ele>
        <time>2022-06-06T13:10:37Z</time>
      </trkpt>
      <trkpt lat="46.03248" lon="5.49566">
        <ele>763</ele>
        <time>2022-06-06T13:10:39Z</time>
      </trkpt>
      <trkpt lat="46.03226" lon="5.49601">
        <ele>764</ele>
        <time>2022-06-06T13:10:46Z</time>
      </trkpt>
      <trkpt lat="46.03219" lon="5.49612">
        <ele>764.4</ele>
        <time>2022-06-06T13:10:48Z</time>
      </trkpt>
      <trkpt lat="46.03212" lon="5.49621">
        <ele>765.2</ele>
        <time>2022-06-06T13:10:50Z</time>
      </trkpt>
      <trkpt lat="46.03194" lon="5.4964">
        <ele>766</ele>
        <time>2022-06-06T13:10:55Z</time>
      </trkpt>
      <trkpt lat="46.03186" lon="5.49648">
        <ele>766.4</ele>
        <time>2022-06-06T13:10:57Z</time>
      </trkpt>
      <trkpt lat="46.03172" lon="5.49666">
        <ele>767</ele>
        <time>2022-06-06T13:11:01Z</time>
      </trkpt>
      <trkpt lat="46.03168" lon="5.4967">
        <ele>767.6</ele>
        <time>2022-06-06T13:11:02Z</time>
      </trkpt>
      <trkpt lat="46.0315" lon="5.49693">
        <ele>769</ele>
        <time>2022-06-06T13:11:07Z</time>
      </trkpt>
      <trkpt lat="46.03144" lon="5.49703">
        <ele>769.2</ele>
        <time>2022-06-06T13:11:09Z</time>
      </trkpt>
      <trkpt lat="46.03128" lon="5.49728">
        <ele>770</ele>
        <time>2022-06-06T13:11:14Z</time>
      </trkpt>
      <trkpt lat="46.03117" lon="5.49749">
        <ele>770.4</ele>
        <time>2022-06-06T13:11:18Z</time>
      </trkpt>
      <trkpt lat="46.0311" lon="5.49765">
        <ele>771.2</ele>
        <time>2022-06-06T13:11:21Z</time>
      </trkpt>
      <trkpt lat="46.03105" lon="5.49776">
        <ele>771.4</ele>
        <time>2022-06-06T13:11:23Z</time>
      </trkpt>
      <trkpt lat="46.031" lon="5.49787">
        <ele>771.6</ele>
        <time>2022-06-06T13:11:25Z</time>
      </trkpt>
      <trkpt lat="46.03097" lon="5.49792">
        <ele>771.8</ele>
        <time>2022-06-06T13:11:26Z</time>
      </trkpt>
      <trkpt lat="46.0309" lon="5.498">
        <ele>772.2</ele>
        <time>2022-06-06T13:11:28Z</time>
      </trkpt>
      <trkpt lat="46.03073" lon="5.49823">
        <ele>773.2</ele>
        <time>2022-06-06T13:11:33Z</time>
      </trkpt>
      <trkpt lat="46.03052" lon="5.49852">
        <ele>774.4</ele>
        <time>2022-06-06T13:11:39Z</time>
      </trkpt>
      <trkpt lat="46.03049" lon="5.49858">
        <ele>774.4</ele>
        <time>2022-06-06T13:11:40Z</time>
      </trkpt>
      <trkpt lat="46.03037" lon="5.49876">
        <ele>775</ele>
        <time>2022-06-06T13:11:45Z</time>
      </trkpt>
      <trkpt lat="46.03033" lon="5.49884">
        <ele>775.2</ele>
        <time>2022-06-06T13:11:47Z</time>
      </trkpt>
      <trkpt lat="46.03026" lon="5.49892">
        <ele>775.4</ele>
        <time>2022-06-06T13:11:49Z</time>
      </trkpt>
      <trkpt lat="46.03022" lon="5.49896">
        <ele>775.4</ele>
        <time>2022-06-06T13:11:50Z</time>
      </trkpt>
      <trkpt lat="46.03006" lon="5.49911">
        <ele>775.2</ele>
        <time>2022-06-06T13:11:53Z</time>
      </trkpt>
      <trkpt lat="46.02979" lon="5.49928">
        <ele>774</ele>
        <time>2022-06-06T13:11:57Z</time>
      </trkpt>
      <trkpt lat="46.0295" lon="5.49947">
        <ele>772.6</ele>
        <time>2022-06-06T13:12:01Z</time>
      </trkpt>
      <trkpt lat="46.02936" lon="5.49955">
        <ele>771.6</ele>
        <time>2022-06-06T13:12:03Z</time>
      </trkpt>
      <trkpt lat="46.02929" lon="5.49958">
        <ele>771.2</ele>
        <time>2022-06-06T13:12:04Z</time>
      </trkpt>
      <trkpt lat="46.02907" lon="5.49961">
        <ele>770.6</ele>
        <time>2022-06-06T13:12:07Z</time>
      </trkpt>
      <trkpt lat="46.02898" lon="5.49971">
        <ele>770.6</ele>
        <time>2022-06-06T13:12:09Z</time>
      </trkpt>
      <trkpt lat="46.02893" lon="5.4998">
        <ele>770.4</ele>
        <time>2022-06-06T13:12:10Z</time>
      </trkpt>
      <trkpt lat="46.02889" lon="5.49989">
        <ele>770.4</ele>
        <time>2022-06-06T13:12:11Z</time>
      </trkpt>
      <trkpt lat="46.02882" lon="5.50018">
        <ele>770.2</ele>
        <time>2022-06-06T13:12:14Z</time>
      </trkpt>
      <trkpt lat="46.02879" lon="5.50028">
        <ele>770</ele>
        <time>2022-06-06T13:12:15Z</time>
      </trkpt>
      <trkpt lat="46.02867" lon="5.50053">
        <ele>769.6</ele>
        <time>2022-06-06T13:12:18Z</time>
      </trkpt>
      <trkpt lat="46.02853" lon="5.5008">
        <ele>769.6</ele>
        <time>2022-06-06T13:12:21Z</time>
      </trkpt>
      <trkpt lat="46.0285" lon="5.5009">
        <ele>769.4</ele>
        <time>2022-06-06T13:12:22Z</time>
      </trkpt>
      <trkpt lat="46.02849" lon="5.50101">
        <ele>769.4</ele>
        <time>2022-06-06T13:12:23Z</time>
      </trkpt>
      <trkpt lat="46.02853" lon="5.5012">
        <ele>769.4</ele>
        <time>2022-06-06T13:12:25Z</time>
      </trkpt>
      <trkpt lat="46.02863" lon="5.50147">
        <ele>769.4</ele>
        <time>2022-06-06T13:12:28Z</time>
      </trkpt>
      <trkpt lat="46.02866" lon="5.50158">
        <ele>769.6</ele>
        <time>2022-06-06T13:12:29Z</time>
      </trkpt>
      <trkpt lat="46.02881" lon="5.50232">
        <ele>770</ele>
        <time>2022-06-06T13:12:36Z</time>
      </trkpt>
      <trkpt lat="46.02883" lon="5.50242">
        <ele>770</ele>
        <time>2022-06-06T13:12:37Z</time>
      </trkpt>
      <trkpt lat="46.02897" lon="5.50311">
        <ele>770</ele>
        <time>2022-06-06T13:12:44Z</time>
      </trkpt>
      <trkpt lat="46.02902" lon="5.50337">
        <ele>770.8</ele>
        <time>2022-06-06T13:12:47Z</time>
      </trkpt>
      <trkpt lat="46.02907" lon="5.50367">
        <ele>771.8</ele>
        <time>2022-06-06T13:12:50Z</time>
      </trkpt>
      <trkpt lat="46.02911" lon="5.50393">
        <ele>772</ele>
        <time>2022-06-06T13:12:53Z</time>
      </trkpt>
      <trkpt lat="46.02914" lon="5.50454">
        <ele>772.4</ele>
        <time>2022-06-06T13:13:00Z</time>
      </trkpt>
      <trkpt lat="46.02913" lon="5.50468">
        <ele>772.8</ele>
        <time>2022-06-06T13:13:02Z</time>
      </trkpt>
      <trkpt lat="46.02911" lon="5.50489">
        <ele>774</ele>
        <time>2022-06-06T13:13:05Z</time>
      </trkpt>
      <trkpt lat="46.0291" lon="5.50497">
        <ele>774.4</ele>
        <time>2022-06-06T13:13:06Z</time>
      </trkpt>
      <trkpt lat="46.02908" lon="5.5052">
        <ele>775</ele>
        <time>2022-06-06T13:13:09Z</time>
      </trkpt>
      <trkpt lat="46.02905" lon="5.50561">
        <ele>775.4</ele>
        <time>2022-06-06T13:13:14Z</time>
      </trkpt>
      <trkpt lat="46.02903" lon="5.50598">
        <ele>776</ele>
        <time>2022-06-06T13:13:18Z</time>
      </trkpt>
      <trkpt lat="46.02902" lon="5.50625">
        <ele>776.2</ele>
        <time>2022-06-06T13:13:21Z</time>
      </trkpt>
      <trkpt lat="46.02904" lon="5.5067">
        <ele>777.2</ele>
        <time>2022-06-06T13:13:26Z</time>
      </trkpt>
      <trkpt lat="46.02906" lon="5.50704">
        <ele>778</ele>
        <time>2022-06-06T13:13:30Z</time>
      </trkpt>
      <trkpt lat="46.02907" lon="5.50712">
        <ele>778.4</ele>
        <time>2022-06-06T13:13:31Z</time>
      </trkpt>
      <trkpt lat="46.02912" lon="5.50767">
        <ele>779.2</ele>
        <time>2022-06-06T13:13:38Z</time>
      </trkpt>
      <trkpt lat="46.02914" lon="5.50782">
        <ele>779.6</ele>
        <time>2022-06-06T13:13:40Z</time>
      </trkpt>
      <trkpt lat="46.02918" lon="5.50817">
        <ele>780.8</ele>
        <time>2022-06-06T13:13:45Z</time>
      </trkpt>
      <trkpt lat="46.02919" lon="5.50824">
        <ele>781</ele>
        <time>2022-06-06T13:13:46Z</time>
      </trkpt>
      <trkpt lat="46.02923" lon="5.50854">
        <ele>782</ele>
        <time>2022-06-06T13:13:50Z</time>
      </trkpt>
      <trkpt lat="46.02929" lon="5.50885">
        <ele>783</ele>
        <time>2022-06-06T13:13:54Z</time>
      </trkpt>
      <trkpt lat="46.02929" lon="5.50893">
        <ele>783.2</ele>
        <time>2022-06-06T13:13:55Z</time>
      </trkpt>
      <trkpt lat="46.02939" lon="5.50953">
        <ele>783.6</ele>
        <time>2022-06-06T13:14:02Z</time>
      </trkpt>
      <trkpt lat="46.02952" lon="5.5101">
        <ele>783.2</ele>
        <time>2022-06-06T13:14:08Z</time>
      </trkpt>
      <trkpt lat="46.0296" lon="5.51044">
        <ele>782.2</ele>
        <time>2022-06-06T13:14:11Z</time>
      </trkpt>
      <trkpt lat="46.02963" lon="5.51052">
        <ele>781.8</ele>
        <time>2022-06-06T13:14:12Z</time>
      </trkpt>
      <trkpt lat="46.02967" lon="5.51062">
        <ele>781.6</ele>
        <time>2022-06-06T13:14:13Z</time>
      </trkpt>
      <trkpt lat="46.02973" lon="5.51073">
        <ele>781.6</ele>
        <time>2022-06-06T13:14:14Z</time>
      </trkpt>
      <trkpt lat="46.02979" lon="5.51082">
        <ele>780.8</ele>
        <time>2022-06-06T13:14:15Z</time>
      </trkpt>
      <trkpt lat="46.02993" lon="5.51095">
        <ele>780.4</ele>
        <time>2022-06-06T13:14:17Z</time>
      </trkpt>
      <trkpt lat="46.03036" lon="5.51118">
        <ele>779.6</ele>
        <time>2022-06-06T13:14:22Z</time>
      </trkpt>
      <trkpt lat="46.03065" lon="5.51129">
        <ele>778.2</ele>
        <time>2022-06-06T13:14:25Z</time>
      </trkpt>
      <trkpt lat="46.03086" lon="5.51134">
        <ele>777</ele>
        <time>2022-06-06T13:14:27Z</time>
      </trkpt>
      <trkpt lat="46.03108" lon="5.51138">
        <ele>775.8</ele>
        <time>2022-06-06T13:14:29Z</time>
      </trkpt>
      <trkpt lat="46.0313" lon="5.51144">
        <ele>774.6</ele>
        <time>2022-06-06T13:14:31Z</time>
      </trkpt>
      <trkpt lat="46.03142" lon="5.51148">
        <ele>773.6</ele>
        <time>2022-06-06T13:14:32Z</time>
      </trkpt>
      <trkpt lat="46.032" lon="5.51158">
        <ele>772.2</ele>
        <time>2022-06-06T13:14:37Z</time>
      </trkpt>
      <trkpt lat="46.03247" lon="5.51166">
        <ele>770.6</ele>
        <time>2022-06-06T13:14:41Z</time>
      </trkpt>
      <trkpt lat="46.0327" lon="5.51174">
        <ele>768.6</ele>
        <time>2022-06-06T13:14:43Z</time>
      </trkpt>
      <trkpt lat="46.03282" lon="5.51179">
        <ele>767.6</ele>
        <time>2022-06-06T13:14:44Z</time>
      </trkpt>
      <trkpt lat="46.03304" lon="5.51191">
        <ele>766.4</ele>
        <time>2022-06-06T13:14:46Z</time>
      </trkpt>
      <trkpt lat="46.03326" lon="5.51204">
        <ele>765.4</ele>
        <time>2022-06-06T13:14:48Z</time>
      </trkpt>
      <trkpt lat="46.03356" lon="5.5123">
        <ele>764</ele>
        <time>2022-06-06T13:14:51Z</time>
      </trkpt>
      <trkpt lat="46.03365" lon="5.51239">
        <ele>763.8</ele>
        <time>2022-06-06T13:14:52Z</time>
      </trkpt>
      <trkpt lat="46.03374" lon="5.51249">
        <ele>762.8</ele>
        <time>2022-06-06T13:14:53Z</time>
      </trkpt>
      <trkpt lat="46.03393" lon="5.51268">
        <ele>761.4</ele>
        <time>2022-06-06T13:14:55Z</time>
      </trkpt>
      <trkpt lat="46.03403" lon="5.51276">
        <ele>761</ele>
        <time>2022-06-06T13:14:56Z</time>
      </trkpt>
      <trkpt lat="46.03415" lon="5.51282">
        <ele>760.4</ele>
        <time>2022-06-06T13:14:57Z</time>
      </trkpt>
      <trkpt lat="46.03426" lon="5.51286">
        <ele>759.6</ele>
        <time>2022-06-06T13:14:58Z</time>
      </trkpt>
      <trkpt lat="46.03438" lon="5.51287">
        <ele>759.2</ele>
        <time>2022-06-06T13:14:59Z</time>
      </trkpt>
      <trkpt lat="46.0345" lon="5.51288">
        <ele>758.8</ele>
        <time>2022-06-06T13:15:00Z</time>
      </trkpt>
      <trkpt lat="46.03473" lon="5.51291">
        <ele>757.8</ele>
        <time>2022-06-06T13:15:02Z</time>
      </trkpt>
      <trkpt lat="46.03495" lon="5.51302">
        <ele>756.8</ele>
        <time>2022-06-06T13:15:04Z</time>
      </trkpt>
      <trkpt lat="46.03505" lon="5.51311">
        <ele>756.2</ele>
        <time>2022-06-06T13:15:05Z</time>
      </trkpt>
      <trkpt lat="46.03515" lon="5.51323">
        <ele>755.4</ele>
        <time>2022-06-06T13:15:06Z</time>
      </trkpt>
      <trkpt lat="46.03524" lon="5.51336">
        <ele>755</ele>
        <time>2022-06-06T13:15:07Z</time>
      </trkpt>
      <trkpt lat="46.03532" lon="5.5135">
        <ele>754.8</ele>
        <time>2022-06-06T13:15:08Z</time>
      </trkpt>
      <trkpt lat="46.03539" lon="5.51364">
        <ele>754</ele>
        <time>2022-06-06T13:15:09Z</time>
      </trkpt>
      <trkpt lat="46.03547" lon="5.51379">
        <ele>752.8</ele>
        <time>2022-06-06T13:15:10Z</time>
      </trkpt>
      <trkpt lat="46.03554" lon="5.51393">
        <ele>751.6</ele>
        <time>2022-06-06T13:15:11Z</time>
      </trkpt>
      <trkpt lat="46.0357" lon="5.51436">
        <ele>750.4</ele>
        <time>2022-06-06T13:15:14Z</time>
      </trkpt>
      <trkpt lat="46.03581" lon="5.5147">
        <ele>749.4</ele>
        <time>2022-06-06T13:15:16Z</time>
      </trkpt>
      <trkpt lat="46.03593" lon="5.51499">
        <ele>748.6</ele>
        <time>2022-06-06T13:15:18Z</time>
      </trkpt>
      <trkpt lat="46.03601" lon="5.51512">
        <ele>747.8</ele>
        <time>2022-06-06T13:15:19Z</time>
      </trkpt>
      <trkpt lat="46.0361" lon="5.51523">
        <ele>747.4</ele>
        <time>2022-06-06T13:15:20Z</time>
      </trkpt>
      <trkpt lat="46.03619" lon="5.51533">
        <ele>746.6</ele>
        <time>2022-06-06T13:15:21Z</time>
      </trkpt>
      <trkpt lat="46.03629" lon="5.51542">
        <ele>746.2</ele>
        <time>2022-06-06T13:15:22Z</time>
      </trkpt>
      <trkpt lat="46.0365" lon="5.51558">
        <ele>745.2</ele>
        <time>2022-06-06T13:15:24Z</time>
      </trkpt>
      <trkpt lat="46.03682" lon="5.51577">
        <ele>743.6</ele>
        <time>2022-06-06T13:15:27Z</time>
      </trkpt>
      <trkpt lat="46.03705" lon="5.51586">
        <ele>742.4</ele>
        <time>2022-06-06T13:15:29Z</time>
      </trkpt>
      <trkpt lat="46.03738" lon="5.51598">
        <ele>740.8</ele>
        <time>2022-06-06T13:15:32Z</time>
      </trkpt>
      <trkpt lat="46.03761" lon="5.51608">
        <ele>739.4</ele>
        <time>2022-06-06T13:15:34Z</time>
      </trkpt>
      <trkpt lat="46.03806" lon="5.5163">
        <ele>738.2</ele>
        <time>2022-06-06T13:15:38Z</time>
      </trkpt>
      <trkpt lat="46.03817" lon="5.51634">
        <ele>737.2</ele>
        <time>2022-06-06T13:15:39Z</time>
      </trkpt>
      <trkpt lat="46.0384" lon="5.5164">
        <ele>735.8</ele>
        <time>2022-06-06T13:15:41Z</time>
      </trkpt>
      <trkpt lat="46.03864" lon="5.51645">
        <ele>734.8</ele>
        <time>2022-06-06T13:15:43Z</time>
      </trkpt>
      <trkpt lat="46.03888" lon="5.5165">
        <ele>733.8</ele>
        <time>2022-06-06T13:15:45Z</time>
      </trkpt>
      <trkpt lat="46.03912" lon="5.51654">
        <ele>732.6</ele>
        <time>2022-06-06T13:15:47Z</time>
      </trkpt>
      <trkpt lat="46.03935" lon="5.51655">
        <ele>731.2</ele>
        <time>2022-06-06T13:15:49Z</time>
      </trkpt>
      <trkpt lat="46.03947" lon="5.51656">
        <ele>731</ele>
        <time>2022-06-06T13:15:50Z</time>
      </trkpt>
      <trkpt lat="46.03958" lon="5.51658">
        <ele>730</ele>
        <time>2022-06-06T13:15:51Z</time>
      </trkpt>
      <trkpt lat="46.0397" lon="5.51661">
        <ele>729.4</ele>
        <time>2022-06-06T13:15:52Z</time>
      </trkpt>
      <trkpt lat="46.03981" lon="5.51667">
        <ele>729</ele>
        <time>2022-06-06T13:15:53Z</time>
      </trkpt>
      <trkpt lat="46.04015" lon="5.51685">
        <ele>727.4</ele>
        <time>2022-06-06T13:15:56Z</time>
      </trkpt>
      <trkpt lat="46.04037" lon="5.51697">
        <ele>725.6</ele>
        <time>2022-06-06T13:15:58Z</time>
      </trkpt>
      <trkpt lat="46.04071" lon="5.51713">
        <ele>724.4</ele>
        <time>2022-06-06T13:16:01Z</time>
      </trkpt>
      <trkpt lat="46.04095" lon="5.5172">
        <ele>723.4</ele>
        <time>2022-06-06T13:16:03Z</time>
      </trkpt>
      <trkpt lat="46.04121" lon="5.51724">
        <ele>722.6</ele>
        <time>2022-06-06T13:16:05Z</time>
      </trkpt>
      <trkpt lat="46.04146" lon="5.51725">
        <ele>722</ele>
        <time>2022-06-06T13:16:07Z</time>
      </trkpt>
      <trkpt lat="46.04182" lon="5.51732">
        <ele>720.8</ele>
        <time>2022-06-06T13:16:10Z</time>
      </trkpt>
      <trkpt lat="46.04218" lon="5.51744">
        <ele>719.4</ele>
        <time>2022-06-06T13:16:13Z</time>
      </trkpt>
      <trkpt lat="46.04229" lon="5.51748">
        <ele>718</ele>
        <time>2022-06-06T13:16:14Z</time>
      </trkpt>
      <trkpt lat="46.04252" lon="5.51756">
        <ele>716</ele>
        <time>2022-06-06T13:16:16Z</time>
      </trkpt>
      <trkpt lat="46.04274" lon="5.51764">
        <ele>714.8</ele>
        <time>2022-06-06T13:16:18Z</time>
      </trkpt>
      <trkpt lat="46.04297" lon="5.51773">
        <ele>713.8</ele>
        <time>2022-06-06T13:16:20Z</time>
      </trkpt>
      <trkpt lat="46.04308" lon="5.51777">
        <ele>712.8</ele>
        <time>2022-06-06T13:16:21Z</time>
      </trkpt>
      <trkpt lat="46.04319" lon="5.5178">
        <ele>712.4</ele>
        <time>2022-06-06T13:16:22Z</time>
      </trkpt>
      <trkpt lat="46.04341" lon="5.51787">
        <ele>711.4</ele>
        <time>2022-06-06T13:16:24Z</time>
      </trkpt>
      <trkpt lat="46.04364" lon="5.51793">
        <ele>710</ele>
        <time>2022-06-06T13:16:26Z</time>
      </trkpt>
      <trkpt lat="46.04398" lon="5.51802">
        <ele>709.2</ele>
        <time>2022-06-06T13:16:29Z</time>
      </trkpt>
      <trkpt lat="46.04409" lon="5.51805">
        <ele>708.8</ele>
        <time>2022-06-06T13:16:30Z</time>
      </trkpt>
      <trkpt lat="46.04442" lon="5.51819">
        <ele>707.2</ele>
        <time>2022-06-06T13:16:33Z</time>
      </trkpt>
      <trkpt lat="46.04465" lon="5.51829">
        <ele>706.4</ele>
        <time>2022-06-06T13:16:35Z</time>
      </trkpt>
      <trkpt lat="46.04476" lon="5.51835">
        <ele>706</ele>
        <time>2022-06-06T13:16:36Z</time>
      </trkpt>
      <trkpt lat="46.04499" lon="5.51847">
        <ele>704.6</ele>
        <time>2022-06-06T13:16:38Z</time>
      </trkpt>
      <trkpt lat="46.04523" lon="5.51859">
        <ele>703.6</ele>
        <time>2022-06-06T13:16:40Z</time>
      </trkpt>
      <trkpt lat="46.04547" lon="5.51869">
        <ele>701.4</ele>
        <time>2022-06-06T13:16:42Z</time>
      </trkpt>
      <trkpt lat="46.0457" lon="5.51877">
        <ele>700</ele>
        <time>2022-06-06T13:16:44Z</time>
      </trkpt>
      <trkpt lat="46.04605" lon="5.51889">
        <ele>698.8</ele>
        <time>2022-06-06T13:16:47Z</time>
      </trkpt>
      <trkpt lat="46.04616" lon="5.51895">
        <ele>698.4</ele>
        <time>2022-06-06T13:16:48Z</time>
      </trkpt>
      <trkpt lat="46.04627" lon="5.51901">
        <ele>697.8</ele>
        <time>2022-06-06T13:16:49Z</time>
      </trkpt>
      <trkpt lat="46.04657" lon="5.51924">
        <ele>695.8</ele>
        <time>2022-06-06T13:16:52Z</time>
      </trkpt>
      <trkpt lat="46.04675" lon="5.51941">
        <ele>694.6</ele>
        <time>2022-06-06T13:16:54Z</time>
      </trkpt>
      <trkpt lat="46.04702" lon="5.51967">
        <ele>693.4</ele>
        <time>2022-06-06T13:16:57Z</time>
      </trkpt>
      <trkpt lat="46.04719" lon="5.51984">
        <ele>692.8</ele>
        <time>2022-06-06T13:16:59Z</time>
      </trkpt>
      <trkpt lat="46.04737" lon="5.52002">
        <ele>692.2</ele>
        <time>2022-06-06T13:17:01Z</time>
      </trkpt>
      <trkpt lat="46.04763" lon="5.52027">
        <ele>691.2</ele>
        <time>2022-06-06T13:17:04Z</time>
      </trkpt>
      <trkpt lat="46.04791" lon="5.52053">
        <ele>690</ele>
        <time>2022-06-06T13:17:07Z</time>
      </trkpt>
      <trkpt lat="46.048" lon="5.52062">
        <ele>689.8</ele>
        <time>2022-06-06T13:17:08Z</time>
      </trkpt>
      <trkpt lat="46.04807" lon="5.52069">
        <ele>689.4</ele>
        <time>2022-06-06T13:17:09Z</time>
      </trkpt>
      <trkpt lat="46.04817" lon="5.52079">
        <ele>688.8</ele>
        <time>2022-06-06T13:17:10Z</time>
      </trkpt>
      <trkpt lat="46.04835" lon="5.52097">
        <ele>687.4</ele>
        <time>2022-06-06T13:17:12Z</time>
      </trkpt>
      <trkpt lat="46.0486" lon="5.52122">
        <ele>686.2</ele>
        <time>2022-06-06T13:17:15Z</time>
      </trkpt>
      <trkpt lat="46.04871" lon="5.52133">
        <ele>686</ele>
        <time>2022-06-06T13:17:16Z</time>
      </trkpt>
      <trkpt lat="46.0488" lon="5.52141">
        <ele>685.2</ele>
        <time>2022-06-06T13:17:17Z</time>
      </trkpt>
      <trkpt lat="46.04918" lon="5.52169">
        <ele>684</ele>
        <time>2022-06-06T13:17:21Z</time>
      </trkpt>
      <trkpt lat="46.04947" lon="5.52187">
        <ele>682.6</ele>
        <time>2022-06-06T13:17:24Z</time>
      </trkpt>
      <trkpt lat="46.04978" lon="5.52203">
        <ele>681.6</ele>
        <time>2022-06-06T13:17:27Z</time>
      </trkpt>
      <trkpt lat="46.04988" lon="5.52207">
        <ele>681.4</ele>
        <time>2022-06-06T13:17:28Z</time>
      </trkpt>
      <trkpt lat="46.0504" lon="5.52226">
        <ele>680.8</ele>
        <time>2022-06-06T13:17:33Z</time>
      </trkpt>
      <trkpt lat="46.05049" lon="5.52228">
        <ele>680.6</ele>
        <time>2022-06-06T13:17:34Z</time>
      </trkpt>
      <trkpt lat="46.05062" lon="5.52232">
        <ele>680.4</ele>
        <time>2022-06-06T13:17:35Z</time>
      </trkpt>
      <trkpt lat="46.05115" lon="5.52246">
        <ele>679.4</ele>
        <time>2022-06-06T13:17:40Z</time>
      </trkpt>
      <trkpt lat="46.05147" lon="5.52254">
        <ele>678.4</ele>
        <time>2022-06-06T13:17:43Z</time>
      </trkpt>
      <trkpt lat="46.05157" lon="5.52257">
        <ele>678</ele>
        <time>2022-06-06T13:17:44Z</time>
      </trkpt>
      <trkpt lat="46.05178" lon="5.52262">
        <ele>677.2</ele>
        <time>2022-06-06T13:17:46Z</time>
      </trkpt>
      <trkpt lat="46.05209" lon="5.52267">
        <ele>676.2</ele>
        <time>2022-06-06T13:17:49Z</time>
      </trkpt>
      <trkpt lat="46.05229" lon="5.52269">
        <ele>675.6</ele>
        <time>2022-06-06T13:17:51Z</time>
      </trkpt>
      <trkpt lat="46.05259" lon="5.52272">
        <ele>675.2</ele>
        <time>2022-06-06T13:17:54Z</time>
      </trkpt>
      <trkpt lat="46.05311" lon="5.52282">
        <ele>673.8</ele>
        <time>2022-06-06T13:17:59Z</time>
      </trkpt>
      <trkpt lat="46.05363" lon="5.52294">
        <ele>672.4</ele>
        <time>2022-06-06T13:18:04Z</time>
      </trkpt>
      <trkpt lat="46.05385" lon="5.52297">
        <ele>671.8</ele>
        <time>2022-06-06T13:18:06Z</time>
      </trkpt>
      <trkpt lat="46.05407" lon="5.52298">
        <ele>671.2</ele>
        <time>2022-06-06T13:18:08Z</time>
      </trkpt>
      <trkpt lat="46.0545" lon="5.52302">
        <ele>670.2</ele>
        <time>2022-06-06T13:18:12Z</time>
      </trkpt>
      <trkpt lat="46.0546" lon="5.52302">
        <ele>669.6</ele>
        <time>2022-06-06T13:18:13Z</time>
      </trkpt>
      <trkpt lat="46.05482" lon="5.52303">
        <ele>669</ele>
        <time>2022-06-06T13:18:15Z</time>
      </trkpt>
      <trkpt lat="46.05542" lon="5.52309">
        <ele>668.2</ele>
        <time>2022-06-06T13:18:21Z</time>
      </trkpt>
      <trkpt lat="46.05599" lon="5.52319">
        <ele>668</ele>
        <time>2022-06-06T13:18:27Z</time>
      </trkpt>
      <trkpt lat="46.05617" lon="5.52323">
        <ele>668</ele>
        <time>2022-06-06T13:18:29Z</time>
      </trkpt>
      <trkpt lat="46.05676" lon="5.52338">
        <ele>668.4</ele>
        <time>2022-06-06T13:18:36Z</time>
      </trkpt>
      <trkpt lat="46.05733" lon="5.52351">
        <ele>669</ele>
        <time>2022-06-06T13:18:43Z</time>
      </trkpt>
      <trkpt lat="46.05787" lon="5.52363">
        <ele>669.4</ele>
        <time>2022-06-06T13:18:50Z</time>
      </trkpt>
      <trkpt lat="46.05802" lon="5.52367">
        <ele>669.2</ele>
        <time>2022-06-06T13:18:52Z</time>
      </trkpt>
      <trkpt lat="46.0586" lon="5.52381">
        <ele>669</ele>
        <time>2022-06-06T13:19:00Z</time>
      </trkpt>
      <trkpt lat="46.05867" lon="5.52383">
        <ele>669</ele>
        <time>2022-06-06T13:19:01Z</time>
      </trkpt>
      <trkpt lat="46.05925" lon="5.52396">
        <ele>669</ele>
        <time>2022-06-06T13:19:09Z</time>
      </trkpt>
      <trkpt lat="46.05933" lon="5.52398">
        <ele>668.8</ele>
        <time>2022-06-06T13:19:10Z</time>
      </trkpt>
      <trkpt lat="46.05986" lon="5.5241">
        <ele>668.6</ele>
        <time>2022-06-06T13:19:17Z</time>
      </trkpt>
      <trkpt lat="46.05994" lon="5.52412">
        <ele>668.4</ele>
        <time>2022-06-06T13:19:18Z</time>
      </trkpt>
      <trkpt lat="46.06052" lon="5.52427">
        <ele>668.2</ele>
        <time>2022-06-06T13:19:26Z</time>
      </trkpt>
      <trkpt lat="46.06111" lon="5.52441">
        <ele>668.4</ele>
        <time>2022-06-06T13:19:34Z</time>
      </trkpt>
      <trkpt lat="46.06125" lon="5.52443">
        <ele>668.6</ele>
        <time>2022-06-06T13:19:36Z</time>
      </trkpt>
      <trkpt lat="46.06167" lon="5.52453">
        <ele>668.8</ele>
        <time>2022-06-06T13:19:42Z</time>
      </trkpt>
      <trkpt lat="46.06207" lon="5.52463">
        <ele>668.4</ele>
        <time>2022-06-06T13:19:47Z</time>
      </trkpt>
      <trkpt lat="46.06222" lon="5.52467">
        <ele>668</ele>
        <time>2022-06-06T13:19:49Z</time>
      </trkpt>
      <trkpt lat="46.06274" lon="5.52479">
        <ele>667</ele>
        <time>2022-06-06T13:19:55Z</time>
      </trkpt>
      <trkpt lat="46.06319" lon="5.5249">
        <ele>666.8</ele>
        <time>2022-06-06T13:20:00Z</time>
      </trkpt>
      <trkpt lat="46.06346" lon="5.52496">
        <ele>666.8</ele>
        <time>2022-06-06T13:20:03Z</time>
      </trkpt>
      <trkpt lat="46.06394" lon="5.52507">
        <ele>666.2</ele>
        <time>2022-06-06T13:20:08Z</time>
      </trkpt>
      <trkpt lat="46.06413" lon="5.52512">
        <ele>665.8</ele>
        <time>2022-06-06T13:20:10Z</time>
      </trkpt>
      <trkpt lat="46.06451" lon="5.52522">
        <ele>664.8</ele>
        <time>2022-06-06T13:20:14Z</time>
      </trkpt>
      <trkpt lat="46.06471" lon="5.52527">
        <ele>664</ele>
        <time>2022-06-06T13:20:16Z</time>
      </trkpt>
      <trkpt lat="46.06488" lon="5.52531">
        <ele>663.6</ele>
        <time>2022-06-06T13:20:18Z</time>
      </trkpt>
      <trkpt lat="46.06544" lon="5.52544">
        <ele>663.4</ele>
        <time>2022-06-06T13:20:24Z</time>
      </trkpt>
      <trkpt lat="46.06553" lon="5.52546">
        <ele>663.6</ele>
        <time>2022-06-06T13:20:25Z</time>
      </trkpt>
      <trkpt lat="46.06613" lon="5.52561">
        <ele>664.6</ele>
        <time>2022-06-06T13:20:32Z</time>
      </trkpt>
      <trkpt lat="46.0663" lon="5.52566">
        <ele>664.6</ele>
        <time>2022-06-06T13:20:34Z</time>
      </trkpt>
      <trkpt lat="46.06693" lon="5.52579">
        <ele>664.2</ele>
        <time>2022-06-06T13:20:41Z</time>
      </trkpt>
      <trkpt lat="46.06702" lon="5.52581">
        <ele>664.2</ele>
        <time>2022-06-06T13:20:42Z</time>
      </trkpt>
      <trkpt lat="46.06764" lon="5.52598">
        <ele>662.4</ele>
        <time>2022-06-06T13:20:49Z</time>
      </trkpt>
      <trkpt lat="46.06782" lon="5.52602">
        <ele>660.8</ele>
        <time>2022-06-06T13:20:51Z</time>
      </trkpt>
      <trkpt lat="46.0682" lon="5.52611">
        <ele>659.8</ele>
        <time>2022-06-06T13:20:55Z</time>
      </trkpt>
      <trkpt lat="46.06837" lon="5.52616">
        <ele>659.6</ele>
        <time>2022-06-06T13:20:57Z</time>
      </trkpt>
      <trkpt lat="46.06886" lon="5.52628">
        <ele>658.8</ele>
        <time>2022-06-06T13:21:02Z</time>
      </trkpt>
      <trkpt lat="46.0694" lon="5.52641">
        <ele>658.4</ele>
        <time>2022-06-06T13:21:08Z</time>
      </trkpt>
      <trkpt lat="46.07" lon="5.52655">
        <ele>658</ele>
        <time>2022-06-06T13:21:15Z</time>
      </trkpt>
      <trkpt lat="46.07008" lon="5.52657">
        <ele>658</ele>
        <time>2022-06-06T13:21:16Z</time>
      </trkpt>
      <trkpt lat="46.07068" lon="5.52672">
        <ele>658</ele>
        <time>2022-06-06T13:21:23Z</time>
      </trkpt>
      <trkpt lat="46.07077" lon="5.52674">
        <ele>657.8</ele>
        <time>2022-06-06T13:21:24Z</time>
      </trkpt>
      <trkpt lat="46.07132" lon="5.52687">
        <ele>656.8</ele>
        <time>2022-06-06T13:21:30Z</time>
      </trkpt>
      <trkpt lat="46.07148" lon="5.52691">
        <ele>656.2</ele>
        <time>2022-06-06T13:21:32Z</time>
      </trkpt>
      <trkpt lat="46.07166" lon="5.52697">
        <ele>655.6</ele>
        <time>2022-06-06T13:21:34Z</time>
      </trkpt>
      <trkpt lat="46.07201" lon="5.52714">
        <ele>654.8</ele>
        <time>2022-06-06T13:21:38Z</time>
      </trkpt>
      <trkpt lat="46.0721" lon="5.5272">
        <ele>654.4</ele>
        <time>2022-06-06T13:21:39Z</time>
      </trkpt>
      <trkpt lat="46.07254" lon="5.5275">
        <ele>653.2</ele>
        <time>2022-06-06T13:21:44Z</time>
      </trkpt>
      <trkpt lat="46.07272" lon="5.52763">
        <ele>653</ele>
        <time>2022-06-06T13:21:46Z</time>
      </trkpt>
      <trkpt lat="46.07291" lon="5.52777">
        <ele>652</ele>
        <time>2022-06-06T13:21:48Z</time>
      </trkpt>
      <trkpt lat="46.07315" lon="5.52796">
        <ele>651</ele>
        <time>2022-06-06T13:21:51Z</time>
      </trkpt>
      <trkpt lat="46.07341" lon="5.52815">
        <ele>649.8</ele>
        <time>2022-06-06T13:21:54Z</time>
      </trkpt>
      <trkpt lat="46.0735" lon="5.52821">
        <ele>648.8</ele>
        <time>2022-06-06T13:21:55Z</time>
      </trkpt>
      <trkpt lat="46.07361" lon="5.52829">
        <ele>648</ele>
        <time>2022-06-06T13:21:56Z</time>
      </trkpt>
      <trkpt lat="46.07377" lon="5.5284">
        <ele>647.6</ele>
        <time>2022-06-06T13:21:58Z</time>
      </trkpt>
      <trkpt lat="46.07416" lon="5.52867">
        <ele>646.4</ele>
        <time>2022-06-06T13:22:02Z</time>
      </trkpt>
      <trkpt lat="46.07432" lon="5.52878">
        <ele>645.4</ele>
        <time>2022-06-06T13:22:04Z</time>
      </trkpt>
      <trkpt lat="46.07443" lon="5.52885">
        <ele>645</ele>
        <time>2022-06-06T13:22:05Z</time>
      </trkpt>
      <trkpt lat="46.07473" lon="5.52897">
        <ele>644.2</ele>
        <time>2022-06-06T13:22:08Z</time>
      </trkpt>
      <trkpt lat="46.07491" lon="5.52902">
        <ele>643.8</ele>
        <time>2022-06-06T13:22:10Z</time>
      </trkpt>
      <trkpt lat="46.07532" lon="5.52914">
        <ele>643.4</ele>
        <time>2022-06-06T13:22:15Z</time>
      </trkpt>
      <trkpt lat="46.07571" lon="5.52923">
        <ele>643.8</ele>
        <time>2022-06-06T13:22:20Z</time>
      </trkpt>
      <trkpt lat="46.07587" lon="5.52927">
        <ele>644.4</ele>
        <time>2022-06-06T13:22:22Z</time>
      </trkpt>
      <trkpt lat="46.076" lon="5.52931">
        <ele>645</ele>
        <time>2022-06-06T13:22:24Z</time>
      </trkpt>
      <trkpt lat="46.07606" lon="5.52932">
        <ele>645.8</ele>
        <time>2022-06-06T13:22:25Z</time>
      </trkpt>
      <trkpt lat="46.07613" lon="5.52935">
        <ele>646.2</ele>
        <time>2022-06-06T13:22:26Z</time>
      </trkpt>
      <trkpt lat="46.07624" lon="5.52939">
        <ele>647</ele>
        <time>2022-06-06T13:22:28Z</time>
      </trkpt>
      <trkpt lat="46.07629" lon="5.52941">
        <ele>647.2</ele>
        <time>2022-06-06T13:22:29Z</time>
      </trkpt>
      <trkpt lat="46.07636" lon="5.52944">
        <ele>647.6</ele>
        <time>2022-06-06T13:22:30Z</time>
      </trkpt>
      <trkpt lat="46.07651" lon="5.52947">
        <ele>648</ele>
        <time>2022-06-06T13:22:32Z</time>
      </trkpt>
      <trkpt lat="46.07659" lon="5.52949">
        <ele>648.4</ele>
        <time>2022-06-06T13:22:33Z</time>
      </trkpt>
      <trkpt lat="46.07688" lon="5.52955">
        <ele>649.2</ele>
        <time>2022-06-06T13:22:37Z</time>
      </trkpt>
      <trkpt lat="46.07711" lon="5.52959">
        <ele>649.6</ele>
        <time>2022-06-06T13:22:40Z</time>
      </trkpt>
      <trkpt lat="46.07763" lon="5.52971">
        <ele>649.8</ele>
        <time>2022-06-06T13:22:47Z</time>
      </trkpt>
      <trkpt lat="46.07778" lon="5.52974">
        <ele>650.2</ele>
        <time>2022-06-06T13:22:49Z</time>
      </trkpt>
      <trkpt lat="46.07808" lon="5.52981">
        <ele>650.4</ele>
        <time>2022-06-06T13:22:53Z</time>
      </trkpt>
      <trkpt lat="46.0786" lon="5.52992">
        <ele>650.4</ele>
        <time>2022-06-06T13:23:00Z</time>
      </trkpt>
      <trkpt lat="46.07883" lon="5.52998">
        <ele>650.2</ele>
        <time>2022-06-06T13:23:03Z</time>
      </trkpt>
      <trkpt lat="46.07906" lon="5.53001">
        <ele>650.2</ele>
        <time>2022-06-06T13:23:06Z</time>
      </trkpt>
      <trkpt lat="46.0796" lon="5.53001">
        <ele>650.8</ele>
        <time>2022-06-06T13:23:14Z</time>
      </trkpt>
      <trkpt lat="46.0798" lon="5.52998">
        <ele>651.2</ele>
        <time>2022-06-06T13:23:17Z</time>
      </trkpt>
      <trkpt lat="46.07994" lon="5.52996">
        <ele>651.4</ele>
        <time>2022-06-06T13:23:19Z</time>
      </trkpt>
      <trkpt lat="46.0805" lon="5.52988">
        <ele>651.4</ele>
        <time>2022-06-06T13:23:27Z</time>
      </trkpt>
      <trkpt lat="46.08078" lon="5.52983">
        <ele>651</ele>
        <time>2022-06-06T13:23:31Z</time>
      </trkpt>
      <trkpt lat="46.08085" lon="5.52983">
        <ele>651</ele>
        <time>2022-06-06T13:23:32Z</time>
      </trkpt>
      <trkpt lat="46.08091" lon="5.52983">
        <ele>651</ele>
        <time>2022-06-06T13:23:33Z</time>
      </trkpt>
      <trkpt lat="46.08102" lon="5.52975">
        <ele>650.8</ele>
        <time>2022-06-06T13:23:35Z</time>
      </trkpt>
      <trkpt lat="46.08116" lon="5.52964">
        <ele>650.6</ele>
        <time>2022-06-06T13:23:37Z</time>
      </trkpt>
      <trkpt lat="46.0813" lon="5.52959">
        <ele>650.6</ele>
        <time>2022-06-06T13:23:39Z</time>
      </trkpt>
      <trkpt lat="46.08179" lon="5.52943">
        <ele>650.6</ele>
        <time>2022-06-06T13:23:46Z</time>
      </trkpt>
      <trkpt lat="46.08216" lon="5.52934">
        <ele>650.2</ele>
        <time>2022-06-06T13:23:51Z</time>
      </trkpt>
      <trkpt lat="46.08224" lon="5.52933">
        <ele>650.2</ele>
        <time>2022-06-06T13:23:52Z</time>
      </trkpt>
      <trkpt lat="46.08255" lon="5.52932">
        <ele>649.4</ele>
        <time>2022-06-06T13:23:56Z</time>
      </trkpt>
      <trkpt lat="46.0827" lon="5.5293">
        <ele>649</ele>
        <time>2022-06-06T13:23:58Z</time>
      </trkpt>
      <trkpt lat="46.08313" lon="5.52926">
        <ele>648.2</ele>
        <time>2022-06-06T13:24:03Z</time>
      </trkpt>
      <trkpt lat="46.08323" lon="5.52926">
        <ele>648</ele>
        <time>2022-06-06T13:24:04Z</time>
      </trkpt>
      <trkpt lat="46.0835" lon="5.52924">
        <ele>647</ele>
        <time>2022-06-06T13:24:07Z</time>
      </trkpt>
      <trkpt lat="46.08375" lon="5.52922">
        <ele>646.2</ele>
        <time>2022-06-06T13:24:10Z</time>
      </trkpt>
      <trkpt lat="46.08393" lon="5.52921">
        <ele>645.8</ele>
        <time>2022-06-06T13:24:12Z</time>
      </trkpt>
      <trkpt lat="46.08446" lon="5.52915">
        <ele>645</ele>
        <time>2022-06-06T13:24:18Z</time>
      </trkpt>
      <trkpt lat="46.08457" lon="5.52913">
        <ele>644.6</ele>
        <time>2022-06-06T13:24:19Z</time>
      </trkpt>
      <trkpt lat="46.085" lon="5.52909">
        <ele>643.2</ele>
        <time>2022-06-06T13:24:24Z</time>
      </trkpt>
      <trkpt lat="46.08521" lon="5.52907">
        <ele>642.8</ele>
        <time>2022-06-06T13:24:26Z</time>
      </trkpt>
      <trkpt lat="46.08538" lon="5.52905">
        <ele>642</ele>
        <time>2022-06-06T13:24:28Z</time>
      </trkpt>
      <trkpt lat="46.08569" lon="5.52901">
        <ele>640.8</ele>
        <time>2022-06-06T13:24:31Z</time>
      </trkpt>
      <trkpt lat="46.08617" lon="5.52897">
        <ele>639.8</ele>
        <time>2022-06-06T13:24:36Z</time>
      </trkpt>
      <trkpt lat="46.08657" lon="5.52893">
        <ele>638.6</ele>
        <time>2022-06-06T13:24:40Z</time>
      </trkpt>
      <trkpt lat="46.08688" lon="5.52889">
        <ele>637.6</ele>
        <time>2022-06-06T13:24:43Z</time>
      </trkpt>
      <trkpt lat="46.08698" lon="5.52888">
        <ele>637.4</ele>
        <time>2022-06-06T13:24:44Z</time>
      </trkpt>
      <trkpt lat="46.08751" lon="5.52883">
        <ele>636.2</ele>
        <time>2022-06-06T13:24:49Z</time>
      </trkpt>
      <trkpt lat="46.08772" lon="5.52881">
        <ele>635.2</ele>
        <time>2022-06-06T13:24:51Z</time>
      </trkpt>
      <trkpt lat="46.08782" lon="5.5288">
        <ele>635</ele>
        <time>2022-06-06T13:24:52Z</time>
      </trkpt>
      <trkpt lat="46.08837" lon="5.52874">
        <ele>634.2</ele>
        <time>2022-06-06T13:24:57Z</time>
      </trkpt>
      <trkpt lat="46.08883" lon="5.5287">
        <ele>633.4</ele>
        <time>2022-06-06T13:25:01Z</time>
      </trkpt>
      <trkpt lat="46.08905" lon="5.52868">
        <ele>632.8</ele>
        <time>2022-06-06T13:25:03Z</time>
      </trkpt>
      <trkpt lat="46.08926" lon="5.52866">
        <ele>631.6</ele>
        <time>2022-06-06T13:25:05Z</time>
      </trkpt>
      <trkpt lat="46.08972" lon="5.52861">
        <ele>630.6</ele>
        <time>2022-06-06T13:25:09Z</time>
      </trkpt>
      <trkpt lat="46.08994" lon="5.52858">
        <ele>630</ele>
        <time>2022-06-06T13:25:11Z</time>
      </trkpt>
      <trkpt lat="46.09037" lon="5.52854">
        <ele>629.6</ele>
        <time>2022-06-06T13:25:15Z</time>
      </trkpt>
      <trkpt lat="46.09056" lon="5.52852">
        <ele>629.2</ele>
        <time>2022-06-06T13:25:17Z</time>
      </trkpt>
      <trkpt lat="46.09112" lon="5.52846">
        <ele>628.4</ele>
        <time>2022-06-06T13:25:22Z</time>
      </trkpt>
      <trkpt lat="46.09153" lon="5.52842">
        <ele>627.4</ele>
        <time>2022-06-06T13:25:26Z</time>
      </trkpt>
      <trkpt lat="46.09204" lon="5.52837">
        <ele>626.4</ele>
        <time>2022-06-06T13:25:31Z</time>
      </trkpt>
      <trkpt lat="46.09224" lon="5.52834">
        <ele>626</ele>
        <time>2022-06-06T13:25:33Z</time>
      </trkpt>
      <trkpt lat="46.09262" lon="5.52825">
        <ele>625.4</ele>
        <time>2022-06-06T13:25:37Z</time>
      </trkpt>
      <trkpt lat="46.09269" lon="5.5282">
        <ele>625.4</ele>
        <time>2022-06-06T13:25:38Z</time>
      </trkpt>
      <trkpt lat="46.09277" lon="5.52814">
        <ele>625.4</ele>
        <time>2022-06-06T13:25:39Z</time>
      </trkpt>
      <trkpt lat="46.09285" lon="5.52806">
        <ele>625.2</ele>
        <time>2022-06-06T13:25:40Z</time>
      </trkpt>
      <trkpt lat="46.09302" lon="5.52788">
        <ele>624.8</ele>
        <time>2022-06-06T13:25:42Z</time>
      </trkpt>
      <trkpt lat="46.09333" lon="5.52755">
        <ele>624</ele>
        <time>2022-06-06T13:25:46Z</time>
      </trkpt>
      <trkpt lat="46.09358" lon="5.52729">
        <ele>622.8</ele>
        <time>2022-06-06T13:25:49Z</time>
      </trkpt>
      <trkpt lat="46.09366" lon="5.5272">
        <ele>622</ele>
        <time>2022-06-06T13:25:50Z</time>
      </trkpt>
      <trkpt lat="46.09373" lon="5.52711">
        <ele>621.6</ele>
        <time>2022-06-06T13:25:51Z</time>
      </trkpt>
      <trkpt lat="46.09379" lon="5.52704">
        <ele>620.6</ele>
        <time>2022-06-06T13:25:52Z</time>
      </trkpt>
      <trkpt lat="46.09402" lon="5.52672">
        <ele>619.4</ele>
        <time>2022-06-06T13:25:55Z</time>
      </trkpt>
      <trkpt lat="46.09408" lon="5.52662">
        <ele>619</ele>
        <time>2022-06-06T13:25:56Z</time>
      </trkpt>
      <trkpt lat="46.09414" lon="5.5265">
        <ele>618.4</ele>
        <time>2022-06-06T13:25:57Z</time>
      </trkpt>
      <trkpt lat="46.09426" lon="5.52629">
        <ele>616.8</ele>
        <time>2022-06-06T13:25:59Z</time>
      </trkpt>
      <trkpt lat="46.09432" lon="5.5262">
        <ele>616.4</ele>
        <time>2022-06-06T13:26:00Z</time>
      </trkpt>
      <trkpt lat="46.09439" lon="5.52613">
        <ele>615.8</ele>
        <time>2022-06-06T13:26:01Z</time>
      </trkpt>
      <trkpt lat="46.09447" lon="5.52608">
        <ele>615</ele>
        <time>2022-06-06T13:26:02Z</time>
      </trkpt>
      <trkpt lat="46.09459" lon="5.52604">
        <ele>613.8</ele>
        <time>2022-06-06T13:26:03Z</time>
      </trkpt>
      <trkpt lat="46.09469" lon="5.52602">
        <ele>612.8</ele>
        <time>2022-06-06T13:26:04Z</time>
      </trkpt>
      <trkpt lat="46.09478" lon="5.52601">
        <ele>612.2</ele>
        <time>2022-06-06T13:26:05Z</time>
      </trkpt>
      <trkpt lat="46.09489" lon="5.526">
        <ele>611.2</ele>
        <time>2022-06-06T13:26:06Z</time>
      </trkpt>
      <trkpt lat="46.095" lon="5.52601">
        <ele>610.4</ele>
        <time>2022-06-06T13:26:07Z</time>
      </trkpt>
      <trkpt lat="46.09512" lon="5.52604">
        <ele>609</ele>
        <time>2022-06-06T13:26:08Z</time>
      </trkpt>
      <trkpt lat="46.09537" lon="5.52615">
        <ele>607.8</ele>
        <time>2022-06-06T13:26:10Z</time>
      </trkpt>
      <trkpt lat="46.09558" lon="5.5262">
        <ele>606.4</ele>
        <time>2022-06-06T13:26:11Z</time>
      </trkpt>
      <trkpt lat="46.09568" lon="5.52627">
        <ele>605.8</ele>
        <time>2022-06-06T13:26:12Z</time>
      </trkpt>
      <trkpt lat="46.09578" lon="5.52636">
        <ele>604.2</ele>
        <time>2022-06-06T13:26:13Z</time>
      </trkpt>
      <trkpt lat="46.09601" lon="5.52657">
        <ele>602.8</ele>
        <time>2022-06-06T13:26:15Z</time>
      </trkpt>
      <trkpt lat="46.09626" lon="5.52678">
        <ele>600.6</ele>
        <time>2022-06-06T13:26:17Z</time>
      </trkpt>
      <trkpt lat="46.09637" lon="5.52689">
        <ele>599</ele>
        <time>2022-06-06T13:26:18Z</time>
      </trkpt>
      <trkpt lat="46.09659" lon="5.52711">
        <ele>596.4</ele>
        <time>2022-06-06T13:26:20Z</time>
      </trkpt>
      <trkpt lat="46.0967" lon="5.52722">
        <ele>595.8</ele>
        <time>2022-06-06T13:26:21Z</time>
      </trkpt>
      <trkpt lat="46.09681" lon="5.52733">
        <ele>594.8</ele>
        <time>2022-06-06T13:26:22Z</time>
      </trkpt>
      <trkpt lat="46.09703" lon="5.52755">
        <ele>592.4</ele>
        <time>2022-06-06T13:26:24Z</time>
      </trkpt>
      <trkpt lat="46.09714" lon="5.52765">
        <ele>591.4</ele>
        <time>2022-06-06T13:26:25Z</time>
      </trkpt>
      <trkpt lat="46.09737" lon="5.52783">
        <ele>589.4</ele>
        <time>2022-06-06T13:26:27Z</time>
      </trkpt>
      <trkpt lat="46.09749" lon="5.52791">
        <ele>588.8</ele>
        <time>2022-06-06T13:26:28Z</time>
      </trkpt>
      <trkpt lat="46.0976" lon="5.52797">
        <ele>587.6</ele>
        <time>2022-06-06T13:26:29Z</time>
      </trkpt>
      <trkpt lat="46.09777" lon="5.52806">
        <ele>585.8</ele>
        <time>2022-06-06T13:26:31Z</time>
      </trkpt>
      <trkpt lat="46.09785" lon="5.52809">
        <ele>584.2</ele>
        <time>2022-06-06T13:26:32Z</time>
      </trkpt>
      <trkpt lat="46.09799" lon="5.52812">
        <ele>582.6</ele>
        <time>2022-06-06T13:26:34Z</time>
      </trkpt>
      <trkpt lat="46.09805" lon="5.52814">
        <ele>581.4</ele>
        <time>2022-06-06T13:26:37Z</time>
      </trkpt>
      <trkpt lat="46.09805" lon="5.52814">
        <ele>580.2</ele>
        <time>2022-06-06T13:26:40Z</time>
      </trkpt>
      <trkpt lat="46.09809" lon="5.52813">
        <ele>579.2</ele>
        <time>2022-06-06T13:29:27Z</time>
      </trkpt>
      <trkpt lat="46.0981" lon="5.52813">
        <ele>578.8</ele>
        <time>2022-06-06T13:29:30Z</time>
      </trkpt>
      <trkpt lat="46.0982" lon="5.52812">
        <ele>578</ele>
        <time>2022-06-06T13:29:32Z</time>
      </trkpt>
      <trkpt lat="46.09826" lon="5.52808">
        <ele>577.6</ele>
        <time>2022-06-06T13:29:33Z</time>
      </trkpt>
      <trkpt lat="46.09833" lon="5.52802">
        <ele>577.4</ele>
        <time>2022-06-06T13:29:34Z</time>
      </trkpt>
      <trkpt lat="46.09842" lon="5.52793">
        <ele>576.6</ele>
        <time>2022-06-06T13:29:35Z</time>
      </trkpt>
      <trkpt lat="46.09851" lon="5.52783">
        <ele>576</ele>
        <time>2022-06-06T13:29:36Z</time>
      </trkpt>
      <trkpt lat="46.0986" lon="5.52771">
        <ele>575</ele>
        <time>2022-06-06T13:29:37Z</time>
      </trkpt>
      <trkpt lat="46.09875" lon="5.52745">
        <ele>573.4</ele>
        <time>2022-06-06T13:29:39Z</time>
      </trkpt>
      <trkpt lat="46.09883" lon="5.52732">
        <ele>572.4</ele>
        <time>2022-06-06T13:29:40Z</time>
      </trkpt>
      <trkpt lat="46.099" lon="5.52708">
        <ele>571.2</ele>
        <time>2022-06-06T13:29:42Z</time>
      </trkpt>
      <trkpt lat="46.09918" lon="5.52688">
        <ele>569.2</ele>
        <time>2022-06-06T13:29:44Z</time>
      </trkpt>
      <trkpt lat="46.09939" lon="5.52675">
        <ele>567.8</ele>
        <time>2022-06-06T13:29:46Z</time>
      </trkpt>
      <trkpt lat="46.09952" lon="5.52671">
        <ele>566.8</ele>
        <time>2022-06-06T13:29:47Z</time>
      </trkpt>
      <trkpt lat="46.09965" lon="5.5267">
        <ele>566.2</ele>
        <time>2022-06-06T13:29:48Z</time>
      </trkpt>
      <trkpt lat="46.09976" lon="5.52672">
        <ele>565.2</ele>
        <time>2022-06-06T13:29:49Z</time>
      </trkpt>
      <trkpt lat="46.10002" lon="5.52678">
        <ele>562.8</ele>
        <time>2022-06-06T13:29:51Z</time>
      </trkpt>
      <trkpt lat="46.10028" lon="5.52687">
        <ele>561.6</ele>
        <time>2022-06-06T13:29:53Z</time>
      </trkpt>
      <trkpt lat="46.1004" lon="5.52694">
        <ele>560.4</ele>
        <time>2022-06-06T13:29:54Z</time>
      </trkpt>
      <trkpt lat="46.10065" lon="5.52714">
        <ele>559</ele>
        <time>2022-06-06T13:29:56Z</time>
      </trkpt>
      <trkpt lat="46.10089" lon="5.52732">
        <ele>557</ele>
        <time>2022-06-06T13:29:58Z</time>
      </trkpt>
      <trkpt lat="46.101" lon="5.5274">
        <ele>556.4</ele>
        <time>2022-06-06T13:29:59Z</time>
      </trkpt>
      <trkpt lat="46.10113" lon="5.52747">
        <ele>555.6</ele>
        <time>2022-06-06T13:30:00Z</time>
      </trkpt>
      <trkpt lat="46.10127" lon="5.52751">
        <ele>553.8</ele>
        <time>2022-06-06T13:30:01Z</time>
      </trkpt>
      <trkpt lat="46.10152" lon="5.52752">
        <ele>552.2</ele>
        <time>2022-06-06T13:30:03Z</time>
      </trkpt>
      <trkpt lat="46.10165" lon="5.5275">
        <ele>551.8</ele>
        <time>2022-06-06T13:30:04Z</time>
      </trkpt>
      <trkpt lat="46.10177" lon="5.52748">
        <ele>550.6</ele>
        <time>2022-06-06T13:30:05Z</time>
      </trkpt>
      <trkpt lat="46.10201" lon="5.52747">
        <ele>548.6</ele>
        <time>2022-06-06T13:30:07Z</time>
      </trkpt>
      <trkpt lat="46.10221" lon="5.52746">
        <ele>547.4</ele>
        <time>2022-06-06T13:30:09Z</time>
      </trkpt>
      <trkpt lat="46.1023" lon="5.52741">
        <ele>547</ele>
        <time>2022-06-06T13:30:10Z</time>
      </trkpt>
      <trkpt lat="46.10236" lon="5.5273">
        <ele>547</ele>
        <time>2022-06-06T13:30:11Z</time>
      </trkpt>
      <trkpt lat="46.1024" lon="5.52719">
        <ele>546.8</ele>
        <time>2022-06-06T13:30:12Z</time>
      </trkpt>
      <trkpt lat="46.1025" lon="5.52695">
        <ele>545.8</ele>
        <time>2022-06-06T13:30:14Z</time>
      </trkpt>
      <trkpt lat="46.10258" lon="5.52671">
        <ele>544.8</ele>
        <time>2022-06-06T13:30:16Z</time>
      </trkpt>
      <trkpt lat="46.10264" lon="5.52661">
        <ele>544.4</ele>
        <time>2022-06-06T13:30:17Z</time>
      </trkpt>
      <trkpt lat="46.10277" lon="5.52639">
        <ele>544.2</ele>
        <time>2022-06-06T13:30:20Z</time>
      </trkpt>
      <trkpt lat="46.10287" lon="5.5264">
        <ele>544.2</ele>
        <time>2022-06-06T13:30:22Z</time>
      </trkpt>
      <trkpt lat="46.10292" lon="5.52642">
        <ele>544.2</ele>
        <time>2022-06-06T13:30:23Z</time>
      </trkpt>
      <trkpt lat="46.10309" lon="5.52639">
        <ele>545.6</ele>
        <time>2022-06-06T13:30:26Z</time>
      </trkpt>
      <trkpt lat="46.10316" lon="5.52639">
        <ele>545.8</ele>
        <time>2022-06-06T13:30:27Z</time>
      </trkpt>
      <trkpt lat="46.10329" lon="5.52638">
        <ele>546.6</ele>
        <time>2022-06-06T13:30:29Z</time>
      </trkpt>
      <trkpt lat="46.10335" lon="5.52637">
        <ele>547.8</ele>
        <time>2022-06-06T13:30:30Z</time>
      </trkpt>
      <trkpt lat="46.10341" lon="5.52638">
        <ele>548.6</ele>
        <time>2022-06-06T13:30:31Z</time>
      </trkpt>
      <trkpt lat="46.10347" lon="5.52638">
        <ele>548.8</ele>
        <time>2022-06-06T13:30:32Z</time>
      </trkpt>
      <trkpt lat="46.10359" lon="5.5264">
        <ele>549.6</ele>
        <time>2022-06-06T13:30:34Z</time>
      </trkpt>
      <trkpt lat="46.10364" lon="5.52641">
        <ele>549.8</ele>
        <time>2022-06-06T13:30:35Z</time>
      </trkpt>
      <trkpt lat="46.1037" lon="5.52642">
        <ele>550</ele>
        <time>2022-06-06T13:30:36Z</time>
      </trkpt>
      <trkpt lat="46.10387" lon="5.52646">
        <ele>550.8</ele>
        <time>2022-06-06T13:30:39Z</time>
      </trkpt>
      <trkpt lat="46.10393" lon="5.52648">
        <ele>551.2</ele>
        <time>2022-06-06T13:30:40Z</time>
      </trkpt>
      <trkpt lat="46.10413" lon="5.52653">
        <ele>552.4</ele>
        <time>2022-06-06T13:30:44Z</time>
      </trkpt>
      <trkpt lat="46.10417" lon="5.52654">
        <ele>552.6</ele>
        <time>2022-06-06T13:30:45Z</time>
      </trkpt>
      <trkpt lat="46.1044" lon="5.52661">
        <ele>554</ele>
        <time>2022-06-06T13:30:50Z</time>
      </trkpt>
      <trkpt lat="46.10454" lon="5.52664">
        <ele>555.2</ele>
        <time>2022-06-06T13:30:53Z</time>
      </trkpt>
      <trkpt lat="46.10462" lon="5.52666">
        <ele>555.6</ele>
        <time>2022-06-06T13:30:55Z</time>
      </trkpt>
      <trkpt lat="46.10479" lon="5.5267">
        <ele>556.4</ele>
        <time>2022-06-06T13:30:59Z</time>
      </trkpt>
      <trkpt lat="46.10495" lon="5.52673">
        <ele>557.2</ele>
        <time>2022-06-06T13:31:03Z</time>
      </trkpt>
      <trkpt lat="46.10499" lon="5.52674">
        <ele>557.4</ele>
        <time>2022-06-06T13:31:04Z</time>
      </trkpt>
      <trkpt lat="46.10524" lon="5.5268">
        <ele>558.6</ele>
        <time>2022-06-06T13:31:10Z</time>
      </trkpt>
      <trkpt lat="46.10532" lon="5.52682">
        <ele>559</ele>
        <time>2022-06-06T13:31:12Z</time>
      </trkpt>
      <trkpt lat="46.10545" lon="5.52685">
        <ele>559.8</ele>
        <time>2022-06-06T13:31:15Z</time>
      </trkpt>
      <trkpt lat="46.10553" lon="5.52688">
        <ele>560</ele>
        <time>2022-06-06T13:31:17Z</time>
      </trkpt>
      <trkpt lat="46.10565" lon="5.52691">
        <ele>560.4</ele>
        <time>2022-06-06T13:31:20Z</time>
      </trkpt>
      <trkpt lat="46.10572" lon="5.52693">
        <ele>561</ele>
        <time>2022-06-06T13:31:22Z</time>
      </trkpt>
      <trkpt lat="46.10587" lon="5.52698">
        <ele>562.2</ele>
        <time>2022-06-06T13:31:26Z</time>
      </trkpt>
      <trkpt lat="46.10593" lon="5.527">
        <ele>562.6</ele>
        <time>2022-06-06T13:31:28Z</time>
      </trkpt>
      <trkpt lat="46.10603" lon="5.52703">
        <ele>563.4</ele>
        <time>2022-06-06T13:31:31Z</time>
      </trkpt>
      <trkpt lat="46.10614" lon="5.52707">
        <ele>564.4</ele>
        <time>2022-06-06T13:31:34Z</time>
      </trkpt>
      <trkpt lat="46.10616" lon="5.52708">
        <ele>564.6</ele>
        <time>2022-06-06T13:31:35Z</time>
      </trkpt>
      <trkpt lat="46.10627" lon="5.52712">
        <ele>565.6</ele>
        <time>2022-06-06T13:31:38Z</time>
      </trkpt>
      <trkpt lat="46.10645" lon="5.52717">
        <ele>566.6</ele>
        <time>2022-06-06T13:31:43Z</time>
      </trkpt>
      <trkpt lat="46.10649" lon="5.52719">
        <ele>566.8</ele>
        <time>2022-06-06T13:31:44Z</time>
      </trkpt>
      <trkpt lat="46.10673" lon="5.5273">
        <ele>567.8</ele>
        <time>2022-06-06T13:31:50Z</time>
      </trkpt>
      <trkpt lat="46.10677" lon="5.52733">
        <ele>568</ele>
        <time>2022-06-06T13:31:51Z</time>
      </trkpt>
      <trkpt lat="46.10701" lon="5.52748">
        <ele>568.8</ele>
        <time>2022-06-06T13:31:57Z</time>
      </trkpt>
      <trkpt lat="46.10707" lon="5.52749">
        <ele>569</ele>
        <time>2022-06-06T13:31:58Z</time>
      </trkpt>
      <trkpt lat="46.1072" lon="5.52752">
        <ele>569.8</ele>
        <time>2022-06-06T13:32:02Z</time>
      </trkpt>
      <trkpt lat="46.10723" lon="5.52751">
        <ele>570</ele>
        <time>2022-06-06T13:32:03Z</time>
      </trkpt>
      <trkpt lat="46.10731" lon="5.5275">
        <ele>571</ele>
        <time>2022-06-06T13:32:05Z</time>
      </trkpt>
      <trkpt lat="46.10734" lon="5.52748">
        <ele>571.2</ele>
        <time>2022-06-06T13:32:06Z</time>
      </trkpt>
      <trkpt lat="46.10748" lon="5.5274">
        <ele>572</ele>
        <time>2022-06-06T13:32:10Z</time>
      </trkpt>
      <trkpt lat="46.10752" lon="5.52737">
        <ele>572.6</ele>
        <time>2022-06-06T13:32:11Z</time>
      </trkpt>
      <trkpt lat="46.10759" lon="5.52737">
        <ele>573</ele>
        <time>2022-06-06T13:32:13Z</time>
      </trkpt>
      <trkpt lat="46.10763" lon="5.52739">
        <ele>573</ele>
        <time>2022-06-06T13:32:14Z</time>
      </trkpt>
      <trkpt lat="46.10767" lon="5.52744">
        <ele>573.2</ele>
        <time>2022-06-06T13:32:15Z</time>
      </trkpt>
      <trkpt lat="46.10772" lon="5.5276">
        <ele>573.2</ele>
        <time>2022-06-06T13:32:17Z</time>
      </trkpt>
      <trkpt lat="46.10774" lon="5.52768">
        <ele>573.2</ele>
        <time>2022-06-06T13:32:18Z</time>
      </trkpt>
      <trkpt lat="46.10781" lon="5.52779">
        <ele>573</ele>
        <time>2022-06-06T13:32:20Z</time>
      </trkpt>
      <trkpt lat="46.10794" lon="5.52791">
        <ele>572</ele>
        <time>2022-06-06T13:32:23Z</time>
      </trkpt>
      <trkpt lat="46.108" lon="5.52795">
        <ele>571.4</ele>
        <time>2022-06-06T13:32:24Z</time>
      </trkpt>
      <trkpt lat="46.10835" lon="5.52808">
        <ele>570.2</ele>
        <time>2022-06-06T13:32:29Z</time>
      </trkpt>
      <trkpt lat="46.10865" lon="5.52816">
        <ele>570</ele>
        <time>2022-06-06T13:32:33Z</time>
      </trkpt>
      <trkpt lat="46.1088" lon="5.52821">
        <ele>569.8</ele>
        <time>2022-06-06T13:32:35Z</time>
      </trkpt>
      <trkpt lat="46.10894" lon="5.52825">
        <ele>569.2</ele>
        <time>2022-06-06T13:32:37Z</time>
      </trkpt>
      <trkpt lat="46.10934" lon="5.5284">
        <ele>568.2</ele>
        <time>2022-06-06T13:32:42Z</time>
      </trkpt>
      <trkpt lat="46.1094" lon="5.52842">
        <ele>567.6</ele>
        <time>2022-06-06T13:32:43Z</time>
      </trkpt>
      <trkpt lat="46.10979" lon="5.52861">
        <ele>567</ele>
        <time>2022-06-06T13:32:48Z</time>
      </trkpt>
      <trkpt lat="46.11009" lon="5.52882">
        <ele>566</ele>
        <time>2022-06-06T13:32:52Z</time>
      </trkpt>
      <trkpt lat="46.11041" lon="5.52903">
        <ele>565</ele>
        <time>2022-06-06T13:32:56Z</time>
      </trkpt>
      <trkpt lat="46.11068" lon="5.52915">
        <ele>563.6</ele>
        <time>2022-06-06T13:32:59Z</time>
      </trkpt>
      <trkpt lat="46.11095" lon="5.52926">
        <ele>562.6</ele>
        <time>2022-06-06T13:33:02Z</time>
      </trkpt>
      <trkpt lat="46.11139" lon="5.52945">
        <ele>561.4</ele>
        <time>2022-06-06T13:33:07Z</time>
      </trkpt>
      <trkpt lat="46.11172" lon="5.5296">
        <ele>561</ele>
        <time>2022-06-06T13:33:11Z</time>
      </trkpt>
      <trkpt lat="46.11232" lon="5.52988">
        <ele>560.4</ele>
        <time>2022-06-06T13:33:18Z</time>
      </trkpt>
      <trkpt lat="46.11241" lon="5.52993">
        <ele>560.4</ele>
        <time>2022-06-06T13:33:19Z</time>
      </trkpt>
      <trkpt lat="46.11295" lon="5.5303">
        <ele>559.4</ele>
        <time>2022-06-06T13:33:25Z</time>
      </trkpt>
      <trkpt lat="46.11305" lon="5.53036">
        <ele>559.2</ele>
        <time>2022-06-06T13:33:26Z</time>
      </trkpt>
      <trkpt lat="46.11323" lon="5.53047">
        <ele>558.2</ele>
        <time>2022-06-06T13:33:28Z</time>
      </trkpt>
      <trkpt lat="46.11358" lon="5.53073">
        <ele>557.6</ele>
        <time>2022-06-06T13:33:32Z</time>
      </trkpt>
      <trkpt lat="46.11377" lon="5.53084">
        <ele>557.2</ele>
        <time>2022-06-06T13:33:34Z</time>
      </trkpt>
      <trkpt lat="46.11412" lon="5.53107">
        <ele>556.8</ele>
        <time>2022-06-06T13:33:38Z</time>
      </trkpt>
      <trkpt lat="46.11463" lon="5.53144">
        <ele>557</ele>
        <time>2022-06-06T13:33:44Z</time>
      </trkpt>
      <trkpt lat="46.11481" lon="5.53156">
        <ele>556.8</ele>
        <time>2022-06-06T13:33:46Z</time>
      </trkpt>
      <trkpt lat="46.11535" lon="5.53191">
        <ele>556.2</ele>
        <time>2022-06-06T13:33:52Z</time>
      </trkpt>
      <trkpt lat="46.11555" lon="5.532">
        <ele>556</ele>
        <time>2022-06-06T13:33:54Z</time>
      </trkpt>
      <trkpt lat="46.11595" lon="5.53219">
        <ele>555.4</ele>
        <time>2022-06-06T13:33:58Z</time>
      </trkpt>
      <trkpt lat="46.11637" lon="5.53231">
        <ele>555</ele>
        <time>2022-06-06T13:34:02Z</time>
      </trkpt>
      <trkpt lat="46.11647" lon="5.53232">
        <ele>555</ele>
        <time>2022-06-06T13:34:03Z</time>
      </trkpt>
      <trkpt lat="46.1168" lon="5.53229">
        <ele>554.2</ele>
        <time>2022-06-06T13:34:06Z</time>
      </trkpt>
      <trkpt lat="46.1169" lon="5.53227">
        <ele>554</ele>
        <time>2022-06-06T13:34:07Z</time>
      </trkpt>
      <trkpt lat="46.11723" lon="5.53223">
        <ele>553.8</ele>
        <time>2022-06-06T13:34:10Z</time>
      </trkpt>
      <trkpt lat="46.11744" lon="5.53226">
        <ele>553</ele>
        <time>2022-06-06T13:34:12Z</time>
      </trkpt>
      <trkpt lat="46.11752" lon="5.53229">
        <ele>552.8</ele>
        <time>2022-06-06T13:34:13Z</time>
      </trkpt>
      <trkpt lat="46.11762" lon="5.53233">
        <ele>552</ele>
        <time>2022-06-06T13:34:14Z</time>
      </trkpt>
      <trkpt lat="46.11785" lon="5.53245">
        <ele>551</ele>
        <time>2022-06-06T13:34:16Z</time>
      </trkpt>
      <trkpt lat="46.11796" lon="5.5325">
        <ele>550.8</ele>
        <time>2022-06-06T13:34:17Z</time>
      </trkpt>
      <trkpt lat="46.11829" lon="5.53263">
        <ele>549.4</ele>
        <time>2022-06-06T13:34:20Z</time>
      </trkpt>
      <trkpt lat="46.11852" lon="5.5327">
        <ele>548.2</ele>
        <time>2022-06-06T13:34:22Z</time>
      </trkpt>
      <trkpt lat="46.11875" lon="5.53277">
        <ele>547</ele>
        <time>2022-06-06T13:34:24Z</time>
      </trkpt>
      <trkpt lat="46.11898" lon="5.53282">
        <ele>546</ele>
        <time>2022-06-06T13:34:26Z</time>
      </trkpt>
      <trkpt lat="46.11922" lon="5.53288">
        <ele>544</ele>
        <time>2022-06-06T13:34:28Z</time>
      </trkpt>
      <trkpt lat="46.11934" lon="5.5329">
        <ele>543.6</ele>
        <time>2022-06-06T13:34:29Z</time>
      </trkpt>
      <trkpt lat="46.11945" lon="5.53292">
        <ele>542.8</ele>
        <time>2022-06-06T13:34:30Z</time>
      </trkpt>
      <trkpt lat="46.1198" lon="5.53295">
        <ele>541.2</ele>
        <time>2022-06-06T13:34:33Z</time>
      </trkpt>
      <trkpt lat="46.12001" lon="5.53297">
        <ele>540.6</ele>
        <time>2022-06-06T13:34:35Z</time>
      </trkpt>
      <trkpt lat="46.12013" lon="5.53298">
        <ele>540.2</ele>
        <time>2022-06-06T13:34:36Z</time>
      </trkpt>
      <trkpt lat="46.1205" lon="5.53305">
        <ele>539</ele>
        <time>2022-06-06T13:34:39Z</time>
      </trkpt>
      <trkpt lat="46.12085" lon="5.53313">
        <ele>537.4</ele>
        <time>2022-06-06T13:34:42Z</time>
      </trkpt>
      <trkpt lat="46.12111" lon="5.5332">
        <ele>535.2</ele>
        <time>2022-06-06T13:34:44Z</time>
      </trkpt>
      <trkpt lat="46.12136" lon="5.53331">
        <ele>533</ele>
        <time>2022-06-06T13:34:46Z</time>
      </trkpt>
      <trkpt lat="46.12149" lon="5.53337">
        <ele>531.6</ele>
        <time>2022-06-06T13:34:47Z</time>
      </trkpt>
      <trkpt lat="46.12174" lon="5.5335">
        <ele>530</ele>
        <time>2022-06-06T13:34:49Z</time>
      </trkpt>
      <trkpt lat="46.12198" lon="5.53363">
        <ele>528.4</ele>
        <time>2022-06-06T13:34:51Z</time>
      </trkpt>
      <trkpt lat="46.12221" lon="5.53375">
        <ele>527.2</ele>
        <time>2022-06-06T13:34:53Z</time>
      </trkpt>
      <trkpt lat="46.12244" lon="5.53387">
        <ele>526</ele>
        <time>2022-06-06T13:34:55Z</time>
      </trkpt>
      <trkpt lat="46.12264" lon="5.53395">
        <ele>524.6</ele>
        <time>2022-06-06T13:34:57Z</time>
      </trkpt>
      <trkpt lat="46.12275" lon="5.534">
        <ele>524.2</ele>
        <time>2022-06-06T13:34:58Z</time>
      </trkpt>
      <trkpt lat="46.12311" lon="5.53413">
        <ele>523.4</ele>
        <time>2022-06-06T13:35:01Z</time>
      </trkpt>
      <trkpt lat="46.12352" lon="5.53427">
        <ele>523</ele>
        <time>2022-06-06T13:35:05Z</time>
      </trkpt>
      <trkpt lat="46.12385" lon="5.5344">
        <ele>522.6</ele>
        <time>2022-06-06T13:35:08Z</time>
      </trkpt>
      <trkpt lat="46.12395" lon="5.53442">
        <ele>522.6</ele>
        <time>2022-06-06T13:35:09Z</time>
      </trkpt>
      <trkpt lat="46.12406" lon="5.53443">
        <ele>522.4</ele>
        <time>2022-06-06T13:35:10Z</time>
      </trkpt>
      <trkpt lat="46.12428" lon="5.53442">
        <ele>521.4</ele>
        <time>2022-06-06T13:35:12Z</time>
      </trkpt>
      <trkpt lat="46.12458" lon="5.53437">
        <ele>520.4</ele>
        <time>2022-06-06T13:35:15Z</time>
      </trkpt>
      <trkpt lat="46.12478" lon="5.53425">
        <ele>519.6</ele>
        <time>2022-06-06T13:35:17Z</time>
      </trkpt>
      <trkpt lat="46.12485" lon="5.53416">
        <ele>519.4</ele>
        <time>2022-06-06T13:35:18Z</time>
      </trkpt>
      <trkpt lat="46.12492" lon="5.53404">
        <ele>519.2</ele>
        <time>2022-06-06T13:35:19Z</time>
      </trkpt>
      <trkpt lat="46.12501" lon="5.53377">
        <ele>518.8</ele>
        <time>2022-06-06T13:35:21Z</time>
      </trkpt>
      <trkpt lat="46.12505" lon="5.53364">
        <ele>517.8</ele>
        <time>2022-06-06T13:35:22Z</time>
      </trkpt>
      <trkpt lat="46.12508" lon="5.53352">
        <ele>517.2</ele>
        <time>2022-06-06T13:35:23Z</time>
      </trkpt>
      <trkpt lat="46.12511" lon="5.5334">
        <ele>516.2</ele>
        <time>2022-06-06T13:35:24Z</time>
      </trkpt>
      <trkpt lat="46.12515" lon="5.53331">
        <ele>515.6</ele>
        <time>2022-06-06T13:35:25Z</time>
      </trkpt>
      <trkpt lat="46.12519" lon="5.53322">
        <ele>514.8</ele>
        <time>2022-06-06T13:35:26Z</time>
      </trkpt>
      <trkpt lat="46.12527" lon="5.53322">
        <ele>514.8</ele>
        <time>2022-06-06T13:35:27Z</time>
      </trkpt>
      <trkpt lat="46.1254" lon="5.53329">
        <ele>514.4</ele>
        <time>2022-06-06T13:35:29Z</time>
      </trkpt>
      <trkpt lat="46.12547" lon="5.53335">
        <ele>514.6</ele>
        <time>2022-06-06T13:35:30Z</time>
      </trkpt>
      <trkpt lat="46.12581" lon="5.53368">
        <ele>516</ele>
        <time>2022-06-06T13:35:35Z</time>
      </trkpt>
      <trkpt lat="46.12586" lon="5.53373">
        <ele>516.4</ele>
        <time>2022-06-06T13:35:36Z</time>
      </trkpt>
      <trkpt lat="46.12601" lon="5.5339">
        <ele>517.2</ele>
        <time>2022-06-06T13:35:39Z</time>
      </trkpt>
      <trkpt lat="46.12604" lon="5.53397">
        <ele>517.6</ele>
        <time>2022-06-06T13:35:40Z</time>
      </trkpt>
      <trkpt lat="46.12609" lon="5.53411">
        <ele>518.4</ele>
        <time>2022-06-06T13:35:42Z</time>
      </trkpt>
      <trkpt lat="46.1261" lon="5.53418">
        <ele>519</ele>
        <time>2022-06-06T13:35:43Z</time>
      </trkpt>
      <trkpt lat="46.12611" lon="5.53426">
        <ele>519.4</ele>
        <time>2022-06-06T13:35:44Z</time>
      </trkpt>
      <trkpt lat="46.12612" lon="5.53439">
        <ele>520.2</ele>
        <time>2022-06-06T13:35:46Z</time>
      </trkpt>
      <trkpt lat="46.12614" lon="5.53454">
        <ele>521.2</ele>
        <time>2022-06-06T13:35:48Z</time>
      </trkpt>
      <trkpt lat="46.12615" lon="5.53459">
        <ele>521.8</ele>
        <time>2022-06-06T13:35:49Z</time>
      </trkpt>
      <trkpt lat="46.12617" lon="5.53477">
        <ele>523.2</ele>
        <time>2022-06-06T13:35:52Z</time>
      </trkpt>
      <trkpt lat="46.12619" lon="5.53488">
        <ele>524.4</ele>
        <time>2022-06-06T13:35:54Z</time>
      </trkpt>
      <trkpt lat="46.1262" lon="5.53492">
        <ele>524.6</ele>
        <time>2022-06-06T13:35:55Z</time>
      </trkpt>
      <trkpt lat="46.12622" lon="5.53502">
        <ele>525.6</ele>
        <time>2022-06-06T13:35:57Z</time>
      </trkpt>
      <trkpt lat="46.12624" lon="5.53512">
        <ele>526.8</ele>
        <time>2022-06-06T13:35:59Z</time>
      </trkpt>
      <trkpt lat="46.12629" lon="5.53521">
        <ele>527.2</ele>
        <time>2022-06-06T13:36:01Z</time>
      </trkpt>
      <trkpt lat="46.12635" lon="5.53533">
        <ele>527.4</ele>
        <time>2022-06-06T13:36:03Z</time>
      </trkpt>
      <trkpt lat="46.12638" lon="5.53543">
        <ele>527.6</ele>
        <time>2022-06-06T13:36:05Z</time>
      </trkpt>
      <trkpt lat="46.12641" lon="5.53549">
        <ele>527.6</ele>
        <time>2022-06-06T13:36:06Z</time>
      </trkpt>
      <trkpt lat="46.12643" lon="5.53554">
        <ele>527.8</ele>
        <time>2022-06-06T13:36:07Z</time>
      </trkpt>
      <trkpt lat="46.12653" lon="5.53574">
        <ele>528</ele>
        <time>2022-06-06T13:36:11Z</time>
      </trkpt>
      <trkpt lat="46.12667" lon="5.53591">
        <ele>528.8</ele>
        <time>2022-06-06T13:36:15Z</time>
      </trkpt>
      <trkpt lat="46.12679" lon="5.53602">
        <ele>528.8</ele>
        <time>2022-06-06T13:36:18Z</time>
      </trkpt>
      <trkpt lat="46.12688" lon="5.53611">
        <ele>529.2</ele>
        <time>2022-06-06T13:36:20Z</time>
      </trkpt>
      <trkpt lat="46.12693" lon="5.53616">
        <ele>529.2</ele>
        <time>2022-06-06T13:36:21Z</time>
      </trkpt>
      <trkpt lat="46.127" lon="5.53624">
        <ele>529</ele>
        <time>2022-06-06T13:36:23Z</time>
      </trkpt>
      <trkpt lat="46.12708" lon="5.53636">
        <ele>528.8</ele>
        <time>2022-06-06T13:36:25Z</time>
      </trkpt>
      <trkpt lat="46.12719" lon="5.53647">
        <ele>529</ele>
        <time>2022-06-06T13:36:27Z</time>
      </trkpt>
      <trkpt lat="46.12726" lon="5.53651">
        <ele>528.8</ele>
        <time>2022-06-06T13:36:28Z</time>
      </trkpt>
      <trkpt lat="46.12761" lon="5.53666">
        <ele>527.6</ele>
        <time>2022-06-06T13:36:33Z</time>
      </trkpt>
      <trkpt lat="46.12768" lon="5.53668">
        <ele>527.4</ele>
        <time>2022-06-06T13:36:34Z</time>
      </trkpt>
      <trkpt lat="46.12814" lon="5.53692">
        <ele>527</ele>
        <time>2022-06-06T13:36:41Z</time>
      </trkpt>
      <trkpt lat="46.12822" lon="5.53695">
        <ele>527</ele>
        <time>2022-06-06T13:36:42Z</time>
      </trkpt>
      <trkpt lat="46.12879" lon="5.53717">
        <ele>526.8</ele>
        <time>2022-06-06T13:36:50Z</time>
      </trkpt>
      <trkpt lat="46.12886" lon="5.53721">
        <ele>526.8</ele>
        <time>2022-06-06T13:36:51Z</time>
      </trkpt>
      <trkpt lat="46.12917" lon="5.53735">
        <ele>527</ele>
        <time>2022-06-06T13:36:56Z</time>
      </trkpt>
      <trkpt lat="46.12946" lon="5.53744">
        <ele>527.4</ele>
        <time>2022-06-06T13:37:01Z</time>
      </trkpt>
      <trkpt lat="46.12951" lon="5.53744">
        <ele>527.4</ele>
        <time>2022-06-06T13:37:02Z</time>
      </trkpt>
      <trkpt lat="46.12955" lon="5.53741">
        <ele>527.4</ele>
        <time>2022-06-06T13:37:03Z</time>
      </trkpt>
      <trkpt lat="46.12963" lon="5.53737">
        <ele>527.6</ele>
        <time>2022-06-06T13:37:05Z</time>
      </trkpt>
      <trkpt lat="46.12977" lon="5.53736">
        <ele>528</ele>
        <time>2022-06-06T13:37:08Z</time>
      </trkpt>
      <trkpt lat="46.12984" lon="5.53735">
        <ele>528</ele>
        <time>2022-06-06T13:37:09Z</time>
      </trkpt>
      <trkpt lat="46.12993" lon="5.53737">
        <ele>528.4</ele>
        <time>2022-06-06T13:37:11Z</time>
      </trkpt>
      <trkpt lat="46.13006" lon="5.53742">
        <ele>528.4</ele>
        <time>2022-06-06T13:37:13Z</time>
      </trkpt>
      <trkpt lat="46.13029" lon="5.53748">
        <ele>528.4</ele>
        <time>2022-06-06T13:37:17Z</time>
      </trkpt>
      <trkpt lat="46.13041" lon="5.53747">
        <ele>528.2</ele>
        <time>2022-06-06T13:37:19Z</time>
      </trkpt>
      <trkpt lat="46.13075" lon="5.5374">
        <ele>526.8</ele>
        <time>2022-06-06T13:37:24Z</time>
      </trkpt>
      <trkpt lat="46.13099" lon="5.53739">
        <ele>526</ele>
        <time>2022-06-06T13:37:28Z</time>
      </trkpt>
      <trkpt lat="46.13104" lon="5.53737">
        <ele>525.6</ele>
        <time>2022-06-06T13:37:29Z</time>
      </trkpt>
      <trkpt lat="46.13115" lon="5.53734">
        <ele>525.2</ele>
        <time>2022-06-06T13:37:32Z</time>
      </trkpt>
      <trkpt lat="46.13116" lon="5.53733">
        <ele>525</ele>
        <time>2022-06-06T13:37:33Z</time>
      </trkpt>
      <trkpt lat="46.13116" lon="5.53733">
        <ele>524.8</ele>
        <time>2022-06-06T13:37:35Z</time>
      </trkpt>
      <trkpt lat="46.13116" lon="5.53732">
        <ele>524.6</ele>
        <time>2022-06-06T13:37:36Z</time>
      </trkpt>
      <trkpt lat="46.13118" lon="5.53732">
        <ele>524.4</ele>
        <time>2022-06-06T13:37:37Z</time>
      </trkpt>
      <trkpt lat="46.13125" lon="5.53732">
        <ele>524</ele>
        <time>2022-06-06T13:37:40Z</time>
      </trkpt>
      <trkpt lat="46.13129" lon="5.53732">
        <ele>523.6</ele>
        <time>2022-06-06T13:37:42Z</time>
      </trkpt>
      <trkpt lat="46.13132" lon="5.53734">
        <ele>523.4</ele>
        <time>2022-06-06T13:37:43Z</time>
      </trkpt>
      <trkpt lat="46.13136" lon="5.53741">
        <ele>523</ele>
        <time>2022-06-06T13:37:45Z</time>
      </trkpt>
      <trkpt lat="46.1314" lon="5.53746">
        <ele>522.6</ele>
        <time>2022-06-06T13:37:47Z</time>
      </trkpt>
      <trkpt lat="46.13148" lon="5.53746">
        <ele>522</ele>
        <time>2022-06-06T13:37:49Z</time>
      </trkpt>
      <trkpt lat="46.13159" lon="5.5374">
        <ele>521.4</ele>
        <time>2022-06-06T13:37:51Z</time>
      </trkpt>
      <trkpt lat="46.13169" lon="5.53733">
        <ele>520.4</ele>
        <time>2022-06-06T13:37:53Z</time>
      </trkpt>
      <trkpt lat="46.13174" lon="5.53727">
        <ele>520.2</ele>
        <time>2022-06-06T13:37:54Z</time>
      </trkpt>
      <trkpt lat="46.13179" lon="5.53719">
        <ele>519.6</ele>
        <time>2022-06-06T13:37:55Z</time>
      </trkpt>
      <trkpt lat="46.13184" lon="5.53709">
        <ele>519.4</ele>
        <time>2022-06-06T13:37:56Z</time>
      </trkpt>
      <trkpt lat="46.13188" lon="5.53699">
        <ele>519.2</ele>
        <time>2022-06-06T13:37:57Z</time>
      </trkpt>
      <trkpt lat="46.132" lon="5.53668">
        <ele>518</ele>
        <time>2022-06-06T13:38:00Z</time>
      </trkpt>
      <trkpt lat="46.13204" lon="5.53658">
        <ele>517.8</ele>
        <time>2022-06-06T13:38:01Z</time>
      </trkpt>
      <trkpt lat="46.13208" lon="5.53649">
        <ele>516.8</ele>
        <time>2022-06-06T13:38:02Z</time>
      </trkpt>
      <trkpt lat="46.13215" lon="5.53633">
        <ele>516.2</ele>
        <time>2022-06-06T13:38:04Z</time>
      </trkpt>
      <trkpt lat="46.1322" lon="5.53628">
        <ele>516</ele>
        <time>2022-06-06T13:38:05Z</time>
      </trkpt>
      <trkpt lat="46.13231" lon="5.53624">
        <ele>515.8</ele>
        <time>2022-06-06T13:38:07Z</time>
      </trkpt>
      <trkpt lat="46.13242" lon="5.53627">
        <ele>515.6</ele>
        <time>2022-06-06T13:38:09Z</time>
      </trkpt>
      <trkpt lat="46.13253" lon="5.53629">
        <ele>515.8</ele>
        <time>2022-06-06T13:38:11Z</time>
      </trkpt>
      <trkpt lat="46.13266" lon="5.53628">
        <ele>515.8</ele>
        <time>2022-06-06T13:38:13Z</time>
      </trkpt>
      <trkpt lat="46.13287" lon="5.53616">
        <ele>516</ele>
        <time>2022-06-06T13:38:17Z</time>
      </trkpt>
      <trkpt lat="46.13302" lon="5.53605">
        <ele>516.4</ele>
        <time>2022-06-06T13:38:20Z</time>
      </trkpt>
      <trkpt lat="46.1331" lon="5.53592">
        <ele>516.8</ele>
        <time>2022-06-06T13:38:22Z</time>
      </trkpt>
      <trkpt lat="46.13327" lon="5.53551">
        <ele>517.2</ele>
        <time>2022-06-06T13:38:27Z</time>
      </trkpt>
      <trkpt lat="46.13341" lon="5.53529">
        <ele>517.6</ele>
        <time>2022-06-06T13:38:30Z</time>
      </trkpt>
      <trkpt lat="46.13347" lon="5.53524">
        <ele>517.6</ele>
        <time>2022-06-06T13:38:31Z</time>
      </trkpt>
      <trkpt lat="46.13379" lon="5.53496">
        <ele>518.2</ele>
        <time>2022-06-06T13:38:37Z</time>
      </trkpt>
      <trkpt lat="46.13385" lon="5.53492">
        <ele>518.4</ele>
        <time>2022-06-06T13:38:38Z</time>
      </trkpt>
      <trkpt lat="46.1339" lon="5.53488">
        <ele>518.6</ele>
        <time>2022-06-06T13:38:39Z</time>
      </trkpt>
      <trkpt lat="46.13405" lon="5.53476">
        <ele>519.4</ele>
        <time>2022-06-06T13:38:42Z</time>
      </trkpt>
      <trkpt lat="46.13413" lon="5.53469">
        <ele>520.2</ele>
        <time>2022-06-06T13:38:44Z</time>
      </trkpt>
      <trkpt lat="46.13417" lon="5.53465">
        <ele>520.6</ele>
        <time>2022-06-06T13:38:45Z</time>
      </trkpt>
      <trkpt lat="46.1342" lon="5.53461">
        <ele>521</ele>
        <time>2022-06-06T13:38:46Z</time>
      </trkpt>
      <trkpt lat="46.13428" lon="5.53452">
        <ele>521.6</ele>
        <time>2022-06-06T13:38:48Z</time>
      </trkpt>
      <trkpt lat="46.13431" lon="5.53447">
        <ele>521.8</ele>
        <time>2022-06-06T13:38:49Z</time>
      </trkpt>
      <trkpt lat="46.13434" lon="5.53443">
        <ele>521.8</ele>
        <time>2022-06-06T13:38:50Z</time>
      </trkpt>
      <trkpt lat="46.13443" lon="5.5343">
        <ele>522.8</ele>
        <time>2022-06-06T13:38:53Z</time>
      </trkpt>
      <trkpt lat="46.13447" lon="5.53426">
        <ele>523</ele>
        <time>2022-06-06T13:38:54Z</time>
      </trkpt>
      <trkpt lat="46.13464" lon="5.53406">
        <ele>524</ele>
        <time>2022-06-06T13:38:59Z</time>
      </trkpt>
      <trkpt lat="46.13474" lon="5.53396">
        <ele>524.6</ele>
        <time>2022-06-06T13:39:02Z</time>
      </trkpt>
      <trkpt lat="46.1348" lon="5.53389">
        <ele>525.2</ele>
        <time>2022-06-06T13:39:04Z</time>
      </trkpt>
      <trkpt lat="46.13489" lon="5.53376">
        <ele>526.2</ele>
        <time>2022-06-06T13:39:07Z</time>
      </trkpt>
      <trkpt lat="46.13495" lon="5.53369">
        <ele>527</ele>
        <time>2022-06-06T13:39:09Z</time>
      </trkpt>
      <trkpt lat="46.13498" lon="5.53366">
        <ele>527.4</ele>
        <time>2022-06-06T13:39:10Z</time>
      </trkpt>
      <trkpt lat="46.13507" lon="5.53351">
        <ele>528.2</ele>
        <time>2022-06-06T13:39:14Z</time>
      </trkpt>
      <trkpt lat="46.1351" lon="5.53347">
        <ele>528.4</ele>
        <time>2022-06-06T13:39:15Z</time>
      </trkpt>
      <trkpt lat="46.1352" lon="5.53331">
        <ele>529.8</ele>
        <time>2022-06-06T13:39:19Z</time>
      </trkpt>
      <trkpt lat="46.13525" lon="5.53322">
        <ele>530.4</ele>
        <time>2022-06-06T13:39:21Z</time>
      </trkpt>
      <trkpt lat="46.13528" lon="5.53318">
        <ele>530.4</ele>
        <time>2022-06-06T13:39:22Z</time>
      </trkpt>
      <trkpt lat="46.13533" lon="5.53309">
        <ele>531</ele>
        <time>2022-06-06T13:39:24Z</time>
      </trkpt>
      <trkpt lat="46.13544" lon="5.53285">
        <ele>532</ele>
        <time>2022-06-06T13:39:29Z</time>
      </trkpt>
      <trkpt lat="46.13554" lon="5.53264">
        <ele>533.2</ele>
        <time>2022-06-06T13:39:33Z</time>
      </trkpt>
      <trkpt lat="46.13559" lon="5.53256">
        <ele>533.6</ele>
        <time>2022-06-06T13:39:35Z</time>
      </trkpt>
      <trkpt lat="46.13565" lon="5.53242">
        <ele>534.4</ele>
        <time>2022-06-06T13:39:38Z</time>
      </trkpt>
      <trkpt lat="46.13566" lon="5.53237">
        <ele>534.6</ele>
        <time>2022-06-06T13:39:39Z</time>
      </trkpt>
      <trkpt lat="46.13573" lon="5.53218">
        <ele>535.4</ele>
        <time>2022-06-06T13:39:43Z</time>
      </trkpt>
      <trkpt lat="46.13575" lon="5.53213">
        <ele>535.6</ele>
        <time>2022-06-06T13:39:44Z</time>
      </trkpt>
      <trkpt lat="46.13587" lon="5.53185">
        <ele>536.6</ele>
        <time>2022-06-06T13:39:50Z</time>
      </trkpt>
      <trkpt lat="46.13595" lon="5.53169">
        <ele>537.8</ele>
        <time>2022-06-06T13:39:54Z</time>
      </trkpt>
      <trkpt lat="46.13602" lon="5.53151">
        <ele>538.6</ele>
        <time>2022-06-06T13:39:58Z</time>
      </trkpt>
      <trkpt lat="46.13607" lon="5.53143">
        <ele>539</ele>
        <time>2022-06-06T13:40:00Z</time>
      </trkpt>
      <trkpt lat="46.13613" lon="5.5313">
        <ele>539.8</ele>
        <time>2022-06-06T13:40:03Z</time>
      </trkpt>
      <trkpt lat="46.13618" lon="5.53121">
        <ele>540.2</ele>
        <time>2022-06-06T13:40:05Z</time>
      </trkpt>
      <trkpt lat="46.13626" lon="5.53107">
        <ele>540.6</ele>
        <time>2022-06-06T13:40:08Z</time>
      </trkpt>
      <trkpt lat="46.13635" lon="5.5309">
        <ele>541.6</ele>
        <time>2022-06-06T13:40:12Z</time>
      </trkpt>
      <trkpt lat="46.13638" lon="5.53087">
        <ele>541.8</ele>
        <time>2022-06-06T13:40:13Z</time>
      </trkpt>
      <trkpt lat="46.13646" lon="5.53077">
        <ele>542.6</ele>
        <time>2022-06-06T13:40:16Z</time>
      </trkpt>
      <trkpt lat="46.13656" lon="5.53067">
        <ele>543.6</ele>
        <time>2022-06-06T13:40:20Z</time>
      </trkpt>
      <trkpt lat="46.13658" lon="5.53065">
        <ele>543.8</ele>
        <time>2022-06-06T13:40:21Z</time>
      </trkpt>
      <trkpt lat="46.13667" lon="5.53059">
        <ele>544.8</ele>
        <time>2022-06-06T13:40:24Z</time>
      </trkpt>
      <trkpt lat="46.13673" lon="5.53056">
        <ele>545.4</ele>
        <time>2022-06-06T13:40:26Z</time>
      </trkpt>
      <trkpt lat="46.13679" lon="5.53054">
        <ele>546.2</ele>
        <time>2022-06-06T13:40:28Z</time>
      </trkpt>
      <trkpt lat="46.1369" lon="5.53047">
        <ele>547.4</ele>
        <time>2022-06-06T13:40:32Z</time>
      </trkpt>
      <trkpt lat="46.13698" lon="5.53042">
        <ele>548.4</ele>
        <time>2022-06-06T13:40:35Z</time>
      </trkpt>
      <trkpt lat="46.137" lon="5.5304">
        <ele>548.6</ele>
        <time>2022-06-06T13:40:36Z</time>
      </trkpt>
      <trkpt lat="46.13706" lon="5.53037">
        <ele>549.4</ele>
        <time>2022-06-06T13:40:38Z</time>
      </trkpt>
      <trkpt lat="46.13717" lon="5.5303">
        <ele>550.6</ele>
        <time>2022-06-06T13:40:42Z</time>
      </trkpt>
      <trkpt lat="46.13722" lon="5.53028">
        <ele>551.2</ele>
        <time>2022-06-06T13:40:44Z</time>
      </trkpt>
      <trkpt lat="46.13728" lon="5.53024">
        <ele>551.6</ele>
        <time>2022-06-06T13:40:46Z</time>
      </trkpt>
      <trkpt lat="46.13739" lon="5.53019">
        <ele>553</ele>
        <time>2022-06-06T13:40:50Z</time>
      </trkpt>
      <trkpt lat="46.13742" lon="5.53017">
        <ele>553.2</ele>
        <time>2022-06-06T13:40:51Z</time>
      </trkpt>
      <trkpt lat="46.13753" lon="5.53011">
        <ele>554.2</ele>
        <time>2022-06-06T13:40:55Z</time>
      </trkpt>
      <trkpt lat="46.13766" lon="5.53005">
        <ele>555.8</ele>
        <time>2022-06-06T13:40:59Z</time>
      </trkpt>
      <trkpt lat="46.13775" lon="5.53001">
        <ele>556.2</ele>
        <time>2022-06-06T13:41:02Z</time>
      </trkpt>
      <trkpt lat="46.13789" lon="5.52992">
        <ele>556.8</ele>
        <time>2022-06-06T13:41:06Z</time>
      </trkpt>
      <trkpt lat="46.13804" lon="5.52984">
        <ele>557.8</ele>
        <time>2022-06-06T13:41:10Z</time>
      </trkpt>
      <trkpt lat="46.13807" lon="5.52982">
        <ele>558.2</ele>
        <time>2022-06-06T13:41:11Z</time>
      </trkpt>
      <trkpt lat="46.13828" lon="5.52973">
        <ele>559.2</ele>
        <time>2022-06-06T13:41:16Z</time>
      </trkpt>
      <trkpt lat="46.13832" lon="5.52972">
        <ele>559.2</ele>
        <time>2022-06-06T13:41:17Z</time>
      </trkpt>
      <trkpt lat="46.13837" lon="5.52969">
        <ele>559.4</ele>
        <time>2022-06-06T13:41:18Z</time>
      </trkpt>
      <trkpt lat="46.1386" lon="5.52956">
        <ele>559.8</ele>
        <time>2022-06-06T13:41:23Z</time>
      </trkpt>
      <trkpt lat="46.13884" lon="5.52926">
        <ele>560</ele>
        <time>2022-06-06T13:41:29Z</time>
      </trkpt>
      <trkpt lat="46.13887" lon="5.5292">
        <ele>560</ele>
        <time>2022-06-06T13:41:30Z</time>
      </trkpt>
      <trkpt lat="46.13898" lon="5.52893">
        <ele>560.2</ele>
        <time>2022-06-06T13:41:34Z</time>
      </trkpt>
      <trkpt lat="46.13902" lon="5.5288">
        <ele>560.4</ele>
        <time>2022-06-06T13:41:36Z</time>
      </trkpt>
      <trkpt lat="46.13905" lon="5.52867">
        <ele>560.4</ele>
        <time>2022-06-06T13:41:38Z</time>
      </trkpt>
      <trkpt lat="46.13906" lon="5.5286">
        <ele>560.6</ele>
        <time>2022-06-06T13:41:39Z</time>
      </trkpt>
      <trkpt lat="46.13908" lon="5.52845">
        <ele>560.6</ele>
        <time>2022-06-06T13:41:41Z</time>
      </trkpt>
      <trkpt lat="46.13909" lon="5.52831">
        <ele>560.8</ele>
        <time>2022-06-06T13:41:43Z</time>
      </trkpt>
      <trkpt lat="46.13909" lon="5.52817">
        <ele>561</ele>
        <time>2022-06-06T13:41:45Z</time>
      </trkpt>
      <trkpt lat="46.13908" lon="5.52803">
        <ele>561.2</ele>
        <time>2022-06-06T13:41:47Z</time>
      </trkpt>
      <trkpt lat="46.13907" lon="5.52786">
        <ele>561.4</ele>
        <time>2022-06-06T13:41:50Z</time>
      </trkpt>
      <trkpt lat="46.13905" lon="5.5278">
        <ele>561.6</ele>
        <time>2022-06-06T13:41:51Z</time>
      </trkpt>
      <trkpt lat="46.13903" lon="5.52774">
        <ele>561.6</ele>
        <time>2022-06-06T13:41:52Z</time>
      </trkpt>
      <trkpt lat="46.13895" lon="5.52762">
        <ele>561.8</ele>
        <time>2022-06-06T13:41:54Z</time>
      </trkpt>
      <trkpt lat="46.13882" lon="5.52745">
        <ele>562.6</ele>
        <time>2022-06-06T13:41:57Z</time>
      </trkpt>
      <trkpt lat="46.13861" lon="5.52726">
        <ele>563</ele>
        <time>2022-06-06T13:42:01Z</time>
      </trkpt>
      <trkpt lat="46.1383" lon="5.52698">
        <ele>563.6</ele>
        <time>2022-06-06T13:42:07Z</time>
      </trkpt>
      <trkpt lat="46.1382" lon="5.52689">
        <ele>563.8</ele>
        <time>2022-06-06T13:42:09Z</time>
      </trkpt>
      <trkpt lat="46.13783" lon="5.52645">
        <ele>564.2</ele>
        <time>2022-06-06T13:42:17Z</time>
      </trkpt>
      <trkpt lat="46.13743" lon="5.5259">
        <ele>565</ele>
        <time>2022-06-06T13:42:27Z</time>
      </trkpt>
      <trkpt lat="46.1374" lon="5.52585">
        <ele>564.8</ele>
        <time>2022-06-06T13:42:28Z</time>
      </trkpt>
      <trkpt lat="46.13704" lon="5.52536">
        <ele>566</ele>
        <time>2022-06-06T13:42:37Z</time>
      </trkpt>
      <trkpt lat="46.13698" lon="5.52525">
        <ele>566.2</ele>
        <time>2022-06-06T13:42:39Z</time>
      </trkpt>
      <trkpt lat="46.13692" lon="5.52513">
        <ele>566.4</ele>
        <time>2022-06-06T13:42:41Z</time>
      </trkpt>
      <trkpt lat="46.13687" lon="5.52494">
        <ele>567</ele>
        <time>2022-06-06T13:42:44Z</time>
      </trkpt>
      <trkpt lat="46.13686" lon="5.52487">
        <ele>567.2</ele>
        <time>2022-06-06T13:42:45Z</time>
      </trkpt>
      <trkpt lat="46.13686" lon="5.5248">
        <ele>567.4</ele>
        <time>2022-06-06T13:42:46Z</time>
      </trkpt>
      <trkpt lat="46.13687" lon="5.52466">
        <ele>567.6</ele>
        <time>2022-06-06T13:42:48Z</time>
      </trkpt>
      <trkpt lat="46.13689" lon="5.52459">
        <ele>567.8</ele>
        <time>2022-06-06T13:42:49Z</time>
      </trkpt>
      <trkpt lat="46.13692" lon="5.52453">
        <ele>568.2</ele>
        <time>2022-06-06T13:42:50Z</time>
      </trkpt>
      <trkpt lat="46.13703" lon="5.52429">
        <ele>569</ele>
        <time>2022-06-06T13:42:54Z</time>
      </trkpt>
      <trkpt lat="46.13707" lon="5.52424">
        <ele>569.4</ele>
        <time>2022-06-06T13:42:55Z</time>
      </trkpt>
      <trkpt lat="46.13721" lon="5.52406">
        <ele>570.4</ele>
        <time>2022-06-06T13:42:59Z</time>
      </trkpt>
      <trkpt lat="46.13729" lon="5.52399">
        <ele>570.8</ele>
        <time>2022-06-06T13:43:01Z</time>
      </trkpt>
      <trkpt lat="46.13746" lon="5.52388">
        <ele>571.6</ele>
        <time>2022-06-06T13:43:05Z</time>
      </trkpt>
      <trkpt lat="46.13762" lon="5.5238">
        <ele>572.6</ele>
        <time>2022-06-06T13:43:09Z</time>
      </trkpt>
      <trkpt lat="46.1378" lon="5.52373">
        <ele>573.8</ele>
        <time>2022-06-06T13:43:13Z</time>
      </trkpt>
      <trkpt lat="46.13793" lon="5.5237">
        <ele>574.6</ele>
        <time>2022-06-06T13:43:16Z</time>
      </trkpt>
      <trkpt lat="46.13797" lon="5.52369">
        <ele>574.8</ele>
        <time>2022-06-06T13:43:17Z</time>
      </trkpt>
      <trkpt lat="46.13808" lon="5.52367">
        <ele>575.6</ele>
        <time>2022-06-06T13:43:20Z</time>
      </trkpt>
      <trkpt lat="46.13812" lon="5.52367">
        <ele>576</ele>
        <time>2022-06-06T13:43:21Z</time>
      </trkpt>
      <trkpt lat="46.13824" lon="5.52366">
        <ele>576.6</ele>
        <time>2022-06-06T13:43:24Z</time>
      </trkpt>
      <trkpt lat="46.13828" lon="5.52366">
        <ele>577.2</ele>
        <time>2022-06-06T13:43:25Z</time>
      </trkpt>
      <trkpt lat="46.13838" lon="5.52366">
        <ele>578.4</ele>
        <time>2022-06-06T13:43:28Z</time>
      </trkpt>
      <trkpt lat="46.13842" lon="5.52366">
        <ele>578.6</ele>
        <time>2022-06-06T13:43:29Z</time>
      </trkpt>
      <trkpt lat="46.13851" lon="5.52369">
        <ele>579.8</ele>
        <time>2022-06-06T13:43:32Z</time>
      </trkpt>
      <trkpt lat="46.13861" lon="5.52373">
        <ele>580.4</ele>
        <time>2022-06-06T13:43:35Z</time>
      </trkpt>
      <trkpt lat="46.13864" lon="5.52374">
        <ele>580.8</ele>
        <time>2022-06-06T13:43:36Z</time>
      </trkpt>
      <trkpt lat="46.13876" lon="5.52378">
        <ele>581.8</ele>
        <time>2022-06-06T13:43:40Z</time>
      </trkpt>
      <trkpt lat="46.13886" lon="5.52386">
        <ele>583</ele>
        <time>2022-06-06T13:43:44Z</time>
      </trkpt>
      <trkpt lat="46.1389" lon="5.52389">
        <ele>583.6</ele>
        <time>2022-06-06T13:43:46Z</time>
      </trkpt>
      <trkpt lat="46.13896" lon="5.52393">
        <ele>584.2</ele>
        <time>2022-06-06T13:43:48Z</time>
      </trkpt>
      <trkpt lat="46.13907" lon="5.52401">
        <ele>585</ele>
        <time>2022-06-06T13:43:52Z</time>
      </trkpt>
      <trkpt lat="46.13913" lon="5.52405">
        <ele>585.4</ele>
        <time>2022-06-06T13:43:54Z</time>
      </trkpt>
      <trkpt lat="46.1393" lon="5.52414">
        <ele>586</ele>
        <time>2022-06-06T13:43:59Z</time>
      </trkpt>
      <trkpt lat="46.13935" lon="5.52415">
        <ele>586.4</ele>
        <time>2022-06-06T13:44:00Z</time>
      </trkpt>
      <trkpt lat="46.13952" lon="5.52421">
        <ele>586.8</ele>
        <time>2022-06-06T13:44:04Z</time>
      </trkpt>
      <trkpt lat="46.13956" lon="5.52423">
        <ele>587</ele>
        <time>2022-06-06T13:44:05Z</time>
      </trkpt>
      <trkpt lat="46.13968" lon="5.52427">
        <ele>587.4</ele>
        <time>2022-06-06T13:44:08Z</time>
      </trkpt>
      <trkpt lat="46.13982" lon="5.52437">
        <ele>588.4</ele>
        <time>2022-06-06T13:44:11Z</time>
      </trkpt>
      <trkpt lat="46.13991" lon="5.52441">
        <ele>588.8</ele>
        <time>2022-06-06T13:44:13Z</time>
      </trkpt>
      <trkpt lat="46.14011" lon="5.52449">
        <ele>589.6</ele>
        <time>2022-06-06T13:44:17Z</time>
      </trkpt>
      <trkpt lat="46.14015" lon="5.52451">
        <ele>590.2</ele>
        <time>2022-06-06T13:44:18Z</time>
      </trkpt>
      <trkpt lat="46.1403" lon="5.52457">
        <ele>590.8</ele>
        <time>2022-06-06T13:44:21Z</time>
      </trkpt>
      <trkpt lat="46.14044" lon="5.52462">
        <ele>591</ele>
        <time>2022-06-06T13:44:24Z</time>
      </trkpt>
      <trkpt lat="46.14057" lon="5.5247">
        <ele>591.8</ele>
        <time>2022-06-06T13:44:28Z</time>
      </trkpt>
      <trkpt lat="46.14073" lon="5.5248">
        <ele>593.4</ele>
        <time>2022-06-06T13:44:33Z</time>
      </trkpt>
      <trkpt lat="46.14094" lon="5.52493">
        <ele>594.6</ele>
        <time>2022-06-06T13:44:39Z</time>
      </trkpt>
      <trkpt lat="46.14099" lon="5.52497">
        <ele>595</ele>
        <time>2022-06-06T13:44:41Z</time>
      </trkpt>
      <trkpt lat="46.14112" lon="5.52506">
        <ele>595.6</ele>
        <time>2022-06-06T13:44:45Z</time>
      </trkpt>
      <trkpt lat="46.14125" lon="5.52516">
        <ele>596.8</ele>
        <time>2022-06-06T13:44:49Z</time>
      </trkpt>
      <trkpt lat="46.14128" lon="5.52518">
        <ele>596.8</ele>
        <time>2022-06-06T13:44:50Z</time>
      </trkpt>
      <trkpt lat="46.14141" lon="5.52528">
        <ele>597.8</ele>
        <time>2022-06-06T13:44:54Z</time>
      </trkpt>
      <trkpt lat="46.14152" lon="5.52538">
        <ele>598.8</ele>
        <time>2022-06-06T13:44:58Z</time>
      </trkpt>
      <trkpt lat="46.14155" lon="5.52542">
        <ele>599</ele>
        <time>2022-06-06T13:44:59Z</time>
      </trkpt>
      <trkpt lat="46.14165" lon="5.52556">
        <ele>600</ele>
        <time>2022-06-06T13:45:03Z</time>
      </trkpt>
      <trkpt lat="46.14173" lon="5.52568">
        <ele>600.6</ele>
        <time>2022-06-06T13:45:06Z</time>
      </trkpt>
      <trkpt lat="46.14181" lon="5.52585">
        <ele>601.2</ele>
        <time>2022-06-06T13:45:10Z</time>
      </trkpt>
      <trkpt lat="46.14191" lon="5.52606">
        <ele>602</ele>
        <time>2022-06-06T13:45:15Z</time>
      </trkpt>
      <trkpt lat="46.14193" lon="5.52609">
        <ele>602.2</ele>
        <time>2022-06-06T13:45:16Z</time>
      </trkpt>
      <trkpt lat="46.142" lon="5.5262">
        <ele>603.4</ele>
        <time>2022-06-06T13:45:19Z</time>
      </trkpt>
      <trkpt lat="46.1421" lon="5.52635">
        <ele>604.4</ele>
        <time>2022-06-06T13:45:23Z</time>
      </trkpt>
      <trkpt lat="46.1422" lon="5.52648">
        <ele>605.4</ele>
        <time>2022-06-06T13:45:27Z</time>
      </trkpt>
      <trkpt lat="46.14229" lon="5.52658">
        <ele>605.6</ele>
        <time>2022-06-06T13:45:30Z</time>
      </trkpt>
      <trkpt lat="46.14238" lon="5.52667">
        <ele>606.8</ele>
        <time>2022-06-06T13:45:33Z</time>
      </trkpt>
      <trkpt lat="46.14248" lon="5.52678">
        <ele>608.2</ele>
        <time>2022-06-06T13:45:37Z</time>
      </trkpt>
      <trkpt lat="46.1426" lon="5.52687">
        <ele>609</ele>
        <time>2022-06-06T13:45:42Z</time>
      </trkpt>
      <trkpt lat="46.14263" lon="5.52689">
        <ele>609.2</ele>
        <time>2022-06-06T13:45:43Z</time>
      </trkpt>
      <trkpt lat="46.14272" lon="5.52693">
        <ele>610</ele>
        <time>2022-06-06T13:45:47Z</time>
      </trkpt>
      <trkpt lat="46.14275" lon="5.52693">
        <ele>610.2</ele>
        <time>2022-06-06T13:45:48Z</time>
      </trkpt>
      <trkpt lat="46.14283" lon="5.52697">
        <ele>611.4</ele>
        <time>2022-06-06T13:45:51Z</time>
      </trkpt>
      <trkpt lat="46.14288" lon="5.52699">
        <ele>611.8</ele>
        <time>2022-06-06T13:45:53Z</time>
      </trkpt>
      <trkpt lat="46.14302" lon="5.52702">
        <ele>612.6</ele>
        <time>2022-06-06T13:45:59Z</time>
      </trkpt>
      <trkpt lat="46.1433" lon="5.527">
        <ele>613.6</ele>
        <time>2022-06-06T13:46:05Z</time>
      </trkpt>
      <trkpt lat="46.14344" lon="5.52699">
        <ele>614.4</ele>
        <time>2022-06-06T13:46:08Z</time>
      </trkpt>
      <trkpt lat="46.14355" lon="5.52699">
        <ele>615</ele>
        <time>2022-06-06T13:46:10Z</time>
      </trkpt>
      <trkpt lat="46.14386" lon="5.52704">
        <ele>615.8</ele>
        <time>2022-06-06T13:46:15Z</time>
      </trkpt>
      <trkpt lat="46.14416" lon="5.52707">
        <ele>616.2</ele>
        <time>2022-06-06T13:46:19Z</time>
      </trkpt>
      <trkpt lat="46.14423" lon="5.5271">
        <ele>616.6</ele>
        <time>2022-06-06T13:46:21Z</time>
      </trkpt>
      <trkpt lat="46.14431" lon="5.52712">
        <ele>616.8</ele>
        <time>2022-06-06T13:46:23Z</time>
      </trkpt>
      <trkpt lat="46.14449" lon="5.52713">
        <ele>617.2</ele>
        <time>2022-06-06T13:46:26Z</time>
      </trkpt>
      <trkpt lat="46.14457" lon="5.52713">
        <ele>617.6</ele>
        <time>2022-06-06T13:46:28Z</time>
      </trkpt>
      <trkpt lat="46.14468" lon="5.52714">
        <ele>618.4</ele>
        <time>2022-06-06T13:46:31Z</time>
      </trkpt>
      <trkpt lat="46.14475" lon="5.52713">
        <ele>619</ele>
        <time>2022-06-06T13:46:33Z</time>
      </trkpt>
      <trkpt lat="46.14487" lon="5.52709">
        <ele>619.6</ele>
        <time>2022-06-06T13:46:35Z</time>
      </trkpt>
      <trkpt lat="46.145" lon="5.52704">
        <ele>619.8</ele>
        <time>2022-06-06T13:46:37Z</time>
      </trkpt>
      <trkpt lat="46.14516" lon="5.52697">
        <ele>620.4</ele>
        <time>2022-06-06T13:46:42Z</time>
      </trkpt>
      <trkpt lat="46.14526" lon="5.52688">
        <ele>621.6</ele>
        <time>2022-06-06T13:46:46Z</time>
      </trkpt>
      <trkpt lat="46.14533" lon="5.52681">
        <ele>622.6</ele>
        <time>2022-06-06T13:46:49Z</time>
      </trkpt>
      <trkpt lat="46.14535" lon="5.52678">
        <ele>623.2</ele>
        <time>2022-06-06T13:46:50Z</time>
      </trkpt>
      <trkpt lat="46.14538" lon="5.52674">
        <ele>623.6</ele>
        <time>2022-06-06T13:46:52Z</time>
      </trkpt>
      <trkpt lat="46.14544" lon="5.52666">
        <ele>624.6</ele>
        <time>2022-06-06T13:46:55Z</time>
      </trkpt>
      <trkpt lat="46.14547" lon="5.52664">
        <ele>624.8</ele>
        <time>2022-06-06T13:46:56Z</time>
      </trkpt>
      <trkpt lat="46.14549" lon="5.52662">
        <ele>625.4</ele>
        <time>2022-06-06T13:46:57Z</time>
      </trkpt>
      <trkpt lat="46.14553" lon="5.52659">
        <ele>626</ele>
        <time>2022-06-06T13:46:59Z</time>
      </trkpt>
      <trkpt lat="46.14555" lon="5.52657">
        <ele>626.2</ele>
        <time>2022-06-06T13:47:00Z</time>
      </trkpt>
      <trkpt lat="46.14566" lon="5.52648">
        <ele>627.2</ele>
        <time>2022-06-06T13:47:03Z</time>
      </trkpt>
      <trkpt lat="46.14577" lon="5.52645">
        <ele>628.2</ele>
        <time>2022-06-06T13:47:06Z</time>
      </trkpt>
      <trkpt lat="46.14593" lon="5.52643">
        <ele>629</ele>
        <time>2022-06-06T13:47:10Z</time>
      </trkpt>
      <trkpt lat="46.14597" lon="5.5264">
        <ele>629.4</ele>
        <time>2022-06-06T13:47:11Z</time>
      </trkpt>
      <trkpt lat="46.14603" lon="5.5264">
        <ele>629.6</ele>
        <time>2022-06-06T13:47:13Z</time>
      </trkpt>
      <trkpt lat="46.14616" lon="5.5264">
        <ele>630.2</ele>
        <time>2022-06-06T13:47:17Z</time>
      </trkpt>
      <trkpt lat="46.14619" lon="5.5264">
        <ele>630.6</ele>
        <time>2022-06-06T13:47:18Z</time>
      </trkpt>
      <trkpt lat="46.14632" lon="5.52637">
        <ele>631.6</ele>
        <time>2022-06-06T13:47:22Z</time>
      </trkpt>
      <trkpt lat="46.14637" lon="5.52637">
        <ele>632</ele>
        <time>2022-06-06T13:47:24Z</time>
      </trkpt>
      <trkpt lat="46.14642" lon="5.52635">
        <ele>632.4</ele>
        <time>2022-06-06T13:47:26Z</time>
      </trkpt>
      <trkpt lat="46.14644" lon="5.52633">
        <ele>632.6</ele>
        <time>2022-06-06T13:47:27Z</time>
      </trkpt>
      <trkpt lat="46.14648" lon="5.52631">
        <ele>632.8</ele>
        <time>2022-06-06T13:47:28Z</time>
      </trkpt>
      <trkpt lat="46.14652" lon="5.5263">
        <ele>633.2</ele>
        <time>2022-06-06T13:47:29Z</time>
      </trkpt>
      <trkpt lat="46.14664" lon="5.52621">
        <ele>634</ele>
        <time>2022-06-06T13:47:32Z</time>
      </trkpt>
      <trkpt lat="46.14665" lon="5.52618">
        <ele>634.6</ele>
        <time>2022-06-06T13:47:34Z</time>
      </trkpt>
      <trkpt lat="46.14669" lon="5.52615">
        <ele>634.6</ele>
        <time>2022-06-06T13:47:35Z</time>
      </trkpt>
      <trkpt lat="46.14669" lon="5.52613">
        <ele>635.2</ele>
        <time>2022-06-06T13:47:36Z</time>
      </trkpt>
      <trkpt lat="46.14679" lon="5.52601">
        <ele>636.4</ele>
        <time>2022-06-06T13:47:41Z</time>
      </trkpt>
      <trkpt lat="46.14701" lon="5.52578">
        <ele>637.6</ele>
        <time>2022-06-06T13:47:47Z</time>
      </trkpt>
      <trkpt lat="46.14704" lon="5.52575">
        <ele>638</ele>
        <time>2022-06-06T13:47:48Z</time>
      </trkpt>
      <trkpt lat="46.14714" lon="5.52567">
        <ele>638.8</ele>
        <time>2022-06-06T13:47:51Z</time>
      </trkpt>
      <trkpt lat="46.14724" lon="5.52557">
        <ele>639.4</ele>
        <time>2022-06-06T13:47:54Z</time>
      </trkpt>
      <trkpt lat="46.14728" lon="5.52552">
        <ele>640</ele>
        <time>2022-06-06T13:47:56Z</time>
      </trkpt>
      <trkpt lat="46.14734" lon="5.52546">
        <ele>640.4</ele>
        <time>2022-06-06T13:47:58Z</time>
      </trkpt>
      <trkpt lat="46.14737" lon="5.52543">
        <ele>640.8</ele>
        <time>2022-06-06T13:47:59Z</time>
      </trkpt>
      <trkpt lat="46.14745" lon="5.52538">
        <ele>641</ele>
        <time>2022-06-06T13:48:01Z</time>
      </trkpt>
      <trkpt lat="46.14752" lon="5.52536">
        <ele>641.6</ele>
        <time>2022-06-06T13:48:03Z</time>
      </trkpt>
      <trkpt lat="46.14765" lon="5.52534">
        <ele>642.2</ele>
        <time>2022-06-06T13:48:06Z</time>
      </trkpt>
      <trkpt lat="46.14765" lon="5.52533">
        <ele>642.4</ele>
        <time>2022-06-06T13:48:08Z</time>
      </trkpt>
      <trkpt lat="46.14773" lon="5.52527">
        <ele>643.4</ele>
        <time>2022-06-06T13:48:11Z</time>
      </trkpt>
      <trkpt lat="46.14778" lon="5.52519">
        <ele>644.2</ele>
        <time>2022-06-06T13:48:13Z</time>
      </trkpt>
      <trkpt lat="46.14783" lon="5.5251">
        <ele>644.4</ele>
        <time>2022-06-06T13:48:15Z</time>
      </trkpt>
      <trkpt lat="46.14787" lon="5.525">
        <ele>644.8</ele>
        <time>2022-06-06T13:48:17Z</time>
      </trkpt>
      <trkpt lat="46.14787" lon="5.52496">
        <ele>644.8</ele>
        <time>2022-06-06T13:48:18Z</time>
      </trkpt>
      <trkpt lat="46.14788" lon="5.52485">
        <ele>645.4</ele>
        <time>2022-06-06T13:48:21Z</time>
      </trkpt>
      <trkpt lat="46.14789" lon="5.52481">
        <ele>645.4</ele>
        <time>2022-06-06T13:48:22Z</time>
      </trkpt>
      <trkpt lat="46.14789" lon="5.52477">
        <ele>645.8</ele>
        <time>2022-06-06T13:48:23Z</time>
      </trkpt>
      <trkpt lat="46.14787" lon="5.52462">
        <ele>647.2</ele>
        <time>2022-06-06T13:48:27Z</time>
      </trkpt>
      <trkpt lat="46.14788" lon="5.52447">
        <ele>648.2</ele>
        <time>2022-06-06T13:48:31Z</time>
      </trkpt>
      <trkpt lat="46.14789" lon="5.52441">
        <ele>648.8</ele>
        <time>2022-06-06T13:48:32Z</time>
      </trkpt>
      <trkpt lat="46.14794" lon="5.52419">
        <ele>650</ele>
        <time>2022-06-06T13:48:37Z</time>
      </trkpt>
      <trkpt lat="46.14794" lon="5.52405">
        <ele>651</ele>
        <time>2022-06-06T13:48:40Z</time>
      </trkpt>
      <trkpt lat="46.14796" lon="5.5239">
        <ele>651.6</ele>
        <time>2022-06-06T13:48:43Z</time>
      </trkpt>
      <trkpt lat="46.14797" lon="5.52374">
        <ele>652</ele>
        <time>2022-06-06T13:48:46Z</time>
      </trkpt>
      <trkpt lat="46.14799" lon="5.52352">
        <ele>652.6</ele>
        <time>2022-06-06T13:48:50Z</time>
      </trkpt>
      <trkpt lat="46.14802" lon="5.5234">
        <ele>652.8</ele>
        <time>2022-06-06T13:48:52Z</time>
      </trkpt>
      <trkpt lat="46.14808" lon="5.52328">
        <ele>652.8</ele>
        <time>2022-06-06T13:48:54Z</time>
      </trkpt>
      <trkpt lat="46.14811" lon="5.52322">
        <ele>652.8</ele>
        <time>2022-06-06T13:48:55Z</time>
      </trkpt>
      <trkpt lat="46.14833" lon="5.52286">
        <ele>651.2</ele>
        <time>2022-06-06T13:49:00Z</time>
      </trkpt>
      <trkpt lat="46.14843" lon="5.52268">
        <ele>650.4</ele>
        <time>2022-06-06T13:49:02Z</time>
      </trkpt>
      <trkpt lat="46.14848" lon="5.52259">
        <ele>650</ele>
        <time>2022-06-06T13:49:03Z</time>
      </trkpt>
      <trkpt lat="46.14851" lon="5.52249">
        <ele>648.6</ele>
        <time>2022-06-06T13:49:04Z</time>
      </trkpt>
      <trkpt lat="46.14854" lon="5.52237">
        <ele>647.4</ele>
        <time>2022-06-06T13:49:05Z</time>
      </trkpt>
      <trkpt lat="46.14857" lon="5.52225">
        <ele>647</ele>
        <time>2022-06-06T13:49:06Z</time>
      </trkpt>
      <trkpt lat="46.14859" lon="5.52212">
        <ele>646.2</ele>
        <time>2022-06-06T13:49:07Z</time>
      </trkpt>
      <trkpt lat="46.14864" lon="5.52186">
        <ele>645.2</ele>
        <time>2022-06-06T13:49:09Z</time>
      </trkpt>
      <trkpt lat="46.14866" lon="5.52173">
        <ele>645</ele>
        <time>2022-06-06T13:49:10Z</time>
      </trkpt>
      <trkpt lat="46.14871" lon="5.52145">
        <ele>643.4</ele>
        <time>2022-06-06T13:49:12Z</time>
      </trkpt>
      <trkpt lat="46.14875" lon="5.52116">
        <ele>641.6</ele>
        <time>2022-06-06T13:49:14Z</time>
      </trkpt>
      <trkpt lat="46.14877" lon="5.52101">
        <ele>641.2</ele>
        <time>2022-06-06T13:49:15Z</time>
      </trkpt>
      <trkpt lat="46.14879" lon="5.52087">
        <ele>640.6</ele>
        <time>2022-06-06T13:49:16Z</time>
      </trkpt>
      <trkpt lat="46.14885" lon="5.52043">
        <ele>638.8</ele>
        <time>2022-06-06T13:49:19Z</time>
      </trkpt>
      <trkpt lat="46.1489" lon="5.51999">
        <ele>637.6</ele>
        <time>2022-06-06T13:49:22Z</time>
      </trkpt>
      <trkpt lat="46.14898" lon="5.51946">
        <ele>636.6</ele>
        <time>2022-06-06T13:49:26Z</time>
      </trkpt>
      <trkpt lat="46.149" lon="5.51935">
        <ele>636.6</ele>
        <time>2022-06-06T13:49:27Z</time>
      </trkpt>
      <trkpt lat="46.14902" lon="5.51923">
        <ele>636.4</ele>
        <time>2022-06-06T13:49:28Z</time>
      </trkpt>
      <trkpt lat="46.14905" lon="5.51886">
        <ele>635.6</ele>
        <time>2022-06-06T13:49:31Z</time>
      </trkpt>
      <trkpt lat="46.14907" lon="5.51873">
        <ele>635.6</ele>
        <time>2022-06-06T13:49:32Z</time>
      </trkpt>
      <trkpt lat="46.1491" lon="5.51859">
        <ele>635.4</ele>
        <time>2022-06-06T13:49:33Z</time>
      </trkpt>
      <trkpt lat="46.14916" lon="5.51843">
        <ele>635.2</ele>
        <time>2022-06-06T13:49:34Z</time>
      </trkpt>
      <trkpt lat="46.1493" lon="5.51807">
        <ele>633.6</ele>
        <time>2022-06-06T13:49:37Z</time>
      </trkpt>
      <trkpt lat="46.14939" lon="5.51775">
        <ele>632.8</ele>
        <time>2022-06-06T13:49:39Z</time>
      </trkpt>
      <trkpt lat="46.14942" lon="5.5176">
        <ele>632.2</ele>
        <time>2022-06-06T13:49:40Z</time>
      </trkpt>
      <trkpt lat="46.14948" lon="5.51733">
        <ele>630.8</ele>
        <time>2022-06-06T13:49:42Z</time>
      </trkpt>
      <trkpt lat="46.14954" lon="5.51709">
        <ele>629.4</ele>
        <time>2022-06-06T13:49:44Z</time>
      </trkpt>
      <trkpt lat="46.14969" lon="5.51661">
        <ele>628.8</ele>
        <time>2022-06-06T13:49:49Z</time>
      </trkpt>
      <trkpt lat="46.1497" lon="5.51654">
        <ele>628.8</ele>
        <time>2022-06-06T13:49:50Z</time>
      </trkpt>
      <trkpt lat="46.14971" lon="5.51639">
        <ele>629</ele>
        <time>2022-06-06T13:49:52Z</time>
      </trkpt>
      <trkpt lat="46.14972" lon="5.51618">
        <ele>630.6</ele>
        <time>2022-06-06T13:49:55Z</time>
      </trkpt>
      <trkpt lat="46.14972" lon="5.51601">
        <ele>631</ele>
        <time>2022-06-06T13:49:57Z</time>
      </trkpt>
      <trkpt lat="46.14971" lon="5.51546">
        <ele>631.4</ele>
        <time>2022-06-06T13:50:02Z</time>
      </trkpt>
      <trkpt lat="46.14969" lon="5.51527">
        <ele>631.2</ele>
        <time>2022-06-06T13:50:04Z</time>
      </trkpt>
      <trkpt lat="46.14967" lon="5.51494">
        <ele>630.6</ele>
        <time>2022-06-06T13:50:07Z</time>
      </trkpt>
      <trkpt lat="46.14964" lon="5.51463">
        <ele>629.4</ele>
        <time>2022-06-06T13:50:10Z</time>
      </trkpt>
      <trkpt lat="46.14963" lon="5.51443">
        <ele>628.2</ele>
        <time>2022-06-06T13:50:12Z</time>
      </trkpt>
      <trkpt lat="46.1496" lon="5.51432">
        <ele>627.8</ele>
        <time>2022-06-06T13:50:13Z</time>
      </trkpt>
      <trkpt lat="46.14955" lon="5.51414">
        <ele>627.2</ele>
        <time>2022-06-06T13:50:14Z</time>
      </trkpt>
      <trkpt lat="46.14952" lon="5.51398">
        <ele>626.8</ele>
        <time>2022-06-06T13:50:15Z</time>
      </trkpt>
      <trkpt lat="46.1495" lon="5.51382">
        <ele>626.2</ele>
        <time>2022-06-06T13:50:16Z</time>
      </trkpt>
      <trkpt lat="46.14952" lon="5.51349">
        <ele>625</ele>
        <time>2022-06-06T13:50:18Z</time>
      </trkpt>
      <trkpt lat="46.14965" lon="5.51322">
        <ele>623.6</ele>
        <time>2022-06-06T13:50:20Z</time>
      </trkpt>
      <trkpt lat="46.14974" lon="5.51314">
        <ele>622.2</ele>
        <time>2022-06-06T13:50:21Z</time>
      </trkpt>
      <trkpt lat="46.14992" lon="5.51298">
        <ele>620.2</ele>
        <time>2022-06-06T13:50:23Z</time>
      </trkpt>
      <trkpt lat="46.15009" lon="5.51284">
        <ele>619.4</ele>
        <time>2022-06-06T13:50:25Z</time>
      </trkpt>
      <trkpt lat="46.15021" lon="5.51271">
        <ele>619.2</ele>
        <time>2022-06-06T13:50:27Z</time>
      </trkpt>
      <trkpt lat="46.15043" lon="5.51252">
        <ele>619.4</ele>
        <time>2022-06-06T13:50:30Z</time>
      </trkpt>
      <trkpt lat="46.15055" lon="5.51241">
        <ele>620.4</ele>
        <time>2022-06-06T13:50:32Z</time>
      </trkpt>
      <trkpt lat="46.15065" lon="5.51231">
        <ele>621.2</ele>
        <time>2022-06-06T13:50:34Z</time>
      </trkpt>
      <trkpt lat="46.15069" lon="5.51226">
        <ele>622</ele>
        <time>2022-06-06T13:50:35Z</time>
      </trkpt>
      <trkpt lat="46.15079" lon="5.51217">
        <ele>623.2</ele>
        <time>2022-06-06T13:50:37Z</time>
      </trkpt>
      <trkpt lat="46.1509" lon="5.51208">
        <ele>624.2</ele>
        <time>2022-06-06T13:50:39Z</time>
      </trkpt>
      <trkpt lat="46.15095" lon="5.51205">
        <ele>624.8</ele>
        <time>2022-06-06T13:50:40Z</time>
      </trkpt>
      <trkpt lat="46.151" lon="5.51202">
        <ele>624.8</ele>
        <time>2022-06-06T13:50:41Z</time>
      </trkpt>
      <trkpt lat="46.15106" lon="5.51199">
        <ele>625.4</ele>
        <time>2022-06-06T13:50:42Z</time>
      </trkpt>
      <trkpt lat="46.15122" lon="5.5119">
        <ele>626.4</ele>
        <time>2022-06-06T13:50:45Z</time>
      </trkpt>
      <trkpt lat="46.15137" lon="5.51182">
        <ele>627.4</ele>
        <time>2022-06-06T13:50:48Z</time>
      </trkpt>
      <trkpt lat="46.15141" lon="5.51179">
        <ele>628.2</ele>
        <time>2022-06-06T13:50:49Z</time>
      </trkpt>
      <trkpt lat="46.15154" lon="5.5117">
        <ele>629.2</ele>
        <time>2022-06-06T13:50:52Z</time>
      </trkpt>
      <trkpt lat="46.15158" lon="5.51167">
        <ele>629.2</ele>
        <time>2022-06-06T13:50:53Z</time>
      </trkpt>
      <trkpt lat="46.15162" lon="5.51164">
        <ele>629.6</ele>
        <time>2022-06-06T13:50:54Z</time>
      </trkpt>
      <trkpt lat="46.15176" lon="5.5115">
        <ele>630.8</ele>
        <time>2022-06-06T13:50:58Z</time>
      </trkpt>
      <trkpt lat="46.15179" lon="5.51146">
        <ele>631</ele>
        <time>2022-06-06T13:50:59Z</time>
      </trkpt>
      <trkpt lat="46.15183" lon="5.51134">
        <ele>631.8</ele>
        <time>2022-06-06T13:51:02Z</time>
      </trkpt>
      <trkpt lat="46.15185" lon="5.51125">
        <ele>632.4</ele>
        <time>2022-06-06T13:51:04Z</time>
      </trkpt>
      <trkpt lat="46.15195" lon="5.51112">
        <ele>632.6</ele>
        <time>2022-06-06T13:51:08Z</time>
      </trkpt>
      <trkpt lat="46.15213" lon="5.51108">
        <ele>632.6</ele>
        <time>2022-06-06T13:51:11Z</time>
      </trkpt>
      <trkpt lat="46.15245" lon="5.51106">
        <ele>630.8</ele>
        <time>2022-06-06T13:51:16Z</time>
      </trkpt>
      <trkpt lat="46.15254" lon="5.51104">
        <ele>630.4</ele>
        <time>2022-06-06T13:51:17Z</time>
      </trkpt>
      <trkpt lat="46.15279" lon="5.51101">
        <ele>629.6</ele>
        <time>2022-06-06T13:51:20Z</time>
      </trkpt>
      <trkpt lat="46.15305" lon="5.51096">
        <ele>628.6</ele>
        <time>2022-06-06T13:51:23Z</time>
      </trkpt>
      <trkpt lat="46.15314" lon="5.51095">
        <ele>627.8</ele>
        <time>2022-06-06T13:51:24Z</time>
      </trkpt>
      <trkpt lat="46.15333" lon="5.51092">
        <ele>626.6</ele>
        <time>2022-06-06T13:51:26Z</time>
      </trkpt>
      <trkpt lat="46.15351" lon="5.51089">
        <ele>625.6</ele>
        <time>2022-06-06T13:51:28Z</time>
      </trkpt>
      <trkpt lat="46.15359" lon="5.51086">
        <ele>624.8</ele>
        <time>2022-06-06T13:51:29Z</time>
      </trkpt>
      <trkpt lat="46.15367" lon="5.51081">
        <ele>624.6</ele>
        <time>2022-06-06T13:51:30Z</time>
      </trkpt>
      <trkpt lat="46.15373" lon="5.51073">
        <ele>624.4</ele>
        <time>2022-06-06T13:51:31Z</time>
      </trkpt>
      <trkpt lat="46.15378" lon="5.51065">
        <ele>624.2</ele>
        <time>2022-06-06T13:51:32Z</time>
      </trkpt>
      <trkpt lat="46.15387" lon="5.51037">
        <ele>624</ele>
        <time>2022-06-06T13:51:35Z</time>
      </trkpt>
      <trkpt lat="46.15391" lon="5.51031">
        <ele>624</ele>
        <time>2022-06-06T13:51:36Z</time>
      </trkpt>
      <trkpt lat="46.15396" lon="5.51027">
        <ele>624</ele>
        <time>2022-06-06T13:51:37Z</time>
      </trkpt>
      <trkpt lat="46.15407" lon="5.51025">
        <ele>624</ele>
        <time>2022-06-06T13:51:39Z</time>
      </trkpt>
      <trkpt lat="46.15416" lon="5.51028">
        <ele>624.2</ele>
        <time>2022-06-06T13:51:41Z</time>
      </trkpt>
      <trkpt lat="46.15423" lon="5.51032">
        <ele>624.8</ele>
        <time>2022-06-06T13:51:43Z</time>
      </trkpt>
      <trkpt lat="46.15433" lon="5.51035">
        <ele>625.4</ele>
        <time>2022-06-06T13:51:45Z</time>
      </trkpt>
      <trkpt lat="46.15437" lon="5.51037">
        <ele>625.6</ele>
        <time>2022-06-06T13:51:46Z</time>
      </trkpt>
      <trkpt lat="46.15441" lon="5.51038">
        <ele>626.2</ele>
        <time>2022-06-06T13:51:47Z</time>
      </trkpt>
      <trkpt lat="46.15451" lon="5.51041">
        <ele>626.6</ele>
        <time>2022-06-06T13:51:49Z</time>
      </trkpt>
      <trkpt lat="46.15469" lon="5.5105">
        <ele>628</ele>
        <time>2022-06-06T13:51:53Z</time>
      </trkpt>
      <trkpt lat="46.15479" lon="5.51052">
        <ele>628.6</ele>
        <time>2022-06-06T13:51:55Z</time>
      </trkpt>
      <trkpt lat="46.15485" lon="5.51051">
        <ele>629.2</ele>
        <time>2022-06-06T13:51:56Z</time>
      </trkpt>
      <trkpt lat="46.1549" lon="5.51049">
        <ele>629.4</ele>
        <time>2022-06-06T13:51:57Z</time>
      </trkpt>
      <trkpt lat="46.15495" lon="5.51047">
        <ele>629.4</ele>
        <time>2022-06-06T13:51:58Z</time>
      </trkpt>
      <trkpt lat="46.15508" lon="5.51036">
        <ele>630</ele>
        <time>2022-06-06T13:52:01Z</time>
      </trkpt>
      <trkpt lat="46.15538" lon="5.51005">
        <ele>630</ele>
        <time>2022-06-06T13:52:07Z</time>
      </trkpt>
      <trkpt lat="46.1557" lon="5.50979">
        <ele>629.4</ele>
        <time>2022-06-06T13:52:12Z</time>
      </trkpt>
      <trkpt lat="46.15583" lon="5.50973">
        <ele>629.2</ele>
        <time>2022-06-06T13:52:14Z</time>
      </trkpt>
      <trkpt lat="46.15599" lon="5.50971">
        <ele>629</ele>
        <time>2022-06-06T13:52:16Z</time>
      </trkpt>
      <trkpt lat="46.15617" lon="5.50977">
        <ele>628.8</ele>
        <time>2022-06-06T13:52:18Z</time>
      </trkpt>
      <trkpt lat="46.15625" lon="5.50981">
        <ele>628.6</ele>
        <time>2022-06-06T13:52:19Z</time>
      </trkpt>
      <trkpt lat="46.15635" lon="5.50988">
        <ele>628</ele>
        <time>2022-06-06T13:52:20Z</time>
      </trkpt>
      <trkpt lat="46.15659" lon="5.51006">
        <ele>627</ele>
        <time>2022-06-06T13:52:23Z</time>
      </trkpt>
      <trkpt lat="46.15669" lon="5.51015">
        <ele>626.4</ele>
        <time>2022-06-06T13:52:24Z</time>
      </trkpt>
      <trkpt lat="46.15676" lon="5.51021">
        <ele>625.6</ele>
        <time>2022-06-06T13:52:25Z</time>
      </trkpt>
      <trkpt lat="46.15693" lon="5.51039">
        <ele>624.4</ele>
        <time>2022-06-06T13:52:27Z</time>
      </trkpt>
      <trkpt lat="46.15711" lon="5.5106">
        <ele>624</ele>
        <time>2022-06-06T13:52:29Z</time>
      </trkpt>
      <trkpt lat="46.15726" lon="5.51078">
        <ele>623.2</ele>
        <time>2022-06-06T13:52:31Z</time>
      </trkpt>
      <trkpt lat="46.15735" lon="5.51088">
        <ele>622</ele>
        <time>2022-06-06T13:52:32Z</time>
      </trkpt>
      <trkpt lat="46.15752" lon="5.51109">
        <ele>620.6</ele>
        <time>2022-06-06T13:52:34Z</time>
      </trkpt>
      <trkpt lat="46.15771" lon="5.51132">
        <ele>619.4</ele>
        <time>2022-06-06T13:52:36Z</time>
      </trkpt>
      <trkpt lat="46.15779" lon="5.5114">
        <ele>619</ele>
        <time>2022-06-06T13:52:37Z</time>
      </trkpt>
      <trkpt lat="46.15791" lon="5.51151">
        <ele>618.6</ele>
        <time>2022-06-06T13:52:38Z</time>
      </trkpt>
      <trkpt lat="46.15801" lon="5.51156">
        <ele>617.6</ele>
        <time>2022-06-06T13:52:39Z</time>
      </trkpt>
      <trkpt lat="46.1581" lon="5.51159">
        <ele>617.2</ele>
        <time>2022-06-06T13:52:40Z</time>
      </trkpt>
      <trkpt lat="46.15822" lon="5.5116">
        <ele>616</ele>
        <time>2022-06-06T13:52:41Z</time>
      </trkpt>
      <trkpt lat="46.15845" lon="5.5116">
        <ele>614.8</ele>
        <time>2022-06-06T13:52:43Z</time>
      </trkpt>
      <trkpt lat="46.1586" lon="5.51162">
        <ele>614.2</ele>
        <time>2022-06-06T13:52:44Z</time>
      </trkpt>
      <trkpt lat="46.1587" lon="5.51165">
        <ele>613.4</ele>
        <time>2022-06-06T13:52:45Z</time>
      </trkpt>
      <trkpt lat="46.15897" lon="5.51173">
        <ele>612.2</ele>
        <time>2022-06-06T13:52:47Z</time>
      </trkpt>
      <trkpt lat="46.15907" lon="5.51177">
        <ele>610.8</ele>
        <time>2022-06-06T13:52:48Z</time>
      </trkpt>
      <trkpt lat="46.15921" lon="5.51183">
        <ele>610.4</ele>
        <time>2022-06-06T13:52:49Z</time>
      </trkpt>
      <trkpt lat="46.15933" lon="5.51189">
        <ele>609.8</ele>
        <time>2022-06-06T13:52:50Z</time>
      </trkpt>
      <trkpt lat="46.15955" lon="5.512">
        <ele>608.4</ele>
        <time>2022-06-06T13:52:52Z</time>
      </trkpt>
      <trkpt lat="46.15992" lon="5.51215">
        <ele>607.2</ele>
        <time>2022-06-06T13:52:55Z</time>
      </trkpt>
      <trkpt lat="46.16007" lon="5.5122">
        <ele>607</ele>
        <time>2022-06-06T13:52:56Z</time>
      </trkpt>
      <trkpt lat="46.16019" lon="5.51225">
        <ele>606.2</ele>
        <time>2022-06-06T13:52:57Z</time>
      </trkpt>
      <trkpt lat="46.16045" lon="5.51233">
        <ele>604.4</ele>
        <time>2022-06-06T13:52:59Z</time>
      </trkpt>
      <trkpt lat="46.16057" lon="5.51236">
        <ele>602.6</ele>
        <time>2022-06-06T13:53:00Z</time>
      </trkpt>
      <trkpt lat="46.16082" lon="5.5124">
        <ele>600.8</ele>
        <time>2022-06-06T13:53:02Z</time>
      </trkpt>
      <trkpt lat="46.16105" lon="5.51242">
        <ele>599.6</ele>
        <time>2022-06-06T13:53:04Z</time>
      </trkpt>
      <trkpt lat="46.16131" lon="5.51244">
        <ele>598</ele>
        <time>2022-06-06T13:53:06Z</time>
      </trkpt>
      <trkpt lat="46.16144" lon="5.51246">
        <ele>596.8</ele>
        <time>2022-06-06T13:53:07Z</time>
      </trkpt>
      <trkpt lat="46.16157" lon="5.51248">
        <ele>596.6</ele>
        <time>2022-06-06T13:53:08Z</time>
      </trkpt>
      <trkpt lat="46.16169" lon="5.51252">
        <ele>595.6</ele>
        <time>2022-06-06T13:53:09Z</time>
      </trkpt>
      <trkpt lat="46.16194" lon="5.51264">
        <ele>594</ele>
        <time>2022-06-06T13:53:11Z</time>
      </trkpt>
      <trkpt lat="46.16229" lon="5.51292">
        <ele>592.8</ele>
        <time>2022-06-06T13:53:14Z</time>
      </trkpt>
      <trkpt lat="46.1624" lon="5.51301">
        <ele>592</ele>
        <time>2022-06-06T13:53:15Z</time>
      </trkpt>
      <trkpt lat="46.16252" lon="5.5131">
        <ele>590.4</ele>
        <time>2022-06-06T13:53:16Z</time>
      </trkpt>
      <trkpt lat="46.16275" lon="5.51327">
        <ele>589</ele>
        <time>2022-06-06T13:53:18Z</time>
      </trkpt>
      <trkpt lat="46.16299" lon="5.51343">
        <ele>587.8</ele>
        <time>2022-06-06T13:53:20Z</time>
      </trkpt>
      <trkpt lat="46.16311" lon="5.5135">
        <ele>587.2</ele>
        <time>2022-06-06T13:53:21Z</time>
      </trkpt>
      <trkpt lat="46.16323" lon="5.51357">
        <ele>586.8</ele>
        <time>2022-06-06T13:53:22Z</time>
      </trkpt>
      <trkpt lat="46.16336" lon="5.51362">
        <ele>585.4</ele>
        <time>2022-06-06T13:53:23Z</time>
      </trkpt>
      <trkpt lat="46.1636" lon="5.51372">
        <ele>584.2</ele>
        <time>2022-06-06T13:53:25Z</time>
      </trkpt>
      <trkpt lat="46.16386" lon="5.51381">
        <ele>583.4</ele>
        <time>2022-06-06T13:53:27Z</time>
      </trkpt>
      <trkpt lat="46.16398" lon="5.51386">
        <ele>582.8</ele>
        <time>2022-06-06T13:53:28Z</time>
      </trkpt>
      <trkpt lat="46.16423" lon="5.51394">
        <ele>580.6</ele>
        <time>2022-06-06T13:53:30Z</time>
      </trkpt>
      <trkpt lat="46.16448" lon="5.51402">
        <ele>579.4</ele>
        <time>2022-06-06T13:53:32Z</time>
      </trkpt>
      <trkpt lat="46.1646" lon="5.51404">
        <ele>578.4</ele>
        <time>2022-06-06T13:53:33Z</time>
      </trkpt>
      <trkpt lat="46.16473" lon="5.51407">
        <ele>577.2</ele>
        <time>2022-06-06T13:53:34Z</time>
      </trkpt>
      <trkpt lat="46.16511" lon="5.51416">
        <ele>575.4</ele>
        <time>2022-06-06T13:53:37Z</time>
      </trkpt>
      <trkpt lat="46.16549" lon="5.51427">
        <ele>574</ele>
        <time>2022-06-06T13:53:40Z</time>
      </trkpt>
      <trkpt lat="46.16574" lon="5.51434">
        <ele>572.2</ele>
        <time>2022-06-06T13:53:42Z</time>
      </trkpt>
      <trkpt lat="46.16599" lon="5.51439">
        <ele>571</ele>
        <time>2022-06-06T13:53:44Z</time>
      </trkpt>
      <trkpt lat="46.16628" lon="5.51443">
        <ele>569.4</ele>
        <time>2022-06-06T13:53:46Z</time>
      </trkpt>
      <trkpt lat="46.16664" lon="5.51449">
        <ele>568</ele>
        <time>2022-06-06T13:53:49Z</time>
      </trkpt>
      <trkpt lat="46.16678" lon="5.51451">
        <ele>567.8</ele>
        <time>2022-06-06T13:53:50Z</time>
      </trkpt>
      <trkpt lat="46.16703" lon="5.51456">
        <ele>566.6</ele>
        <time>2022-06-06T13:53:52Z</time>
      </trkpt>
      <trkpt lat="46.16729" lon="5.51464">
        <ele>565.4</ele>
        <time>2022-06-06T13:53:54Z</time>
      </trkpt>
      <trkpt lat="46.16741" lon="5.51467">
        <ele>564.6</ele>
        <time>2022-06-06T13:53:55Z</time>
      </trkpt>
      <trkpt lat="46.16754" lon="5.51471">
        <ele>564</ele>
        <time>2022-06-06T13:53:56Z</time>
      </trkpt>
      <trkpt lat="46.1678" lon="5.51478">
        <ele>562.6</ele>
        <time>2022-06-06T13:53:58Z</time>
      </trkpt>
      <trkpt lat="46.16805" lon="5.51486">
        <ele>561</ele>
        <time>2022-06-06T13:54:00Z</time>
      </trkpt>
      <trkpt lat="46.16831" lon="5.51493">
        <ele>560.2</ele>
        <time>2022-06-06T13:54:02Z</time>
      </trkpt>
      <trkpt lat="46.16844" lon="5.51495">
        <ele>558.8</ele>
        <time>2022-06-06T13:54:03Z</time>
      </trkpt>
      <trkpt lat="46.16871" lon="5.51493">
        <ele>557.4</ele>
        <time>2022-06-06T13:54:05Z</time>
      </trkpt>
      <trkpt lat="46.1691" lon="5.51485">
        <ele>556.2</ele>
        <time>2022-06-06T13:54:08Z</time>
      </trkpt>
      <trkpt lat="46.16924" lon="5.51481">
        <ele>554.8</ele>
        <time>2022-06-06T13:54:09Z</time>
      </trkpt>
      <trkpt lat="46.16937" lon="5.51476">
        <ele>553</ele>
        <time>2022-06-06T13:54:10Z</time>
      </trkpt>
      <trkpt lat="46.16948" lon="5.51467">
        <ele>552.6</ele>
        <time>2022-06-06T13:54:11Z</time>
      </trkpt>
      <trkpt lat="46.16959" lon="5.51457">
        <ele>551.4</ele>
        <time>2022-06-06T13:54:12Z</time>
      </trkpt>
      <trkpt lat="46.16982" lon="5.51439">
        <ele>550.2</ele>
        <time>2022-06-06T13:54:14Z</time>
      </trkpt>
      <trkpt lat="46.16995" lon="5.51432">
        <ele>549.8</ele>
        <time>2022-06-06T13:54:15Z</time>
      </trkpt>
      <trkpt lat="46.17008" lon="5.51429">
        <ele>549.6</ele>
        <time>2022-06-06T13:54:16Z</time>
      </trkpt>
      <trkpt lat="46.17033" lon="5.51429">
        <ele>548.4</ele>
        <time>2022-06-06T13:54:18Z</time>
      </trkpt>
      <trkpt lat="46.17056" lon="5.5144">
        <ele>547.4</ele>
        <time>2022-06-06T13:54:20Z</time>
      </trkpt>
      <trkpt lat="46.17068" lon="5.51444">
        <ele>546.2</ele>
        <time>2022-06-06T13:54:21Z</time>
      </trkpt>
      <trkpt lat="46.17092" lon="5.51449">
        <ele>544.6</ele>
        <time>2022-06-06T13:54:23Z</time>
      </trkpt>
      <trkpt lat="46.17118" lon="5.51452">
        <ele>543.6</ele>
        <time>2022-06-06T13:54:25Z</time>
      </trkpt>
      <trkpt lat="46.17152" lon="5.51449">
        <ele>542</ele>
        <time>2022-06-06T13:54:28Z</time>
      </trkpt>
      <trkpt lat="46.17176" lon="5.51442">
        <ele>540.8</ele>
        <time>2022-06-06T13:54:30Z</time>
      </trkpt>
      <trkpt lat="46.17201" lon="5.51431">
        <ele>539.6</ele>
        <time>2022-06-06T13:54:32Z</time>
      </trkpt>
      <trkpt lat="46.17226" lon="5.5142">
        <ele>538.8</ele>
        <time>2022-06-06T13:54:34Z</time>
      </trkpt>
      <trkpt lat="46.17242" lon="5.51416">
        <ele>538.4</ele>
        <time>2022-06-06T13:54:35Z</time>
      </trkpt>
      <trkpt lat="46.17264" lon="5.51413">
        <ele>537.6</ele>
        <time>2022-06-06T13:54:37Z</time>
      </trkpt>
      <trkpt lat="46.17277" lon="5.51415">
        <ele>537</ele>
        <time>2022-06-06T13:54:38Z</time>
      </trkpt>
      <trkpt lat="46.17289" lon="5.51419">
        <ele>536</ele>
        <time>2022-06-06T13:54:39Z</time>
      </trkpt>
      <trkpt lat="46.17302" lon="5.51427">
        <ele>535</ele>
        <time>2022-06-06T13:54:40Z</time>
      </trkpt>
      <trkpt lat="46.1731" lon="5.51433">
        <ele>534.6</ele>
        <time>2022-06-06T13:54:41Z</time>
      </trkpt>
      <trkpt lat="46.17321" lon="5.51442">
        <ele>533.6</ele>
        <time>2022-06-06T13:54:42Z</time>
      </trkpt>
      <trkpt lat="46.17341" lon="5.51455">
        <ele>532</ele>
        <time>2022-06-06T13:54:44Z</time>
      </trkpt>
      <trkpt lat="46.1735" lon="5.51459">
        <ele>531.6</ele>
        <time>2022-06-06T13:54:45Z</time>
      </trkpt>
      <trkpt lat="46.17358" lon="5.51461">
        <ele>531</ele>
        <time>2022-06-06T13:54:46Z</time>
      </trkpt>
      <trkpt lat="46.17382" lon="5.51464">
        <ele>529.6</ele>
        <time>2022-06-06T13:54:49Z</time>
      </trkpt>
      <trkpt lat="46.17395" lon="5.51466">
        <ele>528.6</ele>
        <time>2022-06-06T13:54:51Z</time>
      </trkpt>
      <trkpt lat="46.17407" lon="5.51468">
        <ele>527.4</ele>
        <time>2022-06-06T13:54:53Z</time>
      </trkpt>
      <trkpt lat="46.1742" lon="5.51469">
        <ele>526.8</ele>
        <time>2022-06-06T13:54:55Z</time>
      </trkpt>
      <trkpt lat="46.17433" lon="5.51469">
        <ele>526.2</ele>
        <time>2022-06-06T13:54:57Z</time>
      </trkpt>
      <trkpt lat="46.17448" lon="5.51468">
        <ele>525.8</ele>
        <time>2022-06-06T13:54:59Z</time>
      </trkpt>
      <trkpt lat="46.17455" lon="5.51465">
        <ele>525.4</ele>
        <time>2022-06-06T13:55:00Z</time>
      </trkpt>
      <trkpt lat="46.17463" lon="5.51462">
        <ele>524.8</ele>
        <time>2022-06-06T13:55:01Z</time>
      </trkpt>
      <trkpt lat="46.17471" lon="5.51459">
        <ele>524.2</ele>
        <time>2022-06-06T13:55:02Z</time>
      </trkpt>
      <trkpt lat="46.17479" lon="5.51457">
        <ele>523.4</ele>
        <time>2022-06-06T13:55:03Z</time>
      </trkpt>
      <trkpt lat="46.17495" lon="5.51456">
        <ele>522.4</ele>
        <time>2022-06-06T13:55:05Z</time>
      </trkpt>
      <trkpt lat="46.17509" lon="5.51461">
        <ele>522</ele>
        <time>2022-06-06T13:55:07Z</time>
      </trkpt>
      <trkpt lat="46.17512" lon="5.51465">
        <ele>521.4</ele>
        <time>2022-06-06T13:55:08Z</time>
      </trkpt>
      <trkpt lat="46.17517" lon="5.51474">
        <ele>521.2</ele>
        <time>2022-06-06T13:55:09Z</time>
      </trkpt>
      <trkpt lat="46.17529" lon="5.51493">
        <ele>520.4</ele>
        <time>2022-06-06T13:55:11Z</time>
      </trkpt>
      <trkpt lat="46.17539" lon="5.51503">
        <ele>520</ele>
        <time>2022-06-06T13:55:12Z</time>
      </trkpt>
      <trkpt lat="46.17556" lon="5.51517">
        <ele>519</ele>
        <time>2022-06-06T13:55:14Z</time>
      </trkpt>
      <trkpt lat="46.17573" lon="5.51533">
        <ele>518</ele>
        <time>2022-06-06T13:55:16Z</time>
      </trkpt>
      <trkpt lat="46.17579" lon="5.51542">
        <ele>517.4</ele>
        <time>2022-06-06T13:55:17Z</time>
      </trkpt>
      <trkpt lat="46.17597" lon="5.51571">
        <ele>516.2</ele>
        <time>2022-06-06T13:55:20Z</time>
      </trkpt>
      <trkpt lat="46.17607" lon="5.51591">
        <ele>515.6</ele>
        <time>2022-06-06T13:55:22Z</time>
      </trkpt>
      <trkpt lat="46.17615" lon="5.51614">
        <ele>515.2</ele>
        <time>2022-06-06T13:55:24Z</time>
      </trkpt>
      <trkpt lat="46.17632" lon="5.51687">
        <ele>513.8</ele>
        <time>2022-06-06T13:55:30Z</time>
      </trkpt>
      <trkpt lat="46.17642" lon="5.51736">
        <ele>512.8</ele>
        <time>2022-06-06T13:55:34Z</time>
      </trkpt>
      <trkpt lat="46.17653" lon="5.51786">
        <ele>511.6</ele>
        <time>2022-06-06T13:55:38Z</time>
      </trkpt>
      <trkpt lat="46.17657" lon="5.51799">
        <ele>511.4</ele>
        <time>2022-06-06T13:55:39Z</time>
      </trkpt>
      <trkpt lat="46.17664" lon="5.51823">
        <ele>510.6</ele>
        <time>2022-06-06T13:55:41Z</time>
      </trkpt>
      <trkpt lat="46.17674" lon="5.51845">
        <ele>510</ele>
        <time>2022-06-06T13:55:43Z</time>
      </trkpt>
      <trkpt lat="46.17686" lon="5.51867">
        <ele>509.6</ele>
        <time>2022-06-06T13:55:45Z</time>
      </trkpt>
      <trkpt lat="46.17704" lon="5.51899">
        <ele>508.6</ele>
        <time>2022-06-06T13:55:48Z</time>
      </trkpt>
      <trkpt lat="46.17717" lon="5.51919">
        <ele>508</ele>
        <time>2022-06-06T13:55:50Z</time>
      </trkpt>
      <trkpt lat="46.17724" lon="5.51928">
        <ele>508</ele>
        <time>2022-06-06T13:55:51Z</time>
      </trkpt>
      <trkpt lat="46.1774" lon="5.51941">
        <ele>507.4</ele>
        <time>2022-06-06T13:55:53Z</time>
      </trkpt>
      <trkpt lat="46.17773" lon="5.51968">
        <ele>506.4</ele>
        <time>2022-06-06T13:55:57Z</time>
      </trkpt>
      <trkpt lat="46.17782" lon="5.51974">
        <ele>506.4</ele>
        <time>2022-06-06T13:55:58Z</time>
      </trkpt>
      <trkpt lat="46.17824" lon="5.52008">
        <ele>505.4</ele>
        <time>2022-06-06T13:56:03Z</time>
      </trkpt>
      <trkpt lat="46.17866" lon="5.52042">
        <ele>504.2</ele>
        <time>2022-06-06T13:56:08Z</time>
      </trkpt>
      <trkpt lat="46.17908" lon="5.52074">
        <ele>502.8</ele>
        <time>2022-06-06T13:56:13Z</time>
      </trkpt>
      <trkpt lat="46.17933" lon="5.52089">
        <ele>502</ele>
        <time>2022-06-06T13:56:16Z</time>
      </trkpt>
      <trkpt lat="46.17957" lon="5.52103">
        <ele>501.6</ele>
        <time>2022-06-06T13:56:19Z</time>
      </trkpt>
      <trkpt lat="46.18009" lon="5.52131">
        <ele>500.8</ele>
        <time>2022-06-06T13:56:25Z</time>
      </trkpt>
      <trkpt lat="46.18027" lon="5.52141">
        <ele>500.6</ele>
        <time>2022-06-06T13:56:27Z</time>
      </trkpt>
      <trkpt lat="46.18052" lon="5.52155">
        <ele>500.6</ele>
        <time>2022-06-06T13:56:30Z</time>
      </trkpt>
      <trkpt lat="46.18084" lon="5.52173">
        <ele>499.6</ele>
        <time>2022-06-06T13:56:34Z</time>
      </trkpt>
      <trkpt lat="46.18092" lon="5.52177">
        <ele>499.4</ele>
        <time>2022-06-06T13:56:35Z</time>
      </trkpt>
      <trkpt lat="46.1814" lon="5.52205">
        <ele>498.2</ele>
        <time>2022-06-06T13:56:41Z</time>
      </trkpt>
      <trkpt lat="46.18168" lon="5.52225">
        <ele>497.2</ele>
        <time>2022-06-06T13:56:44Z</time>
      </trkpt>
      <trkpt lat="46.18174" lon="5.52231">
        <ele>497</ele>
        <time>2022-06-06T13:56:45Z</time>
      </trkpt>
      <trkpt lat="46.18202" lon="5.52256">
        <ele>495.2</ele>
        <time>2022-06-06T13:56:48Z</time>
      </trkpt>
      <trkpt lat="46.18209" lon="5.52262">
        <ele>494.8</ele>
        <time>2022-06-06T13:56:49Z</time>
      </trkpt>
      <trkpt lat="46.18219" lon="5.5227">
        <ele>494</ele>
        <time>2022-06-06T13:56:50Z</time>
      </trkpt>
      <trkpt lat="46.18236" lon="5.52287">
        <ele>492</ele>
        <time>2022-06-06T13:56:52Z</time>
      </trkpt>
      <trkpt lat="46.18247" lon="5.52293">
        <ele>491.6</ele>
        <time>2022-06-06T13:56:53Z</time>
      </trkpt>
      <trkpt lat="46.18254" lon="5.52295">
        <ele>491.2</ele>
        <time>2022-06-06T13:56:54Z</time>
      </trkpt>
      <trkpt lat="46.18263" lon="5.52296">
        <ele>490.8</ele>
        <time>2022-06-06T13:56:55Z</time>
      </trkpt>
      <trkpt lat="46.18275" lon="5.52294">
        <ele>490.4</ele>
        <time>2022-06-06T13:56:56Z</time>
      </trkpt>
      <trkpt lat="46.18292" lon="5.52289">
        <ele>489.6</ele>
        <time>2022-06-06T13:56:58Z</time>
      </trkpt>
      <trkpt lat="46.18309" lon="5.52287">
        <ele>489.2</ele>
        <time>2022-06-06T13:57:00Z</time>
      </trkpt>
      <trkpt lat="46.18315" lon="5.52288">
        <ele>489.2</ele>
        <time>2022-06-06T13:57:01Z</time>
      </trkpt>
      <trkpt lat="46.1833" lon="5.52295">
        <ele>489.2</ele>
        <time>2022-06-06T13:57:03Z</time>
      </trkpt>
      <trkpt lat="46.18365" lon="5.5232">
        <ele>489.8</ele>
        <time>2022-06-06T13:57:08Z</time>
      </trkpt>
      <trkpt lat="46.18391" lon="5.52327">
        <ele>490</ele>
        <time>2022-06-06T13:57:11Z</time>
      </trkpt>
      <trkpt lat="46.18398" lon="5.52327">
        <ele>489.8</ele>
        <time>2022-06-06T13:57:12Z</time>
      </trkpt>
      <trkpt lat="46.18442" lon="5.52335">
        <ele>489.2</ele>
        <time>2022-06-06T13:57:17Z</time>
      </trkpt>
      <trkpt lat="46.18476" lon="5.52337">
        <ele>488.6</ele>
        <time>2022-06-06T13:57:21Z</time>
      </trkpt>
      <trkpt lat="46.18484" lon="5.52337">
        <ele>488.2</ele>
        <time>2022-06-06T13:57:22Z</time>
      </trkpt>
      <trkpt lat="46.18526" lon="5.52339">
        <ele>487.2</ele>
        <time>2022-06-06T13:57:27Z</time>
      </trkpt>
      <trkpt lat="46.18535" lon="5.52341">
        <ele>487.2</ele>
        <time>2022-06-06T13:57:28Z</time>
      </trkpt>
      <trkpt lat="46.18572" lon="5.52348">
        <ele>486.2</ele>
        <time>2022-06-06T13:57:32Z</time>
      </trkpt>
      <trkpt lat="46.18597" lon="5.52352">
        <ele>485.2</ele>
        <time>2022-06-06T13:57:35Z</time>
      </trkpt>
      <trkpt lat="46.18616" lon="5.52353">
        <ele>484.4</ele>
        <time>2022-06-06T13:57:37Z</time>
      </trkpt>
      <trkpt lat="46.18641" lon="5.52352">
        <ele>484.2</ele>
        <time>2022-06-06T13:57:40Z</time>
      </trkpt>
      <trkpt lat="46.18649" lon="5.5235">
        <ele>484.2</ele>
        <time>2022-06-06T13:57:41Z</time>
      </trkpt>
      <trkpt lat="46.18694" lon="5.52336">
        <ele>484.2</ele>
        <time>2022-06-06T13:57:47Z</time>
      </trkpt>
      <trkpt lat="46.18719" lon="5.5234">
        <ele>484.4</ele>
        <time>2022-06-06T13:57:51Z</time>
      </trkpt>
      <trkpt lat="46.18731" lon="5.52345">
        <ele>484.8</ele>
        <time>2022-06-06T13:57:53Z</time>
      </trkpt>
      <trkpt lat="46.18738" lon="5.5235">
        <ele>485.2</ele>
        <time>2022-06-06T13:57:55Z</time>
      </trkpt>
      <trkpt lat="46.1874" lon="5.52352">
        <ele>485.6</ele>
        <time>2022-06-06T13:57:57Z</time>
      </trkpt>
      <trkpt lat="46.1874" lon="5.52353">
        <ele>486</ele>
        <time>2022-06-06T13:57:58Z</time>
      </trkpt>
      <trkpt lat="46.18747" lon="5.5236">
        <ele>486.6</ele>
        <time>2022-06-06T13:58:02Z</time>
      </trkpt>
      <trkpt lat="46.18766" lon="5.52366">
        <ele>487</ele>
        <time>2022-06-06T13:58:07Z</time>
      </trkpt>
      <trkpt lat="46.18787" lon="5.52378">
        <ele>487.2</ele>
        <time>2022-06-06T13:58:11Z</time>
      </trkpt>
      <trkpt lat="46.18792" lon="5.52381">
        <ele>487.2</ele>
        <time>2022-06-06T13:58:12Z</time>
      </trkpt>
      <trkpt lat="46.18816" lon="5.52394">
        <ele>487.4</ele>
        <time>2022-06-06T13:58:16Z</time>
      </trkpt>
      <trkpt lat="46.18845" lon="5.52408">
        <ele>487.6</ele>
        <time>2022-06-06T13:58:21Z</time>
      </trkpt>
      <trkpt lat="46.18851" lon="5.52412">
        <ele>487.8</ele>
        <time>2022-06-06T13:58:22Z</time>
      </trkpt>
      <trkpt lat="46.18874" lon="5.52423">
        <ele>489</ele>
        <time>2022-06-06T13:58:26Z</time>
      </trkpt>
      <trkpt lat="46.18897" lon="5.52434">
        <ele>489.4</ele>
        <time>2022-06-06T13:58:30Z</time>
      </trkpt>
      <trkpt lat="46.18943" lon="5.52457">
        <ele>489.6</ele>
        <time>2022-06-06T13:58:38Z</time>
      </trkpt>
      <trkpt lat="46.18988" lon="5.5248">
        <ele>489.6</ele>
        <time>2022-06-06T13:58:46Z</time>
      </trkpt>
      <trkpt lat="46.19025" lon="5.52509">
        <ele>489</ele>
        <time>2022-06-06T13:58:52Z</time>
      </trkpt>
      <trkpt lat="46.19065" lon="5.52547">
        <ele>488</ele>
        <time>2022-06-06T13:58:58Z</time>
      </trkpt>
      <trkpt lat="46.19072" lon="5.52554">
        <ele>487.8</ele>
        <time>2022-06-06T13:58:59Z</time>
      </trkpt>
      <trkpt lat="46.19109" lon="5.52583">
        <ele>487</ele>
        <time>2022-06-06T13:59:04Z</time>
      </trkpt>
      <trkpt lat="46.19117" lon="5.52588">
        <ele>486.8</ele>
        <time>2022-06-06T13:59:05Z</time>
      </trkpt>
      <trkpt lat="46.19163" lon="5.52613">
        <ele>486.4</ele>
        <time>2022-06-06T13:59:11Z</time>
      </trkpt>
      <trkpt lat="46.19176" lon="5.52618">
        <ele>486.4</ele>
        <time>2022-06-06T13:59:13Z</time>
      </trkpt>
      <trkpt lat="46.19195" lon="5.52626">
        <ele>487</ele>
        <time>2022-06-06T13:59:16Z</time>
      </trkpt>
      <trkpt lat="46.19224" lon="5.5264">
        <ele>488.4</ele>
        <time>2022-06-06T13:59:21Z</time>
      </trkpt>
      <trkpt lat="46.19241" lon="5.52647">
        <ele>489.8</ele>
        <time>2022-06-06T13:59:24Z</time>
      </trkpt>
      <trkpt lat="46.19257" lon="5.52655">
        <ele>491</ele>
        <time>2022-06-06T13:59:27Z</time>
      </trkpt>
      <trkpt lat="46.19268" lon="5.5266">
        <ele>491.2</ele>
        <time>2022-06-06T13:59:29Z</time>
      </trkpt>
      <trkpt lat="46.19294" lon="5.52672">
        <ele>492</ele>
        <time>2022-06-06T13:59:33Z</time>
      </trkpt>
      <trkpt lat="46.19326" lon="5.52687">
        <ele>492.2</ele>
        <time>2022-06-06T13:59:38Z</time>
      </trkpt>
      <trkpt lat="46.19369" lon="5.5271">
        <ele>491.2</ele>
        <time>2022-06-06T13:59:44Z</time>
      </trkpt>
      <trkpt lat="46.19392" lon="5.52725">
        <ele>491</ele>
        <time>2022-06-06T13:59:47Z</time>
      </trkpt>
      <trkpt lat="46.19423" lon="5.5275">
        <ele>490.6</ele>
        <time>2022-06-06T13:59:51Z</time>
      </trkpt>
      <trkpt lat="46.1943" lon="5.52756">
        <ele>490</ele>
        <time>2022-06-06T13:59:52Z</time>
      </trkpt>
      <trkpt lat="46.19474" lon="5.52797">
        <ele>488.6</ele>
        <time>2022-06-06T13:59:57Z</time>
      </trkpt>
      <trkpt lat="46.19493" lon="5.52814">
        <ele>486.8</ele>
        <time>2022-06-06T13:59:59Z</time>
      </trkpt>
      <trkpt lat="46.19511" lon="5.52831">
        <ele>485.6</ele>
        <time>2022-06-06T14:00:01Z</time>
      </trkpt>
      <trkpt lat="46.19533" lon="5.52852">
        <ele>484.6</ele>
        <time>2022-06-06T14:00:03Z</time>
      </trkpt>
      <trkpt lat="46.19544" lon="5.52862">
        <ele>484.2</ele>
        <time>2022-06-06T14:00:04Z</time>
      </trkpt>
      <trkpt lat="46.19565" lon="5.52881">
        <ele>482.4</ele>
        <time>2022-06-06T14:00:06Z</time>
      </trkpt>
      <trkpt lat="46.19587" lon="5.52902">
        <ele>480</ele>
        <time>2022-06-06T14:00:08Z</time>
      </trkpt>
      <trkpt lat="46.19607" lon="5.52919">
        <ele>478.2</ele>
        <time>2022-06-06T14:00:10Z</time>
      </trkpt>
      <trkpt lat="46.19631" lon="5.52938">
        <ele>476.6</ele>
        <time>2022-06-06T14:00:12Z</time>
      </trkpt>
      <trkpt lat="46.19654" lon="5.52954">
        <ele>475.2</ele>
        <time>2022-06-06T14:00:14Z</time>
      </trkpt>
      <trkpt lat="46.19664" lon="5.52962">
        <ele>473.8</ele>
        <time>2022-06-06T14:00:15Z</time>
      </trkpt>
      <trkpt lat="46.19693" lon="5.52985">
        <ele>472.6</ele>
        <time>2022-06-06T14:00:18Z</time>
      </trkpt>
      <trkpt lat="46.19712" lon="5.53003">
        <ele>472</ele>
        <time>2022-06-06T14:00:20Z</time>
      </trkpt>
      <trkpt lat="46.19739" lon="5.53032">
        <ele>471.6</ele>
        <time>2022-06-06T14:00:23Z</time>
      </trkpt>
      <trkpt lat="46.19767" lon="5.53065">
        <ele>470.8</ele>
        <time>2022-06-06T14:00:26Z</time>
      </trkpt>
      <trkpt lat="46.19774" lon="5.53072">
        <ele>470.4</ele>
        <time>2022-06-06T14:00:27Z</time>
      </trkpt>
      <trkpt lat="46.19803" lon="5.53097">
        <ele>469.6</ele>
        <time>2022-06-06T14:00:30Z</time>
      </trkpt>
      <trkpt lat="46.19811" lon="5.53102">
        <ele>469.2</ele>
        <time>2022-06-06T14:00:31Z</time>
      </trkpt>
      <trkpt lat="46.19853" lon="5.53129">
        <ele>468.2</ele>
        <time>2022-06-06T14:00:35Z</time>
      </trkpt>
      <trkpt lat="46.19861" lon="5.53134">
        <ele>467.8</ele>
        <time>2022-06-06T14:00:36Z</time>
      </trkpt>
      <trkpt lat="46.199" lon="5.53158">
        <ele>467.2</ele>
        <time>2022-06-06T14:00:40Z</time>
      </trkpt>
      <trkpt lat="46.1991" lon="5.53164">
        <ele>467</ele>
        <time>2022-06-06T14:00:41Z</time>
      </trkpt>
      <trkpt lat="46.19967" lon="5.53201">
        <ele>466.4</ele>
        <time>2022-06-06T14:00:47Z</time>
      </trkpt>
      <trkpt lat="46.19995" lon="5.5322">
        <ele>466</ele>
        <time>2022-06-06T14:00:50Z</time>
      </trkpt>
      <trkpt lat="46.2003" lon="5.53243">
        <ele>465.6</ele>
        <time>2022-06-06T14:00:54Z</time>
      </trkpt>
      <trkpt lat="46.20071" lon="5.53271">
        <ele>466</ele>
        <time>2022-06-06T14:00:59Z</time>
      </trkpt>
      <trkpt lat="46.20099" lon="5.5329">
        <ele>467</ele>
        <time>2022-06-06T14:01:03Z</time>
      </trkpt>
      <trkpt lat="46.20114" lon="5.533">
        <ele>467.4</ele>
        <time>2022-06-06T14:01:05Z</time>
      </trkpt>
      <trkpt lat="46.20159" lon="5.5333">
        <ele>467.8</ele>
        <time>2022-06-06T14:01:11Z</time>
      </trkpt>
      <trkpt lat="46.20207" lon="5.53355">
        <ele>467.8</ele>
        <time>2022-06-06T14:01:17Z</time>
      </trkpt>
      <trkpt lat="46.20266" lon="5.53376">
        <ele>467.8</ele>
        <time>2022-06-06T14:01:25Z</time>
      </trkpt>
      <trkpt lat="46.20289" lon="5.53385">
        <ele>467.8</ele>
        <time>2022-06-06T14:01:28Z</time>
      </trkpt>
      <trkpt lat="46.20325" lon="5.53398">
        <ele>468.2</ele>
        <time>2022-06-06T14:01:33Z</time>
      </trkpt>
      <trkpt lat="46.20339" lon="5.53404">
        <ele>468.2</ele>
        <time>2022-06-06T14:01:35Z</time>
      </trkpt>
      <trkpt lat="46.20378" lon="5.53414">
        <ele>469.4</ele>
        <time>2022-06-06T14:01:41Z</time>
      </trkpt>
      <trkpt lat="46.20404" lon="5.53413">
        <ele>470.4</ele>
        <time>2022-06-06T14:01:45Z</time>
      </trkpt>
      <trkpt lat="46.20433" lon="5.53412">
        <ele>470.8</ele>
        <time>2022-06-06T14:01:49Z</time>
      </trkpt>
      <trkpt lat="46.20459" lon="5.5341">
        <ele>471.6</ele>
        <time>2022-06-06T14:01:53Z</time>
      </trkpt>
      <trkpt lat="46.20471" lon="5.5341">
        <ele>471.8</ele>
        <time>2022-06-06T14:01:55Z</time>
      </trkpt>
      <trkpt lat="46.20497" lon="5.53407">
        <ele>472.8</ele>
        <time>2022-06-06T14:01:59Z</time>
      </trkpt>
      <trkpt lat="46.20524" lon="5.53407">
        <ele>473.4</ele>
        <time>2022-06-06T14:02:03Z</time>
      </trkpt>
      <trkpt lat="46.20551" lon="5.53407">
        <ele>474</ele>
        <time>2022-06-06T14:02:07Z</time>
      </trkpt>
      <trkpt lat="46.20564" lon="5.53405">
        <ele>474.2</ele>
        <time>2022-06-06T14:02:09Z</time>
      </trkpt>
      <trkpt lat="46.20597" lon="5.534">
        <ele>475</ele>
        <time>2022-06-06T14:02:14Z</time>
      </trkpt>
      <trkpt lat="46.20617" lon="5.534">
        <ele>475.2</ele>
        <time>2022-06-06T14:02:17Z</time>
      </trkpt>
      <trkpt lat="46.20662" lon="5.53399">
        <ele>475</ele>
        <time>2022-06-06T14:02:23Z</time>
      </trkpt>
      <trkpt lat="46.20671" lon="5.534">
        <ele>475</ele>
        <time>2022-06-06T14:02:24Z</time>
      </trkpt>
      <trkpt lat="46.20706" lon="5.53409">
        <ele>473.8</ele>
        <time>2022-06-06T14:02:28Z</time>
      </trkpt>
      <trkpt lat="46.20724" lon="5.5341">
        <ele>472.8</ele>
        <time>2022-06-06T14:02:30Z</time>
      </trkpt>
      <trkpt lat="46.20732" lon="5.5341">
        <ele>472.6</ele>
        <time>2022-06-06T14:02:31Z</time>
      </trkpt>
      <trkpt lat="46.20758" lon="5.53412">
        <ele>471.4</ele>
        <time>2022-06-06T14:02:34Z</time>
      </trkpt>
      <trkpt lat="46.20767" lon="5.53412">
        <ele>471.2</ele>
        <time>2022-06-06T14:02:35Z</time>
      </trkpt>
      <trkpt lat="46.20802" lon="5.5341">
        <ele>470.4</ele>
        <time>2022-06-06T14:02:39Z</time>
      </trkpt>
      <trkpt lat="46.20827" lon="5.53411">
        <ele>470.2</ele>
        <time>2022-06-06T14:02:42Z</time>
      </trkpt>
      <trkpt lat="46.20873" lon="5.53417">
        <ele>471</ele>
        <time>2022-06-06T14:02:48Z</time>
      </trkpt>
      <trkpt lat="46.20905" lon="5.5343">
        <ele>471.2</ele>
        <time>2022-06-06T14:02:52Z</time>
      </trkpt>
      <trkpt lat="46.20957" lon="5.53456">
        <ele>471.2</ele>
        <time>2022-06-06T14:02:58Z</time>
      </trkpt>
      <trkpt lat="46.20965" lon="5.53461">
        <ele>471.2</ele>
        <time>2022-06-06T14:02:59Z</time>
      </trkpt>
      <trkpt lat="46.21022" lon="5.5349">
        <ele>471.2</ele>
        <time>2022-06-06T14:03:06Z</time>
      </trkpt>
      <trkpt lat="46.2103" lon="5.53494">
        <ele>471.2</ele>
        <time>2022-06-06T14:03:07Z</time>
      </trkpt>
      <trkpt lat="46.2106" lon="5.53512">
        <ele>471.6</ele>
        <time>2022-06-06T14:03:11Z</time>
      </trkpt>
      <trkpt lat="46.21089" lon="5.53532">
        <ele>471.6</ele>
        <time>2022-06-06T14:03:15Z</time>
      </trkpt>
      <trkpt lat="46.21138" lon="5.53564">
        <ele>472.4</ele>
        <time>2022-06-06T14:03:22Z</time>
      </trkpt>
      <trkpt lat="46.21143" lon="5.53567">
        <ele>472.6</ele>
        <time>2022-06-06T14:03:23Z</time>
      </trkpt>
      <trkpt lat="46.2117" lon="5.53579">
        <ele>473.4</ele>
        <time>2022-06-06T14:03:27Z</time>
      </trkpt>
      <trkpt lat="46.21182" lon="5.53584">
        <ele>473.8</ele>
        <time>2022-06-06T14:03:29Z</time>
      </trkpt>
      <trkpt lat="46.21216" lon="5.53596">
        <ele>474.4</ele>
        <time>2022-06-06T14:03:34Z</time>
      </trkpt>
      <trkpt lat="46.21235" lon="5.53601">
        <ele>475</ele>
        <time>2022-06-06T14:03:37Z</time>
      </trkpt>
      <trkpt lat="46.21263" lon="5.53603">
        <ele>475.2</ele>
        <time>2022-06-06T14:03:41Z</time>
      </trkpt>
      <trkpt lat="46.21301" lon="5.5361">
        <ele>475.2</ele>
        <time>2022-06-06T14:03:46Z</time>
      </trkpt>
      <trkpt lat="46.21347" lon="5.53634">
        <ele>474.6</ele>
        <time>2022-06-06T14:03:52Z</time>
      </trkpt>
      <trkpt lat="46.21399" lon="5.53665">
        <ele>474.2</ele>
        <time>2022-06-06T14:03:59Z</time>
      </trkpt>
      <trkpt lat="46.21413" lon="5.53674">
        <ele>474.2</ele>
        <time>2022-06-06T14:04:01Z</time>
      </trkpt>
      <trkpt lat="46.21465" lon="5.53698">
        <ele>474.4</ele>
        <time>2022-06-06T14:04:08Z</time>
      </trkpt>
      <trkpt lat="46.21472" lon="5.53699">
        <ele>474.4</ele>
        <time>2022-06-06T14:04:09Z</time>
      </trkpt>
      <trkpt lat="46.21495" lon="5.53697">
        <ele>474.4</ele>
        <time>2022-06-06T14:04:12Z</time>
      </trkpt>
      <trkpt lat="46.21548" lon="5.53689">
        <ele>474.8</ele>
        <time>2022-06-06T14:04:19Z</time>
      </trkpt>
      <trkpt lat="46.21594" lon="5.5368">
        <ele>476</ele>
        <time>2022-06-06T14:04:26Z</time>
      </trkpt>
      <trkpt lat="46.21624" lon="5.53675">
        <ele>477</ele>
        <time>2022-06-06T14:04:31Z</time>
      </trkpt>
      <trkpt lat="46.21646" lon="5.53675">
        <ele>478.2</ele>
        <time>2022-06-06T14:04:35Z</time>
      </trkpt>
      <trkpt lat="46.21663" lon="5.53673">
        <ele>479</ele>
        <time>2022-06-06T14:04:38Z</time>
      </trkpt>
      <trkpt lat="46.21674" lon="5.53673">
        <ele>479.6</ele>
        <time>2022-06-06T14:04:40Z</time>
      </trkpt>
      <trkpt lat="46.2169" lon="5.53674">
        <ele>480.6</ele>
        <time>2022-06-06T14:04:43Z</time>
      </trkpt>
      <trkpt lat="46.21695" lon="5.53674">
        <ele>480.8</ele>
        <time>2022-06-06T14:04:44Z</time>
      </trkpt>
      <trkpt lat="46.21699" lon="5.53675">
        <ele>481</ele>
        <time>2022-06-06T14:04:45Z</time>
      </trkpt>
      <trkpt lat="46.21718" lon="5.53677">
        <ele>481.8</ele>
        <time>2022-06-06T14:04:49Z</time>
      </trkpt>
      <trkpt lat="46.21739" lon="5.53679">
        <ele>483</ele>
        <time>2022-06-06T14:04:53Z</time>
      </trkpt>
      <trkpt lat="46.21755" lon="5.5368">
        <ele>484</ele>
        <time>2022-06-06T14:04:56Z</time>
      </trkpt>
      <trkpt lat="46.21775" lon="5.53684">
        <ele>484.8</ele>
        <time>2022-06-06T14:05:00Z</time>
      </trkpt>
      <trkpt lat="46.21781" lon="5.53686">
        <ele>485.2</ele>
        <time>2022-06-06T14:05:01Z</time>
      </trkpt>
      <trkpt lat="46.2181" lon="5.53695">
        <ele>486.4</ele>
        <time>2022-06-06T14:05:07Z</time>
      </trkpt>
      <trkpt lat="46.21815" lon="5.53697">
        <ele>486.6</ele>
        <time>2022-06-06T14:05:08Z</time>
      </trkpt>
      <trkpt lat="46.21842" lon="5.53705">
        <ele>487.4</ele>
        <time>2022-06-06T14:05:13Z</time>
      </trkpt>
      <trkpt lat="46.21853" lon="5.53706">
        <ele>487.4</ele>
        <time>2022-06-06T14:05:15Z</time>
      </trkpt>
      <trkpt lat="46.21883" lon="5.53705">
        <ele>488.4</ele>
        <time>2022-06-06T14:05:21Z</time>
      </trkpt>
      <trkpt lat="46.21888" lon="5.53704">
        <ele>488.6</ele>
        <time>2022-06-06T14:05:22Z</time>
      </trkpt>
      <trkpt lat="46.21904" lon="5.537">
        <ele>489.6</ele>
        <time>2022-06-06T14:05:26Z</time>
      </trkpt>
      <trkpt lat="46.21917" lon="5.53696">
        <ele>490.8</ele>
        <time>2022-06-06T14:05:29Z</time>
      </trkpt>
      <trkpt lat="46.21935" lon="5.5369">
        <ele>492</ele>
        <time>2022-06-06T14:05:33Z</time>
      </trkpt>
      <trkpt lat="46.21953" lon="5.53684">
        <ele>493.2</ele>
        <time>2022-06-06T14:05:38Z</time>
      </trkpt>
      <trkpt lat="46.21962" lon="5.5368">
        <ele>494.2</ele>
        <time>2022-06-06T14:05:41Z</time>
      </trkpt>
      <trkpt lat="46.21972" lon="5.53675">
        <ele>495.2</ele>
        <time>2022-06-06T14:05:44Z</time>
      </trkpt>
      <trkpt lat="46.21988" lon="5.53668">
        <ele>496.4</ele>
        <time>2022-06-06T14:05:49Z</time>
      </trkpt>
      <trkpt lat="46.22" lon="5.53662">
        <ele>497.8</ele>
        <time>2022-06-06T14:05:53Z</time>
      </trkpt>
      <trkpt lat="46.22015" lon="5.53655">
        <ele>498.8</ele>
        <time>2022-06-06T14:05:58Z</time>
      </trkpt>
      <trkpt lat="46.22031" lon="5.53645">
        <ele>500.2</ele>
        <time>2022-06-06T14:06:04Z</time>
      </trkpt>
      <trkpt lat="46.22045" lon="5.53638">
        <ele>501.2</ele>
        <time>2022-06-06T14:06:09Z</time>
      </trkpt>
      <trkpt lat="46.22047" lon="5.53636">
        <ele>501.4</ele>
        <time>2022-06-06T14:06:10Z</time>
      </trkpt>
      <trkpt lat="46.22057" lon="5.53635">
        <ele>502.2</ele>
        <time>2022-06-06T14:06:13Z</time>
      </trkpt>
      <trkpt lat="46.22068" lon="5.53634">
        <ele>503.2</ele>
        <time>2022-06-06T14:06:16Z</time>
      </trkpt>
      <trkpt lat="46.22072" lon="5.53633">
        <ele>503.2</ele>
        <time>2022-06-06T14:06:17Z</time>
      </trkpt>
      <trkpt lat="46.22089" lon="5.53632">
        <ele>504.4</ele>
        <time>2022-06-06T14:06:22Z</time>
      </trkpt>
      <trkpt lat="46.22099" lon="5.53631">
        <ele>505.2</ele>
        <time>2022-06-06T14:06:25Z</time>
      </trkpt>
      <trkpt lat="46.22102" lon="5.53631">
        <ele>505.8</ele>
        <time>2022-06-06T14:06:26Z</time>
      </trkpt>
      <trkpt lat="46.22115" lon="5.53631">
        <ele>506.8</ele>
        <time>2022-06-06T14:06:30Z</time>
      </trkpt>
      <trkpt lat="46.22134" lon="5.53632">
        <ele>508</ele>
        <time>2022-06-06T14:06:35Z</time>
      </trkpt>
      <trkpt lat="46.22147" lon="5.53636">
        <ele>508.6</ele>
        <time>2022-06-06T14:06:38Z</time>
      </trkpt>
      <trkpt lat="46.22154" lon="5.53639">
        <ele>509.2</ele>
        <time>2022-06-06T14:06:40Z</time>
      </trkpt>
      <trkpt lat="46.22177" lon="5.53652">
        <ele>509.8</ele>
        <time>2022-06-06T14:06:45Z</time>
      </trkpt>
      <trkpt lat="46.22186" lon="5.53661">
        <ele>510.2</ele>
        <time>2022-06-06T14:06:48Z</time>
      </trkpt>
      <trkpt lat="46.22197" lon="5.53679">
        <ele>511.4</ele>
        <time>2022-06-06T14:06:53Z</time>
      </trkpt>
      <trkpt lat="46.22224" lon="5.53714">
        <ele>512.6</ele>
        <time>2022-06-06T14:07:01Z</time>
      </trkpt>
      <trkpt lat="46.22237" lon="5.53725">
        <ele>513</ele>
        <time>2022-06-06T14:07:04Z</time>
      </trkpt>
      <trkpt lat="46.22251" lon="5.53733">
        <ele>513.6</ele>
        <time>2022-06-06T14:07:07Z</time>
      </trkpt>
      <trkpt lat="46.22255" lon="5.53734">
        <ele>513.6</ele>
        <time>2022-06-06T14:07:08Z</time>
      </trkpt>
      <trkpt lat="46.223" lon="5.53753">
        <ele>514.6</ele>
        <time>2022-06-06T14:07:17Z</time>
      </trkpt>
      <trkpt lat="46.22305" lon="5.53754">
        <ele>514.8</ele>
        <time>2022-06-06T14:07:18Z</time>
      </trkpt>
      <trkpt lat="46.22342" lon="5.53762">
        <ele>515.8</ele>
        <time>2022-06-06T14:07:25Z</time>
      </trkpt>
      <trkpt lat="46.22347" lon="5.53763">
        <ele>516.2</ele>
        <time>2022-06-06T14:07:26Z</time>
      </trkpt>
      <trkpt lat="46.22392" lon="5.53769">
        <ele>517.2</ele>
        <time>2022-06-06T14:07:34Z</time>
      </trkpt>
      <trkpt lat="46.22422" lon="5.53778">
        <ele>518.2</ele>
        <time>2022-06-06T14:07:41Z</time>
      </trkpt>
      <trkpt lat="46.22433" lon="5.5378">
        <ele>518.8</ele>
        <time>2022-06-06T14:07:42Z</time>
      </trkpt>
      <trkpt lat="46.22443" lon="5.53782">
        <ele>519.4</ele>
        <time>2022-06-06T14:07:44Z</time>
      </trkpt>
      <trkpt lat="46.22455" lon="5.53781">
        <ele>519.4</ele>
        <time>2022-06-06T14:07:46Z</time>
      </trkpt>
      <trkpt lat="46.22461" lon="5.5378">
        <ele>519.6</ele>
        <time>2022-06-06T14:07:47Z</time>
      </trkpt>
      <trkpt lat="46.22491" lon="5.53763">
        <ele>520</ele>
        <time>2022-06-06T14:07:53Z</time>
      </trkpt>
      <trkpt lat="46.22506" lon="5.53752">
        <ele>520</ele>
        <time>2022-06-06T14:07:56Z</time>
      </trkpt>
      <trkpt lat="46.2252" lon="5.53738">
        <ele>520.4</ele>
        <time>2022-06-06T14:07:59Z</time>
      </trkpt>
      <trkpt lat="46.22525" lon="5.53733">
        <ele>520.4</ele>
        <time>2022-06-06T14:08:00Z</time>
      </trkpt>
      <trkpt lat="46.22534" lon="5.53723">
        <ele>520.8</ele>
        <time>2022-06-06T14:08:02Z</time>
      </trkpt>
      <trkpt lat="46.2255" lon="5.53715">
        <ele>521.2</ele>
        <time>2022-06-06T14:08:05Z</time>
      </trkpt>
      <trkpt lat="46.22569" lon="5.53709">
        <ele>521.4</ele>
        <time>2022-06-06T14:08:09Z</time>
      </trkpt>
      <trkpt lat="46.22573" lon="5.53708">
        <ele>521.6</ele>
        <time>2022-06-06T14:08:10Z</time>
      </trkpt>
      <trkpt lat="46.22582" lon="5.53708">
        <ele>522</ele>
        <time>2022-06-06T14:08:12Z</time>
      </trkpt>
      <trkpt lat="46.22591" lon="5.53709">
        <ele>522.4</ele>
        <time>2022-06-06T14:08:14Z</time>
      </trkpt>
      <trkpt lat="46.226" lon="5.53709">
        <ele>522.8</ele>
        <time>2022-06-06T14:08:16Z</time>
      </trkpt>
      <trkpt lat="46.2261" lon="5.53708">
        <ele>523.6</ele>
        <time>2022-06-06T14:08:19Z</time>
      </trkpt>
      <trkpt lat="46.22636" lon="5.53703">
        <ele>524.6</ele>
        <time>2022-06-06T14:08:23Z</time>
      </trkpt>
      <trkpt lat="46.22653" lon="5.537">
        <ele>525.2</ele>
        <time>2022-06-06T14:08:26Z</time>
      </trkpt>
      <trkpt lat="46.22683" lon="5.53695">
        <ele>525.6</ele>
        <time>2022-06-06T14:08:31Z</time>
      </trkpt>
      <trkpt lat="46.22689" lon="5.53695">
        <ele>525.8</ele>
        <time>2022-06-06T14:08:32Z</time>
      </trkpt>
      <trkpt lat="46.227" lon="5.53693">
        <ele>525.8</ele>
        <time>2022-06-06T14:08:34Z</time>
      </trkpt>
      <trkpt lat="46.22748" lon="5.53686">
        <ele>527</ele>
        <time>2022-06-06T14:08:43Z</time>
      </trkpt>
      <trkpt lat="46.22759" lon="5.53685">
        <ele>527.4</ele>
        <time>2022-06-06T14:08:45Z</time>
      </trkpt>
      <trkpt lat="46.22776" lon="5.53683">
        <ele>527.8</ele>
        <time>2022-06-06T14:08:48Z</time>
      </trkpt>
      <trkpt lat="46.22793" lon="5.53688">
        <ele>528</ele>
        <time>2022-06-06T14:08:51Z</time>
      </trkpt>
      <trkpt lat="46.2282" lon="5.53704">
        <ele>529</ele>
        <time>2022-06-06T14:08:56Z</time>
      </trkpt>
      <trkpt lat="46.22825" lon="5.53709">
        <ele>529.4</ele>
        <time>2022-06-06T14:08:57Z</time>
      </trkpt>
      <trkpt lat="46.22856" lon="5.53737">
        <ele>530</ele>
        <time>2022-06-06T14:09:03Z</time>
      </trkpt>
      <trkpt lat="46.22866" lon="5.53745">
        <ele>530.4</ele>
        <time>2022-06-06T14:09:05Z</time>
      </trkpt>
      <trkpt lat="46.22888" lon="5.53765">
        <ele>531.2</ele>
        <time>2022-06-06T14:09:10Z</time>
      </trkpt>
      <trkpt lat="46.22903" lon="5.53777">
        <ele>532.2</ele>
        <time>2022-06-06T14:09:13Z</time>
      </trkpt>
      <trkpt lat="46.22907" lon="5.5378">
        <ele>532.6</ele>
        <time>2022-06-06T14:09:14Z</time>
      </trkpt>
      <trkpt lat="46.22936" lon="5.53799">
        <ele>533.8</ele>
        <time>2022-06-06T14:09:20Z</time>
      </trkpt>
      <trkpt lat="46.22941" lon="5.53802">
        <ele>534.2</ele>
        <time>2022-06-06T14:09:22Z</time>
      </trkpt>
      <trkpt lat="46.2297" lon="5.53816">
        <ele>534.8</ele>
        <time>2022-06-06T14:09:27Z</time>
      </trkpt>
      <trkpt lat="46.22994" lon="5.53825">
        <ele>535.6</ele>
        <time>2022-06-06T14:09:31Z</time>
      </trkpt>
      <trkpt lat="46.22999" lon="5.53826">
        <ele>535.8</ele>
        <time>2022-06-06T14:09:32Z</time>
      </trkpt>
      <trkpt lat="46.23029" lon="5.53824">
        <ele>536.2</ele>
        <time>2022-06-06T14:09:37Z</time>
      </trkpt>
      <trkpt lat="46.23068" lon="5.53822">
        <ele>536.4</ele>
        <time>2022-06-06T14:09:43Z</time>
      </trkpt>
      <trkpt lat="46.23081" lon="5.53824">
        <ele>536.4</ele>
        <time>2022-06-06T14:09:45Z</time>
      </trkpt>
      <trkpt lat="46.23094" lon="5.53828">
        <ele>536.4</ele>
        <time>2022-06-06T14:09:47Z</time>
      </trkpt>
      <trkpt lat="46.23134" lon="5.53845">
        <ele>536</ele>
        <time>2022-06-06T14:09:53Z</time>
      </trkpt>
      <trkpt lat="46.23153" lon="5.53851">
        <ele>535.8</ele>
        <time>2022-06-06T14:09:54Z</time>
      </trkpt>
      <trkpt lat="46.2318" lon="5.53856">
        <ele>534.8</ele>
        <time>2022-06-06T14:09:57Z</time>
      </trkpt>
      <trkpt lat="46.23197" lon="5.53864">
        <ele>534.4</ele>
        <time>2022-06-06T14:09:59Z</time>
      </trkpt>
      <trkpt lat="46.23204" lon="5.53869">
        <ele>533.8</ele>
        <time>2022-06-06T14:10:00Z</time>
      </trkpt>
      <trkpt lat="46.23213" lon="5.53876">
        <ele>533.6</ele>
        <time>2022-06-06T14:10:01Z</time>
      </trkpt>
      <trkpt lat="46.2323" lon="5.5389">
        <ele>532.4</ele>
        <time>2022-06-06T14:10:03Z</time>
      </trkpt>
      <trkpt lat="46.23247" lon="5.53905">
        <ele>531.4</ele>
        <time>2022-06-06T14:10:05Z</time>
      </trkpt>
      <trkpt lat="46.23265" lon="5.53919">
        <ele>530.6</ele>
        <time>2022-06-06T14:10:07Z</time>
      </trkpt>
      <trkpt lat="46.23274" lon="5.53927">
        <ele>530.4</ele>
        <time>2022-06-06T14:10:08Z</time>
      </trkpt>
      <trkpt lat="46.23283" lon="5.53935">
        <ele>529.8</ele>
        <time>2022-06-06T14:10:09Z</time>
      </trkpt>
      <trkpt lat="46.23312" lon="5.53963">
        <ele>528.4</ele>
        <time>2022-06-06T14:10:12Z</time>
      </trkpt>
      <trkpt lat="46.23328" lon="5.53984">
        <ele>527</ele>
        <time>2022-06-06T14:10:14Z</time>
      </trkpt>
      <trkpt lat="46.23345" lon="5.54011">
        <ele>524.8</ele>
        <time>2022-06-06T14:10:16Z</time>
      </trkpt>
      <trkpt lat="46.23353" lon="5.54023">
        <ele>524</ele>
        <time>2022-06-06T14:10:17Z</time>
      </trkpt>
      <trkpt lat="46.2336" lon="5.54036">
        <ele>523.2</ele>
        <time>2022-06-06T14:10:18Z</time>
      </trkpt>
      <trkpt lat="46.2338" lon="5.54077">
        <ele>522</ele>
        <time>2022-06-06T14:10:21Z</time>
      </trkpt>
      <trkpt lat="46.23388" lon="5.5409">
        <ele>521.8</ele>
        <time>2022-06-06T14:10:22Z</time>
      </trkpt>
      <trkpt lat="46.23422" lon="5.54138">
        <ele>520.8</ele>
        <time>2022-06-06T14:10:26Z</time>
      </trkpt>
      <trkpt lat="46.23443" lon="5.54157">
        <ele>520.2</ele>
        <time>2022-06-06T14:10:28Z</time>
      </trkpt>
      <trkpt lat="46.23454" lon="5.54163">
        <ele>519.8</ele>
        <time>2022-06-06T14:10:29Z</time>
      </trkpt>
      <trkpt lat="46.23466" lon="5.54165">
        <ele>519.4</ele>
        <time>2022-06-06T14:10:30Z</time>
      </trkpt>
      <trkpt lat="46.23488" lon="5.54167">
        <ele>518.4</ele>
        <time>2022-06-06T14:10:32Z</time>
      </trkpt>
      <trkpt lat="46.23503" lon="5.54168">
        <ele>517.2</ele>
        <time>2022-06-06T14:10:33Z</time>
      </trkpt>
      <trkpt lat="46.23526" lon="5.54172">
        <ele>516</ele>
        <time>2022-06-06T14:10:35Z</time>
      </trkpt>
      <trkpt lat="46.23551" lon="5.54177">
        <ele>514.6</ele>
        <time>2022-06-06T14:10:37Z</time>
      </trkpt>
      <trkpt lat="46.23578" lon="5.54183">
        <ele>513</ele>
        <time>2022-06-06T14:10:39Z</time>
      </trkpt>
      <trkpt lat="46.23591" lon="5.54187">
        <ele>512</ele>
        <time>2022-06-06T14:10:40Z</time>
      </trkpt>
      <trkpt lat="46.23616" lon="5.54194">
        <ele>511</ele>
        <time>2022-06-06T14:10:42Z</time>
      </trkpt>
      <trkpt lat="46.23628" lon="5.54198">
        <ele>510.4</ele>
        <time>2022-06-06T14:10:43Z</time>
      </trkpt>
      <trkpt lat="46.2364" lon="5.54202">
        <ele>509.2</ele>
        <time>2022-06-06T14:10:44Z</time>
      </trkpt>
      <trkpt lat="46.23665" lon="5.54211">
        <ele>507.4</ele>
        <time>2022-06-06T14:10:46Z</time>
      </trkpt>
      <trkpt lat="46.23675" lon="5.54214">
        <ele>506.2</ele>
        <time>2022-06-06T14:10:47Z</time>
      </trkpt>
      <trkpt lat="46.23703" lon="5.54225">
        <ele>504.8</ele>
        <time>2022-06-06T14:10:49Z</time>
      </trkpt>
      <trkpt lat="46.23737" lon="5.54239">
        <ele>503.6</ele>
        <time>2022-06-06T14:10:52Z</time>
      </trkpt>
      <trkpt lat="46.23764" lon="5.5425">
        <ele>502.2</ele>
        <time>2022-06-06T14:10:54Z</time>
      </trkpt>
      <trkpt lat="46.23798" lon="5.54263">
        <ele>501</ele>
        <time>2022-06-06T14:10:57Z</time>
      </trkpt>
      <trkpt lat="46.2381" lon="5.54267">
        <ele>500.4</ele>
        <time>2022-06-06T14:10:58Z</time>
      </trkpt>
      <trkpt lat="46.23823" lon="5.54271">
        <ele>500</ele>
        <time>2022-06-06T14:10:59Z</time>
      </trkpt>
      <trkpt lat="46.23874" lon="5.54287">
        <ele>498.6</ele>
        <time>2022-06-06T14:11:03Z</time>
      </trkpt>
      <trkpt lat="46.23898" lon="5.54297">
        <ele>498</ele>
        <time>2022-06-06T14:11:05Z</time>
      </trkpt>
      <trkpt lat="46.2391" lon="5.54301">
        <ele>497.6</ele>
        <time>2022-06-06T14:11:06Z</time>
      </trkpt>
      <trkpt lat="46.23934" lon="5.5431">
        <ele>496</ele>
        <time>2022-06-06T14:11:08Z</time>
      </trkpt>
      <trkpt lat="46.23947" lon="5.54315">
        <ele>494.8</ele>
        <time>2022-06-06T14:11:09Z</time>
      </trkpt>
      <trkpt lat="46.23971" lon="5.54324">
        <ele>493.8</ele>
        <time>2022-06-06T14:11:11Z</time>
      </trkpt>
      <trkpt lat="46.24008" lon="5.54334">
        <ele>491.8</ele>
        <time>2022-06-06T14:11:14Z</time>
      </trkpt>
      <trkpt lat="46.24032" lon="5.5434">
        <ele>490.6</ele>
        <time>2022-06-06T14:11:16Z</time>
      </trkpt>
      <trkpt lat="46.24057" lon="5.54347">
        <ele>489.6</ele>
        <time>2022-06-06T14:11:18Z</time>
      </trkpt>
      <trkpt lat="46.2408" lon="5.54359">
        <ele>488.4</ele>
        <time>2022-06-06T14:11:20Z</time>
      </trkpt>
      <trkpt lat="46.24091" lon="5.54367">
        <ele>487.6</ele>
        <time>2022-06-06T14:11:21Z</time>
      </trkpt>
      <trkpt lat="46.24101" lon="5.54377">
        <ele>487.2</ele>
        <time>2022-06-06T14:11:22Z</time>
      </trkpt>
      <trkpt lat="46.24111" lon="5.54388">
        <ele>486</ele>
        <time>2022-06-06T14:11:23Z</time>
      </trkpt>
      <trkpt lat="46.24129" lon="5.54411">
        <ele>484.8</ele>
        <time>2022-06-06T14:11:25Z</time>
      </trkpt>
      <trkpt lat="46.24147" lon="5.54433">
        <ele>483.8</ele>
        <time>2022-06-06T14:11:27Z</time>
      </trkpt>
      <trkpt lat="46.24175" lon="5.54465">
        <ele>482</ele>
        <time>2022-06-06T14:11:30Z</time>
      </trkpt>
      <trkpt lat="46.24183" lon="5.54473">
        <ele>481.4</ele>
        <time>2022-06-06T14:11:31Z</time>
      </trkpt>
      <trkpt lat="46.24205" lon="5.54493">
        <ele>480.8</ele>
        <time>2022-06-06T14:11:33Z</time>
      </trkpt>
      <trkpt lat="46.24214" lon="5.54497">
        <ele>480.2</ele>
        <time>2022-06-06T14:11:34Z</time>
      </trkpt>
      <trkpt lat="46.24227" lon="5.54502">
        <ele>479.2</ele>
        <time>2022-06-06T14:11:35Z</time>
      </trkpt>
      <trkpt lat="46.2425" lon="5.54507">
        <ele>477.8</ele>
        <time>2022-06-06T14:11:37Z</time>
      </trkpt>
      <trkpt lat="46.24262" lon="5.54507">
        <ele>476.8</ele>
        <time>2022-06-06T14:11:38Z</time>
      </trkpt>
      <trkpt lat="46.2427" lon="5.54507">
        <ele>476.4</ele>
        <time>2022-06-06T14:11:39Z</time>
      </trkpt>
      <trkpt lat="46.24305" lon="5.54504">
        <ele>475.4</ele>
        <time>2022-06-06T14:11:42Z</time>
      </trkpt>
      <trkpt lat="46.24326" lon="5.54509">
        <ele>474.8</ele>
        <time>2022-06-06T14:11:44Z</time>
      </trkpt>
      <trkpt lat="46.24335" lon="5.54515">
        <ele>474.6</ele>
        <time>2022-06-06T14:11:45Z</time>
      </trkpt>
      <trkpt lat="46.24354" lon="5.54526">
        <ele>474.4</ele>
        <time>2022-06-06T14:11:47Z</time>
      </trkpt>
      <trkpt lat="46.24392" lon="5.54548">
        <ele>474.2</ele>
        <time>2022-06-06T14:11:51Z</time>
      </trkpt>
      <trkpt lat="46.2445" lon="5.54584">
        <ele>474</ele>
        <time>2022-06-06T14:11:57Z</time>
      </trkpt>
      <trkpt lat="46.2446" lon="5.5459">
        <ele>474</ele>
        <time>2022-06-06T14:11:58Z</time>
      </trkpt>
      <trkpt lat="46.24518" lon="5.54623">
        <ele>473.6</ele>
        <time>2022-06-06T14:12:04Z</time>
      </trkpt>
      <trkpt lat="46.24545" lon="5.54639">
        <ele>473.4</ele>
        <time>2022-06-06T14:12:07Z</time>
      </trkpt>
      <trkpt lat="46.24556" lon="5.54645">
        <ele>473</ele>
        <time>2022-06-06T14:12:08Z</time>
      </trkpt>
      <trkpt lat="46.24612" lon="5.54675">
        <ele>472.8</ele>
        <time>2022-06-06T14:12:14Z</time>
      </trkpt>
      <trkpt lat="46.24621" lon="5.54679">
        <ele>472.6</ele>
        <time>2022-06-06T14:12:15Z</time>
      </trkpt>
      <trkpt lat="46.24658" lon="5.54687">
        <ele>472.6</ele>
        <time>2022-06-06T14:12:19Z</time>
      </trkpt>
      <trkpt lat="46.2472" lon="5.54686">
        <ele>472.8</ele>
        <time>2022-06-06T14:12:26Z</time>
      </trkpt>
      <trkpt lat="46.24728" lon="5.54686">
        <ele>472.8</ele>
        <time>2022-06-06T14:12:27Z</time>
      </trkpt>
      <trkpt lat="46.24763" lon="5.54689">
        <ele>473</ele>
        <time>2022-06-06T14:12:31Z</time>
      </trkpt>
      <trkpt lat="46.24772" lon="5.54693">
        <ele>473</ele>
        <time>2022-06-06T14:12:32Z</time>
      </trkpt>
      <trkpt lat="46.24821" lon="5.54722">
        <ele>472.8</ele>
        <time>2022-06-06T14:12:38Z</time>
      </trkpt>
      <trkpt lat="46.24879" lon="5.54754">
        <ele>472.4</ele>
        <time>2022-06-06T14:12:45Z</time>
      </trkpt>
      <trkpt lat="46.24912" lon="5.54768">
        <ele>472.2</ele>
        <time>2022-06-06T14:12:49Z</time>
      </trkpt>
      <trkpt lat="46.24938" lon="5.54777">
        <ele>471.6</ele>
        <time>2022-06-06T14:12:52Z</time>
      </trkpt>
      <trkpt lat="46.24947" lon="5.54778">
        <ele>471.6</ele>
        <time>2022-06-06T14:12:53Z</time>
      </trkpt>
      <trkpt lat="46.24976" lon="5.54775">
        <ele>471</ele>
        <time>2022-06-06T14:12:56Z</time>
      </trkpt>
      <trkpt lat="46.24995" lon="5.54772">
        <ele>470.2</ele>
        <time>2022-06-06T14:12:58Z</time>
      </trkpt>
      <trkpt lat="46.25004" lon="5.54772">
        <ele>470</ele>
        <time>2022-06-06T14:12:59Z</time>
      </trkpt>
      <trkpt lat="46.2504" lon="5.54778">
        <ele>469.2</ele>
        <time>2022-06-06T14:13:03Z</time>
      </trkpt>
      <trkpt lat="46.2508" lon="5.54797">
        <ele>469.2</ele>
        <time>2022-06-06T14:13:08Z</time>
      </trkpt>
      <trkpt lat="46.25131" lon="5.54825">
        <ele>470.8</ele>
        <time>2022-06-06T14:13:15Z</time>
      </trkpt>
      <trkpt lat="46.25146" lon="5.54833">
        <ele>471</ele>
        <time>2022-06-06T14:13:17Z</time>
      </trkpt>
      <trkpt lat="46.2519" lon="5.54859">
        <ele>471.6</ele>
        <time>2022-06-06T14:13:23Z</time>
      </trkpt>
      <trkpt lat="46.25203" lon="5.54866">
        <ele>471.4</ele>
        <time>2022-06-06T14:13:25Z</time>
      </trkpt>
      <trkpt lat="46.25255" lon="5.54895">
        <ele>471</ele>
        <time>2022-06-06T14:13:32Z</time>
      </trkpt>
      <trkpt lat="46.25268" lon="5.54903">
        <ele>471.4</ele>
        <time>2022-06-06T14:13:34Z</time>
      </trkpt>
      <trkpt lat="46.25319" lon="5.54934">
        <ele>471.4</ele>
        <time>2022-06-06T14:13:41Z</time>
      </trkpt>
      <trkpt lat="46.25326" lon="5.54938">
        <ele>471.4</ele>
        <time>2022-06-06T14:13:42Z</time>
      </trkpt>
      <trkpt lat="46.25382" lon="5.54971">
        <ele>471.4</ele>
        <time>2022-06-06T14:13:50Z</time>
      </trkpt>
      <trkpt lat="46.2539" lon="5.54975">
        <ele>471.4</ele>
        <time>2022-06-06T14:13:51Z</time>
      </trkpt>
      <trkpt lat="46.25447" lon="5.5501">
        <ele>471.4</ele>
        <time>2022-06-06T14:13:59Z</time>
      </trkpt>
      <trkpt lat="46.25454" lon="5.55015">
        <ele>471.6</ele>
        <time>2022-06-06T14:14:00Z</time>
      </trkpt>
      <trkpt lat="46.25508" lon="5.55052">
        <ele>471.8</ele>
        <time>2022-06-06T14:14:08Z</time>
      </trkpt>
      <trkpt lat="46.25517" lon="5.55057">
        <ele>471.8</ele>
        <time>2022-06-06T14:14:09Z</time>
      </trkpt>
      <trkpt lat="46.25573" lon="5.55091">
        <ele>471.4</ele>
        <time>2022-06-06T14:14:17Z</time>
      </trkpt>
      <trkpt lat="46.25623" lon="5.55122">
        <ele>470.8</ele>
        <time>2022-06-06T14:14:24Z</time>
      </trkpt>
      <trkpt lat="46.25637" lon="5.55131">
        <ele>470.8</ele>
        <time>2022-06-06T14:14:26Z</time>
      </trkpt>
      <trkpt lat="46.25679" lon="5.55162">
        <ele>470.6</ele>
        <time>2022-06-06T14:14:32Z</time>
      </trkpt>
      <trkpt lat="46.25729" lon="5.55195">
        <ele>470.4</ele>
        <time>2022-06-06T14:14:39Z</time>
      </trkpt>
      <trkpt lat="46.2575" lon="5.5521">
        <ele>470.2</ele>
        <time>2022-06-06T14:14:42Z</time>
      </trkpt>
      <trkpt lat="46.25802" lon="5.55254">
        <ele>469.6</ele>
        <time>2022-06-06T14:14:50Z</time>
      </trkpt>
      <trkpt lat="46.25808" lon="5.5526">
        <ele>469.6</ele>
        <time>2022-06-06T14:14:51Z</time>
      </trkpt>
      <trkpt lat="46.25848" lon="5.55312">
        <ele>470</ele>
        <time>2022-06-06T14:14:58Z</time>
      </trkpt>
      <trkpt lat="46.25874" lon="5.55338">
        <ele>470</ele>
        <time>2022-06-06T14:15:02Z</time>
      </trkpt>
      <trkpt lat="46.25888" lon="5.55347">
        <ele>470</ele>
        <time>2022-06-06T14:15:04Z</time>
      </trkpt>
      <trkpt lat="46.25936" lon="5.5538">
        <ele>469.8</ele>
        <time>2022-06-06T14:15:11Z</time>
      </trkpt>
      <trkpt lat="46.25958" lon="5.55394">
        <ele>469.4</ele>
        <time>2022-06-06T14:15:14Z</time>
      </trkpt>
      <trkpt lat="46.25975" lon="5.55401">
        <ele>468.8</ele>
        <time>2022-06-06T14:15:16Z</time>
      </trkpt>
      <trkpt lat="46.25985" lon="5.55405">
        <ele>468.2</ele>
        <time>2022-06-06T14:15:17Z</time>
      </trkpt>
      <trkpt lat="46.26017" lon="5.5542">
        <ele>467</ele>
        <time>2022-06-06T14:15:21Z</time>
      </trkpt>
      <trkpt lat="46.26043" lon="5.5543">
        <ele>466.2</ele>
        <time>2022-06-06T14:15:24Z</time>
      </trkpt>
      <trkpt lat="46.26052" lon="5.55432">
        <ele>465.8</ele>
        <time>2022-06-06T14:15:25Z</time>
      </trkpt>
      <trkpt lat="46.26071" lon="5.55437">
        <ele>465.2</ele>
        <time>2022-06-06T14:15:27Z</time>
      </trkpt>
      <trkpt lat="46.2608" lon="5.55439">
        <ele>464.6</ele>
        <time>2022-06-06T14:15:28Z</time>
      </trkpt>
      <trkpt lat="46.26089" lon="5.55441">
        <ele>464.4</ele>
        <time>2022-06-06T14:15:29Z</time>
      </trkpt>
      <trkpt lat="46.26098" lon="5.55445">
        <ele>464</ele>
        <time>2022-06-06T14:15:30Z</time>
      </trkpt>
      <trkpt lat="46.26105" lon="5.55449">
        <ele>463.6</ele>
        <time>2022-06-06T14:15:31Z</time>
      </trkpt>
      <trkpt lat="46.26118" lon="5.55456">
        <ele>462.2</ele>
        <time>2022-06-06T14:15:33Z</time>
      </trkpt>
      <trkpt lat="46.26124" lon="5.5546">
        <ele>462</ele>
        <time>2022-06-06T14:15:34Z</time>
      </trkpt>
      <trkpt lat="46.26132" lon="5.55466">
        <ele>461.2</ele>
        <time>2022-06-06T14:15:36Z</time>
      </trkpt>
      <trkpt lat="46.26135" lon="5.55469">
        <ele>461.2</ele>
        <time>2022-06-06T14:15:37Z</time>
      </trkpt>
      <trkpt lat="46.26137" lon="5.55471">
        <ele>461</ele>
        <time>2022-06-06T14:15:38Z</time>
      </trkpt>
      <trkpt lat="46.26139" lon="5.55484">
        <ele>460.6</ele>
        <time>2022-06-06T14:15:42Z</time>
      </trkpt>
      <trkpt lat="46.26146" lon="5.55486">
        <ele>460.4</ele>
        <time>2022-06-06T14:15:45Z</time>
      </trkpt>
      <trkpt lat="46.26146" lon="5.55482">
        <ele>460.2</ele>
        <time>2022-06-06T14:15:47Z</time>
      </trkpt>
      <trkpt lat="46.26144" lon="5.55481">
        <ele>460.2</ele>
        <time>2022-06-06T14:15:48Z</time>
      </trkpt>
      <trkpt lat="46.26143" lon="5.55479">
        <ele>460</ele>
        <time>2022-06-06T14:15:49Z</time>
      </trkpt>
      <trkpt lat="46.26142" lon="5.55474">
        <ele>460</ele>
        <time>2022-06-06T14:15:51Z</time>
      </trkpt>
      <trkpt lat="46.26142" lon="5.5547">
        <ele>460</ele>
        <time>2022-06-06T14:15:52Z</time>
      </trkpt>
      <trkpt lat="46.26147" lon="5.55453">
        <ele>460</ele>
        <time>2022-06-06T14:15:55Z</time>
      </trkpt>
      <trkpt lat="46.26148" lon="5.55446">
        <ele>460.2</ele>
        <time>2022-06-06T14:15:56Z</time>
      </trkpt>
      <trkpt lat="46.26154" lon="5.5541">
        <ele>460.8</ele>
        <time>2022-06-06T14:16:01Z</time>
      </trkpt>
      <trkpt lat="46.26159" lon="5.55398">
        <ele>461.2</ele>
        <time>2022-06-06T14:16:03Z</time>
      </trkpt>
      <trkpt lat="46.26171" lon="5.55383">
        <ele>462.4</ele>
        <time>2022-06-06T14:16:07Z</time>
      </trkpt>
      <trkpt lat="46.26176" lon="5.55378">
        <ele>462.6</ele>
        <time>2022-06-06T14:16:09Z</time>
      </trkpt>
      <trkpt lat="46.26183" lon="5.55364">
        <ele>463.2</ele>
        <time>2022-06-06T14:16:13Z</time>
      </trkpt>
      <trkpt lat="46.26188" lon="5.55356">
        <ele>463.4</ele>
        <time>2022-06-06T14:16:15Z</time>
      </trkpt>
      <trkpt lat="46.26194" lon="5.55346">
        <ele>463.4</ele>
        <time>2022-06-06T14:16:17Z</time>
      </trkpt>
      <trkpt lat="46.26196" lon="5.55341">
        <ele>463.4</ele>
        <time>2022-06-06T14:16:18Z</time>
      </trkpt>
      <trkpt lat="46.26206" lon="5.55318">
        <ele>463.4</ele>
        <time>2022-06-06T14:16:21Z</time>
      </trkpt>
      <trkpt lat="46.26211" lon="5.55301">
        <ele>463</ele>
        <time>2022-06-06T14:16:23Z</time>
      </trkpt>
      <trkpt lat="46.26221" lon="5.55272">
        <ele>461.8</ele>
        <time>2022-06-06T14:16:26Z</time>
      </trkpt>
      <trkpt lat="46.26227" lon="5.55249">
        <ele>461.2</ele>
        <time>2022-06-06T14:16:28Z</time>
      </trkpt>
      <trkpt lat="46.26228" lon="5.55225">
        <ele>460.6</ele>
        <time>2022-06-06T14:16:30Z</time>
      </trkpt>
      <trkpt lat="46.26226" lon="5.55214">
        <ele>460.2</ele>
        <time>2022-06-06T14:16:31Z</time>
      </trkpt>
      <trkpt lat="46.2622" lon="5.55188">
        <ele>459.6</ele>
        <time>2022-06-06T14:16:33Z</time>
      </trkpt>
      <trkpt lat="46.26215" lon="5.5516">
        <ele>458.8</ele>
        <time>2022-06-06T14:16:35Z</time>
      </trkpt>
      <trkpt lat="46.26215" lon="5.55145">
        <ele>458.2</ele>
        <time>2022-06-06T14:16:36Z</time>
      </trkpt>
      <trkpt lat="46.26219" lon="5.55115">
        <ele>456.4</ele>
        <time>2022-06-06T14:16:38Z</time>
      </trkpt>
      <trkpt lat="46.26222" lon="5.55084">
        <ele>455.2</ele>
        <time>2022-06-06T14:16:40Z</time>
      </trkpt>
      <trkpt lat="46.26225" lon="5.55068">
        <ele>455</ele>
        <time>2022-06-06T14:16:41Z</time>
      </trkpt>
      <trkpt lat="46.26228" lon="5.55051">
        <ele>453.8</ele>
        <time>2022-06-06T14:16:42Z</time>
      </trkpt>
      <trkpt lat="46.26235" lon="5.55016">
        <ele>452.4</ele>
        <time>2022-06-06T14:16:44Z</time>
      </trkpt>
      <trkpt lat="46.26243" lon="5.54981">
        <ele>451.2</ele>
        <time>2022-06-06T14:16:46Z</time>
      </trkpt>
      <trkpt lat="46.26247" lon="5.54964">
        <ele>450</ele>
        <time>2022-06-06T14:16:47Z</time>
      </trkpt>
      <trkpt lat="46.26256" lon="5.54928">
        <ele>448.4</ele>
        <time>2022-06-06T14:16:49Z</time>
      </trkpt>
      <trkpt lat="46.26267" lon="5.54893">
        <ele>447.2</ele>
        <time>2022-06-06T14:16:51Z</time>
      </trkpt>
      <trkpt lat="46.26272" lon="5.54876">
        <ele>446.2</ele>
        <time>2022-06-06T14:16:52Z</time>
      </trkpt>
      <trkpt lat="46.26285" lon="5.54841">
        <ele>444.6</ele>
        <time>2022-06-06T14:16:54Z</time>
      </trkpt>
      <trkpt lat="46.26292" lon="5.54825">
        <ele>444.4</ele>
        <time>2022-06-06T14:16:55Z</time>
      </trkpt>
      <trkpt lat="46.26303" lon="5.54812">
        <ele>443.4</ele>
        <time>2022-06-06T14:16:56Z</time>
      </trkpt>
      <trkpt lat="46.26314" lon="5.54802">
        <ele>442.6</ele>
        <time>2022-06-06T14:16:57Z</time>
      </trkpt>
      <trkpt lat="46.26326" lon="5.54793">
        <ele>441.6</ele>
        <time>2022-06-06T14:16:58Z</time>
      </trkpt>
      <trkpt lat="46.26339" lon="5.54787">
        <ele>439.6</ele>
        <time>2022-06-06T14:16:59Z</time>
      </trkpt>
      <trkpt lat="46.26364" lon="5.54776">
        <ele>437.6</ele>
        <time>2022-06-06T14:17:01Z</time>
      </trkpt>
      <trkpt lat="46.2639" lon="5.54769">
        <ele>435.8</ele>
        <time>2022-06-06T14:17:03Z</time>
      </trkpt>
      <trkpt lat="46.26417" lon="5.54771">
        <ele>434.4</ele>
        <time>2022-06-06T14:17:05Z</time>
      </trkpt>
      <trkpt lat="46.26431" lon="5.54775">
        <ele>433.4</ele>
        <time>2022-06-06T14:17:06Z</time>
      </trkpt>
      <trkpt lat="46.26444" lon="5.54779">
        <ele>432.8</ele>
        <time>2022-06-06T14:17:07Z</time>
      </trkpt>
      <trkpt lat="46.26458" lon="5.54784">
        <ele>431.6</ele>
        <time>2022-06-06T14:17:08Z</time>
      </trkpt>
      <trkpt lat="46.26484" lon="5.54791">
        <ele>430.6</ele>
        <time>2022-06-06T14:17:10Z</time>
      </trkpt>
      <trkpt lat="46.26497" lon="5.54796">
        <ele>430</ele>
        <time>2022-06-06T14:17:11Z</time>
      </trkpt>
      <trkpt lat="46.2651" lon="5.54803">
        <ele>429</ele>
        <time>2022-06-06T14:17:12Z</time>
      </trkpt>
      <trkpt lat="46.26523" lon="5.54811">
        <ele>427.8</ele>
        <time>2022-06-06T14:17:13Z</time>
      </trkpt>
      <trkpt lat="46.26535" lon="5.5482">
        <ele>427</ele>
        <time>2022-06-06T14:17:14Z</time>
      </trkpt>
      <trkpt lat="46.26547" lon="5.54829">
        <ele>425.2</ele>
        <time>2022-06-06T14:17:15Z</time>
      </trkpt>
      <trkpt lat="46.26571" lon="5.54846">
        <ele>423.8</ele>
        <time>2022-06-06T14:17:17Z</time>
      </trkpt>
      <trkpt lat="46.26596" lon="5.54859">
        <ele>422.6</ele>
        <time>2022-06-06T14:17:19Z</time>
      </trkpt>
      <trkpt lat="46.26621" lon="5.54868">
        <ele>421.4</ele>
        <time>2022-06-06T14:17:21Z</time>
      </trkpt>
      <trkpt lat="46.26634" lon="5.54871">
        <ele>420.6</ele>
        <time>2022-06-06T14:17:22Z</time>
      </trkpt>
      <trkpt lat="46.26648" lon="5.54874">
        <ele>419.8</ele>
        <time>2022-06-06T14:17:23Z</time>
      </trkpt>
      <trkpt lat="46.26662" lon="5.54877">
        <ele>418.4</ele>
        <time>2022-06-06T14:17:24Z</time>
      </trkpt>
      <trkpt lat="46.26675" lon="5.54882">
        <ele>417.8</ele>
        <time>2022-06-06T14:17:25Z</time>
      </trkpt>
      <trkpt lat="46.26689" lon="5.54888">
        <ele>416.8</ele>
        <time>2022-06-06T14:17:26Z</time>
      </trkpt>
      <trkpt lat="46.26702" lon="5.54895">
        <ele>415.8</ele>
        <time>2022-06-06T14:17:27Z</time>
      </trkpt>
      <trkpt lat="46.26715" lon="5.54901">
        <ele>415.4</ele>
        <time>2022-06-06T14:17:28Z</time>
      </trkpt>
      <trkpt lat="46.26727" lon="5.54908">
        <ele>414</ele>
        <time>2022-06-06T14:17:29Z</time>
      </trkpt>
      <trkpt lat="46.26753" lon="5.54922">
        <ele>412</ele>
        <time>2022-06-06T14:17:31Z</time>
      </trkpt>
      <trkpt lat="46.26765" lon="5.54926">
        <ele>411.4</ele>
        <time>2022-06-06T14:17:32Z</time>
      </trkpt>
      <trkpt lat="46.26778" lon="5.54927">
        <ele>410</ele>
        <time>2022-06-06T14:17:33Z</time>
      </trkpt>
      <trkpt lat="46.26792" lon="5.54927">
        <ele>409</ele>
        <time>2022-06-06T14:17:34Z</time>
      </trkpt>
      <trkpt lat="46.2682" lon="5.54929">
        <ele>407.4</ele>
        <time>2022-06-06T14:17:36Z</time>
      </trkpt>
      <trkpt lat="46.26833" lon="5.54934">
        <ele>407</ele>
        <time>2022-06-06T14:17:37Z</time>
      </trkpt>
      <trkpt lat="46.26846" lon="5.54942">
        <ele>406</ele>
        <time>2022-06-06T14:17:38Z</time>
      </trkpt>
      <trkpt lat="46.26869" lon="5.54963">
        <ele>404.2</ele>
        <time>2022-06-06T14:17:40Z</time>
      </trkpt>
      <trkpt lat="46.26879" lon="5.54976">
        <ele>403</ele>
        <time>2022-06-06T14:17:41Z</time>
      </trkpt>
      <trkpt lat="46.26899" lon="5.55002">
        <ele>401</ele>
        <time>2022-06-06T14:17:43Z</time>
      </trkpt>
      <trkpt lat="46.26918" lon="5.55029">
        <ele>399.2</ele>
        <time>2022-06-06T14:17:45Z</time>
      </trkpt>
      <trkpt lat="46.26937" lon="5.55056">
        <ele>397.2</ele>
        <time>2022-06-06T14:17:47Z</time>
      </trkpt>
      <trkpt lat="46.26956" lon="5.55084">
        <ele>395.8</ele>
        <time>2022-06-06T14:17:49Z</time>
      </trkpt>
      <trkpt lat="46.26965" lon="5.55097">
        <ele>394.2</ele>
        <time>2022-06-06T14:17:50Z</time>
      </trkpt>
      <trkpt lat="46.26988" lon="5.55117">
        <ele>392.4</ele>
        <time>2022-06-06T14:17:52Z</time>
      </trkpt>
      <trkpt lat="46.27" lon="5.55122">
        <ele>391.8</ele>
        <time>2022-06-06T14:17:53Z</time>
      </trkpt>
      <trkpt lat="46.27013" lon="5.55127">
        <ele>390.6</ele>
        <time>2022-06-06T14:17:54Z</time>
      </trkpt>
      <trkpt lat="46.27026" lon="5.55132">
        <ele>389.2</ele>
        <time>2022-06-06T14:17:55Z</time>
      </trkpt>
      <trkpt lat="46.27052" lon="5.55141">
        <ele>388</ele>
        <time>2022-06-06T14:17:57Z</time>
      </trkpt>
      <trkpt lat="46.27064" lon="5.55148">
        <ele>387.6</ele>
        <time>2022-06-06T14:17:58Z</time>
      </trkpt>
      <trkpt lat="46.27089" lon="5.55166">
        <ele>386.8</ele>
        <time>2022-06-06T14:18:00Z</time>
      </trkpt>
      <trkpt lat="46.27113" lon="5.55185">
        <ele>384.8</ele>
        <time>2022-06-06T14:18:02Z</time>
      </trkpt>
      <trkpt lat="46.27137" lon="5.55201">
        <ele>383.4</ele>
        <time>2022-06-06T14:18:04Z</time>
      </trkpt>
      <trkpt lat="46.27162" lon="5.55214">
        <ele>381.8</ele>
        <time>2022-06-06T14:18:06Z</time>
      </trkpt>
      <trkpt lat="46.27175" lon="5.55219">
        <ele>381.2</ele>
        <time>2022-06-06T14:18:07Z</time>
      </trkpt>
      <trkpt lat="46.27188" lon="5.55224">
        <ele>379.8</ele>
        <time>2022-06-06T14:18:08Z</time>
      </trkpt>
      <trkpt lat="46.27201" lon="5.55228">
        <ele>378.4</ele>
        <time>2022-06-06T14:18:09Z</time>
      </trkpt>
      <trkpt lat="46.27227" lon="5.55239">
        <ele>376.2</ele>
        <time>2022-06-06T14:18:11Z</time>
      </trkpt>
      <trkpt lat="46.27239" lon="5.55247">
        <ele>376</ele>
        <time>2022-06-06T14:18:12Z</time>
      </trkpt>
      <trkpt lat="46.27251" lon="5.55254">
        <ele>375.2</ele>
        <time>2022-06-06T14:18:13Z</time>
      </trkpt>
      <trkpt lat="46.27276" lon="5.55268">
        <ele>373.6</ele>
        <time>2022-06-06T14:18:15Z</time>
      </trkpt>
      <trkpt lat="46.27288" lon="5.55273">
        <ele>372.8</ele>
        <time>2022-06-06T14:18:16Z</time>
      </trkpt>
      <trkpt lat="46.273" lon="5.55276">
        <ele>371.8</ele>
        <time>2022-06-06T14:18:17Z</time>
      </trkpt>
      <trkpt lat="46.27312" lon="5.55278">
        <ele>370.4</ele>
        <time>2022-06-06T14:18:18Z</time>
      </trkpt>
      <trkpt lat="46.27334" lon="5.55279">
        <ele>369.6</ele>
        <time>2022-06-06T14:18:20Z</time>
      </trkpt>
      <trkpt lat="46.27345" lon="5.55278">
        <ele>369</ele>
        <time>2022-06-06T14:18:21Z</time>
      </trkpt>
      <trkpt lat="46.27355" lon="5.55273">
        <ele>368</ele>
        <time>2022-06-06T14:18:22Z</time>
      </trkpt>
      <trkpt lat="46.27363" lon="5.55265">
        <ele>367</ele>
        <time>2022-06-06T14:18:23Z</time>
      </trkpt>
      <trkpt lat="46.27375" lon="5.5524">
        <ele>365.8</ele>
        <time>2022-06-06T14:18:25Z</time>
      </trkpt>
      <trkpt lat="46.27375" lon="5.55209">
        <ele>364.8</ele>
        <time>2022-06-06T14:18:27Z</time>
      </trkpt>
      <trkpt lat="46.27372" lon="5.55193">
        <ele>364.2</ele>
        <time>2022-06-06T14:18:28Z</time>
      </trkpt>
      <trkpt lat="46.27368" lon="5.55178">
        <ele>363.2</ele>
        <time>2022-06-06T14:18:29Z</time>
      </trkpt>
      <trkpt lat="46.27363" lon="5.55163">
        <ele>362.4</ele>
        <time>2022-06-06T14:18:30Z</time>
      </trkpt>
      <trkpt lat="46.27356" lon="5.55149">
        <ele>362</ele>
        <time>2022-06-06T14:18:31Z</time>
      </trkpt>
      <trkpt lat="46.27348" lon="5.55136">
        <ele>361.2</ele>
        <time>2022-06-06T14:18:32Z</time>
      </trkpt>
      <trkpt lat="46.2734" lon="5.55123">
        <ele>360.8</ele>
        <time>2022-06-06T14:18:33Z</time>
      </trkpt>
      <trkpt lat="46.27331" lon="5.5511">
        <ele>359.6</ele>
        <time>2022-06-06T14:18:34Z</time>
      </trkpt>
      <trkpt lat="46.27314" lon="5.55084">
        <ele>357.8</ele>
        <time>2022-06-06T14:18:36Z</time>
      </trkpt>
      <trkpt lat="46.27304" lon="5.55071">
        <ele>357</ele>
        <time>2022-06-06T14:18:37Z</time>
      </trkpt>
      <trkpt lat="46.27295" lon="5.55057">
        <ele>356.2</ele>
        <time>2022-06-06T14:18:38Z</time>
      </trkpt>
      <trkpt lat="46.27275" lon="5.55029">
        <ele>355</ele>
        <time>2022-06-06T14:18:40Z</time>
      </trkpt>
      <trkpt lat="46.27265" lon="5.55015">
        <ele>353.6</ele>
        <time>2022-06-06T14:18:41Z</time>
      </trkpt>
      <trkpt lat="46.27241" lon="5.5499">
        <ele>352.2</ele>
        <time>2022-06-06T14:18:43Z</time>
      </trkpt>
      <trkpt lat="46.27217" lon="5.54968">
        <ele>350.8</ele>
        <time>2022-06-06T14:18:45Z</time>
      </trkpt>
      <trkpt lat="46.27206" lon="5.54957">
        <ele>349.4</ele>
        <time>2022-06-06T14:18:46Z</time>
      </trkpt>
      <trkpt lat="46.27182" lon="5.54935">
        <ele>348</ele>
        <time>2022-06-06T14:18:48Z</time>
      </trkpt>
      <trkpt lat="46.27158" lon="5.54911">
        <ele>345.8</ele>
        <time>2022-06-06T14:18:50Z</time>
      </trkpt>
      <trkpt lat="46.27135" lon="5.54885">
        <ele>344</ele>
        <time>2022-06-06T14:18:52Z</time>
      </trkpt>
      <trkpt lat="46.27124" lon="5.54872">
        <ele>342.8</ele>
        <time>2022-06-06T14:18:53Z</time>
      </trkpt>
      <trkpt lat="46.27101" lon="5.54846">
        <ele>340.6</ele>
        <time>2022-06-06T14:18:55Z</time>
      </trkpt>
      <trkpt lat="46.2708" lon="5.54817">
        <ele>338.6</ele>
        <time>2022-06-06T14:18:57Z</time>
      </trkpt>
      <trkpt lat="46.27046" lon="5.5478">
        <ele>335.8</ele>
        <time>2022-06-06T14:19:00Z</time>
      </trkpt>
      <trkpt lat="46.27024" lon="5.54757">
        <ele>334</ele>
        <time>2022-06-06T14:19:02Z</time>
      </trkpt>
      <trkpt lat="46.27002" lon="5.5474">
        <ele>331.6</ele>
        <time>2022-06-06T14:19:04Z</time>
      </trkpt>
      <trkpt lat="46.26988" lon="5.54733">
        <ele>331</ele>
        <time>2022-06-06T14:19:05Z</time>
      </trkpt>
      <trkpt lat="46.26973" lon="5.54726">
        <ele>330.2</ele>
        <time>2022-06-06T14:19:06Z</time>
      </trkpt>
      <trkpt lat="46.26946" lon="5.54711">
        <ele>329</ele>
        <time>2022-06-06T14:19:08Z</time>
      </trkpt>
      <trkpt lat="46.26932" lon="5.54703">
        <ele>328</ele>
        <time>2022-06-06T14:19:09Z</time>
      </trkpt>
      <trkpt lat="46.26921" lon="5.54694">
        <ele>327.4</ele>
        <time>2022-06-06T14:19:10Z</time>
      </trkpt>
      <trkpt lat="46.2692" lon="5.54677">
        <ele>326.8</ele>
        <time>2022-06-06T14:19:11Z</time>
      </trkpt>
      <trkpt lat="46.26919" lon="5.54659">
        <ele>326.4</ele>
        <time>2022-06-06T14:19:12Z</time>
      </trkpt>
      <trkpt lat="46.26919" lon="5.54641">
        <ele>324.6</ele>
        <time>2022-06-06T14:19:13Z</time>
      </trkpt>
      <trkpt lat="46.26921" lon="5.54624">
        <ele>323.4</ele>
        <time>2022-06-06T14:19:14Z</time>
      </trkpt>
      <trkpt lat="46.26923" lon="5.54603">
        <ele>323</ele>
        <time>2022-06-06T14:19:15Z</time>
      </trkpt>
      <trkpt lat="46.26923" lon="5.54582">
        <ele>321.8</ele>
        <time>2022-06-06T14:19:16Z</time>
      </trkpt>
      <trkpt lat="46.26922" lon="5.54561">
        <ele>321</ele>
        <time>2022-06-06T14:19:17Z</time>
      </trkpt>
      <trkpt lat="46.26919" lon="5.5454">
        <ele>319.8</ele>
        <time>2022-06-06T14:19:18Z</time>
      </trkpt>
      <trkpt lat="46.26913" lon="5.54521">
        <ele>319.6</ele>
        <time>2022-06-06T14:19:19Z</time>
      </trkpt>
      <trkpt lat="46.26905" lon="5.54503">
        <ele>318.8</ele>
        <time>2022-06-06T14:19:20Z</time>
      </trkpt>
      <trkpt lat="46.26891" lon="5.54465">
        <ele>317.8</ele>
        <time>2022-06-06T14:19:22Z</time>
      </trkpt>
      <trkpt lat="46.26884" lon="5.54447">
        <ele>317</ele>
        <time>2022-06-06T14:19:23Z</time>
      </trkpt>
      <trkpt lat="46.26879" lon="5.54427">
        <ele>316.6</ele>
        <time>2022-06-06T14:19:24Z</time>
      </trkpt>
      <trkpt lat="46.26875" lon="5.54408">
        <ele>315.2</ele>
        <time>2022-06-06T14:19:25Z</time>
      </trkpt>
      <trkpt lat="46.26871" lon="5.54388">
        <ele>314.4</ele>
        <time>2022-06-06T14:19:26Z</time>
      </trkpt>
      <trkpt lat="46.26867" lon="5.54368">
        <ele>313.2</ele>
        <time>2022-06-06T14:19:27Z</time>
      </trkpt>
      <trkpt lat="46.26861" lon="5.54326">
        <ele>312.2</ele>
        <time>2022-06-06T14:19:29Z</time>
      </trkpt>
      <trkpt lat="46.26858" lon="5.54285">
        <ele>310.8</ele>
        <time>2022-06-06T14:19:31Z</time>
      </trkpt>
      <trkpt lat="46.2686" lon="5.54244">
        <ele>309.6</ele>
        <time>2022-06-06T14:19:33Z</time>
      </trkpt>
      <trkpt lat="46.26863" lon="5.54224">
        <ele>308.4</ele>
        <time>2022-06-06T14:19:34Z</time>
      </trkpt>
      <trkpt lat="46.26865" lon="5.54205">
        <ele>307.2</ele>
        <time>2022-06-06T14:19:35Z</time>
      </trkpt>
      <trkpt lat="46.26868" lon="5.54168">
        <ele>305.4</ele>
        <time>2022-06-06T14:19:37Z</time>
      </trkpt>
      <trkpt lat="46.26872" lon="5.54118">
        <ele>304.2</ele>
        <time>2022-06-06T14:19:40Z</time>
      </trkpt>
      <trkpt lat="46.26875" lon="5.54048">
        <ele>304</ele>
        <time>2022-06-06T14:19:45Z</time>
      </trkpt>
      <trkpt lat="46.26874" lon="5.54035">
        <ele>304</ele>
        <time>2022-06-06T14:19:46Z</time>
      </trkpt>
      <trkpt lat="46.2687" lon="5.54011">
        <ele>304.2</ele>
        <time>2022-06-06T14:19:48Z</time>
      </trkpt>
      <trkpt lat="46.26867" lon="5.53999">
        <ele>304.2</ele>
        <time>2022-06-06T14:19:49Z</time>
      </trkpt>
      <trkpt lat="46.26863" lon="5.53988">
        <ele>304.2</ele>
        <time>2022-06-06T14:19:50Z</time>
      </trkpt>
      <trkpt lat="46.26858" lon="5.53978">
        <ele>304.4</ele>
        <time>2022-06-06T14:19:51Z</time>
      </trkpt>
      <trkpt lat="46.26853" lon="5.53968">
        <ele>304.6</ele>
        <time>2022-06-06T14:19:52Z</time>
      </trkpt>
      <trkpt lat="46.26814" lon="5.53903">
        <ele>304.4</ele>
        <time>2022-06-06T14:19:59Z</time>
      </trkpt>
      <trkpt lat="46.26796" lon="5.53844">
        <ele>303.6</ele>
        <time>2022-06-06T14:20:04Z</time>
      </trkpt>
      <trkpt lat="46.26792" lon="5.53832">
        <ele>303.4</ele>
        <time>2022-06-06T14:20:05Z</time>
      </trkpt>
      <trkpt lat="46.26782" lon="5.53782">
        <ele>302.6</ele>
        <time>2022-06-06T14:20:09Z</time>
      </trkpt>
      <trkpt lat="46.26778" lon="5.53744">
        <ele>302.2</ele>
        <time>2022-06-06T14:20:12Z</time>
      </trkpt>
      <trkpt lat="46.26773" lon="5.53695">
        <ele>301.6</ele>
        <time>2022-06-06T14:20:16Z</time>
      </trkpt>
      <trkpt lat="46.26772" lon="5.53673">
        <ele>301.6</ele>
        <time>2022-06-06T14:20:18Z</time>
      </trkpt>
      <trkpt lat="46.26774" lon="5.53653">
        <ele>301.6</ele>
        <time>2022-06-06T14:20:20Z</time>
      </trkpt>
      <trkpt lat="46.2678" lon="5.53637">
        <ele>302</ele>
        <time>2022-06-06T14:20:22Z</time>
      </trkpt>
      <trkpt lat="46.26786" lon="5.53623">
        <ele>302.4</ele>
        <time>2022-06-06T14:20:24Z</time>
      </trkpt>
      <trkpt lat="46.26797" lon="5.53614">
        <ele>303.8</ele>
        <time>2022-06-06T14:20:26Z</time>
      </trkpt>
      <trkpt lat="46.26803" lon="5.53612">
        <ele>304.2</ele>
        <time>2022-06-06T14:20:27Z</time>
      </trkpt>
      <trkpt lat="46.26809" lon="5.5361">
        <ele>304.8</ele>
        <time>2022-06-06T14:20:28Z</time>
      </trkpt>
      <trkpt lat="46.26834" lon="5.53606">
        <ele>306</ele>
        <time>2022-06-06T14:20:32Z</time>
      </trkpt>
      <trkpt lat="46.2684" lon="5.53605">
        <ele>306.4</ele>
        <time>2022-06-06T14:20:33Z</time>
      </trkpt>
      <trkpt lat="46.26872" lon="5.53601">
        <ele>306.8</ele>
        <time>2022-06-06T14:20:38Z</time>
      </trkpt>
      <trkpt lat="46.26878" lon="5.53602">
        <ele>306.8</ele>
        <time>2022-06-06T14:20:39Z</time>
      </trkpt>
      <trkpt lat="46.26888" lon="5.53604">
        <ele>306.8</ele>
        <time>2022-06-06T14:20:41Z</time>
      </trkpt>
      <trkpt lat="46.26894" lon="5.53602">
        <ele>306.8</ele>
        <time>2022-06-06T14:20:42Z</time>
      </trkpt>
      <trkpt lat="46.26898" lon="5.53596">
        <ele>306.6</ele>
        <time>2022-06-06T14:20:43Z</time>
      </trkpt>
      <trkpt lat="46.269" lon="5.53588">
        <ele>306.4</ele>
        <time>2022-06-06T14:20:44Z</time>
      </trkpt>
      <trkpt lat="46.26911" lon="5.53533">
        <ele>305.4</ele>
        <time>2022-06-06T14:20:50Z</time>
      </trkpt>
      <trkpt lat="46.26916" lon="5.53505">
        <ele>305.2</ele>
        <time>2022-06-06T14:20:53Z</time>
      </trkpt>
      <trkpt lat="46.26925" lon="5.53449">
        <ele>305.6</ele>
        <time>2022-06-06T14:20:59Z</time>
      </trkpt>
      <trkpt lat="46.26937" lon="5.53372">
        <ele>306</ele>
        <time>2022-06-06T14:21:07Z</time>
      </trkpt>
      <trkpt lat="46.26946" lon="5.53335">
        <ele>305.8</ele>
        <time>2022-06-06T14:21:11Z</time>
      </trkpt>
      <trkpt lat="46.26948" lon="5.53325">
        <ele>305.8</ele>
        <time>2022-06-06T14:21:12Z</time>
      </trkpt>
      <trkpt lat="46.26961" lon="5.53248">
        <ele>305.6</ele>
        <time>2022-06-06T14:21:20Z</time>
      </trkpt>
      <trkpt lat="46.26963" lon="5.53239">
        <ele>305.4</ele>
        <time>2022-06-06T14:21:21Z</time>
      </trkpt>
      <trkpt lat="46.26973" lon="5.53182">
        <ele>305.2</ele>
        <time>2022-06-06T14:21:28Z</time>
      </trkpt>
      <trkpt lat="46.26976" lon="5.53175">
        <ele>305.6</ele>
        <time>2022-06-06T14:21:30Z</time>
      </trkpt>
      <trkpt lat="46.26976" lon="5.53171">
        <ele>305.6</ele>
        <time>2022-06-06T14:21:31Z</time>
      </trkpt>
      <trkpt lat="46.26978" lon="5.53145">
        <ele>305.8</ele>
        <time>2022-06-06T14:21:36Z</time>
      </trkpt>
      <trkpt lat="46.26978" lon="5.53124">
        <ele>305.8</ele>
        <time>2022-06-06T14:21:39Z</time>
      </trkpt>
      <trkpt lat="46.26979" lon="5.53117">
        <ele>305.8</ele>
        <time>2022-06-06T14:21:40Z</time>
      </trkpt>
      <trkpt lat="46.2698" lon="5.53111">
        <ele>305.8</ele>
        <time>2022-06-06T14:21:41Z</time>
      </trkpt>
      <trkpt lat="46.26982" lon="5.53078">
        <ele>305.8</ele>
        <time>2022-06-06T14:21:46Z</time>
      </trkpt>
      <trkpt lat="46.26982" lon="5.53065">
        <ele>306</ele>
        <time>2022-06-06T14:21:49Z</time>
      </trkpt>
      <trkpt lat="46.26983" lon="5.53063">
        <ele>306.2</ele>
        <time>2022-06-06T14:21:50Z</time>
      </trkpt>
      <trkpt lat="46.26983" lon="5.5306">
        <ele>306.6</ele>
        <time>2022-06-06T14:21:54Z</time>
      </trkpt>
      <trkpt lat="46.26982" lon="5.53056">
        <ele>306.8</ele>
        <time>2022-06-06T14:23:22Z</time>
      </trkpt>
      <trkpt lat="46.2698" lon="5.53046">
        <ele>306.8</ele>
        <time>2022-06-06T14:23:24Z</time>
      </trkpt>
      <trkpt lat="46.26979" lon="5.53013">
        <ele>306.8</ele>
        <time>2022-06-06T14:23:28Z</time>
      </trkpt>
      <trkpt lat="46.26979" lon="5.52972">
        <ele>306.2</ele>
        <time>2022-06-06T14:23:32Z</time>
      </trkpt>
      <trkpt lat="46.26979" lon="5.5291">
        <ele>306</ele>
        <time>2022-06-06T14:23:38Z</time>
      </trkpt>
      <trkpt lat="46.26981" lon="5.52827">
        <ele>305.2</ele>
        <time>2022-06-06T14:23:46Z</time>
      </trkpt>
      <trkpt lat="46.26981" lon="5.52816">
        <ele>305</ele>
        <time>2022-06-06T14:23:47Z</time>
      </trkpt>
      <trkpt lat="46.2698" lon="5.52734">
        <ele>304.2</ele>
        <time>2022-06-06T14:23:55Z</time>
      </trkpt>
      <trkpt lat="46.26979" lon="5.52724">
        <ele>304.4</ele>
        <time>2022-06-06T14:23:56Z</time>
      </trkpt>
      <trkpt lat="46.26975" lon="5.52706">
        <ele>304.2</ele>
        <time>2022-06-06T14:23:58Z</time>
      </trkpt>
      <trkpt lat="46.26972" lon="5.52698">
        <ele>304.2</ele>
        <time>2022-06-06T14:23:59Z</time>
      </trkpt>
      <trkpt lat="46.26969" lon="5.5269">
        <ele>304.8</ele>
        <time>2022-06-06T14:24:00Z</time>
      </trkpt>
      <trkpt lat="46.26958" lon="5.52678">
        <ele>305.2</ele>
        <time>2022-06-06T14:24:02Z</time>
      </trkpt>
      <trkpt lat="46.26947" lon="5.52666">
        <ele>305.2</ele>
        <time>2022-06-06T14:24:04Z</time>
      </trkpt>
      <trkpt lat="46.26913" lon="5.52628">
        <ele>305</ele>
        <time>2022-06-06T14:24:10Z</time>
      </trkpt>
      <trkpt lat="46.26876" lon="5.52589">
        <ele>304.4</ele>
        <time>2022-06-06T14:24:16Z</time>
      </trkpt>
      <trkpt lat="46.26863" lon="5.52577">
        <ele>304.2</ele>
        <time>2022-06-06T14:24:18Z</time>
      </trkpt>
      <trkpt lat="46.26838" lon="5.5255">
        <ele>304.2</ele>
        <time>2022-06-06T14:24:22Z</time>
      </trkpt>
      <trkpt lat="46.26793" lon="5.52503">
        <ele>304.2</ele>
        <time>2022-06-06T14:24:30Z</time>
      </trkpt>
      <trkpt lat="46.26771" lon="5.52478">
        <ele>304.4</ele>
        <time>2022-06-06T14:24:34Z</time>
      </trkpt>
      <trkpt lat="46.26758" lon="5.52463">
        <ele>305.2</ele>
        <time>2022-06-06T14:24:37Z</time>
      </trkpt>
      <trkpt lat="46.26737" lon="5.52441">
        <ele>306.2</ele>
        <time>2022-06-06T14:24:41Z</time>
      </trkpt>
      <trkpt lat="46.26694" lon="5.52394">
        <ele>307.2</ele>
        <time>2022-06-06T14:24:50Z</time>
      </trkpt>
      <trkpt lat="46.26672" lon="5.52368">
        <ele>308.2</ele>
        <time>2022-06-06T14:24:55Z</time>
      </trkpt>
      <trkpt lat="46.26659" lon="5.52351">
        <ele>308.8</ele>
        <time>2022-06-06T14:24:58Z</time>
      </trkpt>
      <trkpt lat="46.26636" lon="5.52326">
        <ele>309.4</ele>
        <time>2022-06-06T14:25:03Z</time>
      </trkpt>
      <trkpt lat="46.26622" lon="5.52312">
        <ele>309.8</ele>
        <time>2022-06-06T14:25:06Z</time>
      </trkpt>
      <trkpt lat="46.26608" lon="5.52298">
        <ele>310.8</ele>
        <time>2022-06-06T14:25:09Z</time>
      </trkpt>
      <trkpt lat="46.26597" lon="5.52278">
        <ele>311.4</ele>
        <time>2022-06-06T14:25:12Z</time>
      </trkpt>
      <trkpt lat="46.2659" lon="5.52253">
        <ele>311.6</ele>
        <time>2022-06-06T14:25:15Z</time>
      </trkpt>
      <trkpt lat="46.26587" lon="5.52235">
        <ele>311.6</ele>
        <time>2022-06-06T14:25:17Z</time>
      </trkpt>
      <trkpt lat="46.26584" lon="5.52217">
        <ele>311.8</ele>
        <time>2022-06-06T14:25:19Z</time>
      </trkpt>
      <trkpt lat="46.26582" lon="5.52198">
        <ele>311.8</ele>
        <time>2022-06-06T14:25:21Z</time>
      </trkpt>
      <trkpt lat="46.2658" lon="5.52181">
        <ele>311.8</ele>
        <time>2022-06-06T14:25:23Z</time>
      </trkpt>
      <trkpt lat="46.26562" lon="5.5212">
        <ele>311.8</ele>
        <time>2022-06-06T14:25:30Z</time>
      </trkpt>
      <trkpt lat="46.26537" lon="5.52048">
        <ele>311.6</ele>
        <time>2022-06-06T14:25:38Z</time>
      </trkpt>
      <trkpt lat="46.26534" lon="5.52038">
        <ele>311.6</ele>
        <time>2022-06-06T14:25:39Z</time>
      </trkpt>
      <trkpt lat="46.26532" lon="5.52027">
        <ele>311.6</ele>
        <time>2022-06-06T14:25:40Z</time>
      </trkpt>
      <trkpt lat="46.26528" lon="5.51984">
        <ele>311.2</ele>
        <time>2022-06-06T14:25:44Z</time>
      </trkpt>
      <trkpt lat="46.26529" lon="5.51949">
        <ele>311</ele>
        <time>2022-06-06T14:25:47Z</time>
      </trkpt>
      <trkpt lat="46.26531" lon="5.51913">
        <ele>310.4</ele>
        <time>2022-06-06T14:25:50Z</time>
      </trkpt>
      <trkpt lat="46.26533" lon="5.51864">
        <ele>309.8</ele>
        <time>2022-06-06T14:25:54Z</time>
      </trkpt>
      <trkpt lat="46.26536" lon="5.51814">
        <ele>309</ele>
        <time>2022-06-06T14:25:58Z</time>
      </trkpt>
      <trkpt lat="46.26542" lon="5.51777">
        <ele>308.6</ele>
        <time>2022-06-06T14:26:01Z</time>
      </trkpt>
      <trkpt lat="46.26545" lon="5.51765">
        <ele>308.6</ele>
        <time>2022-06-06T14:26:02Z</time>
      </trkpt>
      <trkpt lat="46.26571" lon="5.51699">
        <ele>307.6</ele>
        <time>2022-06-06T14:26:08Z</time>
      </trkpt>
      <trkpt lat="46.26582" lon="5.51666">
        <ele>307</ele>
        <time>2022-06-06T14:26:11Z</time>
      </trkpt>
      <trkpt lat="46.26584" lon="5.51638">
        <ele>306.6</ele>
        <time>2022-06-06T14:26:13Z</time>
      </trkpt>
      <trkpt lat="46.26583" lon="5.51625">
        <ele>306.4</ele>
        <time>2022-06-06T14:26:14Z</time>
      </trkpt>
      <trkpt lat="46.26579" lon="5.51585">
        <ele>306.2</ele>
        <time>2022-06-06T14:26:17Z</time>
      </trkpt>
      <trkpt lat="46.26574" lon="5.51562">
        <ele>306</ele>
        <time>2022-06-06T14:26:19Z</time>
      </trkpt>
      <trkpt lat="46.26558" lon="5.51524">
        <ele>305.4</ele>
        <time>2022-06-06T14:26:22Z</time>
      </trkpt>
      <trkpt lat="46.26552" lon="5.51513">
        <ele>305.2</ele>
        <time>2022-06-06T14:26:23Z</time>
      </trkpt>
      <trkpt lat="46.26537" lon="5.51481">
        <ele>304</ele>
        <time>2022-06-06T14:26:26Z</time>
      </trkpt>
      <trkpt lat="46.26533" lon="5.51469">
        <ele>303.8</ele>
        <time>2022-06-06T14:26:27Z</time>
      </trkpt>
      <trkpt lat="46.2653" lon="5.51457">
        <ele>303.6</ele>
        <time>2022-06-06T14:26:28Z</time>
      </trkpt>
      <trkpt lat="46.26528" lon="5.51444">
        <ele>303.4</ele>
        <time>2022-06-06T14:26:29Z</time>
      </trkpt>
      <trkpt lat="46.26529" lon="5.51419">
        <ele>303</ele>
        <time>2022-06-06T14:26:31Z</time>
      </trkpt>
      <trkpt lat="46.26534" lon="5.5134">
        <ele>302.6</ele>
        <time>2022-06-06T14:26:37Z</time>
      </trkpt>
      <trkpt lat="46.26534" lon="5.51327">
        <ele>302.4</ele>
        <time>2022-06-06T14:26:38Z</time>
      </trkpt>
      <trkpt lat="46.26533" lon="5.51262">
        <ele>302</ele>
        <time>2022-06-06T14:26:43Z</time>
      </trkpt>
      <trkpt lat="46.26533" lon="5.51236">
        <ele>302</ele>
        <time>2022-06-06T14:26:45Z</time>
      </trkpt>
      <trkpt lat="46.26532" lon="5.51196">
        <ele>301.8</ele>
        <time>2022-06-06T14:26:48Z</time>
      </trkpt>
      <trkpt lat="46.2653" lon="5.51183">
        <ele>301.8</ele>
        <time>2022-06-06T14:26:49Z</time>
      </trkpt>
      <trkpt lat="46.26528" lon="5.5117">
        <ele>301.6</ele>
        <time>2022-06-06T14:26:50Z</time>
      </trkpt>
      <trkpt lat="46.26516" lon="5.51133">
        <ele>301.6</ele>
        <time>2022-06-06T14:26:53Z</time>
      </trkpt>
      <trkpt lat="46.26489" lon="5.51059">
        <ele>300.8</ele>
        <time>2022-06-06T14:26:59Z</time>
      </trkpt>
      <trkpt lat="46.26476" lon="5.51023">
        <ele>300.2</ele>
        <time>2022-06-06T14:27:02Z</time>
      </trkpt>
      <trkpt lat="46.26467" lon="5.51001">
        <ele>299.6</ele>
        <time>2022-06-06T14:27:04Z</time>
      </trkpt>
      <trkpt lat="46.26455" lon="5.50982">
        <ele>299.2</ele>
        <time>2022-06-06T14:27:06Z</time>
      </trkpt>
      <trkpt lat="46.26442" lon="5.50969">
        <ele>299.2</ele>
        <time>2022-06-06T14:27:08Z</time>
      </trkpt>
      <trkpt lat="46.26425" lon="5.50957">
        <ele>299.2</ele>
        <time>2022-06-06T14:27:10Z</time>
      </trkpt>
      <trkpt lat="46.2637" lon="5.50929">
        <ele>299.8</ele>
        <time>2022-06-06T14:27:17Z</time>
      </trkpt>
      <trkpt lat="46.26355" lon="5.5092">
        <ele>299.8</ele>
        <time>2022-06-06T14:27:19Z</time>
      </trkpt>
      <trkpt lat="46.26301" lon="5.50891">
        <ele>299.8</ele>
        <time>2022-06-06T14:27:26Z</time>
      </trkpt>
      <trkpt lat="46.26293" lon="5.50887">
        <ele>299.8</ele>
        <time>2022-06-06T14:27:27Z</time>
      </trkpt>
      <trkpt lat="46.26241" lon="5.50861">
        <ele>299.4</ele>
        <time>2022-06-06T14:27:34Z</time>
      </trkpt>
      <trkpt lat="46.26217" lon="5.50853">
        <ele>299.6</ele>
        <time>2022-06-06T14:27:37Z</time>
      </trkpt>
      <trkpt lat="46.26209" lon="5.50853">
        <ele>299.6</ele>
        <time>2022-06-06T14:27:38Z</time>
      </trkpt>
      <trkpt lat="46.26195" lon="5.50854">
        <ele>299.4</ele>
        <time>2022-06-06T14:27:40Z</time>
      </trkpt>
      <trkpt lat="46.2618" lon="5.5086">
        <ele>299.4</ele>
        <time>2022-06-06T14:27:42Z</time>
      </trkpt>
      <trkpt lat="46.26143" lon="5.50881">
        <ele>299.4</ele>
        <time>2022-06-06T14:27:47Z</time>
      </trkpt>
      <trkpt lat="46.26131" lon="5.50887">
        <ele>299.6</ele>
        <time>2022-06-06T14:27:49Z</time>
      </trkpt>
      <trkpt lat="46.26124" lon="5.50887">
        <ele>299.6</ele>
        <time>2022-06-06T14:27:50Z</time>
      </trkpt>
      <trkpt lat="46.26117" lon="5.50884">
        <ele>299.6</ele>
        <time>2022-06-06T14:27:51Z</time>
      </trkpt>
      <trkpt lat="46.26098" lon="5.50875">
        <ele>299.8</ele>
        <time>2022-06-06T14:27:54Z</time>
      </trkpt>
      <trkpt lat="46.26065" lon="5.50853">
        <ele>301</ele>
        <time>2022-06-06T14:28:00Z</time>
      </trkpt>
      <trkpt lat="46.26054" lon="5.50844">
        <ele>301.6</ele>
        <time>2022-06-06T14:28:02Z</time>
      </trkpt>
      <trkpt lat="46.26031" lon="5.50826">
        <ele>301.8</ele>
        <time>2022-06-06T14:28:06Z</time>
      </trkpt>
      <trkpt lat="46.26019" lon="5.50819">
        <ele>302</ele>
        <time>2022-06-06T14:28:08Z</time>
      </trkpt>
      <trkpt lat="46.25973" lon="5.50788">
        <ele>303.2</ele>
        <time>2022-06-06T14:28:16Z</time>
      </trkpt>
      <trkpt lat="46.25956" lon="5.50777">
        <ele>304.2</ele>
        <time>2022-06-06T14:28:19Z</time>
      </trkpt>
      <trkpt lat="46.25942" lon="5.50766">
        <ele>304.6</ele>
        <time>2022-06-06T14:28:22Z</time>
      </trkpt>
      <trkpt lat="46.25919" lon="5.50751">
        <ele>305.8</ele>
        <time>2022-06-06T14:28:27Z</time>
      </trkpt>
      <trkpt lat="46.25908" lon="5.50743">
        <ele>306</ele>
        <time>2022-06-06T14:28:29Z</time>
      </trkpt>
      <trkpt lat="46.2589" lon="5.5073">
        <ele>306.8</ele>
        <time>2022-06-06T14:28:33Z</time>
      </trkpt>
      <trkpt lat="46.25867" lon="5.50715">
        <ele>307.8</ele>
        <time>2022-06-06T14:28:38Z</time>
      </trkpt>
      <trkpt lat="46.25833" lon="5.50691">
        <ele>309.2</ele>
        <time>2022-06-06T14:28:46Z</time>
      </trkpt>
      <trkpt lat="46.25824" lon="5.50685">
        <ele>309.4</ele>
        <time>2022-06-06T14:28:48Z</time>
      </trkpt>
      <trkpt lat="46.25803" lon="5.5067">
        <ele>310.4</ele>
        <time>2022-06-06T14:28:53Z</time>
      </trkpt>
      <trkpt lat="46.25785" lon="5.50658">
        <ele>311.2</ele>
        <time>2022-06-06T14:28:57Z</time>
      </trkpt>
      <trkpt lat="46.25772" lon="5.5065">
        <ele>311.6</ele>
        <time>2022-06-06T14:29:00Z</time>
      </trkpt>
      <trkpt lat="46.25752" lon="5.50637">
        <ele>312.6</ele>
        <time>2022-06-06T14:29:05Z</time>
      </trkpt>
      <trkpt lat="46.25748" lon="5.50634">
        <ele>312.8</ele>
        <time>2022-06-06T14:29:06Z</time>
      </trkpt>
      <trkpt lat="46.25735" lon="5.50625">
        <ele>313.6</ele>
        <time>2022-06-06T14:29:09Z</time>
      </trkpt>
      <trkpt lat="46.25726" lon="5.50619">
        <ele>314.4</ele>
        <time>2022-06-06T14:29:11Z</time>
      </trkpt>
      <trkpt lat="46.25722" lon="5.50616">
        <ele>314.4</ele>
        <time>2022-06-06T14:29:12Z</time>
      </trkpt>
      <trkpt lat="46.25692" lon="5.50596">
        <ele>315.4</ele>
        <time>2022-06-06T14:29:19Z</time>
      </trkpt>
      <trkpt lat="46.2567" lon="5.50583">
        <ele>316.4</ele>
        <time>2022-06-06T14:29:24Z</time>
      </trkpt>
      <trkpt lat="46.25652" lon="5.50574">
        <ele>317.4</ele>
        <time>2022-06-06T14:29:28Z</time>
      </trkpt>
      <trkpt lat="46.25634" lon="5.50569">
        <ele>318</ele>
        <time>2022-06-06T14:29:32Z</time>
      </trkpt>
      <trkpt lat="46.25625" lon="5.50566">
        <ele>318.6</ele>
        <time>2022-06-06T14:29:34Z</time>
      </trkpt>
      <trkpt lat="46.25601" lon="5.50562">
        <ele>319.6</ele>
        <time>2022-06-06T14:29:39Z</time>
      </trkpt>
      <trkpt lat="46.25592" lon="5.5056">
        <ele>320</ele>
        <time>2022-06-06T14:29:41Z</time>
      </trkpt>
      <trkpt lat="46.25573" lon="5.50557">
        <ele>320.8</ele>
        <time>2022-06-06T14:29:45Z</time>
      </trkpt>
      <trkpt lat="46.25551" lon="5.50553">
        <ele>322</ele>
        <time>2022-06-06T14:29:50Z</time>
      </trkpt>
      <trkpt lat="46.25542" lon="5.50552">
        <ele>322.6</ele>
        <time>2022-06-06T14:29:52Z</time>
      </trkpt>
      <trkpt lat="46.25533" lon="5.50552">
        <ele>323</ele>
        <time>2022-06-06T14:29:54Z</time>
      </trkpt>
      <trkpt lat="46.25524" lon="5.50553">
        <ele>323.2</ele>
        <time>2022-06-06T14:29:56Z</time>
      </trkpt>
      <trkpt lat="46.25506" lon="5.50555">
        <ele>324.2</ele>
        <time>2022-06-06T14:30:00Z</time>
      </trkpt>
      <trkpt lat="46.25501" lon="5.50556">
        <ele>324.4</ele>
        <time>2022-06-06T14:30:01Z</time>
      </trkpt>
      <trkpt lat="46.25481" lon="5.5056">
        <ele>325.2</ele>
        <time>2022-06-06T14:30:06Z</time>
      </trkpt>
      <trkpt lat="46.25477" lon="5.50561">
        <ele>325.4</ele>
        <time>2022-06-06T14:30:07Z</time>
      </trkpt>
      <trkpt lat="46.25454" lon="5.50572">
        <ele>326.6</ele>
        <time>2022-06-06T14:30:13Z</time>
      </trkpt>
      <trkpt lat="46.25431" lon="5.50572">
        <ele>327.4</ele>
        <time>2022-06-06T14:30:18Z</time>
      </trkpt>
      <trkpt lat="46.25427" lon="5.50571">
        <ele>327.6</ele>
        <time>2022-06-06T14:30:19Z</time>
      </trkpt>
      <trkpt lat="46.25409" lon="5.50567">
        <ele>328.2</ele>
        <time>2022-06-06T14:30:23Z</time>
      </trkpt>
      <trkpt lat="46.254" lon="5.50563">
        <ele>328.6</ele>
        <time>2022-06-06T14:30:25Z</time>
      </trkpt>
      <trkpt lat="46.25371" lon="5.50553">
        <ele>329.6</ele>
        <time>2022-06-06T14:30:31Z</time>
      </trkpt>
      <trkpt lat="46.25352" lon="5.50544">
        <ele>330.8</ele>
        <time>2022-06-06T14:30:35Z</time>
      </trkpt>
      <trkpt lat="46.25339" lon="5.50538">
        <ele>331.2</ele>
        <time>2022-06-06T14:30:38Z</time>
      </trkpt>
      <trkpt lat="46.25336" lon="5.50536">
        <ele>331.8</ele>
        <time>2022-06-06T14:30:39Z</time>
      </trkpt>
      <trkpt lat="46.25332" lon="5.50534">
        <ele>332</ele>
        <time>2022-06-06T14:30:40Z</time>
      </trkpt>
      <trkpt lat="46.25323" lon="5.50531">
        <ele>332.2</ele>
        <time>2022-06-06T14:30:42Z</time>
      </trkpt>
      <trkpt lat="46.25311" lon="5.50525">
        <ele>332.6</ele>
        <time>2022-06-06T14:30:45Z</time>
      </trkpt>
      <trkpt lat="46.25303" lon="5.5052">
        <ele>333</ele>
        <time>2022-06-06T14:30:47Z</time>
      </trkpt>
      <trkpt lat="46.25291" lon="5.50514">
        <ele>333.4</ele>
        <time>2022-06-06T14:30:50Z</time>
      </trkpt>
      <trkpt lat="46.2528" lon="5.50507">
        <ele>334.2</ele>
        <time>2022-06-06T14:30:53Z</time>
      </trkpt>
      <trkpt lat="46.25265" lon="5.50494">
        <ele>335</ele>
        <time>2022-06-06T14:30:57Z</time>
      </trkpt>
      <trkpt lat="46.25255" lon="5.50483">
        <ele>335.6</ele>
        <time>2022-06-06T14:31:00Z</time>
      </trkpt>
      <trkpt lat="46.2524" lon="5.50466">
        <ele>336.4</ele>
        <time>2022-06-06T14:31:04Z</time>
      </trkpt>
      <trkpt lat="46.25229" lon="5.50454">
        <ele>336.6</ele>
        <time>2022-06-06T14:31:07Z</time>
      </trkpt>
      <trkpt lat="46.25206" lon="5.50427">
        <ele>337.6</ele>
        <time>2022-06-06T14:31:13Z</time>
      </trkpt>
      <trkpt lat="46.25198" lon="5.50418">
        <ele>337.8</ele>
        <time>2022-06-06T14:31:15Z</time>
      </trkpt>
      <trkpt lat="46.25162" lon="5.50378">
        <ele>338.8</ele>
        <time>2022-06-06T14:31:24Z</time>
      </trkpt>
      <trkpt lat="46.25159" lon="5.50373">
        <ele>339</ele>
        <time>2022-06-06T14:31:25Z</time>
      </trkpt>
      <trkpt lat="46.25127" lon="5.50336">
        <ele>340</ele>
        <time>2022-06-06T14:31:33Z</time>
      </trkpt>
      <trkpt lat="46.25115" lon="5.50322">
        <ele>340.4</ele>
        <time>2022-06-06T14:31:36Z</time>
      </trkpt>
      <trkpt lat="46.25102" lon="5.50308">
        <ele>341</ele>
        <time>2022-06-06T14:31:39Z</time>
      </trkpt>
      <trkpt lat="46.2509" lon="5.50293">
        <ele>341.2</ele>
        <time>2022-06-06T14:31:42Z</time>
      </trkpt>
      <trkpt lat="46.25074" lon="5.50273">
        <ele>341.8</ele>
        <time>2022-06-06T14:31:46Z</time>
      </trkpt>
      <trkpt lat="46.2506" lon="5.50257">
        <ele>342.4</ele>
        <time>2022-06-06T14:31:49Z</time>
      </trkpt>
      <trkpt lat="46.25031" lon="5.50222">
        <ele>342.8</ele>
        <time>2022-06-06T14:31:55Z</time>
      </trkpt>
      <trkpt lat="46.2499" lon="5.50175">
        <ele>343</ele>
        <time>2022-06-06T14:32:03Z</time>
      </trkpt>
      <trkpt lat="46.24948" lon="5.50126">
        <ele>342.8</ele>
        <time>2022-06-06T14:32:11Z</time>
      </trkpt>
      <trkpt lat="46.24937" lon="5.50114">
        <ele>342.8</ele>
        <time>2022-06-06T14:32:13Z</time>
      </trkpt>
      <trkpt lat="46.24932" lon="5.50107">
        <ele>342.8</ele>
        <time>2022-06-06T14:32:14Z</time>
      </trkpt>
      <trkpt lat="46.2489" lon="5.50057">
        <ele>342.8</ele>
        <time>2022-06-06T14:32:22Z</time>
      </trkpt>
      <trkpt lat="46.24884" lon="5.50051">
        <ele>342.8</ele>
        <time>2022-06-06T14:32:23Z</time>
      </trkpt>
      <trkpt lat="46.24844" lon="5.50007">
        <ele>342.4</ele>
        <time>2022-06-06T14:32:30Z</time>
      </trkpt>
      <trkpt lat="46.24833" lon="5.49994">
        <ele>342</ele>
        <time>2022-06-06T14:32:32Z</time>
      </trkpt>
      <trkpt lat="46.24817" lon="5.49974">
        <ele>342.2</ele>
        <time>2022-06-06T14:32:35Z</time>
      </trkpt>
      <trkpt lat="46.24776" lon="5.49938">
        <ele>342.6</ele>
        <time>2022-06-06T14:32:42Z</time>
      </trkpt>
      <trkpt lat="46.24761" lon="5.49924">
        <ele>343</ele>
        <time>2022-06-06T14:32:45Z</time>
      </trkpt>
      <trkpt lat="46.24748" lon="5.49918">
        <ele>343.4</ele>
        <time>2022-06-06T14:32:47Z</time>
      </trkpt>
      <trkpt lat="46.24716" lon="5.49894">
        <ele>344.2</ele>
        <time>2022-06-06T14:32:53Z</time>
      </trkpt>
      <trkpt lat="46.24706" lon="5.49885">
        <ele>344.4</ele>
        <time>2022-06-06T14:32:55Z</time>
      </trkpt>
      <trkpt lat="46.24696" lon="5.49877">
        <ele>344.6</ele>
        <time>2022-06-06T14:32:57Z</time>
      </trkpt>
      <trkpt lat="46.24686" lon="5.49872">
        <ele>345.2</ele>
        <time>2022-06-06T14:32:59Z</time>
      </trkpt>
      <trkpt lat="46.24682" lon="5.49869">
        <ele>345.2</ele>
        <time>2022-06-06T14:33:00Z</time>
      </trkpt>
      <trkpt lat="46.24678" lon="5.49866">
        <ele>345.4</ele>
        <time>2022-06-06T14:33:01Z</time>
      </trkpt>
      <trkpt lat="46.24674" lon="5.49862">
        <ele>345.6</ele>
        <time>2022-06-06T14:33:02Z</time>
      </trkpt>
      <trkpt lat="46.2467" lon="5.49857">
        <ele>345.8</ele>
        <time>2022-06-06T14:33:03Z</time>
      </trkpt>
      <trkpt lat="46.24665" lon="5.49852">
        <ele>345.8</ele>
        <time>2022-06-06T14:33:04Z</time>
      </trkpt>
      <trkpt lat="46.24652" lon="5.49837">
        <ele>346.2</ele>
        <time>2022-06-06T14:33:07Z</time>
      </trkpt>
      <trkpt lat="46.24648" lon="5.49831">
        <ele>346.4</ele>
        <time>2022-06-06T14:33:08Z</time>
      </trkpt>
      <trkpt lat="46.2463" lon="5.49803">
        <ele>347.6</ele>
        <time>2022-06-06T14:33:13Z</time>
      </trkpt>
      <trkpt lat="46.24626" lon="5.49798">
        <ele>347.8</ele>
        <time>2022-06-06T14:33:14Z</time>
      </trkpt>
      <trkpt lat="46.24614" lon="5.49784">
        <ele>348.2</ele>
        <time>2022-06-06T14:33:17Z</time>
      </trkpt>
      <trkpt lat="46.24603" lon="5.49769">
        <ele>349</ele>
        <time>2022-06-06T14:33:20Z</time>
      </trkpt>
      <trkpt lat="46.24599" lon="5.49765">
        <ele>349.2</ele>
        <time>2022-06-06T14:33:21Z</time>
      </trkpt>
      <trkpt lat="46.24592" lon="5.49751">
        <ele>350</ele>
        <time>2022-06-06T14:33:24Z</time>
      </trkpt>
      <trkpt lat="46.24588" lon="5.49745">
        <ele>350.2</ele>
        <time>2022-06-06T14:33:25Z</time>
      </trkpt>
      <trkpt lat="46.24584" lon="5.49739">
        <ele>350.4</ele>
        <time>2022-06-06T14:33:26Z</time>
      </trkpt>
      <trkpt lat="46.24572" lon="5.49717">
        <ele>351.4</ele>
        <time>2022-06-06T14:33:30Z</time>
      </trkpt>
      <trkpt lat="46.24566" lon="5.49704">
        <ele>352</ele>
        <time>2022-06-06T14:33:32Z</time>
      </trkpt>
      <trkpt lat="46.24564" lon="5.49697">
        <ele>352.4</ele>
        <time>2022-06-06T14:33:33Z</time>
      </trkpt>
      <trkpt lat="46.24561" lon="5.49691">
        <ele>352.8</ele>
        <time>2022-06-06T14:33:34Z</time>
      </trkpt>
      <trkpt lat="46.24551" lon="5.49664">
        <ele>353.8</ele>
        <time>2022-06-06T14:33:39Z</time>
      </trkpt>
      <trkpt lat="46.24549" lon="5.49658">
        <ele>353.8</ele>
        <time>2022-06-06T14:33:40Z</time>
      </trkpt>
      <trkpt lat="46.24543" lon="5.49637">
        <ele>354.6</ele>
        <time>2022-06-06T14:33:44Z</time>
      </trkpt>
      <trkpt lat="46.24539" lon="5.49628">
        <ele>355.2</ele>
        <time>2022-06-06T14:33:46Z</time>
      </trkpt>
      <trkpt lat="46.24533" lon="5.49618">
        <ele>355.6</ele>
        <time>2022-06-06T14:33:48Z</time>
      </trkpt>
      <trkpt lat="46.24528" lon="5.49603">
        <ele>356.4</ele>
        <time>2022-06-06T14:33:51Z</time>
      </trkpt>
      <trkpt lat="46.24511" lon="5.49578">
        <ele>357.4</ele>
        <time>2022-06-06T14:33:57Z</time>
      </trkpt>
      <trkpt lat="46.24509" lon="5.49573">
        <ele>357.6</ele>
        <time>2022-06-06T14:33:58Z</time>
      </trkpt>
      <trkpt lat="46.24496" lon="5.49552">
        <ele>358.4</ele>
        <time>2022-06-06T14:34:03Z</time>
      </trkpt>
      <trkpt lat="46.24493" lon="5.49547">
        <ele>358.8</ele>
        <time>2022-06-06T14:34:04Z</time>
      </trkpt>
      <trkpt lat="46.24481" lon="5.49524">
        <ele>359.6</ele>
        <time>2022-06-06T14:34:09Z</time>
      </trkpt>
      <trkpt lat="46.24471" lon="5.495">
        <ele>360.8</ele>
        <time>2022-06-06T14:34:14Z</time>
      </trkpt>
      <trkpt lat="46.24467" lon="5.49491">
        <ele>361.2</ele>
        <time>2022-06-06T14:34:16Z</time>
      </trkpt>
      <trkpt lat="46.24461" lon="5.49477">
        <ele>361.8</ele>
        <time>2022-06-06T14:34:19Z</time>
      </trkpt>
      <trkpt lat="46.24455" lon="5.49458">
        <ele>362.8</ele>
        <time>2022-06-06T14:34:23Z</time>
      </trkpt>
      <trkpt lat="46.24454" lon="5.49452">
        <ele>363</ele>
        <time>2022-06-06T14:34:24Z</time>
      </trkpt>
      <trkpt lat="46.24447" lon="5.49428">
        <ele>364</ele>
        <time>2022-06-06T14:34:29Z</time>
      </trkpt>
      <trkpt lat="46.24447" lon="5.49423">
        <ele>364.2</ele>
        <time>2022-06-06T14:34:30Z</time>
      </trkpt>
      <trkpt lat="46.24444" lon="5.49405">
        <ele>365.2</ele>
        <time>2022-06-06T14:34:33Z</time>
      </trkpt>
      <trkpt lat="46.24441" lon="5.49383">
        <ele>366</ele>
        <time>2022-06-06T14:34:37Z</time>
      </trkpt>
      <trkpt lat="46.24441" lon="5.49371">
        <ele>366.2</ele>
        <time>2022-06-06T14:34:39Z</time>
      </trkpt>
      <trkpt lat="46.24442" lon="5.49356">
        <ele>366.8</ele>
        <time>2022-06-06T14:34:42Z</time>
      </trkpt>
      <trkpt lat="46.24442" lon="5.4934">
        <ele>367.4</ele>
        <time>2022-06-06T14:34:45Z</time>
      </trkpt>
      <trkpt lat="46.24444" lon="5.49319">
        <ele>368.6</ele>
        <time>2022-06-06T14:34:49Z</time>
      </trkpt>
      <trkpt lat="46.24445" lon="5.49308">
        <ele>369</ele>
        <time>2022-06-06T14:34:51Z</time>
      </trkpt>
      <trkpt lat="46.24445" lon="5.49284">
        <ele>369.8</ele>
        <time>2022-06-06T14:34:55Z</time>
      </trkpt>
      <trkpt lat="46.24445" lon="5.49266">
        <ele>370.8</ele>
        <time>2022-06-06T14:34:58Z</time>
      </trkpt>
      <trkpt lat="46.24444" lon="5.49249">
        <ele>371.6</ele>
        <time>2022-06-06T14:35:01Z</time>
      </trkpt>
      <trkpt lat="46.24443" lon="5.4924">
        <ele>372</ele>
        <time>2022-06-06T14:35:03Z</time>
      </trkpt>
      <trkpt lat="46.24437" lon="5.4921">
        <ele>373</ele>
        <time>2022-06-06T14:35:09Z</time>
      </trkpt>
      <trkpt lat="46.24434" lon="5.492">
        <ele>373.6</ele>
        <time>2022-06-06T14:35:11Z</time>
      </trkpt>
      <trkpt lat="46.24429" lon="5.49184">
        <ele>374.2</ele>
        <time>2022-06-06T14:35:14Z</time>
      </trkpt>
      <trkpt lat="46.24417" lon="5.49159">
        <ele>375.4</ele>
        <time>2022-06-06T14:35:19Z</time>
      </trkpt>
      <trkpt lat="46.24415" lon="5.49154">
        <ele>375.6</ele>
        <time>2022-06-06T14:35:20Z</time>
      </trkpt>
      <trkpt lat="46.24399" lon="5.49133">
        <ele>376.8</ele>
        <time>2022-06-06T14:35:25Z</time>
      </trkpt>
      <trkpt lat="46.24396" lon="5.49129">
        <ele>377.2</ele>
        <time>2022-06-06T14:35:26Z</time>
      </trkpt>
      <trkpt lat="46.24389" lon="5.49121">
        <ele>377.8</ele>
        <time>2022-06-06T14:35:28Z</time>
      </trkpt>
      <trkpt lat="46.24379" lon="5.49112">
        <ele>378.6</ele>
        <time>2022-06-06T14:35:31Z</time>
      </trkpt>
      <trkpt lat="46.24373" lon="5.49106">
        <ele>379</ele>
        <time>2022-06-06T14:35:33Z</time>
      </trkpt>
      <trkpt lat="46.24356" lon="5.49094">
        <ele>380.2</ele>
        <time>2022-06-06T14:35:37Z</time>
      </trkpt>
      <trkpt lat="46.24336" lon="5.49078">
        <ele>381.2</ele>
        <time>2022-06-06T14:35:42Z</time>
      </trkpt>
      <trkpt lat="46.24327" lon="5.49073">
        <ele>381.6</ele>
        <time>2022-06-06T14:35:44Z</time>
      </trkpt>
      <trkpt lat="46.24319" lon="5.49069">
        <ele>382.2</ele>
        <time>2022-06-06T14:35:46Z</time>
      </trkpt>
      <trkpt lat="46.2431" lon="5.49065">
        <ele>382.8</ele>
        <time>2022-06-06T14:35:48Z</time>
      </trkpt>
      <trkpt lat="46.24302" lon="5.4906">
        <ele>383.2</ele>
        <time>2022-06-06T14:35:50Z</time>
      </trkpt>
      <trkpt lat="46.24299" lon="5.49056">
        <ele>383.4</ele>
        <time>2022-06-06T14:35:51Z</time>
      </trkpt>
      <trkpt lat="46.24291" lon="5.4905">
        <ele>383.6</ele>
        <time>2022-06-06T14:35:53Z</time>
      </trkpt>
      <trkpt lat="46.24288" lon="5.49047">
        <ele>383.8</ele>
        <time>2022-06-06T14:35:54Z</time>
      </trkpt>
      <trkpt lat="46.24284" lon="5.49043">
        <ele>384</ele>
        <time>2022-06-06T14:35:55Z</time>
      </trkpt>
      <trkpt lat="46.24281" lon="5.49039">
        <ele>384.2</ele>
        <time>2022-06-06T14:35:56Z</time>
      </trkpt>
      <trkpt lat="46.24266" lon="5.49018">
        <ele>385.4</ele>
        <time>2022-06-06T14:36:01Z</time>
      </trkpt>
      <trkpt lat="46.24257" lon="5.49006">
        <ele>386</ele>
        <time>2022-06-06T14:36:04Z</time>
      </trkpt>
      <trkpt lat="46.2425" lon="5.48999">
        <ele>386.4</ele>
        <time>2022-06-06T14:36:06Z</time>
      </trkpt>
      <trkpt lat="46.24246" lon="5.48996">
        <ele>386.6</ele>
        <time>2022-06-06T14:36:07Z</time>
      </trkpt>
      <trkpt lat="46.24235" lon="5.48987">
        <ele>387.6</ele>
        <time>2022-06-06T14:36:10Z</time>
      </trkpt>
      <trkpt lat="46.24228" lon="5.4898">
        <ele>388</ele>
        <time>2022-06-06T14:36:12Z</time>
      </trkpt>
      <trkpt lat="46.24225" lon="5.48978">
        <ele>388.2</ele>
        <time>2022-06-06T14:36:13Z</time>
      </trkpt>
      <trkpt lat="46.24218" lon="5.48973">
        <ele>388.8</ele>
        <time>2022-06-06T14:36:15Z</time>
      </trkpt>
      <trkpt lat="46.24211" lon="5.48966">
        <ele>389</ele>
        <time>2022-06-06T14:36:17Z</time>
      </trkpt>
      <trkpt lat="46.24208" lon="5.48963">
        <ele>389.2</ele>
        <time>2022-06-06T14:36:18Z</time>
      </trkpt>
      <trkpt lat="46.24204" lon="5.48961">
        <ele>389.2</ele>
        <time>2022-06-06T14:36:19Z</time>
      </trkpt>
      <trkpt lat="46.24194" lon="5.48954">
        <ele>389.8</ele>
        <time>2022-06-06T14:36:22Z</time>
      </trkpt>
      <trkpt lat="46.24186" lon="5.48949">
        <ele>390.4</ele>
        <time>2022-06-06T14:36:24Z</time>
      </trkpt>
      <trkpt lat="46.24172" lon="5.48938">
        <ele>391</ele>
        <time>2022-06-06T14:36:28Z</time>
      </trkpt>
      <trkpt lat="46.24168" lon="5.48934">
        <ele>391.2</ele>
        <time>2022-06-06T14:36:29Z</time>
      </trkpt>
      <trkpt lat="46.24161" lon="5.48928">
        <ele>392</ele>
        <time>2022-06-06T14:36:31Z</time>
      </trkpt>
      <trkpt lat="46.24158" lon="5.48925">
        <ele>392.2</ele>
        <time>2022-06-06T14:36:32Z</time>
      </trkpt>
      <trkpt lat="46.24155" lon="5.48923">
        <ele>392.6</ele>
        <time>2022-06-06T14:36:33Z</time>
      </trkpt>
      <trkpt lat="46.24147" lon="5.48918">
        <ele>392.8</ele>
        <time>2022-06-06T14:36:35Z</time>
      </trkpt>
      <trkpt lat="46.24138" lon="5.48914">
        <ele>393.2</ele>
        <time>2022-06-06T14:36:37Z</time>
      </trkpt>
      <trkpt lat="46.24135" lon="5.48911">
        <ele>393.6</ele>
        <time>2022-06-06T14:36:38Z</time>
      </trkpt>
      <trkpt lat="46.24131" lon="5.48908">
        <ele>393.6</ele>
        <time>2022-06-06T14:36:39Z</time>
      </trkpt>
      <trkpt lat="46.24124" lon="5.48902">
        <ele>394</ele>
        <time>2022-06-06T14:36:41Z</time>
      </trkpt>
      <trkpt lat="46.2412" lon="5.48899">
        <ele>394.6</ele>
        <time>2022-06-06T14:36:42Z</time>
      </trkpt>
      <trkpt lat="46.24106" lon="5.48889">
        <ele>395.2</ele>
        <time>2022-06-06T14:36:46Z</time>
      </trkpt>
      <trkpt lat="46.24102" lon="5.48888">
        <ele>395.4</ele>
        <time>2022-06-06T14:36:47Z</time>
      </trkpt>
      <trkpt lat="46.24093" lon="5.48884">
        <ele>396</ele>
        <time>2022-06-06T14:36:49Z</time>
      </trkpt>
      <trkpt lat="46.24084" lon="5.48881">
        <ele>396.4</ele>
        <time>2022-06-06T14:36:51Z</time>
      </trkpt>
      <trkpt lat="46.24079" lon="5.48881">
        <ele>396.6</ele>
        <time>2022-06-06T14:36:52Z</time>
      </trkpt>
      <trkpt lat="46.24074" lon="5.4888">
        <ele>396.8</ele>
        <time>2022-06-06T14:36:53Z</time>
      </trkpt>
      <trkpt lat="46.24069" lon="5.48878">
        <ele>397.2</ele>
        <time>2022-06-06T14:36:54Z</time>
      </trkpt>
      <trkpt lat="46.24057" lon="5.48871">
        <ele>397.8</ele>
        <time>2022-06-06T14:36:57Z</time>
      </trkpt>
      <trkpt lat="46.24052" lon="5.4887">
        <ele>398</ele>
        <time>2022-06-06T14:36:58Z</time>
      </trkpt>
      <trkpt lat="46.24049" lon="5.48868">
        <ele>398.2</ele>
        <time>2022-06-06T14:36:59Z</time>
      </trkpt>
      <trkpt lat="46.24033" lon="5.48858">
        <ele>399.2</ele>
        <time>2022-06-06T14:37:03Z</time>
      </trkpt>
      <trkpt lat="46.24022" lon="5.48852">
        <ele>399.8</ele>
        <time>2022-06-06T14:37:06Z</time>
      </trkpt>
      <trkpt lat="46.24018" lon="5.4885">
        <ele>400.2</ele>
        <time>2022-06-06T14:37:07Z</time>
      </trkpt>
      <trkpt lat="46.24002" lon="5.48843">
        <ele>401</ele>
        <time>2022-06-06T14:37:11Z</time>
      </trkpt>
      <trkpt lat="46.23998" lon="5.48841">
        <ele>401.2</ele>
        <time>2022-06-06T14:37:12Z</time>
      </trkpt>
      <trkpt lat="46.2399" lon="5.48839">
        <ele>401.6</ele>
        <time>2022-06-06T14:37:14Z</time>
      </trkpt>
      <trkpt lat="46.23981" lon="5.48839">
        <ele>402</ele>
        <time>2022-06-06T14:37:16Z</time>
      </trkpt>
      <trkpt lat="46.23976" lon="5.48838">
        <ele>402.2</ele>
        <time>2022-06-06T14:37:17Z</time>
      </trkpt>
      <trkpt lat="46.23962" lon="5.48834">
        <ele>402.6</ele>
        <time>2022-06-06T14:37:20Z</time>
      </trkpt>
      <trkpt lat="46.23952" lon="5.48833">
        <ele>403</ele>
        <time>2022-06-06T14:37:22Z</time>
      </trkpt>
      <trkpt lat="46.23945" lon="5.48833">
        <ele>403.4</ele>
        <time>2022-06-06T14:37:24Z</time>
      </trkpt>
      <trkpt lat="46.23933" lon="5.48831">
        <ele>404</ele>
        <time>2022-06-06T14:37:27Z</time>
      </trkpt>
      <trkpt lat="46.23926" lon="5.48828">
        <ele>404.4</ele>
        <time>2022-06-06T14:37:29Z</time>
      </trkpt>
      <trkpt lat="46.23907" lon="5.48818">
        <ele>405.6</ele>
        <time>2022-06-06T14:37:34Z</time>
      </trkpt>
      <trkpt lat="46.23889" lon="5.48804">
        <ele>406.4</ele>
        <time>2022-06-06T14:37:39Z</time>
      </trkpt>
      <trkpt lat="46.23881" lon="5.48799">
        <ele>407</ele>
        <time>2022-06-06T14:37:41Z</time>
      </trkpt>
      <trkpt lat="46.23873" lon="5.48795">
        <ele>407.6</ele>
        <time>2022-06-06T14:37:43Z</time>
      </trkpt>
      <trkpt lat="46.23869" lon="5.48793">
        <ele>407.6</ele>
        <time>2022-06-06T14:37:44Z</time>
      </trkpt>
      <trkpt lat="46.23861" lon="5.48787">
        <ele>408</ele>
        <time>2022-06-06T14:37:46Z</time>
      </trkpt>
      <trkpt lat="46.23843" lon="5.48769">
        <ele>409.2</ele>
        <time>2022-06-06T14:37:51Z</time>
      </trkpt>
      <trkpt lat="46.23832" lon="5.48749">
        <ele>410.4</ele>
        <time>2022-06-06T14:37:55Z</time>
      </trkpt>
      <trkpt lat="46.23829" lon="5.48739">
        <ele>410.8</ele>
        <time>2022-06-06T14:37:57Z</time>
      </trkpt>
      <trkpt lat="46.23828" lon="5.48734">
        <ele>411</ele>
        <time>2022-06-06T14:37:58Z</time>
      </trkpt>
      <trkpt lat="46.23827" lon="5.48717">
        <ele>411.6</ele>
        <time>2022-06-06T14:38:01Z</time>
      </trkpt>
      <trkpt lat="46.23828" lon="5.48712">
        <ele>412</ele>
        <time>2022-06-06T14:38:02Z</time>
      </trkpt>
      <trkpt lat="46.23834" lon="5.48693">
        <ele>413</ele>
        <time>2022-06-06T14:38:06Z</time>
      </trkpt>
      <trkpt lat="46.23838" lon="5.48684">
        <ele>413.6</ele>
        <time>2022-06-06T14:38:08Z</time>
      </trkpt>
      <trkpt lat="46.23841" lon="5.48681">
        <ele>414.2</ele>
        <time>2022-06-06T14:38:09Z</time>
      </trkpt>
      <trkpt lat="46.23853" lon="5.48671">
        <ele>415.6</ele>
        <time>2022-06-06T14:38:13Z</time>
      </trkpt>
      <trkpt lat="46.23857" lon="5.4867">
        <ele>415.8</ele>
        <time>2022-06-06T14:38:14Z</time>
      </trkpt>
      <trkpt lat="46.23868" lon="5.48667">
        <ele>416.6</ele>
        <time>2022-06-06T14:38:17Z</time>
      </trkpt>
      <trkpt lat="46.23876" lon="5.48666">
        <ele>417</ele>
        <time>2022-06-06T14:38:19Z</time>
      </trkpt>
      <trkpt lat="46.23888" lon="5.48664">
        <ele>417.8</ele>
        <time>2022-06-06T14:38:22Z</time>
      </trkpt>
      <trkpt lat="46.239" lon="5.48659">
        <ele>418.4</ele>
        <time>2022-06-06T14:38:25Z</time>
      </trkpt>
      <trkpt lat="46.23904" lon="5.48656">
        <ele>418.8</ele>
        <time>2022-06-06T14:38:26Z</time>
      </trkpt>
      <trkpt lat="46.23912" lon="5.4865">
        <ele>419.2</ele>
        <time>2022-06-06T14:38:28Z</time>
      </trkpt>
      <trkpt lat="46.2392" lon="5.48644">
        <ele>419.6</ele>
        <time>2022-06-06T14:38:30Z</time>
      </trkpt>
      <trkpt lat="46.23928" lon="5.48637">
        <ele>419.8</ele>
        <time>2022-06-06T14:38:32Z</time>
      </trkpt>
      <trkpt lat="46.23937" lon="5.48632">
        <ele>420.2</ele>
        <time>2022-06-06T14:38:34Z</time>
      </trkpt>
      <trkpt lat="46.23946" lon="5.48629">
        <ele>420.6</ele>
        <time>2022-06-06T14:38:36Z</time>
      </trkpt>
      <trkpt lat="46.23954" lon="5.48625">
        <ele>420.8</ele>
        <time>2022-06-06T14:38:38Z</time>
      </trkpt>
      <trkpt lat="46.23958" lon="5.48624">
        <ele>421</ele>
        <time>2022-06-06T14:38:39Z</time>
      </trkpt>
      <trkpt lat="46.23961" lon="5.48621">
        <ele>421.4</ele>
        <time>2022-06-06T14:38:40Z</time>
      </trkpt>
      <trkpt lat="46.23968" lon="5.48617">
        <ele>422</ele>
        <time>2022-06-06T14:38:42Z</time>
      </trkpt>
      <trkpt lat="46.23975" lon="5.4861">
        <ele>422.4</ele>
        <time>2022-06-06T14:38:44Z</time>
      </trkpt>
      <trkpt lat="46.23983" lon="5.48603">
        <ele>423.2</ele>
        <time>2022-06-06T14:38:46Z</time>
      </trkpt>
      <trkpt lat="46.23991" lon="5.48595">
        <ele>423.6</ele>
        <time>2022-06-06T14:38:48Z</time>
      </trkpt>
      <trkpt lat="46.23995" lon="5.48592">
        <ele>423.6</ele>
        <time>2022-06-06T14:38:49Z</time>
      </trkpt>
      <trkpt lat="46.24003" lon="5.48589">
        <ele>424</ele>
        <time>2022-06-06T14:38:51Z</time>
      </trkpt>
      <trkpt lat="46.24012" lon="5.48586">
        <ele>424.2</ele>
        <time>2022-06-06T14:38:53Z</time>
      </trkpt>
      <trkpt lat="46.24016" lon="5.48585">
        <ele>424.4</ele>
        <time>2022-06-06T14:38:54Z</time>
      </trkpt>
      <trkpt lat="46.2402" lon="5.48584">
        <ele>424.8</ele>
        <time>2022-06-06T14:38:55Z</time>
      </trkpt>
      <trkpt lat="46.24029" lon="5.48582">
        <ele>425.2</ele>
        <time>2022-06-06T14:38:57Z</time>
      </trkpt>
      <trkpt lat="46.24033" lon="5.48581">
        <ele>425.6</ele>
        <time>2022-06-06T14:38:58Z</time>
      </trkpt>
      <trkpt lat="46.24038" lon="5.4858">
        <ele>425.8</ele>
        <time>2022-06-06T14:38:59Z</time>
      </trkpt>
      <trkpt lat="46.24042" lon="5.48579">
        <ele>426.2</ele>
        <time>2022-06-06T14:39:00Z</time>
      </trkpt>
      <trkpt lat="46.2405" lon="5.48577">
        <ele>426.8</ele>
        <time>2022-06-06T14:39:02Z</time>
      </trkpt>
      <trkpt lat="46.24062" lon="5.48572">
        <ele>427.6</ele>
        <time>2022-06-06T14:39:05Z</time>
      </trkpt>
      <trkpt lat="46.24069" lon="5.48567">
        <ele>428</ele>
        <time>2022-06-06T14:39:07Z</time>
      </trkpt>
      <trkpt lat="46.24081" lon="5.4856">
        <ele>428.8</ele>
        <time>2022-06-06T14:39:10Z</time>
      </trkpt>
      <trkpt lat="46.24084" lon="5.48557">
        <ele>429</ele>
        <time>2022-06-06T14:39:11Z</time>
      </trkpt>
      <trkpt lat="46.24088" lon="5.48554">
        <ele>429.2</ele>
        <time>2022-06-06T14:39:12Z</time>
      </trkpt>
      <trkpt lat="46.24097" lon="5.48548">
        <ele>429.8</ele>
        <time>2022-06-06T14:39:14Z</time>
      </trkpt>
      <trkpt lat="46.24109" lon="5.48541">
        <ele>430</ele>
        <time>2022-06-06T14:39:17Z</time>
      </trkpt>
      <trkpt lat="46.24117" lon="5.48537">
        <ele>430.4</ele>
        <time>2022-06-06T14:39:19Z</time>
      </trkpt>
      <trkpt lat="46.24133" lon="5.48531">
        <ele>431.2</ele>
        <time>2022-06-06T14:39:23Z</time>
      </trkpt>
      <trkpt lat="46.24146" lon="5.48527">
        <ele>432.2</ele>
        <time>2022-06-06T14:39:26Z</time>
      </trkpt>
      <trkpt lat="46.2415" lon="5.48525">
        <ele>432.4</ele>
        <time>2022-06-06T14:39:27Z</time>
      </trkpt>
      <trkpt lat="46.24162" lon="5.48521">
        <ele>433.2</ele>
        <time>2022-06-06T14:39:30Z</time>
      </trkpt>
      <trkpt lat="46.24171" lon="5.48519">
        <ele>433.6</ele>
        <time>2022-06-06T14:39:32Z</time>
      </trkpt>
      <trkpt lat="46.24175" lon="5.48518">
        <ele>433.8</ele>
        <time>2022-06-06T14:39:33Z</time>
      </trkpt>
      <trkpt lat="46.24179" lon="5.48517">
        <ele>434</ele>
        <time>2022-06-06T14:39:34Z</time>
      </trkpt>
      <trkpt lat="46.2419" lon="5.48511">
        <ele>434.8</ele>
        <time>2022-06-06T14:39:37Z</time>
      </trkpt>
      <trkpt lat="46.24194" lon="5.48508">
        <ele>435</ele>
        <time>2022-06-06T14:39:38Z</time>
      </trkpt>
      <trkpt lat="46.24198" lon="5.48506">
        <ele>435.2</ele>
        <time>2022-06-06T14:39:39Z</time>
      </trkpt>
      <trkpt lat="46.24201" lon="5.48503">
        <ele>435.8</ele>
        <time>2022-06-06T14:39:40Z</time>
      </trkpt>
      <trkpt lat="46.24205" lon="5.48501">
        <ele>436</ele>
        <time>2022-06-06T14:39:41Z</time>
      </trkpt>
      <trkpt lat="46.24213" lon="5.48494">
        <ele>436.4</ele>
        <time>2022-06-06T14:39:43Z</time>
      </trkpt>
      <trkpt lat="46.2422" lon="5.48487">
        <ele>436.6</ele>
        <time>2022-06-06T14:39:45Z</time>
      </trkpt>
      <trkpt lat="46.24224" lon="5.48482">
        <ele>437</ele>
        <time>2022-06-06T14:39:46Z</time>
      </trkpt>
      <trkpt lat="46.24232" lon="5.48468">
        <ele>437.6</ele>
        <time>2022-06-06T14:39:49Z</time>
      </trkpt>
      <trkpt lat="46.24237" lon="5.4846">
        <ele>438</ele>
        <time>2022-06-06T14:39:51Z</time>
      </trkpt>
      <trkpt lat="46.24243" lon="5.4845">
        <ele>438.4</ele>
        <time>2022-06-06T14:39:53Z</time>
      </trkpt>
      <trkpt lat="46.2425" lon="5.48442">
        <ele>438.8</ele>
        <time>2022-06-06T14:39:55Z</time>
      </trkpt>
      <trkpt lat="46.24256" lon="5.48435">
        <ele>439</ele>
        <time>2022-06-06T14:39:57Z</time>
      </trkpt>
      <trkpt lat="46.24259" lon="5.48432">
        <ele>439.2</ele>
        <time>2022-06-06T14:39:58Z</time>
      </trkpt>
      <trkpt lat="46.24263" lon="5.4843">
        <ele>439.4</ele>
        <time>2022-06-06T14:39:59Z</time>
      </trkpt>
      <trkpt lat="46.2427" lon="5.48424">
        <ele>440.2</ele>
        <time>2022-06-06T14:40:01Z</time>
      </trkpt>
      <trkpt lat="46.24281" lon="5.48415">
        <ele>441</ele>
        <time>2022-06-06T14:40:04Z</time>
      </trkpt>
      <trkpt lat="46.24285" lon="5.48411">
        <ele>441.4</ele>
        <time>2022-06-06T14:40:05Z</time>
      </trkpt>
      <trkpt lat="46.24288" lon="5.48407">
        <ele>441.4</ele>
        <time>2022-06-06T14:40:06Z</time>
      </trkpt>
      <trkpt lat="46.24292" lon="5.48403">
        <ele>442</ele>
        <time>2022-06-06T14:40:07Z</time>
      </trkpt>
      <trkpt lat="46.24295" lon="5.48399">
        <ele>442.4</ele>
        <time>2022-06-06T14:40:08Z</time>
      </trkpt>
      <trkpt lat="46.243" lon="5.48389">
        <ele>442.8</ele>
        <time>2022-06-06T14:40:10Z</time>
      </trkpt>
      <trkpt lat="46.24305" lon="5.4838">
        <ele>443</ele>
        <time>2022-06-06T14:40:12Z</time>
      </trkpt>
      <trkpt lat="46.24309" lon="5.4837">
        <ele>443.4</ele>
        <time>2022-06-06T14:40:14Z</time>
      </trkpt>
      <trkpt lat="46.24311" lon="5.48364">
        <ele>443.6</ele>
        <time>2022-06-06T14:40:15Z</time>
      </trkpt>
      <trkpt lat="46.24313" lon="5.4835">
        <ele>444.2</ele>
        <time>2022-06-06T14:40:17Z</time>
      </trkpt>
      <trkpt lat="46.24314" lon="5.48328">
        <ele>444.6</ele>
        <time>2022-06-06T14:40:20Z</time>
      </trkpt>
      <trkpt lat="46.24313" lon="5.48305">
        <ele>445.4</ele>
        <time>2022-06-06T14:40:23Z</time>
      </trkpt>
      <trkpt lat="46.24311" lon="5.48298">
        <ele>445.6</ele>
        <time>2022-06-06T14:40:24Z</time>
      </trkpt>
      <trkpt lat="46.2431" lon="5.48292">
        <ele>445.8</ele>
        <time>2022-06-06T14:40:25Z</time>
      </trkpt>
      <trkpt lat="46.24302" lon="5.48274">
        <ele>446.2</ele>
        <time>2022-06-06T14:40:28Z</time>
      </trkpt>
      <trkpt lat="46.24299" lon="5.48269">
        <ele>446.4</ele>
        <time>2022-06-06T14:40:29Z</time>
      </trkpt>
      <trkpt lat="46.24292" lon="5.48259">
        <ele>447</ele>
        <time>2022-06-06T14:40:31Z</time>
      </trkpt>
      <trkpt lat="46.24273" lon="5.48238">
        <ele>447.8</ele>
        <time>2022-06-06T14:40:36Z</time>
      </trkpt>
      <trkpt lat="46.2427" lon="5.48234">
        <ele>448</ele>
        <time>2022-06-06T14:40:37Z</time>
      </trkpt>
      <trkpt lat="46.24256" lon="5.48218">
        <ele>448.8</ele>
        <time>2022-06-06T14:40:41Z</time>
      </trkpt>
      <trkpt lat="46.24253" lon="5.48213">
        <ele>449.2</ele>
        <time>2022-06-06T14:40:42Z</time>
      </trkpt>
      <trkpt lat="46.24245" lon="5.48198">
        <ele>449.6</ele>
        <time>2022-06-06T14:40:45Z</time>
      </trkpt>
      <trkpt lat="46.24244" lon="5.48188">
        <ele>450</ele>
        <time>2022-06-06T14:40:47Z</time>
      </trkpt>
      <trkpt lat="46.24249" lon="5.48181">
        <ele>450.4</ele>
        <time>2022-06-06T14:40:49Z</time>
      </trkpt>
      <trkpt lat="46.24252" lon="5.4818">
        <ele>450.6</ele>
        <time>2022-06-06T14:40:50Z</time>
      </trkpt>
      <trkpt lat="46.24258" lon="5.48184">
        <ele>451.6</ele>
        <time>2022-06-06T14:40:52Z</time>
      </trkpt>
      <trkpt lat="46.24269" lon="5.48193">
        <ele>452.4</ele>
        <time>2022-06-06T14:40:55Z</time>
      </trkpt>
      <trkpt lat="46.24277" lon="5.48199">
        <ele>452.6</ele>
        <time>2022-06-06T14:40:57Z</time>
      </trkpt>
      <trkpt lat="46.24293" lon="5.48207">
        <ele>453.8</ele>
        <time>2022-06-06T14:41:01Z</time>
      </trkpt>
      <trkpt lat="46.24305" lon="5.48211">
        <ele>454.2</ele>
        <time>2022-06-06T14:41:04Z</time>
      </trkpt>
      <trkpt lat="46.24313" lon="5.48213">
        <ele>455</ele>
        <time>2022-06-06T14:41:06Z</time>
      </trkpt>
      <trkpt lat="46.24324" lon="5.48217">
        <ele>456</ele>
        <time>2022-06-06T14:41:09Z</time>
      </trkpt>
      <trkpt lat="46.24335" lon="5.4822">
        <ele>456.4</ele>
        <time>2022-06-06T14:41:12Z</time>
      </trkpt>
      <trkpt lat="46.24339" lon="5.48222">
        <ele>457.2</ele>
        <time>2022-06-06T14:41:14Z</time>
      </trkpt>
      <trkpt lat="46.24345" lon="5.48226">
        <ele>457.4</ele>
        <time>2022-06-06T14:41:16Z</time>
      </trkpt>
      <trkpt lat="46.24359" lon="5.48243">
        <ele>458</ele>
        <time>2022-06-06T14:41:20Z</time>
      </trkpt>
      <trkpt lat="46.24369" lon="5.4825">
        <ele>458.2</ele>
        <time>2022-06-06T14:41:22Z</time>
      </trkpt>
      <trkpt lat="46.24379" lon="5.48254">
        <ele>458.2</ele>
        <time>2022-06-06T14:41:24Z</time>
      </trkpt>
      <trkpt lat="46.24389" lon="5.48256">
        <ele>458.4</ele>
        <time>2022-06-06T14:41:26Z</time>
      </trkpt>
      <trkpt lat="46.24399" lon="5.48255">
        <ele>458.6</ele>
        <time>2022-06-06T14:41:28Z</time>
      </trkpt>
      <trkpt lat="46.24403" lon="5.48253">
        <ele>458.6</ele>
        <time>2022-06-06T14:41:29Z</time>
      </trkpt>
      <trkpt lat="46.24412" lon="5.48251">
        <ele>458.8</ele>
        <time>2022-06-06T14:41:31Z</time>
      </trkpt>
      <trkpt lat="46.24419" lon="5.4825">
        <ele>458.8</ele>
        <time>2022-06-06T14:41:33Z</time>
      </trkpt>
      <trkpt lat="46.24421" lon="5.48249">
        <ele>459</ele>
        <time>2022-06-06T14:41:34Z</time>
      </trkpt>
      <trkpt lat="46.24422" lon="5.48246">
        <ele>459</ele>
        <time>2022-06-06T14:41:35Z</time>
      </trkpt>
      <trkpt lat="46.2442" lon="5.4824">
        <ele>459.2</ele>
        <time>2022-06-06T14:41:37Z</time>
      </trkpt>
      <trkpt lat="46.24417" lon="5.48241">
        <ele>459</ele>
        <time>2022-06-06T14:41:39Z</time>
      </trkpt>
      <trkpt lat="46.24417" lon="5.4824">
        <ele>459.2</ele>
        <time>2022-06-06T14:41:41Z</time>
      </trkpt>
      <trkpt lat="46.24418" lon="5.48246">
        <ele>459</ele>
        <time>2022-06-06T14:42:34Z</time>
      </trkpt>
      <trkpt lat="46.24422" lon="5.4825">
        <ele>459</ele>
        <time>2022-06-06T14:42:37Z</time>
      </trkpt>
      <trkpt lat="46.24425" lon="5.48252">
        <ele>459</ele>
        <time>2022-06-06T14:42:39Z</time>
      </trkpt>
      <trkpt lat="46.24439" lon="5.4826">
        <ele>458.8</ele>
        <time>2022-06-06T14:42:43Z</time>
      </trkpt>
      <trkpt lat="46.24461" lon="5.48255">
        <ele>458.6</ele>
        <time>2022-06-06T14:42:47Z</time>
      </trkpt>
      <trkpt lat="46.24466" lon="5.48253">
        <ele>458.6</ele>
        <time>2022-06-06T14:42:48Z</time>
      </trkpt>
      <trkpt lat="46.24484" lon="5.4825">
        <ele>458.6</ele>
        <time>2022-06-06T14:42:51Z</time>
      </trkpt>
      <trkpt lat="46.24524" lon="5.48249">
        <ele>458.8</ele>
        <time>2022-06-06T14:42:58Z</time>
      </trkpt>
      <trkpt lat="46.2453" lon="5.4825">
        <ele>458.8</ele>
        <time>2022-06-06T14:42:59Z</time>
      </trkpt>
      <trkpt lat="46.24554" lon="5.48259">
        <ele>459.2</ele>
        <time>2022-06-06T14:43:03Z</time>
      </trkpt>
      <trkpt lat="46.24561" lon="5.48261">
        <ele>459.2</ele>
        <time>2022-06-06T14:43:04Z</time>
      </trkpt>
      <trkpt lat="46.24573" lon="5.48262">
        <ele>459</ele>
        <time>2022-06-06T14:43:06Z</time>
      </trkpt>
      <trkpt lat="46.2458" lon="5.48261">
        <ele>459</ele>
        <time>2022-06-06T14:43:07Z</time>
      </trkpt>
      <trkpt lat="46.24586" lon="5.48258">
        <ele>458.8</ele>
        <time>2022-06-06T14:43:08Z</time>
      </trkpt>
      <trkpt lat="46.24612" lon="5.48248">
        <ele>458.2</ele>
        <time>2022-06-06T14:43:12Z</time>
      </trkpt>
      <trkpt lat="46.24625" lon="5.48247">
        <ele>458</ele>
        <time>2022-06-06T14:43:14Z</time>
      </trkpt>
      <trkpt lat="46.24639" lon="5.48249">
        <ele>457.2</ele>
        <time>2022-06-06T14:43:16Z</time>
      </trkpt>
      <trkpt lat="46.2466" lon="5.48255">
        <ele>457</ele>
        <time>2022-06-06T14:43:19Z</time>
      </trkpt>
      <trkpt lat="46.2469" lon="5.48263">
        <ele>457.2</ele>
        <time>2022-06-06T14:43:23Z</time>
      </trkpt>
      <trkpt lat="46.24741" lon="5.48279">
        <ele>457.6</ele>
        <time>2022-06-06T14:43:30Z</time>
      </trkpt>
      <trkpt lat="46.24798" lon="5.4829">
        <ele>457.8</ele>
        <time>2022-06-06T14:43:38Z</time>
      </trkpt>
      <trkpt lat="46.24845" lon="5.48302">
        <ele>457.8</ele>
        <time>2022-06-06T14:43:45Z</time>
      </trkpt>
      <trkpt lat="46.249" lon="5.48319">
        <ele>458</ele>
        <time>2022-06-06T14:43:53Z</time>
      </trkpt>
      <trkpt lat="46.24915" lon="5.48323">
        <ele>458.2</ele>
        <time>2022-06-06T14:43:55Z</time>
      </trkpt>
      <trkpt lat="46.24968" lon="5.48341">
        <ele>458.2</ele>
        <time>2022-06-06T14:44:03Z</time>
      </trkpt>
      <trkpt lat="46.24983" lon="5.48345">
        <ele>458.6</ele>
        <time>2022-06-06T14:44:05Z</time>
      </trkpt>
      <trkpt lat="46.25023" lon="5.48358">
        <ele>459</ele>
        <time>2022-06-06T14:44:11Z</time>
      </trkpt>
      <trkpt lat="46.2503" lon="5.48359">
        <ele>459</ele>
        <time>2022-06-06T14:44:12Z</time>
      </trkpt>
      <trkpt lat="46.25049" lon="5.48365">
        <ele>459.4</ele>
        <time>2022-06-06T14:44:15Z</time>
      </trkpt>
      <trkpt lat="46.25083" lon="5.48374">
        <ele>460.2</ele>
        <time>2022-06-06T14:44:20Z</time>
      </trkpt>
      <trkpt lat="46.25128" lon="5.48388">
        <ele>460.2</ele>
        <time>2022-06-06T14:44:27Z</time>
      </trkpt>
      <trkpt lat="46.25186" lon="5.48405">
        <ele>460.4</ele>
        <time>2022-06-06T14:44:36Z</time>
      </trkpt>
      <trkpt lat="46.25204" lon="5.48416">
        <ele>460.8</ele>
        <time>2022-06-06T14:44:39Z</time>
      </trkpt>
      <trkpt lat="46.25245" lon="5.48442">
        <ele>461.6</ele>
        <time>2022-06-06T14:44:46Z</time>
      </trkpt>
      <trkpt lat="46.25257" lon="5.4845">
        <ele>461.8</ele>
        <time>2022-06-06T14:44:48Z</time>
      </trkpt>
      <trkpt lat="46.2529" lon="5.48478">
        <ele>462.4</ele>
        <time>2022-06-06T14:44:54Z</time>
      </trkpt>
      <trkpt lat="46.25315" lon="5.48505">
        <ele>463</ele>
        <time>2022-06-06T14:44:59Z</time>
      </trkpt>
      <trkpt lat="46.25329" lon="5.4852">
        <ele>463</ele>
        <time>2022-06-06T14:45:02Z</time>
      </trkpt>
      <trkpt lat="46.25362" lon="5.48556">
        <ele>464</ele>
        <time>2022-06-06T14:45:09Z</time>
      </trkpt>
      <trkpt lat="46.25372" lon="5.48565">
        <ele>464.2</ele>
        <time>2022-06-06T14:45:11Z</time>
      </trkpt>
      <trkpt lat="46.2541" lon="5.48594">
        <ele>465</ele>
        <time>2022-06-06T14:45:18Z</time>
      </trkpt>
      <trkpt lat="46.25428" lon="5.48605">
        <ele>465.2</ele>
        <time>2022-06-06T14:45:21Z</time>
      </trkpt>
      <trkpt lat="46.25479" lon="5.48639">
        <ele>465.8</ele>
        <time>2022-06-06T14:45:30Z</time>
      </trkpt>
      <trkpt lat="46.25484" lon="5.48642">
        <ele>466</ele>
        <time>2022-06-06T14:45:31Z</time>
      </trkpt>
      <trkpt lat="46.25489" lon="5.48645">
        <ele>466.2</ele>
        <time>2022-06-06T14:45:32Z</time>
      </trkpt>
      <trkpt lat="46.25521" lon="5.48661">
        <ele>467.4</ele>
        <time>2022-06-06T14:45:38Z</time>
      </trkpt>
      <trkpt lat="46.25543" lon="5.48672">
        <ele>468.6</ele>
        <time>2022-06-06T14:45:42Z</time>
      </trkpt>
      <trkpt lat="46.25561" lon="5.48681">
        <ele>469</ele>
        <time>2022-06-06T14:45:45Z</time>
      </trkpt>
      <trkpt lat="46.25597" lon="5.48707">
        <ele>469.8</ele>
        <time>2022-06-06T14:45:51Z</time>
      </trkpt>
      <trkpt lat="46.2564" lon="5.48748">
        <ele>470.8</ele>
        <time>2022-06-06T14:45:59Z</time>
      </trkpt>
      <trkpt lat="46.25644" lon="5.48752">
        <ele>471</ele>
        <time>2022-06-06T14:46:00Z</time>
      </trkpt>
      <trkpt lat="46.2569" lon="5.48791">
        <ele>471.2</ele>
        <time>2022-06-06T14:46:08Z</time>
      </trkpt>
      <trkpt lat="46.25728" lon="5.48814">
        <ele>470.8</ele>
        <time>2022-06-06T14:46:13Z</time>
      </trkpt>
      <trkpt lat="46.25748" lon="5.48815">
        <ele>470.2</ele>
        <time>2022-06-06T14:46:15Z</time>
      </trkpt>
      <trkpt lat="46.25756" lon="5.48812">
        <ele>469.8</ele>
        <time>2022-06-06T14:46:16Z</time>
      </trkpt>
      <trkpt lat="46.25767" lon="5.48807">
        <ele>469.2</ele>
        <time>2022-06-06T14:46:17Z</time>
      </trkpt>
      <trkpt lat="46.25785" lon="5.48797">
        <ele>468.2</ele>
        <time>2022-06-06T14:46:19Z</time>
      </trkpt>
      <trkpt lat="46.25792" lon="5.48793">
        <ele>467.8</ele>
        <time>2022-06-06T14:46:20Z</time>
      </trkpt>
      <trkpt lat="46.25802" lon="5.48789">
        <ele>467</ele>
        <time>2022-06-06T14:46:21Z</time>
      </trkpt>
      <trkpt lat="46.25829" lon="5.48784">
        <ele>466.2</ele>
        <time>2022-06-06T14:46:24Z</time>
      </trkpt>
      <trkpt lat="46.2584" lon="5.48785">
        <ele>466</ele>
        <time>2022-06-06T14:46:25Z</time>
      </trkpt>
      <trkpt lat="46.25849" lon="5.48788">
        <ele>465.6</ele>
        <time>2022-06-06T14:46:26Z</time>
      </trkpt>
      <trkpt lat="46.25856" lon="5.48791">
        <ele>465.6</ele>
        <time>2022-06-06T14:46:27Z</time>
      </trkpt>
      <trkpt lat="46.25865" lon="5.48797">
        <ele>465.2</ele>
        <time>2022-06-06T14:46:28Z</time>
      </trkpt>
      <trkpt lat="46.25886" lon="5.48815">
        <ele>465</ele>
        <time>2022-06-06T14:46:31Z</time>
      </trkpt>
      <trkpt lat="46.25901" lon="5.4883">
        <ele>465</ele>
        <time>2022-06-06T14:46:33Z</time>
      </trkpt>
      <trkpt lat="46.25946" lon="5.48878">
        <ele>466</ele>
        <time>2022-06-06T14:46:40Z</time>
      </trkpt>
      <trkpt lat="46.25953" lon="5.48884">
        <ele>466</ele>
        <time>2022-06-06T14:46:41Z</time>
      </trkpt>
      <trkpt lat="46.25998" lon="5.48932">
        <ele>466.6</ele>
        <time>2022-06-06T14:46:48Z</time>
      </trkpt>
      <trkpt lat="46.26004" lon="5.48939">
        <ele>466.8</ele>
        <time>2022-06-06T14:46:49Z</time>
      </trkpt>
      <trkpt lat="46.26029" lon="5.48967">
        <ele>467</ele>
        <time>2022-06-06T14:46:53Z</time>
      </trkpt>
      <trkpt lat="46.26052" lon="5.48992">
        <ele>467.4</ele>
        <time>2022-06-06T14:46:57Z</time>
      </trkpt>
      <trkpt lat="46.26065" lon="5.49001">
        <ele>467.8</ele>
        <time>2022-06-06T14:46:59Z</time>
      </trkpt>
      <trkpt lat="46.26078" lon="5.49004">
        <ele>468.2</ele>
        <time>2022-06-06T14:47:01Z</time>
      </trkpt>
      <trkpt lat="46.26104" lon="5.49001">
        <ele>468.8</ele>
        <time>2022-06-06T14:47:05Z</time>
      </trkpt>
      <trkpt lat="46.26123" lon="5.48996">
        <ele>469.4</ele>
        <time>2022-06-06T14:47:08Z</time>
      </trkpt>
      <trkpt lat="46.26135" lon="5.48995">
        <ele>470</ele>
        <time>2022-06-06T14:47:10Z</time>
      </trkpt>
      <trkpt lat="46.26149" lon="5.48993">
        <ele>470.6</ele>
        <time>2022-06-06T14:47:12Z</time>
      </trkpt>
      <trkpt lat="46.26175" lon="5.48994">
        <ele>471.4</ele>
        <time>2022-06-06T14:47:16Z</time>
      </trkpt>
      <trkpt lat="46.26194" lon="5.49">
        <ele>471.8</ele>
        <time>2022-06-06T14:47:19Z</time>
      </trkpt>
      <trkpt lat="46.26218" lon="5.49012">
        <ele>472.4</ele>
        <time>2022-06-06T14:47:23Z</time>
      </trkpt>
      <trkpt lat="46.26265" lon="5.49032">
        <ele>472.8</ele>
        <time>2022-06-06T14:47:30Z</time>
      </trkpt>
      <trkpt lat="46.2627" lon="5.49034">
        <ele>472.8</ele>
        <time>2022-06-06T14:47:31Z</time>
      </trkpt>
      <trkpt lat="46.26326" lon="5.49053">
        <ele>472.6</ele>
        <time>2022-06-06T14:47:39Z</time>
      </trkpt>
      <trkpt lat="46.26373" lon="5.49065">
        <ele>472.4</ele>
        <time>2022-06-06T14:47:46Z</time>
      </trkpt>
      <trkpt lat="46.26425" lon="5.4906">
        <ele>472.2</ele>
        <time>2022-06-06T14:47:53Z</time>
      </trkpt>
      <trkpt lat="46.2648" lon="5.49045">
        <ele>472</ele>
        <time>2022-06-06T14:48:00Z</time>
      </trkpt>
      <trkpt lat="46.26541" lon="5.49025">
        <ele>471.8</ele>
        <time>2022-06-06T14:48:08Z</time>
      </trkpt>
      <trkpt lat="46.26549" lon="5.49025">
        <ele>471.8</ele>
        <time>2022-06-06T14:48:09Z</time>
      </trkpt>
      <trkpt lat="46.26579" lon="5.49028">
        <ele>471.8</ele>
        <time>2022-06-06T14:48:13Z</time>
      </trkpt>
      <trkpt lat="46.26639" lon="5.49041">
        <ele>472.6</ele>
        <time>2022-06-06T14:48:21Z</time>
      </trkpt>
      <trkpt lat="46.26685" lon="5.49052">
        <ele>472.6</ele>
        <time>2022-06-06T14:48:27Z</time>
      </trkpt>
      <trkpt lat="46.26699" lon="5.49055">
        <ele>472.6</ele>
        <time>2022-06-06T14:48:29Z</time>
      </trkpt>
      <trkpt lat="46.26757" lon="5.49069">
        <ele>473</ele>
        <time>2022-06-06T14:48:37Z</time>
      </trkpt>
      <trkpt lat="46.26763" lon="5.49071">
        <ele>473</ele>
        <time>2022-06-06T14:48:38Z</time>
      </trkpt>
      <trkpt lat="46.26798" lon="5.49092">
        <ele>473.4</ele>
        <time>2022-06-06T14:48:43Z</time>
      </trkpt>
      <trkpt lat="46.26841" lon="5.49116">
        <ele>473.6</ele>
        <time>2022-06-06T14:48:49Z</time>
      </trkpt>
      <trkpt lat="46.26857" lon="5.49118">
        <ele>474</ele>
        <time>2022-06-06T14:48:51Z</time>
      </trkpt>
      <trkpt lat="46.26879" lon="5.49118">
        <ele>474.4</ele>
        <time>2022-06-06T14:48:54Z</time>
      </trkpt>
      <trkpt lat="46.26929" lon="5.49114">
        <ele>475.2</ele>
        <time>2022-06-06T14:49:01Z</time>
      </trkpt>
      <trkpt lat="46.2699" lon="5.49103">
        <ele>474.8</ele>
        <time>2022-06-06T14:49:09Z</time>
      </trkpt>
      <trkpt lat="46.26999" lon="5.49101">
        <ele>474.6</ele>
        <time>2022-06-06T14:49:10Z</time>
      </trkpt>
      <trkpt lat="46.27053" lon="5.49083">
        <ele>474.4</ele>
        <time>2022-06-06T14:49:17Z</time>
      </trkpt>
      <trkpt lat="46.27059" lon="5.4908">
        <ele>474.4</ele>
        <time>2022-06-06T14:49:18Z</time>
      </trkpt>
      <trkpt lat="46.27113" lon="5.49057">
        <ele>474.4</ele>
        <time>2022-06-06T14:49:25Z</time>
      </trkpt>
      <trkpt lat="46.2712" lon="5.49055">
        <ele>474.4</ele>
        <time>2022-06-06T14:49:26Z</time>
      </trkpt>
      <trkpt lat="46.27179" lon="5.49044">
        <ele>475.8</ele>
        <time>2022-06-06T14:49:34Z</time>
      </trkpt>
      <trkpt lat="46.27186" lon="5.49044">
        <ele>475.8</ele>
        <time>2022-06-06T14:49:35Z</time>
      </trkpt>
      <trkpt lat="46.27243" lon="5.49042">
        <ele>475.8</ele>
        <time>2022-06-06T14:49:42Z</time>
      </trkpt>
      <trkpt lat="46.27251" lon="5.49042">
        <ele>475.8</ele>
        <time>2022-06-06T14:49:43Z</time>
      </trkpt>
      <trkpt lat="46.27308" lon="5.49038">
        <ele>474.8</ele>
        <time>2022-06-06T14:49:50Z</time>
      </trkpt>
      <trkpt lat="46.27322" lon="5.49036">
        <ele>474.6</ele>
        <time>2022-06-06T14:49:52Z</time>
      </trkpt>
      <trkpt lat="46.27381" lon="5.49028">
        <ele>474.2</ele>
        <time>2022-06-06T14:49:59Z</time>
      </trkpt>
      <trkpt lat="46.27389" lon="5.49024">
        <ele>474</ele>
        <time>2022-06-06T14:50:00Z</time>
      </trkpt>
      <trkpt lat="46.27398" lon="5.49019">
        <ele>474</ele>
        <time>2022-06-06T14:50:01Z</time>
      </trkpt>
      <trkpt lat="46.27421" lon="5.48997">
        <ele>473.6</ele>
        <time>2022-06-06T14:50:04Z</time>
      </trkpt>
      <trkpt lat="46.27437" lon="5.48984">
        <ele>473</ele>
        <time>2022-06-06T14:50:06Z</time>
      </trkpt>
      <trkpt lat="46.27448" lon="5.48977">
        <ele>472.4</ele>
        <time>2022-06-06T14:50:07Z</time>
      </trkpt>
      <trkpt lat="46.27457" lon="5.48973">
        <ele>472.2</ele>
        <time>2022-06-06T14:50:08Z</time>
      </trkpt>
      <trkpt lat="46.27474" lon="5.48965">
        <ele>471.4</ele>
        <time>2022-06-06T14:50:10Z</time>
      </trkpt>
      <trkpt lat="46.27503" lon="5.48956">
        <ele>470.2</ele>
        <time>2022-06-06T14:50:13Z</time>
      </trkpt>
      <trkpt lat="46.27519" lon="5.48953">
        <ele>469.6</ele>
        <time>2022-06-06T14:50:15Z</time>
      </trkpt>
      <trkpt lat="46.27547" lon="5.4895">
        <ele>469.2</ele>
        <time>2022-06-06T14:50:18Z</time>
      </trkpt>
      <trkpt lat="46.27572" lon="5.48948">
        <ele>469.6</ele>
        <time>2022-06-06T14:50:21Z</time>
      </trkpt>
      <trkpt lat="46.2761" lon="5.48938">
        <ele>470.4</ele>
        <time>2022-06-06T14:50:26Z</time>
      </trkpt>
      <trkpt lat="46.27631" lon="5.48927">
        <ele>471.2</ele>
        <time>2022-06-06T14:50:29Z</time>
      </trkpt>
      <trkpt lat="46.27638" lon="5.48922">
        <ele>471.4</ele>
        <time>2022-06-06T14:50:30Z</time>
      </trkpt>
      <trkpt lat="46.27645" lon="5.48916">
        <ele>471.4</ele>
        <time>2022-06-06T14:50:31Z</time>
      </trkpt>
      <trkpt lat="46.2765" lon="5.48911">
        <ele>471.4</ele>
        <time>2022-06-06T14:50:32Z</time>
      </trkpt>
      <trkpt lat="46.27663" lon="5.48894">
        <ele>471.6</ele>
        <time>2022-06-06T14:50:34Z</time>
      </trkpt>
      <trkpt lat="46.27669" lon="5.48886">
        <ele>471.6</ele>
        <time>2022-06-06T14:50:35Z</time>
      </trkpt>
      <trkpt lat="46.27704" lon="5.48824">
        <ele>471.6</ele>
        <time>2022-06-06T14:50:42Z</time>
      </trkpt>
      <trkpt lat="46.27709" lon="5.48816">
        <ele>471.6</ele>
        <time>2022-06-06T14:50:43Z</time>
      </trkpt>
      <trkpt lat="46.27718" lon="5.48798">
        <ele>471.6</ele>
        <time>2022-06-06T14:50:45Z</time>
      </trkpt>
      <trkpt lat="46.27723" lon="5.48778">
        <ele>471.6</ele>
        <time>2022-06-06T14:50:47Z</time>
      </trkpt>
      <trkpt lat="46.27725" lon="5.48757">
        <ele>471.8</ele>
        <time>2022-06-06T14:50:49Z</time>
      </trkpt>
      <trkpt lat="46.27724" lon="5.48734">
        <ele>471.8</ele>
        <time>2022-06-06T14:50:51Z</time>
      </trkpt>
      <trkpt lat="46.27726" lon="5.48678">
        <ele>470.8</ele>
        <time>2022-06-06T14:50:56Z</time>
      </trkpt>
      <trkpt lat="46.27731" lon="5.48596">
        <ele>470.6</ele>
        <time>2022-06-06T14:51:03Z</time>
      </trkpt>
      <trkpt lat="46.27733" lon="5.48574">
        <ele>470.8</ele>
        <time>2022-06-06T14:51:05Z</time>
      </trkpt>
      <trkpt lat="46.27735" lon="5.48543">
        <ele>471.2</ele>
        <time>2022-06-06T14:51:08Z</time>
      </trkpt>
      <trkpt lat="46.27734" lon="5.48523">
        <ele>471.6</ele>
        <time>2022-06-06T14:51:10Z</time>
      </trkpt>
      <trkpt lat="46.27732" lon="5.48514">
        <ele>471.6</ele>
        <time>2022-06-06T14:51:11Z</time>
      </trkpt>
      <trkpt lat="46.27719" lon="5.48473">
        <ele>472.6</ele>
        <time>2022-06-06T14:51:16Z</time>
      </trkpt>
      <trkpt lat="46.27714" lon="5.48446">
        <ele>473.6</ele>
        <time>2022-06-06T14:51:19Z</time>
      </trkpt>
      <trkpt lat="46.27714" lon="5.48428">
        <ele>473.8</ele>
        <time>2022-06-06T14:51:21Z</time>
      </trkpt>
      <trkpt lat="46.27725" lon="5.48348">
        <ele>475</ele>
        <time>2022-06-06T14:51:30Z</time>
      </trkpt>
      <trkpt lat="46.27726" lon="5.4834">
        <ele>475.4</ele>
        <time>2022-06-06T14:51:31Z</time>
      </trkpt>
      <trkpt lat="46.27732" lon="5.48325">
        <ele>475.6</ele>
        <time>2022-06-06T14:51:33Z</time>
      </trkpt>
      <trkpt lat="46.27741" lon="5.48313">
        <ele>475.8</ele>
        <time>2022-06-06T14:51:35Z</time>
      </trkpt>
      <trkpt lat="46.27746" lon="5.48309">
        <ele>476</ele>
        <time>2022-06-06T14:51:36Z</time>
      </trkpt>
      <trkpt lat="46.27753" lon="5.48307">
        <ele>476</ele>
        <time>2022-06-06T14:51:37Z</time>
      </trkpt>
      <trkpt lat="46.27767" lon="5.48308">
        <ele>476</ele>
        <time>2022-06-06T14:51:39Z</time>
      </trkpt>
      <trkpt lat="46.27807" lon="5.48321">
        <ele>475.6</ele>
        <time>2022-06-06T14:51:44Z</time>
      </trkpt>
      <trkpt lat="46.27859" lon="5.48337">
        <ele>474</ele>
        <time>2022-06-06T14:51:50Z</time>
      </trkpt>
      <trkpt lat="46.27867" lon="5.4834">
        <ele>473.6</ele>
        <time>2022-06-06T14:51:51Z</time>
      </trkpt>
      <trkpt lat="46.27891" lon="5.48346">
        <ele>473.4</ele>
        <time>2022-06-06T14:51:54Z</time>
      </trkpt>
      <trkpt lat="46.27905" lon="5.48347">
        <ele>473.4</ele>
        <time>2022-06-06T14:51:56Z</time>
      </trkpt>
      <trkpt lat="46.27948" lon="5.48351">
        <ele>474.4</ele>
        <time>2022-06-06T14:52:02Z</time>
      </trkpt>
      <trkpt lat="46.27956" lon="5.48353">
        <ele>474.8</ele>
        <time>2022-06-06T14:52:03Z</time>
      </trkpt>
      <trkpt lat="46.27979" lon="5.48359">
        <ele>475</ele>
        <time>2022-06-06T14:52:06Z</time>
      </trkpt>
      <trkpt lat="46.27994" lon="5.48367">
        <ele>475.2</ele>
        <time>2022-06-06T14:52:08Z</time>
      </trkpt>
      <trkpt lat="46.28036" lon="5.48397">
        <ele>475.2</ele>
        <time>2022-06-06T14:52:14Z</time>
      </trkpt>
      <trkpt lat="46.28077" lon="5.48412">
        <ele>475.8</ele>
        <time>2022-06-06T14:52:20Z</time>
      </trkpt>
      <trkpt lat="46.28086" lon="5.48414">
        <ele>475.8</ele>
        <time>2022-06-06T14:52:21Z</time>
      </trkpt>
      <trkpt lat="46.28127" lon="5.48422">
        <ele>476.4</ele>
        <time>2022-06-06T14:52:27Z</time>
      </trkpt>
      <trkpt lat="46.28176" lon="5.48422">
        <ele>476.6</ele>
        <time>2022-06-06T14:52:33Z</time>
      </trkpt>
      <trkpt lat="46.28235" lon="5.48415">
        <ele>475.6</ele>
        <time>2022-06-06T14:52:40Z</time>
      </trkpt>
      <trkpt lat="46.28295" lon="5.48412">
        <ele>475.2</ele>
        <time>2022-06-06T14:52:47Z</time>
      </trkpt>
      <trkpt lat="46.28313" lon="5.48412">
        <ele>475</ele>
        <time>2022-06-06T14:52:49Z</time>
      </trkpt>
      <trkpt lat="46.2833" lon="5.48413">
        <ele>474.8</ele>
        <time>2022-06-06T14:52:51Z</time>
      </trkpt>
      <trkpt lat="46.28365" lon="5.48419">
        <ele>474.4</ele>
        <time>2022-06-06T14:52:55Z</time>
      </trkpt>
      <trkpt lat="46.284" lon="5.48426">
        <ele>473.4</ele>
        <time>2022-06-06T14:52:59Z</time>
      </trkpt>
      <trkpt lat="46.2844" lon="5.48428">
        <ele>472.8</ele>
        <time>2022-06-06T14:53:03Z</time>
      </trkpt>
      <trkpt lat="46.28458" lon="5.48428">
        <ele>472.6</ele>
        <time>2022-06-06T14:53:05Z</time>
      </trkpt>
      <trkpt lat="46.28503" lon="5.48424">
        <ele>471.8</ele>
        <time>2022-06-06T14:53:10Z</time>
      </trkpt>
      <trkpt lat="46.28565" lon="5.4841">
        <ele>471.8</ele>
        <time>2022-06-06T14:53:17Z</time>
      </trkpt>
      <trkpt lat="46.28572" lon="5.48409">
        <ele>471.8</ele>
        <time>2022-06-06T14:53:18Z</time>
      </trkpt>
      <trkpt lat="46.28632" lon="5.48393">
        <ele>471.6</ele>
        <time>2022-06-06T14:53:25Z</time>
      </trkpt>
      <trkpt lat="46.28649" lon="5.48389">
        <ele>471.6</ele>
        <time>2022-06-06T14:53:27Z</time>
      </trkpt>
      <trkpt lat="46.28674" lon="5.48383">
        <ele>471.6</ele>
        <time>2022-06-06T14:53:30Z</time>
      </trkpt>
      <trkpt lat="46.28731" lon="5.4837">
        <ele>472</ele>
        <time>2022-06-06T14:53:37Z</time>
      </trkpt>
      <trkpt lat="46.28739" lon="5.48369">
        <ele>472</ele>
        <time>2022-06-06T14:53:38Z</time>
      </trkpt>
      <trkpt lat="46.28772" lon="5.48366">
        <ele>472.6</ele>
        <time>2022-06-06T14:53:42Z</time>
      </trkpt>
      <trkpt lat="46.28798" lon="5.48366">
        <ele>472.6</ele>
        <time>2022-06-06T14:53:45Z</time>
      </trkpt>
      <trkpt lat="46.28855" lon="5.48365">
        <ele>472.4</ele>
        <time>2022-06-06T14:53:52Z</time>
      </trkpt>
      <trkpt lat="46.28881" lon="5.48365">
        <ele>472.4</ele>
        <time>2022-06-06T14:53:55Z</time>
      </trkpt>
      <trkpt lat="46.28939" lon="5.48372">
        <ele>471.8</ele>
        <time>2022-06-06T14:54:02Z</time>
      </trkpt>
      <trkpt lat="46.28947" lon="5.48375">
        <ele>471.8</ele>
        <time>2022-06-06T14:54:03Z</time>
      </trkpt>
      <trkpt lat="46.29003" lon="5.48401">
        <ele>471.8</ele>
        <time>2022-06-06T14:54:10Z</time>
      </trkpt>
      <trkpt lat="46.29041" lon="5.48417">
        <ele>472.2</ele>
        <time>2022-06-06T14:54:15Z</time>
      </trkpt>
      <trkpt lat="46.29049" lon="5.48417">
        <ele>472.4</ele>
        <time>2022-06-06T14:54:16Z</time>
      </trkpt>
      <trkpt lat="46.29057" lon="5.48415">
        <ele>472.4</ele>
        <time>2022-06-06T14:54:17Z</time>
      </trkpt>
      <trkpt lat="46.29069" lon="5.48402">
        <ele>472.4</ele>
        <time>2022-06-06T14:54:19Z</time>
      </trkpt>
      <trkpt lat="46.29075" lon="5.48384">
        <ele>472.6</ele>
        <time>2022-06-06T14:54:21Z</time>
      </trkpt>
      <trkpt lat="46.29077" lon="5.4837">
        <ele>472.6</ele>
        <time>2022-06-06T14:54:22Z</time>
      </trkpt>
      <trkpt lat="46.29087" lon="5.48293">
        <ele>472.8</ele>
        <time>2022-06-06T14:54:29Z</time>
      </trkpt>
      <trkpt lat="46.29097" lon="5.48239">
        <ele>473</ele>
        <time>2022-06-06T14:54:34Z</time>
      </trkpt>
      <trkpt lat="46.29104" lon="5.48221">
        <ele>473</ele>
        <time>2022-06-06T14:54:36Z</time>
      </trkpt>
      <trkpt lat="46.29114" lon="5.48206">
        <ele>473.2</ele>
        <time>2022-06-06T14:54:38Z</time>
      </trkpt>
      <trkpt lat="46.29119" lon="5.48202">
        <ele>473.4</ele>
        <time>2022-06-06T14:54:39Z</time>
      </trkpt>
      <trkpt lat="46.29132" lon="5.48194">
        <ele>473.6</ele>
        <time>2022-06-06T14:54:41Z</time>
      </trkpt>
      <trkpt lat="46.29163" lon="5.48177">
        <ele>474.2</ele>
        <time>2022-06-06T14:54:46Z</time>
      </trkpt>
      <trkpt lat="46.29174" lon="5.48172">
        <ele>474.6</ele>
        <time>2022-06-06T14:54:48Z</time>
      </trkpt>
      <trkpt lat="46.29189" lon="5.48162">
        <ele>475</ele>
        <time>2022-06-06T14:54:51Z</time>
      </trkpt>
      <trkpt lat="46.29199" lon="5.48155">
        <ele>475.8</ele>
        <time>2022-06-06T14:54:53Z</time>
      </trkpt>
      <trkpt lat="46.29212" lon="5.48146">
        <ele>477.2</ele>
        <time>2022-06-06T14:54:56Z</time>
      </trkpt>
      <trkpt lat="46.29216" lon="5.48142">
        <ele>477.4</ele>
        <time>2022-06-06T14:54:57Z</time>
      </trkpt>
      <trkpt lat="46.29222" lon="5.48138">
        <ele>477.6</ele>
        <time>2022-06-06T14:54:58Z</time>
      </trkpt>
      <trkpt lat="46.29229" lon="5.48129">
        <ele>478.4</ele>
        <time>2022-06-06T14:55:00Z</time>
      </trkpt>
      <trkpt lat="46.29232" lon="5.48124">
        <ele>479</ele>
        <time>2022-06-06T14:55:01Z</time>
      </trkpt>
      <trkpt lat="46.29234" lon="5.4812">
        <ele>479.4</ele>
        <time>2022-06-06T14:55:02Z</time>
      </trkpt>
      <trkpt lat="46.29238" lon="5.48114">
        <ele>479.8</ele>
        <time>2022-06-06T14:55:03Z</time>
      </trkpt>
      <trkpt lat="46.29246" lon="5.48106">
        <ele>480.6</ele>
        <time>2022-06-06T14:55:05Z</time>
      </trkpt>
      <trkpt lat="46.29252" lon="5.48102">
        <ele>480.8</ele>
        <time>2022-06-06T14:55:06Z</time>
      </trkpt>
      <trkpt lat="46.29272" lon="5.48098">
        <ele>481.2</ele>
        <time>2022-06-06T14:55:09Z</time>
      </trkpt>
      <trkpt lat="46.29287" lon="5.48092">
        <ele>481.2</ele>
        <time>2022-06-06T14:55:11Z</time>
      </trkpt>
      <trkpt lat="46.29294" lon="5.48092">
        <ele>481.2</ele>
        <time>2022-06-06T14:55:12Z</time>
      </trkpt>
      <trkpt lat="46.29302" lon="5.48095">
        <ele>480.6</ele>
        <time>2022-06-06T14:55:13Z</time>
      </trkpt>
      <trkpt lat="46.29315" lon="5.48106">
        <ele>480</ele>
        <time>2022-06-06T14:55:15Z</time>
      </trkpt>
      <trkpt lat="46.29323" lon="5.48116">
        <ele>479.6</ele>
        <time>2022-06-06T14:55:16Z</time>
      </trkpt>
      <trkpt lat="46.29328" lon="5.48125">
        <ele>479.4</ele>
        <time>2022-06-06T14:55:17Z</time>
      </trkpt>
      <trkpt lat="46.29339" lon="5.48142">
        <ele>479.2</ele>
        <time>2022-06-06T14:55:19Z</time>
      </trkpt>
      <trkpt lat="46.29345" lon="5.48153">
        <ele>479</ele>
        <time>2022-06-06T14:55:20Z</time>
      </trkpt>
      <trkpt lat="46.29363" lon="5.48176">
        <ele>478</ele>
        <time>2022-06-06T14:55:23Z</time>
      </trkpt>
      <trkpt lat="46.29369" lon="5.48185">
        <ele>477.8</ele>
        <time>2022-06-06T14:55:24Z</time>
      </trkpt>
      <trkpt lat="46.29412" lon="5.4824">
        <ele>477.4</ele>
        <time>2022-06-06T14:55:31Z</time>
      </trkpt>
      <trkpt lat="46.29457" lon="5.48277">
        <ele>477</ele>
        <time>2022-06-06T14:55:37Z</time>
      </trkpt>
      <trkpt lat="46.29466" lon="5.48284">
        <ele>477</ele>
        <time>2022-06-06T14:55:38Z</time>
      </trkpt>
      <trkpt lat="46.29505" lon="5.48303">
        <ele>477</ele>
        <time>2022-06-06T14:55:43Z</time>
      </trkpt>
      <trkpt lat="46.29547" lon="5.48324">
        <ele>476.4</ele>
        <time>2022-06-06T14:55:48Z</time>
      </trkpt>
      <trkpt lat="46.29599" lon="5.48353">
        <ele>476.6</ele>
        <time>2022-06-06T14:55:55Z</time>
      </trkpt>
      <trkpt lat="46.29621" lon="5.48364">
        <ele>477</ele>
        <time>2022-06-06T14:55:58Z</time>
      </trkpt>
      <trkpt lat="46.29663" lon="5.48386">
        <ele>478</ele>
        <time>2022-06-06T14:56:04Z</time>
      </trkpt>
      <trkpt lat="46.29672" lon="5.48391">
        <ele>478.2</ele>
        <time>2022-06-06T14:56:05Z</time>
      </trkpt>
      <trkpt lat="46.29723" lon="5.4842">
        <ele>478.6</ele>
        <time>2022-06-06T14:56:12Z</time>
      </trkpt>
      <trkpt lat="46.2973" lon="5.48426">
        <ele>478.8</ele>
        <time>2022-06-06T14:56:13Z</time>
      </trkpt>
      <trkpt lat="46.29736" lon="5.48432">
        <ele>478.8</ele>
        <time>2022-06-06T14:56:14Z</time>
      </trkpt>
      <trkpt lat="46.29748" lon="5.48448">
        <ele>478.8</ele>
        <time>2022-06-06T14:56:16Z</time>
      </trkpt>
      <trkpt lat="46.29753" lon="5.48457">
        <ele>478.8</ele>
        <time>2022-06-06T14:56:17Z</time>
      </trkpt>
      <trkpt lat="46.29763" lon="5.48474">
        <ele>479</ele>
        <time>2022-06-06T14:56:19Z</time>
      </trkpt>
      <trkpt lat="46.29775" lon="5.48486">
        <ele>479</ele>
        <time>2022-06-06T14:56:21Z</time>
      </trkpt>
      <trkpt lat="46.29797" lon="5.48503">
        <ele>479.2</ele>
        <time>2022-06-06T14:56:24Z</time>
      </trkpt>
      <trkpt lat="46.29826" lon="5.48522">
        <ele>479.4</ele>
        <time>2022-06-06T14:56:28Z</time>
      </trkpt>
      <trkpt lat="46.29833" lon="5.48525">
        <ele>479.4</ele>
        <time>2022-06-06T14:56:29Z</time>
      </trkpt>
      <trkpt lat="46.29849" lon="5.48528">
        <ele>479.4</ele>
        <time>2022-06-06T14:56:31Z</time>
      </trkpt>
      <trkpt lat="46.29858" lon="5.48528">
        <ele>479.4</ele>
        <time>2022-06-06T14:56:32Z</time>
      </trkpt>
      <trkpt lat="46.29898" lon="5.48517">
        <ele>479.4</ele>
        <time>2022-06-06T14:56:37Z</time>
      </trkpt>
      <trkpt lat="46.29951" lon="5.48489">
        <ele>480.2</ele>
        <time>2022-06-06T14:56:44Z</time>
      </trkpt>
      <trkpt lat="46.29957" lon="5.48483">
        <ele>480.4</ele>
        <time>2022-06-06T14:56:45Z</time>
      </trkpt>
      <trkpt lat="46.30005" lon="5.48439">
        <ele>480.8</ele>
        <time>2022-06-06T14:56:52Z</time>
      </trkpt>
      <trkpt lat="46.30032" lon="5.48418">
        <ele>480.8</ele>
        <time>2022-06-06T14:56:56Z</time>
      </trkpt>
      <trkpt lat="46.30048" lon="5.48411">
        <ele>480.6</ele>
        <time>2022-06-06T14:56:58Z</time>
      </trkpt>
      <trkpt lat="46.30069" lon="5.48407">
        <ele>481.2</ele>
        <time>2022-06-06T14:57:01Z</time>
      </trkpt>
      <trkpt lat="46.30077" lon="5.48407">
        <ele>481.4</ele>
        <time>2022-06-06T14:57:02Z</time>
      </trkpt>
      <trkpt lat="46.30124" lon="5.4841">
        <ele>482.4</ele>
        <time>2022-06-06T14:57:08Z</time>
      </trkpt>
      <trkpt lat="46.30174" lon="5.48408">
        <ele>482.6</ele>
        <time>2022-06-06T14:57:14Z</time>
      </trkpt>
      <trkpt lat="46.30198" lon="5.48405">
        <ele>482.6</ele>
        <time>2022-06-06T14:57:17Z</time>
      </trkpt>
      <trkpt lat="46.30214" lon="5.48404">
        <ele>482.6</ele>
        <time>2022-06-06T14:57:19Z</time>
      </trkpt>
      <trkpt lat="46.30229" lon="5.48408">
        <ele>482.8</ele>
        <time>2022-06-06T14:57:21Z</time>
      </trkpt>
      <trkpt lat="46.30244" lon="5.48416">
        <ele>483</ele>
        <time>2022-06-06T14:57:23Z</time>
      </trkpt>
      <trkpt lat="46.30256" lon="5.48426">
        <ele>483.4</ele>
        <time>2022-06-06T14:57:25Z</time>
      </trkpt>
      <trkpt lat="46.30269" lon="5.48435">
        <ele>484</ele>
        <time>2022-06-06T14:57:27Z</time>
      </trkpt>
      <trkpt lat="46.30283" lon="5.4844">
        <ele>484.4</ele>
        <time>2022-06-06T14:57:29Z</time>
      </trkpt>
      <trkpt lat="46.30289" lon="5.48443">
        <ele>484.6</ele>
        <time>2022-06-06T14:57:30Z</time>
      </trkpt>
      <trkpt lat="46.30312" lon="5.4845">
        <ele>485.4</ele>
        <time>2022-06-06T14:57:33Z</time>
      </trkpt>
      <trkpt lat="46.30336" lon="5.48461">
        <ele>485.6</ele>
        <time>2022-06-06T14:57:36Z</time>
      </trkpt>
      <trkpt lat="46.30365" lon="5.48488">
        <ele>485.6</ele>
        <time>2022-06-06T14:57:40Z</time>
      </trkpt>
      <trkpt lat="46.30384" lon="5.4851">
        <ele>485.4</ele>
        <time>2022-06-06T14:57:43Z</time>
      </trkpt>
      <trkpt lat="46.304" lon="5.48521">
        <ele>485.2</ele>
        <time>2022-06-06T14:57:45Z</time>
      </trkpt>
      <trkpt lat="46.30447" lon="5.48545">
        <ele>485.2</ele>
        <time>2022-06-06T14:57:51Z</time>
      </trkpt>
      <trkpt lat="46.30498" lon="5.48555">
        <ele>485.4</ele>
        <time>2022-06-06T14:57:57Z</time>
      </trkpt>
      <trkpt lat="46.30552" lon="5.48557">
        <ele>484.8</ele>
        <time>2022-06-06T14:58:03Z</time>
      </trkpt>
      <trkpt lat="46.30601" lon="5.4855">
        <ele>484.6</ele>
        <time>2022-06-06T14:58:09Z</time>
      </trkpt>
      <trkpt lat="46.30655" lon="5.48533">
        <ele>485.4</ele>
        <time>2022-06-06T14:58:16Z</time>
      </trkpt>
      <trkpt lat="46.30695" lon="5.48525">
        <ele>486</ele>
        <time>2022-06-06T14:58:21Z</time>
      </trkpt>
      <trkpt lat="46.30737" lon="5.48536">
        <ele>485.8</ele>
        <time>2022-06-06T14:58:26Z</time>
      </trkpt>
      <trkpt lat="46.30787" lon="5.48554">
        <ele>485.2</ele>
        <time>2022-06-06T14:58:32Z</time>
      </trkpt>
      <trkpt lat="46.30831" lon="5.48561">
        <ele>485.4</ele>
        <time>2022-06-06T14:58:38Z</time>
      </trkpt>
      <trkpt lat="46.30856" lon="5.48561">
        <ele>485.8</ele>
        <time>2022-06-06T14:58:41Z</time>
      </trkpt>
      <trkpt lat="46.30864" lon="5.48558">
        <ele>485.8</ele>
        <time>2022-06-06T14:58:42Z</time>
      </trkpt>
      <trkpt lat="46.30872" lon="5.48553">
        <ele>485.8</ele>
        <time>2022-06-06T14:58:43Z</time>
      </trkpt>
      <trkpt lat="46.30883" lon="5.48537">
        <ele>485.8</ele>
        <time>2022-06-06T14:58:45Z</time>
      </trkpt>
      <trkpt lat="46.30894" lon="5.48501">
        <ele>485.6</ele>
        <time>2022-06-06T14:58:48Z</time>
      </trkpt>
      <trkpt lat="46.30921" lon="5.48422">
        <ele>485</ele>
        <time>2022-06-06T14:58:55Z</time>
      </trkpt>
      <trkpt lat="46.30951" lon="5.48353">
        <ele>485.8</ele>
        <time>2022-06-06T14:59:02Z</time>
      </trkpt>
      <trkpt lat="46.30974" lon="5.48297">
        <ele>486</ele>
        <time>2022-06-06T14:59:08Z</time>
      </trkpt>
      <trkpt lat="46.30986" lon="5.48282">
        <ele>486.4</ele>
        <time>2022-06-06T14:59:10Z</time>
      </trkpt>
      <trkpt lat="46.30992" lon="5.48277">
        <ele>486.6</ele>
        <time>2022-06-06T14:59:11Z</time>
      </trkpt>
      <trkpt lat="46.30999" lon="5.48273">
        <ele>486.4</ele>
        <time>2022-06-06T14:59:12Z</time>
      </trkpt>
      <trkpt lat="46.31014" lon="5.4827">
        <ele>486.2</ele>
        <time>2022-06-06T14:59:14Z</time>
      </trkpt>
      <trkpt lat="46.31028" lon="5.48272">
        <ele>486.8</ele>
        <time>2022-06-06T14:59:16Z</time>
      </trkpt>
      <trkpt lat="46.31054" lon="5.4828">
        <ele>487.6</ele>
        <time>2022-06-06T14:59:20Z</time>
      </trkpt>
      <trkpt lat="46.3107" lon="5.48284">
        <ele>488</ele>
        <time>2022-06-06T14:59:22Z</time>
      </trkpt>
      <trkpt lat="46.31084" lon="5.48284">
        <ele>488.2</ele>
        <time>2022-06-06T14:59:24Z</time>
      </trkpt>
      <trkpt lat="46.31099" lon="5.48281">
        <ele>488.2</ele>
        <time>2022-06-06T14:59:26Z</time>
      </trkpt>
      <trkpt lat="46.3112" lon="5.48271">
        <ele>488.4</ele>
        <time>2022-06-06T14:59:29Z</time>
      </trkpt>
      <trkpt lat="46.31127" lon="5.48266">
        <ele>488.6</ele>
        <time>2022-06-06T14:59:30Z</time>
      </trkpt>
      <trkpt lat="46.31141" lon="5.48255">
        <ele>488.6</ele>
        <time>2022-06-06T14:59:32Z</time>
      </trkpt>
      <trkpt lat="46.31169" lon="5.48233">
        <ele>488.6</ele>
        <time>2022-06-06T14:59:36Z</time>
      </trkpt>
      <trkpt lat="46.31176" lon="5.48228">
        <ele>488.6</ele>
        <time>2022-06-06T14:59:37Z</time>
      </trkpt>
      <trkpt lat="46.31191" lon="5.48223">
        <ele>488.6</ele>
        <time>2022-06-06T14:59:39Z</time>
      </trkpt>
      <trkpt lat="46.312" lon="5.48222">
        <ele>488.4</ele>
        <time>2022-06-06T14:59:40Z</time>
      </trkpt>
      <trkpt lat="46.31208" lon="5.48222">
        <ele>488.4</ele>
        <time>2022-06-06T14:59:41Z</time>
      </trkpt>
      <trkpt lat="46.31232" lon="5.48228">
        <ele>488.2</ele>
        <time>2022-06-06T14:59:44Z</time>
      </trkpt>
      <trkpt lat="46.31277" lon="5.48247">
        <ele>488.2</ele>
        <time>2022-06-06T14:59:50Z</time>
      </trkpt>
      <trkpt lat="46.31303" lon="5.4826">
        <ele>488.6</ele>
        <time>2022-06-06T14:59:54Z</time>
      </trkpt>
      <trkpt lat="46.31317" lon="5.4827">
        <ele>488.6</ele>
        <time>2022-06-06T14:59:56Z</time>
      </trkpt>
      <trkpt lat="46.31325" lon="5.48278">
        <ele>488.6</ele>
        <time>2022-06-06T14:59:57Z</time>
      </trkpt>
      <trkpt lat="46.31341" lon="5.48303">
        <ele>488.8</ele>
        <time>2022-06-06T15:00:00Z</time>
      </trkpt>
      <trkpt lat="46.31378" lon="5.48368">
        <ele>489</ele>
        <time>2022-06-06T15:00:07Z</time>
      </trkpt>
      <trkpt lat="46.31382" lon="5.48375">
        <ele>489</ele>
        <time>2022-06-06T15:00:08Z</time>
      </trkpt>
      <trkpt lat="46.31417" lon="5.48439">
        <ele>489.6</ele>
        <time>2022-06-06T15:00:15Z</time>
      </trkpt>
      <trkpt lat="46.31453" lon="5.48506">
        <ele>490.6</ele>
        <time>2022-06-06T15:00:23Z</time>
      </trkpt>
      <trkpt lat="46.31469" lon="5.48527">
        <ele>490.6</ele>
        <time>2022-06-06T15:00:26Z</time>
      </trkpt>
      <trkpt lat="46.31476" lon="5.48533">
        <ele>490.8</ele>
        <time>2022-06-06T15:00:27Z</time>
      </trkpt>
      <trkpt lat="46.31489" lon="5.48544">
        <ele>491</ele>
        <time>2022-06-06T15:00:29Z</time>
      </trkpt>
      <trkpt lat="46.31525" lon="5.48563">
        <ele>491.4</ele>
        <time>2022-06-06T15:00:34Z</time>
      </trkpt>
      <trkpt lat="46.31555" lon="5.48571">
        <ele>491.8</ele>
        <time>2022-06-06T15:00:38Z</time>
      </trkpt>
      <trkpt lat="46.31579" lon="5.4858">
        <ele>492</ele>
        <time>2022-06-06T15:00:41Z</time>
      </trkpt>
      <trkpt lat="46.31637" lon="5.48601">
        <ele>492</ele>
        <time>2022-06-06T15:00:49Z</time>
      </trkpt>
      <trkpt lat="46.31645" lon="5.48602">
        <ele>492</ele>
        <time>2022-06-06T15:00:50Z</time>
      </trkpt>
      <trkpt lat="46.31693" lon="5.48605">
        <ele>492.8</ele>
        <time>2022-06-06T15:00:57Z</time>
      </trkpt>
      <trkpt lat="46.31733" lon="5.48608">
        <ele>493.8</ele>
        <time>2022-06-06T15:01:03Z</time>
      </trkpt>
      <trkpt lat="46.3174" lon="5.48609">
        <ele>494</ele>
        <time>2022-06-06T15:01:04Z</time>
      </trkpt>
      <trkpt lat="46.31768" lon="5.48616">
        <ele>495</ele>
        <time>2022-06-06T15:01:08Z</time>
      </trkpt>
      <trkpt lat="46.31781" lon="5.48622">
        <ele>495.2</ele>
        <time>2022-06-06T15:01:10Z</time>
      </trkpt>
      <trkpt lat="46.31822" lon="5.48644">
        <ele>496</ele>
        <time>2022-06-06T15:01:16Z</time>
      </trkpt>
      <trkpt lat="46.31828" lon="5.48648">
        <ele>495.8</ele>
        <time>2022-06-06T15:01:17Z</time>
      </trkpt>
      <trkpt lat="46.31862" lon="5.48661">
        <ele>496.2</ele>
        <time>2022-06-06T15:01:21Z</time>
      </trkpt>
      <trkpt lat="46.3192" lon="5.48674">
        <ele>496</ele>
        <time>2022-06-06T15:01:28Z</time>
      </trkpt>
      <trkpt lat="46.31936" lon="5.48678">
        <ele>495.8</ele>
        <time>2022-06-06T15:01:30Z</time>
      </trkpt>
      <trkpt lat="46.31984" lon="5.48679">
        <ele>495.2</ele>
        <time>2022-06-06T15:01:36Z</time>
      </trkpt>
      <trkpt lat="46.32031" lon="5.48674">
        <ele>496</ele>
        <time>2022-06-06T15:01:42Z</time>
      </trkpt>
      <trkpt lat="46.32092" lon="5.48673">
        <ele>496.2</ele>
        <time>2022-06-06T15:01:50Z</time>
      </trkpt>
      <trkpt lat="46.321" lon="5.48673">
        <ele>496.2</ele>
        <time>2022-06-06T15:01:51Z</time>
      </trkpt>
      <trkpt lat="46.32156" lon="5.48672">
        <ele>496.2</ele>
        <time>2022-06-06T15:01:58Z</time>
      </trkpt>
      <trkpt lat="46.32172" lon="5.48672">
        <ele>496.6</ele>
        <time>2022-06-06T15:02:00Z</time>
      </trkpt>
      <trkpt lat="46.32221" lon="5.48673">
        <ele>497</ele>
        <time>2022-06-06T15:02:06Z</time>
      </trkpt>
      <trkpt lat="46.32246" lon="5.48675">
        <ele>497.2</ele>
        <time>2022-06-06T15:02:09Z</time>
      </trkpt>
      <trkpt lat="46.32304" lon="5.48689">
        <ele>497.6</ele>
        <time>2022-06-06T15:02:16Z</time>
      </trkpt>
      <trkpt lat="46.3231" lon="5.4869">
        <ele>497.6</ele>
        <time>2022-06-06T15:02:17Z</time>
      </trkpt>
      <trkpt lat="46.3236" lon="5.48694">
        <ele>497.8</ele>
        <time>2022-06-06T15:02:23Z</time>
      </trkpt>
      <trkpt lat="46.32394" lon="5.48698">
        <ele>498</ele>
        <time>2022-06-06T15:02:27Z</time>
      </trkpt>
      <trkpt lat="46.32444" lon="5.48704">
        <ele>498.6</ele>
        <time>2022-06-06T15:02:33Z</time>
      </trkpt>
      <trkpt lat="46.325" lon="5.48712">
        <ele>498.8</ele>
        <time>2022-06-06T15:02:40Z</time>
      </trkpt>
      <trkpt lat="46.32525" lon="5.48718">
        <ele>499</ele>
        <time>2022-06-06T15:02:43Z</time>
      </trkpt>
      <trkpt lat="46.32565" lon="5.48729">
        <ele>499.6</ele>
        <time>2022-06-06T15:02:48Z</time>
      </trkpt>
      <trkpt lat="46.32605" lon="5.48741">
        <ele>500.2</ele>
        <time>2022-06-06T15:02:53Z</time>
      </trkpt>
      <trkpt lat="46.32636" lon="5.4875">
        <ele>500.6</ele>
        <time>2022-06-06T15:02:57Z</time>
      </trkpt>
      <trkpt lat="46.3269" lon="5.48766">
        <ele>501.4</ele>
        <time>2022-06-06T15:03:04Z</time>
      </trkpt>
      <trkpt lat="46.32705" lon="5.48771">
        <ele>501.6</ele>
        <time>2022-06-06T15:03:06Z</time>
      </trkpt>
      <trkpt lat="46.32758" lon="5.48786">
        <ele>502.2</ele>
        <time>2022-06-06T15:03:13Z</time>
      </trkpt>
      <trkpt lat="46.3278" lon="5.48794">
        <ele>502.4</ele>
        <time>2022-06-06T15:03:16Z</time>
      </trkpt>
      <trkpt lat="46.3281" lon="5.48804">
        <ele>503</ele>
        <time>2022-06-06T15:03:20Z</time>
      </trkpt>
      <trkpt lat="46.32832" lon="5.48811">
        <ele>503.6</ele>
        <time>2022-06-06T15:03:23Z</time>
      </trkpt>
      <trkpt lat="46.3289" lon="5.48832">
        <ele>504.4</ele>
        <time>2022-06-06T15:03:31Z</time>
      </trkpt>
      <trkpt lat="46.32913" lon="5.48841">
        <ele>504.6</ele>
        <time>2022-06-06T15:03:34Z</time>
      </trkpt>
      <trkpt lat="46.32945" lon="5.48854">
        <ele>504.8</ele>
        <time>2022-06-06T15:03:38Z</time>
      </trkpt>
      <trkpt lat="46.32999" lon="5.48874">
        <ele>505.4</ele>
        <time>2022-06-06T15:03:45Z</time>
      </trkpt>
      <trkpt lat="46.33007" lon="5.48877">
        <ele>505.6</ele>
        <time>2022-06-06T15:03:46Z</time>
      </trkpt>
      <trkpt lat="46.33041" lon="5.489">
        <ele>506.8</ele>
        <time>2022-06-06T15:03:51Z</time>
      </trkpt>
      <trkpt lat="46.33081" lon="5.48928">
        <ele>507.6</ele>
        <time>2022-06-06T15:03:57Z</time>
      </trkpt>
      <trkpt lat="46.33104" lon="5.48938">
        <ele>507.8</ele>
        <time>2022-06-06T15:04:00Z</time>
      </trkpt>
      <trkpt lat="46.33132" lon="5.4895">
        <ele>508.6</ele>
        <time>2022-06-06T15:04:04Z</time>
      </trkpt>
      <trkpt lat="46.33152" lon="5.48959">
        <ele>508.8</ele>
        <time>2022-06-06T15:04:07Z</time>
      </trkpt>
      <trkpt lat="46.33191" lon="5.48977">
        <ele>509.6</ele>
        <time>2022-06-06T15:04:13Z</time>
      </trkpt>
      <trkpt lat="46.3321" lon="5.48987">
        <ele>510.2</ele>
        <time>2022-06-06T15:04:16Z</time>
      </trkpt>
      <trkpt lat="46.3322" lon="5.48989">
        <ele>510.6</ele>
        <time>2022-06-06T15:04:18Z</time>
      </trkpt>
      <trkpt lat="46.33227" lon="5.4899">
        <ele>510.8</ele>
        <time>2022-06-06T15:04:19Z</time>
      </trkpt>
      <trkpt lat="46.33238" lon="5.48989">
        <ele>511.4</ele>
        <time>2022-06-06T15:04:21Z</time>
      </trkpt>
      <trkpt lat="46.33242" lon="5.48988">
        <ele>511.6</ele>
        <time>2022-06-06T15:04:22Z</time>
      </trkpt>
      <trkpt lat="46.33253" lon="5.48982">
        <ele>512</ele>
        <time>2022-06-06T15:04:24Z</time>
      </trkpt>
      <trkpt lat="46.33256" lon="5.48974">
        <ele>512.2</ele>
        <time>2022-06-06T15:04:25Z</time>
      </trkpt>
      <trkpt lat="46.33257" lon="5.48964">
        <ele>512.2</ele>
        <time>2022-06-06T15:04:26Z</time>
      </trkpt>
      <trkpt lat="46.33259" lon="5.4893">
        <ele>512</ele>
        <time>2022-06-06T15:04:29Z</time>
      </trkpt>
      <trkpt lat="46.33263" lon="5.4887">
        <ele>511.8</ele>
        <time>2022-06-06T15:04:34Z</time>
      </trkpt>
      <trkpt lat="46.33268" lon="5.48783">
        <ele>510.4</ele>
        <time>2022-06-06T15:04:41Z</time>
      </trkpt>
      <trkpt lat="46.3327" lon="5.48771">
        <ele>510.2</ele>
        <time>2022-06-06T15:04:42Z</time>
      </trkpt>
      <trkpt lat="46.33281" lon="5.48696">
        <ele>509.4</ele>
        <time>2022-06-06T15:04:48Z</time>
      </trkpt>
      <trkpt lat="46.33285" lon="5.48667">
        <ele>509.2</ele>
        <time>2022-06-06T15:04:50Z</time>
      </trkpt>
      <trkpt lat="46.33296" lon="5.48605">
        <ele>508.4</ele>
        <time>2022-06-06T15:04:55Z</time>
      </trkpt>
      <trkpt lat="46.33304" lon="5.48582">
        <ele>508.4</ele>
        <time>2022-06-06T15:04:57Z</time>
      </trkpt>
      <trkpt lat="46.3331" lon="5.48572">
        <ele>508.2</ele>
        <time>2022-06-06T15:04:58Z</time>
      </trkpt>
      <trkpt lat="46.33317" lon="5.48563">
        <ele>508</ele>
        <time>2022-06-06T15:04:59Z</time>
      </trkpt>
      <trkpt lat="46.33334" lon="5.48551">
        <ele>507.8</ele>
        <time>2022-06-06T15:05:01Z</time>
      </trkpt>
      <trkpt lat="46.3335" lon="5.48537">
        <ele>507.4</ele>
        <time>2022-06-06T15:05:03Z</time>
      </trkpt>
      <trkpt lat="46.33362" lon="5.48517">
        <ele>507.2</ele>
        <time>2022-06-06T15:05:05Z</time>
      </trkpt>
      <trkpt lat="46.33369" lon="5.48491">
        <ele>506.8</ele>
        <time>2022-06-06T15:05:07Z</time>
      </trkpt>
      <trkpt lat="46.33373" lon="5.48465">
        <ele>506.4</ele>
        <time>2022-06-06T15:05:09Z</time>
      </trkpt>
      <trkpt lat="46.33386" lon="5.48377">
        <ele>506.2</ele>
        <time>2022-06-06T15:05:16Z</time>
      </trkpt>
      <trkpt lat="46.33399" lon="5.48295">
        <ele>507</ele>
        <time>2022-06-06T15:05:23Z</time>
      </trkpt>
      <trkpt lat="46.33407" lon="5.48248">
        <ele>507</ele>
        <time>2022-06-06T15:05:27Z</time>
      </trkpt>
      <trkpt lat="46.33415" lon="5.48227">
        <ele>507</ele>
        <time>2022-06-06T15:05:29Z</time>
      </trkpt>
      <trkpt lat="46.33439" lon="5.48195">
        <ele>507</ele>
        <time>2022-06-06T15:05:33Z</time>
      </trkpt>
      <trkpt lat="46.33481" lon="5.48141">
        <ele>507.2</ele>
        <time>2022-06-06T15:05:40Z</time>
      </trkpt>
      <trkpt lat="46.33486" lon="5.48133">
        <ele>507.2</ele>
        <time>2022-06-06T15:05:41Z</time>
      </trkpt>
      <trkpt lat="46.33515" lon="5.48101">
        <ele>507.8</ele>
        <time>2022-06-06T15:05:46Z</time>
      </trkpt>
      <trkpt lat="46.33521" lon="5.48096">
        <ele>508.2</ele>
        <time>2022-06-06T15:05:47Z</time>
      </trkpt>
      <trkpt lat="46.33545" lon="5.48079">
        <ele>509</ele>
        <time>2022-06-06T15:05:51Z</time>
      </trkpt>
      <trkpt lat="46.33556" lon="5.48071">
        <ele>509.6</ele>
        <time>2022-06-06T15:05:53Z</time>
      </trkpt>
      <trkpt lat="46.33567" lon="5.48063">
        <ele>510.2</ele>
        <time>2022-06-06T15:05:55Z</time>
      </trkpt>
      <trkpt lat="46.33589" lon="5.48046">
        <ele>511.4</ele>
        <time>2022-06-06T15:05:59Z</time>
      </trkpt>
      <trkpt lat="46.33604" lon="5.48032">
        <ele>512</ele>
        <time>2022-06-06T15:06:02Z</time>
      </trkpt>
      <trkpt lat="46.33614" lon="5.48023">
        <ele>512.6</ele>
        <time>2022-06-06T15:06:04Z</time>
      </trkpt>
      <trkpt lat="46.33634" lon="5.48006">
        <ele>513.8</ele>
        <time>2022-06-06T15:06:08Z</time>
      </trkpt>
      <trkpt lat="46.33643" lon="5.47996">
        <ele>514.4</ele>
        <time>2022-06-06T15:06:10Z</time>
      </trkpt>
      <trkpt lat="46.33652" lon="5.47987">
        <ele>515</ele>
        <time>2022-06-06T15:06:12Z</time>
      </trkpt>
      <trkpt lat="46.33668" lon="5.47969">
        <ele>515.6</ele>
        <time>2022-06-06T15:06:16Z</time>
      </trkpt>
      <trkpt lat="46.33673" lon="5.47959">
        <ele>516</ele>
        <time>2022-06-06T15:06:18Z</time>
      </trkpt>
      <trkpt lat="46.33677" lon="5.47951">
        <ele>516.2</ele>
        <time>2022-06-06T15:06:19Z</time>
      </trkpt>
      <trkpt lat="46.33681" lon="5.47939">
        <ele>516.6</ele>
        <time>2022-06-06T15:06:21Z</time>
      </trkpt>
      <trkpt lat="46.33683" lon="5.47925">
        <ele>517</ele>
        <time>2022-06-06T15:06:23Z</time>
      </trkpt>
      <trkpt lat="46.33684" lon="5.47918">
        <ele>517.4</ele>
        <time>2022-06-06T15:06:24Z</time>
      </trkpt>
      <trkpt lat="46.33687" lon="5.47896">
        <ele>518.2</ele>
        <time>2022-06-06T15:06:27Z</time>
      </trkpt>
      <trkpt lat="46.33689" lon="5.47889">
        <ele>518.4</ele>
        <time>2022-06-06T15:06:28Z</time>
      </trkpt>
      <trkpt lat="46.33693" lon="5.47884">
        <ele>518.4</ele>
        <time>2022-06-06T15:06:29Z</time>
      </trkpt>
      <trkpt lat="46.33702" lon="5.47878">
        <ele>518.6</ele>
        <time>2022-06-06T15:06:31Z</time>
      </trkpt>
      <trkpt lat="46.33729" lon="5.47884">
        <ele>519.4</ele>
        <time>2022-06-06T15:06:36Z</time>
      </trkpt>
      <trkpt lat="46.33735" lon="5.47886">
        <ele>519.6</ele>
        <time>2022-06-06T15:06:37Z</time>
      </trkpt>
      <trkpt lat="46.33762" lon="5.47894">
        <ele>519.6</ele>
        <time>2022-06-06T15:06:41Z</time>
      </trkpt>
      <trkpt lat="46.33817" lon="5.47913">
        <ele>519.4</ele>
        <time>2022-06-06T15:06:49Z</time>
      </trkpt>
      <trkpt lat="46.33824" lon="5.47915">
        <ele>519.2</ele>
        <time>2022-06-06T15:06:50Z</time>
      </trkpt>
      <trkpt lat="46.33868" lon="5.47918">
        <ele>519.4</ele>
        <time>2022-06-06T15:06:57Z</time>
      </trkpt>
      <trkpt lat="46.33919" lon="5.47914">
        <ele>520.4</ele>
        <time>2022-06-06T15:07:05Z</time>
      </trkpt>
      <trkpt lat="46.33925" lon="5.47912">
        <ele>520.6</ele>
        <time>2022-06-06T15:07:06Z</time>
      </trkpt>
      <trkpt lat="46.3395" lon="5.47901">
        <ele>521.2</ele>
        <time>2022-06-06T15:07:10Z</time>
      </trkpt>
      <trkpt lat="46.33975" lon="5.47886">
        <ele>521.6</ele>
        <time>2022-06-06T15:07:14Z</time>
      </trkpt>
      <trkpt lat="46.33995" lon="5.47872">
        <ele>522</ele>
        <time>2022-06-06T15:07:17Z</time>
      </trkpt>
      <trkpt lat="46.34025" lon="5.47841">
        <ele>521.6</ele>
        <time>2022-06-06T15:07:22Z</time>
      </trkpt>
      <trkpt lat="46.34057" lon="5.47801">
        <ele>521</ele>
        <time>2022-06-06T15:07:28Z</time>
      </trkpt>
      <trkpt lat="46.34091" lon="5.47763">
        <ele>521</ele>
        <time>2022-06-06T15:07:34Z</time>
      </trkpt>
      <trkpt lat="46.34097" lon="5.47759">
        <ele>521</ele>
        <time>2022-06-06T15:07:35Z</time>
      </trkpt>
      <trkpt lat="46.34104" lon="5.47756">
        <ele>521.2</ele>
        <time>2022-06-06T15:07:36Z</time>
      </trkpt>
      <trkpt lat="46.34124" lon="5.47753">
        <ele>521.4</ele>
        <time>2022-06-06T15:07:39Z</time>
      </trkpt>
      <trkpt lat="46.34153" lon="5.47756">
        <ele>521.8</ele>
        <time>2022-06-06T15:07:43Z</time>
      </trkpt>
      <trkpt lat="46.3417" lon="5.4776">
        <ele>521.8</ele>
        <time>2022-06-06T15:07:45Z</time>
      </trkpt>
      <trkpt lat="46.34226" lon="5.47774">
        <ele>520.6</ele>
        <time>2022-06-06T15:07:51Z</time>
      </trkpt>
      <trkpt lat="46.34246" lon="5.47779">
        <ele>519.4</ele>
        <time>2022-06-06T15:07:53Z</time>
      </trkpt>
      <trkpt lat="46.34269" lon="5.47786">
        <ele>517</ele>
        <time>2022-06-06T15:07:55Z</time>
      </trkpt>
      <trkpt lat="46.34281" lon="5.4779">
        <ele>516.6</ele>
        <time>2022-06-06T15:07:56Z</time>
      </trkpt>
      <trkpt lat="46.34293" lon="5.47792">
        <ele>515.4</ele>
        <time>2022-06-06T15:07:57Z</time>
      </trkpt>
      <trkpt lat="46.34319" lon="5.47797">
        <ele>513.4</ele>
        <time>2022-06-06T15:07:59Z</time>
      </trkpt>
      <trkpt lat="46.34346" lon="5.47797">
        <ele>512</ele>
        <time>2022-06-06T15:08:01Z</time>
      </trkpt>
      <trkpt lat="46.34371" lon="5.47793">
        <ele>510.6</ele>
        <time>2022-06-06T15:08:03Z</time>
      </trkpt>
      <trkpt lat="46.34384" lon="5.47789">
        <ele>508.8</ele>
        <time>2022-06-06T15:08:04Z</time>
      </trkpt>
      <trkpt lat="46.34398" lon="5.47783">
        <ele>508.2</ele>
        <time>2022-06-06T15:08:05Z</time>
      </trkpt>
      <trkpt lat="46.34413" lon="5.47777">
        <ele>507.2</ele>
        <time>2022-06-06T15:08:06Z</time>
      </trkpt>
      <trkpt lat="46.34425" lon="5.47767">
        <ele>507</ele>
        <time>2022-06-06T15:08:07Z</time>
      </trkpt>
      <trkpt lat="46.34436" lon="5.47754">
        <ele>506.2</ele>
        <time>2022-06-06T15:08:08Z</time>
      </trkpt>
      <trkpt lat="46.34446" lon="5.47738">
        <ele>504.2</ele>
        <time>2022-06-06T15:08:09Z</time>
      </trkpt>
      <trkpt lat="46.34461" lon="5.47707">
        <ele>502.2</ele>
        <time>2022-06-06T15:08:11Z</time>
      </trkpt>
      <trkpt lat="46.34471" lon="5.47686">
        <ele>501.8</ele>
        <time>2022-06-06T15:08:12Z</time>
      </trkpt>
      <trkpt lat="46.34479" lon="5.4767">
        <ele>500</ele>
        <time>2022-06-06T15:08:13Z</time>
      </trkpt>
      <trkpt lat="46.34496" lon="5.47637">
        <ele>498.2</ele>
        <time>2022-06-06T15:08:15Z</time>
      </trkpt>
      <trkpt lat="46.34505" lon="5.47622">
        <ele>497.2</ele>
        <time>2022-06-06T15:08:16Z</time>
      </trkpt>
      <trkpt lat="46.34513" lon="5.47607">
        <ele>496.6</ele>
        <time>2022-06-06T15:08:17Z</time>
      </trkpt>
      <trkpt lat="46.34522" lon="5.47593">
        <ele>495.6</ele>
        <time>2022-06-06T15:08:18Z</time>
      </trkpt>
      <trkpt lat="46.34558" lon="5.47538">
        <ele>494.6</ele>
        <time>2022-06-06T15:08:22Z</time>
      </trkpt>
      <trkpt lat="46.34568" lon="5.47525">
        <ele>494.4</ele>
        <time>2022-06-06T15:08:23Z</time>
      </trkpt>
      <trkpt lat="46.34589" lon="5.47501">
        <ele>493.2</ele>
        <time>2022-06-06T15:08:25Z</time>
      </trkpt>
      <trkpt lat="46.3461" lon="5.47477">
        <ele>491.8</ele>
        <time>2022-06-06T15:08:27Z</time>
      </trkpt>
      <trkpt lat="46.34627" lon="5.47447">
        <ele>490.4</ele>
        <time>2022-06-06T15:08:29Z</time>
      </trkpt>
      <trkpt lat="46.34639" lon="5.47412">
        <ele>488.8</ele>
        <time>2022-06-06T15:08:31Z</time>
      </trkpt>
      <trkpt lat="46.34643" lon="5.47393">
        <ele>487.6</ele>
        <time>2022-06-06T15:08:32Z</time>
      </trkpt>
      <trkpt lat="46.34646" lon="5.47379">
        <ele>486.6</ele>
        <time>2022-06-06T15:08:33Z</time>
      </trkpt>
      <trkpt lat="46.34651" lon="5.47359">
        <ele>485.2</ele>
        <time>2022-06-06T15:08:34Z</time>
      </trkpt>
      <trkpt lat="46.34658" lon="5.47326">
        <ele>484</ele>
        <time>2022-06-06T15:08:36Z</time>
      </trkpt>
      <trkpt lat="46.34661" lon="5.47311">
        <ele>483.8</ele>
        <time>2022-06-06T15:08:37Z</time>
      </trkpt>
      <trkpt lat="46.34663" lon="5.47297">
        <ele>483.4</ele>
        <time>2022-06-06T15:08:38Z</time>
      </trkpt>
      <trkpt lat="46.3466" lon="5.47269">
        <ele>483</ele>
        <time>2022-06-06T15:08:40Z</time>
      </trkpt>
      <trkpt lat="46.34656" lon="5.47251">
        <ele>482.8</ele>
        <time>2022-06-06T15:08:41Z</time>
      </trkpt>
      <trkpt lat="46.34646" lon="5.47214">
        <ele>482</ele>
        <time>2022-06-06T15:08:43Z</time>
      </trkpt>
      <trkpt lat="46.34619" lon="5.47182">
        <ele>480.6</ele>
        <time>2022-06-06T15:08:45Z</time>
      </trkpt>
      <trkpt lat="46.34605" lon="5.47171">
        <ele>479.4</ele>
        <time>2022-06-06T15:08:46Z</time>
      </trkpt>
      <trkpt lat="46.34578" lon="5.47154">
        <ele>477.2</ele>
        <time>2022-06-06T15:08:48Z</time>
      </trkpt>
      <trkpt lat="46.34552" lon="5.47139">
        <ele>475.6</ele>
        <time>2022-06-06T15:08:50Z</time>
      </trkpt>
      <trkpt lat="46.34529" lon="5.47123">
        <ele>474.8</ele>
        <time>2022-06-06T15:08:52Z</time>
      </trkpt>
      <trkpt lat="46.3452" lon="5.47116">
        <ele>474.4</ele>
        <time>2022-06-06T15:08:53Z</time>
      </trkpt>
      <trkpt lat="46.34509" lon="5.47103">
        <ele>474.4</ele>
        <time>2022-06-06T15:08:54Z</time>
      </trkpt>
      <trkpt lat="46.34493" lon="5.47082">
        <ele>473.4</ele>
        <time>2022-06-06T15:08:56Z</time>
      </trkpt>
      <trkpt lat="46.34477" lon="5.47051">
        <ele>473</ele>
        <time>2022-06-06T15:08:58Z</time>
      </trkpt>
      <trkpt lat="46.34472" lon="5.47035">
        <ele>472.6</ele>
        <time>2022-06-06T15:08:59Z</time>
      </trkpt>
      <trkpt lat="46.34468" lon="5.4702">
        <ele>472</ele>
        <time>2022-06-06T15:09:00Z</time>
      </trkpt>
      <trkpt lat="46.34462" lon="5.46985">
        <ele>470.8</ele>
        <time>2022-06-06T15:09:02Z</time>
      </trkpt>
      <trkpt lat="46.34456" lon="5.46965">
        <ele>470.6</ele>
        <time>2022-06-06T15:09:03Z</time>
      </trkpt>
      <trkpt lat="46.34449" lon="5.46954">
        <ele>469.8</ele>
        <time>2022-06-06T15:09:04Z</time>
      </trkpt>
      <trkpt lat="46.34427" lon="5.4693">
        <ele>467.8</ele>
        <time>2022-06-06T15:09:06Z</time>
      </trkpt>
      <trkpt lat="46.34418" lon="5.46923">
        <ele>466.6</ele>
        <time>2022-06-06T15:09:07Z</time>
      </trkpt>
      <trkpt lat="46.3439" lon="5.4691">
        <ele>464.8</ele>
        <time>2022-06-06T15:09:09Z</time>
      </trkpt>
      <trkpt lat="46.34364" lon="5.46903">
        <ele>463</ele>
        <time>2022-06-06T15:09:11Z</time>
      </trkpt>
      <trkpt lat="46.34341" lon="5.46891">
        <ele>461.4</ele>
        <time>2022-06-06T15:09:13Z</time>
      </trkpt>
      <trkpt lat="46.34333" lon="5.46884">
        <ele>461.2</ele>
        <time>2022-06-06T15:09:14Z</time>
      </trkpt>
      <trkpt lat="46.34324" lon="5.46855">
        <ele>460</ele>
        <time>2022-06-06T15:09:16Z</time>
      </trkpt>
      <trkpt lat="46.34327" lon="5.46827">
        <ele>459</ele>
        <time>2022-06-06T15:09:18Z</time>
      </trkpt>
      <trkpt lat="46.34329" lon="5.46793">
        <ele>458.4</ele>
        <time>2022-06-06T15:09:20Z</time>
      </trkpt>
      <trkpt lat="46.34326" lon="5.46777">
        <ele>458</ele>
        <time>2022-06-06T15:09:21Z</time>
      </trkpt>
      <trkpt lat="46.34322" lon="5.46766">
        <ele>457.2</ele>
        <time>2022-06-06T15:09:22Z</time>
      </trkpt>
      <trkpt lat="46.34304" lon="5.46744">
        <ele>456.2</ele>
        <time>2022-06-06T15:09:24Z</time>
      </trkpt>
      <trkpt lat="46.34276" lon="5.46721">
        <ele>454.2</ele>
        <time>2022-06-06T15:09:27Z</time>
      </trkpt>
      <trkpt lat="46.34257" lon="5.46705">
        <ele>453.8</ele>
        <time>2022-06-06T15:09:29Z</time>
      </trkpt>
      <trkpt lat="46.34222" lon="5.46677">
        <ele>453.4</ele>
        <time>2022-06-06T15:09:33Z</time>
      </trkpt>
      <trkpt lat="46.34212" lon="5.4667">
        <ele>453.2</ele>
        <time>2022-06-06T15:09:34Z</time>
      </trkpt>
      <trkpt lat="46.34198" lon="5.46649">
        <ele>453</ele>
        <time>2022-06-06T15:09:36Z</time>
      </trkpt>
      <trkpt lat="46.34196" lon="5.46635">
        <ele>452.8</ele>
        <time>2022-06-06T15:09:37Z</time>
      </trkpt>
      <trkpt lat="46.34197" lon="5.46617">
        <ele>452.8</ele>
        <time>2022-06-06T15:09:38Z</time>
      </trkpt>
      <trkpt lat="46.34199" lon="5.46597">
        <ele>452.6</ele>
        <time>2022-06-06T15:09:39Z</time>
      </trkpt>
      <trkpt lat="46.34203" lon="5.46582">
        <ele>452.4</ele>
        <time>2022-06-06T15:09:40Z</time>
      </trkpt>
      <trkpt lat="46.34208" lon="5.4657">
        <ele>452</ele>
        <time>2022-06-06T15:09:41Z</time>
      </trkpt>
      <trkpt lat="46.34214" lon="5.46557">
        <ele>452</ele>
        <time>2022-06-06T15:09:42Z</time>
      </trkpt>
      <trkpt lat="46.3422" lon="5.4655">
        <ele>451.8</ele>
        <time>2022-06-06T15:09:43Z</time>
      </trkpt>
      <trkpt lat="46.34233" lon="5.46539">
        <ele>451.6</ele>
        <time>2022-06-06T15:09:45Z</time>
      </trkpt>
      <trkpt lat="46.34241" lon="5.46532">
        <ele>451.4</ele>
        <time>2022-06-06T15:09:46Z</time>
      </trkpt>
      <trkpt lat="46.34264" lon="5.46519">
        <ele>451.4</ele>
        <time>2022-06-06T15:09:48Z</time>
      </trkpt>
      <trkpt lat="46.34275" lon="5.46512">
        <ele>451.4</ele>
        <time>2022-06-06T15:09:49Z</time>
      </trkpt>
      <trkpt lat="46.34283" lon="5.46507">
        <ele>451.4</ele>
        <time>2022-06-06T15:09:50Z</time>
      </trkpt>
      <trkpt lat="46.34298" lon="5.46486">
        <ele>451</ele>
        <time>2022-06-06T15:09:52Z</time>
      </trkpt>
      <trkpt lat="46.34304" lon="5.46464">
        <ele>451.2</ele>
        <time>2022-06-06T15:09:54Z</time>
      </trkpt>
      <trkpt lat="46.34294" lon="5.4642">
        <ele>451.4</ele>
        <time>2022-06-06T15:09:57Z</time>
      </trkpt>
      <trkpt lat="46.34291" lon="5.46369">
        <ele>451.2</ele>
        <time>2022-06-06T15:10:00Z</time>
      </trkpt>
      <trkpt lat="46.34294" lon="5.46356">
        <ele>451.2</ele>
        <time>2022-06-06T15:10:01Z</time>
      </trkpt>
      <trkpt lat="46.34297" lon="5.46345">
        <ele>451.2</ele>
        <time>2022-06-06T15:10:02Z</time>
      </trkpt>
      <trkpt lat="46.34301" lon="5.46319">
        <ele>451.2</ele>
        <time>2022-06-06T15:10:04Z</time>
      </trkpt>
      <trkpt lat="46.34307" lon="5.46279">
        <ele>451.6</ele>
        <time>2022-06-06T15:10:07Z</time>
      </trkpt>
      <trkpt lat="46.34312" lon="5.46252">
        <ele>452</ele>
        <time>2022-06-06T15:10:09Z</time>
      </trkpt>
      <trkpt lat="46.34323" lon="5.46223">
        <ele>452.2</ele>
        <time>2022-06-06T15:10:12Z</time>
      </trkpt>
      <trkpt lat="46.34336" lon="5.46206">
        <ele>452.2</ele>
        <time>2022-06-06T15:10:14Z</time>
      </trkpt>
      <trkpt lat="46.34343" lon="5.46199">
        <ele>452.2</ele>
        <time>2022-06-06T15:10:15Z</time>
      </trkpt>
      <trkpt lat="46.34392" lon="5.4615">
        <ele>451.6</ele>
        <time>2022-06-06T15:10:22Z</time>
      </trkpt>
      <trkpt lat="46.34408" lon="5.46143">
        <ele>451.4</ele>
        <time>2022-06-06T15:10:24Z</time>
      </trkpt>
      <trkpt lat="46.34417" lon="5.46143">
        <ele>451.4</ele>
        <time>2022-06-06T15:10:25Z</time>
      </trkpt>
      <trkpt lat="46.34434" lon="5.46146">
        <ele>451</ele>
        <time>2022-06-06T15:10:27Z</time>
      </trkpt>
      <trkpt lat="46.3444" lon="5.46151">
        <ele>450.8</ele>
        <time>2022-06-06T15:10:28Z</time>
      </trkpt>
      <trkpt lat="46.34445" lon="5.46158">
        <ele>450.8</ele>
        <time>2022-06-06T15:10:29Z</time>
      </trkpt>
      <trkpt lat="46.34465" lon="5.46173">
        <ele>450.8</ele>
        <time>2022-06-06T15:10:32Z</time>
      </trkpt>
      <trkpt lat="46.3448" lon="5.46175">
        <ele>450.6</ele>
        <time>2022-06-06T15:10:34Z</time>
      </trkpt>
      <trkpt lat="46.34487" lon="5.4617">
        <ele>450.6</ele>
        <time>2022-06-06T15:10:35Z</time>
      </trkpt>
      <trkpt lat="46.34494" lon="5.46162">
        <ele>450.6</ele>
        <time>2022-06-06T15:10:36Z</time>
      </trkpt>
      <trkpt lat="46.34503" lon="5.46144">
        <ele>450.4</ele>
        <time>2022-06-06T15:10:38Z</time>
      </trkpt>
      <trkpt lat="46.34507" lon="5.46122">
        <ele>449.8</ele>
        <time>2022-06-06T15:10:40Z</time>
      </trkpt>
      <trkpt lat="46.34512" lon="5.46094">
        <ele>448.2</ele>
        <time>2022-06-06T15:10:42Z</time>
      </trkpt>
      <trkpt lat="46.34517" lon="5.46069">
        <ele>447.4</ele>
        <time>2022-06-06T15:10:44Z</time>
      </trkpt>
      <trkpt lat="46.34531" lon="5.46051">
        <ele>446.6</ele>
        <time>2022-06-06T15:10:46Z</time>
      </trkpt>
      <trkpt lat="46.34551" lon="5.46045">
        <ele>445.4</ele>
        <time>2022-06-06T15:10:48Z</time>
      </trkpt>
      <trkpt lat="46.34561" lon="5.46043">
        <ele>444.4</ele>
        <time>2022-06-06T15:10:49Z</time>
      </trkpt>
      <trkpt lat="46.34572" lon="5.46042">
        <ele>444.2</ele>
        <time>2022-06-06T15:10:50Z</time>
      </trkpt>
      <trkpt lat="46.34606" lon="5.46035">
        <ele>442.4</ele>
        <time>2022-06-06T15:10:53Z</time>
      </trkpt>
      <trkpt lat="46.3463" lon="5.46031">
        <ele>440.8</ele>
        <time>2022-06-06T15:10:55Z</time>
      </trkpt>
      <trkpt lat="46.34642" lon="5.4603">
        <ele>439.8</ele>
        <time>2022-06-06T15:10:56Z</time>
      </trkpt>
      <trkpt lat="46.34668" lon="5.46025">
        <ele>438.6</ele>
        <time>2022-06-06T15:10:58Z</time>
      </trkpt>
      <trkpt lat="46.34693" lon="5.4602">
        <ele>436.4</ele>
        <time>2022-06-06T15:11:00Z</time>
      </trkpt>
      <trkpt lat="46.3472" lon="5.46015">
        <ele>434.6</ele>
        <time>2022-06-06T15:11:02Z</time>
      </trkpt>
      <trkpt lat="46.34734" lon="5.46012">
        <ele>433.8</ele>
        <time>2022-06-06T15:11:03Z</time>
      </trkpt>
      <trkpt lat="46.34747" lon="5.46009">
        <ele>433.4</ele>
        <time>2022-06-06T15:11:04Z</time>
      </trkpt>
      <trkpt lat="46.34761" lon="5.46006">
        <ele>432</ele>
        <time>2022-06-06T15:11:05Z</time>
      </trkpt>
      <trkpt lat="46.34775" lon="5.46003">
        <ele>431</ele>
        <time>2022-06-06T15:11:06Z</time>
      </trkpt>
      <trkpt lat="46.34789" lon="5.46">
        <ele>429.6</ele>
        <time>2022-06-06T15:11:07Z</time>
      </trkpt>
      <trkpt lat="46.34818" lon="5.45996">
        <ele>428.2</ele>
        <time>2022-06-06T15:11:09Z</time>
      </trkpt>
      <trkpt lat="46.34831" lon="5.45994">
        <ele>427</ele>
        <time>2022-06-06T15:11:10Z</time>
      </trkpt>
      <trkpt lat="46.3486" lon="5.4599">
        <ele>424</ele>
        <time>2022-06-06T15:11:12Z</time>
      </trkpt>
      <trkpt lat="46.34889" lon="5.45989">
        <ele>422.2</ele>
        <time>2022-06-06T15:11:14Z</time>
      </trkpt>
      <trkpt lat="46.34903" lon="5.45988">
        <ele>420.6</ele>
        <time>2022-06-06T15:11:15Z</time>
      </trkpt>
      <trkpt lat="46.34918" lon="5.45987">
        <ele>418.6</ele>
        <time>2022-06-06T15:11:16Z</time>
      </trkpt>
      <trkpt lat="46.34932" lon="5.45986">
        <ele>417.4</ele>
        <time>2022-06-06T15:11:17Z</time>
      </trkpt>
      <trkpt lat="46.34973" lon="5.45981">
        <ele>416</ele>
        <time>2022-06-06T15:11:20Z</time>
      </trkpt>
      <trkpt lat="46.34991" lon="5.4598">
        <ele>414.4</ele>
        <time>2022-06-06T15:11:21Z</time>
      </trkpt>
      <trkpt lat="46.3502" lon="5.4598">
        <ele>412.8</ele>
        <time>2022-06-06T15:11:23Z</time>
      </trkpt>
      <trkpt lat="46.35051" lon="5.45978">
        <ele>410.8</ele>
        <time>2022-06-06T15:11:25Z</time>
      </trkpt>
      <trkpt lat="46.35081" lon="5.45976">
        <ele>409.2</ele>
        <time>2022-06-06T15:11:27Z</time>
      </trkpt>
      <trkpt lat="46.35096" lon="5.45975">
        <ele>407.2</ele>
        <time>2022-06-06T15:11:28Z</time>
      </trkpt>
      <trkpt lat="46.35127" lon="5.45971">
        <ele>405</ele>
        <time>2022-06-06T15:11:30Z</time>
      </trkpt>
      <trkpt lat="46.35158" lon="5.45968">
        <ele>402.4</ele>
        <time>2022-06-06T15:11:32Z</time>
      </trkpt>
      <trkpt lat="46.35173" lon="5.45968">
        <ele>401.2</ele>
        <time>2022-06-06T15:11:33Z</time>
      </trkpt>
      <trkpt lat="46.35189" lon="5.45968">
        <ele>400.8</ele>
        <time>2022-06-06T15:11:34Z</time>
      </trkpt>
      <trkpt lat="46.35205" lon="5.45968">
        <ele>400</ele>
        <time>2022-06-06T15:11:35Z</time>
      </trkpt>
      <trkpt lat="46.3522" lon="5.45968">
        <ele>399</ele>
        <time>2022-06-06T15:11:36Z</time>
      </trkpt>
      <trkpt lat="46.35236" lon="5.45968">
        <ele>397.8</ele>
        <time>2022-06-06T15:11:37Z</time>
      </trkpt>
      <trkpt lat="46.35267" lon="5.45968">
        <ele>395.6</ele>
        <time>2022-06-06T15:11:39Z</time>
      </trkpt>
      <trkpt lat="46.35283" lon="5.45969">
        <ele>394.6</ele>
        <time>2022-06-06T15:11:40Z</time>
      </trkpt>
      <trkpt lat="46.35315" lon="5.45971">
        <ele>392.6</ele>
        <time>2022-06-06T15:11:42Z</time>
      </trkpt>
      <trkpt lat="46.35346" lon="5.45973">
        <ele>390.2</ele>
        <time>2022-06-06T15:11:44Z</time>
      </trkpt>
      <trkpt lat="46.35376" lon="5.45976">
        <ele>388</ele>
        <time>2022-06-06T15:11:46Z</time>
      </trkpt>
      <trkpt lat="46.35391" lon="5.45976">
        <ele>386</ele>
        <time>2022-06-06T15:11:47Z</time>
      </trkpt>
      <trkpt lat="46.35406" lon="5.45976">
        <ele>385.4</ele>
        <time>2022-06-06T15:11:48Z</time>
      </trkpt>
      <trkpt lat="46.3542" lon="5.45974">
        <ele>384.2</ele>
        <time>2022-06-06T15:11:49Z</time>
      </trkpt>
      <trkpt lat="46.35448" lon="5.4597">
        <ele>382.6</ele>
        <time>2022-06-06T15:11:51Z</time>
      </trkpt>
      <trkpt lat="46.35463" lon="5.45968">
        <ele>382</ele>
        <time>2022-06-06T15:11:52Z</time>
      </trkpt>
      <trkpt lat="46.35477" lon="5.45966">
        <ele>381</ele>
        <time>2022-06-06T15:11:53Z</time>
      </trkpt>
      <trkpt lat="46.35492" lon="5.45965">
        <ele>379.8</ele>
        <time>2022-06-06T15:11:54Z</time>
      </trkpt>
      <trkpt lat="46.35517" lon="5.45963">
        <ele>378.2</ele>
        <time>2022-06-06T15:11:56Z</time>
      </trkpt>
      <trkpt lat="46.35534" lon="5.45963">
        <ele>377.8</ele>
        <time>2022-06-06T15:11:57Z</time>
      </trkpt>
      <trkpt lat="46.35548" lon="5.45965">
        <ele>376.6</ele>
        <time>2022-06-06T15:11:58Z</time>
      </trkpt>
      <trkpt lat="46.35574" lon="5.45972">
        <ele>375</ele>
        <time>2022-06-06T15:12:00Z</time>
      </trkpt>
      <trkpt lat="46.35586" lon="5.45977">
        <ele>373.6</ele>
        <time>2022-06-06T15:12:01Z</time>
      </trkpt>
      <trkpt lat="46.35606" lon="5.45985">
        <ele>372.4</ele>
        <time>2022-06-06T15:12:03Z</time>
      </trkpt>
      <trkpt lat="46.35616" lon="5.45989">
        <ele>372</ele>
        <time>2022-06-06T15:12:04Z</time>
      </trkpt>
      <trkpt lat="46.35636" lon="5.4599">
        <ele>371.4</ele>
        <time>2022-06-06T15:12:06Z</time>
      </trkpt>
      <trkpt lat="46.35647" lon="5.45985">
        <ele>370.6</ele>
        <time>2022-06-06T15:12:07Z</time>
      </trkpt>
      <trkpt lat="46.35668" lon="5.4598">
        <ele>369.4</ele>
        <time>2022-06-06T15:12:09Z</time>
      </trkpt>
      <trkpt lat="46.35697" lon="5.45978">
        <ele>368</ele>
        <time>2022-06-06T15:12:12Z</time>
      </trkpt>
      <trkpt lat="46.35723" lon="5.4598">
        <ele>366.8</ele>
        <time>2022-06-06T15:12:15Z</time>
      </trkpt>
      <trkpt lat="46.3574" lon="5.45983">
        <ele>366.6</ele>
        <time>2022-06-06T15:12:17Z</time>
      </trkpt>
      <trkpt lat="46.35755" lon="5.45986">
        <ele>366.4</ele>
        <time>2022-06-06T15:12:19Z</time>
      </trkpt>
      <trkpt lat="46.35768" lon="5.45981">
        <ele>366.6</ele>
        <time>2022-06-06T15:12:21Z</time>
      </trkpt>
      <trkpt lat="46.35777" lon="5.45966">
        <ele>366.6</ele>
        <time>2022-06-06T15:12:23Z</time>
      </trkpt>
      <trkpt lat="46.3578" lon="5.45957">
        <ele>366.8</ele>
        <time>2022-06-06T15:12:24Z</time>
      </trkpt>
      <trkpt lat="46.35792" lon="5.45898">
        <ele>368</ele>
        <time>2022-06-06T15:12:30Z</time>
      </trkpt>
      <trkpt lat="46.35797" lon="5.45857">
        <ele>368.6</ele>
        <time>2022-06-06T15:12:34Z</time>
      </trkpt>
      <trkpt lat="46.35797" lon="5.45836">
        <ele>369</ele>
        <time>2022-06-06T15:12:36Z</time>
      </trkpt>
      <trkpt lat="46.35789" lon="5.45773">
        <ele>369.6</ele>
        <time>2022-06-06T15:12:42Z</time>
      </trkpt>
      <trkpt lat="46.35784" lon="5.45746">
        <ele>370</ele>
        <time>2022-06-06T15:12:45Z</time>
      </trkpt>
      <trkpt lat="46.35782" lon="5.45737">
        <ele>370</ele>
        <time>2022-06-06T15:12:46Z</time>
      </trkpt>
      <trkpt lat="46.3578" lon="5.45728">
        <ele>370.2</ele>
        <time>2022-06-06T15:12:47Z</time>
      </trkpt>
      <trkpt lat="46.35777" lon="5.45709">
        <ele>370.4</ele>
        <time>2022-06-06T15:12:49Z</time>
      </trkpt>
      <trkpt lat="46.35779" lon="5.45689">
        <ele>370.6</ele>
        <time>2022-06-06T15:12:51Z</time>
      </trkpt>
      <trkpt lat="46.35789" lon="5.45676">
        <ele>370.8</ele>
        <time>2022-06-06T15:12:53Z</time>
      </trkpt>
      <trkpt lat="46.35801" lon="5.45672">
        <ele>370.8</ele>
        <time>2022-06-06T15:12:55Z</time>
      </trkpt>
      <trkpt lat="46.35807" lon="5.45673">
        <ele>370.8</ele>
        <time>2022-06-06T15:12:56Z</time>
      </trkpt>
      <trkpt lat="46.35813" lon="5.45673">
        <ele>370.8</ele>
        <time>2022-06-06T15:12:57Z</time>
      </trkpt>
      <trkpt lat="46.35833" lon="5.45672">
        <ele>370.8</ele>
        <time>2022-06-06T15:13:00Z</time>
      </trkpt>
      <trkpt lat="46.35845" lon="5.45669">
        <ele>371</ele>
        <time>2022-06-06T15:13:02Z</time>
      </trkpt>
      <trkpt lat="46.35866" lon="5.45662">
        <ele>372.2</ele>
        <time>2022-06-06T15:13:06Z</time>
      </trkpt>
      <trkpt lat="46.35882" lon="5.45656">
        <ele>373.2</ele>
        <time>2022-06-06T15:13:09Z</time>
      </trkpt>
      <trkpt lat="46.35893" lon="5.45652">
        <ele>374.4</ele>
        <time>2022-06-06T15:13:11Z</time>
      </trkpt>
      <trkpt lat="46.35911" lon="5.45646">
        <ele>375.4</ele>
        <time>2022-06-06T15:13:14Z</time>
      </trkpt>
      <trkpt lat="46.35917" lon="5.45645">
        <ele>375.6</ele>
        <time>2022-06-06T15:13:15Z</time>
      </trkpt>
      <trkpt lat="46.35954" lon="5.45639">
        <ele>376.4</ele>
        <time>2022-06-06T15:13:21Z</time>
      </trkpt>
      <trkpt lat="46.35992" lon="5.45639">
        <ele>376.8</ele>
        <time>2022-06-06T15:13:27Z</time>
      </trkpt>
      <trkpt lat="46.36005" lon="5.45641">
        <ele>376.8</ele>
        <time>2022-06-06T15:13:29Z</time>
      </trkpt>
      <trkpt lat="46.36046" lon="5.45645">
        <ele>376.8</ele>
        <time>2022-06-06T15:13:35Z</time>
      </trkpt>
      <trkpt lat="46.36067" lon="5.45646">
        <ele>377.2</ele>
        <time>2022-06-06T15:13:38Z</time>
      </trkpt>
      <trkpt lat="46.36127" lon="5.45646">
        <ele>377</ele>
        <time>2022-06-06T15:13:46Z</time>
      </trkpt>
      <trkpt lat="46.36141" lon="5.45646">
        <ele>377</ele>
        <time>2022-06-06T15:13:48Z</time>
      </trkpt>
      <trkpt lat="46.36196" lon="5.45645">
        <ele>377.6</ele>
        <time>2022-06-06T15:13:56Z</time>
      </trkpt>
      <trkpt lat="46.36203" lon="5.45645">
        <ele>377.8</ele>
        <time>2022-06-06T15:13:57Z</time>
      </trkpt>
      <trkpt lat="46.36209" lon="5.45645">
        <ele>377.8</ele>
        <time>2022-06-06T15:13:58Z</time>
      </trkpt>
      <trkpt lat="46.36268" lon="5.45649">
        <ele>378.6</ele>
        <time>2022-06-06T15:14:07Z</time>
      </trkpt>
      <trkpt lat="46.36275" lon="5.4565">
        <ele>378.8</ele>
        <time>2022-06-06T15:14:08Z</time>
      </trkpt>
      <trkpt lat="46.36334" lon="5.45655">
        <ele>380</ele>
        <time>2022-06-06T15:14:17Z</time>
      </trkpt>
      <trkpt lat="46.36387" lon="5.4565">
        <ele>380</ele>
        <time>2022-06-06T15:14:25Z</time>
      </trkpt>
      <trkpt lat="46.36422" lon="5.45634">
        <ele>379.8</ele>
        <time>2022-06-06T15:14:30Z</time>
      </trkpt>
      <trkpt lat="46.36475" lon="5.45616">
        <ele>379.4</ele>
        <time>2022-06-06T15:14:37Z</time>
      </trkpt>
      <trkpt lat="46.36495" lon="5.45613">
        <ele>379.4</ele>
        <time>2022-06-06T15:14:40Z</time>
      </trkpt>
      <trkpt lat="46.36512" lon="5.45614">
        <ele>379.8</ele>
        <time>2022-06-06T15:14:42Z</time>
      </trkpt>
      <trkpt lat="46.36548" lon="5.45617">
        <ele>380.2</ele>
        <time>2022-06-06T15:14:47Z</time>
      </trkpt>
      <trkpt lat="46.36562" lon="5.45617">
        <ele>380.4</ele>
        <time>2022-06-06T15:14:49Z</time>
      </trkpt>
      <trkpt lat="46.36603" lon="5.45618">
        <ele>380.6</ele>
        <time>2022-06-06T15:14:55Z</time>
      </trkpt>
      <trkpt lat="46.36629" lon="5.45613">
        <ele>381.2</ele>
        <time>2022-06-06T15:14:59Z</time>
      </trkpt>
      <trkpt lat="46.36674" lon="5.45606">
        <ele>382.2</ele>
        <time>2022-06-06T15:15:06Z</time>
      </trkpt>
      <trkpt lat="46.36686" lon="5.45603">
        <ele>382.4</ele>
        <time>2022-06-06T15:15:08Z</time>
      </trkpt>
      <trkpt lat="46.3672" lon="5.45597">
        <ele>383.4</ele>
        <time>2022-06-06T15:15:14Z</time>
      </trkpt>
      <trkpt lat="46.36726" lon="5.45596">
        <ele>383.6</ele>
        <time>2022-06-06T15:15:15Z</time>
      </trkpt>
      <trkpt lat="46.36745" lon="5.45595">
        <ele>384.6</ele>
        <time>2022-06-06T15:15:18Z</time>
      </trkpt>
      <trkpt lat="46.36772" lon="5.45594">
        <ele>385.2</ele>
        <time>2022-06-06T15:15:22Z</time>
      </trkpt>
      <trkpt lat="46.36791" lon="5.45593">
        <ele>385.6</ele>
        <time>2022-06-06T15:15:25Z</time>
      </trkpt>
      <trkpt lat="46.36829" lon="5.45593">
        <ele>386.4</ele>
        <time>2022-06-06T15:15:31Z</time>
      </trkpt>
      <trkpt lat="46.36875" lon="5.45597">
        <ele>386.6</ele>
        <time>2022-06-06T15:15:38Z</time>
      </trkpt>
      <trkpt lat="46.36888" lon="5.45598">
        <ele>387</ele>
        <time>2022-06-06T15:15:40Z</time>
      </trkpt>
      <trkpt lat="46.36909" lon="5.45601">
        <ele>387.2</ele>
        <time>2022-06-06T15:15:43Z</time>
      </trkpt>
      <trkpt lat="46.36936" lon="5.45605">
        <ele>387.2</ele>
        <time>2022-06-06T15:15:47Z</time>
      </trkpt>
      <trkpt lat="46.36983" lon="5.45618">
        <ele>387</ele>
        <time>2022-06-06T15:15:54Z</time>
      </trkpt>
      <trkpt lat="46.37025" lon="5.45639">
        <ele>387.8</ele>
        <time>2022-06-06T15:16:01Z</time>
      </trkpt>
      <trkpt lat="46.37031" lon="5.45641">
        <ele>388</ele>
        <time>2022-06-06T15:16:02Z</time>
      </trkpt>
      <trkpt lat="46.37068" lon="5.45648">
        <ele>388.8</ele>
        <time>2022-06-06T15:16:08Z</time>
      </trkpt>
      <trkpt lat="46.37074" lon="5.45648">
        <ele>389</ele>
        <time>2022-06-06T15:16:09Z</time>
      </trkpt>
      <trkpt lat="46.37131" lon="5.45648">
        <ele>389.4</ele>
        <time>2022-06-06T15:16:18Z</time>
      </trkpt>
      <trkpt lat="46.37149" lon="5.45648">
        <ele>390</ele>
        <time>2022-06-06T15:16:21Z</time>
      </trkpt>
      <trkpt lat="46.37184" lon="5.45645">
        <ele>391.2</ele>
        <time>2022-06-06T15:16:27Z</time>
      </trkpt>
      <trkpt lat="46.37238" lon="5.45642">
        <ele>392</ele>
        <time>2022-06-06T15:16:36Z</time>
      </trkpt>
      <trkpt lat="46.37242" lon="5.45641">
        <ele>392.4</ele>
        <time>2022-06-06T15:16:37Z</time>
      </trkpt>
      <trkpt lat="46.3729" lon="5.45638">
        <ele>393.2</ele>
        <time>2022-06-06T15:16:45Z</time>
      </trkpt>
      <trkpt lat="46.37316" lon="5.45636">
        <ele>393.4</ele>
        <time>2022-06-06T15:16:50Z</time>
      </trkpt>
      <trkpt lat="46.37339" lon="5.45636">
        <ele>394.4</ele>
        <time>2022-06-06T15:16:54Z</time>
      </trkpt>
      <trkpt lat="46.37345" lon="5.45636">
        <ele>394.6</ele>
        <time>2022-06-06T15:16:55Z</time>
      </trkpt>
      <trkpt lat="46.37378" lon="5.45638">
        <ele>395.6</ele>
        <time>2022-06-06T15:17:01Z</time>
      </trkpt>
      <trkpt lat="46.37395" lon="5.45639">
        <ele>396.4</ele>
        <time>2022-06-06T15:17:04Z</time>
      </trkpt>
      <trkpt lat="46.37411" lon="5.45641">
        <ele>396.8</ele>
        <time>2022-06-06T15:17:07Z</time>
      </trkpt>
      <trkpt lat="46.37438" lon="5.45639">
        <ele>397.6</ele>
        <time>2022-06-06T15:17:12Z</time>
      </trkpt>
      <trkpt lat="46.37449" lon="5.45637">
        <ele>397.8</ele>
        <time>2022-06-06T15:17:14Z</time>
      </trkpt>
      <trkpt lat="46.3747" lon="5.45627">
        <ele>398.6</ele>
        <time>2022-06-06T15:17:18Z</time>
      </trkpt>
      <trkpt lat="46.3748" lon="5.45622">
        <ele>399</ele>
        <time>2022-06-06T15:17:20Z</time>
      </trkpt>
      <trkpt lat="46.37505" lon="5.45612">
        <ele>399.6</ele>
        <time>2022-06-06T15:17:25Z</time>
      </trkpt>
      <trkpt lat="46.37508" lon="5.4561">
        <ele>400</ele>
        <time>2022-06-06T15:17:26Z</time>
      </trkpt>
      <trkpt lat="46.37532" lon="5.45602">
        <ele>401</ele>
        <time>2022-06-06T15:17:31Z</time>
      </trkpt>
      <trkpt lat="46.37536" lon="5.45601">
        <ele>401.2</ele>
        <time>2022-06-06T15:17:32Z</time>
      </trkpt>
      <trkpt lat="46.37548" lon="5.45597">
        <ele>402.4</ele>
        <time>2022-06-06T15:17:35Z</time>
      </trkpt>
      <trkpt lat="46.3756" lon="5.45594">
        <ele>403.6</ele>
        <time>2022-06-06T15:17:38Z</time>
      </trkpt>
      <trkpt lat="46.37564" lon="5.45594">
        <ele>403.8</ele>
        <time>2022-06-06T15:17:39Z</time>
      </trkpt>
      <trkpt lat="46.37589" lon="5.45591">
        <ele>404.6</ele>
        <time>2022-06-06T15:17:45Z</time>
      </trkpt>
      <trkpt lat="46.37604" lon="5.4559">
        <ele>405.6</ele>
        <time>2022-06-06T15:17:48Z</time>
      </trkpt>
      <trkpt lat="46.37619" lon="5.4559">
        <ele>406.2</ele>
        <time>2022-06-06T15:17:51Z</time>
      </trkpt>
      <trkpt lat="46.37639" lon="5.45589">
        <ele>406.6</ele>
        <time>2022-06-06T15:17:55Z</time>
      </trkpt>
      <trkpt lat="46.37665" lon="5.4559">
        <ele>407.6</ele>
        <time>2022-06-06T15:18:00Z</time>
      </trkpt>
      <trkpt lat="46.37671" lon="5.4559">
        <ele>407.6</ele>
        <time>2022-06-06T15:18:01Z</time>
      </trkpt>
      <trkpt lat="46.37712" lon="5.45592">
        <ele>408.6</ele>
        <time>2022-06-06T15:18:09Z</time>
      </trkpt>
      <trkpt lat="46.37718" lon="5.45593">
        <ele>408.8</ele>
        <time>2022-06-06T15:18:10Z</time>
      </trkpt>
      <trkpt lat="46.37748" lon="5.45593">
        <ele>409.8</ele>
        <time>2022-06-06T15:18:16Z</time>
      </trkpt>
      <trkpt lat="46.37763" lon="5.45594">
        <ele>410.2</ele>
        <time>2022-06-06T15:18:19Z</time>
      </trkpt>
      <trkpt lat="46.37788" lon="5.45594">
        <ele>411</ele>
        <time>2022-06-06T15:18:24Z</time>
      </trkpt>
      <trkpt lat="46.37803" lon="5.45595">
        <ele>411.8</ele>
        <time>2022-06-06T15:18:27Z</time>
      </trkpt>
      <trkpt lat="46.37807" lon="5.45596">
        <ele>412.2</ele>
        <time>2022-06-06T15:18:28Z</time>
      </trkpt>
      <trkpt lat="46.37827" lon="5.45597">
        <ele>413.4</ele>
        <time>2022-06-06T15:18:32Z</time>
      </trkpt>
      <trkpt lat="46.37847" lon="5.45599">
        <ele>414.4</ele>
        <time>2022-06-06T15:18:36Z</time>
      </trkpt>
      <trkpt lat="46.37852" lon="5.45599">
        <ele>414.8</ele>
        <time>2022-06-06T15:18:37Z</time>
      </trkpt>
      <trkpt lat="46.37861" lon="5.45599">
        <ele>415.6</ele>
        <time>2022-06-06T15:18:39Z</time>
      </trkpt>
      <trkpt lat="46.37881" lon="5.456">
        <ele>416.6</ele>
        <time>2022-06-06T15:18:43Z</time>
      </trkpt>
      <trkpt lat="46.37885" lon="5.45599">
        <ele>416.8</ele>
        <time>2022-06-06T15:18:44Z</time>
      </trkpt>
      <trkpt lat="46.3789" lon="5.45598">
        <ele>417</ele>
        <time>2022-06-06T15:18:45Z</time>
      </trkpt>
      <trkpt lat="46.37903" lon="5.45595">
        <ele>417.8</ele>
        <time>2022-06-06T15:18:48Z</time>
      </trkpt>
      <trkpt lat="46.3793" lon="5.45588">
        <ele>419</ele>
        <time>2022-06-06T15:18:53Z</time>
      </trkpt>
      <trkpt lat="46.37965" lon="5.45583">
        <ele>419.2</ele>
        <time>2022-06-06T15:18:59Z</time>
      </trkpt>
      <trkpt lat="46.38008" lon="5.45586">
        <ele>419</ele>
        <time>2022-06-06T15:19:05Z</time>
      </trkpt>
      <trkpt lat="46.38054" lon="5.45597">
        <ele>418.4</ele>
        <time>2022-06-06T15:19:11Z</time>
      </trkpt>
      <trkpt lat="46.38115" lon="5.45613">
        <ele>418</ele>
        <time>2022-06-06T15:19:19Z</time>
      </trkpt>
      <trkpt lat="46.38161" lon="5.4562">
        <ele>417.6</ele>
        <time>2022-06-06T15:19:24Z</time>
      </trkpt>
      <trkpt lat="46.3818" lon="5.4562">
        <ele>416.2</ele>
        <time>2022-06-06T15:19:26Z</time>
      </trkpt>
      <trkpt lat="46.382" lon="5.45622">
        <ele>414.4</ele>
        <time>2022-06-06T15:19:28Z</time>
      </trkpt>
      <trkpt lat="46.38219" lon="5.45624">
        <ele>413.2</ele>
        <time>2022-06-06T15:19:30Z</time>
      </trkpt>
      <trkpt lat="46.38228" lon="5.45624">
        <ele>412.8</ele>
        <time>2022-06-06T15:19:31Z</time>
      </trkpt>
      <trkpt lat="46.38284" lon="5.45629">
        <ele>412.4</ele>
        <time>2022-06-06T15:19:37Z</time>
      </trkpt>
      <trkpt lat="46.38293" lon="5.45631">
        <ele>412.4</ele>
        <time>2022-06-06T15:19:38Z</time>
      </trkpt>
      <trkpt lat="46.38312" lon="5.45633">
        <ele>412</ele>
        <time>2022-06-06T15:19:40Z</time>
      </trkpt>
      <trkpt lat="46.3833" lon="5.45635">
        <ele>411</ele>
        <time>2022-06-06T15:19:42Z</time>
      </trkpt>
      <trkpt lat="46.38371" lon="5.45642">
        <ele>409.8</ele>
        <time>2022-06-06T15:19:46Z</time>
      </trkpt>
      <trkpt lat="46.3842" lon="5.45654">
        <ele>408.6</ele>
        <time>2022-06-06T15:19:51Z</time>
      </trkpt>
      <trkpt lat="46.3845" lon="5.45658">
        <ele>407.2</ele>
        <time>2022-06-06T15:19:54Z</time>
      </trkpt>
      <trkpt lat="46.38482" lon="5.4566">
        <ele>406</ele>
        <time>2022-06-06T15:19:57Z</time>
      </trkpt>
      <trkpt lat="46.38515" lon="5.45661">
        <ele>405.4</ele>
        <time>2022-06-06T15:20:00Z</time>
      </trkpt>
      <trkpt lat="46.38547" lon="5.45658">
        <ele>404</ele>
        <time>2022-06-06T15:20:03Z</time>
      </trkpt>
      <trkpt lat="46.38572" lon="5.45653">
        <ele>402.8</ele>
        <time>2022-06-06T15:20:05Z</time>
      </trkpt>
      <trkpt lat="46.38595" lon="5.45649">
        <ele>401.6</ele>
        <time>2022-06-06T15:20:07Z</time>
      </trkpt>
      <trkpt lat="46.38606" lon="5.45647">
        <ele>400.6</ele>
        <time>2022-06-06T15:20:08Z</time>
      </trkpt>
      <trkpt lat="46.38638" lon="5.4564">
        <ele>399.4</ele>
        <time>2022-06-06T15:20:11Z</time>
      </trkpt>
      <trkpt lat="46.38649" lon="5.45638">
        <ele>399</ele>
        <time>2022-06-06T15:20:12Z</time>
      </trkpt>
      <trkpt lat="46.38677" lon="5.45635">
        <ele>398.6</ele>
        <time>2022-06-06T15:20:15Z</time>
      </trkpt>
      <trkpt lat="46.38687" lon="5.45636">
        <ele>398.6</ele>
        <time>2022-06-06T15:20:16Z</time>
      </trkpt>
      <trkpt lat="46.38742" lon="5.4564">
        <ele>398.8</ele>
        <time>2022-06-06T15:20:22Z</time>
      </trkpt>
      <trkpt lat="46.38789" lon="5.45647">
        <ele>398.8</ele>
        <time>2022-06-06T15:20:27Z</time>
      </trkpt>
      <trkpt lat="46.38824" lon="5.45654">
        <ele>399</ele>
        <time>2022-06-06T15:20:31Z</time>
      </trkpt>
      <trkpt lat="46.38832" lon="5.45654">
        <ele>399</ele>
        <time>2022-06-06T15:20:32Z</time>
      </trkpt>
      <trkpt lat="46.38883" lon="5.45648">
        <ele>399.8</ele>
        <time>2022-06-06T15:20:38Z</time>
      </trkpt>
      <trkpt lat="46.38935" lon="5.4565">
        <ele>400.2</ele>
        <time>2022-06-06T15:20:44Z</time>
      </trkpt>
      <trkpt lat="46.38962" lon="5.45654">
        <ele>400.6</ele>
        <time>2022-06-06T15:20:47Z</time>
      </trkpt>
      <trkpt lat="46.38997" lon="5.45656">
        <ele>400.4</ele>
        <time>2022-06-06T15:20:51Z</time>
      </trkpt>
      <trkpt lat="46.39032" lon="5.45651">
        <ele>399.2</ele>
        <time>2022-06-06T15:20:55Z</time>
      </trkpt>
      <trkpt lat="46.39041" lon="5.45649">
        <ele>399</ele>
        <time>2022-06-06T15:20:56Z</time>
      </trkpt>
      <trkpt lat="46.39102" lon="5.45633">
        <ele>398.2</ele>
        <time>2022-06-06T15:21:03Z</time>
      </trkpt>
      <trkpt lat="46.39146" lon="5.45619">
        <ele>397</ele>
        <time>2022-06-06T15:21:08Z</time>
      </trkpt>
      <trkpt lat="46.39164" lon="5.45612">
        <ele>396.6</ele>
        <time>2022-06-06T15:21:10Z</time>
      </trkpt>
      <trkpt lat="46.39192" lon="5.45605">
        <ele>396.2</ele>
        <time>2022-06-06T15:21:13Z</time>
      </trkpt>
      <trkpt lat="46.39226" lon="5.45596">
        <ele>396</ele>
        <time>2022-06-06T15:21:17Z</time>
      </trkpt>
      <trkpt lat="46.39274" lon="5.45573">
        <ele>396</ele>
        <time>2022-06-06T15:21:23Z</time>
      </trkpt>
      <trkpt lat="46.39304" lon="5.45563">
        <ele>395.8</ele>
        <time>2022-06-06T15:21:27Z</time>
      </trkpt>
      <trkpt lat="46.39309" lon="5.45561">
        <ele>395.8</ele>
        <time>2022-06-06T15:21:28Z</time>
      </trkpt>
      <trkpt lat="46.39317" lon="5.45556">
        <ele>395.8</ele>
        <time>2022-06-06T15:21:29Z</time>
      </trkpt>
      <trkpt lat="46.39327" lon="5.45546">
        <ele>395.8</ele>
        <time>2022-06-06T15:21:31Z</time>
      </trkpt>
      <trkpt lat="46.39331" lon="5.4554">
        <ele>395.8</ele>
        <time>2022-06-06T15:21:32Z</time>
      </trkpt>
      <trkpt lat="46.39349" lon="5.45506">
        <ele>396.2</ele>
        <time>2022-06-06T15:21:36Z</time>
      </trkpt>
      <trkpt lat="46.39352" lon="5.45499">
        <ele>396.2</ele>
        <time>2022-06-06T15:21:37Z</time>
      </trkpt>
      <trkpt lat="46.39364" lon="5.45477">
        <ele>396.8</ele>
        <time>2022-06-06T15:21:40Z</time>
      </trkpt>
      <trkpt lat="46.39373" lon="5.45464">
        <ele>397.2</ele>
        <time>2022-06-06T15:21:42Z</time>
      </trkpt>
      <trkpt lat="46.39391" lon="5.45441">
        <ele>398.6</ele>
        <time>2022-06-06T15:21:46Z</time>
      </trkpt>
      <trkpt lat="46.39394" lon="5.45435">
        <ele>399</ele>
        <time>2022-06-06T15:21:47Z</time>
      </trkpt>
      <trkpt lat="46.39395" lon="5.45427">
        <ele>399.6</ele>
        <time>2022-06-06T15:21:48Z</time>
      </trkpt>
      <trkpt lat="46.39395" lon="5.45419">
        <ele>400</ele>
        <time>2022-06-06T15:21:49Z</time>
      </trkpt>
      <trkpt lat="46.39392" lon="5.45401">
        <ele>401</ele>
        <time>2022-06-06T15:21:51Z</time>
      </trkpt>
      <trkpt lat="46.39391" lon="5.45393">
        <ele>401.2</ele>
        <time>2022-06-06T15:21:52Z</time>
      </trkpt>
      <trkpt lat="46.39385" lon="5.45378">
        <ele>401.8</ele>
        <time>2022-06-06T15:21:54Z</time>
      </trkpt>
      <trkpt lat="46.39381" lon="5.45371">
        <ele>402</ele>
        <time>2022-06-06T15:21:55Z</time>
      </trkpt>
      <trkpt lat="46.39375" lon="5.45367">
        <ele>402</ele>
        <time>2022-06-06T15:21:56Z</time>
      </trkpt>
      <trkpt lat="46.39357" lon="5.45356">
        <ele>402.2</ele>
        <time>2022-06-06T15:21:59Z</time>
      </trkpt>
      <trkpt lat="46.39343" lon="5.45347">
        <ele>402.2</ele>
        <time>2022-06-06T15:22:01Z</time>
      </trkpt>
      <trkpt lat="46.39321" lon="5.4533">
        <ele>401.2</ele>
        <time>2022-06-06T15:22:04Z</time>
      </trkpt>
      <trkpt lat="46.39307" lon="5.45316">
        <ele>400.2</ele>
        <time>2022-06-06T15:22:06Z</time>
      </trkpt>
      <trkpt lat="46.39305" lon="5.45308">
        <ele>399.8</ele>
        <time>2022-06-06T15:22:07Z</time>
      </trkpt>
      <trkpt lat="46.39306" lon="5.45303">
        <ele>399.6</ele>
        <time>2022-06-06T15:22:08Z</time>
      </trkpt>
      <trkpt lat="46.39309" lon="5.45297">
        <ele>399.2</ele>
        <time>2022-06-06T15:22:09Z</time>
      </trkpt>
      <trkpt lat="46.39314" lon="5.45292">
        <ele>399</ele>
        <time>2022-06-06T15:22:10Z</time>
      </trkpt>
      <trkpt lat="46.39329" lon="5.45284">
        <ele>398</ele>
        <time>2022-06-06T15:22:12Z</time>
      </trkpt>
      <trkpt lat="46.3936" lon="5.45279">
        <ele>396.8</ele>
        <time>2022-06-06T15:22:15Z</time>
      </trkpt>
      <trkpt lat="46.39381" lon="5.45269">
        <ele>395.4</ele>
        <time>2022-06-06T15:22:17Z</time>
      </trkpt>
      <trkpt lat="46.39402" lon="5.45251">
        <ele>394.2</ele>
        <time>2022-06-06T15:22:19Z</time>
      </trkpt>
      <trkpt lat="46.39414" lon="5.45246">
        <ele>393.6</ele>
        <time>2022-06-06T15:22:20Z</time>
      </trkpt>
      <trkpt lat="46.39427" lon="5.45243">
        <ele>392.8</ele>
        <time>2022-06-06T15:22:21Z</time>
      </trkpt>
      <trkpt lat="46.39447" lon="5.45236">
        <ele>391.6</ele>
        <time>2022-06-06T15:22:23Z</time>
      </trkpt>
      <trkpt lat="46.3947" lon="5.45225">
        <ele>390</ele>
        <time>2022-06-06T15:22:25Z</time>
      </trkpt>
      <trkpt lat="46.39492" lon="5.45214">
        <ele>388.8</ele>
        <time>2022-06-06T15:22:27Z</time>
      </trkpt>
      <trkpt lat="46.39517" lon="5.45204">
        <ele>387.6</ele>
        <time>2022-06-06T15:22:29Z</time>
      </trkpt>
      <trkpt lat="46.39538" lon="5.45196">
        <ele>386.2</ele>
        <time>2022-06-06T15:22:31Z</time>
      </trkpt>
      <trkpt lat="46.39552" lon="5.45193">
        <ele>384.8</ele>
        <time>2022-06-06T15:22:32Z</time>
      </trkpt>
      <trkpt lat="46.39562" lon="5.45192">
        <ele>383.8</ele>
        <time>2022-06-06T15:22:33Z</time>
      </trkpt>
      <trkpt lat="46.39574" lon="5.45193">
        <ele>382.4</ele>
        <time>2022-06-06T15:22:34Z</time>
      </trkpt>
      <trkpt lat="46.396" lon="5.45199">
        <ele>381.4</ele>
        <time>2022-06-06T15:22:36Z</time>
      </trkpt>
      <trkpt lat="46.39622" lon="5.45208">
        <ele>380.6</ele>
        <time>2022-06-06T15:22:38Z</time>
      </trkpt>
      <trkpt lat="46.39643" lon="5.45218">
        <ele>379.6</ele>
        <time>2022-06-06T15:22:40Z</time>
      </trkpt>
      <trkpt lat="46.39654" lon="5.45224">
        <ele>378.8</ele>
        <time>2022-06-06T15:22:41Z</time>
      </trkpt>
      <trkpt lat="46.39679" lon="5.45236">
        <ele>377.2</ele>
        <time>2022-06-06T15:22:43Z</time>
      </trkpt>
      <trkpt lat="46.39712" lon="5.45253">
        <ele>375.8</ele>
        <time>2022-06-06T15:22:46Z</time>
      </trkpt>
      <trkpt lat="46.39746" lon="5.45268">
        <ele>374.6</ele>
        <time>2022-06-06T15:22:49Z</time>
      </trkpt>
      <trkpt lat="46.39768" lon="5.4528">
        <ele>373.4</ele>
        <time>2022-06-06T15:22:51Z</time>
      </trkpt>
      <trkpt lat="46.3978" lon="5.45285">
        <ele>373.2</ele>
        <time>2022-06-06T15:22:52Z</time>
      </trkpt>
      <trkpt lat="46.39816" lon="5.45293">
        <ele>371.6</ele>
        <time>2022-06-06T15:22:55Z</time>
      </trkpt>
      <trkpt lat="46.39828" lon="5.45293">
        <ele>371.4</ele>
        <time>2022-06-06T15:22:56Z</time>
      </trkpt>
      <trkpt lat="46.39841" lon="5.45293">
        <ele>370.6</ele>
        <time>2022-06-06T15:22:57Z</time>
      </trkpt>
      <trkpt lat="46.39877" lon="5.4529">
        <ele>369.2</ele>
        <time>2022-06-06T15:23:00Z</time>
      </trkpt>
      <trkpt lat="46.39888" lon="5.45289">
        <ele>368.8</ele>
        <time>2022-06-06T15:23:01Z</time>
      </trkpt>
      <trkpt lat="46.399" lon="5.45289">
        <ele>368</ele>
        <time>2022-06-06T15:23:02Z</time>
      </trkpt>
      <trkpt lat="46.39954" lon="5.45282">
        <ele>367</ele>
        <time>2022-06-06T15:23:07Z</time>
      </trkpt>
      <trkpt lat="46.40013" lon="5.45277">
        <ele>367</ele>
        <time>2022-06-06T15:23:13Z</time>
      </trkpt>
      <trkpt lat="46.40069" lon="5.45269">
        <ele>367.2</ele>
        <time>2022-06-06T15:23:19Z</time>
      </trkpt>
      <trkpt lat="46.40131" lon="5.45257">
        <ele>367.6</ele>
        <time>2022-06-06T15:23:26Z</time>
      </trkpt>
      <trkpt lat="46.40139" lon="5.45253">
        <ele>367.6</ele>
        <time>2022-06-06T15:23:27Z</time>
      </trkpt>
      <trkpt lat="46.4017" lon="5.45236">
        <ele>368</ele>
        <time>2022-06-06T15:23:31Z</time>
      </trkpt>
      <trkpt lat="46.40178" lon="5.45234">
        <ele>368</ele>
        <time>2022-06-06T15:23:32Z</time>
      </trkpt>
      <trkpt lat="46.40202" lon="5.45233">
        <ele>368.2</ele>
        <time>2022-06-06T15:23:35Z</time>
      </trkpt>
      <trkpt lat="46.40227" lon="5.45224">
        <ele>368.4</ele>
        <time>2022-06-06T15:23:38Z</time>
      </trkpt>
      <trkpt lat="46.40273" lon="5.452">
        <ele>368.6</ele>
        <time>2022-06-06T15:23:44Z</time>
      </trkpt>
      <trkpt lat="46.40325" lon="5.45174">
        <ele>369</ele>
        <time>2022-06-06T15:23:51Z</time>
      </trkpt>
      <trkpt lat="46.40341" lon="5.45166">
        <ele>369</ele>
        <time>2022-06-06T15:23:53Z</time>
      </trkpt>
      <trkpt lat="46.40385" lon="5.45143">
        <ele>369.4</ele>
        <time>2022-06-06T15:23:59Z</time>
      </trkpt>
      <trkpt lat="46.40413" lon="5.45129">
        <ele>369.6</ele>
        <time>2022-06-06T15:24:03Z</time>
      </trkpt>
      <trkpt lat="46.40453" lon="5.45108">
        <ele>370.6</ele>
        <time>2022-06-06T15:24:09Z</time>
      </trkpt>
      <trkpt lat="46.40473" lon="5.45097">
        <ele>371.4</ele>
        <time>2022-06-06T15:24:12Z</time>
      </trkpt>
      <trkpt lat="46.40486" lon="5.4509">
        <ele>371.8</ele>
        <time>2022-06-06T15:24:14Z</time>
      </trkpt>
      <trkpt lat="46.40535" lon="5.45065">
        <ele>372.6</ele>
        <time>2022-06-06T15:24:21Z</time>
      </trkpt>
      <trkpt lat="46.4059" lon="5.45035">
        <ele>372.6</ele>
        <time>2022-06-06T15:24:29Z</time>
      </trkpt>
      <trkpt lat="46.40598" lon="5.45031">
        <ele>372.6</ele>
        <time>2022-06-06T15:24:30Z</time>
      </trkpt>
      <trkpt lat="46.40652" lon="5.45005">
        <ele>372.4</ele>
        <time>2022-06-06T15:24:37Z</time>
      </trkpt>
      <trkpt lat="46.40692" lon="5.44997">
        <ele>371.8</ele>
        <time>2022-06-06T15:24:42Z</time>
      </trkpt>
      <trkpt lat="46.4073" lon="5.45003">
        <ele>371.8</ele>
        <time>2022-06-06T15:24:47Z</time>
      </trkpt>
      <trkpt lat="46.40783" lon="5.45021">
        <ele>372.8</ele>
        <time>2022-06-06T15:24:54Z</time>
      </trkpt>
      <trkpt lat="46.40789" lon="5.45023">
        <ele>372.8</ele>
        <time>2022-06-06T15:24:55Z</time>
      </trkpt>
      <trkpt lat="46.40798" lon="5.45027">
        <ele>372.8</ele>
        <time>2022-06-06T15:24:56Z</time>
      </trkpt>
      <trkpt lat="46.40845" lon="5.45052">
        <ele>373.8</ele>
        <time>2022-06-06T15:25:03Z</time>
      </trkpt>
      <trkpt lat="46.40859" lon="5.45062">
        <ele>373.8</ele>
        <time>2022-06-06T15:25:05Z</time>
      </trkpt>
      <trkpt lat="46.40865" lon="5.45068">
        <ele>374</ele>
        <time>2022-06-06T15:25:06Z</time>
      </trkpt>
      <trkpt lat="46.40883" lon="5.45081">
        <ele>374.6</ele>
        <time>2022-06-06T15:25:09Z</time>
      </trkpt>
      <trkpt lat="46.40905" lon="5.451">
        <ele>375.6</ele>
        <time>2022-06-06T15:25:13Z</time>
      </trkpt>
      <trkpt lat="46.40912" lon="5.45105">
        <ele>375.6</ele>
        <time>2022-06-06T15:25:14Z</time>
      </trkpt>
      <trkpt lat="46.40941" lon="5.4513">
        <ele>376.6</ele>
        <time>2022-06-06T15:25:19Z</time>
      </trkpt>
      <trkpt lat="46.40965" lon="5.45147">
        <ele>377.4</ele>
        <time>2022-06-06T15:25:23Z</time>
      </trkpt>
      <trkpt lat="46.40973" lon="5.45152">
        <ele>377.6</ele>
        <time>2022-06-06T15:25:24Z</time>
      </trkpt>
      <trkpt lat="46.41013" lon="5.45172">
        <ele>378.4</ele>
        <time>2022-06-06T15:25:30Z</time>
      </trkpt>
      <trkpt lat="46.41018" lon="5.45174">
        <ele>378.6</ele>
        <time>2022-06-06T15:25:31Z</time>
      </trkpt>
      <trkpt lat="46.41067" lon="5.45188">
        <ele>379.6</ele>
        <time>2022-06-06T15:25:38Z</time>
      </trkpt>
      <trkpt lat="46.41072" lon="5.45189">
        <ele>379.8</ele>
        <time>2022-06-06T15:25:39Z</time>
      </trkpt>
      <trkpt lat="46.41109" lon="5.45198">
        <ele>380.8</ele>
        <time>2022-06-06T15:25:45Z</time>
      </trkpt>
      <trkpt lat="46.41117" lon="5.45199">
        <ele>381</ele>
        <time>2022-06-06T15:25:46Z</time>
      </trkpt>
      <trkpt lat="46.41173" lon="5.45211">
        <ele>382</ele>
        <time>2022-06-06T15:25:55Z</time>
      </trkpt>
      <trkpt lat="46.41186" lon="5.45213">
        <ele>382.2</ele>
        <time>2022-06-06T15:25:57Z</time>
      </trkpt>
      <trkpt lat="46.41239" lon="5.45225">
        <ele>382.2</ele>
        <time>2022-06-06T15:26:05Z</time>
      </trkpt>
      <trkpt lat="46.41299" lon="5.45238">
        <ele>382.4</ele>
        <time>2022-06-06T15:26:13Z</time>
      </trkpt>
      <trkpt lat="46.41354" lon="5.45251">
        <ele>382.2</ele>
        <time>2022-06-06T15:26:20Z</time>
      </trkpt>
      <trkpt lat="46.41386" lon="5.45259">
        <ele>382.2</ele>
        <time>2022-06-06T15:26:24Z</time>
      </trkpt>
      <trkpt lat="46.41441" lon="5.45272">
        <ele>382.4</ele>
        <time>2022-06-06T15:26:31Z</time>
      </trkpt>
      <trkpt lat="46.41459" lon="5.45276">
        <ele>382.4</ele>
        <time>2022-06-06T15:26:33Z</time>
      </trkpt>
      <trkpt lat="46.41515" lon="5.4529">
        <ele>382.4</ele>
        <time>2022-06-06T15:26:40Z</time>
      </trkpt>
      <trkpt lat="46.41523" lon="5.45291">
        <ele>382.4</ele>
        <time>2022-06-06T15:26:41Z</time>
      </trkpt>
      <trkpt lat="46.41569" lon="5.45303">
        <ele>383.2</ele>
        <time>2022-06-06T15:26:47Z</time>
      </trkpt>
      <trkpt lat="46.41607" lon="5.45311">
        <ele>383.6</ele>
        <time>2022-06-06T15:26:52Z</time>
      </trkpt>
      <trkpt lat="46.41636" lon="5.45319">
        <ele>384.2</ele>
        <time>2022-06-06T15:26:56Z</time>
      </trkpt>
      <trkpt lat="46.41651" lon="5.45322">
        <ele>384.4</ele>
        <time>2022-06-06T15:26:58Z</time>
      </trkpt>
      <trkpt lat="46.417" lon="5.45334">
        <ele>385.2</ele>
        <time>2022-06-06T15:27:05Z</time>
      </trkpt>
      <trkpt lat="46.41707" lon="5.45335">
        <ele>385.4</ele>
        <time>2022-06-06T15:27:06Z</time>
      </trkpt>
      <trkpt lat="46.41743" lon="5.45344">
        <ele>386.4</ele>
        <time>2022-06-06T15:27:11Z</time>
      </trkpt>
      <trkpt lat="46.41758" lon="5.45347">
        <ele>386.6</ele>
        <time>2022-06-06T15:27:13Z</time>
      </trkpt>
      <trkpt lat="46.41794" lon="5.45356">
        <ele>387.2</ele>
        <time>2022-06-06T15:27:18Z</time>
      </trkpt>
      <trkpt lat="46.41839" lon="5.45366">
        <ele>387.4</ele>
        <time>2022-06-06T15:27:24Z</time>
      </trkpt>
      <trkpt lat="46.41892" lon="5.4538">
        <ele>387.4</ele>
        <time>2022-06-06T15:27:31Z</time>
      </trkpt>
      <trkpt lat="46.41953" lon="5.45398">
        <ele>387.2</ele>
        <time>2022-06-06T15:27:39Z</time>
      </trkpt>
      <trkpt lat="46.41974" lon="5.45406">
        <ele>387.4</ele>
        <time>2022-06-06T15:27:42Z</time>
      </trkpt>
      <trkpt lat="46.41995" lon="5.45415">
        <ele>387.8</ele>
        <time>2022-06-06T15:27:45Z</time>
      </trkpt>
      <trkpt lat="46.42022" lon="5.45427">
        <ele>389</ele>
        <time>2022-06-06T15:27:49Z</time>
      </trkpt>
      <trkpt lat="46.42082" lon="5.45452">
        <ele>389.4</ele>
        <time>2022-06-06T15:27:57Z</time>
      </trkpt>
      <trkpt lat="46.4209" lon="5.45455">
        <ele>389.4</ele>
        <time>2022-06-06T15:27:58Z</time>
      </trkpt>
      <trkpt lat="46.42147" lon="5.45477">
        <ele>389</ele>
        <time>2022-06-06T15:28:05Z</time>
      </trkpt>
      <trkpt lat="46.42206" lon="5.45498">
        <ele>388.8</ele>
        <time>2022-06-06T15:28:12Z</time>
      </trkpt>
      <trkpt lat="46.42231" lon="5.45507">
        <ele>388.6</ele>
        <time>2022-06-06T15:28:15Z</time>
      </trkpt>
      <trkpt lat="46.42286" lon="5.45525">
        <ele>388.4</ele>
        <time>2022-06-06T15:28:22Z</time>
      </trkpt>
      <trkpt lat="46.42321" lon="5.45535">
        <ele>388.6</ele>
        <time>2022-06-06T15:28:26Z</time>
      </trkpt>
      <trkpt lat="46.42374" lon="5.45552">
        <ele>388.6</ele>
        <time>2022-06-06T15:28:32Z</time>
      </trkpt>
      <trkpt lat="46.42384" lon="5.45555">
        <ele>388.6</ele>
        <time>2022-06-06T15:28:33Z</time>
      </trkpt>
      <trkpt lat="46.42403" lon="5.45561">
        <ele>388.2</ele>
        <time>2022-06-06T15:28:35Z</time>
      </trkpt>
      <trkpt lat="46.42451" lon="5.45577">
        <ele>386.4</ele>
        <time>2022-06-06T15:28:40Z</time>
      </trkpt>
      <trkpt lat="46.42484" lon="5.45587">
        <ele>385.4</ele>
        <time>2022-06-06T15:28:43Z</time>
      </trkpt>
      <trkpt lat="46.42533" lon="5.45603">
        <ele>384.2</ele>
        <time>2022-06-06T15:28:48Z</time>
      </trkpt>
      <trkpt lat="46.42541" lon="5.45605">
        <ele>384</ele>
        <time>2022-06-06T15:28:49Z</time>
      </trkpt>
      <trkpt lat="46.42599" lon="5.45624">
        <ele>383.8</ele>
        <time>2022-06-06T15:28:55Z</time>
      </trkpt>
      <trkpt lat="46.42625" lon="5.45632">
        <ele>384</ele>
        <time>2022-06-06T15:28:58Z</time>
      </trkpt>
      <trkpt lat="46.42668" lon="5.45646">
        <ele>384.4</ele>
        <time>2022-06-06T15:29:03Z</time>
      </trkpt>
      <trkpt lat="46.4273" lon="5.45665">
        <ele>385</ele>
        <time>2022-06-06T15:29:10Z</time>
      </trkpt>
      <trkpt lat="46.42748" lon="5.4567">
        <ele>385.2</ele>
        <time>2022-06-06T15:29:12Z</time>
      </trkpt>
      <trkpt lat="46.42765" lon="5.45672">
        <ele>385.4</ele>
        <time>2022-06-06T15:29:14Z</time>
      </trkpt>
      <trkpt lat="46.42774" lon="5.45674">
        <ele>385.6</ele>
        <time>2022-06-06T15:29:15Z</time>
      </trkpt>
      <trkpt lat="46.42826" lon="5.45681">
        <ele>385.8</ele>
        <time>2022-06-06T15:29:21Z</time>
      </trkpt>
      <trkpt lat="46.42888" lon="5.45682">
        <ele>385</ele>
        <time>2022-06-06T15:29:28Z</time>
      </trkpt>
      <trkpt lat="46.42897" lon="5.45683">
        <ele>384.8</ele>
        <time>2022-06-06T15:29:29Z</time>
      </trkpt>
      <trkpt lat="46.42916" lon="5.45683">
        <ele>384.4</ele>
        <time>2022-06-06T15:29:31Z</time>
      </trkpt>
      <trkpt lat="46.42966" lon="5.45684">
        <ele>383.4</ele>
        <time>2022-06-06T15:29:36Z</time>
      </trkpt>
      <trkpt lat="46.42996" lon="5.45685">
        <ele>382.2</ele>
        <time>2022-06-06T15:29:39Z</time>
      </trkpt>
      <trkpt lat="46.43046" lon="5.45686">
        <ele>381</ele>
        <time>2022-06-06T15:29:44Z</time>
      </trkpt>
      <trkpt lat="46.43056" lon="5.45686">
        <ele>380.8</ele>
        <time>2022-06-06T15:29:45Z</time>
      </trkpt>
      <trkpt lat="46.43108" lon="5.45687">
        <ele>380.2</ele>
        <time>2022-06-06T15:29:50Z</time>
      </trkpt>
      <trkpt lat="46.4314" lon="5.45687">
        <ele>378.8</ele>
        <time>2022-06-06T15:29:53Z</time>
      </trkpt>
      <trkpt lat="46.43193" lon="5.45689">
        <ele>377.6</ele>
        <time>2022-06-06T15:29:58Z</time>
      </trkpt>
      <trkpt lat="46.43224" lon="5.4569">
        <ele>376.6</ele>
        <time>2022-06-06T15:30:01Z</time>
      </trkpt>
      <trkpt lat="46.43244" lon="5.4569">
        <ele>376.2</ele>
        <time>2022-06-06T15:30:03Z</time>
      </trkpt>
      <trkpt lat="46.43301" lon="5.45691">
        <ele>376.2</ele>
        <time>2022-06-06T15:30:09Z</time>
      </trkpt>
      <trkpt lat="46.4331" lon="5.45692">
        <ele>376.2</ele>
        <time>2022-06-06T15:30:10Z</time>
      </trkpt>
      <trkpt lat="46.43365" lon="5.45692">
        <ele>376.4</ele>
        <time>2022-06-06T15:30:16Z</time>
      </trkpt>
      <trkpt lat="46.43382" lon="5.45693">
        <ele>376.4</ele>
        <time>2022-06-06T15:30:18Z</time>
      </trkpt>
      <trkpt lat="46.43444" lon="5.45694">
        <ele>376.4</ele>
        <time>2022-06-06T15:30:25Z</time>
      </trkpt>
      <trkpt lat="46.43462" lon="5.45695">
        <ele>376.6</ele>
        <time>2022-06-06T15:30:27Z</time>
      </trkpt>
      <trkpt lat="46.43523" lon="5.45696">
        <ele>376.8</ele>
        <time>2022-06-06T15:30:34Z</time>
      </trkpt>
      <trkpt lat="46.43548" lon="5.45697">
        <ele>376.8</ele>
        <time>2022-06-06T15:30:37Z</time>
      </trkpt>
      <trkpt lat="46.43608" lon="5.45697">
        <ele>377</ele>
        <time>2022-06-06T15:30:44Z</time>
      </trkpt>
      <trkpt lat="46.43623" lon="5.45698">
        <ele>377.2</ele>
        <time>2022-06-06T15:30:46Z</time>
      </trkpt>
      <trkpt lat="46.43683" lon="5.457">
        <ele>377.2</ele>
        <time>2022-06-06T15:30:53Z</time>
      </trkpt>
      <trkpt lat="46.43716" lon="5.457">
        <ele>377.4</ele>
        <time>2022-06-06T15:30:57Z</time>
      </trkpt>
      <trkpt lat="46.43771" lon="5.45702">
        <ele>377.6</ele>
        <time>2022-06-06T15:31:04Z</time>
      </trkpt>
      <trkpt lat="46.43788" lon="5.45702">
        <ele>377.8</ele>
        <time>2022-06-06T15:31:06Z</time>
      </trkpt>
      <trkpt lat="46.43843" lon="5.45702">
        <ele>378.4</ele>
        <time>2022-06-06T15:31:13Z</time>
      </trkpt>
      <trkpt lat="46.43868" lon="5.457">
        <ele>378.6</ele>
        <time>2022-06-06T15:31:16Z</time>
      </trkpt>
      <trkpt lat="46.43924" lon="5.45691">
        <ele>378.6</ele>
        <time>2022-06-06T15:31:23Z</time>
      </trkpt>
      <trkpt lat="46.43948" lon="5.45687">
        <ele>378.4</ele>
        <time>2022-06-06T15:31:26Z</time>
      </trkpt>
      <trkpt lat="46.44006" lon="5.45676">
        <ele>378.6</ele>
        <time>2022-06-06T15:31:33Z</time>
      </trkpt>
      <trkpt lat="46.44038" lon="5.45671">
        <ele>378.8</ele>
        <time>2022-06-06T15:31:37Z</time>
      </trkpt>
      <trkpt lat="46.44076" lon="5.45663">
        <ele>379</ele>
        <time>2022-06-06T15:31:42Z</time>
      </trkpt>
      <trkpt lat="46.44099" lon="5.45659">
        <ele>379.2</ele>
        <time>2022-06-06T15:31:45Z</time>
      </trkpt>
      <trkpt lat="46.44159" lon="5.45648">
        <ele>379.8</ele>
        <time>2022-06-06T15:31:53Z</time>
      </trkpt>
      <trkpt lat="46.44174" lon="5.45645">
        <ele>380</ele>
        <time>2022-06-06T15:31:55Z</time>
      </trkpt>
      <trkpt lat="46.44211" lon="5.45638">
        <ele>380</ele>
        <time>2022-06-06T15:32:00Z</time>
      </trkpt>
      <trkpt lat="46.44252" lon="5.45631">
        <ele>380.4</ele>
        <time>2022-06-06T15:32:06Z</time>
      </trkpt>
      <trkpt lat="46.44307" lon="5.45633">
        <ele>381</ele>
        <time>2022-06-06T15:32:14Z</time>
      </trkpt>
      <trkpt lat="46.44349" lon="5.45638">
        <ele>382.2</ele>
        <time>2022-06-06T15:32:20Z</time>
      </trkpt>
      <trkpt lat="46.44381" lon="5.45642">
        <ele>382.6</ele>
        <time>2022-06-06T15:32:25Z</time>
      </trkpt>
      <trkpt lat="46.44407" lon="5.45644">
        <ele>383.4</ele>
        <time>2022-06-06T15:32:29Z</time>
      </trkpt>
      <trkpt lat="46.44449" lon="5.45648">
        <ele>384.4</ele>
        <time>2022-06-06T15:32:36Z</time>
      </trkpt>
      <trkpt lat="46.44479" lon="5.45652">
        <ele>385.6</ele>
        <time>2022-06-06T15:32:41Z</time>
      </trkpt>
      <trkpt lat="46.445" lon="5.45656">
        <ele>386</ele>
        <time>2022-06-06T15:32:44Z</time>
      </trkpt>
      <trkpt lat="46.4454" lon="5.45666">
        <ele>386.2</ele>
        <time>2022-06-06T15:32:50Z</time>
      </trkpt>
      <trkpt lat="46.44548" lon="5.45669">
        <ele>386.2</ele>
        <time>2022-06-06T15:32:51Z</time>
      </trkpt>
      <trkpt lat="46.44596" lon="5.45683">
        <ele>385.6</ele>
        <time>2022-06-06T15:32:57Z</time>
      </trkpt>
      <trkpt lat="46.44651" lon="5.45702">
        <ele>385.2</ele>
        <time>2022-06-06T15:33:04Z</time>
      </trkpt>
      <trkpt lat="46.44682" lon="5.45713">
        <ele>385.2</ele>
        <time>2022-06-06T15:33:08Z</time>
      </trkpt>
      <trkpt lat="46.44735" lon="5.45736">
        <ele>385.6</ele>
        <time>2022-06-06T15:33:15Z</time>
      </trkpt>
      <trkpt lat="46.4475" lon="5.45744">
        <ele>385.8</ele>
        <time>2022-06-06T15:33:17Z</time>
      </trkpt>
      <trkpt lat="46.44804" lon="5.45774">
        <ele>386.6</ele>
        <time>2022-06-06T15:33:25Z</time>
      </trkpt>
      <trkpt lat="46.4484" lon="5.45795">
        <ele>387</ele>
        <time>2022-06-06T15:33:30Z</time>
      </trkpt>
      <trkpt lat="46.44868" lon="5.4581">
        <ele>387</ele>
        <time>2022-06-06T15:33:34Z</time>
      </trkpt>
      <trkpt lat="46.44919" lon="5.45841">
        <ele>387.2</ele>
        <time>2022-06-06T15:33:41Z</time>
      </trkpt>
      <trkpt lat="46.44977" lon="5.45875">
        <ele>386</ele>
        <time>2022-06-06T15:33:48Z</time>
      </trkpt>
      <trkpt lat="46.44985" lon="5.4588">
        <ele>386</ele>
        <time>2022-06-06T15:33:49Z</time>
      </trkpt>
      <trkpt lat="46.45027" lon="5.45905">
        <ele>384.8</ele>
        <time>2022-06-06T15:33:54Z</time>
      </trkpt>
      <trkpt lat="46.45052" lon="5.4592">
        <ele>384</ele>
        <time>2022-06-06T15:33:57Z</time>
      </trkpt>
      <trkpt lat="46.45061" lon="5.45925">
        <ele>383.8</ele>
        <time>2022-06-06T15:33:58Z</time>
      </trkpt>
      <trkpt lat="46.45102" lon="5.45945">
        <ele>383</ele>
        <time>2022-06-06T15:34:03Z</time>
      </trkpt>
      <trkpt lat="46.45139" lon="5.45967">
        <ele>383.2</ele>
        <time>2022-06-06T15:34:08Z</time>
      </trkpt>
      <trkpt lat="46.45166" lon="5.4599">
        <ele>383.4</ele>
        <time>2022-06-06T15:34:12Z</time>
      </trkpt>
      <trkpt lat="46.45191" lon="5.46008">
        <ele>384</ele>
        <time>2022-06-06T15:34:16Z</time>
      </trkpt>
      <trkpt lat="46.45203" lon="5.46019">
        <ele>384.6</ele>
        <time>2022-06-06T15:34:18Z</time>
      </trkpt>
      <trkpt lat="46.45209" lon="5.46024">
        <ele>385</ele>
        <time>2022-06-06T15:34:19Z</time>
      </trkpt>
      <trkpt lat="46.45229" lon="5.46043">
        <ele>385.8</ele>
        <time>2022-06-06T15:34:23Z</time>
      </trkpt>
      <trkpt lat="46.45235" lon="5.46045">
        <ele>386.4</ele>
        <time>2022-06-06T15:34:24Z</time>
      </trkpt>
      <trkpt lat="46.45241" lon="5.46045">
        <ele>386.6</ele>
        <time>2022-06-06T15:34:25Z</time>
      </trkpt>
      <trkpt lat="46.4525" lon="5.46039">
        <ele>387.4</ele>
        <time>2022-06-06T15:34:27Z</time>
      </trkpt>
      <trkpt lat="46.45253" lon="5.46032">
        <ele>387.6</ele>
        <time>2022-06-06T15:34:28Z</time>
      </trkpt>
      <trkpt lat="46.45265" lon="5.46002">
        <ele>387.8</ele>
        <time>2022-06-06T15:34:31Z</time>
      </trkpt>
      <trkpt lat="46.45281" lon="5.45942">
        <ele>387</ele>
        <time>2022-06-06T15:34:36Z</time>
      </trkpt>
      <trkpt lat="46.45284" lon="5.45929">
        <ele>386.4</ele>
        <time>2022-06-06T15:34:37Z</time>
      </trkpt>
      <trkpt lat="46.45293" lon="5.45889">
        <ele>384.6</ele>
        <time>2022-06-06T15:34:40Z</time>
      </trkpt>
      <trkpt lat="46.45301" lon="5.45862">
        <ele>383</ele>
        <time>2022-06-06T15:34:42Z</time>
      </trkpt>
      <trkpt lat="46.4531" lon="5.45835">
        <ele>382</ele>
        <time>2022-06-06T15:34:44Z</time>
      </trkpt>
      <trkpt lat="46.45319" lon="5.45798">
        <ele>381</ele>
        <time>2022-06-06T15:34:47Z</time>
      </trkpt>
      <trkpt lat="46.45322" lon="5.45785">
        <ele>380.6</ele>
        <time>2022-06-06T15:34:48Z</time>
      </trkpt>
      <trkpt lat="46.45331" lon="5.45721">
        <ele>380.2</ele>
        <time>2022-06-06T15:34:53Z</time>
      </trkpt>
      <trkpt lat="46.45346" lon="5.45637">
        <ele>380.2</ele>
        <time>2022-06-06T15:35:00Z</time>
      </trkpt>
      <trkpt lat="46.45355" lon="5.45617">
        <ele>380.4</ele>
        <time>2022-06-06T15:35:02Z</time>
      </trkpt>
      <trkpt lat="46.45362" lon="5.45608">
        <ele>380.4</ele>
        <time>2022-06-06T15:35:03Z</time>
      </trkpt>
      <trkpt lat="46.45368" lon="5.45604">
        <ele>380.4</ele>
        <time>2022-06-06T15:35:04Z</time>
      </trkpt>
      <trkpt lat="46.45384" lon="5.45597">
        <ele>380.8</ele>
        <time>2022-06-06T15:35:06Z</time>
      </trkpt>
      <trkpt lat="46.45398" lon="5.45596">
        <ele>380.8</ele>
        <time>2022-06-06T15:35:08Z</time>
      </trkpt>
      <trkpt lat="46.45412" lon="5.45601">
        <ele>381</ele>
        <time>2022-06-06T15:35:10Z</time>
      </trkpt>
      <trkpt lat="46.45446" lon="5.45626">
        <ele>382</ele>
        <time>2022-06-06T15:35:15Z</time>
      </trkpt>
      <trkpt lat="46.45461" lon="5.45638">
        <ele>382.2</ele>
        <time>2022-06-06T15:35:17Z</time>
      </trkpt>
      <trkpt lat="46.45487" lon="5.45657">
        <ele>382.8</ele>
        <time>2022-06-06T15:35:21Z</time>
      </trkpt>
      <trkpt lat="46.45506" lon="5.45669">
        <ele>383.4</ele>
        <time>2022-06-06T15:35:24Z</time>
      </trkpt>
      <trkpt lat="46.45529" lon="5.45683">
        <ele>384.6</ele>
        <time>2022-06-06T15:35:28Z</time>
      </trkpt>
      <trkpt lat="46.45536" lon="5.45686">
        <ele>384.8</ele>
        <time>2022-06-06T15:35:29Z</time>
      </trkpt>
      <trkpt lat="46.45562" lon="5.45698">
        <ele>386</ele>
        <time>2022-06-06T15:35:33Z</time>
      </trkpt>
      <trkpt lat="46.45582" lon="5.45704">
        <ele>387.4</ele>
        <time>2022-06-06T15:35:36Z</time>
      </trkpt>
      <trkpt lat="46.45589" lon="5.45705">
        <ele>387.8</ele>
        <time>2022-06-06T15:35:37Z</time>
      </trkpt>
      <trkpt lat="46.45603" lon="5.45703">
        <ele>388.6</ele>
        <time>2022-06-06T15:35:39Z</time>
      </trkpt>
      <trkpt lat="46.45625" lon="5.45696">
        <ele>389.8</ele>
        <time>2022-06-06T15:35:42Z</time>
      </trkpt>
      <trkpt lat="46.45657" lon="5.45679">
        <ele>391</ele>
        <time>2022-06-06T15:35:47Z</time>
      </trkpt>
      <trkpt lat="46.45676" lon="5.45667">
        <ele>392.2</ele>
        <time>2022-06-06T15:35:50Z</time>
      </trkpt>
      <trkpt lat="46.45681" lon="5.45664">
        <ele>392.4</ele>
        <time>2022-06-06T15:35:51Z</time>
      </trkpt>
      <trkpt lat="46.45711" lon="5.45646">
        <ele>393.4</ele>
        <time>2022-06-06T15:35:56Z</time>
      </trkpt>
      <trkpt lat="46.45743" lon="5.45628">
        <ele>394</ele>
        <time>2022-06-06T15:36:01Z</time>
      </trkpt>
      <trkpt lat="46.45797" lon="5.45598">
        <ele>394.4</ele>
        <time>2022-06-06T15:36:09Z</time>
      </trkpt>
      <trkpt lat="46.45811" lon="5.4559">
        <ele>394.2</ele>
        <time>2022-06-06T15:36:11Z</time>
      </trkpt>
      <trkpt lat="46.45866" lon="5.4556">
        <ele>393.4</ele>
        <time>2022-06-06T15:36:18Z</time>
      </trkpt>
      <trkpt lat="46.45908" lon="5.45535">
        <ele>392.2</ele>
        <time>2022-06-06T15:36:23Z</time>
      </trkpt>
      <trkpt lat="46.45917" lon="5.4553">
        <ele>392</ele>
        <time>2022-06-06T15:36:24Z</time>
      </trkpt>
      <trkpt lat="46.45943" lon="5.45515">
        <ele>390.8</ele>
        <time>2022-06-06T15:36:27Z</time>
      </trkpt>
      <trkpt lat="46.4597" lon="5.455">
        <ele>389.6</ele>
        <time>2022-06-06T15:36:30Z</time>
      </trkpt>
      <trkpt lat="46.46005" lon="5.45479">
        <ele>389.2</ele>
        <time>2022-06-06T15:36:34Z</time>
      </trkpt>
      <trkpt lat="46.46023" lon="5.45469">
        <ele>388.6</ele>
        <time>2022-06-06T15:36:36Z</time>
      </trkpt>
      <trkpt lat="46.46067" lon="5.45442">
        <ele>388</ele>
        <time>2022-06-06T15:36:41Z</time>
      </trkpt>
      <trkpt lat="46.46103" lon="5.4542">
        <ele>387.4</ele>
        <time>2022-06-06T15:36:45Z</time>
      </trkpt>
      <trkpt lat="46.46146" lon="5.45392">
        <ele>386.4</ele>
        <time>2022-06-06T15:36:50Z</time>
      </trkpt>
      <trkpt lat="46.46172" lon="5.45374">
        <ele>385.8</ele>
        <time>2022-06-06T15:36:53Z</time>
      </trkpt>
      <trkpt lat="46.46198" lon="5.45356">
        <ele>385.2</ele>
        <time>2022-06-06T15:36:56Z</time>
      </trkpt>
      <trkpt lat="46.46247" lon="5.4532">
        <ele>385</ele>
        <time>2022-06-06T15:37:02Z</time>
      </trkpt>
      <trkpt lat="46.46296" lon="5.45281">
        <ele>385.2</ele>
        <time>2022-06-06T15:37:08Z</time>
      </trkpt>
      <trkpt lat="46.46345" lon="5.45243">
        <ele>384.8</ele>
        <time>2022-06-06T15:37:14Z</time>
      </trkpt>
      <trkpt lat="46.46369" lon="5.45228">
        <ele>384.6</ele>
        <time>2022-06-06T15:37:17Z</time>
      </trkpt>
      <trkpt lat="46.46406" lon="5.45213">
        <ele>384.6</ele>
        <time>2022-06-06T15:37:22Z</time>
      </trkpt>
      <trkpt lat="46.46429" lon="5.45215">
        <ele>384.6</ele>
        <time>2022-06-06T15:37:25Z</time>
      </trkpt>
      <trkpt lat="46.46436" lon="5.45218">
        <ele>384.6</ele>
        <time>2022-06-06T15:37:26Z</time>
      </trkpt>
      <trkpt lat="46.46444" lon="5.45221">
        <ele>384.6</ele>
        <time>2022-06-06T15:37:27Z</time>
      </trkpt>
    </trkseg>
  </trk>
</gpx>